JPL-Sats

  Home –  History –  Credit –  Support –  Last_Sats –  Future_Sats –  C95_Ephs –  M58_Ephs –  I98_Ephs(T18) –  Q62_Ephs(T33) –  U94_Ephs(T68) –  Legal –  Privacy
Home   
History   
Credit   
Support   
Last_Sats   
Future_Sats   
C95_Ephs   
M58_Ephs   
I98_Ephs(T18)   
Q62_Ephs(T33)   
U94_Ephs(T68)   
Legal   
Privacy   

Index of all used observable objects

Wind (-8) TESS (-95) Chandra Observatory (-151) James Webb Space Telescope (-170) INTEGRAL (-198) Spektr-R Observatory (-557) Euclid (-680) CAPSTONE (-1176) Titan-3C RB (-102770) Gaia (-139479) MMS-1 (-140482) MMS-2 (-140483) MMS-3 (-140484) MMS-4 (-140485)

Missions with actual ephemerides

The ephemeris are downloaded by JPL Horizont:

  • Start of interval: 2024-03-04 00:00:00.
  • End of interval: 2024-03-18 00:00:00.
  • Time of interval: 10 min.
  • Station: U94.
  • Created: 2024-Mar-04 03:26:35 UTC.

Wind (JPL-ID: -8)

   Date (UTC) HH:MM   RA              Dec         delta   r     elong SM  mag  '/hr    PA   alt  az moo ill
   ---- -- -- -----  -------------   -----------  ------ ------ ----- --  --- ------ ------ --- --- --- ---
   2024 03 04 13:10  21 30 30.74    -15 47 48.2   0.0097 0.9829  24.2 Nm  20?   2.43  91.3    0 110  54  40
   2024 03 04 13:20  21 30 32.38    -15 47 48.7   0.0096 0.9829  24.2 Nm  20?   2.30  91.2    2 112  54  40
   2024 03 04 13:30  21 30 33.92    -15 47 49.2   0.0096 0.9829  24.2 Nm  20?   2.17  90.9    4 113  54  40
   2024 03 04 13:40  21 30 35.38    -15 47 49.5   0.0096 0.9830  24.2 Cm  20?   2.04  90.6    6 115  54  40
   2024 03 04 13:50  21 30 36.75    -15 47 49.7   0.0096 0.9830  24.2 Cm  20?   1.91  90.2    8 117  54  40
   ................
   2024 03 05 13:10  21 35 51.91    -15 28 46.0   0.0096 0.9832  23.9 Nm  20?   2.54  89.8    0 110  42  29
   2024 03 05 13:20  21 35 53.62    -15 28 46.0   0.0096 0.9832  23.9 Nm  20?   2.41  89.6    2 111  42  29
   2024 03 05 13:30  21 35 55.24    -15 28 45.8   0.0096 0.9832  23.9 Nm  20?   2.28  89.3    4 113  42  29
   2024 03 05 13:40  21 35 56.77    -15 28 45.4   0.0096 0.9832  23.9 Cm  20?   2.15  88.9    6 114  42  29
   2024 03 05 13:50  21 35 58.21    -15 28 45.0   0.0096 0.9832  23.9 Cm  20?   2.02  88.4    7 116  42  29
   ................
   2024 03 06 13:10  21 41 21.77    -15 08 25.9   0.0095 0.9835  23.5 Nm  20?   2.65  88.4    0 109  29  20
   2024 03 06 13:20  21 41 23.55    -15 08 25.2   0.0095 0.9835  23.5 Nm  20?   2.51  88.1    2 111  29  20
   2024 03 06 13:30  21 41 25.24    -15 08 24.3   0.0095 0.9835  23.5 Nm  20?   2.38  87.7    4 112  29  19
   2024 03 06 13:40  21 41 26.84    -15 08 23.4   0.0095 0.9835  23.5 Cm  20?   2.25  87.3    6 114  29  19
   2024 03 06 13:50  21 41 28.35    -15 08 22.3   0.0095 0.9835  23.5 Cm  20?   2.12  86.8    7 116  29  19
   ................
   2024 03 07 13:10  21 46 59.99    -14 46 47.0   0.0095 0.9838  23.1 Nm  20?   2.76  87.0    0 109  16  11
   2024 03 07 13:20  21 47 01.84    -14 46 45.6   0.0095 0.9838  23.1 Nm  20?   2.62  86.7    2 110  16  11
   2024 03 07 13:30  21 47 03.60    -14 46 44.1   0.0095 0.9838  23.1 Nm  20?   2.49  86.3    4 112  16  11
   2024 03 07 13:40  21 47 05.27    -14 46 42.5   0.0095 0.9838  23.1 Cm  20?   2.36  85.8    6 113  16  11
   2024 03 07 13:50  21 47 06.84    -14 46 40.7   0.0095 0.9838  23.1 Cm  20?   2.23  85.2    7 115  16  11
   ................
   2024 03 08 13:10  21 52 46.15    -14 23 49.4   0.0094 0.9841  22.7 Nm  20?   2.87  85.8    0 108   4   5
   2024 03 08 13:20  21 52 48.07    -14 23 47.3   0.0094 0.9841  22.7 Nm  20?   2.73  85.4    2 110   4   5
   2024 03 08 13:30  21 52 49.90    -14 23 45.1   0.0094 0.9841  22.7 Cm  20?   2.60  84.9    4 111   4   4
   2024 03 08 13:40  21 52 51.63    -14 23 42.8   0.0094 0.9841  22.7 Cm  20?   2.47  84.4    6 113   4   4
   ................
   2024 03 09 13:10  21 58 39.76    -13 59 34.1   0.0094 0.9844  22.2 N   20?   2.97  84.6    0 107  11   1
   2024 03 09 13:20  21 58 41.75    -13 59 31.3   0.0094 0.9844  22.2 N   20?   2.84  84.2    2 109  11   1
   2024 03 09 13:30  21 58 43.64    -13 59 28.4   0.0094 0.9844  22.2 C   20?   2.70  83.7    4 111  11   1
   2024 03 09 13:40  21 58 45.44    -13 59 25.4   0.0094 0.9844  22.2 Cm  20?   2.57  83.1    5 112  11   1
   ................
   2024 03 10 13:10  22 04 40.30    -13 34 02.7   0.0093 0.9847  21.7 N   20?   3.08  83.5    0 107  24   0
   2024 03 10 13:20  22 04 42.35    -13 33 59.2   0.0093 0.9847  21.7 N   20?   2.94  83.0    2 108  24   0
   2024 03 10 13:30  22 04 44.31    -13 33 55.6   0.0093 0.9847  21.7 C   20?   2.81  82.5    4 110  24   0
   2024 03 10 13:40  22 04 46.17    -13 33 52.0   0.0093 0.9847  21.7 C   20?   2.67  81.9    5 112  25   0
   ................
   2024 03 11 13:10  22 10 47.22    -13 07 17.5   0.0093 0.9849  21.2 N   20?   3.18  82.5    0 106  38   2
   2024 03 11 13:20  22 10 49.33    -13 07 13.3   0.0093 0.9850  21.2 N   20?   3.04  82.0    2 108  38   2
   2024 03 11 13:30  22 10 51.34    -13 07 09.0   0.0093 0.9850  21.2 C   20?   2.91  81.4    3 109  38   2
   2024 03 11 13:40  22 10 53.27    -13 07 04.7   0.0093 0.9850  21.2 C   20?   2.78  80.8    5 111  38   2
   ................
   2024 03 12 13:10  22 17 00.03    -12 39 20.7   0.0092 0.9852  20.6 Nr  20?   3.28  81.5    0 105  51   7
   2024 03 12 13:20  22 17 02.20    -12 39 15.8   0.0092 0.9852  20.6 N   20?   3.15  81.0    1 107  51   7
   2024 03 12 13:30  22 17 04.28    -12 39 10.9   0.0092 0.9852  20.6 C   20?   3.01  80.4    3 109  51   7
   2024 03 12 13:40  22 17 06.26    -12 39 05.9   0.0092 0.9852  20.6 C   20?   2.87  79.8    5 110  51   7
   ................
   2024 03 13 13:10  22 23 18.34    -12 10 14.4   0.0091 0.9855  20.0 Nr  20?   3.38  80.6    0 105  64  14
   2024 03 13 13:20  22 23 20.57    -12 10 08.8   0.0091 0.9855  20.0 N   20?   3.25  80.0    1 106  64  14
   2024 03 13 13:30  22 23 22.71    -12 10 03.2   0.0091 0.9855  20.0 C   20?   3.11  79.5    3 108  64  14
   2024 03 13 13:40  22 23 24.74    -12 09 57.5   0.0091 0.9855  20.0 C   20?   2.97  78.8    5 109  64  14
   ................
   2024 03 14 13:10  22 29 41.85    -11 40 00.1   0.0091 0.9858  19.4 Nr  20?   3.49  79.7    0 104  77  23
   2024 03 14 13:20  22 29 44.14    -11 39 53.9   0.0091 0.9858  19.4 N   20?   3.35  79.2    1 105  77  23
   2024 03 14 13:30  22 29 46.33    -11 39 47.6   0.0091 0.9858  19.4 C   20?   3.21  78.6    3 107  77  23
   ................
   2024 03 15 13:10  22 36 10.35    -11 08 39.0   0.0090 0.9861  18.7 Nr  20?   3.59  78.8    0 103  89  33
   2024 03 15 13:20  22 36 12.70    -11 08 32.1   0.0090 0.9861  18.7 C   20?   3.45  78.3    1 105  89  33
   2024 03 15 13:30  22 36 14.94    -11 08 25.1   0.0090 0.9861  18.7 C   20?   3.31  77.7    3 106  89  33
   ................
   2024 03 16 13:20  22 42 46.12    -10 36 03.9   0.0090 0.9864  18.0 C   20?   3.55  77.5    1 104 100  43
   2024 03 16 13:30  22 42 48.43    -10 35 56.2   0.0090 0.9864  18.0 C   20?   3.41  76.8    3 105 100  43
   ................
   2024 03 17 13:20  22 49 24.36    -10 02 29.7   0.0089 0.9867  17.3 C   20?   3.66  76.7    1 103 111  53
   2024 03 17 13:30  22 49 26.72    -10 02 21.2   0.0089 0.9867  17.3 C   20?   3.52  76.0    3 105 111  54
   ................
   

TESS (JPL-ID: -95)

   Date (UTC) HH:MM   RA              Dec         delta   r     elong SM  mag  '/hr    PA   alt  az moo ill
   ---- -- -- -----  -------------   -----------  ------ ------ ----- --  --- ------ ------ --- --- --- ---
   2024 03 04 01:40  02 04 01.31    -31 25 32.3   338963 0.9901  49.7 C   14?  27.59  34.1   10 215 106  45
   2024 03 04 01:50  02 04 13.51    -31 21 42.6   339139 0.9902  49.7 C   14?  27.97  34.5    9 217 106  45
   2024 03 04 02:00  02 04 26.01    -31 17 50.9   339320 0.9902  49.7 N   14?  28.36  35.0    8 219 106  45
   2024 03 04 02:10  02 04 38.81    -31 13 57.3   339506 0.9902  49.7 N   14?  28.75  35.4    6 221 106  45
   2024 03 04 02:20  02 04 51.94    -31 10 01.9   339697 0.9902  49.7 N   14?  29.13  35.9    5 222 106  45
   2024 03 04 02:30  02 05 05.38    -31 06 04.8   339892 0.9902  49.8 A   14?  29.52  36.4    4 224 106  45
   2024 03 04 02:40  02 05 19.17    -31 02 06.2   340092 0.9902  49.8 A   14?  29.92  36.9    3 226 106  45
   2024 03 04 02:50  02 05 33.31    -30 58 06.1   340295 0.9902  49.8 A   14?  30.31  37.5    1 227 106  44
   2024 03 04 03:00  02 05 47.79    -30 54 04.6   340503 0.9902  49.8     14?  30.70  38.0    0 229 106  44
   ................
   2024 03 05 01:40  02 47 48.04    -23 46 54.9   340686 0.9906  56.6 C   14?  25.87  27.8   21 211 108  35
   2024 03 05 01:50  02 47 56.91    -23 43 04.9   340776 0.9906  56.6 C   14?  26.18  28.2   20 213 108  35
   2024 03 05 02:00  02 48 06.01    -23 39 13.0   340872 0.9906  56.6 N   14?  26.50  28.7   19 216 108  35
   2024 03 05 02:10  02 48 15.36    -23 35 19.4   340975 0.9906  56.6 N   14?  26.82  29.1   18 218 108  35
   2024 03 05 02:20  02 48 24.96    -23 31 24.1   341084 0.9906  56.7 N   14?  27.14  29.7   17 220 108  34
   2024 03 05 02:30  02 48 34.83    -23 27 27.2   341199 0.9906  56.7 A   14?  27.47  30.2   15 222 108  34
   2024 03 05 02:40  02 48 44.99    -23 23 28.8   341319 0.9906  56.7 A   14?  27.80  30.8   14 224 108  34
   2024 03 05 02:50  02 48 55.43    -23 19 29.0   341445 0.9906  56.7 A   14?  28.14  31.3   13 226 108  34
   2024 03 05 03:00  02 49 06.19    -23 15 27.7   341577 0.9906  56.8     14?  28.48  32.0   11 227 108  34
   2024 03 05 03:10  02 49 17.26    -23 11 25.2   341713 0.9907  56.8     14?  28.82  32.6   10 229 108  34
   2024 03 05 03:20  02 49 28.65    -23 07 21.5   341853 0.9907  56.8     14?  29.17  33.2    9 231 108  34
   2024 03 05 03:30  02 49 40.37    -23 03 16.8   341998 0.9907  56.8     14?  29.52  33.9    7 233 108  34
   2024 03 05 03:40  02 49 52.44    -22 59 11.0   342148 0.9907  56.9     14?  29.87  34.6    6 234 108  34
   2024 03 05 03:50  02 50 04.86    -22 55 04.3   342300 0.9907  56.9     14?  30.22  35.2    4 236 108  34
   2024 03 05 04:00  02 50 17.63    -22 50 56.7   342456 0.9907  56.9     14?  30.58  35.9    2 238 108  33
   2024 03 05 04:10  02 50 30.77    -22 46 48.5   342615 0.9907  57.0     14?  30.94  36.6    1 239 108  33
   2024 03 05 04:20  02 50 44.27    -22 42 39.6   342777 0.9907  57.0     14?  31.30  37.3    0 241 108  33
   ................
   2024 03 06 01:40  03 27 04.06    -15 20 17.2   332620 0.9912  64.4 C   14?  25.96  24.2   32 207 110  25
   2024 03 06 01:50  03 27 11.46    -15 16 19.4   332619 0.9912  64.4 C   14?  26.20  24.5   31 209 110  25
   2024 03 06 02:00  03 27 19.04    -15 12 20.2   332625 0.9912  64.4 N   14?  26.44  24.9   30 212 110  25
   2024 03 06 02:10  03 27 26.81    -15 08 19.6   332639 0.9912  64.4 N   14?  26.68  25.4   29 214 110  25
   2024 03 06 02:20  03 27 34.79    -15 04 17.7   332661 0.9912  64.5 N   14?  26.94  25.9   28 217 110  24
   2024 03 06 02:30  03 27 42.99    -15 00 14.5   332689 0.9912  64.5 A   14?  27.20  26.4   27 219 110  24
   2024 03 06 02:40  03 27 51.42    -14 56 10.1   332725 0.9912  64.5 A   14?  27.46  27.0   26 222 110  24
   2024 03 06 02:50  03 28 00.10    -14 52 04.5   332767 0.9912  64.5 A   14?  27.73  27.5   24 224 110  24
   2024 03 06 03:00  03 28 09.05    -14 47 57.8   332815 0.9912  64.6 A   14?  28.01  28.2   23 226 110  24
   2024 03 06 03:10  03 28 18.27    -14 43 50.0   332870 0.9912  64.6     14?  28.30  28.8   22 228 110  24
   2024 03 06 03:20  03 28 27.78    -14 39 41.3   332930 0.9912  64.6     14?  28.59  29.5   20 230 110  24
   2024 03 06 03:30  03 28 37.59    -14 35 31.6   332996 0.9912  64.7     14?  28.89  30.1   19 232 110  24
   2024 03 06 03:40  03 28 47.71    -14 31 21.0   333067 0.9912  64.7     14?  29.20  30.8   17 234 110  24
   2024 03 06 03:50  03 28 58.14    -14 27 09.6   333144 0.9912  64.7     14?  29.51  31.6   16 236 110  24
   2024 03 06 04:00  03 29 08.91    -14 22 57.5   333225 0.9912  64.8     14?  29.83  32.3   14 238 110  23
   2024 03 06 04:10  03 29 20.01    -14 18 44.6   333310 0.9912  64.8     14?  30.16  33.0   13 240 110  23
   2024 03 06 04:20  03 29 31.46    -14 14 31.2   333400 0.9912  64.9     14?  30.49  33.8   11 241 110  23
   2024 03 06 04:30  03 29 43.26    -14 10 17.2   333493 0.9912  64.9     14?  30.82  34.5    9 243 110  23
   2024 03 06 04:40  03 29 55.42    -14 06 02.6   333589 0.9912  64.9     14?  31.17  35.3    8 245 110  23
   2024 03 06 04:50  03 30 07.95    -14 01 47.7   333689 0.9912  65.0     14?  31.52  36.1    6 246 110  23
   2024 03 06 05:00  03 30 20.84    -13 57 32.3   333791 0.9913  65.0     14?  31.87  36.8    4 248 110  23
   2024 03 06 05:10  03 30 34.12    -13 53 16.7   333896 0.9913  65.1     14?  32.23  37.6    2 250 110  23
   2024 03 06 05:20  03 30 47.78    -13 49 00.8   334002 0.9913  65.1     14?  32.59  38.3    1 251 110  23
   ................
   2024 03 07 01:50  04 06 08.10    -05 44 32.2   314612 0.9918  73.4 C   13?  28.29  23.5   43 204 112  16
   2024 03 07 02:00  04 06 15.68    -05 40 12.0   314522 0.9918  73.4 C   13?  28.44  23.8   42 207 112  15
   2024 03 07 02:10  04 06 23.40    -05 35 51.2   314440 0.9918  73.4 N   13?  28.60  24.1   42 210 112  15
   2024 03 07 02:20  04 06 31.28    -05 31 29.6   314367 0.9918  73.5 N   13?  28.77  24.6   41 213 112  15
   2024 03 07 02:30  04 06 39.34    -05 27 07.4   314301 0.9918  73.5 N   13?  28.94  25.0   40 216 112  15
   2024 03 07 02:40  04 06 47.60    -05 22 44.6   314243 0.9918  73.5 A   13?  29.13  25.5   38 219 112  15
   2024 03 07 02:50  04 06 56.07    -05 18 21.1   314193 0.9918  73.6 A   13?  29.32  26.0   37 221 112  15
   2024 03 07 03:00  04 07 04.76    -05 13 57.0   314150 0.9918  73.6 A   13?  29.53  26.6   36 224 112  15
   2024 03 07 03:10  04 07 13.70    -05 09 32.5   314114 0.9918  73.6     13?  29.74  27.2   35 227 112  15
   2024 03 07 03:20  04 07 22.89    -05 05 07.4   314085 0.9918  73.7     13?  29.97  27.8   33 229 112  15
   2024 03 07 03:30  04 07 32.36    -05 00 41.8   314063 0.9918  73.7     13?  30.21  28.5   32 231 112  15
   2024 03 07 03:40  04 07 42.10    -04 56 15.8   314048 0.9918  73.8     13?  30.45  29.2   30 234 112  15
   2024 03 07 03:50  04 07 52.14    -04 51 49.3   314038 0.9918  73.8     13?  30.71  29.9   29 236 112  15
   2024 03 07 04:00  04 08 02.49    -04 47 22.5   314034 0.9919  73.8     13?  30.98  30.6   27 238 112  15
   2024 03 07 04:10  04 08 13.17    -04 42 55.3   314036 0.9919  73.9     13?  31.26  31.3   25 240 112  14
   2024 03 07 04:20  04 08 24.17    -04 38 27.8   314043 0.9919  73.9     13?  31.55  32.1   24 242 112  14
   2024 03 07 04:30  04 08 35.51    -04 34 00.0   314055 0.9919  74.0     13?  31.85  32.9   22 244 112  14
   2024 03 07 04:40  04 08 47.21    -04 29 32.0   314072 0.9919  74.0     13?  32.16  33.6   20 246 111  14
   2024 03 07 04:50  04 08 59.27    -04 25 03.7   314093 0.9919  74.1     13?  32.49  34.4   19 248 111  14
   2024 03 07 05:00  04 09 11.69    -04 20 35.2   314118 0.9919  74.1     13?  32.82  35.2   17 250 111  14
   2024 03 07 05:10  04 09 24.50    -04 16 06.5   314146 0.9919  74.2     13?  33.17  36.0   15 251 111  14
   2024 03 07 05:20  04 09 37.69    -04 11 37.7   314178 0.9919  74.2     13?  33.53  36.8   13 253 111  14
   2024 03 07 05:30  04 09 51.27    -04 07 08.7   314212 0.9919  74.3     13?  33.89  37.6   11 255 111  14
   2024 03 07 05:40  04 10 05.25    -04 02 39.7   314249 0.9919  74.3     13?  34.27  38.4   10 256 111  14
   2024 03 07 05:50  04 10 19.63    -03 58 10.6   314288 0.9919  74.4     13?  34.65  39.1    8 258 111  14
   2024 03 07 06:00  04 10 34.41    -03 53 41.4   314329 0.9919  74.5     13?  35.04  39.9    6 260 111  14
   2024 03 07 06:10  04 10 49.61    -03 49 12.2   314371 0.9919  74.5     13?  35.44  40.7    4 261 111  14
   2024 03 07 06:20  04 11 05.22    -03 44 42.9   314414 0.9919  74.6     13?  35.85  41.4    2 263 111  13
   2024 03 07 06:30  04 11 21.24    -03 40 13.7   314457 0.9919  74.6     13?  36.26  42.2    0 264 111  13
   ................
   2024 03 08 01:50  04 49 46.31    +05 25 34.7   286766 0.9925  84.3 C   12?  33.62  25.4   57 193 114   8
   2024 03 08 02:00  04 49 55.97    +05 30 38.6   286571 0.9925  84.3 C   12?  33.65  25.6   56 197 114   8
   2024 03 08 02:10  04 50 05.72    +05 35 42.2   286385 0.9925  84.4 N   12?  33.69  25.9   56 202 114   8
   2024 03 08 02:20  04 50 15.59    +05 40 45.5   286208 0.9925  84.4 N   12?  33.74  26.2   55 206 114   8
   2024 03 08 02:30  04 50 25.59    +05 45 48.4   286038 0.9925  84.4 N   12?  33.81  26.5   54 210 114   8
   2024 03 08 02:40  04 50 35.75    +05 50 51.1   285877 0.9925  84.5 A   12?  33.88  26.9   53 214 114   8
   2024 03 08 02:50  04 50 46.07    +05 55 53.3   285725 0.9925  84.5 A   12?  33.97  27.4   52 217 114   8
   2024 03 08 03:00  04 50 56.59    +06 00 55.2   285580 0.9925  84.6 A   12?  34.07  27.8   51 221 114   7
   2024 03 08 03:10  04 51 07.32    +06 05 56.6   285443 0.9925  84.6     12?  34.19  28.3   49 224 114   7
   2024 03 08 03:20  04 51 18.27    +06 10 57.7   285314 0.9925  84.7     12?  34.32  28.9   48 227 114   7
   2024 03 08 03:30  04 51 29.47    +06 15 58.4   285192 0.9925  84.7     12?  34.46  29.5   47 230 114   7
   2024 03 08 03:40  04 51 40.92    +06 20 58.6   285078 0.9925  84.8     12?  34.62  30.1   45 233 114   7
   2024 03 08 03:50  04 51 52.66    +06 25 58.4   284970 0.9925  84.8     12?  34.80  30.7   44 236 113   7
   2024 03 08 04:00  04 52 04.69    +06 30 57.8   284869 0.9925  84.9     12?  34.99  31.4   42 238 113   7
   2024 03 08 04:10  04 52 17.03    +06 35 56.7   284775 0.9925  84.9     12?  35.20  32.1   41 241 113   7
   2024 03 08 04:20  04 52 29.70    +06 40 55.2   284687 0.9925  85.0     12?  35.43  32.8   39 243 113   7
   2024 03 08 04:30  04 52 42.71    +06 45 53.3   284605 0.9925  85.0     12?  35.67  33.5   37 245 113   7
   2024 03 08 04:40  04 52 56.07    +06 50 50.9   284529 0.9925  85.1     12?  35.94  34.3   35 248 113   7
   2024 03 08 04:50  04 53 09.80    +06 55 48.1   284458 0.9926  85.1     12?  36.22  35.0   34 250 113   7
   2024 03 08 05:00  04 53 23.91    +07 00 44.9   284393 0.9926  85.2     12?  36.51  35.8   32 252 113   7
   2024 03 08 05:10  04 53 38.41    +07 05 41.3   284332 0.9926  85.3     12?  36.83  36.6   30 253 113   7
   2024 03 08 05:20  04 53 53.32    +07 10 37.3   284275 0.9926  85.3     12?  37.16  37.4   28 255 113   7
   2024 03 08 05:30  04 54 08.64    +07 15 32.9   284223 0.9926  85.4     12?  37.51  38.2   26 257 113   7
   2024 03 08 05:40  04 54 24.39    +07 20 28.2   284175 0.9926  85.4     12?  37.88  39.0   25 259 113   7
   2024 03 08 05:50  04 54 40.57    +07 25 23.1   284130 0.9926  85.5     12?  38.26  39.7   23 261 113   7
   2024 03 08 06:00  04 54 57.19    +07 30 17.8   284088 0.9926  85.6     12?  38.67  40.5   21 262 113   6
   2024 03 08 06:10  04 55 14.27    +07 35 12.1   284049 0.9926  85.7     12?  39.08  41.3   19 264 113   6
   2024 03 08 06:20  04 55 31.80    +07 40 06.1   284012 0.9926  85.7     12?  39.52  42.1   17 266 113   6
   2024 03 08 06:30  04 55 49.80    +07 45 00.0   283977 0.9926  85.8     12?  39.96  42.8   15 267 113   6
   2024 03 08 06:40  04 56 08.27    +07 49 53.6   283944 0.9926  85.9     12?  40.43  43.6   13 269 113   6
   2024 03 08 06:50  04 56 27.22    +07 54 47.0   283912 0.9926  86.0     12?  40.90  44.3   12 270 113   6
   2024 03 08 07:00  04 56 46.64    +07 59 40.3   283880 0.9926  86.0     12?  41.39  45.0   10 272 113   6
   2024 03 08 07:10  04 57 06.54    +08 04 33.5   283850 0.9926  86.1     12?  41.89  45.7    8 273 113   6
   2024 03 08 07:20  04 57 26.93    +08 09 26.6   283819 0.9926  86.2     12?  42.40  46.4    6 275 113   6
   2024 03 08 07:30  04 57 47.81    +08 14 19.7   283789 0.9926  86.3     12?  42.92  47.1    4 276 113   6
   2024 03 08 07:40  04 58 09.17    +08 19 12.8   283757 0.9926  86.4     12?  43.44  47.7    2 278 113   6
   2024 03 08 07:50  04 58 31.02    +08 24 05.9   283725 0.9926  86.5     12?  43.98  48.3    0 279 113   6
   ................
   2024 03 09 01:50  05 47 35.92    +19 04 45.9   249657 0.9932  98.3 C   12?  45.34  31.8   70 162 117   2
   2024 03 09 02:00  05 47 52.73    +19 11 10.8   249352 0.9932  98.4 C   12?  45.19  32.0   71 168 117   2
   2024 03 09 02:10  05 48 09.57    +19 17 33.8   249056 0.9932  98.5 N   12?  45.05  32.1   71 176 117   2
   2024 03 09 02:20  05 48 26.46    +19 23 55.0   248768 0.9932  98.5 Nt  12?  44.93  32.3   71 183 117   2
   2024 03 09 02:30  05 48 43.42    +19 30 14.3   248488 0.9932  98.6 N   12?  44.82  32.6   71 190 117   2
   2024 03 09 02:40  05 49 00.48    +19 36 31.6   248216 0.9932  98.7 A   12?  44.73  32.9   71 197 117   2
   2024 03 09 02:50  05 49 17.65    +19 42 46.9   247952 0.9932  98.7 A   12?  44.65  33.2   70 204 117   2
   2024 03 09 03:00  05 49 34.97    +19 49 00.2   247697 0.9932  98.8 A   12?  44.59  33.5   69 210 117   2
   2024 03 09 03:10  05 49 52.46    +19 55 11.4   247448 0.9932  98.9     12?  44.55  33.9   68 216 117   2
   2024 03 09 03:20  05 50 10.13    +20 01 20.6   247208 0.9932  98.9     12?  44.53  34.4   67 221 117   2
   2024 03 09 03:30  05 50 28.02    +20 07 27.7   246976 0.9932  99.0     12?  44.53  34.9   66 226 116   2
   2024 03 09 03:40  05 50 46.15    +20 13 32.7   246750 0.9932  99.0     12?  44.55  35.4   65 231 116   2
   2024 03 09 03:50  05 51 04.53    +20 19 35.6   246533 0.9932  99.1     12?  44.59  35.9   63 235 116   2
   2024 03 09 04:00  05 51 23.19    +20 25 36.4   246322 0.9932  99.2     12?  44.65  36.5   61 238 116   2
   2024 03 09 04:10  05 51 42.16    +20 31 35.2   246119 0.9932  99.3     12?  44.74  37.1   60 242 116   2
   2024 03 09 04:20  05 52 01.46    +20 37 31.8   245922 0.9932  99.3     12?  44.85  37.7   58 245 116   2
   2024 03 09 04:30  05 52 21.10    +20 43 26.4   245733 0.9932  99.4     12?  44.98  38.3   57 248 116   2
   2024 03 09 04:40  05 52 41.11    +20 49 19.0   245549 0.9932  99.5     12?  45.15  39.0   55 250 116   2
   2024 03 09 04:50  05 53 01.51    +20 55 09.5   245372 0.9932  99.5     12?  45.33  39.7   53 253 116   2
   2024 03 09 05:00  05 53 22.32    +21 00 58.1   245202 0.9933  99.6     12?  45.55  40.4   51 255 116   2
   2024 03 09 05:10  05 53 43.56    +21 06 44.8   245036 0.9933  99.7     12?  45.79  41.1   49 257 116   2
   2024 03 09 05:20  05 54 05.25    +21 12 29.5   244877 0.9933  99.8     12?  46.06  41.9   48 259 116   2
   2024 03 09 05:30  05 54 27.41    +21 18 12.5   244723 0.9933  99.9     12?  46.36  42.6   46 261 116   2
   2024 03 09 05:40  05 54 50.05    +21 23 53.6   244573 0.9933  99.9     12?  46.69  43.4   44 263 116   2
   2024 03 09 05:50  05 55 13.19    +21 29 33.1   244429 0.9933 100.0     12?  47.04  44.1   42 265 116   2
   2024 03 09 06:00  05 55 36.85    +21 35 10.8   244289 0.9933 100.1     12?  47.42  44.9   40 266 116   2
   2024 03 09 06:10  05 56 01.05    +21 40 47.0   244153 0.9933 100.2     12?  47.83  45.6   38 268 116   2
   2024 03 09 06:20  05 56 25.79    +21 46 21.7   244022 0.9933 100.3     12?  48.27  46.4   37 270 116   2
   2024 03 09 06:30  05 56 51.10    +21 51 55.0   243893 0.9933 100.4     12?  48.74  47.1   35 271 116   2
   2024 03 09 06:40  05 57 16.98    +21 57 26.8   243768 0.9933 100.5     12?  49.23  47.9   33 273 116   2
   2024 03 09 06:50  05 57 43.45    +22 02 57.5   243646 0.9933 100.6     12?  49.74  48.6   31 274 116   1
   2024 03 09 07:00  05 58 10.53    +22 08 26.9   243527 0.9933 100.7     12?  50.28  49.3   29 276 116   1
   2024 03 09 07:10  05 58 38.21    +22 13 55.3   243410 0.9933 100.8     12?  50.85  50.0   27 277 116   1
   2024 03 09 07:20  05 59 06.52    +22 19 22.6   243295 0.9933 100.9     12?  51.44  50.7   26 279 116   1
   2024 03 09 07:30  05 59 35.45    +22 24 49.1   243181 0.9933 101.0     12?  52.05  51.4   24 280 116   1
   2024 03 09 07:40  06 00 05.03    +22 30 14.8   243069 0.9933 101.1     12?  52.68  52.0   22 281 116   1
   2024 03 09 07:50  06 00 35.25    +22 35 39.8   242958 0.9933 101.2     12?  53.33  52.6   20 283 116   1
   2024 03 09 08:00  06 01 06.12    +22 41 04.2   242847 0.9933 101.3     12?  53.99  53.2   18 284 116   1
   2024 03 09 08:10  06 01 37.65    +22 46 28.2   242737 0.9933 101.4     12?  54.68  53.8   17 285 116   1
   2024 03 09 08:20  06 02 09.84    +22 51 51.8   242627 0.9933 101.5     12?  55.38  54.4   15 287 116   1
   2024 03 09 08:30  06 02 42.70    +22 57 15.1   242516 0.9933 101.7     12?  56.10  55.0   13 288 116   1
   2024 03 09 08:40  06 03 16.23    +23 02 38.3   242405 0.9934 101.8     12?  56.83  55.5   11 290 116   1
   2024 03 09 08:50  06 03 50.43    +23 08 01.5   242293 0.9934 101.9     12?  57.57  56.0   10 291 116   1
   2024 03 09 09:00  06 04 25.30    +23 13 24.9   242179 0.9934 102.0     12?  58.32  56.5    8 292 116   1
   2024 03 09 09:10  06 05 00.84    +23 18 48.4   242064 0.9934 102.2     12?  59.08  56.9    6 294 116   1
   2024 03 09 09:20  06 05 37.06    +23 24 12.3   241947 0.9934 102.3     12?  59.85  57.4    5 295 116   1
   2024 03 09 09:30  06 06 13.94    +23 29 36.6   241827 0.9934 102.4     12?  60.62  57.8    3 297 116   1
   2024 03 09 09:40  06 06 51.49    +23 35 01.5   241705 0.9934 102.6     12?  61.40  58.2    2 298 116   1
   2024 03 09 09:50  06 07 29.71    +23 40 27.1   241580 0.9934 102.7     12?  62.19  58.5    0 300 116   1
   ................
   2024 03 10 01:50  07 26 56.62    +35 30 53.5   206174 0.9938 117.5 C   13?  71.49  47.8   65  86 123   0
   2024 03 10 02:00  07 27 39.83    +35 38 53.5   205780 0.9938 117.6 C   13?  71.09  47.9   67  86 123   0
   2024 03 10 02:10  07 28 22.98    +35 46 49.3   205392 0.9938 117.7 N   13?  70.70  48.1   69  87 123   0
   2024 03 10 02:20  07 29 06.09    +35 54 40.8   205010 0.9938 117.8 N   13?  70.32  48.3   71  88 123   0
   2024 03 10 02:30  07 29 49.20    +36 02 27.7   204634 0.9938 117.9 N   13?  69.95  48.5   73  89 123   0
   2024 03 10 02:40  07 30 32.32    +36 10 10.0   204265 0.9938 118.0 A   13?  69.60  48.8   75  90 123   0
   2024 03 10 02:50  07 31 15.49    +36 17 47.5   203903 0.9938 118.1 A   13?  69.26  49.1   77  91 123   0
   2024 03 10 03:00  07 31 58.72    +36 25 20.0   203547 0.9938 118.2 A   13?  68.95  49.4   78  92 123   0
   2024 03 10 03:10  07 32 42.06    +36 32 47.5   203197 0.9938 118.3     13?  68.65  49.8   80  94 123   0
   2024 03 10 03:20  07 33 25.52    +36 40 09.7   202855 0.9939 118.4     13?  68.38  50.2   82  95 123   0
   2024 03 10 03:30  07 34 09.14    +36 47 26.6   202518 0.9939 118.5     13?  68.13  50.6   84  98 123   0
   2024 03 10 03:40  07 34 52.94    +36 54 38.1   202189 0.9939 118.6     13?  67.91  51.0   86 102 123   0
   2024 03 10 03:50  07 35 36.96    +37 01 44.0   201866 0.9939 118.7     13?  67.71  51.5   88 112 123   0
   2024 03 10 04:00  07 36 21.23    +37 08 44.2   201549 0.9939 118.8  t  13?  67.54  52.0   89 189 123   0
   2024 03 10 04:10  07 37 05.78    +37 15 38.8   201239 0.9939 118.9     13?  67.39  52.5   87 255 123   0
   2024 03 10 04:20  07 37 50.64    +37 22 27.5   200936 0.9939 119.0     13?  67.28  53.1   86 265 123   0
   2024 03 10 04:30  07 38 35.84    +37 29 10.4   200639 0.9939 119.1     13?  67.21  53.6   84 269 123   0
   2024 03 10 04:40  07 39 21.41    +37 35 47.3   200348 0.9939 119.2     13?  67.16  54.2   82 271 123   0
   2024 03 10 04:50  07 40 07.38    +37 42 18.3   200064 0.9939 119.3     13?  67.15  54.9   80 273 123   0
   2024 03 10 05:00  07 40 53.79    +37 48 43.2   199786 0.9939 119.4     13?  67.18  55.5   78 274 123   0
   2024 03 10 05:10  07 41 40.67    +37 55 02.1   199514 0.9939 119.5     13?  67.25  56.2   77 275 123   0
   2024 03 10 05:20  07 42 28.05    +38 01 15.0   199249 0.9939 119.6     13?  67.35  56.9   75 276 123   0
   2024 03 10 05:30  07 43 15.96    +38 07 21.8   198989 0.9939 119.7     13?  67.50  57.6   73 277 123   0
   2024 03 10 05:40  07 44 04.43    +38 13 22.5   198735 0.9939 119.8     13?  67.68  58.3   71 278 123   0
   2024 03 10 05:50  07 44 53.50    +38 19 17.1   198487 0.9939 119.9     13?  67.91  59.0   69 279 123   0
   2024 03 10 06:00  07 45 43.19    +38 25 05.7   198244 0.9939 120.0     13?  68.18  59.7   68 280 123   0
   2024 03 10 06:10  07 46 33.53    +38 30 48.3   198006 0.9939 120.1     13?  68.49  60.4   66 281 123   0
   2024 03 10 06:20  07 47 24.55    +38 36 24.9   197774 0.9939 120.2     13?  68.85  61.2   64 281 123   0
   2024 03 10 06:30  07 48 16.29    +38 41 55.5   197547 0.9939 120.3     13?  69.24  61.9   62 282 123   0
   2024 03 10 06:40  07 49 08.77    +38 47 20.2   197325 0.9939 120.5     13?  69.68  62.7   61 283 123   0
   2024 03 10 06:50  07 50 02.02    +38 52 39.2   197108 0.9939 120.6     13?  70.16  63.4   59 284 123   0
   2024 03 10 07:00  07 50 56.07    +38 57 52.3   196896 0.9939 120.7     13?  70.69  64.1   57 285 123   0
   2024 03 10 07:10  07 51 50.94    +39 02 59.8   196687 0.9939 120.8     13?  71.25  64.8   55 286 123   0
   2024 03 10 07:20  07 52 46.66    +39 08 01.7   196483 0.9939 121.0     13?  71.86  65.6   54 286 123   0
   2024 03 10 07:30  07 53 43.26    +39 12 58.0   196283 0.9940 121.1     13?  72.50  66.3   52 287 123   0
   2024 03 10 07:40  07 54 40.76    +39 17 49.0   196087 0.9940 121.2     13?  73.19  67.0   50 288 123   0
   2024 03 10 07:50  07 55 39.17    +39 22 34.6   195895 0.9940 121.4     13?  73.91  67.6   49 289 123   0
   2024 03 10 08:00  07 56 38.54    +39 27 15.0   195706 0.9940 121.5     13?  74.67  68.3   47 290 123   0
   2024 03 10 08:10  07 57 38.87    +39 31 50.4   195520 0.9940 121.6     13?  75.47  69.0   45 290 123   0
   2024 03 10 08:20  07 58 40.19    +39 36 20.7   195338 0.9940 121.8     13?  76.30  69.6   44 291 123   0
   2024 03 10 08:30  07 59 42.51    +39 40 46.3   195158 0.9940 121.9     13?  77.17  70.2   42 292 123   0
   2024 03 10 08:40  08 00 45.86    +39 45 07.1   194980 0.9940 122.1     13?  78.06  70.8   40 293 123   0
   2024 03 10 08:50  08 01 50.26    +39 49 23.3   194805 0.9940 122.2     13?  78.99  71.4   39 294 123   0
   2024 03 10 09:00  08 02 55.71    +39 53 35.1   194633 0.9940 122.4     13?  79.94  72.0   37 295 123   0
   2024 03 10 09:10  08 04 02.24    +39 57 42.6   194462 0.9940 122.5     13?  80.92  72.5   36 296 123   0
   2024 03 10 09:20  08 05 09.86    +40 01 45.9   194293 0.9940 122.7     13?  81.93  73.0   34 296 123   0
   2024 03 10 09:30  08 06 18.58    +40 05 45.2   194126 0.9940 122.9     13?  82.96  73.5   33 297 123   0
   2024 03 10 09:40  08 07 28.42    +40 09 40.7   193959 0.9940 123.0     13?  84.01  74.0   31 298 123   0
   2024 03 10 09:50  08 08 39.38    +40 13 32.4   193794 0.9940 123.2     13?  85.08  74.5   30 299 123   0
   2024 03 10 10:00  08 09 51.47    +40 17 20.6   193630 0.9940 123.4     13?  86.17  74.9   28 300 123   0
   2024 03 10 10:10  08 11 04.72    +40 21 05.3   193467 0.9940 123.5     13?  87.28  75.3   27 301 123   0
   2024 03 10 10:20  08 12 19.11    +40 24 46.8   193304 0.9940 123.7     13?  88.40  75.7   25 302 124   0
   2024 03 10 10:30  08 13 34.66    +40 28 25.2   193141 0.9940 123.9     13?  89.54  76.1   24 303 124   0
   2024 03 10 10:40  08 14 51.38    +40 32 00.6   192978 0.9940 124.1     13?  90.68  76.5   22 304 124   0
   2024 03 10 10:50  08 16 09.26    +40 35 33.2   192815 0.9940 124.3     13?  91.84  76.8   21 305 124   0
   2024 03 10 11:00  08 17 28.32    +40 39 03.1   192652 0.9940 124.4     13?  93.01  77.2   20 306 124   0
   2024 03 10 11:10  08 18 48.54    +40 42 30.6   192488 0.9940 124.6     13?  94.18  77.5   18 307 124   0
   2024 03 10 11:20  08 20 09.95    +40 45 55.6   192324 0.9940 124.8     13?  95.35  77.8   17 308 124   0
   2024 03 10 11:30  08 21 32.52    +40 49 18.5   192159 0.9940 125.0     13?  96.53  78.1   16 309 124   0
   2024 03 10 11:40  08 22 56.28    +40 52 39.3   191992 0.9940 125.2     13?  97.72  78.3   14 310 124   0
   2024 03 10 11:50  08 24 21.20    +40 55 58.2   191824 0.9940 125.4     13?  98.90  78.6   13 311 124   0
   2024 03 10 12:00  08 25 47.29    +40 59 15.3   191655 0.9940 125.6     13? 100.08  78.8   12 312 124   0
   2024 03 10 12:10  08 27 14.54    +41 02 30.7   191484 0.9941 125.8     13? 101.26  79.1   11 313 125   0
   2024 03 10 12:20  08 28 42.96    +41 05 44.6   191311 0.9941 126.0     13? 102.44  79.3   10 314 125   0
   2024 03 10 12:30  08 30 12.53    +41 08 57.1   191136 0.9941 126.2 A   13? 103.61  79.5    8 316 125   0
   2024 03 10 12:40  08 31 43.24    +41 12 08.4   190960 0.9941 126.4 A   13? 104.77  79.7    7 317 125   0
   2024 03 10 12:50  08 33 15.09    +41 15 18.5   190781 0.9941 126.6 A   13? 105.93  79.8    6 318 125   0
   2024 03 10 13:00  08 34 48.07    +41 18 27.6   190599 0.9941 126.8 N   13? 107.08  80.0    5 319 125   0
   2024 03 10 13:10  08 36 22.18    +41 21 35.8   190415 0.9941 127.0 N   13? 108.21  80.2    4 320 125   0
   2024 03 10 13:20  08 37 57.39    +41 24 43.1   190228 0.9941 127.3 N   13? 109.34  80.3    3 322 125   0
   2024 03 10 13:30  08 39 33.70    +41 27 49.8   190039 0.9941 127.5 C   13? 110.46  80.4    2 323 126   0
   2024 03 10 13:40  08 41 11.10    +41 30 55.9   189846 0.9941 127.7 C   13? 111.56  80.6    1 324 126   0
   ................
   2024 03 11 01:50  11 04 50.04    +44 44 04.3   167195 0.9943 138.7 Cm  13? 124.21  88.6   29  54 135   0
   2024 03 11 02:00  11 06 46.29    +44 44 32.3   166838 0.9943 138.7 Cm  13? 123.57  88.9   30  55 135   0
   2024 03 11 02:10  11 08 41.96    +44 44 51.8   166483 0.9943 138.7 Nm  13? 122.93  89.3   32  55 135   0
   2024 03 11 02:20  11 10 37.05    +44 45 02.4   166130 0.9943 138.8 Nm  13? 122.29  89.8   33  56 135   0
   2024 03 11 02:30  11 12 31.55    +44 45 04.0   165780 0.9943 138.8 N   13? 121.65  90.2   34  57 135   0
   2024 03 11 02:40  11 14 25.44    +44 44 56.2   165432 0.9943 138.8 A   13? 121.01  90.6   36  57 135   0
   2024 03 11 02:50  11 16 18.73    +44 44 38.7   165087 0.9943 138.8 A   13? 120.39  91.1   37  58 135   0
   2024 03 11 03:00  11 18 11.40    +44 44 11.5   164744 0.9943 138.9 A   13? 119.77  91.6   38  58 135   0
   2024 03 11 03:10  11 20 03.45    +44 43 34.1   164405 0.9943 138.9     13? 119.16  92.1   40  59 135   0
   2024 03 11 03:20  11 21 54.88    +44 42 46.4   164068 0.9943 138.9     13? 118.57  92.6   41  60 135   0
   2024 03 11 03:30  11 23 45.69    +44 41 48.0   163735 0.9943 138.9     13? 117.99  93.1   43  60 135   0
   2024 03 11 03:40  11 25 35.87    +44 40 38.8   163405 0.9943 139.0     13? 117.43  93.7   44  61 135   0
   2024 03 11 03:50  11 27 25.43    +44 39 18.6   163079 0.9943 139.0     13? 116.88  94.2   45  61 135   0
   2024 03 11 04:00  11 29 14.36    +44 37 47.0   162756 0.9943 139.0     13? 116.36  94.8   47  62 135   0
   2024 03 11 04:10  11 31 02.67    +44 36 03.8   162437 0.9943 139.0     13? 115.86  95.4   48  62 135   0
   2024 03 11 04:20  11 32 50.36    +44 34 08.9   162122 0.9943 139.0     13? 115.38  96.0   50  63 135   0
   2024 03 11 04:30  11 34 37.44    +44 32 02.0   161811 0.9943 139.0     13? 114.94  96.7   51  63 135   0
   2024 03 11 04:40  11 36 23.90    +44 29 42.8   161505 0.9943 139.1     13? 114.52  97.3   53  63 135   0
   2024 03 11 04:50  11 38 09.76    +44 27 11.2   161202 0.9943 139.1     13? 114.13  98.0   54  64 135   0
   2024 03 11 05:00  11 39 55.03    +44 24 27.0   160904 0.9943 139.1     13? 113.77  98.6   56  64 135   0
   2024 03 11 05:10  11 41 39.71    +44 21 30.0   160611 0.9943 139.1     13? 113.45  99.3   57  64 135   0
   2024 03 11 05:20  11 43 23.82    +44 18 19.9   160323 0.9943 139.1     13? 113.17 100.0   59  65 135   0
   2024 03 11 05:30  11 45 07.36    +44 14 56.6   160039 0.9943 139.1     13? 112.92 100.7   60  65 135   1
   2024 03 11 05:40  11 46 50.35    +44 11 19.9   159760 0.9943 139.2     13? 112.72 101.4   62  65 135   1
   2024 03 11 05:50  11 48 32.80    +44 07 29.7   159487 0.9943 139.2     13? 112.55 102.1   63  65 136   1
   2024 03 11 06:00  11 50 14.73    +44 03 25.8   159218 0.9943 139.2     13? 112.43 102.9   65  65 136   1
   2024 03 11 06:10  11 51 56.14    +43 59 08.0   158955 0.9943 139.2     13? 112.35 103.6   66  65 136   1
   2024 03 11 06:20  11 53 37.06    +43 54 36.3   158697 0.9943 139.2     13? 112.31 104.3   68  65 136   1
   2024 03 11 06:30  11 55 17.50    +43 49 50.4   158445 0.9943 139.2     13? 112.33 105.1   69  64 136   1
   2024 03 11 06:40  11 56 57.49    +43 44 50.3   158199 0.9943 139.3     13? 112.38 105.8   71  64 136   1
   2024 03 11 06:50  11 58 37.03    +43 39 35.8   157958 0.9943 139.3     13? 112.49 106.6   72  63 136   1
   2024 03 11 07:00  12 00 16.16    +43 34 06.9   157724 0.9943 139.3     13? 112.64 107.3   74  62 136   1
   2024 03 11 07:10  12 01 54.88    +43 28 23.5   157495 0.9943 139.3     13? 112.84 108.1   75  61 136   1
   2024 03 11 07:20  12 03 33.22    +43 22 25.5   157272 0.9943 139.4     13? 113.09 108.8   77  60 136   1
   2024 03 11 07:30  12 05 11.20    +43 16 12.9   157055 0.9943 139.4     13? 113.38 109.5   78  57 136   1
   2024 03 11 07:40  12 06 48.84    +43 09 45.5   156845 0.9943 139.4     13? 113.73 110.3   79  54 136   1
   2024 03 11 07:50  12 08 26.17    +43 03 03.4   156641 0.9943 139.4     13? 114.12 111.0   81  50 136   1
   2024 03 11 08:00  12 10 03.20    +42 56 06.6   156443 0.9943 139.5     13? 114.55 111.7   82  44 136   1
   2024 03 11 08:10  12 11 39.97    +42 48 55.0   156252 0.9943 139.5     13? 115.04 112.4   83  35 136   1
   2024 03 11 08:20  12 13 16.48    +42 41 28.6   156067 0.9943 139.5     13? 115.57 113.1   84  23 136   1
   2024 03 11 08:30  12 14 52.78    +42 33 47.5   155889 0.9943 139.5     13? 116.14 113.7   85   6 137   1
   2024 03 11 08:40  12 16 28.87    +42 25 51.6   155717 0.9943 139.6  t  13? 116.75 114.4   85 347 137   1
   2024 03 11 08:50  12 18 04.79    +42 17 41.1   155552 0.9943 139.6     13? 117.41 115.0   84 329 137   1
   2024 03 11 09:00  12 19 40.55    +42 09 15.9   155394 0.9943 139.6     13? 118.11 115.7   83 316 137   1
   2024 03 11 09:10  12 21 16.18    +42 00 36.2   155242 0.9943 139.6     13? 118.85 116.3   82 307 137   1
   2024 03 11 09:20  12 22 51.71    +41 51 42.0   155097 0.9943 139.7     13? 119.62 116.8   81 300 137   1
   2024 03 11 09:30  12 24 27.16    +41 42 33.4   154959 0.9943 139.7     13? 120.43 117.4   80 296 137   1
   2024 03 11 09:40  12 26 02.55    +41 33 10.6   154828 0.9943 139.7     13? 121.28 118.0   78 293 137   1
   2024 03 11 09:50  12 27 37.90    +41 23 33.6   154704 0.9943 139.8     13? 122.15 118.5   77 290 137   1
   2024 03 11 10:00  12 29 13.24    +41 13 42.6   154586 0.9943 139.8     13? 123.06 119.0   75 289 137   1
   2024 03 11 10:10  12 30 48.58    +41 03 37.7   154475 0.9943 139.8     13? 123.99 119.5   73 287 138   1
   2024 03 11 10:20  12 32 23.96    +40 53 19.1   154372 0.9943 139.8     13? 124.96 120.0   72 286 138   1
   2024 03 11 10:30  12 33 59.39    +40 42 47.0   154275 0.9943 139.9     13? 125.94 120.4   70 286 138   1
   2024 03 11 10:40  12 35 34.89    +40 32 01.5   154184 0.9944 139.9     13? 126.95 120.8   69 285 138   1
   2024 03 11 10:50  12 37 10.48    +40 21 02.8   154101 0.9944 139.9     13? 127.98 121.2   67 285 138   1
   2024 03 11 11:00  12 38 46.18    +40 09 51.1   154025 0.9944 139.9     13? 129.03 121.6   65 285 138   1
   2024 03 11 11:10  12 40 22.02    +39 58 26.7   153955 0.9944 139.9     13? 130.09 122.0   64 285 138   1
   2024 03 11 11:20  12 41 58.00    +39 46 49.7   153892 0.9944 140.0     13? 131.17 122.3   62 285 138   1
   2024 03 11 11:30  12 43 34.14    +39 35 00.5   153835 0.9944 140.0     13? 132.27 122.7   61 285 139   1
   2024 03 11 11:40  12 45 10.47    +39 22 59.1   153785 0.9944 140.0     13? 133.37 123.0   59 285 139   1
   2024 03 11 11:50  12 46 47.00    +39 10 46.0   153742 0.9944 140.0     13? 134.48 123.3   57 285 139   2
   2024 03 11 12:00  12 48 23.74    +38 58 21.2   153705 0.9944 140.0     13? 135.60 123.5   56 285 139   2
   2024 03 11 12:10  12 50 00.70    +38 45 45.2   153675 0.9944 140.0     13? 136.72 123.8   54 285 139   2
   2024 03 11 12:20  12 51 37.90    +38 32 58.2   153651 0.9944 140.0     13? 137.85 124.0   52 286 139   2
   2024 03 11 12:30  12 53 15.35    +38 20 00.4   153633 0.9944 140.0 A   13? 138.98 124.2   51 286 139   2
   2024 03 11 12:40  12 54 53.07    +38 06 52.2   153621 0.9944 140.0 A   13? 140.11 124.4   49 286 139   2
   2024 03 11 12:50  12 56 31.06    +37 53 33.8   153615 0.9944 140.0 A   13? 141.23 124.6   47 287 140   2
   2024 03 11 13:00  12 58 09.32    +37 40 05.5   153616 0.9944 140.0 N   13? 142.36 124.7   46 287 140   2
   2024 03 11 13:10  12 59 47.88    +37 26 27.6   153622 0.9944 140.0 N   13? 143.48 124.9   44 288 140   2
   2024 03 11 13:20  13 01 26.74    +37 12 40.4   153633 0.9944 139.9 N   13? 144.59 125.0   42 288 140   2
   2024 03 11 13:30  13 03 05.89    +36 58 44.3   153651 0.9944 139.9 C   13? 145.69 125.1   41 289 140   2
   2024 03 11 13:40  13 04 45.36    +36 44 39.6   153674 0.9944 139.9 C   13? 146.79 125.2   39 289 140   2
   ................
   2024 03 12 05:20  15 39 16.48    +11 57 54.7   156918 0.9943 117.6     12? 145.67 131.6    0  75 136   4
   2024 03 12 05:30  15 40 30.03    +11 41 42.9   156847 0.9943 117.4     12? 144.87 132.0    2  77 136   4
   2024 03 12 05:40  15 41 42.66    +11 25 29.3   156777 0.9943 117.1     12? 144.08 132.4    3  78 136   4
   2024 03 12 05:50  15 42 54.37    +11 09 13.7   156708 0.9943 116.8     12? 143.29 132.8    5  80 136   4
   2024 03 12 06:00  15 44 05.15    +10 52 56.1   156641 0.9943 116.5     12? 142.50 133.2    6  81 136   4
   2024 03 12 06:10  15 45 15.02    +10 36 36.5   156575 0.9942 116.3     12? 141.73 133.6    8  83 136   4
   2024 03 12 06:20  15 46 23.97    +10 20 14.8   156512 0.9942 116.0     12? 140.97 134.0   10  84 136   5
   2024 03 12 06:30  15 47 32.01    +10 03 51.2   156450 0.9942 115.7     12? 140.21 134.4   11  86 136   5
   2024 03 12 06:40  15 48 39.14    +09 47 25.4   156392 0.9942 115.5     12? 139.47 134.9   13  87 136   5
   2024 03 12 06:50  15 49 45.37    +09 30 57.7   156336 0.9942 115.2     12? 138.74 135.3   14  89 136   5
   2024 03 12 07:00  15 50 50.71    +09 14 27.9   156283 0.9942 114.9     12? 138.02 135.7   16  91 136   5
   2024 03 12 07:10  15 51 55.17    +08 57 56.1   156234 0.9942 114.7     12? 137.31 136.1   18  92 136   5
   2024 03 12 07:20  15 52 58.75    +08 41 22.3   156189 0.9942 114.4     12? 136.61 136.6   19  94 136   5
   2024 03 12 07:30  15 54 01.47    +08 24 46.6   156148 0.9942 114.2     12? 135.93 137.0   21  95 136   5
   2024 03 12 07:40  15 55 03.34    +08 08 08.9   156111 0.9942 113.9     12? 135.26 137.4   22  97 136   5
   2024 03 12 07:50  15 56 04.37    +07 51 29.4   156079 0.9942 113.7     12? 134.61 137.8   24  99 135   5
   2024 03 12 08:00  15 57 04.57    +07 34 48.1   156052 0.9942 113.4     12? 133.97 138.3   25 101 135   5
   2024 03 12 08:10  15 58 03.96    +07 18 05.1   156030 0.9942 113.2     12? 133.35 138.7   27 102 135   5
   2024 03 12 08:20  15 59 02.56    +07 01 20.4   156013 0.9942 113.0     12? 132.74 139.1   29 104 135   5
   2024 03 12 08:30  16 00 00.37    +06 44 34.1   156003 0.9942 112.7     12? 132.14 139.5   30 106 135   5
   2024 03 12 08:40  16 00 57.43    +06 27 46.3   155998 0.9942 112.5     12? 131.56 139.9   32 108 135   5
   2024 03 12 08:50  16 01 53.74    +06 10 57.1   156000 0.9942 112.3     12? 130.99 140.3   33 110 135   5
   2024 03 12 09:00  16 02 49.32    +05 54 06.6   156009 0.9942 112.0     12? 130.44 140.7   35 112 135   5
   2024 03 12 09:10  16 03 44.21    +05 37 14.9   156024 0.9942 111.8     12? 129.90 141.0   36 115 135   5
   2024 03 12 09:20  16 04 38.41    +05 20 22.2   156047 0.9942 111.6     12? 129.38 141.4   38 117 135   5
   2024 03 12 09:30  16 05 31.95    +05 03 28.5   156077 0.9942 111.4     12? 128.87 141.7   39 119 135   5
   2024 03 12 09:40  16 06 24.85    +04 46 34.0   156114 0.9942 111.1     12? 128.37 142.1   40 122 135   6
   2024 03 12 09:50  16 07 17.14    +04 29 38.8   156159 0.9942 110.9     12? 127.89 142.4   42 124 135   6
   2024 03 12 10:00  16 08 08.84    +04 12 43.2   156213 0.9942 110.7     12? 127.42 142.7   43 127 135   6
   2024 03 12 10:10  16 08 59.98    +03 55 47.1   156274 0.9942 110.5     12? 126.96 143.0   44 129 135   6
   2024 03 12 10:20  16 09 50.58    +03 38 50.9   156344 0.9942 110.3     12? 126.52 143.3   45 132 135   6
   2024 03 12 10:30  16 10 40.66    +03 21 54.5   156423 0.9942 110.1     12? 126.09 143.5   46 135 135   6
   2024 03 12 10:40  16 11 30.27    +03 04 58.4   156510 0.9942 109.9     12? 125.67 143.8   47 138 135   6
   2024 03 12 10:50  16 12 19.41    +02 48 02.5   156607 0.9942 109.6     12? 125.26 144.0   48 142 135   6
   2024 03 12 11:00  16 13 08.13    +02 31 07.0   156712 0.9942 109.4     12? 124.86 144.2   49 145 135   6
   2024 03 12 11:10  16 13 56.46    +02 14 12.3   156827 0.9942 109.2     12? 124.48 144.4   50 148 135   6
   2024 03 12 11:20  16 14 44.41    +01 57 18.3   156951 0.9942 109.0     12? 124.10 144.6   50 152 135   6
   2024 03 12 11:30  16 15 32.02    +01 40 25.4   157084 0.9942 108.8     12? 123.74 144.7   51 155 135   6
   2024 03 12 11:40  16 16 19.31    +01 23 33.6   157227 0.9942 108.6     12? 123.38 144.9   51 159 135   6
   2024 03 12 11:50  16 17 06.33    +01 06 43.3   157380 0.9942 108.4     12? 123.03 145.0   52 163 135   6
   2024 03 12 12:00  16 17 53.10    +00 49 54.5   157542 0.9942 108.2     12? 122.70 145.1   52 167 135   6
   2024 03 12 12:10  16 18 39.65    +00 33 07.5   157714 0.9942 108.0     12? 122.37 145.1   52 170 135   6
   2024 03 12 12:20  16 19 26.01    +00 16 22.5   157895 0.9942 107.8  e  12? 122.06 145.2   52 174 135   6
   2024 03 12 12:30  16 20 12.21    -00 00 20.4   158087 0.9942 107.6 A   12? 121.75 145.2   52 178 135   6
   2024 03 12 12:40  16 20 58.28    -00 17 01.0   158288 0.9942 107.4 At  12? 121.46 145.2   51 182 135   6
   2024 03 12 12:50  16 21 44.26    -00 33 39.1   158499 0.9941 107.2 A   12? 121.17 145.2   51 185 135   7
   2024 03 12 13:00  16 22 30.16    -00 50 14.4   158720 0.9941 107.0 N   12? 120.89 145.1   50 189 135   7
   2024 03 12 13:10  16 23 16.03    -01 06 46.9   158950 0.9941 106.8 N   12? 120.62 145.1   50 193 135   7
   2024 03 12 13:20  16 24 01.89    -01 23 16.3   159190 0.9941 106.6 N   12? 120.37 145.0   49 196 135   7
   2024 03 12 13:30  16 24 47.77    -01 39 42.5   159440 0.9941 106.4 C   12? 120.12 144.9   48 199 135   7
   2024 03 12 13:40  16 25 33.70    -01 56 05.3   159699 0.9941 106.2 C   12? 119.89 144.7   47 203 135   7
   ................
   2024 03 13 10:20  18 31 56.96    -28 36 49.4   196980 0.9938  76.0     12?  91.93 136.0    0 126 118  13
   2024 03 13 10:30  18 32 44.94    -28 47 51.4   197139 0.9938  75.8     12?  91.01 136.3    1 128 118  13
   2024 03 13 10:40  18 33 32.33    -28 58 49.1   197302 0.9938  75.7     12?  90.09 136.5    2 130 118  13
   2024 03 13 10:50  18 34 19.14    -29 09 42.4   197469 0.9938  75.5     12?  89.17 136.7    3 131 118  13
   2024 03 13 11:00  18 35 05.37    -29 20 31.1   197640 0.9938  75.4     12?  88.25 136.9    4 133 118  13
   2024 03 13 11:10  18 35 51.06    -29 31 14.9   197816 0.9938  75.2     12?  87.33 137.1    5 134 118  13
   2024 03 13 11:20  18 36 36.19    -29 41 53.8   197997 0.9938  75.1     12?  86.42 137.2    7 136 118  13
   2024 03 13 11:30  18 37 20.81    -29 52 27.6   198183 0.9938  75.0     12?  85.51 137.4    8 138 118  13
   2024 03 13 11:40  18 38 04.91    -30 02 56.0   198374 0.9938  74.8     12?  84.60 137.5    9 140 118  13
   2024 03 13 11:50  18 38 48.52    -30 13 18.9   198570 0.9937  74.7     12?  83.70 137.6   10 141 118  13
   2024 03 13 12:00  18 39 31.65    -30 23 36.2   198772 0.9937  74.6     12?  82.80 137.7   11 143 118  13
   2024 03 13 12:10  18 40 14.32    -30 33 47.6   198980 0.9937  74.4     12?  81.91 137.8   12 145 118  13
   2024 03 13 12:20  18 40 56.56    -30 43 53.1   199194 0.9937  74.3     12?  81.03 137.8   13 147 118  14
   2024 03 13 12:30  18 41 38.38    -30 53 52.4   199414 0.9937  74.2 A   12?  80.15 137.9   13 149 118  14
   2024 03 13 12:40  18 42 19.81    -31 03 45.5   199640 0.9937  74.1 A   12?  79.29 137.9   14 151 117  14
   2024 03 13 12:50  18 43 00.86    -31 13 32.1   199873 0.9937  73.9 A   12?  78.44 137.9   15 153 117  14
   2024 03 13 13:00  18 43 41.56    -31 23 12.2   200111 0.9937  73.8 N   12?  77.59 137.8   16 155 117  14
   2024 03 13 13:10  18 44 21.94    -31 32 45.6   200357 0.9937  73.7 N   12?  76.76 137.7   16 157 117  14
   2024 03 13 13:20  18 45 02.01    -31 42 12.2   200609 0.9937  73.6 N   12?  75.95 137.7   17 159 117  14
   2024 03 13 13:30  18 45 41.80    -31 51 31.9   200868 0.9937  73.5 C   12?  75.15 137.5   17 161 117  14
   2024 03 13 13:40  18 46 21.35    -32 00 44.6   201134 0.9937  73.4 C   12?  74.37 137.4   18 163 117  14
   ................
   

Chandra Observatory (JPL-ID: -151)

   Date (UTC) HH:MM   RA              Dec         delta   r     elong SM  mag  '/hr    PA   alt  az moo ill
   ---- -- -- -----  -------------   -----------  ------ ------ ----- --  --- ------ ------ --- --- --- ---
   2024 03 04 09:50  20 30 30.93    +24 35 52.6    87771 0.9913  47.9  m  14? 154.81 112.0    0  57  68  41
   2024 03 04 10:00  20 32 16.76    +24 25 59.5    86520 0.9913  47.4  m  14? 157.49 112.4    0  59  68  41
   2024 03 04 10:10  20 34 03.99    +24 15 45.0    85252 0.9913  47.0  m  14? 160.35 112.8    2  60  68  41
   2024 03 04 10:20  20 35 52.72    +24 05 07.7    83968 0.9913  46.6  m  14? 163.42 113.2    3  61  68  41
   2024 03 04 10:30  20 37 43.05    +23 54 05.6    82666 0.9913  46.1  m  14? 166.72 113.7    4  63  68  41
   2024 03 04 10:40  20 39 35.09    +23 42 37.0    81346 0.9914  45.7  m  14? 170.28 114.2    6  64  68  41
   2024 03 04 10:50  20 41 28.96    +23 30 39.6    80009 0.9914  45.2  m  14? 174.11 114.7    7  65  69  41
   2024 03 04 11:00  20 43 24.80    +23 18 11.1    78655 0.9914  44.7  m  14? 178.25 115.2    8  67  69  41
   2024 03 04 11:10  20 45 22.76    +23 05 09.2    77282 0.9914  44.3  m  14? 182.73 115.8   10  68  69  40
   2024 03 04 11:20  20 47 23.01    +22 51 31.0    75892 0.9914  43.8  m  14? 187.59 116.3   11  69  69  40
   2024 03 04 11:30  20 49 25.73    +22 37 13.7    74483 0.9914  43.2  m  14? 192.87 116.9   12  71  69  40
   2024 03 04 11:40  20 51 31.13    +22 22 13.8    73056 0.9914  42.7  m  14? 198.61 117.5   14  72  69  40
   2024 03 04 11:50  20 53 39.43    +22 06 27.9    71610 0.9914  42.2  m  14? 204.86 118.1   15  73  69  40
   2024 03 04 12:00  20 55 50.89    +21 49 51.9    70144 0.9914  41.6  m  14? 211.70 118.7   16  75  69  40
   2024 03 04 12:10  20 58 05.78    +21 32 21.5    68660 0.9914  41.0  m  14? 219.17 119.3   18  76  69  40
   2024 03 04 12:20  21 00 24.44    +21 13 51.7    67155 0.9914  40.4  m  14? 227.37 120.0   19  77  70  40
   2024 03 04 12:30  21 02 47.20    +20 54 17.1    65630 0.9914  39.8  m  14? 236.37 120.6   20  79  70  40
   2024 03 04 12:40  21 05 14.48    +20 33 31.5    64085 0.9914  39.1 Am  14? 246.28 121.3   22  80  70  40
   2024 03 04 12:50  21 07 46.70    +20 11 28.0    62518 0.9914  38.4 Am  14? 257.23 121.9   23  81  70  40
   2024 03 04 13:00  21 10 24.39    +19 47 58.8    60930 0.9914  37.7 Am  13? 269.34 122.5   24  83  70  40
   2024 03 04 13:10  21 13 08.12    +19 22 55.1    59319 0.9914  36.9 Nm  13? 282.78 123.2   25  84  70  40
   2024 03 04 13:20  21 15 58.55    +18 56 06.8    57685 0.9914  36.1 Nm  13? 297.75 123.8   26  86  71  40
   2024 03 04 13:30  21 18 56.42    +18 27 22.2    56027 0.9914  35.3 Nm  13? 314.48 124.5   28  87  71  40
   2024 03 04 13:40  21 22 02.60    +17 56 28.0    54344 0.9914  34.4 Cm  13? 333.23 125.1   29  89  71  40
   2024 03 04 13:50  21 25 18.10    +17 23 08.7    52637 0.9914  33.5 Cm  13? 354.35 125.8   30  90  71  40
   ................
   2024 03 05 05:40  17 15 56.14    +36 44 56.1   111024 0.9920  91.2     13? 100.65  77.3    0  41  67  33
   2024 03 05 05:50  17 17 16.88    +36 48 34.0   111678 0.9920  90.9     13?  98.20  77.0    1  42  67  32
   2024 03 05 06:00  17 18 35.64    +36 52 10.8   112320 0.9920  90.6     13?  95.79  76.8    2  43  67  32
   2024 03 05 06:10  17 19 52.41    +36 55 46.6   112948 0.9920  90.4     13?  93.40  76.5    4  45  67  32
   2024 03 05 06:20  17 21 07.24    +36 59 21.1   113565 0.9920  90.2     13?  91.04  76.2    5  46  67  32
   2024 03 05 06:30  17 22 20.13    +37 02 54.4   114168 0.9920  89.9     13?  88.70  76.0    6  47  67  32
   2024 03 05 06:40  17 23 31.11    +37 06 26.2   114760 0.9919  89.7     13?  86.38  75.7    8  48  67  32
   2024 03 05 06:50  17 24 40.19    +37 09 56.4   115341 0.9919  89.5     13?  84.09  75.4    9  49  67  32
   2024 03 05 07:00  17 25 47.38    +37 13 24.9   115910 0.9919  89.3     13?  81.83  75.1   10  50  67  32
   2024 03 05 07:10  17 26 52.72    +37 16 51.5   116468 0.9919  89.1     13?  79.58  74.9   12  52  67  32
   2024 03 05 07:20  17 27 56.22    +37 20 16.0   117016 0.9919  88.9     13?  77.36  74.6   13  53  67  32
   2024 03 05 07:30  17 28 57.89    +37 23 38.3   117554 0.9919  88.7     13?  75.16  74.3   15  54  67  32
   2024 03 05 07:40  17 29 57.77    +37 26 58.1   118081 0.9919  88.5     13?  72.98  74.0   16  55  67  31
   2024 03 05 07:50  17 30 55.86    +37 30 15.2   118599 0.9919  88.3     13?  70.83  73.8   18  56  67  31
   2024 03 05 08:00  17 31 52.19    +37 33 29.5   119108 0.9919  88.2     13?  68.70  73.5   19  57  67  31
   2024 03 05 08:10  17 32 46.78    +37 36 40.7   119607 0.9919  88.0     13?  66.60  73.3   21  58  67  31
   2024 03 05 08:20  17 33 39.65    +37 39 48.7   120098 0.9919  87.8     13?  64.52  73.1   22  59  67  31
   2024 03 05 08:30  17 34 30.82    +37 42 53.0   120581 0.9919  87.7     13?  62.46  72.8   24  60  67  31
   2024 03 05 08:40  17 35 20.33    +37 45 53.7   121056 0.9919  87.5     13?  60.43  72.6   26  61  67  31
   2024 03 05 08:50  17 36 08.20    +37 48 50.3   121524 0.9919  87.4     13?  58.42  72.4   27  61  68  31
   2024 03 05 09:00  17 36 54.44    +37 51 42.7   121984 0.9919  87.2     13?  56.45  72.3   29  62  68  31
   2024 03 05 09:10  17 37 39.09    +37 54 30.7   122437 0.9919  87.1     13?  54.49  72.1   30  63  68  31
   2024 03 05 09:20  17 38 22.18    +37 57 13.9   122883 0.9919  87.0     13?  52.57  72.0   32  64  68  31
   2024 03 05 09:30  17 39 03.74    +37 59 52.2   123324 0.9919  86.9     13?  50.68  71.9   34  65  68  31
   2024 03 05 09:40  17 39 43.80    +38 02 25.3   123758 0.9919  86.7     13?  48.82  71.9   36  66  68  31
   2024 03 05 09:50  17 40 22.38    +38 04 53.0   124187 0.9919  86.6     13?  46.99  71.9   37  67  68  31
   2024 03 05 10:00  17 40 59.53    +38 07 15.0   124610 0.9919  86.5     13?  45.20  71.9   39  68  68  30
   2024 03 05 10:10  17 41 35.28    +38 09 31.1   125029 0.9919  86.4     13?  43.44  72.0   41  68  68  30
   2024 03 05 10:20  17 42 09.66    +38 11 41.0   125443 0.9919  86.3     13?  41.71  72.1   42  69  68  30
   2024 03 05 10:30  17 42 42.70    +38 13 44.6   125853 0.9919  86.2     13?  40.03  72.3   44  70  68  30
   2024 03 05 10:40  17 43 14.46    +38 15 41.6   126258 0.9919  86.1     13?  38.38  72.6   46  71  68  30
   2024 03 05 10:50  17 43 44.97    +38 17 31.7   126660 0.9919  86.0  m  13?  36.78  73.0   48  72  68  30
   2024 03 05 11:00  17 44 14.27    +38 19 14.8   127058 0.9919  86.0  m  13?  35.22  73.4   50  72  68  30
   2024 03 05 11:10  17 44 42.40    +38 20 50.7   127453 0.9919  85.9  m  13?  33.71  74.0   51  73  68  30
   2024 03 05 11:20  17 45 09.40    +38 22 19.1   127846 0.9919  85.8  m  13?  32.25  74.6   53  74  68  30
   2024 03 05 11:30  17 45 35.33    +38 23 39.9   128235 0.9919  85.7  m  13?  30.84  75.4   55  74  68  30
   2024 03 05 11:40  17 46 00.22    +38 24 52.9   128623 0.9919  85.6  m  13?  29.48  76.3   57  75  68  30
   2024 03 05 11:50  17 46 24.12    +38 25 57.9   129008 0.9919  85.6  m  13?  28.19  77.3   59  76  68  30
   2024 03 05 12:00  17 46 47.09    +38 26 54.7   129391 0.9919  85.5  m  13?  26.96  78.6   61  77  68  30
   2024 03 05 12:10  17 47 09.16    +38 27 43.3   129773 0.9919  85.4  m  13?  25.81  79.9   63  77  68  30
   2024 03 05 12:20  17 47 30.39    +38 28 23.4   130153 0.9919  85.4  m  13?  24.72  81.5   64  78  68  30
   2024 03 05 12:30  17 47 50.84    +38 28 55.0   130532 0.9919  85.3  m  14?  23.72  83.2   66  78  68  30
   2024 03 05 12:40  17 48 10.54    +38 29 17.9   130910 0.9919  85.3 Am  14?  22.79  85.2   68  79  68  30
   2024 03 05 12:50  17 48 29.55    +38 29 32.0   131287 0.9919  85.2 Am  14?  21.96  87.3   70  80  68  30
   2024 03 05 13:00  17 48 47.93    +38 29 37.3   131664 0.9919  85.1 Am  14?  21.22  89.6   72  80  68  29
   2024 03 05 13:10  17 49 05.72    +38 29 33.7   132040 0.9919  85.1 Nm  14?  20.59  92.1   74  81  68  29
   2024 03 05 13:20  17 49 22.99    +38 29 21.1   132416 0.9919  85.0 Nm  14?  20.06  94.7   76  81  68  29
   2024 03 05 13:30  17 49 39.78    +38 28 59.5   132791 0.9919  85.0 Nm  14?  19.63  97.5   78  81  68  29
   2024 03 05 13:40  17 49 56.15    +38 28 28.8   133167 0.9919  84.9 Cm  14?  19.32 100.3   80  81  68  29
   2024 03 05 13:50  17 50 12.15    +38 27 49.1   133543 0.9919  84.9 Cm  14?  19.11 103.2   81  81  68  29
   ................
   2024 03 06 07:30  18 59 55.16    +33 35 37.1   149688 0.9919  70.4     14?  58.91  91.1    0  45  61  22
   2024 03 06 07:40  19 00 41.96    +33 35 25.1   149334 0.9919  70.2     14?  58.05  90.9    0  46  61  22
   2024 03 06 07:50  19 01 28.06    +33 35 15.3   148971 0.9919  70.1     14?  57.18  90.7    2  47  61  22
   2024 03 06 08:00  19 02 13.46    +33 35 07.6   148599 0.9919  69.9     14?  56.28  90.5    3  49  61  21
   2024 03 06 08:10  19 02 58.13    +33 35 01.8   148218 0.9919  69.8     14?  55.36  90.4    4  50  61  21
   2024 03 06 08:20  19 03 42.05    +33 34 57.5   147828 0.9919  69.6     14?  54.42  90.2    6  51  61  21
   2024 03 06 08:30  19 04 25.22    +33 34 54.7   147430 0.9919  69.5     14?  53.46  90.1    7  53  61  21
   2024 03 06 08:40  19 05 07.60    +33 34 53.0   147024 0.9919  69.4     14?  52.48  90.0    9  54  61  21
   2024 03 06 08:50  19 05 49.20    +33 34 52.2   146611 0.9919  69.2     14?  51.49  89.9   10  55  61  21
   2024 03 06 09:00  19 06 30.00    +33 34 52.1   146189 0.9919  69.1     14?  50.48  89.8   12  56  61  21
   2024 03 06 09:10  19 07 09.98    +33 34 52.4   145761 0.9919  69.0     14?  49.45  89.8   13  58  61  21
   2024 03 06 09:20  19 07 49.14    +33 34 52.8   145325 0.9919  68.9     14?  48.42  89.8   15  59  61  21
   2024 03 06 09:30  19 08 27.47    +33 34 53.1   144883 0.9919  68.7     14?  47.37  89.8   17  60  61  21
   2024 03 06 09:40  19 09 04.95    +33 34 53.0   144434 0.9919  68.6     14?  46.31  89.9   18  61  61  21
   2024 03 06 09:50  19 09 41.58    +33 34 52.3   143979 0.9919  68.5     14?  45.25  90.0   20  62  61  21
   2024 03 06 10:00  19 10 17.36    +33 34 50.6   143517 0.9919  68.4     14?  44.18  90.1   22  63  61  21
   2024 03 06 10:10  19 10 52.29    +33 34 47.6   143051 0.9919  68.3     14?  43.10  90.3   23  64  61  21
   2024 03 06 10:20  19 11 26.35    +33 34 43.2   142579 0.9919  68.2     14?  42.03  90.6   25  65  61  20
   2024 03 06 10:30  19 11 59.55    +33 34 36.8   142101 0.9919  68.1     14?  40.96  90.9   27  67  61  20
   2024 03 06 10:40  19 12 31.88    +33 34 28.4   141619 0.9919  68.0     14?  39.89  91.2   28  68  61  20
   2024 03 06 10:50  19 13 03.36    +33 34 17.5   141132 0.9919  67.9     14?  38.83  91.6   30  69  61  20
   2024 03 06 11:00  19 13 33.99    +33 34 03.9   140641 0.9919  67.8     14?  37.77  92.1   32  70  61  20
   2024 03 06 11:10  19 14 03.76    +33 33 47.2   140146 0.9919  67.7     14?  36.73  92.7   34  71  61  20
   2024 03 06 11:20  19 14 32.70    +33 33 27.1   139647 0.9919  67.6     14?  35.71  93.3   35  72  61  20
   2024 03 06 11:30  19 15 00.79    +33 33 03.4   139144 0.9919  67.5     14?  34.70  94.1   37  73  61  20
   2024 03 06 11:40  19 15 28.07    +33 32 35.6   138638 0.9919  67.4     14?  33.72  94.9   39  74  61  20
   2024 03 06 11:50  19 15 54.53    +33 32 03.6   138129 0.9919  67.3  m  14?  32.77  95.8   41  75  61  20
   2024 03 06 12:00  19 16 20.20    +33 31 26.9   137617 0.9919  67.3  m  14?  31.85  96.9   43  76  61  20
   2024 03 06 12:10  19 16 45.08    +33 30 45.3   137103 0.9919  67.2  m  14?  30.96  98.1   45  77  61  20
   2024 03 06 12:20  19 17 09.21    +33 29 58.4   136586 0.9919  67.1  m  14?  30.12  99.3   46  78  61  20
   2024 03 06 12:30  19 17 32.59    +33 29 05.9   136067 0.9919  67.0  m  14?  29.32 100.7   48  79  61  20
   2024 03 06 12:40  19 17 55.24    +33 28 07.6   135546 0.9919  67.0 Am  14?  28.57 102.2   50  80  61  20
   2024 03 06 12:50  19 18 17.20    +33 27 03.0   135024 0.9919  66.9 Am  14?  27.89 103.9   52  82  61  20
   2024 03 06 13:00  19 18 38.49    +33 25 52.0   134500 0.9919  66.8 Am  14?  27.27 105.6   54  83  61  20
   2024 03 06 13:10  19 18 59.12    +33 24 34.1   133974 0.9919  66.7 Nm  14?  26.72 107.5   56  84  61  20
   2024 03 06 13:20  19 19 19.14    +33 23 09.2   133448 0.9919  66.7 Nm  14?  26.24 109.5   58  85  61  20
   2024 03 06 13:30  19 19 38.57    +33 21 36.9   132920 0.9919  66.6 Nm  14?  25.84 111.6   60  87  61  19
   2024 03 06 13:40  19 19 57.45    +33 19 56.9   132392 0.9919  66.5 Cm  14?  25.53 113.8   62  88  61  19
   2024 03 06 13:50  19 20 15.80    +33 18 08.9   131862 0.9919  66.5 Cm  14?  25.31 116.1   63  90  61  19
   ................
   2024 03 07 09:30  09 25 39.58    -27 17 32.5     9355 0.9925 138.6  r   9?  10256  51.6    8 225 127  12
   2024 03 07 09:40  10 46 13.04    -10 21 40.1    10248 0.9926 163.2     10? 7873.3  46.1   31 221 133  12
   2024 03 07 09:50  11 38 59.97    +02 27 34.1    12029 0.9926 172.7     11? 5455.0  45.9   48 218 131  12
   2024 03 07 10:00  12 16 09.67    +11 10 30.8    14215 0.9926 163.0     11? 3801.7  47.6   59 215 127  12
   2024 03 07 10:10  12 44 01.40    +17 07 49.1    16545 0.9926 154.5     11? 2759.1  49.7   66 212 122  12
   2024 03 07 10:20  13 05 55.52    +21 20 48.6    18903 0.9926 148.0     11? 2090.3  51.9   71 210 119  12
   2024 03 07 10:30  13 23 45.58    +24 26 54.4    21237 0.9926 142.9     11? 1643.2  54.0   74 209 116  12
   2024 03 07 10:40  13 38 40.53    +26 48 27.1    23523 0.9926 138.9     11? 1331.3  55.9   77 210 113  12
   2024 03 07 10:50  13 51 24.76    +28 39 08.4    25754 0.9926 135.5     11? 1105.4  57.6   79 211 111  12
   2024 03 07 11:00  14 02 28.28    +30 07 41.5    27927 0.9926 132.7     12? 936.26  59.3   80 214 109  12
   2024 03 07 11:10  14 12 12.17    +31 19 51.8    30043 0.9926 130.4     12? 806.13  60.8   81 219 108  12
   2024 03 07 11:20  14 20 51.78    +32 19 35.5    32103 0.9926 128.3     12? 703.66  62.2   82 225 107  12
   2024 03 07 11:30  14 28 38.56    +33 09 39.1    34112 0.9926 126.5     12? 621.36  63.6   82 232 105  12
   2024 03 07 11:40  14 35 41.28    +33 52 02.7    36071 0.9927 124.8  e  12? 554.15  64.9   82 240 104  11
   2024 03 07 11:50  14 42 06.78    +34 28 15.4    37983 0.9927 123.4     12? 498.45  66.1   82 247 103  11
   2024 03 07 12:00  14 48 00.50    +34 59 24.6    39852 0.9927 122.1     12? 451.73  67.3   81 252 102  11
   2024 03 07 12:10  14 53 26.83    +35 26 22.0    41680 0.9927 120.9     12? 412.10  68.5   80 257 102  11
   2024 03 07 12:20  14 58 29.37    +35 49 48.0    43470 0.9927 119.8     12? 378.19  69.6   80 262 101  11
   2024 03 07 12:30  15 03 11.07    +36 10 14.8    45224 0.9927 118.8 Am  12? 348.92  70.7   79 265 100  11
   2024 03 07 12:40  15 07 34.43    +36 28 08.2    46943 0.9927 117.9 Am  12? 323.48  71.8   78 267  99  11
   2024 03 07 12:50  15 11 41.55    +36 43 49.1    48631 0.9927 117.0 Am  12? 301.22  72.9   76 270  99  11
   2024 03 07 13:00  15 15 34.21    +36 57 34.8    50289 0.9927 116.2 Am  12? 281.66  73.9   75 271  98  11
   2024 03 07 13:10  15 19 13.95    +37 09 39.6    51918 0.9927 115.4 Nm  12? 264.36  75.0   74 273  98  11
   2024 03 07 13:20  15 22 42.09    +37 20 15.4    53520 0.9927 114.7 Nm  12? 249.02  76.1   73 274  97  11
   2024 03 07 13:30  15 25 59.81    +37 29 32.5    55096 0.9927 114.1 Nm  12? 235.35  77.1   71 275  97  11
   2024 03 07 13:40  15 29 08.10    +37 37 39.3    56648 0.9927 113.4 Cm  12? 223.13  78.1   70 276  96  11
   2024 03 07 13:50  15 32 07.86    +37 44 43.3    58177 0.9927 112.8 Cm  13? 212.18  79.1   69 277  96  11
   ................
   2024 03 08 06:10  18 00 21.01    +36 25 07.6   141761 0.9926  83.8     14?  66.28  82.6    0  41  74   6
   2024 03 08 06:20  18 01 14.94    +36 26 32.2   141991 0.9926  83.6     14?  64.99  82.2    1  42  74   6
   2024 03 08 06:30  18 02 07.78    +36 27 59.3   142211 0.9926  83.5     14?  63.69  81.9    2  43  74   6
   2024 03 08 06:40  18 02 59.51    +36 29 28.6   142422 0.9926  83.3     14?  62.38  81.5    3  45  74   6
   2024 03 08 06:50  18 03 50.13    +36 30 59.9   142623 0.9926  83.1     14?  61.05  81.1    4  46  74   6
   2024 03 08 07:00  18 04 39.63    +36 32 33.1   142815 0.9926  83.0     14?  59.72  80.8    6  47  74   6
   2024 03 08 07:10  18 05 28.00    +36 34 07.8   142998 0.9926  82.8     14?  58.37  80.4    7  49  74   6
   2024 03 08 07:20  18 06 15.23    +36 35 43.8   143173 0.9926  82.7     14?  57.01  80.1    9  50  74   6
   2024 03 08 07:30  18 07 01.31    +36 37 21.0   143339 0.9926  82.6     14?  55.64  79.7   10  51  74   6
   2024 03 08 07:40  18 07 46.23    +36 38 59.0   143497 0.9926  82.4     14?  54.27  79.4   12  52  74   6
   2024 03 08 07:50  18 08 30.00    +36 40 37.5   143647 0.9926  82.3     14?  52.89  79.1   13  53  74   6
   2024 03 08 08:00  18 09 12.61    +36 42 16.5   143790 0.9926  82.2     14?  51.50  78.7   15  54  74   6
   2024 03 08 08:10  18 09 54.06    +36 43 55.5   143925 0.9926  82.0     14?  50.11  78.4   16  56  74   6
   2024 03 08 08:20  18 10 34.34    +36 45 34.3   144053 0.9926  81.9     14?  48.72  78.2   18  57  74   6
   2024 03 08 08:30  18 11 13.46    +36 47 12.6   144175 0.9926  81.8     14?  47.32  77.9   19  58  73   6
   2024 03 08 08:40  18 11 51.42    +36 48 50.3   144290 0.9926  81.7     14?  45.93  77.6   21  59  73   6
   2024 03 08 08:50  18 12 28.22    +36 50 26.9   144400 0.9926  81.6     14?  44.53  77.4   22  60  73   6
   2024 03 08 09:00  18 13 03.87    +36 52 02.2   144503 0.9926  81.5     14?  43.14  77.2   24  61  73   6
   2024 03 08 09:10  18 13 38.37    +36 53 36.0   144602 0.9926  81.3     14?  41.75  77.0   26  62  73   5
   2024 03 08 09:20  18 14 11.73    +36 55 08.0   144695 0.9926  81.2     14?  40.36  76.8   27  63  73   5
   2024 03 08 09:30  18 14 43.95    +36 56 37.8   144783 0.9926  81.2     14?  38.99  76.7   29  64  73   5
   2024 03 08 09:40  18 15 15.06    +36 58 05.2   144866 0.9926  81.1     14?  37.62  76.6   31  65  73   5
   2024 03 08 09:50  18 15 45.06    +36 59 30.0   144946 0.9926  81.0     14?  36.26  76.5   33  66  73   5
   2024 03 08 10:00  18 16 13.97    +37 00 51.7   145021 0.9926  80.9     14?  34.91  76.6   34  67  73   5
   2024 03 08 10:10  18 16 41.80    +37 02 10.2   145093 0.9926  80.8     14?  33.57  76.6   36  67  73   5
   2024 03 08 10:20  18 17 08.57    +37 03 25.2   145161 0.9926  80.7     14?  32.25  76.7   38  68  73   5
   2024 03 08 10:30  18 17 34.29    +37 04 36.3   145227 0.9926  80.7     14?  30.95  76.9   40  69  73   5
   2024 03 08 10:40  18 17 58.99    +37 05 43.4   145289 0.9926  80.6     14?  29.67  77.2   41  70  73   5
   2024 03 08 10:50  18 18 22.70    +37 06 46.1   145349 0.9926  80.5     14?  28.41  77.5   43  71  73   5
   2024 03 08 11:00  18 18 45.42    +37 07 44.2   145407 0.9926  80.4     14?  27.18  78.0   45  72  73   5
   2024 03 08 11:10  18 19 07.19    +37 08 37.4   145463 0.9926  80.4     14?  25.98  78.6   47  73  73   5
   2024 03 08 11:20  18 19 28.04    +37 09 25.5   145517 0.9926  80.3     14?  24.80  79.3   49  74  73   5
   2024 03 08 11:30  18 19 48.00    +37 10 08.2   145570 0.9926  80.3     14?  23.66  80.1   51  75  73   5
   2024 03 08 11:40  18 20 07.08    +37 10 45.2   145622 0.9926  80.2     14?  22.56  81.1   52  75  73   5
   2024 03 08 11:50  18 20 25.33    +37 11 16.3   145672 0.9926  80.2     14?  21.51  82.3   54  76  73   5
   2024 03 08 12:00  18 20 42.78    +37 11 41.4   145722 0.9926  80.1     14?  20.50  83.7   56  77  73   5
   2024 03 08 12:10  18 20 59.46    +37 12 00.1   145771 0.9926  80.1     14?  19.55  85.3   58  78  73   5
   2024 03 08 12:20  18 21 15.41    +37 12 12.4   145820 0.9926  80.0     14?  18.65  87.1   60  79  73   5
   2024 03 08 12:30  18 21 30.67    +37 12 17.8   145869 0.9926  80.0 A   14?  17.83  89.2   62  80  73   5
   2024 03 08 12:40  18 21 45.27    +37 12 16.4   145919 0.9926  79.9 A   14?  17.07  91.5   64  81  73   5
   2024 03 08 12:50  18 21 59.25    +37 12 07.9   145968 0.9926  79.9 A   14?  16.40  94.1   66  81  73   5
   2024 03 08 13:00  18 22 12.66    +37 11 52.1   146018 0.9926  79.8 N   14?  15.81  96.9   68  82  73   5
   2024 03 08 13:10  18 22 25.53    +37 11 28.9   146069 0.9926  79.8 Nm  14?  15.32 100.0   69  83  73   5
   2024 03 08 13:20  18 22 37.91    +37 10 58.1   146120 0.9926  79.8 Nm  14?  14.92 103.2   71  84  73   5
   2024 03 08 13:30  18 22 49.84    +37 10 19.7   146172 0.9926  79.7 Cm  14?  14.64 106.6   73  85  73   4
   2024 03 08 13:40  18 23 01.37    +37 09 33.5   146226 0.9926  79.7 Cm  14?  14.46 110.1   75  86  73   4
   ................
   2024 03 09 08:10  19 36 16.50    +30 36 25.8   128797 0.9926  63.6     14?  75.56  99.2    0  49  60   1
   2024 03 09 08:20  19 37 14.03    +30 34 23.6   128078 0.9926  63.4     14?  75.03  99.2    0  50  60   1
   2024 03 09 08:30  19 38 11.13    +30 32 21.4   127348 0.9926  63.2     14?  74.48  99.3    2  52  60   1
   2024 03 09 08:40  19 39 07.77    +30 30 19.0   126608 0.9926  63.0     14?  73.92  99.4    3  53  60   1
   2024 03 09 08:50  19 40 03.94    +30 28 16.1   125857 0.9926  62.8     14?  73.35  99.5    5  54  60   1
   2024 03 09 09:00  19 40 59.62    +30 26 12.4   125096 0.9926  62.6     14?  72.76  99.7    6  56  60   1
   2024 03 09 09:10  19 41 54.81    +30 24 07.5   124325 0.9926  62.4     14?  72.17  99.9    8  57  60   1
   2024 03 09 09:20  19 42 49.48    +30 22 01.2   123545 0.9926  62.2     14?  71.56 100.0    9  58  60   1
   2024 03 09 09:30  19 43 43.63    +30 19 53.1   122755 0.9926  62.0     14?  70.95 100.3   11  60  59   1
   2024 03 09 09:40  19 44 37.25    +30 17 43.0   121955 0.9926  61.8     14?  70.33 100.6   12  61  59   1
   2024 03 09 09:50  19 45 30.33    +30 15 30.3   121147 0.9926  61.7     14?  69.72 100.9   14  62  59   1
   2024 03 09 10:00  19 46 22.86    +30 13 14.9   120329 0.9926  61.5     14?  69.10 101.2   15  63  59   1
   2024 03 09 10:10  19 47 14.84    +30 10 56.3   119503 0.9927  61.3     14?  68.49 101.6   17  64  59   1
   2024 03 09 10:20  19 48 06.26    +30 08 34.1   118668 0.9927  61.1     14?  67.88 102.1   19  66  59   1
   2024 03 09 10:30  19 48 57.13    +30 06 08.0   117825 0.9927  60.9     14?  67.29 102.5   20  67  59   1
   2024 03 09 10:40  19 49 47.42    +30 03 37.5   116973 0.9927  60.7     14?  66.71 103.1   22  68  59   1
   2024 03 09 10:50  19 50 37.16    +30 01 02.3   116114 0.9927  60.6     14?  66.14 103.6   24  69  59   1
   2024 03 09 11:00  19 51 26.34    +29 58 21.8   115247 0.9927  60.4     14?  65.60 104.2   25  70  58   1
   2024 03 09 11:10  19 52 14.96    +29 55 35.7   114372 0.9927  60.2     14?  65.08 104.9   27  71  58   1
   2024 03 09 11:20  19 53 03.02    +29 52 43.4   113490 0.9927  60.0     14?  64.59 105.6   29  73  58   1
   2024 03 09 11:30  19 53 50.55    +29 49 44.6   112601 0.9927  59.9     14?  64.14 106.3   30  74  58   1
   2024 03 09 11:40  19 54 37.54    +29 46 38.8   111704 0.9927  59.7     14?  63.72 107.1   32  75  58   1
   2024 03 09 11:50  19 55 24.00    +29 43 25.4   110801 0.9927  59.5     14?  63.34 108.0   34  76  58   1
   2024 03 09 12:00  19 56 09.96    +29 40 03.9   109890 0.9927  59.4     14?  63.02 108.9   36  77  58   1
   2024 03 09 12:10  19 56 55.42    +29 36 33.9   108974 0.9927  59.2     14?  62.75 109.8   37  79  58   1
   2024 03 09 12:20  19 57 40.40    +29 32 54.7   108050 0.9927  59.0     14?  62.54 110.8   39  80  57   1
   2024 03 09 12:30  19 58 24.93    +29 29 06.0   107120 0.9927  58.8 A   14?  62.39 111.8   41  81  57   1
   2024 03 09 12:40  19 59 09.01    +29 25 07.0   106185 0.9927  58.7 A   14?  62.32 112.9   43  82  57   1
   2024 03 09 12:50  19 59 52.69    +29 20 57.2   105243 0.9927  58.5 A   14?  62.32 114.0   45  84  57   1
   2024 03 09 13:00  20 00 35.98    +29 16 36.0   104294 0.9927  58.3 N   14?  62.41 115.1   46  85  57   1
   2024 03 09 13:10  20 01 18.92    +29 12 02.9   103340 0.9927  58.2 N   14?  62.58 116.3   48  86  57   1
   2024 03 09 13:20  20 02 01.54    +29 07 17.1   102381 0.9927  58.0 N   14?  62.85 117.5   50  88  57   1
   2024 03 09 13:30  20 02 43.87    +29 02 18.1   101415 0.9927  57.8 C   14?  63.23 118.7   52  89  57   1
   2024 03 09 13:40  20 03 25.94    +28 57 05.3   100444 0.9927  57.7 Cm  14?  63.71 120.0   54  91  56   1
   ................
   2024 03 10 04:10  15 39 08.68    +32 02 42.4    53362 0.9934 113.9     12? 367.02  62.9    0  48 114   0
   2024 03 10 04:20  15 43 19.41    +32 29 19.2    54891 0.9934 112.9     12? 345.05  63.5    1  49 113   0
   2024 03 10 04:30  15 47 17.55    +32 53 56.2    56385 0.9934 112.0     12? 325.16  63.9    2  49 112   0
   2024 03 10 04:40  15 51 04.07    +33 16 47.2    57845 0.9934 111.2     12? 307.07  64.4    4  50 111   0
   2024 03 10 04:50  15 54 39.82    +33 38 04.1    59273 0.9934 110.4     12? 290.53  64.7    5  51 111   0
   2024 03 10 05:00  15 58 05.57    +33 57 56.8    60670 0.9934 109.6     13? 275.35  65.1    6  51 110   0
   2024 03 10 05:10  16 01 21.97    +34 16 34.0    62038 0.9934 108.9     13? 261.36  65.4    7  52 109   0
   2024 03 10 05:20  16 04 29.64    +34 34 03.2    63376 0.9934 108.3     13? 248.43  65.7    9  53 109   0
   2024 03 10 05:30  16 07 29.12    +34 50 30.7    64688 0.9934 107.6     13? 236.42  65.9   10  53 108   0
   2024 03 10 05:40  16 10 20.88    +35 06 02.3    65973 0.9934 107.0     13? 225.25  66.2   11  54 108   0
   2024 03 10 05:50  16 13 05.39    +35 20 42.8    67232 0.9934 106.4     13? 214.81  66.3   13  55 107   0
   2024 03 10 06:00  16 15 43.03    +35 34 36.5    68467 0.9934 105.9     13? 205.03  66.5   14  56 107   0
   2024 03 10 06:10  16 18 14.17    +35 47 47.1    69678 0.9934 105.3     13? 195.86  66.7   15  56 106   0
   2024 03 10 06:20  16 20 39.15    +36 00 18.0    70866 0.9934 104.8     13? 187.22  66.8   17  57 106   0
   2024 03 10 06:30  16 22 58.28    +36 12 12.0    72033 0.9934 104.3     13? 179.07  67.0   18  58 105   0
   2024 03 10 06:40  16 25 11.84    +36 23 31.7    73178 0.9934 103.9     13? 171.37  67.1   20  58 105   0
   2024 03 10 06:50  16 27 20.09    +36 34 19.5    74303 0.9934 103.4     13? 164.08  67.2   21  59 105   0
   2024 03 10 07:00  16 29 23.27    +36 44 37.2    75408 0.9934 103.0     13? 157.16  67.3   22  60 104   0
   2024 03 10 07:10  16 31 21.62    +36 54 26.8    76494 0.9934 102.6     13? 150.58  67.3   24  61 104   0
   2024 03 10 07:20  16 33 15.33    +37 03 49.7    77562 0.9934 102.2     13? 144.32  67.4   25  61 104   0
   2024 03 10 07:30  16 35 04.62    +37 12 47.4    78612 0.9934 101.9     13? 138.35  67.5   27  62 103   0
   2024 03 10 07:40  16 36 49.67    +37 21 21.1    79645 0.9934 101.5     13? 132.66  67.6   28  63 103   0
   2024 03 10 07:50  16 38 30.65    +37 29 31.9    80662 0.9934 101.2     13? 127.22  67.7   30  64 103   0
   2024 03 10 08:00  16 40 07.72    +37 37 20.9    81663 0.9934 100.9     13? 122.02  67.8   32  64 103   0
   2024 03 10 08:10  16 41 41.06    +37 44 48.9    82649 0.9934 100.5     13? 117.03  67.9   33  65 102   0
   2024 03 10 08:20  16 43 10.79    +37 51 56.6    83621 0.9934 100.2     13? 112.26  68.0   35  66 102   0
   2024 03 10 08:30  16 44 37.08    +37 58 44.9    84579 0.9934 100.0     13? 107.69  68.1   36  66 102   0
   2024 03 10 08:40  16 46 00.05    +38 05 14.2    85523 0.9934  99.7     13? 103.30  68.3   38  67 102   0
   2024 03 10 08:50  16 47 19.84    +38 11 25.2    86455 0.9934  99.4     13?  99.09  68.4   40  68 101   0
   2024 03 10 09:00  16 48 36.57    +38 17 18.4    87374 0.9934  99.2     13?  95.05  68.6   41  68 101   0
   2024 03 10 09:10  16 49 50.37    +38 22 54.1    88281 0.9934  98.9     13?  91.17  68.8   43  69 101   0
   2024 03 10 09:20  16 51 01.36    +38 28 12.9    89177 0.9934  98.7     13?  87.45  69.0   45  70 101   0
   2024 03 10 09:30  16 52 09.64    +38 33 15.0    90063 0.9934  98.5     13?  83.88  69.3   46  70 101   0
   2024 03 10 09:40  16 53 15.34    +38 38 00.7    90938 0.9934  98.3     13?  80.45  69.6   48  71 101   0
   2024 03 10 09:50  16 54 18.56    +38 42 30.5    91803 0.9934  98.1     13?  77.16  70.0   50  72 100   0
   2024 03 10 10:00  16 55 19.40    +38 46 44.4    92658 0.9934  97.9     13?  74.01  70.4   51  72 100   0
   2024 03 10 10:10  16 56 17.97    +38 50 42.8    93505 0.9934  97.7     13?  71.00  70.9   53  73 100   0
   2024 03 10 10:20  16 57 14.38    +38 54 25.9    94343 0.9934  97.5     13?  68.12  71.4   55  73 100   0
   2024 03 10 10:30  16 58 08.72    +38 57 53.8    95173 0.9934  97.3     13?  65.36  72.0   57  74 100   0
   2024 03 10 10:40  16 59 01.10    +39 01 06.8    95995 0.9934  97.2     13?  62.74  72.6   58  75 100   0
   2024 03 10 10:50  16 59 51.60    +39 04 05.1    96810 0.9934  97.0     13?  60.24  73.3   60  75 100   0
   2024 03 10 11:00  17 00 40.32    +39 06 48.8    97618 0.9934  96.8     13?  57.86  74.1   62  76 100   0
   2024 03 10 11:10  17 01 27.36    +39 09 18.1    98419 0.9934  96.7     13?  55.62  75.0   64  76 100   0
   2024 03 10 11:20  17 02 12.80    +39 11 33.2    99214 0.9934  96.5     13?  53.49  76.0   65  77 100   0
   2024 03 10 11:30  17 02 56.74    +39 13 34.2   100003 0.9934  96.4     13?  51.50  77.0   67  77  99   0
   2024 03 10 11:40  17 03 39.27    +39 15 21.2   100786 0.9934  96.3     13?  49.63  78.2   69  77  99   0
   2024 03 10 11:50  17 04 20.48    +39 16 54.5   101564 0.9934  96.1     13?  47.89  79.4   71  77  99   0
   2024 03 10 12:00  17 05 00.44    +39 18 14.3   102337 0.9934  96.0     13?  46.28  80.8   73  78  99   0
   2024 03 10 12:10  17 05 39.25    +39 19 20.5   103105 0.9934  95.9     13?  44.80  82.2   74  78  99   0
   2024 03 10 12:20  17 06 16.99    +39 20 13.6   103868 0.9934  95.8     13?  43.44  83.7   76  78  99   0
   2024 03 10 12:30  17 06 53.74    +39 20 53.5   104627 0.9934  95.7 A   13?  42.22  85.3   78  77  99   0
   2024 03 10 12:40  17 07 29.59    +39 21 20.6   105383 0.9934  95.5 A   13?  41.13  86.9   80  76  99   0
   2024 03 10 12:50  17 08 04.60    +39 21 35.0   106134 0.9934  95.4 A   13?  40.17  88.7   82  75  99   0
   2024 03 10 13:00  17 08 38.87    +39 21 36.9   106881 0.9934  95.3 N   13?  39.34  90.5   84  72  99   0
   2024 03 10 13:10  17 09 12.46    +39 21 26.6   107626 0.9934  95.2 N   13?  38.63  92.3   85  66  99   0
   2024 03 10 13:20  17 09 45.45    +39 21 04.2   108366 0.9934  95.1 N   13?  38.05  94.1   87  51  99   0
   2024 03 10 13:30  17 10 17.92    +39 20 29.9   109104 0.9934  95.0 C   13?  37.60  96.0   88   7  99   0
   2024 03 10 13:40  17 10 49.93    +39 19 44.1   109839 0.9934  94.9 Ct  13?  37.26  97.8   87 313  99   0
   ................
   2024 03 11 06:40  18 33 06.06    +35 11 52.9   153005 0.9933  78.5     14?  57.15  86.7    0  43  86   1
   2024 03 11 06:50  18 33 52.21    +35 12 25.8   152913 0.9933  78.4     14?  56.16  86.3    1  44  86   1
   2024 03 11 07:00  18 34 37.53    +35 13 01.1   152812 0.9933  78.3     14?  55.14  86.0    2  46  85   1
   2024 03 11 07:10  18 35 22.00    +35 13 38.9   152701 0.9933  78.1     14?  54.10  85.7    4  47  85   1
   2024 03 11 07:20  18 36 05.60    +35 14 18.8   152582 0.9933  78.0     14?  53.05  85.4    5  48  85   1
   2024 03 11 07:30  18 36 48.33    +35 15 00.6   152455 0.9933  77.8     14?  51.97  85.1    6  50  85   1
   2024 03 11 07:40  18 37 30.16    +35 15 44.1   152320 0.9933  77.7     14?  50.88  84.8    8  51  85   1
   2024 03 11 07:50  18 38 11.10    +35 16 29.1   152177 0.9933  77.6     14?  49.77  84.6    9  52  85   1
   2024 03 11 08:00  18 38 51.11    +35 17 15.2   152027 0.9933  77.5     14?  48.65  84.3   11  53  85   1
   2024 03 11 08:10  18 39 30.20    +35 18 02.4   151869 0.9933  77.3     14?  47.52  84.1   12  54  85   1
   2024 03 11 08:20  18 40 08.35    +35 18 50.3   151704 0.9933  77.2     14?  46.37  83.9   14  56  85   1
   2024 03 11 08:30  18 40 45.55    +35 19 38.6   151533 0.9933  77.1     14?  45.21  83.7   15  57  85   1
   2024 03 11 08:40  18 41 21.81    +35 20 27.1   151355 0.9933  77.0     14?  44.05  83.5   17  58  85   1
   2024 03 11 08:50  18 41 57.11    +35 21 15.6   151171 0.9933  76.9     14?  42.87  83.3   19  59  85   1
   2024 03 11 09:00  18 42 31.45    +35 22 03.8   150982 0.9933  76.8     14?  41.69  83.2   20  60  85   1
   2024 03 11 09:10  18 43 04.83    +35 22 51.3   150786 0.9933  76.7     14?  40.51  83.2   22  61  85   1
   2024 03 11 09:20  18 43 37.24    +35 23 38.0   150586 0.9933  76.6     14?  39.32  83.1   24  62  85   1
   2024 03 11 09:30  18 44 08.69    +35 24 23.5   150380 0.9933  76.5     14?  38.13  83.1   25  63  85   1
   2024 03 11 09:40  18 44 39.18    +35 25 07.6   150170 0.9933  76.4     14?  36.94  83.1   27  64  85   1
   2024 03 11 09:50  18 45 08.71    +35 25 49.9   149956 0.9933  76.3     14?  35.75  83.2   29  65  85   1
   2024 03 11 10:00  18 45 37.29    +35 26 30.2   149737 0.9933  76.2     14?  34.56  83.3   30  66  85   1
   2024 03 11 10:10  18 46 04.91    +35 27 08.3   149515 0.9933  76.1     14?  33.39  83.5   32  67  85   1
   2024 03 11 10:20  18 46 31.60    +35 27 43.7   149289 0.9933  76.0     14?  32.22  83.8   34  68  85   1
   2024 03 11 10:30  18 46 57.36    +35 28 16.3   149060 0.9933  76.0     14?  31.06  84.1   36  69  85   1
   2024 03 11 10:40  18 47 22.21    +35 28 45.7   148828 0.9933  75.9     14?  29.92  84.5   37  70  85   1
   2024 03 11 10:50  18 47 46.15    +35 29 11.7   148593 0.9933  75.8     14?  28.79  85.0   39  71  85   1
   2024 03 11 11:00  18 48 09.19    +35 29 33.9   148356 0.9933  75.7     14?  27.69  85.6   41  72  85   1
   2024 03 11 11:10  18 48 31.37    +35 29 52.1   148116 0.9933  75.7     14?  26.60  86.4   43  73  84   1
   2024 03 11 11:20  18 48 52.69    +35 30 06.0   147875 0.9933  75.6     14?  25.55  87.2   45  74  84   1
   2024 03 11 11:30  18 49 13.18    +35 30 15.4   147632 0.9933  75.5     14?  24.52  88.2   47  75  84   1
   2024 03 11 11:40  18 49 32.85    +35 30 19.8   147387 0.9933  75.5     14?  23.54  89.4   49  76  84   1
   2024 03 11 11:50  18 49 51.73    +35 30 19.2   147142 0.9933  75.4     14?  22.59  90.7   50  77  84   2
   2024 03 11 12:00  18 50 09.85    +35 30 13.1   146896 0.9933  75.4     14?  21.69  92.2   52  78  84   2
   2024 03 11 12:10  18 50 27.23    +35 30 01.5   146648 0.9933  75.3     14?  20.84  93.8   54  79  84   2
   2024 03 11 12:20  18 50 43.90    +35 29 43.9   146401 0.9933  75.3     14?  20.04  95.7   56  80  85   2
   2024 03 11 12:30  18 50 59.89    +35 29 20.2   146153 0.9933  75.2 A   14?  19.32  97.8   58  81  85   2
   2024 03 11 12:40  18 51 15.23    +35 28 50.1   145905 0.9933  75.2 A   14?  18.66 100.1   60  82  85   2
   2024 03 11 12:50  18 51 29.96    +35 28 13.4   145657 0.9933  75.1 A   14?  18.08 102.6   62  83  85   2
   2024 03 11 13:00  18 51 44.11    +35 27 29.8   145409 0.9933  75.1 N   14?  17.58 105.3   64  85  85   2
   2024 03 11 13:10  18 51 57.71    +35 26 39.2   145162 0.9933  75.0 N   14?  17.18 108.2   66  86  85   2
   2024 03 11 13:20  18 52 10.80    +35 25 41.4   144916 0.9933  75.0 N   14?  16.87 111.2   68  87  85   2
   2024 03 11 13:30  18 52 23.42    +35 24 36.2   144670 0.9933  74.9 C   14?  16.66 114.3   70  89  85   2
   2024 03 11 13:40  18 52 35.62    +35 23 23.4   144425 0.9933  74.9 C   14?  16.55 117.4   71  90  85   2
   ................
   2024 03 12 09:50  20 48 26.36    +21 59 09.5    75769 0.9935  46.9     14? 207.16 116.1    0  61  65   6
   2024 03 12 10:00  20 50 41.49    +21 43 32.5    74351 0.9935  46.3     14? 213.26 116.6    1  63  65   6
   2024 03 12 10:10  20 52 59.84    +21 27 10.4    72913 0.9935  45.7     14? 219.88 117.1    2  64  64   6
   2024 03 12 10:20  20 55 21.69    +21 09 59.4    71454 0.9935  45.1     14? 227.08 117.6    3  65  64   6
   2024 03 12 10:30  20 57 47.32    +20 51 55.0    69975 0.9935  44.4     14? 234.93 118.1    4  67  63   6
   2024 03 12 10:40  21 00 17.05    +20 32 52.4    68474 0.9935  43.8     14? 243.50 118.7    6  68  63   6
   2024 03 12 10:50  21 02 51.25    +20 12 46.1    66952 0.9935  43.1     14? 252.88 119.2    7  69  62   6
   2024 03 12 11:00  21 05 30.33    +19 51 30.0    65407 0.9935  42.4     14? 263.18 119.8    8  71  62   6
   2024 03 12 11:10  21 08 14.76    +19 28 57.4    63840 0.9935  41.6     13? 274.53 120.4    9  72  61   6
   2024 03 12 11:20  21 11 05.05    +19 05 00.4    62250 0.9935  40.9     13? 287.05 120.9   10  73  61   6
   2024 03 12 11:30  21 14 01.81    +18 39 30.3    60636 0.9935  40.1     13? 300.92 121.5   11  75  60   6
   2024 03 12 11:40  21 17 05.72    +18 12 17.0    58998 0.9935  39.2     13? 316.33 122.1   12  76  60   6
   2024 03 12 11:50  21 20 17.55    +17 43 09.1    57336 0.9935  38.3     13? 333.52 122.7   13  78  59   6
   2024 03 12 12:00  21 23 38.21    +17 11 53.4    55648 0.9935  37.4     13? 352.75 123.3   14  79  58   6
   2024 03 12 12:10  21 27 08.72    +16 38 14.6    53934 0.9935  36.4     13? 374.37 123.9   15  80  57   6
   2024 03 12 12:20  21 30 50.31    +16 01 54.9    52193 0.9935  35.3     13? 398.79 124.5   16  82  57   6
   2024 03 12 12:30  21 34 44.40    +15 22 33.3    50424 0.9936  34.1 A   13? 426.49 125.1   17  83  56   6
   2024 03 12 12:40  21 38 52.65    +14 39 45.0    48627 0.9936  32.9 A   13? 458.10 125.7   18  85  55   6
   2024 03 12 12:50  21 43 17.08    +13 53 00.7    46800 0.9936  31.6 A   13? 494.38 126.3   18  86  54   7
   2024 03 12 13:00  21 48 00.09    +13 01 44.9    44944 0.9936  30.2 N   13? 536.30 126.8   19  88  53   7
   2024 03 12 13:10  21 53 04.58    +12 05 14.8    43057 0.9936  28.7 N   13? 585.09 127.4   19  89  52   7
   2024 03 12 13:20  21 58 34.15    +11 02 38.0    41137 0.9936  27.0 N   13? 642.34 127.9   20  91  51   7
   2024 03 12 13:30  22 04 33.25    +09 52 49.7    39186 0.9936  25.1 C   13? 710.13 128.5   20  93  49   7
   2024 03 12 13:40  22 11 07.49    +08 34 29.2    37203 0.9936  23.1 Ce  13? 791.20 129.0   20  94  48   7
   ................
   2024 03 13 05:10  17 21 58.82    +36 50 35.9   116341 0.9941  94.0     13?  93.68  78.5    0  40 110  11
   2024 03 13 05:20  17 23 14.45    +36 53 40.1   116930 0.9941  93.7     13?  91.53  78.2    1  41 110  11
   2024 03 13 05:30  17 24 28.30    +36 56 44.4   117506 0.9941  93.5     13?  89.39  77.9    2  43 110  11
   2024 03 13 05:40  17 25 40.38    +36 59 48.7   118071 0.9941  93.2     13?  87.27  77.6    3  44 109  11
   2024 03 13 05:50  17 26 50.71    +37 02 53.0   118623 0.9941  93.0     13?  85.16  77.3    4  45 109  11
   2024 03 13 06:00  17 27 59.29    +37 05 56.9   119163 0.9941  92.8     13?  83.06  77.1    6  46 109  11
   2024 03 13 06:10  17 29 06.13    +37 09 00.4   119693 0.9941  92.6     13?  80.98  76.8    7  48 109  11
   2024 03 13 06:20  17 30 11.24    +37 12 03.2   120211 0.9941  92.4     13?  78.91  76.5    8  49 109  11
   2024 03 13 06:30  17 31 14.64    +37 15 05.3   120719 0.9941  92.2     13?  76.86  76.2   10  50 109  11
   2024 03 13 06:40  17 32 16.34    +37 18 06.3   121216 0.9941  92.0     13?  74.81  75.9   11  51 108  11
   2024 03 13 06:50  17 33 16.35    +37 21 06.1   121703 0.9941  91.8     13?  72.79  75.6   13  52 108  11
   2024 03 13 07:00  17 34 14.68    +37 24 04.5   122181 0.9941  91.6     13?  70.78  75.3   14  53 108  11
   2024 03 13 07:10  17 35 11.34    +37 27 01.3   122649 0.9941  91.4     13?  68.78  75.0   16  54 108  11
   2024 03 13 07:20  17 36 06.36    +37 29 56.2   123107 0.9941  91.2     13?  66.80  74.7   17  55 108  11
   2024 03 13 07:30  17 36 59.74    +37 32 49.0   123557 0.9941  91.0     13?  64.84  74.5   19  56 108  11
   2024 03 13 07:40  17 37 51.51    +37 35 39.5   123999 0.9941  90.9     13?  62.89  74.2   20  57 108  12
   2024 03 13 07:50  17 38 41.67    +37 38 27.4   124432 0.9941  90.7     13?  60.96  74.0   22  58 108  12
   2024 03 13 08:00  17 39 30.25    +37 41 12.4   124858 0.9941  90.6     13?  59.05  73.7   23  59 107  12
   2024 03 13 08:10  17 40 17.26    +37 43 54.5   125276 0.9941  90.4     13?  57.15  73.5   25  60 107  12
   2024 03 13 08:20  17 41 02.74    +37 46 33.2   125687 0.9941  90.3     13?  55.28  73.3   27  61 107  12
   2024 03 13 08:30  17 41 46.69    +37 49 08.3   126091 0.9941  90.1     13?  53.43  73.2   28  62 107  12
   2024 03 13 08:40  17 42 29.14    +37 51 39.6   126488 0.9941  90.0     13?  51.60  73.0   30  63 107  12
   2024 03 13 08:50  17 43 10.11    +37 54 06.9   126880 0.9941  89.9     13?  49.80  72.9   31  64 107  12
   2024 03 13 09:00  17 43 49.64    +37 56 29.7   127265 0.9941  89.8     13?  48.02  72.8   33  65 107  12
   2024 03 13 09:10  17 44 27.74    +37 58 48.0   127645 0.9941  89.6     13?  46.26  72.7   35  66 107  12
   2024 03 13 09:20  17 45 04.45    +38 01 01.5   128020 0.9941  89.5     13?  44.53  72.7   37  67 107  12
   2024 03 13 09:30  17 45 39.79    +38 03 09.8   128389 0.9941  89.4     13?  42.84  72.8   38  67 107  12
   2024 03 13 09:40  17 46 13.80    +38 05 12.8   128754 0.9941  89.3     13?  41.17  72.8   40  68 107  12
   2024 03 13 09:50  17 46 46.50    +38 07 10.2   129115 0.9941  89.2     13?  39.53  73.0   42  69 107  12
   2024 03 13 10:00  17 47 17.94    +38 09 01.7   129472 0.9941  89.1     13?  37.93  73.2   44  70 107  12
   2024 03 13 10:10  17 47 48.14    +38 10 47.2   129825 0.9941  89.0     13?  36.36  73.5   45  71 106  13
   2024 03 13 10:20  17 48 17.14    +38 12 26.3   130175 0.9941  88.9     14?  34.84  73.8   47  71 106  13
   2024 03 13 10:30  17 48 44.98    +38 13 58.8   130521 0.9941  88.8     14?  33.35  74.3   49  72 106  13
   2024 03 13 10:40  17 49 11.70    +38 15 24.6   130865 0.9941  88.8     14?  31.91  74.9   51  73 106  13
   2024 03 13 10:50  17 49 37.34    +38 16 43.5   131206 0.9941  88.7     14?  30.51  75.5   53  74 106  13
   2024 03 13 11:00  17 50 01.94    +38 17 55.1   131544 0.9941  88.6     14?  29.16  76.3   55  74 106  13
   2024 03 13 11:10  17 50 25.54    +38 18 59.3   131881 0.9941  88.5     14?  27.87  77.3   56  75 106  13
   2024 03 13 11:20  17 50 48.18    +38 19 56.0   132216 0.9941  88.5     14?  26.63  78.4   58  76 106  13
   2024 03 13 11:30  17 51 09.92    +38 20 45.0   132549 0.9941  88.4     14?  25.46  79.6   60  77 106  13
   2024 03 13 11:40  17 51 30.80    +38 21 26.0   132881 0.9941  88.3     14?  24.35  81.1   62  77 106  13
   2024 03 13 11:50  17 51 50.86    +38 21 59.0   133212 0.9941  88.3     14?  23.32  82.7   64  78 106  13
   2024 03 13 12:00  17 52 10.16    +38 22 23.7   133542 0.9941  88.2     14?  22.36  84.5   66  79 106  13
   2024 03 13 12:10  17 52 28.74    +38 22 40.2   133871 0.9941  88.2     14?  21.48  86.6   68  79 106  13
   2024 03 13 12:20  17 52 46.65    +38 22 48.2   134199 0.9941  88.1     14?  20.69  88.8   69  80 106  14
   2024 03 13 12:30  17 53 03.94    +38 22 47.7   134527 0.9941  88.0 A   14?  19.99  91.2   71  80 106  14
   2024 03 13 12:40  17 53 20.66    +38 22 38.5   134855 0.9941  88.0 A   14?  19.40  93.8   73  81 106  14
   2024 03 13 12:50  17 53 36.87    +38 22 20.7   135183 0.9941  87.9 A   14?  18.91  96.6   75  81 106  14
   2024 03 13 13:00  17 53 52.61    +38 21 54.1   135512 0.9941  87.9 N   14?  18.52  99.5   77  82 106  14
   2024 03 13 13:10  17 54 07.95    +38 21 18.8   135840 0.9941  87.8 N   14?  18.25 102.4   79  82 106  14
   2024 03 13 13:20  17 54 22.92    +38 20 34.6   136168 0.9941  87.8 N   14?  18.09 105.4   81  82 106  14
   2024 03 13 13:30  17 54 37.58    +38 19 41.6   136497 0.9941  87.8 C   14?  18.03 108.3   83  82 106  14
   2024 03 13 13:40  17 54 51.98    +38 18 39.8   136827 0.9941  87.7 C   14?  18.08 111.3   85  81 106  14
   ................
   2024 03 14 07:10  19 04 07.66    +33 15 31.3   147755 0.9940  73.4     14?  59.44  92.1    0  46 101  20
   2024 03 14 07:20  19 04 54.68    +33 15 09.3   147352 0.9940  73.2     14?  58.59  91.9    1  47 100  20
   2024 03 14 07:30  19 05 41.01    +33 14 49.3   146940 0.9940  73.1     14?  57.72  91.7    2  49 100  20
   2024 03 14 07:40  19 06 26.65    +33 14 31.1   146519 0.9940  72.9     14?  56.83  91.6    4  50 100  20
   2024 03 14 07:50  19 07 11.56    +33 14 14.5   146089 0.9940  72.8     14?  55.92  91.5    5  51 100  20
   2024 03 14 08:00  19 07 55.74    +33 13 59.2   145651 0.9940  72.6     14?  54.98  91.4    7  53 100  20
   2024 03 14 08:10  19 08 39.17    +33 13 44.9   145204 0.9940  72.5     14?  54.03  91.3    8  54 100  20
   2024 03 14 08:20  19 09 21.83    +33 13 31.6   144749 0.9940  72.3     14?  53.06  91.3   10  55 100  20
   2024 03 14 08:30  19 10 03.72    +33 13 18.8   144287 0.9940  72.2     14?  52.08  91.2   11  56 100  20
   2024 03 14 08:40  19 10 44.81    +33 13 06.4   143817 0.9940  72.1     14?  51.08  91.2   13  58 100  20
   2024 03 14 08:50  19 11 25.10    +33 12 54.1   143339 0.9941  71.9     14?  50.07  91.3   14  59 100  21
   2024 03 14 09:00  19 12 04.58    +33 12 41.6   142855 0.9941  71.8     14?  49.05  91.3   16  60 100  21
   2024 03 14 09:10  19 12 43.24    +33 12 28.6   142364 0.9941  71.7     14?  48.02  91.4   18  61 100  21
   2024 03 14 09:20  19 13 21.07    +33 12 14.9   141867 0.9941  71.6     14?  46.98  91.6   19  62 100  21
   2024 03 14 09:30  19 13 58.07    +33 12 00.1   141363 0.9941  71.4     14?  45.94  91.8   21  63 100  21
   2024 03 14 09:40  19 14 34.23    +33 11 44.1   140854 0.9941  71.3     14?  44.89  92.0   23  64 100  21
   2024 03 14 09:50  19 15 09.54    +33 11 26.4   140338 0.9941  71.2     14?  43.84  92.3   24  66 100  21
   2024 03 14 10:00  19 15 44.01    +33 11 06.8   139818 0.9941  71.1     14?  42.79  92.6   26  67 100  21
   2024 03 14 10:10  19 16 17.64    +33 10 45.0   139292 0.9941  71.0     14?  41.75  93.0   28  68 100  21
   2024 03 14 10:20  19 16 50.42    +33 10 20.7   138762 0.9941  70.9     14?  40.71  93.5   29  69 100  21
   2024 03 14 10:30  19 17 22.37    +33 09 53.5   138226 0.9941  70.8     14?  39.69  94.0   31  70 100  21
   2024 03 14 10:40  19 17 53.48    +33 09 23.2   137687 0.9941  70.7     14?  38.68  94.6   33  71 100  21
   2024 03 14 10:50  19 18 23.76    +33 08 49.4   137143 0.9941  70.6     14?  37.68  95.3   35  72 100  22
   2024 03 14 11:00  19 18 53.22    +33 08 11.8   136596 0.9941  70.5     14?  36.71  96.0   37  73 100  22
   2024 03 14 11:10  19 19 21.86    +33 07 30.0   136045 0.9941  70.4     14?  35.75  96.9   38  74 100  22
   2024 03 14 11:20  19 19 49.71    +33 06 43.8   135490 0.9941  70.3     14?  34.83  97.8   40  75 100  22
   2024 03 14 11:30  19 20 16.78    +33 05 52.9   134933 0.9941  70.2     14?  33.94  98.9   42  76 100  22
   2024 03 14 11:40  19 20 43.07    +33 04 56.8   134372 0.9941  70.1     14?  33.09 100.0   44  77 100  22
   2024 03 14 11:50  19 21 08.61    +33 03 55.3   133809 0.9941  70.0     14?  32.28 101.3   46  79 100  22
   2024 03 14 12:00  19 21 33.41    +33 02 48.0   133243 0.9941  69.9     14?  31.53 102.7   48  80 100  22
   2024 03 14 12:10  19 21 57.50    +33 01 34.7   132675 0.9941  69.8     14?  30.82 104.2   50  81 100  22
   2024 03 14 12:20  19 22 20.90    +33 00 15.0   132106 0.9941  69.8 A   14?  30.17 105.8   51  82 100  22
   2024 03 14 12:30  19 22 43.63    +32 58 48.5   131534 0.9941  69.7 A   14?  29.59 107.5   53  83 100  22
   2024 03 14 12:40  19 23 05.72    +32 57 15.0   130960 0.9941  69.6 A   14?  29.08 109.3   55  84 100  23
   2024 03 14 12:50  19 23 27.20    +32 55 34.2   130386 0.9941  69.5 N   14?  28.65 111.2   57  86 100  23
   2024 03 14 13:00  19 23 48.09    +32 53 45.7   129809 0.9941  69.4 N   14?  28.29 113.2   59  87 100  23
   2024 03 14 13:10  19 24 08.44    +32 51 49.3   129232 0.9941  69.4 N   14?  28.03 115.3   61  89 100  23
   2024 03 14 13:20  19 24 28.27    +32 49 44.6   128653 0.9941  69.3 N   14?  27.85 117.4   63  90 100  23
   2024 03 14 13:30  19 24 47.61    +32 47 31.3   128074 0.9941  69.2 C   14?  27.76 119.5   65  92 100  23
   ................
   2024 03 15 07:50  09 51 06.23    -31 18 28.5     8484 0.9946 137.6  r   9?  11238  47.6   15 205 101  30
   2024 03 15 08:00  11 13 06.41    -11 45 13.3     9579 0.9947 164.5     10? 8180.9  42.0   39 194 112  30
   2024 03 15 08:10  12 03 09.83    +02 05 20.4    11569 0.9947 174.5     11? 5399.6  42.5   54 181 118  30
   2024 03 15 08:20  12 37 27.20    +11 04 58.2    13908 0.9947 163.3  t  11? 3664.0  44.6   62 169 120  30
   2024 03 15 08:30  13 02 56.02    +17 05 37.4    16342 0.9947 154.9     11? 2626.5  47.0   67 157 121  30
   2024 03 15 08:40  13 22 56.21    +21 18 45.3    18769 0.9947 148.6     11? 1979.9  49.4   70 146 121  30
   2024 03 15 08:50  13 39 15.24    +24 24 36.0    21146 0.9947 143.7     11? 1554.2  51.6   72 137 121  30
   2024 03 15 09:00  13 52 56.48    +26 46 11.2    23460 0.9947 139.9     11? 1259.6  53.5   73 129 121  30
   2024 03 15 09:10  14 04 40.06    +28 37 18.3    25706 0.9947 136.7     11? 1046.9  55.3   74 123 120  30
   2024 03 15 09:20  14 14 52.84    +30 06 37.2    27884 0.9947 134.0     12? 887.85  57.0   75 119 120  31
   2024 03 15 09:30  14 23 53.65    +31 19 48.4    29999 0.9947 131.7     12? 765.38  58.5   76 115 120  31
   2024 03 15 09:40  14 31 56.11    +32 20 43.8    32052 0.9948 129.7     12? 668.77  59.9   77 112 120  31
   2024 03 15 09:50  14 39 10.42    +33 12 06.5    34049 0.9948 128.0     12? 591.00  61.2   78 110 119  31
   2024 03 15 10:00  14 45 44.40    +33 55 54.2    35993 0.9948 126.5     12? 527.30  62.4   79 108 119  31
   2024 03 15 10:10  14 51 44.15    +34 33 34.0    37888 0.9948 125.1     12? 474.36  63.6   80 107 119  31
   2024 03 15 10:20  14 57 14.54    +35 06 11.8    39736 0.9948 123.8     12? 429.79  64.8   81 106 119  31
   2024 03 15 10:30  15 02 19.50    +35 34 38.5    41542 0.9948 122.7     12? 391.85  65.9   82 105 118  31
   2024 03 15 10:40  15 07 02.27    +35 59 33.6    43307 0.9948 121.6     12? 359.26  66.9   83 105 118  31
   2024 03 15 10:50  15 11 25.52    +36 21 28.7    45034 0.9948 120.7     12? 331.03  68.0   85 106 118  31
   2024 03 15 11:00  15 15 31.52    +36 40 49.2    46726 0.9948 119.8     12? 306.40  69.0   86 107 118  31
   2024 03 15 11:10  15 19 22.16    +36 57 55.6    48384 0.9948 119.0     12? 284.77  70.1   87 110 118  32
   2024 03 15 11:20  15 22 59.09    +37 13 05.0    50012 0.9948 118.2     12? 265.67  71.1   88 124 117  32
   2024 03 15 11:30  15 26 23.71    +37 26 31.4    51610 0.9948 117.5  t  12? 248.73  72.1   89 227 117  32
   2024 03 15 11:40  15 29 37.25    +37 38 26.7    53180 0.9948 116.9     12? 233.64  73.1   88 264 117  32
   2024 03 15 11:50  15 32 40.77    +37 49 00.8    54724 0.9948 116.2     13? 220.15  74.1   86 271 117  32
   2024 03 15 12:00  15 35 35.21    +37 58 22.2    56243 0.9948 115.6     13? 208.05  75.2   85 273 117  32
   2024 03 15 12:10  15 38 21.41    +38 06 38.2    57738 0.9948 115.1     13? 197.16  76.2   84 275 117  32
   2024 03 15 12:20  15 41 00.11    +38 13 55.2    59212 0.9948 114.6 A   13? 187.36  77.2   82 276 117  32
   2024 03 15 12:30  15 43 31.96    +38 20 18.6    60663 0.9948 114.1 A   13? 178.50  78.3   81 276 117  32
   2024 03 15 12:40  15 45 57.55    +38 25 53.1    62095 0.9948 113.6 A   13? 170.49  79.3   79 277 117  32
   2024 03 15 12:50  15 48 17.43    +38 30 43.1    63507 0.9948 113.1 N   13? 163.24  80.4   78 278 117  33
   2024 03 15 13:00  15 50 32.06    +38 34 52.2    64901 0.9948 112.7 N   13? 156.67  81.4   76 278 117  33
   2024 03 15 13:10  15 52 41.89    +38 38 23.8    66278 0.9948 112.3 N   13? 150.71  82.5   75 279 116  33
   2024 03 15 13:20  15 54 47.31    +38 41 20.8    67637 0.9948 111.9 C   13? 145.30  83.5   73 279 116  33
   2024 03 15 13:30  15 56 48.69    +38 43 45.9    68980 0.9948 111.5 C   13? 140.40  84.5   71 280 116  33
   ................
   2024 03 16 05:40  18 04 18.64    +36 16 50.9   144232 0.9948  87.0  m  14?  64.57  83.5    0  40 114  39
   2024 03 16 05:50  18 05 11.19    +36 18 03.6   144420 0.9948  86.8  m  14?  63.35  83.1    0  42 114  39
   2024 03 16 06:00  18 06 02.72    +36 19 19.0   144598 0.9948  86.6  m  14?  62.11  82.8    1  43 114  39
   2024 03 16 06:10  18 06 53.19    +36 20 36.7   144766 0.9948  86.5  m  14?  60.86  82.4    3  44 114  39
   2024 03 16 06:20  18 07 42.60    +36 21 56.6   144925 0.9948  86.3  m  14?  59.59  82.0    4  46 114  39
   2024 03 16 06:30  18 08 30.94    +36 23 18.5   145075 0.9948  86.1  m  14?  58.31  81.7    5  47 114  40
   2024 03 16 06:40  18 09 18.20    +36 24 42.1   145216 0.9948  86.0  m  14?  57.02  81.3    7  48 114  40
   2024 03 16 06:50  18 10 04.36    +36 26 07.2   145349 0.9948  85.8  m  14?  55.71  81.0    8  50 114  40
   2024 03 16 07:00  18 10 49.43    +36 27 33.6   145473 0.9948  85.7  m  14?  54.40  80.6   10  51 114  40
   2024 03 16 07:10  18 11 33.38    +36 29 01.0   145590 0.9948  85.6  m  14?  53.07  80.3   11  52 114  40
   2024 03 16 07:20  18 12 16.22    +36 30 29.1   145698 0.9948  85.4  m  14?  51.74  80.0   13  53 114  40
   2024 03 16 07:30  18 12 57.95    +36 31 57.8   145799 0.9948  85.3  m  14?  50.40  79.7   14  54 114  40
   2024 03 16 07:40  18 13 38.55    +36 33 26.7   145893 0.9948  85.2  m  14?  49.06  79.4   16  55 114  40
   2024 03 16 07:50  18 14 18.03    +36 34 55.6   145980 0.9948  85.0  m  14?  47.71  79.1   17  56 113  40
   2024 03 16 08:00  18 14 56.38    +36 36 24.2   146061 0.9948  84.9  m  14?  46.35  78.8   19  58 113  40
   2024 03 16 08:10  18 15 33.61    +36 37 52.3   146135 0.9948  84.8  m  14?  45.00  78.6   20  59 113  40
   2024 03 16 08:20  18 16 09.71    +36 39 19.5   146203 0.9948  84.7  m  14?  43.64  78.4   22  60 113  40
   2024 03 16 08:30  18 16 44.70    +36 40 45.6   146266 0.9948  84.6  m  14?  42.29  78.2   24  61 113  40
   2024 03 16 08:40  18 17 18.56    +36 42 10.4   146323 0.9948  84.5     14?  40.93  78.0   25  62 113  41
   2024 03 16 08:50  18 17 51.32    +36 43 33.5   146375 0.9948  84.4     14?  39.58  77.8   27  63 113  41
   2024 03 16 09:00  18 18 22.98    +36 44 54.6   146422 0.9948  84.3     14?  38.24  77.7   29  64 113  41
   2024 03 16 09:10  18 18 53.55    +36 46 13.5   146465 0.9948  84.2     14?  36.90  77.7   30  65 113  41
   2024 03 16 09:20  18 19 23.04    +36 47 29.9   146504 0.9948  84.1     14?  35.57  77.7   32  66 113  41
   2024 03 16 09:30  18 19 51.45    +36 48 43.6   146538 0.9948  84.0     14?  34.26  77.7   34  67 113  41
   2024 03 16 09:40  18 20 18.81    +36 49 54.1   146570 0.9948  83.9     14?  32.95  77.8   36  68 113  41
   2024 03 16 09:50  18 20 45.14    +36 51 01.2   146597 0.9948  83.8     14?  31.66  77.9   37  68 113  41
   2024 03 16 10:00  18 21 10.44    +36 52 04.8   146622 0.9948  83.7     14?  30.39  78.1   39  69 113  41
   2024 03 16 10:10  18 21 34.74    +36 53 04.4   146644 0.9948  83.7     14?  29.13  78.4   41  70 113  41
   2024 03 16 10:20  18 21 58.05    +36 53 59.8   146664 0.9948  83.6     14?  27.90  78.8   43  71 113  41
   2024 03 16 10:30  18 22 20.41    +36 54 50.7   146682 0.9948  83.5     14?  26.69  79.3   45  72 113  41
   2024 03 16 10:40  18 22 41.83    +36 55 37.0   146697 0.9948  83.5     14?  25.51  80.0   46  73 113  42
   2024 03 16 10:50  18 23 02.34    +36 56 18.2   146711 0.9948  83.4     14?  24.36  80.7   48  74 113  42
   2024 03 16 11:00  18 23 21.97    +36 56 54.2   146724 0.9948  83.3     14?  23.25  81.6   50  75 113  42
   2024 03 16 11:10  18 23 40.74    +36 57 24.8   146735 0.9948  83.3     14?  22.17  82.7   52  76 113  42
   2024 03 16 11:20  18 23 58.68    +36 57 49.6   146746 0.9948  83.2     14?  21.14  83.9   54  76 113  42
   2024 03 16 11:30  18 24 15.84    +36 58 08.4   146755 0.9948  83.2     14?  20.16  85.3   56  77 113  42
   2024 03 16 11:40  18 24 32.23    +36 58 21.1   146765 0.9948  83.1     14?  19.23  87.0   58  78 113  42
   2024 03 16 11:50  18 24 47.90    +36 58 27.3   146774 0.9948  83.1     14?  18.36  88.9   59  79 113  42
   2024 03 16 12:00  18 25 02.89    +36 58 27.0   146783 0.9948  83.0     14?  17.56  91.0   61  80 113  42
   2024 03 16 12:10  18 25 17.22    +36 58 19.9   146792 0.9948  83.0     14?  16.83  93.4   63  81 113  42
   2024 03 16 12:20  18 25 30.93    +36 58 05.7   146802 0.9948  82.9 A   14?  16.18  96.1   65  82 113  43
   2024 03 16 12:30  18 25 44.08    +36 57 44.5   146812 0.9948  82.9 A   14?  15.63  99.0   67  83 113  43
   2024 03 16 12:40  18 25 56.69    +36 57 15.9   146823 0.9948  82.9 A   14?  15.16 102.1   69  84 113  43
   2024 03 16 12:50  18 26 08.81    +36 56 39.9   146835 0.9948  82.8 N   14?  14.80 105.4   71  85 113  43
   2024 03 16 13:00  18 26 20.48    +36 55 56.2   146848 0.9948  82.8 N   14?  14.54 108.8   73  86 113  43
   2024 03 16 13:10  18 26 31.75    +36 55 04.9   146862 0.9948  82.7 N   14?  14.39 112.4   75  87 113  43
   2024 03 16 13:20  18 26 42.66    +36 54 05.7   146877 0.9948  82.7 C   14?  14.35 115.9   77  88 113  43
   2024 03 16 13:30  18 26 53.25    +36 52 58.7   146893 0.9948  82.7 C   14?  14.41 119.3   79  90 113  43
   ................
   2024 03 17 07:50  19 41 46.32    +29 54 29.6   124190 0.9948  66.4  m  14?  79.96 100.9    0  50 116  51
   2024 03 17 08:00  19 42 46.49    +29 51 55.9   123408 0.9948  66.1  m  14?  79.53 101.0    1  52 116  51
   2024 03 17 08:10  19 43 46.28    +29 49 21.3   122616 0.9948  65.9  m  14?  79.10 101.1    2  53 116  51
   2024 03 17 08:20  19 44 45.68    +29 46 45.5   121812 0.9948  65.7  m  14?  78.65 101.3    4  54 116  51
   2024 03 17 08:30  19 45 44.69    +29 44 08.3   120998 0.9948  65.5  m  14?  78.20 101.5    5  56 116  51
   2024 03 17 08:40  19 46 43.27    +29 41 29.2   120173 0.9948  65.3  m  14?  77.73 101.7    7  57 116  51
   2024 03 17 08:50  19 47 41.43    +29 38 47.9   119337 0.9948  65.1  m  14?  77.27 101.9    8  58 116  51
   2024 03 17 09:00  19 48 39.16    +29 36 04.0   118492 0.9948  64.9  m  14?  76.80 102.2   10  60 116  51
   2024 03 17 09:10  19 49 36.45    +29 33 17.3   117637 0.9948  64.7  m  14?  76.33 102.5   11  61 116  51
   2024 03 17 09:20  19 50 33.28    +29 30 27.3   116771 0.9948  64.5  m  14?  75.87 102.9   13  62 116  51
   2024 03 17 09:30  19 51 29.66    +29 27 33.6   115896 0.9948  64.2  m  14?  75.41 103.3   14  63 116  51
   2024 03 17 09:40  19 52 25.59    +29 24 35.8   115012 0.9948  64.0     14?  74.97 103.7   16  65 116  51
   2024 03 17 09:50  19 53 21.05    +29 21 33.4   114119 0.9948  63.8     14?  74.53 104.2   17  66 116  51
   2024 03 17 10:00  19 54 16.05    +29 18 26.1   113216 0.9948  63.6     14?  74.11 104.7   19  67 116  52
   2024 03 17 10:10  19 55 10.59    +29 15 13.4   112304 0.9948  63.4     14?  73.71 105.2   21  68 116  52
   2024 03 17 10:20  19 56 04.66    +29 11 54.8   111384 0.9948  63.2     14?  73.34 105.8   22  69 116  52
   2024 03 17 10:30  19 56 58.29    +29 08 29.8   110455 0.9948  63.0     14?  72.99 106.4   24  71 116  52
   2024 03 17 10:40  19 57 51.46    +29 04 58.0   109518 0.9948  62.8     14?  72.68 107.1   26  72 116  52
   2024 03 17 10:50  19 58 44.20    +29 01 18.8   108572 0.9948  62.6     14?  72.41 107.8   27  73 116  52
   2024 03 17 11:00  19 59 36.50    +28 57 31.6   107618 0.9948  62.4     14?  72.17 108.5   29  74 116  52
   2024 03 17 11:10  20 00 28.38    +28 53 36.0   106656 0.9948  62.2     14?  71.99 109.3   31  75 116  52
   2024 03 17 11:20  20 01 19.86    +28 49 31.4   105687 0.9948  62.1     14?  71.86 110.1   33  77 116  52
   2024 03 17 11:30  20 02 10.95    +28 45 17.1   104709 0.9948  61.9     14?  71.79 111.0   34  78 116  52
   2024 03 17 11:40  20 03 01.67    +28 40 52.5   103724 0.9948  61.7     14?  71.78 111.9   36  79 116  52
   2024 03 17 11:50  20 03 52.04    +28 36 17.1   102732 0.9948  61.5     14?  71.84 112.8   38  80 116  53
   2024 03 17 12:00  20 04 42.09    +28 31 30.1   101732 0.9948  61.3     14?  71.99 113.8   40  82 116  53
   2024 03 17 12:10  20 05 31.84    +28 26 31.0   100724 0.9948  61.1     14?  72.21 114.8   41  83 116  53
   2024 03 17 12:20  20 06 21.33    +28 21 19.0    99710 0.9948  60.9 A   14?  72.53 115.9   43  84 116  53
   2024 03 17 12:30  20 07 10.57    +28 15 53.3    98688 0.9948  60.7 A   14?  72.95 117.0   45  86 116  53
   2024 03 17 12:40  20 07 59.62    +28 10 13.3    97659 0.9948  60.5 A   14?  73.47 118.0   47  87 116  53
   2024 03 17 12:50  20 08 48.50    +28 04 18.2    96624 0.9948  60.3 N   14?  74.10 119.1   49  88 116  53
   2024 03 17 13:00  20 09 37.26    +27 58 07.1    95581 0.9949  60.1 N   14?  74.86 120.3   50  90 116  53
   2024 03 17 13:10  20 10 25.94    +27 51 39.3    94531 0.9949  59.9 N   14?  75.74 121.4   52  92 117  53
   2024 03 17 13:20  20 11 14.60    +27 44 53.8    93474 0.9949  59.7 C   14?  76.75 122.5   54  93 117  53
   2024 03 17 13:30  20 12 03.28    +27 37 49.8    92409 0.9949  59.5 C   14?  77.91 123.6   56  95 117  54
   ................
   

James Webb Space Telescope (JPL-ID: -170)

   Date (UTC) HH:MM   RA              Dec         delta   r     elong SM  mag  '/hr    PA   alt  az moo ill
   ---- -- -- -----  -------------   -----------  ------ ------ ----- --  --- ------ ------ --- --- --- ---
   2024 03 04 01:40  09 38 18.47    +21 12 43.6   0.0089 0.9997 155.3 C   15?   3.56  71.3   27  83 119  45
   2024 03 04 01:50  09 38 20.83    +21 12 55.0   0.0089 0.9997 155.3 C   15?   3.42  70.9   29  84 119  45
   2024 03 04 02:00  09 38 23.09    +21 13 06.1   0.0089 0.9997 155.3 N   15?   3.28  70.4   31  86 119  45
   2024 03 04 02:10  09 38 25.26    +21 13 17.1   0.0089 0.9997 155.3 N   15?   3.15  70.0   33  87 119  45
   2024 03 04 02:20  09 38 27.32    +21 13 27.8   0.0089 0.9997 155.3 N   15?   3.02  69.6   35  89 119  45
   2024 03 04 02:30  09 38 29.30    +21 13 38.2   0.0089 0.9997 155.3 A   15?   2.89  69.2   37  90 119  45
   2024 03 04 02:40  09 38 31.18    +21 13 48.4   0.0089 0.9997 155.3 A   15?   2.76  68.8   39  92 119  45
   2024 03 04 02:50  09 38 32.98    +21 13 58.2   0.0089 0.9997 155.3 A   15?   2.63  68.5   41  93 120  44
   2024 03 04 03:00  09 38 34.69    +21 14 07.8   0.0089 0.9997 155.3     15?   2.51  68.2   42  95 120  44
   2024 03 04 03:10  09 38 36.31    +21 14 16.9   0.0089 0.9997 155.3     15?   2.39  67.9   44  97 120  44
   2024 03 04 03:20  09 38 37.86    +21 14 25.8   0.0088 0.9997 155.3     15?   2.28  67.8   46  99 120  44
   2024 03 04 03:30  09 38 39.32    +21 14 34.2   0.0088 0.9997 155.3     15?   2.16  67.6   48 101 120  44
   2024 03 04 03:40  09 38 40.72    +21 14 42.3   0.0088 0.9997 155.3     15?   2.05  67.6   50 103 120  44
   2024 03 04 03:50  09 38 42.04    +21 14 50.0   0.0088 0.9997 155.3     15?   1.95  67.6   52 105 120  44
   2024 03 04 04:00  09 38 43.30    +21 14 57.2   0.0088 0.9997 155.3     15?   1.85  67.8   54 107 120  44
   2024 03 04 04:10  09 38 44.49    +21 15 04.0   0.0088 0.9997 155.3     15?   1.75  68.1   56 110 120  44
   2024 03 04 04:20  09 38 45.62    +21 15 10.3   0.0088 0.9997 155.3     15?   1.66  68.5   58 112 121  44
   2024 03 04 04:30  09 38 46.70    +21 15 16.2   0.0088 0.9997 155.3     15?   1.57  69.1   60 115 121  44
   2024 03 04 04:40  09 38 47.73    +21 15 21.6   0.0088 0.9997 155.3     15?   1.49  69.9   61 118 121  43
   2024 03 04 04:50  09 38 48.71    +21 15 26.5   0.0088 0.9997 155.3     15?   1.42  70.9   63 122 121  43
   2024 03 04 05:00  09 38 49.64    +21 15 30.9   0.0088 0.9997 155.3     15?   1.35  72.1   65 126 121  43
   2024 03 04 05:10  09 38 50.54    +21 15 34.8   0.0088 0.9997 155.3     15?   1.28  73.6   66 130 121  43
   2024 03 04 05:20  09 38 51.40    +21 15 38.2   0.0088 0.9997 155.3     15?   1.22  75.3   68 135 121  43
   2024 03 04 05:30  09 38 52.23    +21 15 41.0   0.0088 0.9997 155.3     15?   1.17  77.3   69 140 121  43
   2024 03 04 05:40  09 38 53.04    +21 15 43.4   0.0088 0.9997 155.3     15?   1.13  79.6   70 146 121  43
   2024 03 04 05:50  09 38 53.83    +21 15 45.2   0.0088 0.9997 155.3     15?   1.10  82.1   71 152 122  43
   2024 03 04 06:00  09 38 54.60    +21 15 46.4   0.0088 0.9997 155.3     15?   1.07  84.8   72 160 122  43
   2024 03 04 06:10  09 38 55.35    +21 15 47.1   0.0088 0.9997 155.3     15?   1.06  87.7   73 167 122  43
   2024 03 04 06:20  09 38 56.11    +21 15 47.3   0.0088 0.9997 155.3     15?   1.05  90.7   73 175 122  43
   2024 03 04 06:30  09 38 56.86    +21 15 46.9   0.0088 0.9997 155.2  t  15?   1.05  93.7   73 184 122  42
   2024 03 04 06:40  09 38 57.61    +21 15 46.0   0.0088 0.9997 155.2     15?   1.06  96.6   73 192 122  42
   2024 03 04 06:50  09 38 58.37    +21 15 44.5   0.0088 0.9997 155.2     15?   1.08  99.4   72 199 122  42
   2024 03 04 07:00  09 38 59.14    +21 15 42.5   0.0088 0.9997 155.2     15?   1.11 101.9   71 206 122  42
   2024 03 04 07:10  09 38 59.93    +21 15 39.9   0.0088 0.9997 155.2     15?   1.15 104.3   70 213 122  42
   2024 03 04 07:20  09 39 00.74    +21 15 36.8   0.0088 0.9997 155.2     15?   1.20 106.4   69 219 122  42
   2024 03 04 07:30  09 39 01.57    +21 15 33.2   0.0088 0.9997 155.2     15?   1.25 108.2   68 224 123  42
   2024 03 04 07:40  09 39 02.44    +21 15 29.0   0.0088 0.9997 155.2     15?   1.31 109.7   66 229 123  42
   2024 03 04 07:50  09 39 03.34    +21 15 24.4   0.0088 0.9997 155.2     15?   1.38 111.0   65 233 123  42
   2024 03 04 08:00  09 39 04.28    +21 15 19.2   0.0088 0.9997 155.2     15?   1.45 112.0   63 237 123  42
   2024 03 04 08:10  09 39 05.26    +21 15 13.5   0.0088 0.9997 155.2     15?   1.53 112.9   61 241 123  42
   2024 03 04 08:20  09 39 06.29    +21 15 07.4   0.0088 0.9997 155.2     15?   1.61 113.5   60 244 123  42
   2024 03 04 08:30  09 39 07.37    +21 15 00.7   0.0088 0.9997 155.2     15?   1.70 113.9   58 247 123  41
   2024 03 04 08:40  09 39 08.51    +21 14 53.6   0.0088 0.9997 155.2     15?   1.79 114.2   56 249 123  41
   2024 03 04 08:50  09 39 09.71    +21 14 46.1   0.0088 0.9997 155.2     15?   1.89 114.4   54 252 123  41
   2024 03 04 09:00  09 39 10.98    +21 14 38.1   0.0088 0.9997 155.2     15?   1.99 114.4   52 254 123  41
   2024 03 04 09:10  09 39 12.31    +21 14 29.6   0.0088 0.9997 155.2     15?   2.10 114.4   50 256 123  41
   2024 03 04 09:20  09 39 13.71    +21 14 20.8   0.0088 0.9997 155.2     15?   2.21 114.2   48 258 124  41
   2024 03 04 09:30  09 39 15.19    +21 14 11.6   0.0088 0.9997 155.2     15?   2.32 114.0   46 260 124  41
   2024 03 04 09:40  09 39 16.74    +21 14 02.0   0.0088 0.9998 155.2     15?   2.43 113.7   44 262 124  41
   2024 03 04 09:50  09 39 18.38    +21 13 52.0   0.0088 0.9998 155.2  m  15?   2.55 113.4   42 264 124  41
   2024 03 04 10:00  09 39 20.10    +21 13 41.7   0.0088 0.9998 155.2  m  15?   2.68 113.0   41 266 124  41
   2024 03 04 10:10  09 39 21.90    +21 13 31.1   0.0088 0.9998 155.2  m  15?   2.80 112.6   39 267 124  41
   2024 03 04 10:20  09 39 23.80    +21 13 20.2   0.0088 0.9998 155.2  m  15?   2.93 112.2   37 269 124  41
   2024 03 04 10:30  09 39 25.79    +21 13 09.0   0.0088 0.9998 155.2  m  15?   3.06 111.7   35 270 124  41
   2024 03 04 10:40  09 39 27.87    +21 12 57.5   0.0088 0.9998 155.2  m  15?   3.20 111.3   33 272 124  41
   2024 03 04 10:50  09 39 30.05    +21 12 45.8   0.0088 0.9998 155.2  m  15?   3.33 110.8   31 273 124  41
   2024 03 04 11:00  09 39 32.33    +21 12 33.9   0.0088 0.9998 155.2  m  15?   3.47 110.3   29 275 124  41
   2024 03 04 11:10  09 39 34.70    +21 12 21.8   0.0088 0.9998 155.2  m  15?   3.61 109.8   27 276 124  40
   2024 03 04 11:20  09 39 37.18    +21 12 09.5   0.0088 0.9998 155.2  m  15?   3.75 109.3   25 277 124  40
   2024 03 04 11:30  09 39 39.77    +21 11 57.1   0.0088 0.9998 155.2  m  15?   3.89 108.8   23 279 124  40
   2024 03 04 11:40  09 39 42.45    +21 11 44.5   0.0088 0.9998 155.2  m  15?   4.03 108.3   21 280 124  40
   2024 03 04 11:50  09 39 45.24    +21 11 31.9   0.0088 0.9998 155.2  m  15?   4.18 107.8   19 282 125  40
   2024 03 04 12:00  09 39 48.14    +21 11 19.1   0.0088 0.9998 155.2  m  15?   4.32 107.2   17 283 125  40
   2024 03 04 12:10  09 39 51.15    +21 11 06.3   0.0088 0.9998 155.2  m  15?   4.46 106.7   15 284 125  40
   2024 03 04 12:20  09 39 54.26    +21 10 53.5   0.0088 0.9998 155.2  m  15?   4.61 106.2   13 286 125  40
   2024 03 04 12:30  09 39 57.48    +21 10 40.6   0.0088 0.9998 155.2  m  15?   4.75 105.7   11 287 125  40
   2024 03 04 12:40  09 40 00.80    +21 10 27.8   0.0088 0.9998 155.3 Am  15?   4.90 105.2    9 289 125  40
   2024 03 04 12:50  09 40 04.23    +21 10 14.9   0.0088 0.9998 155.3 Am  15?   5.04 104.7    8 290 125  40
   2024 03 04 13:00  09 40 07.77    +21 10 02.2   0.0088 0.9998 155.3 Am  15?   5.18 104.2    6 291 125  40
   2024 03 04 13:10  09 40 11.41    +21 09 49.5   0.0088 0.9998 155.3 Nm  15?   5.32 103.8    4 293 125  40
   2024 03 04 13:20  09 40 15.16    +21 09 37.0   0.0088 0.9998 155.3 Nm  15?   5.46 103.3    2 294 125  40
   2024 03 04 13:30  09 40 19.02    +21 09 24.5   0.0089 0.9998 155.3 Nm  15?   5.60 102.8    0 296 125  40
   ................
   2024 03 05 01:40  09 46 03.41    +21 11 16.1   0.0088 0.9999 155.9 C   15?   3.67  72.9   26  82 130  35
   2024 03 05 01:50  09 46 05.87    +21 11 26.8   0.0088 0.9999 155.9 C   15?   3.53  72.5   28  84 130  35
   2024 03 05 02:00  09 46 08.22    +21 11 37.4   0.0088 0.9999 155.9 N   15?   3.39  72.1   30  85 130  35
   2024 03 05 02:10  09 46 10.48    +21 11 47.7   0.0088 0.9999 155.9 N   15?   3.25  71.8   32  87 130  35
   2024 03 05 02:20  09 46 12.64    +21 11 57.8   0.0088 0.9999 155.9 N   15?   3.12  71.4   34  88 131  34
   2024 03 05 02:30  09 46 14.70    +21 12 07.6   0.0088 0.9999 155.9 A   15?   2.98  71.1   36  90 131  34
   2024 03 05 02:40  09 46 16.67    +21 12 17.2   0.0088 0.9999 155.9 A   15?   2.85  70.8   38  91 131  34
   2024 03 05 02:50  09 46 18.55    +21 12 26.5   0.0088 0.9999 155.9 A   15?   2.73  70.5   40  93 131  34
   2024 03 05 03:00  09 46 20.35    +21 12 35.4   0.0088 0.9999 155.9     15?   2.60  70.3   42  95 131  34
   2024 03 05 03:10  09 46 22.05    +21 12 44.0   0.0088 0.9999 155.9     15?   2.48  70.2   44  96 131  34
   2024 03 05 03:20  09 46 23.68    +21 12 52.3   0.0088 0.9999 155.9     15?   2.36  70.1   46  98 131  34
   2024 03 05 03:30  09 46 25.23    +21 13 00.2   0.0088 0.9999 155.9     15?   2.25  70.0   48 100 131  34
   2024 03 05 03:40  09 46 26.70    +21 13 07.7   0.0088 0.9999 155.9     15?   2.13  70.1   50 102 132  34
   2024 03 05 03:50  09 46 28.10    +21 13 14.8   0.0088 0.9999 155.9     15?   2.03  70.2   51 104 132  34
   2024 03 05 04:00  09 46 29.43    +21 13 21.5   0.0088 0.9999 155.9     15?   1.92  70.5   53 106 132  33
   2024 03 05 04:10  09 46 30.69    +21 13 27.7   0.0088 0.9999 155.8     15?   1.83  70.9   55 109 132  33
   2024 03 05 04:20  09 46 31.89    +21 13 33.5   0.0088 0.9999 155.8     15?   1.73  71.4   57 111 132  33
   2024 03 05 04:30  09 46 33.04    +21 13 38.8   0.0088 0.9999 155.8     15?   1.64  72.1   59 114 132  33
   2024 03 05 04:40  09 46 34.13    +21 13 43.6   0.0088 0.9999 155.8     15?   1.56  72.9   61 117 132  33
   2024 03 05 04:50  09 46 35.17    +21 13 48.0   0.0088 0.9999 155.8     15?   1.48  74.0   62 120 132  33
   2024 03 05 05:00  09 46 36.17    +21 13 51.8   0.0088 0.9999 155.8     15?   1.41  75.3   64 124 132  33
   2024 03 05 05:10  09 46 37.13    +21 13 55.2   0.0088 0.9999 155.8     15?   1.35  76.8   66 128 133  33
   2024 03 05 05:20  09 46 38.05    +21 13 58.0   0.0088 0.9999 155.8     15?   1.29  78.6   67 133 133  33
   2024 03 05 05:30  09 46 38.94    +21 14 00.3   0.0088 0.9999 155.8     15?   1.24  80.6   69 138 133  33
   2024 03 05 05:40  09 46 39.80    +21 14 02.1   0.0088 0.9999 155.8     15?   1.20  82.9   70 144 133  33
   2024 03 05 05:50  09 46 40.64    +21 14 03.3   0.0088 0.9999 155.8     15?   1.16  85.3   71 150 133  32
   2024 03 05 06:00  09 46 41.46    +21 14 04.0   0.0088 0.9999 155.8     15?   1.14  88.0   72 157 133  32
   2024 03 05 06:10  09 46 42.27    +21 14 04.2   0.0088 0.9999 155.8     15?   1.12  90.7   72 164 133  32
   2024 03 05 06:20  09 46 43.06    +21 14 03.8   0.0088 0.9999 155.8     15?   1.11  93.6   73 172 133  32
   2024 03 05 06:30  09 46 43.86    +21 14 02.8   0.0088 1.0000 155.8  t  15?   1.12  96.4   73 180 134  32
   2024 03 05 06:40  09 46 44.65    +21 14 01.3   0.0088 1.0000 155.8     15?   1.13  99.1   73 189 134  32
   2024 03 05 06:50  09 46 45.45    +21 13 59.3   0.0088 1.0000 155.8     15?   1.15 101.7   72 196 134  32
   2024 03 05 07:00  09 46 46.26    +21 13 56.7   0.0088 1.0000 155.8     15?   1.18 104.1   72 204 134  32
   2024 03 05 07:10  09 46 47.09    +21 13 53.5   0.0088 1.0000 155.8     15?   1.22 106.3   71 211 134  32
   2024 03 05 07:20  09 46 47.94    +21 13 49.8   0.0088 1.0000 155.8     15?   1.26 108.3   70 217 134  32
   2024 03 05 07:30  09 46 48.81    +21 13 45.6   0.0088 1.0000 155.8     15?   1.31 110.0   68 222 134  32
   2024 03 05 07:40  09 46 49.70    +21 13 40.9   0.0088 1.0000 155.8     15?   1.37 111.4   67 227 134  31
   2024 03 05 07:50  09 46 50.64    +21 13 35.6   0.0088 1.0000 155.8     15?   1.44 112.6   65 232 134  31
   2024 03 05 08:00  09 46 51.61    +21 13 29.8   0.0088 1.0000 155.8     15?   1.51 113.6   64 236 134  31
   2024 03 05 08:10  09 46 52.62    +21 13 23.5   0.0088 1.0000 155.8     15?   1.59 114.4   62 239 135  31
   2024 03 05 08:20  09 46 53.68    +21 13 16.7   0.0088 1.0000 155.8     15?   1.67 114.9   60 243 135  31
   2024 03 05 08:30  09 46 54.79    +21 13 09.4   0.0088 1.0000 155.8     15?   1.76 115.4   59 246 135  31
   2024 03 05 08:40  09 46 55.95    +21 13 01.7   0.0088 1.0000 155.7     15?   1.85 115.6   57 248 135  31
   2024 03 05 08:50  09 46 57.17    +21 12 53.5   0.0088 1.0000 155.7     15?   1.95 115.7   55 251 135  31
   2024 03 05 09:00  09 46 58.46    +21 12 44.8   0.0088 1.0000 155.7     15?   2.05 115.7   53 253 135  31
   2024 03 05 09:10  09 46 59.81    +21 12 35.7   0.0088 1.0000 155.7     15?   2.15 115.6   51 255 135  31
   2024 03 05 09:20  09 47 01.24    +21 12 26.2   0.0088 1.0000 155.7     15?   2.26 115.5   49 258 135  31
   2024 03 05 09:30  09 47 02.73    +21 12 16.3   0.0088 1.0000 155.7     15?   2.37 115.2   47 260 135  31
   2024 03 05 09:40  09 47 04.31    +21 12 06.0   0.0088 1.0000 155.7     15?   2.49 114.9   45 261 135  31
   2024 03 05 09:50  09 47 05.96    +21 11 55.3   0.0088 1.0000 155.7     15?   2.61 114.6   43 263 136  31
   2024 03 05 10:00  09 47 07.70    +21 11 44.3   0.0088 1.0000 155.7     15?   2.73 114.2   41 265 136  30
   2024 03 05 10:10  09 47 09.53    +21 11 33.0   0.0088 1.0000 155.7     15?   2.86 113.8   39 266 136  30
   2024 03 05 10:20  09 47 11.44    +21 11 21.3   0.0088 1.0000 155.7     15?   2.98 113.3   37 268 136  30
   2024 03 05 10:30  09 47 13.45    +21 11 09.4   0.0088 1.0000 155.7     15?   3.11 112.9   35 270 136  30
   2024 03 05 10:40  09 47 15.55    +21 10 57.2   0.0088 1.0000 155.8     15?   3.25 112.4   33 271 136  30
   2024 03 05 10:50  09 47 17.75    +21 10 44.7   0.0088 1.0000 155.8  m  15?   3.38 111.9   31 273 136  30
   2024 03 05 11:00  09 47 20.04    +21 10 32.0   0.0088 1.0000 155.8  m  15?   3.52 111.3   29 274 136  30
   2024 03 05 11:10  09 47 22.44    +21 10 19.1   0.0088 1.0000 155.8  m  15?   3.66 110.8   27 275 136  30
   2024 03 05 11:20  09 47 24.93    +21 10 06.0   0.0088 1.0000 155.8  m  15?   3.80 110.3   25 277 136  30
   2024 03 05 11:30  09 47 27.53    +21 09 52.8   0.0088 1.0000 155.8  m  15?   3.94 109.8   24 278 136  30
   2024 03 05 11:40  09 47 30.24    +21 09 39.4   0.0088 1.0000 155.8  m  15?   4.08 109.2   22 280 136  30
   2024 03 05 11:50  09 47 33.05    +21 09 25.9   0.0088 1.0000 155.8  m  15?   4.23 108.7   20 281 136  30
   2024 03 05 12:00  09 47 35.97    +21 09 12.3   0.0088 1.0000 155.8  m  15?   4.37 108.2   18 282 136  30
   2024 03 05 12:10  09 47 38.99    +21 08 58.7   0.0088 1.0000 155.8  m  15?   4.52 107.7   16 284 137  30
   2024 03 05 12:20  09 47 42.12    +21 08 45.0   0.0088 1.0000 155.8  m  15?   4.66 107.1   14 285 137  30
   2024 03 05 12:30  09 47 45.36    +21 08 31.3   0.0088 1.0000 155.8  m  15?   4.81 106.6   12 287 137  30
   2024 03 05 12:40  09 47 48.71    +21 08 17.5   0.0088 1.0000 155.8 Am  15?   4.95 106.1   10 288 137  30
   2024 03 05 12:50  09 47 52.16    +21 08 03.9   0.0088 1.0000 155.8 Am  15?   5.10 105.6    8 289 137  30
   2024 03 05 13:00  09 47 55.72    +21 07 50.2   0.0088 1.0000 155.8 Am  15?   5.24 105.1    6 291 137  29
   2024 03 05 13:10  09 47 59.39    +21 07 36.6   0.0088 1.0000 155.8 Nm  15?   5.38 104.6    5 292 137  29
   2024 03 05 13:20  09 48 03.17    +21 07 23.2   0.0088 1.0000 155.8 Nm  15?   5.52 104.1    3 294 137  29
   2024 03 05 13:30  09 48 07.05    +21 07 09.8   0.0088 1.0000 155.8 Nm  15?   5.66 103.6    1 295 137  29
   2024 03 05 13:40  09 48 11.03    +21 06 56.6   0.0088 1.0000 155.8 Cm  15?   5.80 103.1    0 297 137  29
   ................
   2024 03 06 01:40  09 53 57.32    +21 07 54.0   0.0087 1.0001 156.4 C   15?   3.78  74.6   25  82 142  25
   2024 03 06 01:50  09 53 59.87    +21 08 04.1   0.0087 1.0001 156.4 C   15?   3.64  74.2   27  83 142  25
   2024 03 06 02:00  09 54 02.32    +21 08 13.9   0.0087 1.0001 156.4 N   15?   3.50  73.9   29  85 142  25
   2024 03 06 02:10  09 54 04.67    +21 08 23.6   0.0087 1.0001 156.4 N   15?   3.36  73.6   31  86 142  25
   2024 03 06 02:20  09 54 06.92    +21 08 33.0   0.0087 1.0001 156.4 N   15?   3.22  73.3   33  88 142  24
   2024 03 06 02:30  09 54 09.08    +21 08 42.2   0.0087 1.0001 156.4 A   15?   3.08  73.0   35  89 142  24
   2024 03 06 02:40  09 54 11.14    +21 08 51.1   0.0087 1.0001 156.4 A   15?   2.95  72.8   37  91 143  24
   2024 03 06 02:50  09 54 13.11    +21 08 59.7   0.0087 1.0001 156.4 A   15?   2.82  72.6   39  92 143  24
   2024 03 06 03:00  09 54 14.99    +21 09 08.0   0.0087 1.0001 156.4 A   15?   2.69  72.5   41  94 143  24
   2024 03 06 03:10  09 54 16.78    +21 09 15.9   0.0087 1.0002 156.4     15?   2.57  72.4   43  96 143  24
   2024 03 06 03:20  09 54 18.49    +21 09 23.6   0.0087 1.0002 156.4     15?   2.45  72.4   45  97 143  24
   2024 03 06 03:30  09 54 20.12    +21 09 30.8   0.0087 1.0002 156.4     15?   2.33  72.4   47  99 143  24
   2024 03 06 03:40  09 54 21.67    +21 09 37.7   0.0087 1.0002 156.4     15?   2.22  72.6   49 101 143  24
   2024 03 06 03:50  09 54 23.14    +21 09 44.2   0.0087 1.0002 156.4     15?   2.11  72.8   51 103 143  24
   2024 03 06 04:00  09 54 24.55    +21 09 50.2   0.0087 1.0002 156.4     15?   2.00  73.2   53 105 144  23
   2024 03 06 04:10  09 54 25.88    +21 09 55.8   0.0087 1.0002 156.4     15?   1.90  73.6   54 108 144  23
   2024 03 06 04:20  09 54 27.16    +21 10 01.0   0.0087 1.0002 156.4     15?   1.81  74.2   56 110 144  23
   2024 03 06 04:30  09 54 28.37    +21 10 05.7   0.0087 1.0002 156.4     15?   1.72  75.0   58 113 144  23
   2024 03 06 04:40  09 54 29.53    +21 10 09.9   0.0087 1.0002 156.4     15?   1.63  75.9   60 116 144  23
   2024 03 06 04:50  09 54 30.64    +21 10 13.7   0.0087 1.0002 156.4     15?   1.56  77.1   62 119 144  23
   2024 03 06 05:00  09 54 31.70    +21 10 16.9   0.0087 1.0002 156.4     15?   1.48  78.4   63 123 144  23
   2024 03 06 05:10  09 54 32.72    +21 10 19.7   0.0087 1.0002 156.4     15?   1.42  80.0   65 127 144  23
   2024 03 06 05:20  09 54 33.70    +21 10 21.9   0.0087 1.0002 156.4     15?   1.36  81.8   67 131 145  23
   2024 03 06 05:30  09 54 34.65    +21 10 23.6   0.0087 1.0002 156.4     15?   1.31  83.8   68 136 145  23
   2024 03 06 05:40  09 54 35.56    +21 10 24.7   0.0087 1.0002 156.4     15?   1.27  86.0   69 141 145  23
   2024 03 06 05:50  09 54 36.45    +21 10 25.4   0.0087 1.0002 156.4     15?   1.23  88.4   70 147 145  23
   2024 03 06 06:00  09 54 37.32    +21 10 25.4   0.0087 1.0002 156.4     15?   1.21  91.0   71 154 145  22
   2024 03 06 06:10  09 54 38.18    +21 10 25.0   0.0087 1.0002 156.4     15?   1.19  93.6   72 161 145  22
   2024 03 06 06:20  09 54 39.03    +21 10 24.0   0.0087 1.0002 156.4     15?   1.18  96.3   73 169 145  22
   2024 03 06 06:30  09 54 39.87    +21 10 22.4   0.0087 1.0002 156.3     15?   1.19  99.0   73 177 145  22
   2024 03 06 06:40  09 54 40.70    +21 10 20.3   0.0087 1.0002 156.3  t  15?   1.20 101.6   73 185 146  22
   2024 03 06 06:50  09 54 41.55    +21 10 17.6   0.0087 1.0002 156.3     15?   1.22 104.0   72 193 146  22
   2024 03 06 07:00  09 54 42.40    +21 10 14.4   0.0087 1.0002 156.3     15?   1.25 106.3   72 201 146  22
   2024 03 06 07:10  09 54 43.26    +21 10 10.6   0.0087 1.0002 156.3     15?   1.28 108.4   71 208 146  22
   2024 03 06 07:20  09 54 44.14    +21 10 06.3   0.0087 1.0002 156.3     15?   1.33 110.2   70 214 146  22
   2024 03 06 07:30  09 54 45.04    +21 10 01.4   0.0087 1.0002 156.3     15?   1.38 111.8   69 220 146  22
   2024 03 06 07:40  09 54 45.98    +21 09 56.0   0.0087 1.0002 156.3     15?   1.44 113.2   67 225 146  22
   2024 03 06 07:50  09 54 46.94    +21 09 50.1   0.0087 1.0002 156.3     15?   1.50 114.3   66 230 146  22
   2024 03 06 08:00  09 54 47.94    +21 09 43.7   0.0087 1.0002 156.3     15?   1.58 115.2   64 234 146  21
   2024 03 06 08:10  09 54 48.98    +21 09 36.7   0.0087 1.0002 156.3     15?   1.65 115.9   63 238 147  21
   2024 03 06 08:20  09 54 50.06    +21 09 29.2   0.0087 1.0002 156.3     15?   1.73 116.4   61 241 147  21
   2024 03 06 08:30  09 54 51.20    +21 09 21.3   0.0087 1.0002 156.3     15?   1.82 116.8   59 244 147  21
   2024 03 06 08:40  09 54 52.39    +21 09 12.8   0.0087 1.0002 156.3     15?   1.91 117.0   57 247 147  21
   2024 03 06 08:50  09 54 53.63    +21 09 03.9   0.0087 1.0002 156.3     15?   2.01 117.1   56 250 147  21
   2024 03 06 09:00  09 54 54.94    +21 08 54.6   0.0087 1.0002 156.3     15?   2.11 117.1   54 252 147  21
   2024 03 06 09:10  09 54 56.32    +21 08 44.8   0.0087 1.0002 156.3     15?   2.21 117.0   52 255 147  21
   2024 03 06 09:20  09 54 57.76    +21 08 34.6   0.0087 1.0002 156.3     15?   2.32 116.8   50 257 147  21
   2024 03 06 09:30  09 54 59.28    +21 08 23.9   0.0087 1.0002 156.3     15?   2.43 116.5   48 259 147  21
   2024 03 06 09:40  09 55 00.87    +21 08 12.9   0.0087 1.0002 156.3     15?   2.54 116.2   46 261 147  21
   2024 03 06 09:50  09 55 02.54    +21 08 01.5   0.0087 1.0002 156.3     15?   2.66 115.8   44 262 148  21
   2024 03 06 10:00  09 55 04.30    +21 07 49.7   0.0087 1.0002 156.3     15?   2.78 115.4   42 264 148  21
   2024 03 06 10:10  09 55 06.14    +21 07 37.6   0.0087 1.0002 156.3     15?   2.91 115.0   40 266 148  21
   2024 03 06 10:20  09 55 08.07    +21 07 25.2   0.0087 1.0002 156.3     15?   3.04 114.5   38 267 148  20
   2024 03 06 10:30  09 55 10.09    +21 07 12.5   0.0087 1.0002 156.3     15?   3.17 114.0   36 269 148  20
   2024 03 06 10:40  09 55 12.21    +21 06 59.5   0.0087 1.0002 156.3     15?   3.30 113.5   34 270 148  20
   2024 03 06 10:50  09 55 14.42    +21 06 46.2   0.0087 1.0002 156.3     15?   3.43 113.0   32 272 148  20
   2024 03 06 11:00  09 55 16.73    +21 06 32.7   0.0087 1.0002 156.3     15?   3.57 112.4   30 273 148  20
   2024 03 06 11:10  09 55 19.14    +21 06 19.0   0.0087 1.0002 156.3     15?   3.71 111.9   28 275 148  20
   2024 03 06 11:20  09 55 21.65    +21 06 05.1   0.0087 1.0002 156.3     15?   3.85 111.3   26 276 148  20
   2024 03 06 11:30  09 55 24.27    +21 05 51.0   0.0087 1.0002 156.3     15?   3.99 110.8   24 278 148  20
   2024 03 06 11:40  09 55 26.99    +21 05 36.8   0.0087 1.0002 156.3     15?   4.14 110.2   22 279 148  20
   2024 03 06 11:50  09 55 29.81    +21 05 22.5   0.0087 1.0002 156.3  m  15?   4.28 109.7   20 280 149  20
   2024 03 06 12:00  09 55 32.74    +21 05 08.0   0.0087 1.0002 156.3  m  15?   4.42 109.2   18 282 149  20
   2024 03 06 12:10  09 55 35.78    +21 04 53.5   0.0087 1.0002 156.3  m  15?   4.57 108.6   17 283 149  20
   2024 03 06 12:20  09 55 38.93    +21 04 38.9   0.0087 1.0002 156.4  m  15?   4.71 108.1   15 285 149  20
   2024 03 06 12:30  09 55 42.19    +21 04 24.3   0.0087 1.0002 156.4  m  15?   4.86 107.5   13 286 149  20
   2024 03 06 12:40  09 55 45.56    +21 04 09.7   0.0087 1.0002 156.4 Am  15?   5.01 107.0   11 287 149  20
   2024 03 06 12:50  09 55 49.03    +21 03 55.1   0.0087 1.0002 156.4 Am  15?   5.15 106.5    9 289 149  20
   2024 03 06 13:00  09 55 52.61    +21 03 40.5   0.0087 1.0002 156.4 Am  15?   5.29 106.0    7 290 149  20
   2024 03 06 13:10  09 55 56.30    +21 03 26.0   0.0087 1.0002 156.4 Nm  15?   5.44 105.5    5 292 149  20
   2024 03 06 13:20  09 56 00.10    +21 03 11.6   0.0087 1.0003 156.4 Nm  15?   5.58 105.0    3 293 149  20
   2024 03 06 13:30  09 56 04.00    +21 02 57.3   0.0087 1.0003 156.4 Nm  15?   5.72 104.5    2 295 149  19
   2024 03 06 13:40  09 56 08.01    +21 02 43.1   0.0087 1.0003 156.4 Cm  15?   5.86 104.0    0 296 149  19
   ................
   2024 03 07 01:50  10 02 02.66    +21 02 38.2   0.0087 1.0004 157.0 C   15?   3.75  75.9   26  83 154  16
   2024 03 07 02:00  10 02 05.21    +21 02 47.3   0.0087 1.0004 157.0 C   15?   3.61  75.7   28  84 154  15
   2024 03 07 02:10  10 02 07.65    +21 02 56.2   0.0087 1.0004 157.0 N   15?   3.47  75.4   30  86 154  15
   2024 03 07 02:20  10 02 10.00    +21 03 04.8   0.0087 1.0004 157.0 N   15?   3.33  75.2   32  87 154  15
   2024 03 07 02:30  10 02 12.25    +21 03 13.3   0.0087 1.0004 157.0 N   15?   3.19  75.0   34  89 155  15
   2024 03 07 02:40  10 02 14.40    +21 03 21.4   0.0087 1.0004 157.0 A   15?   3.05  74.8   36  90 155  15
   2024 03 07 02:50  10 02 16.46    +21 03 29.3   0.0087 1.0004 157.0 A   15?   2.92  74.7   38  92 155  15
   2024 03 07 03:00  10 02 18.42    +21 03 36.9   0.0087 1.0004 157.0 A   15?   2.79  74.7   40  93 155  15
   2024 03 07 03:10  10 02 20.30    +21 03 44.1   0.0087 1.0004 157.0     15?   2.66  74.7   42  95 155  15
   2024 03 07 03:20  10 02 22.09    +21 03 51.0   0.0087 1.0004 157.0     15?   2.54  74.7   44  97 155  15
   2024 03 07 03:30  10 02 23.80    +21 03 57.6   0.0087 1.0004 157.0     15?   2.42  74.8   46  99 155  15
   2024 03 07 03:40  10 02 25.44    +21 04 03.7   0.0086 1.0004 157.0     15?   2.31  75.1   48 100 155  15
   2024 03 07 03:50  10 02 26.99    +21 04 09.5   0.0086 1.0004 157.0     15?   2.20  75.4   50 102 156  15
   2024 03 07 04:00  10 02 28.47    +21 04 14.9   0.0086 1.0004 157.0     15?   2.09  75.8   52 105 156  15
   2024 03 07 04:10  10 02 29.88    +21 04 19.8   0.0086 1.0004 157.0     15?   1.99  76.4   54 107 156  14
   2024 03 07 04:20  10 02 31.23    +21 04 24.3   0.0086 1.0004 157.0     15?   1.89  77.1   56 109 156  14
   2024 03 07 04:30  10 02 32.52    +21 04 28.3   0.0086 1.0004 157.0     15?   1.80  77.9   57 112 156  14
   2024 03 07 04:40  10 02 33.74    +21 04 31.9   0.0086 1.0004 157.0     15?   1.71  78.9   59 115 156  14
   2024 03 07 04:50  10 02 34.92    +21 04 34.9   0.0086 1.0004 157.0     15?   1.63  80.1   61 118 156  14
   2024 03 07 05:00  10 02 36.04    +21 04 37.5   0.0086 1.0004 157.0     15?   1.56  81.5   63 121 156  14
   2024 03 07 05:10  10 02 37.13    +21 04 39.6   0.0086 1.0004 156.9     15?   1.49  83.1   64 125 157  14
   2024 03 07 05:20  10 02 38.17    +21 04 41.1   0.0086 1.0004 156.9     15?   1.44  84.9   66 129 157  14
   2024 03 07 05:30  10 02 39.17    +21 04 42.1   0.0086 1.0004 156.9     15?   1.38  86.9   67 134 157  14
   2024 03 07 05:40  10 02 40.14    +21 04 42.6   0.0086 1.0004 156.9     15?   1.34  89.1   69 139 157  14
   2024 03 07 05:50  10 02 41.09    +21 04 42.6   0.0086 1.0004 156.9     15?   1.31  91.4   70 145 157  14
   2024 03 07 06:00  10 02 42.01    +21 04 42.0   0.0086 1.0004 156.9     15?   1.28  93.9   71 151 157  14
   2024 03 07 06:10  10 02 42.92    +21 04 40.9   0.0086 1.0004 156.9     15?   1.27  96.5   72 158 157  14
   2024 03 07 06:20  10 02 43.81    +21 04 39.2   0.0086 1.0004 156.9     15?   1.26  99.0   72 166 157  13
   2024 03 07 06:30  10 02 44.70    +21 04 37.0   0.0086 1.0004 156.9     15?   1.26 101.5   73 174 158  13
   2024 03 07 06:40  10 02 45.58    +21 04 34.2   0.0086 1.0004 156.9  t  15?   1.27 104.0   73 182 158  13
   2024 03 07 06:50  10 02 46.46    +21 04 30.8   0.0086 1.0004 156.9     15?   1.29 106.3   72 190 158  13
   2024 03 07 07:00  10 02 47.35    +21 04 26.9   0.0086 1.0004 156.9     15?   1.32 108.5   72 198 158  13
   2024 03 07 07:10  10 02 48.25    +21 04 22.5   0.0086 1.0004 156.9     15?   1.36 110.4   71 205 158  13
   2024 03 07 07:20  10 02 49.17    +21 04 17.5   0.0086 1.0004 156.9     15?   1.40 112.1   70 212 158  13
   2024 03 07 07:30  10 02 50.11    +21 04 11.9   0.0086 1.0004 156.9     15?   1.45 113.6   69 218 158  13
   2024 03 07 07:40  10 02 51.08    +21 04 05.8   0.0086 1.0004 156.9     15?   1.51 114.9   68 223 158  13
   2024 03 07 07:50  10 02 52.07    +21 03 59.2   0.0086 1.0004 156.9     15?   1.57 116.0   66 228 159  13
   2024 03 07 08:00  10 02 53.10    +21 03 52.1   0.0086 1.0004 156.9     15?   1.64 116.8   65 232 159  13
   2024 03 07 08:10  10 02 54.17    +21 03 44.4   0.0086 1.0004 156.9     15?   1.72 117.5   63 236 159  13
   2024 03 07 08:20  10 02 55.28    +21 03 36.2   0.0086 1.0004 156.9     15?   1.80 117.9   62 240 159  13
   2024 03 07 08:30  10 02 56.44    +21 03 27.6   0.0086 1.0004 156.9     15?   1.88 118.3   60 243 159  13
   2024 03 07 08:40  10 02 57.65    +21 03 18.4   0.0086 1.0004 156.9     15?   1.97 118.5   58 246 159  12
   2024 03 07 08:50  10 02 58.92    +21 03 08.8   0.0086 1.0004 156.9     15?   2.07 118.5   56 249 159  12
   2024 03 07 09:00  10 03 00.25    +21 02 58.7   0.0086 1.0004 156.9     15?   2.17 118.5   54 251 159  12
   2024 03 07 09:10  10 03 01.64    +21 02 48.1   0.0086 1.0004 156.9     15?   2.27 118.3   52 253 159  12
   2024 03 07 09:20  10 03 03.11    +21 02 37.1   0.0086 1.0004 156.9     15?   2.38 118.1   51 256 160  12
   2024 03 07 09:30  10 03 04.64    +21 02 25.8   0.0086 1.0005 156.9     15?   2.49 117.8   49 258 160  12
   2024 03 07 09:40  10 03 06.25    +21 02 14.0   0.0086 1.0005 156.9     15?   2.60 117.5   47 260 160  12
   2024 03 07 09:50  10 03 07.94    +21 02 01.8   0.0086 1.0005 156.9     15?   2.72 117.1   45 261 160  12
   2024 03 07 10:00  10 03 09.71    +21 01 49.2   0.0086 1.0005 156.9     15?   2.84 116.6   43 263 160  12
   2024 03 07 10:10  10 03 11.57    +21 01 36.3   0.0086 1.0005 156.9     15?   2.96 116.2   41 265 160  12
   2024 03 07 10:20  10 03 13.51    +21 01 23.1   0.0086 1.0005 156.9     15?   3.09 115.7   39 267 160  12
   2024 03 07 10:30  10 03 15.55    +21 01 09.6   0.0086 1.0005 156.9     15?   3.22 115.2   37 268 160  12
   2024 03 07 10:40  10 03 17.67    +21 00 55.8   0.0086 1.0005 156.9     15?   3.35 114.6   35 270 160  12
   2024 03 07 10:50  10 03 19.90    +21 00 41.7   0.0086 1.0005 156.9     15?   3.49 114.1   33 271 160  12
   2024 03 07 11:00  10 03 22.22    +21 00 27.3   0.0086 1.0005 156.9     15?   3.62 113.5   31 273 161  12
   2024 03 07 11:10  10 03 24.64    +21 00 12.8   0.0086 1.0005 156.9     15?   3.76 113.0   29 274 161  12
   2024 03 07 11:20  10 03 27.17    +20 59 58.0   0.0086 1.0005 156.9     15?   3.90 112.4   27 276 161  12
   2024 03 07 11:30  10 03 29.80    +20 59 43.1   0.0086 1.0005 156.9     15?   4.04 111.8   25 277 161  12
   2024 03 07 11:40  10 03 32.53    +20 59 27.9   0.0086 1.0005 156.9     15?   4.19 111.3   23 278 161  11
   2024 03 07 11:50  10 03 35.37    +20 59 12.7   0.0086 1.0005 156.9     15?   4.33 110.7   21 280 161  11
   2024 03 07 12:00  10 03 38.31    +20 58 57.4   0.0086 1.0005 156.9     15?   4.47 110.2   19 281 161  11
   2024 03 07 12:10  10 03 41.37    +20 58 41.9   0.0086 1.0005 156.9     15?   4.62 109.6   17 283 161  11
   2024 03 07 12:20  10 03 44.53    +20 58 26.4   0.0086 1.0005 156.9     15?   4.77 109.0   15 284 161  11
   2024 03 07 12:30  10 03 47.80    +20 58 10.9   0.0086 1.0005 156.9 Am  15?   4.91 108.5   13 285 161  11
   2024 03 07 12:40  10 03 51.18    +20 57 55.3   0.0086 1.0005 156.9 Am  15?   5.06 107.9   12 287 161  11
   2024 03 07 12:50  10 03 54.67    +20 57 39.7   0.0087 1.0005 157.0 Am  15?   5.20 107.4   10 288 161  11
   2024 03 07 13:00  10 03 58.27    +20 57 24.2   0.0087 1.0005 157.0 Am  15?   5.35 106.9    8 289 161  11
   2024 03 07 13:10  10 04 01.98    +20 57 08.7   0.0087 1.0005 157.0 Nm  15?   5.49 106.4    6 291 162  11
   2024 03 07 13:20  10 04 05.79    +20 56 53.3   0.0087 1.0005 157.0 Nm  15?   5.63 105.8    4 292 162  11
   2024 03 07 13:30  10 04 09.72    +20 56 38.0   0.0087 1.0005 157.0 Nm  15?   5.77 105.3    2 294 162  11
   2024 03 07 13:40  10 04 13.74    +20 56 22.9   0.0087 1.0005 157.0 Cm  15?   5.91 104.8    1 295 162  11
   ................
   2024 03 08 01:50  10 10 14.07    +20 55 00.1   0.0086 1.0006 157.6 C   15?   3.87  77.7   25  82 166   8
   2024 03 08 02:00  10 10 16.71    +20 55 08.3   0.0086 1.0006 157.6 C   15?   3.72  77.5   27  84 166   8
   2024 03 08 02:10  10 10 19.25    +20 55 16.4   0.0086 1.0006 157.6 N   15?   3.58  77.3   29  85 166   8
   2024 03 08 02:20  10 10 21.70    +20 55 24.2   0.0086 1.0006 157.6 N   15?   3.44  77.1   31  87 167   8
   2024 03 08 02:30  10 10 24.04    +20 55 31.8   0.0086 1.0006 157.6 N   15?   3.30  77.0   33  88 167   8
   2024 03 08 02:40  10 10 26.28    +20 55 39.1   0.0086 1.0006 157.6 A   15?   3.16  76.9   35  90 167   8
   2024 03 08 02:50  10 10 28.43    +20 55 46.2   0.0086 1.0006 157.6 A   15?   3.03  76.9   37  91 167   8
   2024 03 08 03:00  10 10 30.49    +20 55 52.9   0.0086 1.0006 157.6 A   15?   2.89  76.9   39  93 167   7
   2024 03 08 03:10  10 10 32.45    +20 55 59.4   0.0086 1.0006 157.6     15?   2.77  76.9   41  94 167   7
   2024 03 08 03:20  10 10 34.33    +20 56 05.5   0.0086 1.0006 157.6     15?   2.64  77.1   43  96 167   7
   2024 03 08 03:30  10 10 36.13    +20 56 11.2   0.0086 1.0006 157.6     15?   2.52  77.3   45  98 167   7
   2024 03 08 03:40  10 10 37.84    +20 56 16.6   0.0086 1.0006 157.6     15?   2.40  77.6   47 100 167   7
   2024 03 08 03:50  10 10 39.48    +20 56 21.6   0.0086 1.0006 157.6     15?   2.29  78.0   49 102 168   7
   2024 03 08 04:00  10 10 41.04    +20 56 26.2   0.0086 1.0006 157.6     15?   2.18  78.5   51 104 168   7
   2024 03 08 04:10  10 10 42.52    +20 56 30.3   0.0086 1.0006 157.6     15?   2.08  79.1   53 106 168   7
   2024 03 08 04:20  10 10 43.95    +20 56 34.0   0.0086 1.0006 157.6     15?   1.98  79.9   55 108 168   7
   2024 03 08 04:30  10 10 45.31    +20 56 37.3   0.0086 1.0006 157.5     15?   1.88  80.8   56 111 168   7
   2024 03 08 04:40  10 10 46.60    +20 56 40.1   0.0086 1.0006 157.5     15?   1.80  81.9   58 114 168   7
   2024 03 08 04:50  10 10 47.85    +20 56 42.4   0.0086 1.0006 157.5     15?   1.72  83.1   60 117 168   7
   2024 03 08 05:00  10 10 49.04    +20 56 44.2   0.0086 1.0006 157.5     15?   1.64  84.6   62 120 168   7
   2024 03 08 05:10  10 10 50.18    +20 56 45.6   0.0086 1.0006 157.5     15?   1.58  86.2   63 124 168   7
   2024 03 08 05:20  10 10 51.29    +20 56 46.4   0.0086 1.0007 157.5     15?   1.52  88.0   65 128 169   7
   2024 03 08 05:30  10 10 52.35    +20 56 46.7   0.0086 1.0007 157.5     15?   1.47  90.0   67 132 169   7
   2024 03 08 05:40  10 10 53.38    +20 56 46.4   0.0086 1.0007 157.5     15?   1.42  92.1   68 137 169   7
   2024 03 08 05:50  10 10 54.38    +20 56 45.7   0.0086 1.0007 157.5     15?   1.39  94.4   69 143 169   7
   2024 03 08 06:00  10 10 55.36    +20 56 44.4   0.0086 1.0007 157.5     15?   1.36  96.8   70 149 169   6
   2024 03 08 06:10  10 10 56.32    +20 56 42.5   0.0086 1.0007 157.5     15?   1.35  99.2   71 155 169   6
   2024 03 08 06:20  10 10 57.26    +20 56 40.1   0.0086 1.0007 157.5     15?   1.34 101.6   72 163 169   6
   2024 03 08 06:30  10 10 58.19    +20 56 37.1   0.0086 1.0007 157.5     15?   1.34 104.0   72 170 169   6
   2024 03 08 06:40  10 10 59.12    +20 56 33.6   0.0086 1.0007 157.5     15?   1.35 106.3   73 178 170   6
   2024 03 08 06:50  10 11 00.05    +20 56 29.5   0.0086 1.0007 157.5  t  15?   1.37 108.5   72 186 170   6
   2024 03 08 07:00  10 11 00.98    +20 56 24.9   0.0086 1.0007 157.5     15?   1.40 110.6   72 194 170   6
   2024 03 08 07:10  10 11 01.92    +20 56 19.7   0.0086 1.0007 157.5     15?   1.44 112.4   71 202 170   6
   2024 03 08 07:20  10 11 02.88    +20 56 14.0   0.0086 1.0007 157.5     15?   1.48 114.0   71 209 170   6
   2024 03 08 07:30  10 11 03.85    +20 56 07.7   0.0086 1.0007 157.5     15?   1.53 115.4   70 215 170   6
   2024 03 08 07:40  10 11 04.85    +20 56 00.8   0.0086 1.0007 157.5     15?   1.58 116.6   68 221 170   6
   2024 03 08 07:50  10 11 05.87    +20 55 53.5   0.0086 1.0007 157.5     15?   1.65 117.6   67 226 170   6
   2024 03 08 08:00  10 11 06.93    +20 55 45.6   0.0086 1.0007 157.5     15?   1.72 118.4   65 230 170   6
   2024 03 08 08:10  10 11 08.03    +20 55 37.2   0.0086 1.0007 157.5     15?   1.79 119.0   64 234 171   6
   2024 03 08 08:20  10 11 09.17    +20 55 28.2   0.0086 1.0007 157.5     15?   1.87 119.5   62 238 171   6
   2024 03 08 08:30  10 11 10.35    +20 55 18.8   0.0086 1.0007 157.5     15?   1.95 119.8   61 241 171   6
   2024 03 08 08:40  10 11 11.59    +20 55 08.9   0.0086 1.0007 157.5     15?   2.04 119.9   59 244 171   6
   2024 03 08 08:50  10 11 12.88    +20 54 58.5   0.0086 1.0007 157.5     15?   2.13 119.9   57 247 171   6
   2024 03 08 09:00  10 11 14.23    +20 54 47.6   0.0086 1.0007 157.5     15?   2.23 119.9   55 250 171   6
   2024 03 08 09:10  10 11 15.64    +20 54 36.3   0.0086 1.0007 157.5     15?   2.33 119.7   53 252 171   5
   2024 03 08 09:20  10 11 17.12    +20 54 24.5   0.0086 1.0007 157.5     15?   2.44 119.5   51 255 171   5
   2024 03 08 09:30  10 11 18.67    +20 54 12.3   0.0086 1.0007 157.5     15?   2.55 119.2   49 257 171   5
   2024 03 08 09:40  10 11 20.30    +20 53 59.7   0.0086 1.0007 157.5     15?   2.66 118.8   47 259 172   5
   2024 03 08 09:50  10 11 22.00    +20 53 46.7   0.0086 1.0007 157.5     15?   2.78 118.4   45 261 172   5
   2024 03 08 10:00  10 11 23.79    +20 53 33.3   0.0086 1.0007 157.5     15?   2.90 117.9   44 262 172   5
   2024 03 08 10:10  10 11 25.66    +20 53 19.6   0.0086 1.0007 157.5     15?   3.02 117.4   42 264 172   5
   2024 03 08 10:20  10 11 27.62    +20 53 05.5   0.0086 1.0007 157.5     15?   3.15 116.9   40 266 172   5
   2024 03 08 10:30  10 11 29.66    +20 52 51.2   0.0086 1.0007 157.5     15?   3.27 116.4   38 267 172   5
   2024 03 08 10:40  10 11 31.80    +20 52 36.5   0.0086 1.0007 157.5     15?   3.41 115.8   36 269 172   5
   2024 03 08 10:50  10 11 34.04    +20 52 21.5   0.0086 1.0007 157.5     15?   3.54 115.3   34 270 172   5
   2024 03 08 11:00  10 11 36.37    +20 52 06.3   0.0086 1.0007 157.5     15?   3.67 114.7   32 272 172   5
   2024 03 08 11:10  10 11 38.80    +20 51 50.8   0.0086 1.0007 157.5     15?   3.81 114.1   30 273 172   5
   2024 03 08 11:20  10 11 41.34    +20 51 35.2   0.0086 1.0007 157.5     15?   3.95 113.5   28 275 172   5
   2024 03 08 11:30  10 11 43.98    +20 51 19.3   0.0086 1.0007 157.5     15?   4.09 112.9   26 276 173   5
   2024 03 08 11:40  10 11 46.72    +20 51 03.3   0.0086 1.0007 157.5     15?   4.24 112.4   24 278 173   5
   2024 03 08 11:50  10 11 49.57    +20 50 47.1   0.0086 1.0007 157.5     15?   4.38 111.8   22 279 173   5
   2024 03 08 12:00  10 11 52.52    +20 50 30.9   0.0086 1.0007 157.5     15?   4.53 111.2   20 280 173   5
   2024 03 08 12:10  10 11 55.59    +20 50 14.5   0.0086 1.0007 157.5     15?   4.67 110.6   18 282 173   5
   2024 03 08 12:20  10 11 58.76    +20 49 58.0   0.0086 1.0007 157.5     15?   4.82 110.0   16 283 173   5
   2024 03 08 12:30  10 12 02.05    +20 49 41.5   0.0086 1.0007 157.5 A   15?   4.96 109.5   14 285 173   5
   2024 03 08 12:40  10 12 05.44    +20 49 25.0   0.0086 1.0007 157.5 A   15?   5.11 108.9   12 286 173   5
   2024 03 08 12:50  10 12 08.94    +20 49 08.4   0.0086 1.0007 157.6 A   15?   5.25 108.4   10 287 173   5
   2024 03 08 13:00  10 12 12.55    +20 48 51.9   0.0086 1.0007 157.6 N   15?   5.40 107.8    9 289 173   5
   2024 03 08 13:10  10 12 16.27    +20 48 35.4   0.0086 1.0007 157.6 Nm  15?   5.54 107.3    7 290 173   5
   2024 03 08 13:20  10 12 20.11    +20 48 19.0   0.0086 1.0007 157.6 Nm  15?   5.69 106.8    5 292 173   5
   2024 03 08 13:30  10 12 24.04    +20 48 02.7   0.0086 1.0007 157.6 Cm  15?   5.83 106.2    3 293 173   4
   2024 03 08 13:40  10 12 28.09    +20 47 46.4   0.0086 1.0007 157.6 Cm  15?   5.97 105.7    1 295 173   4
   ................
   2024 03 09 01:50  10 18 33.94    +20 45 00.1   0.0086 1.0009 158.2 C   15?   3.99  79.5   24  82 174   2
   2024 03 09 02:00  10 18 36.68    +20 45 07.3   0.0085 1.0009 158.2 C   15?   3.84  79.3   26  83 174   2
   2024 03 09 02:10  10 18 39.32    +20 45 14.4   0.0085 1.0009 158.2 N   15?   3.70  79.2   28  85 174   2
   2024 03 09 02:20  10 18 41.86    +20 45 21.3   0.0085 1.0009 158.2 N   15?   3.55  79.1   30  86 174   2
   2024 03 09 02:30  10 18 44.30    +20 45 27.9   0.0085 1.0009 158.2 N   15?   3.41  79.0   32  88 174   2
   2024 03 09 02:40  10 18 46.64    +20 45 34.3   0.0085 1.0009 158.2 A   15?   3.27  79.0   34  89 174   2
   2024 03 09 02:50  10 18 48.88    +20 45 40.5   0.0085 1.0009 158.2 A   15?   3.14  79.0   36  91 174   2
   2024 03 09 03:00  10 18 51.03    +20 45 46.3   0.0085 1.0009 158.2 A   15?   3.00  79.1   38  92 174   2
   2024 03 09 03:10  10 18 53.08    +20 45 51.9   0.0085 1.0009 158.2     15?   2.87  79.3   40  94 174   2
   2024 03 09 03:20  10 18 55.05    +20 45 57.1   0.0085 1.0009 158.2     15?   2.74  79.5   42  96 174   2
   2024 03 09 03:30  10 18 56.93    +20 46 02.0   0.0085 1.0009 158.2     15?   2.62  79.8   44  97 174   2
   2024 03 09 03:40  10 18 58.73    +20 46 06.5   0.0085 1.0009 158.2     15?   2.50  80.1   46  99 174   2
   2024 03 09 03:50  10 19 00.45    +20 46 10.6   0.0085 1.0009 158.2     15?   2.39  80.6   48 101 174   2
   2024 03 09 04:00  10 19 02.09    +20 46 14.3   0.0085 1.0009 158.2     15?   2.28  81.2   50 103 174   2
   2024 03 09 04:10  10 19 03.66    +20 46 17.6   0.0085 1.0009 158.1     15?   2.17  81.9   52 105 173   2
   2024 03 09 04:20  10 19 05.16    +20 46 20.5   0.0085 1.0009 158.1     15?   2.07  82.7   54 108 173   2
   2024 03 09 04:30  10 19 06.59    +20 46 22.9   0.0085 1.0009 158.1     15?   1.98  83.7   56 110 173   2
   2024 03 09 04:40  10 19 07.96    +20 46 24.9   0.0085 1.0009 158.1     15?   1.89  84.8   57 113 173   2
   2024 03 09 04:50  10 19 09.28    +20 46 26.4   0.0085 1.0009 158.1     15?   1.81  86.1   59 116 173   2
   2024 03 09 05:00  10 19 10.54    +20 46 27.4   0.0085 1.0009 158.1     15?   1.73  87.6   61 119 173   2
   2024 03 09 05:10  10 19 11.75    +20 46 27.9   0.0085 1.0009 158.1     15?   1.67  89.2   63 122 173   2
   2024 03 09 05:20  10 19 12.91    +20 46 27.9   0.0085 1.0009 158.1     15?   1.61  91.0   64 126 173   2
   2024 03 09 05:30  10 19 14.04    +20 46 27.4   0.0085 1.0009 158.1     15?   1.56  92.9   66 130 173   2
   2024 03 09 05:40  10 19 15.13    +20 46 26.3   0.0085 1.0009 158.1     15?   1.51  95.0   67 135 173   2
   2024 03 09 05:50  10 19 16.19    +20 46 24.8   0.0085 1.0009 158.1     15?   1.48  97.2   69 140 173   2
   2024 03 09 06:00  10 19 17.22    +20 46 22.6   0.0085 1.0009 158.1     15?   1.45  99.5   70 146 173   2
   2024 03 09 06:10  10 19 18.23    +20 46 20.0   0.0085 1.0009 158.1     15?   1.44 101.8   71 153 173   2
   2024 03 09 06:20  10 19 19.23    +20 46 16.8   0.0085 1.0009 158.1     15?   1.43 104.1   72 160 173   2
   2024 03 09 06:30  10 19 20.21    +20 46 13.0   0.0085 1.0009 158.1     15?   1.43 106.4   72 167 173   2
   2024 03 09 06:40  10 19 21.18    +20 46 08.7   0.0085 1.0009 158.1     15?   1.44 108.6   72 175 173   2
   2024 03 09 06:50  10 19 22.15    +20 46 03.8   0.0085 1.0009 158.1  t  15?   1.46 110.7   72 183 173   1
   2024 03 09 07:00  10 19 23.13    +20 45 58.4   0.0085 1.0009 158.1     15?   1.48 112.6   72 191 172   1
   2024 03 09 07:10  10 19 24.11    +20 45 52.4   0.0085 1.0009 158.1     15?   1.52 114.3   72 198 172   1
   2024 03 09 07:20  10 19 25.10    +20 45 45.9   0.0085 1.0009 158.1     15?   1.56 115.9   71 205 172   1
   2024 03 09 07:30  10 19 26.11    +20 45 38.8   0.0085 1.0009 158.1     15?   1.61 117.2   70 212 172   1
   2024 03 09 07:40  10 19 27.15    +20 45 31.2   0.0085 1.0009 158.1     15?   1.66 118.3   69 218 172   1
   2024 03 09 07:50  10 19 28.20    +20 45 23.0   0.0085 1.0009 158.1     15?   1.73 119.3   67 223 172   1
   2024 03 09 08:00  10 19 29.29    +20 45 14.3   0.0085 1.0009 158.1     15?   1.79 120.0   66 228 172   1
   2024 03 09 08:10  10 19 30.42    +20 45 05.1   0.0085 1.0009 158.1     15?   1.86 120.6   64 232 172   1
   2024 03 09 08:20  10 19 31.59    +20 44 55.4   0.0085 1.0009 158.1     15?   1.94 121.0   63 236 172   1
   2024 03 09 08:30  10 19 32.80    +20 44 45.1   0.0085 1.0009 158.1     15?   2.02 121.2   61 240 172   1
   2024 03 09 08:40  10 19 34.06    +20 44 34.4   0.0085 1.0009 158.1     15?   2.11 121.4   59 243 172   1
   2024 03 09 08:50  10 19 35.37    +20 44 23.2   0.0085 1.0009 158.1     15?   2.20 121.4   58 246 172   1
   2024 03 09 09:00  10 19 36.74    +20 44 11.5   0.0085 1.0009 158.1     15?   2.30 121.3   56 249 172   1
   2024 03 09 09:10  10 19 38.17    +20 43 59.3   0.0085 1.0009 158.1     15?   2.40 121.1   54 251 171   1
   2024 03 09 09:20  10 19 39.67    +20 43 46.7   0.0085 1.0009 158.1     15?   2.50 120.8   52 253 171   1
   2024 03 09 09:30  10 19 41.24    +20 43 33.7   0.0085 1.0009 158.1     15?   2.61 120.5   50 256 171   1
   2024 03 09 09:40  10 19 42.88    +20 43 20.2   0.0085 1.0009 158.1     15?   2.72 120.1   48 258 171   1
   2024 03 09 09:50  10 19 44.60    +20 43 06.4   0.0085 1.0009 158.1     15?   2.84 119.7   46 259 171   1
   2024 03 09 10:00  10 19 46.40    +20 42 52.1   0.0085 1.0009 158.1     15?   2.96 119.2   44 261 171   1
   2024 03 09 10:10  10 19 48.28    +20 42 37.5   0.0085 1.0009 158.1     15?   3.08 118.7   42 263 171   1
   2024 03 09 10:20  10 19 50.24    +20 42 22.6   0.0085 1.0009 158.1     15?   3.20 118.2   40 265 171   1
   2024 03 09 10:30  10 19 52.30    +20 42 07.3   0.0085 1.0009 158.1     15?   3.33 117.6   38 266 171   1
   2024 03 09 10:40  10 19 54.45    +20 41 51.7   0.0085 1.0009 158.1     15?   3.46 117.0   36 268 171   1
   2024 03 09 10:50  10 19 56.70    +20 41 35.9   0.0085 1.0010 158.1     15?   3.59 116.5   34 270 171   1
   2024 03 09 11:00  10 19 59.04    +20 41 19.8   0.0085 1.0010 158.1     15?   3.73 115.9   32 271 171   1
   2024 03 09 11:10  10 20 01.48    +20 41 03.4   0.0085 1.0010 158.1     15?   3.87 115.3   30 273 171   1
   2024 03 09 11:20  10 20 04.02    +20 40 46.8   0.0085 1.0010 158.1     15?   4.00 114.7   29 274 170   1
   2024 03 09 11:30  10 20 06.67    +20 40 30.0   0.0085 1.0010 158.1     15?   4.15 114.1   27 275 170   1
   2024 03 09 11:40  10 20 09.42    +20 40 13.0   0.0085 1.0010 158.1     15?   4.29 113.4   25 277 170   1
   2024 03 09 11:50  10 20 12.28    +20 39 55.9   0.0085 1.0010 158.1     15?   4.43 112.8   23 278 170   1
   2024 03 09 12:00  10 20 15.24    +20 39 38.6   0.0085 1.0010 158.1     15?   4.58 112.2   21 280 170   1
   2024 03 09 12:10  10 20 18.31    +20 39 21.3   0.0085 1.0010 158.1     15?   4.72 111.7   19 281 170   1
   2024 03 09 12:20  10 20 21.49    +20 39 03.8   0.0085 1.0010 158.1     15?   4.87 111.1   17 282 170   1
   2024 03 09 12:30  10 20 24.79    +20 38 46.3   0.0085 1.0010 158.1 A   15?   5.01 110.5   15 284 170   1
   2024 03 09 12:40  10 20 28.19    +20 38 28.7   0.0085 1.0010 158.2 A   15?   5.16 109.9   13 285 170   1
   2024 03 09 12:50  10 20 31.70    +20 38 11.2   0.0085 1.0010 158.2 A   15?   5.31 109.3   11 287 170   1
   2024 03 09 13:00  10 20 35.32    +20 37 53.6   0.0085 1.0010 158.2 N   15?   5.45 108.8    9 288 170   1
   2024 03 09 13:10  10 20 39.05    +20 37 36.1   0.0085 1.0010 158.2 N   15?   5.60 108.2    7 289 170   1
   2024 03 09 13:20  10 20 42.90    +20 37 18.6   0.0085 1.0010 158.2 N   15?   5.74 107.7    6 291 170   1
   2024 03 09 13:30  10 20 46.85    +20 37 01.2   0.0085 1.0010 158.2 C   15?   5.88 107.2    4 292 169   1
   2024 03 09 13:40  10 20 50.91    +20 36 43.9   0.0085 1.0010 158.2 Cm  15?   6.03 106.6    2 294 169   1
   ................
   2024 03 10 01:50  10 27 02.11    +20 32 28.2   0.0085 1.0011 158.8 C   15?   4.12  81.3   23  81 164   0
   2024 03 10 02:00  10 27 04.96    +20 32 34.4   0.0085 1.0011 158.8 C   15?   3.97  81.2   25  83 164   0
   2024 03 10 02:10  10 27 07.70    +20 32 40.4   0.0085 1.0011 158.8 N   15?   3.82  81.1   27  84 164   0
   2024 03 10 02:20  10 27 10.33    +20 32 46.3   0.0085 1.0011 158.8 N   15?   3.68  81.1   29  86 164   0
   2024 03 10 02:30  10 27 12.87    +20 32 51.9   0.0085 1.0011 158.8 N   15?   3.53  81.1   31  87 164   0
   2024 03 10 02:40  10 27 15.31    +20 32 57.3   0.0085 1.0011 158.8 A   15?   3.39  81.1   33  89 164   0
   2024 03 10 02:50  10 27 17.64    +20 33 02.4   0.0085 1.0011 158.8 A   15?   3.25  81.2   35  90 164   0
   2024 03 10 03:00  10 27 19.89    +20 33 07.3   0.0085 1.0011 158.8 A   15?   3.12  81.4   37  92 164   0
   2024 03 10 03:10  10 27 22.03    +20 33 11.8   0.0085 1.0011 158.8     15?   2.99  81.6   39  93 164   0
   2024 03 10 03:20  10 27 24.09    +20 33 16.0   0.0085 1.0011 158.8     15?   2.86  81.9   41  95 163   0
   2024 03 10 03:30  10 27 26.06    +20 33 19.9   0.0085 1.0011 158.8     15?   2.73  82.2   43  97 163   0
   2024 03 10 03:40  10 27 27.95    +20 33 23.5   0.0085 1.0011 158.8     15?   2.61  82.7   45  99 163   0
   2024 03 10 03:50  10 27 29.75    +20 33 26.7   0.0085 1.0011 158.8     15?   2.49  83.2   47 100 163   0
   2024 03 10 04:00  10 27 31.47    +20 33 29.4   0.0085 1.0011 158.8     15?   2.38  83.8   49 102 163   0
   2024 03 10 04:10  10 27 33.12    +20 33 31.8   0.0085 1.0011 158.8     15?   2.28  84.6   51 105 163   0
   2024 03 10 04:20  10 27 34.70    +20 33 33.7   0.0085 1.0011 158.8     15?   2.17  85.5   53 107 163   0
   2024 03 10 04:30  10 27 36.21    +20 33 35.3   0.0085 1.0011 158.8     15?   2.08  86.5   55 109 163   0
   2024 03 10 04:40  10 27 37.66    +20 33 36.3   0.0085 1.0011 158.7     15?   1.99  87.7   56 112 163   0
   2024 03 10 04:50  10 27 39.04    +20 33 36.9   0.0085 1.0011 158.7     15?   1.91  89.0   58 115 162   0
   2024 03 10 05:00  10 27 40.37    +20 33 37.0   0.0085 1.0011 158.7     15?   1.83  90.5   60 118 162   0
   2024 03 10 05:10  10 27 41.65    +20 33 36.6   0.0085 1.0011 158.7     15?   1.76  92.1   62 121 162   0
   2024 03 10 05:20  10 27 42.89    +20 33 35.7   0.0085 1.0011 158.7     15?   1.70  93.9   63 125 162   0
   2024 03 10 05:30  10 27 44.08    +20 33 34.3   0.0085 1.0011 158.7     15?   1.65  95.8   65 129 162   0
   2024 03 10 05:40  10 27 45.23    +20 33 32.4   0.0085 1.0011 158.7     15?   1.61  97.9   66 133 162   0
   2024 03 10 05:50  10 27 46.35    +20 33 30.0   0.0085 1.0011 158.7     15?   1.57 100.0   68 138 162   0
   2024 03 10 06:00  10 27 47.44    +20 33 27.0   0.0085 1.0012 158.7     15?   1.55 102.1   69 144 162   0
   2024 03 10 06:10  10 27 48.50    +20 33 23.4   0.0085 1.0012 158.7     15?   1.53 104.4   70 150 162   0
   2024 03 10 06:20  10 27 49.55    +20 33 19.4   0.0085 1.0012 158.7     15?   1.52 106.6   71 157 161   0
   2024 03 10 06:30  10 27 50.58    +20 33 14.8   0.0085 1.0012 158.7     15?   1.52 108.8   72 164 161   0
   2024 03 10 06:40  10 27 51.60    +20 33 09.6   0.0085 1.0012 158.7     15?   1.53 110.8   72 171 161   0
   2024 03 10 06:50  10 27 52.62    +20 33 03.9   0.0085 1.0012 158.7     15?   1.55 112.8   72 179 161   0
   2024 03 10 07:00  10 27 53.64    +20 32 57.6   0.0085 1.0012 158.7  t  15?   1.58 114.6   72 187 161   0
   2024 03 10 07:10  10 27 54.66    +20 32 50.8   0.0085 1.0012 158.7     15?   1.61 116.2   72 195 161   0
   2024 03 10 07:20  10 27 55.70    +20 32 43.4   0.0085 1.0012 158.7     15?   1.65 117.7   71 202 161   0
   2024 03 10 07:30  10 27 56.74    +20 32 35.5   0.0085 1.0012 158.7     15?   1.70 118.9   70 209 161   0
   2024 03 10 07:40  10 27 57.81    +20 32 27.0   0.0085 1.0012 158.7     15?   1.75 120.0   69 215 160   0
   2024 03 10 07:50  10 27 58.90    +20 32 18.0   0.0085 1.0012 158.7     15?   1.81 120.9   68 220 160   0
   2024 03 10 08:00  10 28 00.02    +20 32 08.4   0.0085 1.0012 158.7     15?   1.87 121.6   66 226 160   0
   2024 03 10 08:10  10 28 01.18    +20 31 58.4   0.0085 1.0012 158.7     15?   1.94 122.1   65 230 160   0
   2024 03 10 08:20  10 28 02.37    +20 31 47.8   0.0085 1.0012 158.7     15?   2.02 122.5   63 234 160   0
   2024 03 10 08:30  10 28 03.61    +20 31 36.7   0.0085 1.0012 158.7     15?   2.10 122.7   62 238 160   0
   2024 03 10 08:40  10 28 04.89    +20 31 25.1   0.0085 1.0012 158.7     15?   2.19 122.8   60 241 160   0
   2024 03 10 08:50  10 28 06.23    +20 31 13.0   0.0085 1.0012 158.7     15?   2.28 122.8   58 244 160   0
   2024 03 10 09:00  10 28 07.62    +20 31 00.4   0.0085 1.0012 158.7     15?   2.37 122.7   56 247 160   0
   2024 03 10 09:10  10 28 09.07    +20 30 47.4   0.0085 1.0012 158.7     15?   2.47 122.5   55 250 159   0
   2024 03 10 09:20  10 28 10.58    +20 30 33.9   0.0085 1.0012 158.7     15?   2.57 122.2   53 252 159   0
   2024 03 10 09:30  10 28 12.17    +20 30 20.0   0.0085 1.0012 158.7     15?   2.68 121.9   51 254 159   0
   2024 03 10 09:40  10 28 13.82    +20 30 05.6   0.0085 1.0012 158.7     15?   2.79 121.5   49 256 159   0
   2024 03 10 09:50  10 28 15.55    +20 29 50.9   0.0085 1.0012 158.7     15?   2.90 121.0   47 258 159   0
   2024 03 10 10:00  10 28 17.37    +20 29 35.8   0.0085 1.0012 158.7     15?   3.02 120.5   45 260 159   0
   2024 03 10 10:10  10 28 19.26    +20 29 20.3   0.0085 1.0012 158.7     15?   3.14 120.0   43 262 159   0
   2024 03 10 10:20  10 28 21.24    +20 29 04.4   0.0085 1.0012 158.7     15?   3.26 119.4   41 264 159   0
   2024 03 10 10:30  10 28 23.30    +20 28 48.2   0.0085 1.0012 158.7     15?   3.39 118.9   39 265 159   0
   2024 03 10 10:40  10 28 25.46    +20 28 31.7   0.0085 1.0012 158.7     15?   3.52 118.3   37 267 158   0
   2024 03 10 10:50  10 28 27.71    +20 28 14.9   0.0085 1.0012 158.7     15?   3.65 117.7   35 269 158   0
   2024 03 10 11:00  10 28 30.06    +20 27 57.8   0.0085 1.0012 158.7     15?   3.78 117.1   33 270 158   0
   2024 03 10 11:10  10 28 32.51    +20 27 40.5   0.0085 1.0012 158.7     15?   3.92 116.4   31 272 158   0
   2024 03 10 11:20  10 28 35.06    +20 27 22.9   0.0085 1.0012 158.7     15?   4.06 115.8   29 273 158   0
   2024 03 10 11:30  10 28 37.71    +20 27 05.2   0.0085 1.0012 158.7     15?   4.20 115.2   27 275 158   0
   2024 03 10 11:40  10 28 40.47    +20 26 47.2   0.0085 1.0012 158.7     15?   4.34 114.6   25 276 158   0
   2024 03 10 11:50  10 28 43.33    +20 26 29.1   0.0085 1.0012 158.7     15?   4.48 114.0   23 277 158   0
   2024 03 10 12:00  10 28 46.30    +20 26 10.8   0.0085 1.0012 158.7     15?   4.63 113.3   21 279 158   0
   2024 03 10 12:10  10 28 49.37    +20 25 52.5   0.0085 1.0012 158.8     15?   4.77 112.7   20 280 157   0
   2024 03 10 12:20  10 28 52.56    +20 25 34.0   0.0085 1.0012 158.8     15?   4.92 112.1   18 282 157   0
   2024 03 10 12:30  10 28 55.86    +20 25 15.4   0.0085 1.0012 158.8 A   15?   5.07 111.5   16 283 157   0
   2024 03 10 12:40  10 28 59.27    +20 24 56.8   0.0085 1.0012 158.8 A   15?   5.21 110.9   14 284 157   0
   2024 03 10 12:50  10 29 02.78    +20 24 38.2   0.0085 1.0012 158.8 A   15?   5.36 110.4   12 286 157   0
   2024 03 10 13:00  10 29 06.41    +20 24 19.6   0.0085 1.0012 158.8 N   15?   5.50 109.8   10 287 157   0
   2024 03 10 13:10  10 29 10.15    +20 24 01.0   0.0085 1.0012 158.8 N   15?   5.65 109.2    8 289 157   0
   2024 03 10 13:20  10 29 14.00    +20 23 42.4   0.0085 1.0012 158.8 N   15?   5.79 108.7    6 290 157   0
   2024 03 10 13:30  10 29 17.96    +20 23 23.9   0.0085 1.0012 158.8 C   15?   5.94 108.1    4 291 157   0
   2024 03 10 13:40  10 29 22.03    +20 23 05.5   0.0085 1.0012 158.8 C   15?   6.08 107.6    3 293 157   0
   ................
   2024 03 11 01:50  10 35 38.38    +20 17 15.1   0.0084 1.0014 159.4 Cm  15?   4.26  83.2   22  81 152   0
   2024 03 11 02:00  10 35 41.33    +20 17 20.1   0.0084 1.0014 159.4 Cm  15?   4.10  83.1   24  82 151   0
   2024 03 11 02:10  10 35 44.17    +20 17 25.0   0.0084 1.0014 159.4 Nm  15?   3.95  83.1   26  84 151   0
   2024 03 11 02:20  10 35 46.91    +20 17 29.7   0.0084 1.0014 159.4 Nm  15?   3.81  83.1   28  85 151   0
   2024 03 11 02:30  10 35 49.54    +20 17 34.2   0.0084 1.0014 159.4 N   15?   3.66  83.2   30  87 151   0
   2024 03 11 02:40  10 35 52.07    +20 17 38.5   0.0084 1.0014 159.4 A   15?   3.52  83.3   32  88 151   0
   2024 03 11 02:50  10 35 54.51    +20 17 42.5   0.0084 1.0014 159.4 A   15?   3.38  83.4   34  90 151   0
   2024 03 11 03:00  10 35 56.85    +20 17 46.3   0.0084 1.0014 159.4 A   15?   3.24  83.6   36  91 151   0
   2024 03 11 03:10  10 35 59.09    +20 17 49.8   0.0084 1.0014 159.4     15?   3.11  83.9   38  93 151   0
   2024 03 11 03:20  10 36 01.24    +20 17 52.9   0.0084 1.0014 159.4     15?   2.98  84.3   40  95 151   0
   2024 03 11 03:30  10 36 03.30    +20 17 55.8   0.0084 1.0014 159.4     15?   2.85  84.7   42  96 151   0
   2024 03 11 03:40  10 36 05.27    +20 17 58.2   0.0084 1.0014 159.4     15?   2.73  85.2   44  98 150   0
   2024 03 11 03:50  10 36 07.16    +20 18 00.4   0.0084 1.0014 159.4     15?   2.61  85.8   46 100 150   0
   2024 03 11 04:00  10 36 08.97    +20 18 02.1   0.0084 1.0014 159.4     15?   2.49  86.5   48 102 150   0
   2024 03 11 04:10  10 36 10.70    +20 18 03.5   0.0084 1.0014 159.4     15?   2.39  87.3   50 104 150   0
   2024 03 11 04:20  10 36 12.36    +20 18 04.4   0.0084 1.0014 159.4     15?   2.28  88.2   52 106 150   0
   2024 03 11 04:30  10 36 13.95    +20 18 04.9   0.0084 1.0014 159.4     15?   2.19  89.3   54 108 150   0
   2024 03 11 04:40  10 36 15.47    +20 18 05.0   0.0084 1.0014 159.4     15?   2.10  90.5   55 111 150   0
   2024 03 11 04:50  10 36 16.93    +20 18 04.6   0.0084 1.0014 159.4     15?   2.01  91.8   57 114 150   0
   2024 03 11 05:00  10 36 18.33    +20 18 03.7   0.0084 1.0014 159.4     15?   1.94  93.3   59 117 150   0
   2024 03 11 05:10  10 36 19.68    +20 18 02.3   0.0084 1.0014 159.4     15?   1.87  95.0   61 120 149   0
   2024 03 11 05:20  10 36 20.98    +20 18 00.5   0.0084 1.0014 159.4     15?   1.81  96.7   62 123 149   0
   2024 03 11 05:30  10 36 22.24    +20 17 58.1   0.0084 1.0014 159.4     15?   1.76  98.6   64 127 149   1
   2024 03 11 05:40  10 36 23.45    +20 17 55.3   0.0084 1.0014 159.4     15?   1.71 100.5   66 131 149   1
   2024 03 11 05:50  10 36 24.63    +20 17 51.9   0.0084 1.0014 159.3     15?   1.68 102.6   67 136 149   1
   2024 03 11 06:00  10 36 25.78    +20 17 48.0   0.0084 1.0014 159.3     15?   1.65 104.7   68 141 149   1
   2024 03 11 06:10  10 36 26.90    +20 17 43.5   0.0084 1.0014 159.3     15?   1.63 106.8   69 147 149   1
   2024 03 11 06:20  10 36 28.01    +20 17 38.5   0.0084 1.0014 159.3     15?   1.62 108.9   70 154 149   1
   2024 03 11 06:30  10 36 29.09    +20 17 33.0   0.0084 1.0014 159.3     15?   1.62 111.0   71 161 149   1
   2024 03 11 06:40  10 36 30.16    +20 17 26.9   0.0084 1.0014 159.3     15?   1.63 112.9   72 168 148   1
   2024 03 11 06:50  10 36 31.23    +20 17 20.3   0.0084 1.0014 159.3     15?   1.65 114.8   72 176 148   1
   2024 03 11 07:00  10 36 32.29    +20 17 13.1   0.0084 1.0014 159.3  t  15?   1.67 116.5   72 183 148   1
   2024 03 11 07:10  10 36 33.35    +20 17 05.3   0.0084 1.0014 159.3     15?   1.70 118.0   72 191 148   1
   2024 03 11 07:20  10 36 34.43    +20 16 57.1   0.0084 1.0014 159.3     15?   1.74 119.4   71 198 148   1
   2024 03 11 07:30  10 36 35.51    +20 16 48.2   0.0084 1.0014 159.3     15?   1.79 120.6   70 205 148   1
   2024 03 11 07:40  10 36 36.62    +20 16 38.9   0.0084 1.0014 159.3     15?   1.84 121.6   69 212 148   1
   2024 03 11 07:50  10 36 37.74    +20 16 29.0   0.0084 1.0014 159.3     15?   1.90 122.4   68 218 148   1
   2024 03 11 08:00  10 36 38.89    +20 16 18.5   0.0084 1.0014 159.3     15?   1.96 123.1   67 223 147   1
   2024 03 11 08:10  10 36 40.08    +20 16 07.5   0.0084 1.0014 159.3     15?   2.03 123.6   66 228 147   1
   2024 03 11 08:20  10 36 41.30    +20 15 56.1   0.0084 1.0014 159.3     15?   2.10 123.9   64 232 147   1
   2024 03 11 08:30  10 36 42.56    +20 15 44.1   0.0084 1.0014 159.3     15?   2.18 124.2   62 236 147   1
   2024 03 11 08:40  10 36 43.87    +20 15 31.6   0.0084 1.0014 159.3     15?   2.27 124.2   61 239 147   1
   2024 03 11 08:50  10 36 45.22    +20 15 18.6   0.0084 1.0014 159.3     15?   2.35 124.2   59 242 147   1
   2024 03 11 09:00  10 36 46.63    +20 15 05.1   0.0084 1.0014 159.3     15?   2.45 124.1   57 245 147   1
   2024 03 11 09:10  10 36 48.10    +20 14 51.2   0.0084 1.0014 159.3     15?   2.54 123.9   55 248 147   1
   2024 03 11 09:20  10 36 49.64    +20 14 36.8   0.0084 1.0014 159.3     15?   2.64 123.6   54 251 146   1
   2024 03 11 09:30  10 36 51.24    +20 14 21.9   0.0084 1.0014 159.3     15?   2.75 123.2   52 253 146   1
   2024 03 11 09:40  10 36 52.90    +20 14 06.7   0.0084 1.0014 159.3     15?   2.86 122.8   50 255 146   1
   2024 03 11 09:50  10 36 54.65    +20 13 51.0   0.0084 1.0014 159.3     15?   2.97 122.3   48 257 146   1
   2024 03 11 10:00  10 36 56.47    +20 13 34.9   0.0084 1.0014 159.3     15?   3.08 121.8   46 259 146   1
   2024 03 11 10:10  10 36 58.37    +20 13 18.5   0.0084 1.0014 159.3     15?   3.20 121.3   44 261 146   1
   2024 03 11 10:20  10 37 00.36    +20 13 01.7   0.0084 1.0014 159.3     15?   3.32 120.7   42 263 146   1
   2024 03 11 10:30  10 37 02.43    +20 12 44.6   0.0084 1.0014 159.3     15?   3.45 120.1   40 264 146   1
   2024 03 11 10:40  10 37 04.60    +20 12 27.1   0.0084 1.0015 159.3     15?   3.58 119.5   38 266 146   1
   2024 03 11 10:50  10 37 06.85    +20 12 09.3   0.0084 1.0015 159.3     15?   3.71 118.9   36 268 145   1
   2024 03 11 11:00  10 37 09.21    +20 11 51.3   0.0084 1.0015 159.4     15?   3.84 118.3   34 269 145   1
   2024 03 11 11:10  10 37 11.66    +20 11 33.0   0.0084 1.0015 159.4     15?   3.97 117.6   32 271 145   1
   2024 03 11 11:20  10 37 14.21    +20 11 14.5   0.0084 1.0015 159.4     15?   4.11 117.0   30 272 145   1
   2024 03 11 11:30  10 37 16.86    +20 10 55.7   0.0084 1.0015 159.4     15?   4.25 116.3   28 274 145   1
   2024 03 11 11:40  10 37 19.62    +20 10 36.7   0.0084 1.0015 159.4     15?   4.39 115.7   26 275 145   1
   2024 03 11 11:50  10 37 22.49    +20 10 17.6   0.0084 1.0015 159.4     15?   4.53 115.1   24 276 145   2
   2024 03 11 12:00  10 37 25.46    +20 09 58.3   0.0084 1.0015 159.4     15?   4.68 114.4   22 278 145   2
   2024 03 11 12:10  10 37 28.54    +20 09 38.9   0.0084 1.0015 159.4     15?   4.82 113.8   20 279 145   2
   2024 03 11 12:20  10 37 31.73    +20 09 19.4   0.0084 1.0015 159.4     15?   4.97 113.2   18 281 144   2
   2024 03 11 12:30  10 37 35.03    +20 08 59.8   0.0084 1.0015 159.4 A   15?   5.12 112.6   16 282 144   2
   2024 03 11 12:40  10 37 38.43    +20 08 40.1   0.0084 1.0015 159.4 A   15?   5.26 112.0   14 283 144   2
   2024 03 11 12:50  10 37 41.96    +20 08 20.4   0.0084 1.0015 159.4 A   15?   5.41 111.4   13 285 144   2
   2024 03 11 13:00  10 37 45.59    +20 08 00.7   0.0084 1.0015 159.4 N   15?   5.55 110.8   11 286 144   2
   2024 03 11 13:10  10 37 49.33    +20 07 41.0   0.0084 1.0015 159.4 N   15?   5.70 110.2    9 288 144   2
   2024 03 11 13:20  10 37 53.18    +20 07 21.4   0.0084 1.0015 159.4 N   15?   5.85 109.6    7 289 144   2
   2024 03 11 13:30  10 37 57.15    +20 07 01.7   0.0084 1.0015 159.4 C   15?   5.99 109.1    5 291 144   2
   2024 03 11 13:40  10 38 01.22    +20 06 42.2   0.0084 1.0015 159.4 C   15?   6.13 108.5    3 292 144   2
   ................
   2024 03 12 01:50  10 44 22.43    +19 59 12.4   0.0084 1.0016 160.0 Cm  15?   4.39  85.0   21  81 139   4
   2024 03 12 02:00  10 44 25.48    +19 59 16.2   0.0084 1.0016 160.0 Cm  15?   4.24  85.0   23  82 138   4
   2024 03 12 02:10  10 44 28.43    +19 59 19.8   0.0084 1.0016 160.0 Nm  15?   4.09  85.1   25  83 138   4
   2024 03 12 02:20  10 44 31.26    +19 59 23.3   0.0084 1.0016 160.0 Nm  15?   3.94  85.1   27  85 138   4
   2024 03 12 02:30  10 44 34.00    +19 59 26.6   0.0084 1.0016 160.0 Nm  15?   3.79  85.2   29  86 138   4
   2024 03 12 02:40  10 44 36.63    +19 59 29.7   0.0084 1.0016 160.0 Am  15?   3.65  85.4   31  88 138   4
   2024 03 12 02:50  10 44 39.16    +19 59 32.5   0.0084 1.0016 160.0 Am  15?   3.51  85.6   33  89 138   4
   2024 03 12 03:00  10 44 41.59    +19 59 35.1   0.0084 1.0016 160.0 Am  15?   3.37  85.9   35  91 138   4
   2024 03 12 03:10  10 44 43.93    +19 59 37.4   0.0084 1.0016 160.0  m  15?   3.23  86.2   37  92 138   4
   2024 03 12 03:20  10 44 46.17    +19 59 39.4   0.0084 1.0016 160.0  m  15?   3.10  86.6   39  94 138   4
   2024 03 12 03:30  10 44 48.32    +19 59 41.1   0.0084 1.0016 160.0  m  15?   2.97  87.1   41  96 138   4
   2024 03 12 03:40  10 44 50.38    +19 59 42.4   0.0084 1.0016 160.0  m  15?   2.85  87.7   43  98 138   4
   2024 03 12 03:50  10 44 52.36    +19 59 43.5   0.0084 1.0016 160.0     15?   2.73  88.3   45  99 137   4
   2024 03 12 04:00  10 44 54.25    +19 59 44.1   0.0084 1.0016 160.0     15?   2.61  89.1   47 101 137   4
   2024 03 12 04:10  10 44 56.07    +19 59 44.3   0.0084 1.0016 160.0     15?   2.50  89.9   49 103 137   4
   2024 03 12 04:20  10 44 57.81    +19 59 44.2   0.0084 1.0016 160.0     15?   2.40  90.9   51 105 137   4
   2024 03 12 04:30  10 44 59.48    +19 59 43.6   0.0084 1.0016 160.0     15?   2.30  92.0   52 108 137   4
   2024 03 12 04:40  10 45 01.08    +19 59 42.6   0.0084 1.0016 160.0     15?   2.21  93.2   54 110 137   4
   2024 03 12 04:50  10 45 02.61    +19 59 41.1   0.0084 1.0016 160.0     15?   2.13  94.6   56 113 137   4
   2024 03 12 05:00  10 45 04.09    +19 59 39.2   0.0084 1.0016 160.0     15?   2.05  96.1   58 116 137   4
   2024 03 12 05:10  10 45 05.51    +19 59 36.8   0.0084 1.0016 160.0     15?   1.98  97.7   60 119 137   4
   2024 03 12 05:20  10 45 06.88    +19 59 34.0   0.0084 1.0016 160.0     15?   1.92  99.4   61 122 137   4
   2024 03 12 05:30  10 45 08.20    +19 59 30.6   0.0084 1.0017 160.0     15?   1.87 101.2   63 126 136   4
   2024 03 12 05:40  10 45 09.48    +19 59 26.7   0.0084 1.0017 160.0     15?   1.82 103.1   65 130 136   4
   2024 03 12 05:50  10 45 10.72    +19 59 22.3   0.0084 1.0017 160.0     15?   1.79 105.1   66 134 136   4
   2024 03 12 06:00  10 45 11.93    +19 59 17.4   0.0084 1.0017 160.0     15?   1.76 107.1   67 139 136   4
   2024 03 12 06:10  10 45 13.11    +19 59 12.0   0.0084 1.0017 160.0     15?   1.74 109.1   69 145 136   4
   2024 03 12 06:20  10 45 14.26    +19 59 06.0   0.0084 1.0017 160.0     15?   1.73 111.1   70 151 136   5
   2024 03 12 06:30  10 45 15.40    +19 58 59.5   0.0084 1.0017 160.0     15?   1.73 113.1   70 158 136   5
   2024 03 12 06:40  10 45 16.52    +19 58 52.4   0.0084 1.0017 160.0     15?   1.74 115.0   71 165 136   5
   2024 03 12 06:50  10 45 17.63    +19 58 44.8   0.0084 1.0017 160.0     15?   1.75 116.7   71 172 136   5
   2024 03 12 07:00  10 45 18.74    +19 58 36.7   0.0084 1.0017 160.0  t  15?   1.77 118.3   72 180 135   5
   2024 03 12 07:10  10 45 19.85    +19 58 28.0   0.0084 1.0017 160.0     15?   1.80 119.8   71 187 135   5
   2024 03 12 07:20  10 45 20.96    +19 58 18.8   0.0084 1.0017 160.0     15?   1.84 121.1   71 195 135   5
   2024 03 12 07:30  10 45 22.08    +19 58 09.0   0.0084 1.0017 160.0     15?   1.88 122.2   70 202 135   5
   2024 03 12 07:40  10 45 23.22    +19 57 58.7   0.0084 1.0017 160.0     15?   1.93 123.2   70 208 135   5
   2024 03 12 07:50  10 45 24.38    +19 57 47.9   0.0084 1.0017 160.0     15?   1.99 124.0   69 214 135   5
   2024 03 12 08:00  10 45 25.56    +19 57 36.5   0.0084 1.0017 160.0     15?   2.05 124.6   67 220 135   5
   2024 03 12 08:10  10 45 26.78    +19 57 24.6   0.0084 1.0017 160.0     15?   2.12 125.1   66 225 135   5
   2024 03 12 08:20  10 45 28.02    +19 57 12.2   0.0084 1.0017 160.0     15?   2.19 125.4   64 229 134   5
   2024 03 12 08:30  10 45 29.31    +19 56 59.2   0.0084 1.0017 160.0     15?   2.27 125.6   63 233 134   5
   2024 03 12 08:40  10 45 30.64    +19 56 45.8   0.0084 1.0017 160.0     15?   2.35 125.6   61 237 134   5
   2024 03 12 08:50  10 45 32.02    +19 56 31.9   0.0084 1.0017 160.0     15?   2.43 125.6   60 240 134   5
   2024 03 12 09:00  10 45 33.45    +19 56 17.5   0.0084 1.0017 160.0     15?   2.52 125.5   58 243 134   5
   2024 03 12 09:10  10 45 34.93    +19 56 02.6   0.0084 1.0017 160.0     15?   2.62 125.2   56 246 134   5
   2024 03 12 09:20  10 45 36.48    +19 55 47.3   0.0084 1.0017 160.0     15?   2.72 124.9   54 249 134   5
   2024 03 12 09:30  10 45 38.09    +19 55 31.5   0.0084 1.0017 160.0     15?   2.82 124.6   52 251 134   5
   2024 03 12 09:40  10 45 39.77    +19 55 15.3   0.0084 1.0017 160.0     15?   2.92 124.1   50 254 133   6
   2024 03 12 09:50  10 45 41.53    +19 54 58.7   0.0084 1.0017 160.0     15?   3.03 123.6   49 256 133   6
   2024 03 12 10:00  10 45 43.36    +19 54 41.7   0.0084 1.0017 160.0     15?   3.15 123.1   47 258 133   6
   2024 03 12 10:10  10 45 45.27    +19 54 24.3   0.0084 1.0017 160.0     15?   3.26 122.6   45 260 133   6
   2024 03 12 10:20  10 45 47.26    +19 54 06.6   0.0084 1.0017 160.0     15?   3.38 122.0   43 261 133   6
   2024 03 12 10:30  10 45 49.34    +19 53 48.5   0.0084 1.0017 160.0     15?   3.51 121.4   41 263 133   6
   2024 03 12 10:40  10 45 51.50    +19 53 30.0   0.0084 1.0017 160.0     15?   3.63 120.8   39 265 133   6
   2024 03 12 10:50  10 45 53.76    +19 53 11.3   0.0084 1.0017 160.0     15?   3.76 120.1   37 267 133   6
   2024 03 12 11:00  10 45 56.12    +19 52 52.3   0.0084 1.0017 160.0     15?   3.89 119.5   35 268 133   6
   2024 03 12 11:10  10 45 58.57    +19 52 33.0   0.0084 1.0017 160.0     15?   4.03 118.8   33 270 132   6
   2024 03 12 11:20  10 46 01.12    +19 52 13.5   0.0084 1.0017 160.0     15?   4.16 118.2   31 271 132   6
   2024 03 12 11:30  10 46 03.78    +19 51 53.7   0.0084 1.0017 160.0     15?   4.30 117.5   29 273 132   6
   2024 03 12 11:40  10 46 06.53    +19 51 33.7   0.0084 1.0017 160.0     15?   4.44 116.9   27 274 132   6
   2024 03 12 11:50  10 46 09.40    +19 51 13.6   0.0084 1.0017 160.0     15?   4.58 116.2   25 275 132   6
   2024 03 12 12:00  10 46 12.36    +19 50 53.3   0.0084 1.0017 160.0     15?   4.73 115.5   23 277 132   6
   2024 03 12 12:10  10 46 15.44    +19 50 32.8   0.0084 1.0017 160.0     15?   4.87 114.9   21 278 132   6
   2024 03 12 12:20  10 46 18.63    +19 50 12.2   0.0084 1.0017 160.0     15?   5.02 114.3   19 280 132   6
   2024 03 12 12:30  10 46 21.92    +19 49 51.6   0.0084 1.0017 160.0 A   15?   5.16 113.6   17 281 132   6
   2024 03 12 12:40  10 46 25.33    +19 49 30.8   0.0084 1.0017 160.0 A   15?   5.31 113.0   15 282 131   6
   2024 03 12 12:50  10 46 28.85    +19 49 10.1   0.0084 1.0017 160.0 A   15?   5.46 112.4   13 284 131   7
   2024 03 12 13:00  10 46 32.48    +19 48 49.3   0.0084 1.0017 160.1 N   15?   5.60 111.8   11 285 131   7
   2024 03 12 13:10  10 46 36.22    +19 48 28.5   0.0084 1.0017 160.1 N   15?   5.75 111.2   10 287 131   7
   2024 03 12 13:20  10 46 40.07    +19 48 07.7   0.0084 1.0017 160.1 N   15?   5.89 110.6    8 288 131   7
   2024 03 12 13:30  10 46 44.04    +19 47 46.9   0.0084 1.0017 160.1 C   15?   6.04 110.1    6 290 131   7
   2024 03 12 13:40  10 46 48.11    +19 47 26.3   0.0084 1.0017 160.1 C   15?   6.18 109.5    4 291 131   7
   ................
   2024 03 13 01:50  10 53 13.82    +19 38 13.4   0.0084 1.0019 160.6 Cm  15?   4.54  86.9   20  80 126  10
   2024 03 13 02:00  10 53 16.97    +19 38 15.9   0.0084 1.0019 160.6 Cm  15?   4.38  86.9   22  82 126  10
   2024 03 13 02:10  10 53 20.01    +19 38 18.2   0.0084 1.0019 160.6 Nm  15?   4.23  87.0   24  83 126  10
   2024 03 13 02:20  10 53 22.95    +19 38 20.4   0.0084 1.0019 160.6 Nm  15?   4.08  87.1   26  85 126  10
   2024 03 13 02:30  10 53 25.78    +19 38 22.4   0.0084 1.0019 160.6 Nm  15?   3.93  87.3   28  86 125  10
   2024 03 13 02:40  10 53 28.51    +19 38 24.2   0.0084 1.0019 160.6 Am  15?   3.79  87.5   30  87 125  10
   2024 03 13 02:50  10 53 31.14    +19 38 25.8   0.0084 1.0019 160.6 Am  15?   3.64  87.8   32  89 125  10
   2024 03 13 03:00  10 53 33.67    +19 38 27.1   0.0084 1.0019 160.6 Am  15?   3.50  88.1   34  90 125  10
   2024 03 13 03:10  10 53 36.09    +19 38 28.1   0.0084 1.0019 160.6  m  15?   3.36  88.5   36  92 125  10
   2024 03 13 03:20  10 53 38.43    +19 38 28.9   0.0084 1.0019 160.6  m  15?   3.23  88.9   38  94 125  10
   2024 03 13 03:30  10 53 40.67    +19 38 29.4   0.0084 1.0019 160.6  m  15?   3.10  89.5   40  95 125  10
   2024 03 13 03:40  10 53 42.82    +19 38 29.6   0.0083 1.0019 160.6  m  15?   2.98  90.1   42  97 125  10
   2024 03 13 03:50  10 53 44.88    +19 38 29.4   0.0083 1.0019 160.6  m  15?   2.85  90.8   44  99 125  10
   2024 03 13 04:00  10 53 46.86    +19 38 28.8   0.0083 1.0019 160.6  m  15?   2.74  91.6   46 101 125  10
   2024 03 13 04:10  10 53 48.76    +19 38 27.9   0.0083 1.0019 160.6  m  15?   2.63  92.5   48 103 125  10
   2024 03 13 04:20  10 53 50.58    +19 38 26.6   0.0083 1.0019 160.6  m  15?   2.52  93.5   49 105 125  10
   2024 03 13 04:30  10 53 52.33    +19 38 24.9   0.0083 1.0019 160.6  m  15?   2.43  94.6   51 107 124  10
   2024 03 13 04:40  10 53 54.00    +19 38 22.8   0.0083 1.0019 160.6  m  15?   2.33  95.8   53 109 124  10
   2024 03 13 04:50  10 53 55.61    +19 38 20.2   0.0083 1.0019 160.6  m  15?   2.25  97.2   55 112 124  10
   2024 03 13 05:00  10 53 57.16    +19 38 17.2   0.0083 1.0019 160.6     15?   2.17  98.7   57 115 124  11
   2024 03 13 05:10  10 53 58.65    +19 38 13.7   0.0083 1.0019 160.6     15?   2.10 100.2   59 118 124  11
   2024 03 13 05:20  10 54 00.09    +19 38 09.7   0.0083 1.0019 160.6     15?   2.04 101.9   60 121 124  11
   2024 03 13 05:30  10 54 01.48    +19 38 05.3   0.0083 1.0019 160.6     15?   1.98 103.7   62 124 124  11
   2024 03 13 05:40  10 54 02.82    +19 38 00.3   0.0083 1.0019 160.6     15?   1.94 105.5   64 128 124  11
   2024 03 13 05:50  10 54 04.12    +19 37 54.9   0.0083 1.0019 160.6     15?   1.90 107.4   65 133 124  11
   2024 03 13 06:00  10 54 05.39    +19 37 48.9   0.0083 1.0019 160.6     15?   1.87 109.4   66 137 124  11
   2024 03 13 06:10  10 54 06.62    +19 37 42.5   0.0083 1.0019 160.6     15?   1.85 111.3   68 143 123  11
   2024 03 13 06:20  10 54 07.83    +19 37 35.5   0.0083 1.0019 160.6     15?   1.84 113.2   69 148 123  11
   2024 03 13 06:30  10 54 09.02    +19 37 27.9   0.0083 1.0019 160.6     15?   1.84 115.1   70 155 123  11
   2024 03 13 06:40  10 54 10.19    +19 37 19.9   0.0083 1.0019 160.6     15?   1.84 116.8   70 161 123  11
   2024 03 13 06:50  10 54 11.35    +19 37 11.3   0.0083 1.0019 160.6     15?   1.86 118.5   71 169 123  11
   2024 03 13 07:00  10 54 12.50    +19 37 02.2   0.0083 1.0019 160.6     15?   1.88 120.0   71 176 123  11
   2024 03 13 07:10  10 54 13.65    +19 36 52.5   0.0083 1.0019 160.6  t  15?   1.90 121.4   71 183 123  11
   2024 03 13 07:20  10 54 14.80    +19 36 42.3   0.0083 1.0019 160.6     15?   1.94 122.7   71 191 123  11
   2024 03 13 07:30  10 54 15.96    +19 36 31.6   0.0083 1.0019 160.6     15?   1.98 123.8   70 198 123  11
   2024 03 13 07:40  10 54 17.13    +19 36 20.3   0.0083 1.0019 160.6     15?   2.03 124.7   70 205 122  12
   2024 03 13 07:50  10 54 18.33    +19 36 08.5   0.0083 1.0019 160.6     15?   2.08 125.4   69 211 122  12
   2024 03 13 08:00  10 54 19.54    +19 35 56.1   0.0083 1.0019 160.6     15?   2.14 126.0   68 217 122  12
   2024 03 13 08:10  10 54 20.78    +19 35 43.3   0.0083 1.0019 160.6     15?   2.21 126.5   66 222 122  12
   2024 03 13 08:20  10 54 22.05    +19 35 29.9   0.0083 1.0019 160.6     15?   2.28 126.8   65 227 122  12
   2024 03 13 08:30  10 54 23.36    +19 35 16.0   0.0083 1.0019 160.6     15?   2.35 127.0   63 231 122  12
   2024 03 13 08:40  10 54 24.71    +19 35 01.7   0.0083 1.0019 160.6     15?   2.43 127.0   62 235 122  12
   2024 03 13 08:50  10 54 26.11    +19 34 46.8   0.0083 1.0019 160.6     15?   2.51 127.0   60 238 122  12
   2024 03 13 09:00  10 54 27.55    +19 34 31.4   0.0083 1.0019 160.6     15?   2.60 126.8   58 241 122  12
   2024 03 13 09:10  10 54 29.05    +19 34 15.6   0.0083 1.0019 160.6     15?   2.69 126.6   57 244 121  12
   2024 03 13 09:20  10 54 30.61    +19 33 59.4   0.0083 1.0019 160.6     15?   2.79 126.3   55 247 121  12
   2024 03 13 09:30  10 54 32.24    +19 33 42.6   0.0083 1.0020 160.6     15?   2.89 125.9   53 250 121  12
   2024 03 13 09:40  10 54 33.93    +19 33 25.5   0.0083 1.0020 160.6     15?   2.99 125.4   51 252 121  12
   2024 03 13 09:50  10 54 35.69    +19 33 07.9   0.0083 1.0020 160.6     15?   3.10 125.0   49 254 121  12
   2024 03 13 10:00  10 54 37.52    +19 32 50.0   0.0083 1.0020 160.6     15?   3.21 124.4   47 256 121  12
   2024 03 13 10:10  10 54 39.43    +19 32 31.6   0.0083 1.0020 160.6     15?   3.33 123.9   45 258 121  13
   2024 03 13 10:20  10 54 41.43    +19 32 12.9   0.0083 1.0020 160.6     15?   3.44 123.3   43 260 121  13
   2024 03 13 10:30  10 54 43.51    +19 31 53.9   0.0083 1.0020 160.6     15?   3.56 122.6   42 262 120  13
   2024 03 13 10:40  10 54 45.68    +19 31 34.5   0.0083 1.0020 160.6     15?   3.69 122.0   40 264 120  13
   2024 03 13 10:50  10 54 47.94    +19 31 14.8   0.0083 1.0020 160.6     15?   3.82 121.3   38 265 120  13
   2024 03 13 11:00  10 54 50.29    +19 30 54.7   0.0083 1.0020 160.6     15?   3.95 120.7   36 267 120  13
   2024 03 13 11:10  10 54 52.74    +19 30 34.5   0.0083 1.0020 160.6     15?   4.08 120.0   34 268 120  13
   2024 03 13 11:20  10 54 55.28    +19 30 13.9   0.0083 1.0020 160.6     15?   4.21 119.3   32 270 120  13
   2024 03 13 11:30  10 54 57.93    +19 29 53.2   0.0083 1.0020 160.6     15?   4.35 118.7   30 272 120  13
   2024 03 13 11:40  10 55 00.68    +19 29 32.2   0.0083 1.0020 160.6     15?   4.49 118.0   28 273 120  13
   2024 03 13 11:50  10 55 03.54    +19 29 11.0   0.0083 1.0020 160.6     15?   4.63 117.3   26 274 120  13
   2024 03 13 12:00  10 55 06.50    +19 28 49.7   0.0083 1.0020 160.7     15?   4.77 116.7   24 276 119  13
   2024 03 13 12:10  10 55 09.57    +19 28 28.2   0.0083 1.0020 160.7     15?   4.92 116.0   22 277 119  13
   2024 03 13 12:20  10 55 12.75    +19 28 06.6   0.0083 1.0020 160.7     15?   5.06 115.3   20 279 119  14
   2024 03 13 12:30  10 55 16.04    +19 27 44.9   0.0084 1.0020 160.7 A   15?   5.21 114.7   18 280 119  14
   2024 03 13 12:40  10 55 19.44    +19 27 23.1   0.0084 1.0020 160.7 A   15?   5.35 114.1   16 281 119  14
   2024 03 13 12:50  10 55 22.95    +19 27 01.3   0.0084 1.0020 160.7 A   15?   5.50 113.4   14 283 119  14
   2024 03 13 13:00  10 55 26.57    +19 26 39.4   0.0084 1.0020 160.7 N   15?   5.64 112.8   12 284 119  14
   2024 03 13 13:10  10 55 30.30    +19 26 17.5   0.0084 1.0020 160.7 N   15?   5.79 112.2   10 286 119  14
   2024 03 13 13:20  10 55 34.15    +19 25 55.6   0.0084 1.0020 160.7 N   15?   5.94 111.6    8 287 119  14
   2024 03 13 13:30  10 55 38.10    +19 25 33.7   0.0084 1.0020 160.7 C   15?   6.08 111.0    6 289 118  14
   2024 03 13 13:40  10 55 42.17    +19 25 11.9   0.0084 1.0020 160.7 C   15?   6.23 110.5    5 290 118  14
   ................
   2024 03 14 01:50  11 02 11.92    +19 14 13.7   0.0083 1.0021 161.2 Cm  15?   4.68  88.7   19  80 113  18
   2024 03 14 02:00  11 02 15.17    +19 14 14.8   0.0083 1.0021 161.2 Cm  15?   4.53  88.8   21  81 113  18
   2024 03 14 02:10  11 02 18.31    +19 14 15.7   0.0083 1.0021 161.2 Nm  15?   4.37  88.9   23  83 113  18
   2024 03 14 02:20  11 02 21.35    +19 14 16.5   0.0083 1.0021 161.2 Nm  15?   4.22  89.1   25  84 113  18
   2024 03 14 02:30  11 02 24.28    +19 14 17.2   0.0083 1.0021 161.2 Nm  15?   4.07  89.3   27  86 113  18
   2024 03 14 02:40  11 02 27.10    +19 14 17.6   0.0083 1.0021 161.2 Am  15?   3.92  89.5   29  87 113  18
   2024 03 14 02:50  11 02 29.82    +19 14 17.9   0.0083 1.0021 161.2 Am  15?   3.78  89.8   31  89 113  18
   2024 03 14 03:00  11 02 32.44    +19 14 17.9   0.0083 1.0021 161.2 Am  15?   3.64  90.2   33  90 113  18
   2024 03 14 03:10  11 02 34.96    +19 14 17.6   0.0083 1.0021 161.2  m  15?   3.50  90.6   35  92 113  18
   2024 03 14 03:20  11 02 37.38    +19 14 17.1   0.0083 1.0021 161.2  m  15?   3.36  91.1   37  93 113  18
   2024 03 14 03:30  11 02 39.71    +19 14 16.3   0.0083 1.0021 161.2  m  15?   3.23  91.7   39  95 113  18
   2024 03 14 03:40  11 02 41.95    +19 14 15.2   0.0083 1.0021 161.2  m  15?   3.11  92.4   40  97 113  18
   2024 03 14 03:50  11 02 44.09    +19 14 13.8   0.0083 1.0022 161.2  m  15?   2.98  93.1   42  98 113  18
   2024 03 14 04:00  11 02 46.16    +19 14 12.0   0.0083 1.0022 161.2  m  15?   2.87  93.9   44 100 112  19
   2024 03 14 04:10  11 02 48.13    +19 14 09.9   0.0083 1.0022 161.2  m  15?   2.76  94.9   46 102 112  19
   2024 03 14 04:20  11 02 50.03    +19 14 07.4   0.0083 1.0022 161.2  m  15?   2.65  95.9   48 104 112  19
   2024 03 14 04:30  11 02 51.86    +19 14 04.4   0.0083 1.0022 161.2  m  15?   2.55  97.0   50 106 112  19
   2024 03 14 04:40  11 02 53.61    +19 14 01.1   0.0083 1.0022 161.2  m  15?   2.46  98.3   52 109 112  19
   2024 03 14 04:50  11 02 55.30    +19 13 57.4   0.0083 1.0022 161.2  m  15?   2.37  99.6   54 111 112  19
   2024 03 14 05:00  11 02 56.91    +19 13 53.2   0.0083 1.0022 161.2  m  15?   2.29 101.0   56 114 112  19
   2024 03 14 05:10  11 02 58.47    +19 13 48.6   0.0083 1.0022 161.2  m  15?   2.22 102.6   57 117 112  19
   2024 03 14 05:20  11 02 59.98    +19 13 43.5   0.0083 1.0022 161.2  m  15?   2.16 104.3   59 120 112  19
   2024 03 14 05:30  11 03 01.43    +19 13 37.9   0.0083 1.0022 161.2  m  15?   2.10 106.0   61 123 112  19
   2024 03 14 05:40  11 03 02.83    +19 13 31.9   0.0083 1.0022 161.2  m  15?   2.06 107.8   62 127 112  19
   2024 03 14 05:50  11 03 04.20    +19 13 25.4   0.0083 1.0022 161.2  m  15?   2.02 109.6   64 131 112  19
   2024 03 14 06:00  11 03 05.52    +19 13 18.3   0.0083 1.0022 161.2  m  15?   1.99 111.5   65 135 111  19
   2024 03 14 06:10  11 03 06.81    +19 13 10.8   0.0083 1.0022 161.2  m  15?   1.97 113.3   67 140 111  19
   2024 03 14 06:20  11 03 08.07    +19 13 02.8   0.0083 1.0022 161.2     15?   1.95 115.2   68 146 111  19
   2024 03 14 06:30  11 03 09.31    +19 12 54.2   0.0083 1.0022 161.2     15?   1.95 116.9   69 152 111  19
   2024 03 14 06:40  11 03 10.52    +19 12 45.1   0.0083 1.0022 161.2     15?   1.95 118.6   70 158 111  20
   2024 03 14 06:50  11 03 11.73    +19 12 35.5   0.0083 1.0022 161.2     15?   1.96 120.2   70 165 111  20
   2024 03 14 07:00  11 03 12.92    +19 12 25.3   0.0083 1.0022 161.2     15?   1.98 121.7   71 172 111  20
   2024 03 14 07:10  11 03 14.11    +19 12 14.7   0.0083 1.0022 161.2  t  15?   2.01 123.0   71 180 111  20
   2024 03 14 07:20  11 03 15.30    +19 12 03.4   0.0083 1.0022 161.2     15?   2.04 124.2   71 187 111  20
   2024 03 14 07:30  11 03 16.49    +19 11 51.7   0.0083 1.0022 161.2     15?   2.08 125.2   70 194 111  20
   2024 03 14 07:40  11 03 17.70    +19 11 39.5   0.0083 1.0022 161.2     15?   2.12 126.1   70 201 110  20
   2024 03 14 07:50  11 03 18.92    +19 11 26.7   0.0083 1.0022 161.2     15?   2.18 126.8   69 207 110  20
   2024 03 14 08:00  11 03 20.16    +19 11 13.4   0.0083 1.0022 161.2     15?   2.23 127.4   68 213 110  20
   2024 03 14 08:10  11 03 21.42    +19 10 59.5   0.0083 1.0022 161.2     15?   2.29 127.8   67 219 110  20
   2024 03 14 08:20  11 03 22.72    +19 10 45.2   0.0083 1.0022 161.2     15?   2.36 128.1   65 224 110  20
   2024 03 14 08:30  11 03 24.05    +19 10 30.4   0.0083 1.0022 161.2     15?   2.43 128.3   64 228 110  20
   2024 03 14 08:40  11 03 25.41    +19 10 15.1   0.0083 1.0022 161.2     15?   2.51 128.3   62 232 110  20
   2024 03 14 08:50  11 03 26.83    +19 09 59.2   0.0083 1.0022 161.2     15?   2.59 128.3   61 236 110  21
   2024 03 14 09:00  11 03 28.29    +19 09 42.9   0.0083 1.0022 161.2     15?   2.68 128.1   59 239 110  21
   2024 03 14 09:10  11 03 29.80    +19 09 26.2   0.0083 1.0022 161.2     15?   2.77 127.9   57 242 109  21
   2024 03 14 09:20  11 03 31.37    +19 09 09.0   0.0083 1.0022 161.2     15?   2.86 127.6   56 245 109  21
   2024 03 14 09:30  11 03 33.00    +19 08 51.3   0.0083 1.0022 161.2     15?   2.96 127.2   54 248 109  21
   2024 03 14 09:40  11 03 34.69    +19 08 33.2   0.0083 1.0022 161.2     15?   3.06 126.7   52 250 109  21
   2024 03 14 09:50  11 03 36.46    +19 08 14.7   0.0083 1.0022 161.2     15?   3.16 126.2   50 253 109  21
   2024 03 14 10:00  11 03 38.29    +19 07 55.8   0.0083 1.0022 161.2     15?   3.27 125.7   48 255 109  21
   2024 03 14 10:10  11 03 40.21    +19 07 36.5   0.0083 1.0022 161.2     15?   3.38 125.1   46 257 109  21
   2024 03 14 10:20  11 03 42.20    +19 07 16.9   0.0083 1.0022 161.2     15?   3.50 124.5   44 259 109  21
   2024 03 14 10:30  11 03 44.28    +19 06 56.9   0.0083 1.0022 161.2     15?   3.62 123.9   42 261 109  21
   2024 03 14 10:40  11 03 46.44    +19 06 36.5   0.0083 1.0022 161.2     15?   3.74 123.2   40 262 108  21
   2024 03 14 10:50  11 03 48.69    +19 06 15.9   0.0083 1.0022 161.3     15?   3.87 122.6   38 264 108  22
   2024 03 14 11:00  11 03 51.04    +19 05 54.9   0.0083 1.0022 161.3     15?   3.99 121.9   36 266 108  22
   2024 03 14 11:10  11 03 53.48    +19 05 33.7   0.0083 1.0022 161.3     15?   4.12 121.2   34 267 108  22
   2024 03 14 11:20  11 03 56.01    +19 05 12.2   0.0083 1.0022 161.3     15?   4.26 120.5   32 269 108  22
   2024 03 14 11:30  11 03 58.65    +19 04 50.4   0.0083 1.0022 161.3     15?   4.39 119.8   30 270 108  22
   2024 03 14 11:40  11 04 01.39    +19 04 28.5   0.0083 1.0022 161.3     15?   4.53 119.1   28 272 108  22
   2024 03 14 11:50  11 04 04.24    +19 04 06.3   0.0083 1.0022 161.3     15?   4.67 118.4   26 273 108  22
   2024 03 14 12:00  11 04 07.18    +19 03 44.0   0.0083 1.0022 161.3     15?   4.81 117.8   25 275 108  22
   2024 03 14 12:10  11 04 10.24    +19 03 21.5   0.0083 1.0022 161.3     15?   4.95 117.1   23 276 107  22
   2024 03 14 12:20  11 04 13.41    +19 02 58.8   0.0083 1.0022 161.3 A   15?   5.10 116.4   21 278 107  22
   2024 03 14 12:30  11 04 16.68    +19 02 36.1   0.0083 1.0022 161.3 A   15?   5.24 115.8   19 279 107  22
   2024 03 14 12:40  11 04 20.06    +19 02 13.3   0.0083 1.0022 161.3 A   15?   5.39 115.1   17 280 107  23
   2024 03 14 12:50  11 04 23.56    +19 01 50.4   0.0083 1.0022 161.3 N   15?   5.53 114.5   15 282 107  23
   2024 03 14 13:00  11 04 27.17    +19 01 27.4   0.0083 1.0023 161.3 N   15?   5.68 113.8   13 283 107  23
   2024 03 14 13:10  11 04 30.89    +19 01 04.5   0.0083 1.0023 161.3 N   15?   5.83 113.2   11 285 107  23
   2024 03 14 13:20  11 04 34.72    +19 00 41.5   0.0083 1.0023 161.3 N   15?   5.97 112.6    9 286 107  23
   2024 03 14 13:30  11 04 38.66    +19 00 18.6   0.0083 1.0023 161.3 C   15?   6.12 112.0    7 287 107  23
   ................
   2024 03 15 01:50  11 11 15.96    +18 47 11.0   0.0083 1.0024 161.8 Cm  15?   4.83  90.4   18  80 101  28
   2024 03 15 02:00  11 11 19.31    +18 47 10.6   0.0083 1.0024 161.8 Cm  15?   4.67  90.6   20  81 101  28
   2024 03 15 02:10  11 11 22.54    +18 47 10.2   0.0083 1.0024 161.8 Nm  15?   4.52  90.7   22  82 101  28
   2024 03 15 02:20  11 11 25.67    +18 47 09.5   0.0083 1.0024 161.8 Nm  15?   4.37  90.9   23  84 101  28
   2024 03 15 02:30  11 11 28.69    +18 47 08.8   0.0083 1.0024 161.8 Nm  15?   4.21  91.2   25  85 101  28
   2024 03 15 02:40  11 11 31.61    +18 47 07.8   0.0083 1.0024 161.8 Am  15?   4.07  91.5   27  87 101  28
   2024 03 15 02:50  11 11 34.42    +18 47 06.7   0.0083 1.0024 161.8 Am  15?   3.92  91.8   29  88 101  28
   2024 03 15 03:00  11 11 37.12    +18 47 05.3   0.0083 1.0024 161.8 Am  15?   3.78  92.3   31  90 101  28
   2024 03 15 03:10  11 11 39.73    +18 47 03.7   0.0083 1.0024 161.8  m  15?   3.64  92.7   33  91 101  28
   2024 03 15 03:20  11 11 42.24    +18 47 01.9   0.0083 1.0024 161.8  m  15?   3.50  93.3   35  93 101  28
   2024 03 15 03:30  11 11 44.65    +18 46 59.8   0.0083 1.0024 161.8  m  15?   3.37  93.9   37  95 101  28
   2024 03 15 03:40  11 11 46.97    +18 46 57.4   0.0083 1.0024 161.8  m  15?   3.24  94.6   39  96 101  28
   2024 03 15 03:50  11 11 49.20    +18 46 54.6   0.0083 1.0024 161.8  m  15?   3.12  95.3   41  98 101  28
   2024 03 15 04:00  11 11 51.34    +18 46 51.6   0.0083 1.0024 161.8  m  15?   3.00  96.2   43 100 101  28
   2024 03 15 04:10  11 11 53.40    +18 46 48.2   0.0083 1.0024 161.8  m  15?   2.89  97.2   45 102 101  28
   2024 03 15 04:20  11 11 55.38    +18 46 44.4   0.0083 1.0024 161.8  m  15?   2.78  98.2   47 104 101  28
   2024 03 15 04:30  11 11 57.28    +18 46 40.3   0.0083 1.0024 161.8  m  15?   2.68  99.3   49 106 100  28
   2024 03 15 04:40  11 11 59.10    +18 46 35.8   0.0083 1.0024 161.8  m  15?   2.58 100.5   51 108 100  28
   2024 03 15 04:50  11 12 00.85    +18 46 30.8   0.0083 1.0024 161.8  m  15?   2.50 101.9   53 110 100  28
   2024 03 15 05:00  11 12 02.54    +18 46 25.5   0.0083 1.0024 161.8  m  15?   2.42 103.3   54 113 100  29
   2024 03 15 05:10  11 12 04.17    +18 46 19.7   0.0083 1.0024 161.8  m  15?   2.34 104.9   56 116 100  29
   2024 03 15 05:20  11 12 05.73    +18 46 13.4   0.0083 1.0024 161.8  m  15?   2.28 106.5   58 119 100  29
   2024 03 15 05:30  11 12 07.25    +18 46 06.7   0.0083 1.0024 161.8  m  15?   2.22 108.2   60 122 100  29
   2024 03 15 05:40  11 12 08.71    +18 45 59.6   0.0083 1.0024 161.8  m  15?   2.18 109.9   61 126 100  29
   2024 03 15 05:50  11 12 10.13    +18 45 51.9   0.0083 1.0024 161.8  m  15?   2.14 111.7   63 129 100  29
   2024 03 15 06:00  11 12 11.51    +18 45 43.8   0.0083 1.0024 161.8  m  15?   2.10 113.5   64 134 100  29
   2024 03 15 06:10  11 12 12.85    +18 45 35.2   0.0083 1.0024 161.8  m  15?   2.08 115.2   66 138 100  29
   2024 03 15 06:20  11 12 14.16    +18 45 26.0   0.0083 1.0024 161.8  m  15?   2.07 117.0   67 144 100  29
   2024 03 15 06:30  11 12 15.44    +18 45 16.4   0.0083 1.0024 161.8  m  15?   2.06 118.7   68 149 100  29
   2024 03 15 06:40  11 12 16.70    +18 45 06.3   0.0083 1.0024 161.8  m  15?   2.06 120.3   69 155  99  29
   2024 03 15 06:50  11 12 17.95    +18 44 55.6   0.0083 1.0024 161.8  m  15?   2.07 121.8   70 162  99  29
   2024 03 15 07:00  11 12 19.18    +18 44 44.4   0.0083 1.0024 161.8  m  15?   2.09 123.2   70 169  99  29
   2024 03 15 07:10  11 12 20.41    +18 44 32.7   0.0083 1.0025 161.8  m  15?   2.11 124.5   70 176  99  29
   2024 03 15 07:20  11 12 21.63    +18 44 20.5   0.0083 1.0025 161.8  t  15?   2.14 125.6   70 183  99  30
   2024 03 15 07:30  11 12 22.85    +18 44 07.8   0.0083 1.0025 161.8     15?   2.18 126.6   70 190  99  30
   2024 03 15 07:40  11 12 24.09    +18 43 54.5   0.0083 1.0025 161.8     15?   2.22 127.5   70 197  99  30
   2024 03 15 07:50  11 12 25.33    +18 43 40.8   0.0083 1.0025 161.8     15?   2.27 128.2   69 204  99  30
   2024 03 15 08:00  11 12 26.60    +18 43 26.5   0.0083 1.0025 161.8     15?   2.32 128.7   68 210  99  30
   2024 03 15 08:10  11 12 27.88    +18 43 11.7   0.0083 1.0025 161.8     15?   2.38 129.2   67 215  99  30
   2024 03 15 08:20  11 12 29.20    +18 42 56.4   0.0083 1.0025 161.8     15?   2.44 129.4   66 221  98  30
   2024 03 15 08:30  11 12 30.54    +18 42 40.7   0.0083 1.0025 161.8     15?   2.51 129.6   64 225  98  30
   2024 03 15 08:40  11 12 31.93    +18 42 24.4   0.0083 1.0025 161.8     15?   2.59 129.6   63 230  98  30
   2024 03 15 08:50  11 12 33.35    +18 42 07.6   0.0083 1.0025 161.8     15?   2.67 129.6   61 233  98  30
   2024 03 15 09:00  11 12 34.82    +18 41 50.4   0.0083 1.0025 161.8     15?   2.75 129.4   60 237  98  30
   2024 03 15 09:10  11 12 36.34    +18 41 32.7   0.0083 1.0025 161.8     15?   2.83 129.2   58 240  98  30
   2024 03 15 09:20  11 12 37.91    +18 41 14.6   0.0083 1.0025 161.8     15?   2.93 128.9   56 243  98  31
   2024 03 15 09:30  11 12 39.54    +18 40 56.0   0.0083 1.0025 161.8     15?   3.02 128.5   54 246  98  31
   2024 03 15 09:40  11 12 41.24    +18 40 37.0   0.0083 1.0025 161.8     15?   3.12 128.0   53 248  98  31
   2024 03 15 09:50  11 12 43.00    +18 40 17.6   0.0083 1.0025 161.9     15?   3.22 127.5   51 251  98  31
   2024 03 15 10:00  11 12 44.84    +18 39 57.8   0.0083 1.0025 161.9     15?   3.33 127.0   49 253  97  31
   2024 03 15 10:10  11 12 46.74    +18 39 37.5   0.0083 1.0025 161.9     15?   3.44 126.4   47 255  97  31
   2024 03 15 10:20  11 12 48.73    +18 39 17.0   0.0083 1.0025 161.9     15?   3.55 125.8   45 257  97  31
   2024 03 15 10:30  11 12 50.80    +18 38 56.0   0.0083 1.0025 161.9     15?   3.67 125.1   43 259  97  31
   2024 03 15 10:40  11 12 52.95    +18 38 34.8   0.0083 1.0025 161.9     15?   3.79 124.4   41 261  97  31
   2024 03 15 10:50  11 12 55.19    +18 38 13.2   0.0083 1.0025 161.9     15?   3.91 123.8   39 263  97  31
   2024 03 15 11:00  11 12 57.52    +18 37 51.3   0.0083 1.0025 161.9     15?   4.04 123.1   37 264  97  31
   2024 03 15 11:10  11 12 59.95    +18 37 29.1   0.0083 1.0025 161.9     15?   4.16 122.4   35 266  97  32
   2024 03 15 11:20  11 13 02.47    +18 37 06.7   0.0083 1.0025 161.9     15?   4.30 121.7   33 268  97  32
   2024 03 15 11:30  11 13 05.09    +18 36 44.0   0.0083 1.0025 161.9     15?   4.43 121.0   31 269  96  32
   2024 03 15 11:40  11 13 07.82    +18 36 21.1   0.0083 1.0025 161.9     15?   4.56 120.3   29 271  96  32
   2024 03 15 11:50  11 13 10.64    +18 35 58.0   0.0083 1.0025 161.9     15?   4.70 119.6   27 272  96  32
   2024 03 15 12:00  11 13 13.57    +18 35 34.7   0.0083 1.0025 161.9     15?   4.84 118.9   25 274  96  32
   2024 03 15 12:10  11 13 16.61    +18 35 11.2   0.0083 1.0025 161.9     15?   4.98 118.2   23 275  96  32
   2024 03 15 12:20  11 13 19.75    +18 34 47.6   0.0083 1.0025 161.9 A   15?   5.13 117.5   21 276  96  32
   2024 03 15 12:30  11 13 23.00    +18 34 23.9   0.0083 1.0025 161.9 A   15?   5.27 116.8   19 278  96  32
   2024 03 15 12:40  11 13 26.37    +18 34 00.1   0.0083 1.0025 161.9 A   15?   5.41 116.1   17 279  96  32
   2024 03 15 12:50  11 13 29.84    +18 33 36.2   0.0083 1.0025 161.9 N   15?   5.56 115.5   15 281  96  33
   2024 03 15 13:00  11 13 33.43    +18 33 12.2   0.0083 1.0025 161.9 N   15?   5.71 114.8   14 282  96  33
   2024 03 15 13:10  11 13 37.12    +18 32 48.3   0.0083 1.0025 162.0 N   15?   5.85 114.2   12 284  95  33
   2024 03 15 13:20  11 13 40.93    +18 32 24.3   0.0083 1.0025 162.0 C   15?   6.00 113.6   10 285  95  33
   2024 03 15 13:30  11 13 44.85    +18 32 00.3   0.0083 1.0025 162.0 C   15?   6.14 113.0    8 286  95  33
   ................
   2024 03 16 01:50  11 20 25.02    +18 17 05.5   0.0083 1.0027 162.4 Cm  15?   4.97  92.1   16  79  90  38
   2024 03 16 02:00  11 20 28.46    +18 17 03.6   0.0083 1.0027 162.4 Cm  15?   4.82  92.3   18  81  90  38
   2024 03 16 02:10  11 20 31.78    +18 17 01.7   0.0083 1.0027 162.4 Nm  15?   4.66  92.5   20  82  90  38
   2024 03 16 02:20  11 20 35.00    +18 16 59.6   0.0083 1.0027 162.4 Nm  15?   4.51  92.8   22  84  90  38
   2024 03 16 02:30  11 20 38.10    +18 16 57.4   0.0083 1.0027 162.4 Nm  15?   4.36  93.0   24  85  90  38
   2024 03 16 02:40  11 20 41.10    +18 16 55.0   0.0083 1.0027 162.4 Am  15?   4.21  93.4   26  86  90  38
   2024 03 16 02:50  11 20 44.00    +18 16 52.5   0.0083 1.0027 162.4 Am  15?   4.06  93.8   28  88  90  38
   2024 03 16 03:00  11 20 46.79    +18 16 49.7   0.0083 1.0027 162.4 Am  15?   3.91  94.2   30  89  90  38
   2024 03 16 03:10  11 20 49.48    +18 16 46.7   0.0083 1.0027 162.4 Am  15?   3.77  94.7   32  91  90  38
   2024 03 16 03:20  11 20 52.07    +18 16 43.5   0.0083 1.0027 162.4  m  15?   3.64  95.3   34  93  90  38
   2024 03 16 03:30  11 20 54.57    +18 16 40.1   0.0083 1.0027 162.4  m  15?   3.50  95.9   36  94  90  38
   2024 03 16 03:40  11 20 56.97    +18 16 36.3   0.0083 1.0027 162.4  m  15?   3.37  96.7   38  96  90  38
   2024 03 16 03:50  11 20 59.27    +18 16 32.3   0.0083 1.0027 162.4  m  15?   3.25  97.5   40  98  89  39
   2024 03 16 04:00  11 21 01.49    +18 16 27.9   0.0083 1.0027 162.4  m  15?   3.13  98.3   42  99  89  39
   2024 03 16 04:10  11 21 03.62    +18 16 23.2   0.0082 1.0027 162.4  m  15?   3.02  99.3   44 101  89  39
   2024 03 16 04:20  11 21 05.67    +18 16 18.2   0.0082 1.0027 162.4  m  15?   2.91 100.3   46 103  89  39
   2024 03 16 04:30  11 21 07.64    +18 16 12.8   0.0082 1.0027 162.4  m  15?   2.81 101.5   48 105  89  39
   2024 03 16 04:40  11 21 09.53    +18 16 07.0   0.0082 1.0027 162.4  m  15?   2.71 102.7   49 108  89  39
   2024 03 16 04:50  11 21 11.35    +18 16 00.9   0.0082 1.0027 162.4  m  15?   2.62 104.0   51 110  89  39
   2024 03 16 05:00  11 21 13.11    +18 15 54.3   0.0082 1.0027 162.4  m  15?   2.54 105.4   53 112  89  39
   2024 03 16 05:10  11 21 14.79    +18 15 47.3   0.0082 1.0027 162.4  m  15?   2.47 106.9   55 115  89  39
   2024 03 16 05:20  11 21 16.42    +18 15 39.9   0.0082 1.0027 162.4  m  15?   2.40 108.5   57 118  89  39
   2024 03 16 05:30  11 21 17.99    +18 15 32.0   0.0082 1.0027 162.4  m  15?   2.34 110.2   58 121  89  39
   2024 03 16 05:40  11 21 19.51    +18 15 23.7   0.0082 1.0027 162.4  m  15?   2.29 111.8   60 124  89  39
   2024 03 16 05:50  11 21 20.98    +18 15 14.9   0.0082 1.0027 162.4  m  15?   2.25 113.6   62 128  89  39
   2024 03 16 06:00  11 21 22.41    +18 15 05.7   0.0082 1.0027 162.4  m  15?   2.22 115.3   63 132  89  39
   2024 03 16 06:10  11 21 23.80    +18 14 56.0   0.0082 1.0027 162.4  m  15?   2.19 117.0   65 137  89  39
   2024 03 16 06:20  11 21 25.15    +18 14 45.8   0.0082 1.0027 162.4  m  15?   2.18 118.7   66 142  88  39
   2024 03 16 06:30  11 21 26.48    +18 14 35.1   0.0082 1.0027 162.4  m  15?   2.17 120.3   67 147  88  40
   2024 03 16 06:40  11 21 27.78    +18 14 23.9   0.0082 1.0027 162.4  m  15?   2.17 121.9   68 153  88  40
   2024 03 16 06:50  11 21 29.06    +18 14 12.2   0.0082 1.0027 162.4  m  15?   2.17 123.3   69 159  88  40
   2024 03 16 07:00  11 21 30.33    +18 14 00.0   0.0082 1.0027 162.4  m  15?   2.19 124.7   69 165  88  40
   2024 03 16 07:10  11 21 31.59    +18 13 47.3   0.0082 1.0027 162.4  m  15?   2.21 125.9   70 172  88  40
   2024 03 16 07:20  11 21 32.84    +18 13 34.1   0.0082 1.0027 162.4  e  15?   2.24 127.0   70 179  88  40
   2024 03 16 07:30  11 21 34.10    +18 13 20.3   0.0082 1.0027 162.4  t  15?   2.27 128.0   70 186  88  40
   2024 03 16 07:40  11 21 35.35    +18 13 06.1   0.0082 1.0027 162.4  m  15?   2.31 128.8   69 193  88  40
   2024 03 16 07:50  11 21 36.62    +18 12 51.4   0.0082 1.0027 162.4  m  15?   2.35 129.5   69 200  88  40
   2024 03 16 08:00  11 21 37.91    +18 12 36.1   0.0082 1.0027 162.4  m  15?   2.41 130.0   68 206  88  40
   2024 03 16 08:10  11 21 39.21    +18 12 20.4   0.0082 1.0027 162.4  m  15?   2.46 130.4   67 212  88  40
   2024 03 16 08:20  11 21 40.54    +18 12 04.2   0.0082 1.0027 162.4  m  15?   2.52 130.7   66 217  87  40
   2024 03 16 08:30  11 21 41.89    +18 11 47.5   0.0082 1.0027 162.4  m  15?   2.59 130.9   65 222  87  40
   2024 03 16 08:40  11 21 43.29    +18 11 30.3   0.0082 1.0027 162.4     15?   2.66 130.9   63 227  87  41
   2024 03 16 08:50  11 21 44.72    +18 11 12.6   0.0082 1.0027 162.4     15?   2.74 130.9   62 231  87  41
   2024 03 16 09:00  11 21 46.19    +18 10 54.5   0.0082 1.0027 162.4     15?   2.81 130.7   60 234  87  41
   2024 03 16 09:10  11 21 47.71    +18 10 35.9   0.0082 1.0027 162.4     15?   2.90 130.5   58 238  87  41
   2024 03 16 09:20  11 21 49.29    +18 10 16.9   0.0082 1.0027 162.4     15?   2.99 130.1   57 241  87  41
   2024 03 16 09:30  11 21 50.92    +18 09 57.4   0.0082 1.0027 162.4     15?   3.08 129.7   55 244  87  41
   2024 03 16 09:40  11 21 52.61    +18 09 37.5   0.0082 1.0027 162.4     15?   3.17 129.3   53 246  87  41
   2024 03 16 09:50  11 21 54.36    +18 09 17.2   0.0082 1.0027 162.4     15?   3.27 128.8   51 249  87  41
   2024 03 16 10:00  11 21 56.19    +18 08 56.5   0.0082 1.0027 162.5     15?   3.38 128.2   49 251  87  41
   2024 03 16 10:10  11 21 58.09    +18 08 35.4   0.0082 1.0028 162.5     15?   3.48 127.6   48 253  86  41
   2024 03 16 10:20  11 22 00.06    +18 08 13.9   0.0082 1.0028 162.5     15?   3.59 127.0   46 256  86  41
   2024 03 16 10:30  11 22 02.11    +18 07 52.1   0.0082 1.0028 162.5     15?   3.71 126.3   44 257  86  41
   2024 03 16 10:40  11 22 04.25    +18 07 30.0   0.0082 1.0028 162.5     15?   3.83 125.7   42 259  86  42
   2024 03 16 10:50  11 22 06.48    +18 07 07.5   0.0082 1.0028 162.5     15?   3.95 125.0   40 261  86  42
   2024 03 16 11:00  11 22 08.79    +18 06 44.7   0.0082 1.0028 162.5     15?   4.07 124.3   38 263  86  42
   2024 03 16 11:10  11 22 11.19    +18 06 21.7   0.0082 1.0028 162.5     15?   4.20 123.5   36 265  86  42
   2024 03 16 11:20  11 22 13.69    +18 05 58.4   0.0082 1.0028 162.5     15?   4.32 122.8   34 266  86  42
   2024 03 16 11:30  11 22 16.29    +18 05 34.8   0.0082 1.0028 162.5     15?   4.46 122.1   32 268  86  42
   2024 03 16 11:40  11 22 18.99    +18 05 11.0   0.0082 1.0028 162.5     15?   4.59 121.4   30 269  85  42
   2024 03 16 11:50  11 22 21.79    +18 04 47.0   0.0083 1.0028 162.5     15?   4.73 120.6   28 271  85  42
   2024 03 16 12:00  11 22 24.69    +18 04 22.8   0.0083 1.0028 162.5     15?   4.86 119.9   26 272  85  42
   2024 03 16 12:10  11 22 27.70    +18 03 58.4   0.0083 1.0028 162.5     15?   5.00 119.2   24 274  85  42
   2024 03 16 12:20  11 22 30.82    +18 03 33.9   0.0083 1.0028 162.5 A   15?   5.15 118.5   22 275  85  43
   2024 03 16 12:30  11 22 34.04    +18 03 09.2   0.0083 1.0028 162.5 A   15?   5.29 117.8   20 277  85  43
   2024 03 16 12:40  11 22 37.38    +18 02 44.5   0.0083 1.0028 162.5 A   15?   5.43 117.1   18 278  85  43
   2024 03 16 12:50  11 22 40.82    +18 02 19.6   0.0083 1.0028 162.5 N   15?   5.58 116.5   16 279  85  43
   2024 03 16 13:00  11 22 44.38    +18 01 54.7   0.0083 1.0028 162.5 N   15?   5.72 115.8   14 281  85  43
   2024 03 16 13:10  11 22 48.04    +18 01 29.8   0.0083 1.0028 162.5 N   15?   5.87 115.2   12 282  85  43
   2024 03 16 13:20  11 22 51.82    +18 01 04.8   0.0083 1.0028 162.6 C   15?   6.01 114.5   10 284  84  43
   2024 03 16 13:30  11 22 55.71    +18 00 39.9   0.0083 1.0028 162.6 C   15?   6.16 113.9    9 285  84  43
   ................
   2024 03 17 01:50  11 29 38.08    +17 43 59.5   0.0082 1.0029 163.0 Cm  15?   5.12  93.8   15  79  79  49
   2024 03 17 02:00  11 29 41.60    +17 43 56.1   0.0082 1.0029 163.0 Cm  15?   4.96  94.0   17  80  79  49
   2024 03 17 02:10  11 29 45.00    +17 43 52.7   0.0082 1.0029 163.0 Nm  15?   4.80  94.2   19  82  79  49
   2024 03 17 02:20  11 29 48.30    +17 43 49.1   0.0082 1.0029 163.0 Nm  15?   4.65  94.5   21  83  79  49
   2024 03 17 02:30  11 29 51.49    +17 43 45.4   0.0082 1.0029 163.0 Nm  15?   4.49  94.8   23  85  79  49
   2024 03 17 02:40  11 29 54.57    +17 43 41.6   0.0082 1.0029 163.0 Nm  15?   4.34  95.2   25  86  79  49
   2024 03 17 02:50  11 29 57.55    +17 43 37.6   0.0082 1.0029 163.0 Am  15?   4.20  95.6   27  88  79  49
   2024 03 17 03:00  11 30 00.42    +17 43 33.4   0.0082 1.0029 163.0 Am  15?   4.05  96.1   29  89  79  49
   2024 03 17 03:10  11 30 03.18    +17 43 29.1   0.0082 1.0029 163.0 Am  15?   3.91  96.6   31  91  79  49
   2024 03 17 03:20  11 30 05.85    +17 43 24.5   0.0082 1.0029 163.0  m  15?   3.77  97.2   33  92  79  49
   2024 03 17 03:30  11 30 08.42    +17 43 19.6   0.0082 1.0029 163.0  m  15?   3.64  97.9   35  94  79  49
   2024 03 17 03:40  11 30 10.89    +17 43 14.5   0.0082 1.0029 163.0  m  15?   3.51  98.6   37  96  79  49
   2024 03 17 03:50  11 30 13.27    +17 43 09.1   0.0082 1.0029 163.0  m  15?   3.38  99.4   39  97  79  49
   2024 03 17 04:00  11 30 15.56    +17 43 03.5   0.0082 1.0030 163.0  m  15?   3.26 100.3   40  99  79  49
   2024 03 17 04:10  11 30 17.76    +17 42 57.5   0.0082 1.0030 163.0  m  15?   3.14 101.3   42 101  79  49
   2024 03 17 04:20  11 30 19.88    +17 42 51.1   0.0082 1.0030 163.0  m  15?   3.04 102.3   44 103  79  49
   2024 03 17 04:30  11 30 21.91    +17 42 44.5   0.0082 1.0030 163.0  m  15?   2.93 103.5   46 105  78  49
   2024 03 17 04:40  11 30 23.87    +17 42 37.5   0.0082 1.0030 163.0  m  15?   2.84 104.7   48 107  78  49
   2024 03 17 04:50  11 30 25.75    +17 42 30.1   0.0082 1.0030 163.0  m  15?   2.75 106.0   50 109  78  49
   2024 03 17 05:00  11 30 27.56    +17 42 22.3   0.0082 1.0030 163.0  m  15?   2.66 107.4   52 112  78  49
   2024 03 17 05:10  11 30 29.31    +17 42 14.1   0.0082 1.0030 163.0  m  15?   2.59 108.9   54 114  78  50
   2024 03 17 05:20  11 30 30.99    +17 42 05.5   0.0082 1.0030 163.0  m  15?   2.52 110.4   55 117  78  50
   2024 03 17 05:30  11 30 32.62    +17 41 56.5   0.0082 1.0030 163.0  m  15?   2.46 112.0   57 120  78  50
   2024 03 17 05:40  11 30 34.19    +17 41 47.0   0.0082 1.0030 163.0  m  15?   2.41 113.7   59 123  78  50
   2024 03 17 05:50  11 30 35.71    +17 41 37.1   0.0082 1.0030 163.0  m  15?   2.37 115.3   60 127  78  50
   2024 03 17 06:00  11 30 37.18    +17 41 26.7   0.0082 1.0030 163.0  m  15?   2.33 117.0   62 131  78  50
   2024 03 17 06:10  11 30 38.61    +17 41 15.9   0.0082 1.0030 163.0  m  15?   2.30 118.6   63 135  78  50
   2024 03 17 06:20  11 30 40.01    +17 41 04.6   0.0082 1.0030 163.0  m  15?   2.28 120.3   65 140  78  50
   2024 03 17 06:30  11 30 41.37    +17 40 52.9   0.0082 1.0030 163.0  m  15?   2.27 121.8   66 145  78  50
   2024 03 17 06:40  11 30 42.71    +17 40 40.6   0.0082 1.0030 163.0  m  15?   2.27 123.3   67 150  78  50
   2024 03 17 06:50  11 30 44.03    +17 40 27.9   0.0082 1.0030 163.0  m  15?   2.27 124.8   68 156  78  50
   2024 03 17 07:00  11 30 45.33    +17 40 14.7   0.0082 1.0030 163.0  m  15?   2.28 126.1   69 162  78  50
   2024 03 17 07:10  11 30 46.61    +17 40 01.0   0.0082 1.0030 163.0  m  15?   2.30 127.3   69 169  77  50
   2024 03 17 07:20  11 30 47.89    +17 39 46.8   0.0082 1.0030 163.0  m  15?   2.33 128.3   69 176  77  50
   2024 03 17 07:30  11 30 49.17    +17 39 32.1   0.0082 1.0030 163.0  t  15?   2.36 129.3   69 183  77  50
   2024 03 17 07:40  11 30 50.45    +17 39 16.9   0.0082 1.0030 163.0  m  15?   2.40 130.1   69 189  77  50
   2024 03 17 07:50  11 30 51.73    +17 39 01.2   0.0082 1.0030 163.0  m  15?   2.44 130.8   69 196  77  51
   2024 03 17 08:00  11 30 53.03    +17 38 45.0   0.0082 1.0030 163.0  m  15?   2.49 131.3   68 202  77  51
   2024 03 17 08:10  11 30 54.35    +17 38 28.4   0.0082 1.0030 163.0  m  15?   2.54 131.7   67 208  77  51
   2024 03 17 08:20  11 30 55.68    +17 38 11.3   0.0082 1.0030 163.0  m  15?   2.60 132.0   66 214  77  51
   2024 03 17 08:30  11 30 57.05    +17 37 53.6   0.0082 1.0030 163.0  m  15?   2.66 132.1   65 219  77  51
   2024 03 17 08:40  11 30 58.44    +17 37 35.6   0.0082 1.0030 163.0  m  15?   2.73 132.2   63 224  77  51
   2024 03 17 08:50  11 30 59.88    +17 37 17.0   0.0082 1.0030 163.0  m  15?   2.80 132.1   62 228  77  51
   2024 03 17 09:00  11 31 01.35    +17 36 58.0   0.0082 1.0030 163.0  m  15?   2.88 131.9   61 232  77  51
   2024 03 17 09:10  11 31 02.87    +17 36 38.5   0.0082 1.0030 163.0  m  15?   2.96 131.7   59 235  76  51
   2024 03 17 09:20  11 31 04.44    +17 36 18.7   0.0082 1.0030 163.0  m  15?   3.04 131.4   57 238  76  51
   2024 03 17 09:30  11 31 06.06    +17 35 58.3   0.0082 1.0030 163.0  m  15?   3.13 131.0   56 242  76  51
   2024 03 17 09:40  11 31 07.74    +17 35 37.6   0.0082 1.0030 163.0     15?   3.22 130.5   54 244  76  51
   2024 03 17 09:50  11 31 09.49    +17 35 16.4   0.0082 1.0030 163.0     15?   3.32 130.0   52 247  76  51
   2024 03 17 10:00  11 31 11.30    +17 34 54.9   0.0082 1.0030 163.0     15?   3.42 129.4   50 249  76  52
   2024 03 17 10:10  11 31 13.18    +17 34 33.0   0.0082 1.0030 163.0     15?   3.52 128.8   48 252  76  52
   2024 03 17 10:20  11 31 15.13    +17 34 10.7   0.0082 1.0030 163.0     15?   3.63 128.2   46 254  76  52
   2024 03 17 10:30  11 31 17.17    +17 33 48.1   0.0082 1.0030 163.0     15?   3.74 127.5   44 256  76  52
   2024 03 17 10:40  11 31 19.28    +17 33 25.1   0.0082 1.0030 163.0     15?   3.86 126.8   42 258  76  52
   2024 03 17 10:50  11 31 21.48    +17 33 01.8   0.0082 1.0030 163.0     15?   3.97 126.1   41 260  76  52
   2024 03 17 11:00  11 31 23.77    +17 32 38.2   0.0082 1.0030 163.0     15?   4.09 125.4   39 261  75  52
   2024 03 17 11:10  11 31 26.15    +17 32 14.3   0.0082 1.0030 163.0     15?   4.22 124.7   37 263  75  52
   2024 03 17 11:20  11 31 28.62    +17 31 50.2   0.0082 1.0030 163.0     15?   4.35 123.9   35 265  75  52
   2024 03 17 11:30  11 31 31.19    +17 31 25.8   0.0082 1.0030 163.1     15?   4.47 123.2   33 266  75  52
   2024 03 17 11:40  11 31 33.86    +17 31 01.1   0.0082 1.0030 163.1     15?   4.61 122.5   31 268  75  52
   2024 03 17 11:50  11 31 36.62    +17 30 36.3   0.0082 1.0030 163.1     15?   4.74 121.7   29 269  75  53
   2024 03 17 12:00  11 31 39.49    +17 30 11.2   0.0082 1.0030 163.1     15?   4.88 121.0   27 271  75  53
   2024 03 17 12:10  11 31 42.47    +17 29 46.0   0.0082 1.0030 163.1     15?   5.02 120.3   25 272  75  53
   2024 03 17 12:20  11 31 45.55    +17 29 20.7   0.0082 1.0030 163.1 A   15?   5.16 119.5   23 274  75  53
   2024 03 17 12:30  11 31 48.74    +17 28 55.2   0.0082 1.0030 163.1 A   15?   5.30 118.8   21 275  75  53
   2024 03 17 12:40  11 31 52.03    +17 28 29.5   0.0082 1.0030 163.1 A   15?   5.44 118.1   19 277  75  53
   2024 03 17 12:50  11 31 55.44    +17 28 03.8   0.0082 1.0030 163.1 N   15?   5.58 117.4   17 278  74  53
   2024 03 17 13:00  11 31 58.96    +17 27 38.0   0.0082 1.0031 163.1 N   15?   5.73 116.8   15 280  74  53
   2024 03 17 13:10  11 32 02.59    +17 27 12.2   0.0082 1.0031 163.1 N   15?   5.87 116.1   13 281  74  53
   2024 03 17 13:20  11 32 06.33    +17 26 46.3   0.0082 1.0031 163.1 C   15?   6.02 115.4   11 283  74  53
   2024 03 17 13:30  11 32 10.18    +17 26 20.4   0.0082 1.0031 163.1 C   15?   6.16 114.8    9 284  74  54
   ................
   

INTEGRAL (JPL-ID: -198)

   Date (UTC) HH:MM   RA              Dec         delta   r     elong SM  mag  '/hr    PA   alt  az moo ill
   ---- -- -- -----  -------------   -----------  ------ ------ ----- --  --- ------ ------ --- --- --- ---
   2024 03 04 01:40  13 37 39.75    +69 07 39.9   146703 0.9920 112.2 C   18?  36.89 142.8   22  17 104  45
   2024 03 04 01:50  13 38 20.24    +69 02 49.0   146478 0.9920 112.2 C   18?  35.76 143.5   23  17 104  45
   2024 03 04 02:00  13 38 58.63    +68 58 04.4   146244 0.9920 112.2 N   18?  34.64 144.3   23  18 104  45
   2024 03 04 02:10  13 39 34.87    +68 53 25.6   146002 0.9920 112.2 N   18?  33.55 145.3   24  19 104  45
   2024 03 04 02:20  13 40 08.94    +68 48 52.4   145752 0.9920 112.2 N   18?  32.48 146.4   24  19 104  45
   2024 03 04 02:30  13 40 40.79    +68 44 24.3   145494 0.9920 112.2 A   18?  31.44 147.6   25  20 104  45
   2024 03 04 02:40  13 41 10.40    +68 40 01.0   145228 0.9920 112.3 A   18?  30.44 149.1   26  21 103  45
   2024 03 04 02:50  13 41 37.73    +68 35 41.9   144954 0.9920 112.3 A   18?  29.48 150.7   26  21 103  44
   2024 03 04 03:00  13 42 02.75    +68 31 26.8   144673 0.9920 112.3     18?  28.58 152.5   27  22 103  44
   2024 03 04 03:10  13 42 25.44    +68 27 15.0   144383 0.9920 112.3     18?  27.73 154.5   28  23 103  44
   2024 03 04 03:20  13 42 45.78    +68 23 06.3   144086 0.9920 112.4     18?  26.96 156.6   28  23 103  44
   2024 03 04 03:30  13 43 03.73    +68 19 00.0   143782 0.9920 112.4     18?  26.27 159.0   29  24 103  44
   2024 03 04 03:40  13 43 19.29    +68 14 55.7   143470 0.9920 112.4     18?  25.67 161.6   30  24 103  44
   2024 03 04 03:50  13 43 32.43    +68 10 52.9   143151 0.9920 112.5     18?  25.17 164.4   31  25 103  44
   2024 03 04 04:00  13 43 43.15    +68 06 51.0   142824 0.9920 112.5     18?  24.78 167.4   31  25 103  44
   2024 03 04 04:10  13 43 51.43    +68 02 49.6   142491 0.9920 112.5     18?  24.51 170.5   32  26 103  44
   2024 03 04 04:20  13 43 57.27    +67 58 48.0   142151 0.9920 112.6     18?  24.37 173.6   33  26 103  44
   2024 03 04 04:30  13 44 00.67    +67 54 45.7   141804 0.9920 112.6     18?  24.36 176.9   34  27 103  44
   2024 03 04 04:40  13 44 01.63    +67 50 42.1   141451 0.9920 112.7     18?  24.49 180.1   35  27 103  43
   2024 03 04 04:50  13 44 00.14    +67 46 36.7   141091 0.9920 112.7     18?  24.75 183.3   36  28 103  43
   2024 03 04 05:00  13 43 56.24    +67 42 28.8   140724 0.9920 112.8     18?  25.15 186.4   37  28 103  43
   2024 03 04 05:10  13 43 49.92    +67 38 17.8   140351 0.9920 112.8     18?  25.68 189.4   38  28 103  43
   2024 03 04 05:20  13 43 41.20    +67 34 03.1   139973 0.9920 112.9     18?  26.33 192.2   39  28 103  43
   2024 03 04 05:30  13 43 30.12    +67 29 44.1   139588 0.9920 112.9     18?  27.11 194.8   40  29 103  43
   2024 03 04 05:40  13 43 16.69    +67 25 20.1   139198 0.9920 113.0     18?  28.00 197.2   41  29 103  43
   2024 03 04 05:50  13 43 00.95    +67 20 50.5   138802 0.9920 113.1     18?  28.99 199.4   42  29 103  43
   2024 03 04 06:00  13 42 42.95    +67 16 14.6   138400 0.9920 113.1     18?  30.07 201.4   43  29 103  43
   2024 03 04 06:10  13 42 22.71    +67 11 31.8   137993 0.9921 113.2     18?  31.25 203.1   44  29 104  43
   2024 03 04 06:20  13 42 00.30    +67 06 41.5   137581 0.9921 113.3     18?  32.50 204.7   45  29 104  43
   2024 03 04 06:30  13 41 35.76    +67 01 42.9   137164 0.9921 113.4     18?  33.82 206.0   46  29 104  42
   2024 03 04 06:40  13 41 09.15    +66 56 35.5   136742 0.9921 113.5     18?  35.20 207.2   47  28 104  42
   2024 03 04 06:50  13 40 40.54    +66 51 18.5   136316 0.9921 113.6     18?  36.64 208.2   48  28 104  42
   2024 03 04 07:00  13 40 09.99    +66 45 51.4   135884 0.9921 113.7     18?  38.13 209.0   49  28 104  42
   2024 03 04 07:10  13 39 37.59    +66 40 13.5   135449 0.9921 113.8     18?  39.67 209.7   50  27 104  42
   2024 03 04 07:20  13 39 03.41    +66 34 24.1   135009 0.9921 113.9     18?  41.24 210.2   51  27 104  42
   2024 03 04 07:30  13 38 27.53    +66 28 22.6   134565 0.9921 114.0     18?  42.86 210.6   52  26 104  42
   2024 03 04 07:40  13 37 50.04    +66 22 08.5   134117 0.9921 114.1     18?  44.50 210.9   53  26 104  42
   2024 03 04 07:50  13 37 11.04    +66 15 41.0   133664 0.9921 114.2     18?  46.17 211.1   54  25 104  42
   2024 03 04 08:00  13 36 30.62    +66 08 59.7   133209 0.9921 114.4     18?  47.87 211.2   55  24 104  42
   2024 03 04 08:10  13 35 48.89    +66 02 03.9   132749 0.9921 114.5     18?  49.59 211.1   56  23 104  42
   2024 03 04 08:20  13 35 05.95    +65 54 53.1   132286 0.9921 114.6     18?  51.32 211.0   57  22 104  42
   2024 03 04 08:30  13 34 21.92    +65 47 26.7   131820 0.9921 114.8     18?  53.07 210.9   57  20 104  41
   2024 03 04 08:40  13 33 36.89    +65 39 44.3   131351 0.9921 114.9     18?  54.84 210.6   58  19 104  41
   2024 03 04 08:50  13 32 51.00    +65 31 45.3   130878 0.9921 115.1     18?  56.62 210.3   59  17 104  41
   2024 03 04 09:00  13 32 04.35    +65 23 29.2   130402 0.9921 115.2     18?  58.40 210.0   60  16 104  41
   2024 03 04 09:10  13 31 17.06    +65 14 55.6   129924 0.9921 115.4     18?  60.20 209.5   60  14 104  41
   2024 03 04 09:20  13 30 29.27    +65 06 04.2   129442 0.9921 115.6     18?  62.00 209.1   61  12 104  41
   2024 03 04 09:30  13 29 41.08    +64 56 54.4   128958 0.9921 115.7     18?  63.80 208.6   62  10 104  41
   2024 03 04 09:40  13 28 52.62    +64 47 25.9   128471 0.9921 115.9     18?  65.61 208.0   62   7 104  41
   2024 03 04 09:50  13 28 04.02    +64 37 38.4   127981 0.9921 116.1  m  18?  67.42 207.4   63   5 104  41
   2024 03 04 10:00  13 27 15.40    +64 27 31.5   127489 0.9921 116.3  m  18?  69.22 206.8   63   2 104  41
   2024 03 04 10:10  13 26 26.88    +64 17 05.1   126994 0.9921 116.4  m  18?  71.03 206.2   63   0 104  41
   2024 03 04 10:20  13 25 38.58    +64 06 18.8   126497 0.9921 116.6  t  18?  72.83 205.5   63 357 104  41
   2024 03 04 10:30  13 24 50.62    +63 55 12.4   125997 0.9921 116.8  e  18?  74.63 204.8   63 354 104  41
   2024 03 04 10:40  13 24 03.12    +63 43 45.8   125495 0.9921 117.0  m  18?  76.43 204.0   63 352 104  41
   2024 03 04 10:50  13 23 16.20    +63 31 58.7   124990 0.9921 117.2  m  18?  78.22 203.3   63 349 104  41
   2024 03 04 11:00  13 22 29.97    +63 19 51.1   124483 0.9921 117.5  m  18?  80.00 202.5   63 346 104  41
   2024 03 04 11:10  13 21 44.53    +63 07 22.9   123974 0.9921 117.7  m  18?  81.78 201.7   62 344 104  40
   2024 03 04 11:20  13 21 00.00    +62 54 34.0   123462 0.9921 117.9  m  18?  83.55 200.9   62 341 104  40
   2024 03 04 11:30  13 20 16.48    +62 41 24.4   122948 0.9921 118.1  m  18?  85.31 200.1   61 339 104  40
   2024 03 04 11:40  13 19 34.06    +62 27 54.1   122431 0.9921 118.3  m  18?  87.06 199.3   61 336 104  40
   2024 03 04 11:50  13 18 52.85    +62 14 03.0   121912 0.9921 118.6  m  18?  88.81 198.5   60 334 104  40
   2024 03 04 12:00  13 18 12.92    +61 59 51.3   121390 0.9921 118.8  m  18?  90.54 197.6   59 332 104  40
   2024 03 04 12:10  13 17 34.37    +61 45 19.0   120866 0.9921 119.0  m  18?  92.27 196.8   59 330 104  40
   2024 03 04 12:20  13 16 57.27    +61 30 26.3   120339 0.9921 119.3  m  18?  93.98 195.9   58 329 104  40
   2024 03 04 12:30  13 16 21.71    +61 15 13.2   119809 0.9921 119.5  m  18?  95.69 195.0   57 327 104  40
   2024 03 04 12:40  13 15 47.75    +60 59 40.0   119276 0.9921 119.7 Am  18?  97.38 194.2   56 325 104  40
   2024 03 04 12:50  13 15 15.45    +60 43 46.7   118740 0.9921 120.0 Am  18?  99.07 193.3   55 324 104  40
   2024 03 04 13:00  13 14 44.88    +60 27 33.6   118201 0.9921 120.2 Am  18? 100.74 192.4   53 323 104  40
   2024 03 04 13:10  13 14 16.10    +60 11 00.8   117658 0.9921 120.5 Nm  18? 102.41 191.6   52 322 104  40
   2024 03 04 13:20  13 13 49.14    +59 54 08.6   117112 0.9921 120.7 Nm  18? 104.06 190.7   51 321 104  40
   2024 03 04 13:30  13 13 24.06    +59 36 57.2   116563 0.9921 121.0 Nm  18? 105.71 189.8   50 320 104  40
   2024 03 04 13:40  13 13 00.89    +59 19 26.9   116010 0.9921 121.3 Cm  18? 107.35 189.0   48 319 104  40
   2024 03 04 13:50  13 12 39.67    +59 01 37.9   115452 0.9921 121.5 Cm  18? 108.98 188.1   47 319 103  40
   ................
   2024 03 05 06:30  01 11 41.75    +38 23 51.9    35876 0.9918  53.3     15? 949.68   8.9    0 322 116  32
   2024 03 05 06:40  01 13 43.50    +40 51 55.5    37765 0.9918  55.4     15? 851.46   9.2    0 325 117  32
   2024 03 05 06:50  01 15 40.61    +43 05 06.1    39616 0.9918  57.3     15? 769.60   9.5    1 327 117  32
   2024 03 05 07:00  01 17 34.43    +45 05 47.8    41430 0.9918  59.1     16? 700.69   9.9    2 330 118  32
   2024 03 05 07:10  01 19 26.02    +46 55 55.6    43206 0.9918  60.7     16? 642.17  10.2    3 332 119  32
   2024 03 05 07:20  01 21 16.18    +48 37 01.9    44945 0.9918  62.2     16? 592.05  10.7    3 334 119  32
   2024 03 05 07:30  01 23 05.58    +50 10 22.4    46648 0.9918  63.6     16? 548.82  11.1    4 336 120  32
   2024 03 05 07:40  01 24 54.76    +51 36 58.9    48316 0.9918  64.9     16? 511.28  11.6    5 338 120  31
   2024 03 05 07:50  01 26 44.14    +52 57 43.0    49950 0.9918  66.1     16? 478.48  12.0    5 339 121  31
   2024 03 05 08:00  01 28 34.09    +54 13 17.8    51550 0.9918  67.2     16? 449.65  12.5    6 341 121  31
   2024 03 05 08:10  01 30 24.92    +55 24 19.5    53118 0.9918  68.3     16? 424.19  13.0    6 343 121  31
   2024 03 05 08:20  01 32 16.90    +56 31 19.1    54656 0.9918  69.3     16? 401.59  13.5    7 344 122  31
   2024 03 05 08:30  01 34 10.24    +57 34 42.7    56163 0.9918  70.3     16? 381.44  14.0    8 346 122  31
   2024 03 05 08:40  01 36 05.15    +58 34 53.2    57640 0.9919  71.2     16? 363.40  14.5    8 347 122  31
   2024 03 05 08:50  01 38 01.81    +59 32 10.0    59090 0.9919  72.1     16? 347.19  15.0    9 348 122  31
   2024 03 05 09:00  01 40 00.37    +60 26 50.1    60513 0.9919  73.0     16? 332.58  15.6    9 349 123  31
   2024 03 05 09:10  01 42 00.97    +61 19 08.4    61909 0.9919  73.8     16? 319.35  16.1   10 351 123  31
   2024 03 05 09:20  01 44 03.76    +62 09 17.8    63280 0.9919  74.6     16? 307.33  16.5   10 352 123  31
   2024 03 05 09:30  01 46 08.85    +62 57 29.8    64626 0.9919  75.3     16? 296.39  17.0   11 353 123  31
   2024 03 05 09:40  01 48 16.37    +63 43 54.5    65948 0.9919  76.1     16? 286.40  17.5   12 354 123  31
   2024 03 05 09:50  01 50 26.43    +64 28 40.7    67247 0.9919  76.8     16? 277.24  18.0   12 355 124  31
   2024 03 05 10:00  01 52 39.14    +65 11 56.5    68524 0.9919  77.4     16? 268.82  18.5   13 356 124  30
   2024 03 05 10:10  01 54 54.62    +65 53 48.8    69780 0.9919  78.1     16? 261.06  18.9   13 357 124  30
   2024 03 05 10:20  01 57 12.98    +66 34 24.0    71014 0.9919  78.8     16? 253.90  19.4   14 358 124  30
   2024 03 05 10:30  01 59 34.33    +67 13 47.7    72228 0.9919  79.4     16? 247.26  19.8   15 358 124  30
   2024 03 05 10:40  02 01 58.79    +67 52 05.0    73423 0.9919  80.0     16? 241.09  20.2   15 359 124  30
   2024 03 05 10:50  02 04 26.48    +68 29 20.4    74599 0.9919  80.6  t  16? 235.35  20.6   16   0 124  30
   2024 03 05 11:00  02 06 57.53    +69 05 37.9    75756 0.9919  81.2  m  16? 229.98  21.0   16   1 125  30
   2024 03 05 11:10  02 09 32.08    +69 41 01.3    76895 0.9919  81.7  m  16? 224.96  21.4   17   1 125  30
   2024 03 05 11:20  02 12 10.26    +70 15 33.8    78017 0.9919  82.3  m  16? 220.25  21.8   18   2 125  30
   2024 03 05 11:30  02 14 52.23    +70 49 18.4    79122 0.9919  82.8  m  16? 215.82  22.2   18   2 125  30
   2024 03 05 11:40  02 17 38.16    +71 22 17.8    80212 0.9919  83.4  m  16? 211.64  22.6   19   3 125  30
   2024 03 05 11:50  02 20 28.21    +71 54 34.4    81285 0.9919  83.9  m  16? 207.68  23.0   20   3 125  30
   2024 03 05 12:00  02 23 22.57    +72 26 10.4    82343 0.9919  84.4  m  16? 203.93  23.4   20   4 125  30
   2024 03 05 12:10  02 26 21.46    +72 57 07.6    83386 0.9919  84.9  m  16? 200.36  23.7   21   4 125  30
   2024 03 05 12:20  02 29 25.09    +73 27 28.0    84414 0.9919  85.4  m  16? 196.97  24.1   21   5 125  30
   2024 03 05 12:30  02 32 33.69    +73 57 12.9    85429 0.9920  85.9  m  16? 193.72  24.5   22   5 125  30
   2024 03 05 12:40  02 35 47.54    +74 26 23.9    86430 0.9920  86.3 Am  16? 190.61  24.8   23   5 125  30
   2024 03 05 12:50  02 39 06.92    +74 55 02.2    87418 0.9920  86.8 Am  16? 187.63  25.2   23   6 125  30
   2024 03 05 13:00  02 42 32.14    +75 23 08.9    88393 0.9920  87.2 Am  16? 184.76  25.6   24   6 125  29
   2024 03 05 13:10  02 46 03.54    +75 50 45.0    89355 0.9920  87.7 Nm  16? 182.00  26.0   24   6 125  29
   2024 03 05 13:20  02 49 41.49    +76 17 51.2    90305 0.9920  88.1 Nm  16? 179.32  26.4   25   6 125  29
   2024 03 05 13:30  02 53 26.41    +76 44 28.4    91244 0.9920  88.5 Nm  16? 176.73  26.8   25   6 125  29
   2024 03 05 13:40  02 57 18.75    +77 10 37.1    92171 0.9920  89.0 Cm  16? 174.21  27.3   26   7 125  29
   2024 03 05 13:50  03 01 19.00    +77 36 17.8    93086 0.9920  89.4 Cm  16? 171.77  27.7   27   7 125  29
   ................
   2024 03 06 01:40  13 34 43.62    +82 35 10.8   137129 0.9923 101.5 C   17?  36.53 145.2   32   7 116  25
   2024 03 06 01:50  13 36 26.10    +82 30 13.8   137475 0.9923 101.5 C   17?  35.02 146.4   33   7 116  25
   2024 03 06 02:00  13 38 00.13    +82 25 25.2   137814 0.9923 101.6 N   17?  33.55 147.7   33   7 116  25
   2024 03 06 02:10  13 39 25.94    +82 20 44.7   138145 0.9923 101.6 N   17?  32.13 149.1   33   7 116  25
   2024 03 06 02:20  13 40 43.75    +82 16 11.9   138469 0.9923 101.6 N   17?  30.76 150.7   33   8 116  24
   2024 03 06 02:30  13 41 53.75    +82 11 46.4   138785 0.9923 101.7 A   17?  29.46 152.4   33   8 116  24
   2024 03 06 02:40  13 42 56.12    +82 07 27.9   139094 0.9923 101.7 A   18?  28.22 154.4   34   8 116  24
   2024 03 06 02:50  13 43 51.02    +82 03 15.9   139395 0.9923 101.7 A   18?  27.07 156.5   34   9 116  24
   2024 03 06 03:00  13 44 38.62    +81 59 10.0   139689 0.9923 101.8 A   18?  26.00 158.9   34   9 116  24
   2024 03 06 03:10  13 45 19.05    +81 55 09.7   139975 0.9923 101.8     18?  25.02 161.5   34   9 116  24
   2024 03 06 03:20  13 45 52.47    +81 51 14.5   140255 0.9923 101.8     18?  24.16 164.4   35   9 116  24
   2024 03 06 03:30  13 46 19.00    +81 47 23.8   140527 0.9924 101.9     18?  23.41 167.4   35   9 116  24
   2024 03 06 03:40  13 46 38.80    +81 43 37.1   140792 0.9924 101.9     18?  22.78 170.7   35  10 116  24
   2024 03 06 03:50  13 46 51.99    +81 39 53.9   141050 0.9924 101.9     18?  22.30 174.1   36  10 116  24
   2024 03 06 04:00  13 46 58.72    +81 36 13.5   141301 0.9924 102.0     18?  21.95 177.6   36  10 116  23
   2024 03 06 04:10  13 46 59.11    +81 32 35.4   141546 0.9924 102.0     18?  21.76 181.2   36  10 116  23
   2024 03 06 04:20  13 46 53.31    +81 28 58.8   141783 0.9924 102.1     18?  21.71 184.9   37  10 116  23
   2024 03 06 04:30  13 46 41.47    +81 25 23.3   142014 0.9924 102.1     18?  21.81 188.4   37  10 116  23
   2024 03 06 04:40  13 46 23.73    +81 21 48.1   142238 0.9924 102.2     18?  22.05 191.8   37  11 116  23
   2024 03 06 04:50  13 46 00.26    +81 18 12.6   142456 0.9924 102.2     18?  22.43 195.1   38  11 116  23
   2024 03 06 05:00  13 45 31.22    +81 14 36.0   142667 0.9924 102.3     18?  22.94 198.1   38  11 116  23
   2024 03 06 05:10  13 44 56.79    +81 10 57.8   142872 0.9924 102.3     18?  23.56 200.9   39  11 116  23
   2024 03 06 05:20  13 44 17.15    +81 07 17.1   143071 0.9924 102.4     18?  24.29 203.4   39  11 116  23
   2024 03 06 05:30  13 43 32.48    +81 03 33.4   143264 0.9924 102.5     18?  25.11 205.6   39  11 116  23
   2024 03 06 05:40  13 42 43.01    +80 59 46.0   143451 0.9924 102.5     18?  26.01 207.6   40  11 116  23
   2024 03 06 05:50  13 41 48.93    +80 55 54.1   143632 0.9924 102.6     18?  26.98 209.2   40  11 116  23
   2024 03 06 06:00  13 40 50.48    +80 51 57.1   143807 0.9924 102.7     18?  28.02 210.7   41  11 116  22
   2024 03 06 06:10  13 39 47.88    +80 47 54.2   143976 0.9924 102.8     18?  29.10 211.9   41  11 116  22
   2024 03 06 06:20  13 38 41.39    +80 43 44.9   144140 0.9924 102.8     18?  30.23 212.8   42  10 116  22
   2024 03 06 06:30  13 37 31.25    +80 39 28.5   144299 0.9924 102.9     18?  31.39 213.6   42  10 116  22
   2024 03 06 06:40  13 36 17.74    +80 35 04.3   144452 0.9924 103.0     18?  32.58 214.1   42  10 116  22
   2024 03 06 06:50  13 35 01.12    +80 30 31.7   144600 0.9924 103.1     18?  33.80 214.5   43  10 116  22
   2024 03 06 07:00  13 33 41.67    +80 25 50.1   144743 0.9924 103.2     18?  35.03 214.8   43   9 116  22
   2024 03 06 07:10  13 32 19.69    +80 20 59.0   144881 0.9924 103.3     18?  36.28 214.9   44   9 116  22
   2024 03 06 07:20  13 30 55.47    +80 15 57.7   145014 0.9924 103.4     18?  37.54 214.9   44   9 117  22
   2024 03 06 07:30  13 29 29.30    +80 10 45.8   145142 0.9924 103.5     18?  38.80 214.7   45   8 117  22
   2024 03 06 07:40  13 28 01.48    +80 05 22.7   145265 0.9925 103.6     18?  40.07 214.5   45   8 117  22
   2024 03 06 07:50  13 26 32.33    +79 59 48.1   145385 0.9925 103.7     18?  41.34 214.2   45   7 117  22
   2024 03 06 08:00  13 25 02.14    +79 54 01.4   145499 0.9925 103.8     18?  42.61 213.7   46   7 117  21
   2024 03 06 08:10  13 23 31.21    +79 48 02.4   145610 0.9925 103.9     18?  43.87 213.3   46   6 117  21
   2024 03 06 08:20  13 21 59.86    +79 41 50.5   145716 0.9925 104.1     18?  45.12 212.7   47   6 117  21
   2024 03 06 08:30  13 20 28.36    +79 35 25.6   145818 0.9925 104.2     18?  46.37 212.1   47   5 117  21
   2024 03 06 08:40  13 18 57.02    +79 28 47.4   145916 0.9925 104.3     18?  47.61 211.4   47   5 117  21
   2024 03 06 08:50  13 17 26.11    +79 21 55.6   146010 0.9925 104.4     18?  48.83 210.7   48   4 117  21
   2024 03 06 09:00  13 15 55.91    +79 14 50.0   146100 0.9925 104.6     18?  50.05 209.9   48   3 117  21
   2024 03 06 09:10  13 14 26.69    +79 07 30.5   146187 0.9925 104.7     18?  51.24 209.1   48   2 117  21
   2024 03 06 09:20  13 12 58.71    +78 59 56.9   146270 0.9925 104.9     18?  52.43 208.2   48   2 118  21
   2024 03 06 09:30  13 11 32.19    +78 52 09.3   146349 0.9925 105.0     18?  53.59 207.4   48   1 118  21
   2024 03 06 09:40  13 10 07.39    +78 44 07.6   146425 0.9925 105.2     18?  54.74 206.5   49   0 118  21
   2024 03 06 09:50  13 08 44.51    +78 35 51.7   146498 0.9925 105.3  t  18?  55.87 205.5   49 359 118  21
   2024 03 06 10:00  13 07 23.75    +78 27 21.8   146567 0.9925 105.5     18?  56.98 204.6   49 358 118  21
   2024 03 06 10:10  13 06 05.31    +78 18 37.9   146633 0.9925 105.6     18?  58.07 203.6   49 357 118  21
   2024 03 06 10:20  13 04 49.36    +78 09 40.2   146696 0.9925 105.8     18?  59.13 202.7   49 356 118  20
   2024 03 06 10:30  13 03 36.05    +78 00 28.8   146756 0.9925 105.9  e  18?  60.18 201.7   49 356 118  20
   2024 03 06 10:40  13 02 25.54    +77 51 03.9   146813 0.9925 106.1     18?  61.20 200.7   49 355 118  20
   2024 03 06 10:50  13 01 17.95    +77 41 25.7   146867 0.9925 106.3     18?  62.20 199.7   49 354 118  20
   2024 03 06 11:00  13 00 13.40    +77 31 34.6   146917 0.9925 106.4     18?  63.17 198.7   49 353 118  20
   2024 03 06 11:10  12 59 11.98    +77 21 30.7   146965 0.9925 106.6     18?  64.12 197.7   49 352 119  20
   2024 03 06 11:20  12 58 13.78    +77 11 14.4   147010 0.9925 106.8     18?  65.05 196.6   49 351 119  20
   2024 03 06 11:30  12 57 18.87    +77 00 46.0   147052 0.9925 107.0     18?  65.95 195.6   48 350 119  20
   2024 03 06 11:40  12 56 27.31    +76 50 05.8   147092 0.9925 107.1     18?  66.82 194.6   48 349 119  20
   2024 03 06 11:50  12 55 39.15    +76 39 14.3   147128 0.9925 107.3  m  18?  67.67 193.6   48 348 119  20
   2024 03 06 12:00  12 54 54.42    +76 28 11.9   147162 0.9925 107.5  m  18?  68.49 192.6   48 347 119  20
   2024 03 06 12:10  12 54 13.14    +76 16 58.9   147193 0.9926 107.7  m  18?  69.28 191.6   47 346 119  20
   2024 03 06 12:20  12 53 35.32    +76 05 35.8   147221 0.9926 107.9  m  18?  70.05 190.6   47 346 119  20
   2024 03 06 12:30  12 53 00.96    +75 54 03.0   147246 0.9926 108.0  m  18?  70.78 189.5   46 345 119  20
   2024 03 06 12:40  12 52 30.06    +75 42 21.0   147268 0.9926 108.2 Am  18?  71.49 188.5   46 344 119  20
   2024 03 06 12:50  12 52 02.60    +75 30 30.2   147287 0.9926 108.4 Am  18?  72.17 187.5   46 343 119  20
   2024 03 06 13:00  12 51 38.56    +75 18 31.2   147304 0.9926 108.6 Am  18?  72.82 186.6   45 343 119  20
   2024 03 06 13:10  12 51 17.89    +75 06 24.3   147317 0.9926 108.8 Nm  18?  73.45 185.6   45 342 119  20
   2024 03 06 13:20  12 51 00.57    +74 54 10.2   147328 0.9926 109.0 Nm  18?  74.04 184.6   44 341 119  20
   2024 03 06 13:30  12 50 46.54    +74 41 49.2   147336 0.9926 109.2 Nm  18?  74.61 183.6   43 341 119  19
   2024 03 06 13:40  12 50 35.77    +74 29 21.8   147340 0.9926 109.4 Cm  18?  75.15 182.7   43 340 120  19
   2024 03 06 13:50  12 50 28.18    +74 16 48.6   147341 0.9926 109.5 Cm  18?  75.66 181.7   42 340 120  19
   ................
   2024 03 07 01:50  13 41 17.40    +61 23 18.3   131120 0.9928 117.2 C   18?  47.66 150.3   18  24 115  16
   2024 03 07 02:00  13 41 49.21    +61 16 25.3   130564 0.9928 117.3 C   18?  46.84 151.3   18  24 115  15
   2024 03 07 02:10  13 42 19.36    +61 09 35.3   129997 0.9928 117.3 N   18?  46.05 152.4   19  25 115  15
   2024 03 07 02:20  13 42 47.80    +61 02 48.1   129420 0.9928 117.4 N   18?  45.30 153.5   20  26 115  15
   2024 03 07 02:30  13 43 14.51    +60 56 03.0   128834 0.9928 117.4 N   18?  44.59 154.8   21  27 115  15
   2024 03 07 02:40  13 43 39.43    +60 49 19.7   128237 0.9928 117.4 A   18?  43.94 156.2   21  28 115  15
   2024 03 07 02:50  13 44 02.53    +60 42 37.6   127630 0.9928 117.5 A   18?  43.35 157.7   22  29 115  15
   2024 03 07 03:00  13 44 23.78    +60 35 56.2   127014 0.9928 117.5 A   18?  42.83 159.3   23  30 115  15
   2024 03 07 03:10  13 44 43.15    +60 29 15.0   126388 0.9928 117.6     18?  42.39 161.1   24  31 115  15
   2024 03 07 03:20  13 45 00.60    +60 22 33.3   125753 0.9928 117.6     18?  42.03 162.9   25  32 115  15
   2024 03 07 03:30  13 45 16.11    +60 15 50.7   125108 0.9928 117.7     18?  41.77 164.8   26  32 115  15
   2024 03 07 03:40  13 45 29.64    +60 09 06.4   124454 0.9928 117.8     18?  41.61 166.8   27  33 115  15
   2024 03 07 03:50  13 45 41.17    +60 02 19.8   123790 0.9928 117.8     18?  41.55 168.8   28  34 115  15
   2024 03 07 04:00  13 45 50.69    +59 55 30.4   123118 0.9928 117.9     18?  41.61 170.9   29  35 115  15
   2024 03 07 04:10  13 45 58.17    +59 48 37.3   122436 0.9928 118.0     18?  41.79 173.1   30  35 115  14
   2024 03 07 04:20  13 46 03.59    +59 41 40.0   121746 0.9928 118.0     18?  42.10 175.2   31  36 115  14
   2024 03 07 04:30  13 46 06.95    +59 34 37.6   121047 0.9928 118.1     18?  42.54 177.4   32  37 115  14
   2024 03 07 04:40  13 46 08.22    +59 27 29.5   120339 0.9928 118.2     18?  43.12 179.5   34  37 115  14
   2024 03 07 04:50  13 46 07.41    +59 20 14.8   119623 0.9928 118.3     18?  43.83 181.6   35  38 115  14
   2024 03 07 05:00  13 46 04.51    +59 12 52.8   118898 0.9928 118.4     18?  44.68 183.7   36  39 115  14
   2024 03 07 05:10  13 45 59.52    +59 05 22.8   118166 0.9928 118.5     18?  45.66 185.6   37  39 115  14
   2024 03 07 05:20  13 45 52.44    +58 57 43.7   117425 0.9928 118.6     18?  46.78 187.5   39  40 115  14
   2024 03 07 05:30  13 45 43.28    +58 49 54.9   116677 0.9928 118.7     18?  48.04 189.3   40  40 115  14
   2024 03 07 05:40  13 45 32.05    +58 41 55.4   115920 0.9928 118.8     18?  49.42 190.9   41  40 116  14
   2024 03 07 05:50  13 45 18.76    +58 33 44.3   115156 0.9928 118.9     18?  50.94 192.5   42  41 116  14
   2024 03 07 06:00  13 45 03.43    +58 25 20.7   114385 0.9928 119.0     18?  52.57 193.9   44  41 116  14
   2024 03 07 06:10  13 44 46.09    +58 16 43.7   113607 0.9928 119.2     18?  54.33 195.2   45  41 116  14
   2024 03 07 06:20  13 44 26.76    +58 07 52.4   112821 0.9928 119.3     18?  56.20 196.4   46  42 116  13
   2024 03 07 06:30  13 44 05.47    +57 58 45.7   112028 0.9928 119.4     18?  58.18 197.5   48  42 116  13
   2024 03 07 06:40  13 43 42.26    +57 49 22.8   111228 0.9928 119.6     18?  60.28 198.5   49  42 116  13
   2024 03 07 06:50  13 43 17.18    +57 39 42.5   110422 0.9928 119.7     18?  62.47 199.3   51  42 116  13
   2024 03 07 07:00  13 42 50.25    +57 29 43.9   109609 0.9928 119.9     18?  64.77 200.0   52  42 116  13
   2024 03 07 07:10  13 42 21.54    +57 19 26.0   108789 0.9928 120.1     18?  67.17 200.7   54  42 116  13
   2024 03 07 07:20  13 41 51.10    +57 08 47.6   107963 0.9928 120.2     18?  69.66 201.2   55  41 116  13
   2024 03 07 07:30  13 41 18.99    +56 57 47.8   107131 0.9928 120.4     18?  72.25 201.7   56  41 117  13
   2024 03 07 07:40  13 40 45.26    +56 46 25.4   106293 0.9928 120.6     18?  74.92 202.0   58  40 117  13
   2024 03 07 07:50  13 40 09.98    +56 34 39.4   105448 0.9928 120.8     18?  77.69 202.3   59  40 117  13
   2024 03 07 08:00  13 39 33.23    +56 22 28.7   104598 0.9928 121.0     18?  80.54 202.5   61  39 117  13
   2024 03 07 08:10  13 38 55.08    +56 09 52.1   103742 0.9929 121.2     18?  83.48 202.7   62  38 117  13
   2024 03 07 08:20  13 38 15.61    +55 56 48.7   102880 0.9929 121.4     18?  86.50 202.7   63  36 117  13
   2024 03 07 08:30  13 37 34.89    +55 43 17.1   102013 0.9929 121.7     18?  89.61 202.7   65  35 117  13
   2024 03 07 08:40  13 36 53.03    +55 29 16.3   101140 0.9929 121.9     18?  92.80 202.7   66  33 118  12
   2024 03 07 08:50  13 36 10.09    +55 14 45.1   100261 0.9929 122.1     18?  96.07 202.6   68  31 118  12
   2024 03 07 09:00  13 35 26.19    +54 59 42.5    99377 0.9929 122.4     17?  99.43 202.4   69  28 118  12
   2024 03 07 09:10  13 34 41.40    +54 44 07.1    98488 0.9929 122.7     17? 102.87 202.2   70  25 118  12
   2024 03 07 09:20  13 33 55.84    +54 27 57.9    97594 0.9929 122.9     17? 106.40 201.9   71  22 118  12
   2024 03 07 09:30  13 33 09.59    +54 11 13.6    96694 0.9929 123.2     17? 110.01 201.6   72  18 118  12
   2024 03 07 09:40  13 32 22.76    +53 53 53.0    95788 0.9929 123.5     17? 113.72 201.3   73  13 118  12
   2024 03 07 09:50  13 31 35.46    +53 35 55.0    94878 0.9929 123.8     17? 117.51 200.9   74   8 119  12
   2024 03 07 10:00  13 30 47.77    +53 17 18.4    93962 0.9929 124.1     17? 121.39 200.5   74   2 119  12
   2024 03 07 10:10  13 29 59.82    +52 58 01.8    93040 0.9929 124.4  t  17? 125.37 200.1   74 356 119  12
   2024 03 07 10:20  13 29 11.69    +52 38 04.0    92113 0.9929 124.8  e  17? 129.45 199.6   74 349 119  12
   2024 03 07 10:30  13 28 23.51    +52 17 23.8    91181 0.9929 125.1     17? 133.63 199.2   74 343 119  12
   2024 03 07 10:40  13 27 35.37    +51 55 59.8    90243 0.9929 125.4     17? 137.91 198.6   74 337 119  12
   2024 03 07 10:50  13 26 47.37    +51 33 50.7    89300 0.9929 125.8     17? 142.30 198.1   73 331 120  12
   2024 03 07 11:00  13 25 59.62    +51 10 55.2    88351 0.9929 126.2     17? 146.81 197.6   72 325 120  12
   2024 03 07 11:10  13 25 12.22    +50 47 11.9    87396 0.9929 126.5     17? 151.44 197.0   71 321 120  12
   2024 03 07 11:20  13 24 25.27    +50 22 39.3    86435 0.9929 126.9     17? 156.20 196.5   70 317 120  12
   2024 03 07 11:30  13 23 38.86    +49 57 15.9    85468 0.9929 127.3     17? 161.09 195.9   69 313 120  12
   2024 03 07 11:40  13 22 53.09    +49 31 00.3    84494 0.9929 127.7     17? 166.13 195.3   68 310 120  11
   2024 03 07 11:50  13 22 08.05    +49 03 50.7    83514 0.9929 128.1     17? 171.32 194.7   66 307 121  11
   2024 03 07 12:00  13 21 23.83    +48 35 45.6    82527 0.9929 128.6     17? 176.67 194.1   64 305 121  11
   2024 03 07 12:10  13 20 40.52    +48 06 43.1    81534 0.9929 129.0     17? 182.19 193.5   63 303 121  11
   2024 03 07 12:20  13 19 58.19    +47 36 41.5    80533 0.9929 129.4     17? 187.90 192.9   61 301 121  11
   2024 03 07 12:30  13 19 16.92    +47 05 38.7    79524 0.9929 129.9 Am  17? 193.80 192.2   59 300 121  11
   2024 03 07 12:40  13 18 36.79    +46 33 32.6    78508 0.9929 130.4 Am  17? 199.93 191.6   57 299 121  11
   2024 03 07 12:50  13 17 57.87    +46 00 21.1    77483 0.9929 130.8 Am  17? 206.28 191.0   56 298 122  11
   2024 03 07 13:00  13 17 20.23    +45 26 01.7    76450 0.9929 131.3 Am  17? 212.89 190.4   54 297 122  11
   2024 03 07 13:10  13 16 43.91    +44 50 31.9    75408 0.9929 131.8 Nm  17? 219.76 189.8   52 296 122  11
   2024 03 07 13:20  13 16 08.99    +44 13 48.8    74357 0.9929 132.4 Nm  17? 226.93 189.2   50 296 122  11
   2024 03 07 13:30  13 15 35.51    +43 35 49.6    73296 0.9929 132.9 Nm  17? 234.42 188.6   48 296 122  11
   2024 03 07 13:40  13 15 03.51    +42 56 30.9    72225 0.9928 133.4 Cm  17? 242.26 188.0   46 295 122  11
   2024 03 07 13:50  13 14 33.04    +42 15 49.2    71143 0.9928 134.0 Cm  17? 250.49 187.4   44 295 122  11
   ................
   2024 03 08 01:50  01 15 13.98    +71 22 10.6    65593 0.9926  78.7 C   16? 178.08 350.8   44 337 101   8
   2024 03 08 02:00  01 14 15.59    +71 50 44.4    66982 0.9926  79.1 C   16? 169.29 351.2   43 337 101   8
   2024 03 08 02:10  01 13 21.28    +72 17 56.7    68348 0.9926  79.5 N   16? 161.22 351.6   42 337 101   8
   2024 03 08 02:20  01 12 31.24    +72 43 54.7    69692 0.9926  79.8 N   16? 153.81 352.2   41 338 101   8
   2024 03 08 02:30  01 11 45.66    +73 08 44.4    71015 0.9926  80.1 N   16? 147.02 352.8   41 338 101   8
   2024 03 08 02:40  01 11 04.73    +73 32 31.7    72317 0.9926  80.4 A   16? 140.78 353.4   40 339 101   8
   2024 03 08 02:50  01 10 28.61    +73 55 21.6    73598 0.9926  80.7 A   16? 135.07 354.2   39 339 101   8
   2024 03 08 03:00  01 09 57.50    +74 17 18.9    74859 0.9926  81.0 A   16? 129.83 355.0   38 340 102   7
   2024 03 08 03:10  01 09 31.55    +74 38 28.1    76101 0.9926  81.3     16? 125.05 355.9   38 340 102   7
   2024 03 08 03:20  01 09 10.92    +74 58 53.1    77323 0.9926  81.6     16? 120.68 356.8   37 341 102   7
   2024 03 08 03:30  01 08 55.77    +75 18 37.6    78526 0.9926  81.9     16? 116.70 357.8   36 341 102   7
   2024 03 08 03:40  01 08 46.26    +75 37 45.0    79711 0.9926  82.2     16? 113.09 358.9   36 342 102   7
   2024 03 08 03:50  01 08 42.52    +75 56 18.5    80878 0.9926  82.4     16? 109.82   0.0   35 342 102   7
   2024 03 08 04:00  01 08 44.71    +76 14 21.0    82026 0.9926  82.7     16? 106.88   1.2   35 343 102   7
   2024 03 08 04:10  01 08 52.97    +76 31 55.1    83157 0.9926  83.0     16? 104.23   2.4   34 343 102   7
   2024 03 08 04:20  01 09 07.44    +76 49 03.3    84270 0.9926  83.2     16? 101.86   3.6   34 344 102   7
   2024 03 08 04:30  01 09 28.27    +77 05 47.9    85367 0.9926  83.5     16?  99.76   4.8   34 344 103   7
   2024 03 08 04:40  01 09 55.59    +77 22 11.1    86447 0.9926  83.7     16?  97.90   6.1   33 345 103   7
   2024 03 08 04:50  01 10 29.56    +77 38 14.6    87511 0.9926  84.0     16?  96.27   7.4   33 345 103   7
   2024 03 08 05:00  01 11 10.32    +77 54 00.4    88558 0.9927  84.2     16?  94.86   8.7   32 346 103   7
   2024 03 08 05:10  01 11 58.03    +78 09 30.1    89590 0.9927  84.4     16?  93.64   9.9   32 347 103   7
   2024 03 08 05:20  01 12 52.86    +78 24 45.1    90606 0.9927  84.7     16?  92.61  11.2   32 347 103   7
   2024 03 08 05:30  01 13 54.98    +78 39 47.0    91607 0.9927  84.9     16?  91.74  12.5   32 348 103   7
   2024 03 08 05:40  01 15 04.57    +78 54 36.9    92593 0.9927  85.2     16?  91.03  13.7   31 348 103   7
   2024 03 08 05:50  01 16 21.84    +79 09 16.0    93564 0.9927  85.4     16?  90.46  14.9   31 349 104   7
   2024 03 08 06:00  01 17 46.99    +79 23 45.4    94521 0.9927  85.6     16?  90.01  16.1   31 349 104   6
   2024 03 08 06:10  01 19 20.26    +79 38 06.0    95463 0.9927  85.9     16?  89.69  17.3   31 350 104   6
   2024 03 08 06:20  01 21 01.91    +79 52 18.7    96392 0.9927  86.1     16?  89.47  18.5   31 350 104   6
   2024 03 08 06:30  01 22 52.21    +80 06 24.2    97306 0.9927  86.4     16?  89.35  19.6   31 351 104   6
   2024 03 08 06:40  01 24 51.46    +80 20 23.3    98208 0.9927  86.6     16?  89.32  20.7   31 351 104   6
   2024 03 08 06:50  01 27 00.00    +80 34 16.4    99096 0.9927  86.8     16?  89.36  21.8   31 352 104   6
   2024 03 08 07:00  01 29 18.21    +80 48 04.1    99971 0.9927  87.1     16?  89.47  22.9   31 352 105   6
   2024 03 08 07:10  01 31 46.49    +81 01 46.8   100834 0.9927  87.3     16?  89.64  24.0   31 352 105   6
   2024 03 08 07:20  01 34 25.30    +81 15 24.8   101684 0.9927  87.6     16?  89.86  25.0   31 353 105   6
   2024 03 08 07:30  01 37 15.14    +81 28 58.4   102522 0.9927  87.8     16?  90.13  26.0   31 353 105   6
   2024 03 08 07:40  01 40 16.57    +81 42 27.7   103347 0.9927  88.0     16?  90.43  27.1   31 354 105   6
   2024 03 08 07:50  01 43 30.22    +81 55 52.9   104161 0.9927  88.3     17?  90.77  28.1   31 354 105   6
   2024 03 08 08:00  01 46 56.78    +82 09 13.9   104964 0.9927  88.5     17?  91.14  29.1   31 354 106   6
   2024 03 08 08:10  01 50 37.02    +82 22 30.6   105755 0.9927  88.8     17?  91.53  30.1   31 355 106   6
   2024 03 08 08:20  01 54 31.81    +82 35 42.8   106535 0.9927  89.0     17?  91.94  31.2   31 355 106   6
   2024 03 08 08:30  01 58 42.10    +82 48 50.3   107304 0.9927  89.3     17?  92.36  32.2   31 355 106   6
   2024 03 08 08:40  02 03 08.97    +83 01 52.6   108062 0.9928  89.5     17?  92.79  33.3   31 356 106   6
   2024 03 08 08:50  02 07 53.60    +83 14 49.3   108810 0.9928  89.8     17?  93.23  34.4   31 356 106   6
   2024 03 08 09:00  02 12 57.32    +83 27 39.7   109548 0.9928  90.0     17?  93.67  35.6   31 356 107   6
   2024 03 08 09:10  02 18 21.61    +83 40 23.1   110276 0.9928  90.3     17?  94.11  36.8   32 356 107   5
   2024 03 08 09:20  02 24 08.12    +83 52 58.6   110994 0.9928  90.5     17?  94.55  38.0   32 357 107   5
   2024 03 08 09:30  02 30 18.64    +84 05 25.1   111702 0.9928  90.8     17?  94.98  39.4   32 357 107   5
   2024 03 08 09:40  02 36 55.21    +84 17 41.5   112401 0.9928  91.1     17?  95.40  40.8   32 357 107   5
   2024 03 08 09:50  02 44 00.02    +84 29 46.2   113090 0.9928  91.3     17?  95.82  42.3   32 357 107   5
   2024 03 08 10:00  02 51 35.49    +84 41 37.7   113771 0.9928  91.6     17?  96.22  43.9   32 357 108   5
   2024 03 08 10:10  02 59 44.24    +84 53 14.0   114443 0.9928  91.8     17?  96.61  45.6   33 357 108   5
   2024 03 08 10:20  03 08 29.09    +85 04 33.0   115106 0.9928  92.1     17?  96.98  47.4   33 357 108   5
   2024 03 08 10:30  03 17 53.03    +85 15 32.3   115760 0.9928  92.3     17?  97.33  49.4   33 358 108   5
   2024 03 08 10:40  03 27 59.13    +85 26 09.0   116406 0.9928  92.6     17?  97.67  51.6   33 358 108   5
   2024 03 08 10:50  03 38 50.51    +85 36 20.0   117045 0.9928  92.9     17?  97.99  53.9   33 358 109   5
   2024 03 08 11:00  03 50 30.19    +85 46 01.9   117675 0.9928  93.1     17?  98.29  56.4   33 358 109   5
   2024 03 08 11:10  04 03 00.88    +85 55 10.8   118297 0.9928  93.4     17?  98.56  59.0   34 358 109   5
   2024 03 08 11:20  04 16 24.82    +86 03 42.4   118912 0.9928  93.7     17?  98.81  61.9   34 358 109   5
   2024 03 08 11:30  04 30 43.39    +86 11 32.3   119519 0.9928  93.9     17?  99.04  65.0   34 358 109   5
   2024 03 08 11:40  04 45 56.82    +86 18 35.6   120119 0.9928  94.2     17?  99.25  68.3   34 358 109   5
   2024 03 08 11:50  05 02 03.80    +86 24 47.6   120711 0.9928  94.4     17?  99.42  71.8   34 358 110   5
   2024 03 08 12:00  05 19 01.11    +86 30 03.4   121297 0.9928  94.7     17?  99.58  75.5   34 357 110   5
   2024 03 08 12:10  05 36 43.37    +86 34 18.6   121875 0.9928  95.0     17?  99.70  79.3   34 357 110   5
   2024 03 08 12:20  05 55 02.92    +86 37 29.2   122447 0.9929  95.2     17?  99.80  83.3   34 357 110   5
   2024 03 08 12:30  06 13 49.99    +86 39 32.1   123012 0.9929  95.5 A   17?  99.88  87.3   34 357 110   5
   2024 03 08 12:40  06 32 53.08    +86 40 25.3   123571 0.9929  95.7 A   17?  99.92  91.3   35 357 111   5
   2024 03 08 12:50  06 51 59.70    +86 40 08.0   124123 0.9929  96.0 A   17?  99.94  95.3   35 357 111   5
   2024 03 08 13:00  07 10 57.16    +86 38 40.6   124668 0.9929  96.3 N   17?  99.93  99.3   35 357 111   5
   2024 03 08 13:10  07 29 33.50    +86 36 04.9   125208 0.9929  96.5 Nm  17?  99.88 103.0   35 357 111   5
   2024 03 08 13:20  07 47 38.21    +86 32 23.9   125741 0.9929  96.8 Nm  17?  99.81 106.7   35 356 111   5
   2024 03 08 13:30  08 05 02.79    +86 27 41.4   126268 0.9929  97.0 Cm  17?  99.72 110.1   35 356 111   4
   2024 03 08 13:40  08 21 40.98    +86 22 01.9   126789 0.9929  97.3 Ce  17?  99.59 113.4   35 356 112   4
   ................
   2024 03 09 01:50  13 38 04.78    +75 38 13.7   148249 0.9932 106.1 C   18?  29.93 144.4   28  13 113   2
   2024 03 09 02:00  13 38 49.71    +75 34 13.3   148283 0.9932 106.1 C   18?  28.73 145.6   29  14 113   2
   2024 03 09 02:10  13 39 31.22    +75 30 19.0   148308 0.9932 106.2 N   18?  27.55 147.0   29  14 113   2
   2024 03 09 02:20  13 40 09.31    +75 26 30.6   148327 0.9932 106.2 N   18?  26.43 148.6   30  15 113   2
   2024 03 09 02:30  13 40 43.96    +75 22 47.6   148339 0.9932 106.2 N   18?  25.35 150.4   30  15 113   2
   2024 03 09 02:40  13 41 15.16    +75 19 09.4   148343 0.9932 106.3 A   18?  24.34 152.4   31  16 113   2
   2024 03 09 02:50  13 41 42.90    +75 15 35.8   148341 0.9932 106.3 A   18?  23.39 154.7   31  16 113   2
   2024 03 09 03:00  13 42 07.19    +75 12 06.2   148331 0.9932 106.3 A   18?  22.53 157.3   32  16 113   2
   2024 03 09 03:10  13 42 28.02    +75 08 40.2   148315 0.9932 106.3     18?  21.75 160.1   32  17 113   2
   2024 03 09 03:20  13 42 45.39    +75 05 17.2   148292 0.9932 106.4     18?  21.08 163.2   33  17 113   2
   2024 03 09 03:30  13 42 59.31    +75 01 56.7   148262 0.9932 106.4     18?  20.52 166.5   33  17 113   2
   2024 03 09 03:40  13 43 09.79    +74 58 38.2   148226 0.9932 106.4     18?  20.09 170.0   34  18 113   2
   2024 03 09 03:50  13 43 16.85    +74 55 21.2   148183 0.9932 106.5     18?  19.79 173.8   34  18 113   2
   2024 03 09 04:00  13 43 20.49    +74 52 05.1   148134 0.9932 106.5     18?  19.63 177.6   35  18 113   2
   2024 03 09 04:10  13 43 20.75    +74 48 49.4   148079 0.9932 106.6     18?  19.62 181.4   36  19 113   2
   2024 03 09 04:20  13 43 17.66    +74 45 33.4   148018 0.9932 106.6     18?  19.75 185.3   36  19 113   2
   2024 03 09 04:30  13 43 11.24    +74 42 16.7   147950 0.9932 106.6     18?  20.03 189.0   37  19 113   2
   2024 03 09 04:40  13 43 01.54    +74 38 58.5   147877 0.9933 106.7     18?  20.44 192.5   38  19 113   2
   2024 03 09 04:50  13 42 48.61    +74 35 38.4   147798 0.9933 106.7     18?  20.99 195.8   38  19 113   2
   2024 03 09 05:00  13 42 32.48    +74 32 15.7   147713 0.9933 106.8     18?  21.65 198.9   39  19 113   2
   2024 03 09 05:10  13 42 13.24    +74 28 49.7   147623 0.9933 106.9     18?  22.43 201.6   40  19 113   2
   2024 03 09 05:20  13 41 50.93    +74 25 19.9   147527 0.9933 106.9     18?  23.30 204.1   40  19 114   2
   2024 03 09 05:30  13 41 25.62    +74 21 45.7   147426 0.9933 107.0     18?  24.25 206.3   41  19 114   2
   2024 03 09 05:40  13 40 57.41    +74 18 06.4   147320 0.9933 107.0     18?  25.29 208.2   42  19 114   2
   2024 03 09 05:50  13 40 26.37    +74 14 21.5   147209 0.9933 107.1     18?  26.38 209.8   43  19 114   2
   2024 03 09 06:00  13 39 52.59    +74 10 30.3   147093 0.9933 107.2     18?  27.54 211.2   43  19 114   2
   2024 03 09 06:10  13 39 16.18    +74 06 32.2   146972 0.9933 107.3     18?  28.74 212.4   44  19 114   2
   2024 03 09 06:20  13 38 37.24    +74 02 26.6   146847 0.9933 107.3     18?  29.99 213.3   45  19 114   2
   2024 03 09 06:30  13 37 55.88    +73 58 12.9   146717 0.9933 107.4     18?  31.27 214.1   45  18 114   2
   2024 03 09 06:40  13 37 12.23    +73 53 50.6   146583 0.9933 107.5     18?  32.57 214.7   46  18 114   2
   2024 03 09 06:50  13 36 26.40    +73 49 19.0   146445 0.9933 107.6     18?  33.91 215.1   47  17 114   1
   2024 03 09 07:00  13 35 38.53    +73 44 37.6   146302 0.9933 107.7     18?  35.26 215.4   48  17 114   1
   2024 03 09 07:10  13 34 48.76    +73 39 45.9   146155 0.9933 107.8     18?  36.63 215.5   48  16 114   1
   2024 03 09 07:20  13 33 57.24    +73 34 43.3   146005 0.9933 107.9     18?  38.01 215.5   49  16 114   1
   2024 03 09 07:30  13 33 04.09    +73 29 29.4   145851 0.9933 108.0     18?  39.40 215.5   50  15 114   1
   2024 03 09 07:40  13 32 09.50    +73 24 03.6   145693 0.9933 108.1     18?  40.80 215.3   50  14 114   1
   2024 03 09 07:50  13 31 13.59    +73 18 25.5   145532 0.9933 108.2     18?  42.20 215.0   51  14 115   1
   2024 03 09 08:00  13 30 16.55    +73 12 34.7   145367 0.9933 108.3     18?  43.60 214.7   51  13 115   1
   2024 03 09 08:10  13 29 18.52    +73 06 30.8   145199 0.9933 108.5     18?  45.00 214.3   52  12 115   1
   2024 03 09 08:20  13 28 19.67    +73 00 13.3   145028 0.9933 108.6     18?  46.40 213.8   52  11 115   1
   2024 03 09 08:30  13 27 20.18    +72 53 42.0   144853 0.9933 108.7     18?  47.80 213.3   53  10 115   1
   2024 03 09 08:40  13 26 20.20    +72 46 56.4   144676 0.9933 108.9     18?  49.19 212.7   53   8 115   1
   2024 03 09 08:50  13 25 19.90    +72 39 56.4   144496 0.9933 109.0     18?  50.57 212.1   54   7 115   1
   2024 03 09 09:00  13 24 19.46    +72 32 41.7   144313 0.9933 109.1     18?  51.94 211.4   54   6 115   1
   2024 03 09 09:10  13 23 19.02    +72 25 12.0   144128 0.9933 109.3     18?  53.30 210.7   55   5 115   1
   2024 03 09 09:20  13 22 18.77    +72 17 27.2   143940 0.9933 109.4     18?  54.65 209.9   55   3 116   1
   2024 03 09 09:30  13 21 18.85    +72 09 27.1   143749 0.9934 109.6     18?  55.99 209.2   55   2 116   1
   2024 03 09 09:40  13 20 19.43    +72 01 11.5   143556 0.9934 109.7     18?  57.31 208.4   55   0 116   1
   2024 03 09 09:50  13 19 20.66    +71 52 40.5   143360 0.9934 109.9  t  18?  58.62 207.5   55 359 116   1
   2024 03 09 10:00  13 18 22.68    +71 43 53.9   143162 0.9934 110.0     18?  59.91 206.7   56 357 116   1
   2024 03 09 10:10  13 17 25.65    +71 34 51.8   142962 0.9934 110.2     18?  61.19 205.8   56 356 116   1
   2024 03 09 10:20  13 16 29.70    +71 25 34.1   142760 0.9934 110.4  e  18?  62.45 204.9   56 354 116   1
   2024 03 09 10:30  13 15 34.96    +71 16 00.9   142555 0.9934 110.6     18?  63.69 204.0   55 352 117   1
   2024 03 09 10:40  13 14 41.57    +71 06 12.3   142348 0.9934 110.7     18?  64.91 203.1   55 351 117   1
   2024 03 09 10:50  13 13 49.63    +70 56 08.4   142139 0.9934 110.9     18?  66.11 202.1   55 349 117   1
   2024 03 09 11:00  13 12 59.27    +70 45 49.3   141928 0.9934 111.1     18?  67.28 201.2   55 348 117   1
   2024 03 09 11:10  13 12 10.60    +70 35 15.3   141714 0.9934 111.3     18?  68.44 200.2   55 346 117   1
   2024 03 09 11:20  13 11 23.70    +70 24 26.5   141499 0.9934 111.5     18?  69.58 199.3   54 345 117   1
   2024 03 09 11:30  13 10 38.67    +70 13 23.2   141281 0.9934 111.7     18?  70.69 198.3   54 343 118   1
   2024 03 09 11:40  13 09 55.60    +70 02 05.6   141061 0.9934 111.8     18?  71.79 197.3   53 342 118   1
   2024 03 09 11:50  13 09 14.57    +69 50 34.1   140839 0.9934 112.0     18?  72.85 196.3   53 341 118   1
   2024 03 09 12:00  13 08 35.63    +69 38 48.8   140614 0.9934 112.2     18?  73.90 195.4   52 339 118   1
   2024 03 09 12:10  13 07 58.86    +69 26 50.2   140388 0.9934 112.4     18?  74.92 194.4   52 338 118   1
   2024 03 09 12:20  13 07 24.31    +69 14 38.6   140159 0.9934 112.6     18?  75.92 193.4   51 337 118   1
   2024 03 09 12:30  13 06 52.02    +69 02 14.4   139927 0.9934 112.8 A   18?  76.89 192.4   50 336 119   1
   2024 03 09 12:40  13 06 22.03    +68 49 38.0   139693 0.9934 113.0 A   18?  77.84 191.4   49 335 119   1
   2024 03 09 12:50  13 05 54.39    +68 36 49.7   139457 0.9934 113.2 A   18?  78.76 190.5   49 334 119   1
   2024 03 09 13:00  13 05 29.11    +68 23 50.0   139218 0.9934 113.5 N   18?  79.65 189.5   48 333 119   1
   2024 03 09 13:10  13 05 06.21    +68 10 39.3   138976 0.9934 113.7 N   18?  80.53 188.5   47 333 119   1
   2024 03 09 13:20  13 04 45.72    +67 57 18.0   138732 0.9934 113.9 N   18?  81.37 187.5   46 332 119   1
   2024 03 09 13:30  13 04 27.63    +67 43 46.6   138484 0.9934 114.1 C   18?  82.19 186.6   45 331 120   1
   2024 03 09 13:40  13 04 11.95    +67 30 05.6   138234 0.9934 114.3 Cm  18?  82.99 185.6   44 331 120   1
   ................
   2024 03 10 01:50  13 45 35.44    +49 38 39.3    98776 0.9936 125.2 C   18?  98.26 160.0   10  32 127   0
   2024 03 10 02:00  13 46 09.19    +49 23 08.2    97769 0.9936 125.3 C   18?  99.09 160.8   10  34 127   0
   2024 03 10 02:10  13 46 41.65    +49 07 23.8    96747 0.9936 125.5 N   18? 100.04 161.7   11  35 127   0
   2024 03 10 02:20  13 47 12.77    +48 51 25.0    95708 0.9936 125.6 N   18? 101.13 162.6   12  36 127   0
   2024 03 10 02:30  13 47 42.50    +48 35 10.3    94654 0.9936 125.7 N   17? 102.35 163.5   13  38 127   0
   2024 03 10 02:40  13 48 10.81    +48 18 38.4    93584 0.9936 125.8 A   17? 103.73 164.5   14  39 128   0
   2024 03 10 02:50  13 48 37.64    +48 01 47.6    92497 0.9936 126.0 A   17? 105.28 165.5   15  40 128   0
   2024 03 10 03:00  13 49 02.97    +47 44 36.3    91395 0.9936 126.1 A   17? 107.01 166.5   16  42 128   0
   2024 03 10 03:10  13 49 26.75    +47 27 02.9    90277 0.9936 126.3     17? 108.93 167.5   17  43 128   0
   2024 03 10 03:20  13 49 48.94    +47 09 05.4    89142 0.9936 126.4     17? 111.07 168.5   19  44 128   0
   2024 03 10 03:30  13 50 09.50    +46 50 42.0    87991 0.9936 126.6     17? 113.43 169.6   20  45 128   0
   2024 03 10 03:40  13 50 28.40    +46 31 50.4    86824 0.9936 126.8     17? 116.03 170.6   21  47 128   0
   2024 03 10 03:50  13 50 45.61    +46 12 28.4    85641 0.9936 126.9     17? 118.89 171.6   22  48 129   0
   2024 03 10 04:00  13 51 01.08    +45 52 33.6    84441 0.9936 127.1     17? 122.03 172.7   23  49 129   0
   2024 03 10 04:10  13 51 14.78    +45 32 03.5    83225 0.9936 127.3     17? 125.46 173.7   25  50 129   0
   2024 03 10 04:20  13 51 26.69    +45 10 55.3    81993 0.9936 127.5     17? 129.21 174.7   26  52 129   0
   2024 03 10 04:30  13 51 36.77    +44 49 05.9    80743 0.9936 127.7     17? 133.31 175.7   28  53 129   0
   2024 03 10 04:40  13 51 44.99    +44 26 32.3    79477 0.9936 128.0     17? 137.76 176.6   29  54 130   0
   2024 03 10 04:50  13 51 51.33    +44 03 10.9    78195 0.9936 128.2     17? 142.61 177.5   30  55 130   0
   2024 03 10 05:00  13 51 55.75    +43 38 58.0    76895 0.9936 128.4     17? 147.88 178.4   32  57 130   0
   2024 03 10 05:10  13 51 58.23    +43 13 49.6    75579 0.9936 128.7     17? 153.60 179.2   33  58 130   0
   2024 03 10 05:20  13 51 58.75    +42 47 41.3    74245 0.9936 129.0     17? 159.80 180.0   35  59 131   0
   2024 03 10 05:30  13 51 57.28    +42 20 28.4    72895 0.9936 129.3     17? 166.53 180.8   36  61 131   0
   2024 03 10 05:40  13 51 53.81    +41 52 05.7    71527 0.9936 129.6     17? 173.83 181.5   38  62 131   0
   2024 03 10 05:50  13 51 48.30    +41 22 27.5    70141 0.9936 129.9     17? 181.74 182.2   40  64 132   0
   2024 03 10 06:00  13 51 40.75    +40 51 27.8    68738 0.9935 130.2     17? 190.32 182.8   41  65 132   0
   2024 03 10 06:10  13 51 31.13    +40 18 59.6    67317 0.9935 130.6     17? 199.63 183.4   43  67 132   0
   2024 03 10 06:20  13 51 19.42    +39 44 55.6    65878 0.9935 130.9     17? 209.75 183.9   45  68 133   0
   2024 03 10 06:30  13 51 05.61    +39 09 07.5    64420 0.9935 131.3     17? 220.76 184.4   46  70 133   0
   2024 03 10 06:40  13 50 49.67    +38 31 26.2    62944 0.9935 131.8     17? 232.74 184.8   48  71 133   0
   2024 03 10 06:50  13 50 31.59    +37 51 41.5    61449 0.9935 132.2     17? 245.80 185.2   50  73 134   0
   2024 03 10 07:00  13 50 11.34    +37 09 42.0    59936 0.9935 132.7     17? 260.08 185.5   52  75 134   0
   2024 03 10 07:10  13 49 48.91    +36 25 15.1    58402 0.9935 133.2     17? 275.71 185.8   54  77 135   0
   2024 03 10 07:20  13 49 24.26    +35 38 06.4    56849 0.9935 133.7     17? 292.88 186.0   55  80 135   0
   2024 03 10 07:30  13 48 57.37    +34 47 59.7    55276 0.9935 134.2     17? 311.77 186.2   57  82 136   0
   2024 03 10 07:40  13 48 28.20    +33 54 36.5    53683 0.9935 134.8     17? 332.63 186.4   59  85 137   0
   2024 03 10 07:50  13 47 56.71    +32 57 35.9    52068 0.9935 135.4     16? 355.75 186.5   61  89 137   0
   2024 03 10 08:00  13 47 22.83    +31 56 33.5    50433 0.9935 136.1     16? 381.47 186.6   62  92 138   0
   2024 03 10 08:10  13 46 46.52    +30 51 01.4    48776 0.9935 136.7     16? 410.21 186.6   64  97 139   0
   2024 03 10 08:20  13 46 07.67    +29 40 26.9    47097 0.9935 137.5     16? 442.47 186.7   66 102 139   0
   2024 03 10 08:30  13 45 26.19    +28 24 11.9    45396 0.9935 138.2     16? 478.87 186.7   67 107 140   0
   2024 03 10 08:40  13 44 41.93    +27 01 31.1    43672 0.9935 139.0     16? 520.18 186.6   68 114 141   0
   2024 03 10 08:50  13 43 54.71    +25 31 30.9    41925 0.9935 139.9     16? 567.37 186.6   69 122 142   0
   2024 03 10 09:00  13 43 04.32    +23 53 06.7    40156 0.9935 140.8     16? 621.64 186.5   70 130 143   0
   2024 03 10 09:10  13 42 10.43    +22 05 00.6    38364 0.9935 141.7  e  16? 684.52 186.4   70 139 144   0
   2024 03 10 09:20  13 41 12.67    +20 05 36.8    36550 0.9935 142.7     16? 758.01 186.3   69 149 145   0
   2024 03 10 09:30  13 40 10.50    +17 52 57.3    34715 0.9935 143.6     16? 844.67 186.2   68 158 146   0
   2024 03 10 09:40  13 39 03.20    +15 24 34.8    32860 0.9935 144.6     16? 947.86 186.0   67 167 147   0
   2024 03 10 09:50  13 37 49.79    +12 37 23.0    30988 0.9935 145.6     16? 1072.1 185.9   64 174 147   0
   2024 03 10 10:00  13 36 28.88    +09 27 24.0    29104 0.9935 146.4  t  16? 1223.3 185.8   61 180 148   0
   2024 03 10 10:10  13 34 58.46    +05 49 31.0    27213 0.9934 147.1     15? 1409.6 185.7   57 186 149   0
   2024 03 10 10:20  13 33 15.56    +01 37 04.0    25326 0.9934 147.4     15? 1641.7 185.7   53 190 149   0
   2024 03 10 10:30  13 31 15.58    -03 18 40.7    23457 0.9934 147.2     15? 1934.0 185.7   47 193 148   0
   2024 03 10 10:40  13 28 51.03    -09 09 07.6    21629 0.9934 146.0     15? 2304.9 185.8   41 196 147   0
   2024 03 10 10:50  13 25 48.95    -16 08 57.3    19877 0.9934 143.6     15? 2775.7 186.1   34 198 144   0
   2024 03 10 11:00  13 21 44.94    -24 36 10.8    18252 0.9934 139.4     14? 3365.8 186.6   24 199 139   0
   2024 03 10 11:10  13 15 47.27    -34 50 33.0    16829 0.9934 133.0     14? 4078.3 187.6   14 199 132   0
   2024 03 10 11:20  13 05 45.68    -47 07 49.8    15710 0.9934 124.1     14? 4871.9 189.7    1 198 123   0
   ................
   2024 03 11 01:50  00 15 01.53    +88 37 56.0   113281 0.9935  92.3 Cm  17?  49.58 319.7   37 358  90   0
   2024 03 11 02:00  23 59 24.28    +88 43 58.5   113980 0.9935  92.4 Cm  17?  47.70 316.6   37 358  90   0
   2024 03 11 02:10  23 42 19.77    +88 49 32.2   114670 0.9935  92.5 Nm  17?  45.94 313.2   37 358  90   0
   2024 03 11 02:20  23 23 40.49    +88 54 37.1   115350 0.9935  92.6 Nm  17?  44.31 309.4   37 358  90   0
   2024 03 11 02:30  23 03 19.24    +88 59 12.9   116021 0.9935  92.6 N   17?  42.80 305.1   37 358  90   0
   2024 03 11 02:40  22 41 09.78    +89 03 19.1   116681 0.9935  92.7 A   17?  41.42 300.4   37 359  90   0
   2024 03 11 02:50  22 17 07.94    +89 06 55.2   117333 0.9935  92.8 A   17?  40.18 295.2   37 359  90   0
   2024 03 11 03:00  21 51 13.02    +89 10 00.1   117975 0.9935  92.9 A   17?  39.09 289.5   37 359  90   0
   2024 03 11 03:10  21 23 29.41    +89 12 33.1   118607 0.9935  93.0     17?  38.14 283.6   37 359  90   0
   2024 03 11 03:20  20 54 08.19    +89 14 33.1   119230 0.9935  93.0     17?  37.34 277.3   37 359  90   0
   2024 03 11 03:30  20 23 28.21    +89 15 59.3   119844 0.9935  93.1     17?  36.69 271.1   37 359  90   0
   2024 03 11 03:40  19 51 55.78    +89 16 51.1   120449 0.9935  93.2  t  17?  36.19 265.0   37   0  90   0
   2024 03 11 03:50  19 20 02.85    +89 17 08.6   121044 0.9935  93.3     17?  35.85 259.2   37   0  90   0
   2024 03 11 04:00  18 48 23.62    +89 16 52.3   121631 0.9935  93.4     17?  35.65 253.8   37   0  90   0
   2024 03 11 04:10  18 17 30.50    +89 16 03.4   122208 0.9935  93.5     17?  35.60 248.9   37   0  90   0
   2024 03 11 04:20  17 47 50.66    +89 14 43.3   122777 0.9935  93.5     17?  35.69 244.6   37   0  90   0
   2024 03 11 04:30  17 19 43.95    +89 12 53.9   123337 0.9935  93.6     17?  35.91 240.6   37   0  91   0
   2024 03 11 04:40  16 53 22.52    +89 10 37.0   123889 0.9936  93.7     17?  36.25 237.1   37   0  91   0
   2024 03 11 04:50  16 28 51.72    +89 07 54.5   124431 0.9936  93.8     17?  36.70 234.0   37   1  91   0
   2024 03 11 05:00  16 06 11.64    +89 04 48.1   124966 0.9936  93.9     17?  37.26 231.1   37   1  91   0
   2024 03 11 05:10  15 45 18.77    +89 01 19.0   125492 0.9936  94.0     17?  37.91 228.5   37   1  91   0
   2024 03 11 05:20  15 26 07.44    +88 57 28.4   126010 0.9936  94.1     17?  38.64 226.1   37   1  91   0
   2024 03 11 05:30  15 08 30.85    +88 53 17.4   126520 0.9936  94.2     17?  39.45 223.9   37   1  91   1
   2024 03 11 05:40  14 52 21.84    +88 48 46.5   127021 0.9936  94.3     17?  40.32 221.9   37   1  91   1
   2024 03 11 05:50  14 37 33.33    +88 43 56.4   127515 0.9936  94.4     17?  41.25 219.9   38   1  91   1
   2024 03 11 06:00  14 23 58.56    +88 38 47.7   128001 0.9936  94.6     17?  42.23 218.1   38   1  91   1
   2024 03 11 06:10  14 11 31.26    +88 33 20.6   128480 0.9936  94.7     17?  43.24 216.3   38   1  91   1
   2024 03 11 06:20  14 00 05.67    +88 27 35.6   128951 0.9936  94.8     17?  44.29 214.6   38   1  91   1
   2024 03 11 06:30  13 49 36.54    +88 21 32.8   129414 0.9936  94.9     17?  45.37 213.0   38   1  91   1
   2024 03 11 06:40  13 39 59.12    +88 15 12.7   129870 0.9936  95.0     17?  46.46 211.4   38   1  91   1
   2024 03 11 06:50  13 31 09.10    +88 08 35.5   130319 0.9936  95.2     17?  47.58 209.9   39   1  91   1
   2024 03 11 07:00  13 23 02.60    +88 01 41.4   130761 0.9936  95.3     17?  48.70 208.5   39   1  91   1
   2024 03 11 07:10  13 15 36.08    +87 54 30.7   131196 0.9936  95.4     17?  49.84 207.0   39   1  92   1
   2024 03 11 07:20  13 08 46.38    +87 47 03.6   131624 0.9936  95.6     17?  50.98 205.7   39   1  92   1
   2024 03 11 07:30  13 02 30.61    +87 39 20.4   132045 0.9936  95.7     17?  52.12 204.3   39   1  92   1
   2024 03 11 07:40  12 56 46.14    +87 31 21.4   132460 0.9936  95.9     17?  53.25 203.1   40   1  92   1
   2024 03 11 07:50  12 51 30.59    +87 23 06.9   132868 0.9936  96.0     17?  54.39 201.8   40   1  92   1
   2024 03 11 08:00  12 46 41.80    +87 14 37.3   133270 0.9936  96.1     17?  55.51 200.6   40   1  92   1
   2024 03 11 08:10  12 42 17.80    +87 05 52.7   133666 0.9936  96.3     17?  56.63 199.4   40   0  92   1
   2024 03 11 08:20  12 38 16.77    +86 56 53.5   134055 0.9936  96.5     17?  57.73 198.2   40   0  92   1
   2024 03 11 08:30  12 34 37.08    +86 47 40.2   134439 0.9937  96.6     17?  58.82 197.1   41   0  92   1
   2024 03 11 08:40  12 31 17.20    +86 38 12.9   134817 0.9937  96.8     17?  59.89 196.0   41   0  92   1
   2024 03 11 08:50  12 28 15.77    +86 28 32.1   135189 0.9937  96.9  t  17?  60.95 194.9   41 359  93   1
   2024 03 11 09:00  12 25 31.50    +86 18 38.2   135555 0.9937  97.1     17?  61.99 193.9   41 359  93   1
   2024 03 11 09:10  12 23 03.24    +86 08 31.5   135916 0.9937  97.3     17?  63.01 192.9   41 359  93   1
   2024 03 11 09:20  12 20 49.91    +85 58 12.3   136271 0.9937  97.5     17?  64.01 191.9   41 358  93   1
   2024 03 11 09:30  12 18 50.53    +85 47 41.2   136622 0.9937  97.6     17?  64.99 190.9   41 358  93   1
   2024 03 11 09:40  12 17 04.17    +85 36 58.4   136966 0.9937  97.8     17?  65.94 189.9   42 358  93   1
   2024 03 11 09:50  12 15 30.00    +85 26 04.5   137306 0.9937  98.0     17?  66.87 189.0   42 357  93   1
   2024 03 11 10:00  12 14 07.24    +85 14 59.7   137641 0.9937  98.2     17?  67.78 188.1   42 357  93   1
   2024 03 11 10:10  12 12 55.17    +85 03 44.5   137971 0.9937  98.4     17?  68.66 187.2   42 357  94   1
   2024 03 11 10:20  12 11 53.12    +84 52 19.3   138296 0.9937  98.5     17?  69.51 186.3   42 356  94   1
   2024 03 11 10:30  12 11 00.48    +84 40 44.6   138616 0.9937  98.7     17?  70.34 185.4   42 356  94   1
   2024 03 11 10:40  12 10 16.66    +84 29 00.7   138932 0.9937  98.9     17?  71.15 184.6   42 355  94   1
   2024 03 11 10:50  12 09 41.14    +84 17 08.1   139243 0.9937  99.1  e  17?  71.92 183.7   42 355  94   1
   2024 03 11 11:00  12 09 13.41    +84 05 07.3   139549 0.9937  99.3     17?  72.66 182.9   42 354  94   1
   2024 03 11 11:10  12 08 53.02    +83 52 58.6   139851 0.9937  99.5     17?  73.38 182.1   42 354  94   1
   2024 03 11 11:20  12 08 39.53    +83 40 42.5   140149 0.9937  99.7     17?  74.07 181.3   42 354  95   1
   2024 03 11 11:30  12 08 32.53    +83 28 19.4   140442 0.9937  99.9     17?  74.73 180.5   42 353  95   1
   2024 03 11 11:40  12 08 31.64    +83 15 49.8   140731 0.9937 100.1     17?  75.36 179.7   42 353  95   1
   2024 03 11 11:50  12 08 36.53    +83 03 14.1   141015 0.9937 100.3     17?  75.96 178.9   41 352  95   2
   2024 03 11 12:00  12 08 46.84    +82 50 32.8   141296 0.9937 100.5     18?  76.52 178.2   41 352  95   2
   2024 03 11 12:10  12 09 02.28    +82 37 46.3   141572 0.9937 100.7     18?  77.06 177.4   41 351  95   2
   2024 03 11 12:20  12 09 22.54    +82 24 54.9   141845 0.9937 100.9     18?  77.57 176.7   41 351  96   2
   2024 03 11 12:30  12 09 47.36    +82 11 59.3   142113 0.9938 101.1 A   18?  78.04 175.9   41 350  96   2
   2024 03 11 12:40  12 10 16.47    +81 58 59.8   142377 0.9938 101.4 A   18?  78.49 175.2   41 350  96   2
   2024 03 11 12:50  12 10 49.64    +81 45 56.8   142637 0.9938 101.6 A   18?  78.90 174.5   40 349  96   2
   2024 03 11 13:00  12 11 26.63    +81 32 50.8   142893 0.9938 101.8 N   18?  79.28 173.7   40 349  96   2
   2024 03 11 13:10  12 12 07.23    +81 19 42.2   143145 0.9938 102.0 N   18?  79.63 173.0   40 349  96   2
   2024 03 11 13:20  12 12 51.22    +81 06 31.5   143393 0.9938 102.2 N   18?  79.95 172.3   39 348  97   2
   2024 03 11 13:30  12 13 38.43    +80 53 19.0   143637 0.9938 102.4 C   18?  80.24 171.6   39 348  97   2
   2024 03 11 13:40  12 14 28.65    +80 40 05.2   143877 0.9938 102.6 C   18?  80.50 171.0   39 348  97   2
   ................
   2024 03 12 01:50  13 39 59.58    +68 59 51.0   145614 0.9941 110.8 Cm  18?  32.25 147.5   25  19 105   4
   2024 03 12 02:00  13 40 30.53    +68 55 21.3   145356 0.9941 110.8 Cm  18?  31.23 148.8   25  20 105   4
   2024 03 12 02:10  13 40 59.20    +68 50 56.3   145089 0.9941 110.8 Nm  18?  30.25 150.3   26  21 105   4
   2024 03 12 02:20  13 41 25.57    +68 46 35.6   144815 0.9941 110.9 Nm  18?  29.31 152.0   26  21 105   4
   2024 03 12 02:30  13 41 49.61    +68 42 18.7   144533 0.9941 110.9 Nm  18?  28.43 153.9   27  22 105   4
   2024 03 12 02:40  13 42 11.29    +68 38 05.1   144243 0.9941 110.9 Am  18?  27.62 155.9   28  23 105   4
   2024 03 12 02:50  13 42 30.58    +68 33 54.4   143946 0.9941 111.0 Am  18?  26.88 158.2   29  23 105   4
   2024 03 12 03:00  13 42 47.48    +68 29 46.1   143641 0.9941 111.0 Am  18?  26.23 160.6   29  24 105   4
   2024 03 12 03:10  13 43 01.95    +68 25 39.8   143329 0.9941 111.0  m  18?  25.67 163.3   30  24 105   4
   2024 03 12 03:20  13 43 13.98    +68 21 34.8   143010 0.9941 111.1  m  18?  25.21 166.1   31  25 105   4
   2024 03 12 03:30  13 43 23.56    +68 17 30.6   142683 0.9941 111.1  m  18?  24.87 169.1   32  25 105   4
   2024 03 12 03:40  13 43 30.69    +68 13 26.8   142350 0.9941 111.2  m  18?  24.65 172.2   33  26 105   4
   2024 03 12 03:50  13 43 35.35    +68 09 22.7   142010 0.9941 111.2     18?  24.56 175.4   33  26 105   4
   2024 03 12 04:00  13 43 37.55    +68 05 17.8   141662 0.9941 111.3     18?  24.60 178.6   34  27 105   4
   2024 03 12 04:10  13 43 37.29    +68 01 11.5   141309 0.9941 111.3     18?  24.78 181.8   35  27 105   4
   2024 03 12 04:20  13 43 34.57    +67 57 03.1   140949 0.9941 111.4     18?  25.09 184.9   36  27 105   4
   2024 03 12 04:30  13 43 29.41    +67 52 52.2   140582 0.9941 111.5     18?  25.54 187.9   37  28 105   4
   2024 03 12 04:40  13 43 21.82    +67 48 38.1   140209 0.9941 111.5     18?  26.12 190.8   38  28 105   4
   2024 03 12 04:50  13 43 11.83    +67 44 20.1   139831 0.9941 111.6     18?  26.82 193.5   39  28 105   4
   2024 03 12 05:00  13 42 59.45    +67 39 57.6   139446 0.9941 111.7     18?  27.64 196.1   40  28 105   4
   2024 03 12 05:10  13 42 44.72    +67 35 30.0   139055 0.9941 111.7     18?  28.57 198.4   41  28 105   4
   2024 03 12 05:20  13 42 27.67    +67 30 56.6   138659 0.9941 111.8     18?  29.59 200.5   42  29 105   4
   2024 03 12 05:30  13 42 08.35    +67 26 16.8   138258 0.9941 111.9     18?  30.71 202.4   43  29 105   4
   2024 03 12 05:40  13 41 46.79    +67 21 29.9   137851 0.9941 112.0     18?  31.91 204.0   44  29 105   4
   2024 03 12 05:50  13 41 23.05    +67 16 35.2   137439 0.9941 112.0     18?  33.19 205.5   45  28 105   4
   2024 03 12 06:00  13 40 57.18    +67 11 32.2   137022 0.9941 112.1     18?  34.53 206.8   46  28 105   4
   2024 03 12 06:10  13 40 29.25    +67 06 20.1   136600 0.9941 112.2     18?  35.94 207.9   47  28 105   4
   2024 03 12 06:20  13 39 59.32    +67 00 58.3   136174 0.9941 112.3     18?  37.40 208.8   48  28 105   5
   2024 03 12 06:30  13 39 27.46    +66 55 26.2   135742 0.9941 112.4     18?  38.91 209.5   49  28 106   5
   2024 03 12 06:40  13 38 53.75    +66 49 43.1   135307 0.9941 112.5     18?  40.46 210.2   50  27 106   5
   2024 03 12 06:50  13 38 18.27    +66 43 48.3   134867 0.9941 112.7     18?  42.05 210.6   51  27 106   5
   2024 03 12 07:00  13 37 41.10    +66 37 41.2   134423 0.9941 112.8     18?  43.68 211.0   52  26 106   5
   2024 03 12 07:10  13 37 02.35    +66 31 21.3   133975 0.9941 112.9     18?  45.33 211.2   53  25 106   5
   2024 03 12 07:20  13 36 22.10    +66 24 47.9   133523 0.9941 113.0     18?  47.02 211.4   54  24 106   5
   2024 03 12 07:30  13 35 40.45    +66 18 00.4   133068 0.9942 113.2     18?  48.72 211.4   55  23 106   5
   2024 03 12 07:40  13 34 57.51    +66 10 58.2   132608 0.9942 113.3     18?  50.45 211.4   56  22 106   5
   2024 03 12 07:50  13 34 13.38    +66 03 40.9   132146 0.9942 113.4     18?  52.19 211.2   57  21 106   5
   2024 03 12 08:00  13 33 28.19    +65 56 07.8   131680 0.9942 113.6     18?  53.95 211.0   57  20 106   5
   2024 03 12 08:10  13 32 42.03    +65 48 18.4   131210 0.9942 113.7     18?  55.73 210.8   58  18 106   5
   2024 03 12 08:20  13 31 55.03    +65 40 12.3   130738 0.9942 113.9     18?  57.51 210.4   59  17 106   5
   2024 03 12 08:30  13 31 07.31    +65 31 48.9   130262 0.9942 114.1     18?  59.30 210.1   60  15 107   5
   2024 03 12 08:40  13 30 18.99    +65 23 07.9   129784 0.9942 114.2     18?  61.10 209.6   60  13 107   5
   2024 03 12 08:50  13 29 30.20    +65 14 08.8   129303 0.9942 114.4     18?  62.91 209.1   61  11 107   5
   2024 03 12 09:00  13 28 41.05    +65 04 51.2   128819 0.9942 114.6     18?  64.72 208.6   62   9 107   5
   2024 03 12 09:10  13 27 51.66    +64 55 14.8   128332 0.9942 114.7     18?  66.53 208.1   62   7 107   5
   2024 03 12 09:20  13 27 02.18    +64 45 19.1   127842 0.9942 114.9     18?  68.34 207.5   62   4 107   5
   2024 03 12 09:30  13 26 12.71    +64 35 04.1   127350 0.9942 115.1     18?  70.15 206.8   63   2 107   5
   2024 03 12 09:40  13 25 23.39    +64 24 29.2   126856 0.9942 115.3  t  18?  71.96 206.2   63 359 107   6
   2024 03 12 09:50  13 24 34.33    +64 13 34.4   126359 0.9942 115.5     18?  73.76 205.5   63 357 108   6
   2024 03 12 10:00  13 23 45.65    +64 02 19.3   125859 0.9942 115.7  e  18?  75.57 204.7   63 354 108   6
   2024 03 12 10:10  13 22 57.48    +63 50 43.9   125357 0.9942 115.9     18?  77.37 204.0   63 351 108   6
   2024 03 12 10:20  13 22 09.92    +63 38 48.0   124853 0.9942 116.1     18?  79.16 203.3   63 348 108   6
   2024 03 12 10:30  13 21 23.10    +63 26 31.4   124346 0.9942 116.4     18?  80.94 202.5   63 346 108   6
   2024 03 12 10:40  13 20 37.12    +63 13 54.0   123837 0.9942 116.6     18?  82.72 201.7   62 343 108   6
   2024 03 12 10:50  13 19 52.09    +63 00 56.0   123326 0.9942 116.8     18?  84.49 200.9   62 341 108   6
   2024 03 12 11:00  13 19 08.11    +62 47 37.1   122812 0.9942 117.0     18?  86.25 200.1   61 338 109   6
   2024 03 12 11:10  13 18 25.27    +62 33 57.4   122295 0.9942 117.3     18?  88.01 199.2   61 336 109   6
   2024 03 12 11:20  13 17 43.68    +62 19 56.9   121776 0.9942 117.5     18?  89.75 198.4   60 334 109   6
   2024 03 12 11:30  13 17 03.41    +62 05 35.7   121254 0.9942 117.8     18?  91.49 197.5   59 332 109   6
   2024 03 12 11:40  13 16 24.57    +61 50 53.9   120730 0.9942 118.0     18?  93.21 196.7   58 330 109   6
   2024 03 12 11:50  13 15 47.21    +61 35 51.6   120203 0.9942 118.3     18?  94.93 195.8   57 328 110   6
   2024 03 12 12:00  13 15 11.43    +61 20 29.0   119673 0.9942 118.5     18?  96.63 195.0   56 327 110   6
   2024 03 12 12:10  13 14 37.28    +61 04 46.1   119140 0.9942 118.8     18?  98.32 194.1   55 325 110   6
   2024 03 12 12:20  13 14 04.83    +60 48 43.1   118604 0.9942 119.0     18? 100.01 193.2   54 324 110   6
   2024 03 12 12:30  13 13 34.14    +60 32 20.3   118065 0.9942 119.3 A   18? 101.68 192.4   53 323 110   6
   2024 03 12 12:40  13 13 05.26    +60 15 37.8   117523 0.9942 119.6 A   18? 103.35 191.5   52 322 111   6
   2024 03 12 12:50  13 12 38.24    +59 58 36.0   116977 0.9942 119.9 A   18? 105.00 190.6   51 321 111   7
   2024 03 12 13:00  13 12 13.12    +59 41 14.9   116427 0.9942 120.1 N   18? 106.65 189.7   49 320 111   7
   2024 03 12 13:10  13 11 49.95    +59 23 34.9   115874 0.9942 120.4 N   18? 108.28 188.9   48 319 111   7
   2024 03 12 13:20  13 11 28.75    +59 05 36.2   115316 0.9942 120.7 N   18? 109.91 188.0   47 319 112   7
   2024 03 12 13:30  13 11 09.55    +58 47 19.0   114755 0.9942 121.0 C   18? 111.53 187.2   46 318 112   7
   2024 03 12 13:40  13 10 52.37    +58 28 43.7   114189 0.9942 121.3 C   18? 113.15 186.3   44 318 112   7
   ................
   2024 03 13 06:10  01 11 48.26    +40 21 33.7    37984 0.9939  48.6     16? 849.07   9.0    0 325  28  11
   2024 03 13 06:20  01 13 42.44    +42 34 30.3    39826 0.9939  50.7     16? 768.27   9.3    0 328  30  11
   2024 03 13 06:30  01 15 33.43    +44 35 06.9    41630 0.9939  52.5     16? 700.14   9.7    1 330  32  11
   2024 03 13 06:40  01 17 22.23    +46 25 16.1    43398 0.9939  54.3     16? 642.20  10.1    2 332  34  11
   2024 03 13 06:50  01 19 09.62    +48 06 28.8    45129 0.9939  55.8     16? 592.52  10.5    3 334  35  11
   2024 03 13 07:00  01 20 56.24    +49 39 59.3    46824 0.9939  57.3     16? 549.61  10.9    3 336  37  11
   2024 03 13 07:10  01 22 42.61    +51 06 48.6    48485 0.9939  58.7     16? 512.31  11.3    4 338  38  11
   2024 03 13 07:20  01 24 29.14    +52 27 47.5    50111 0.9939  60.0     16? 479.68  11.8    4 340  39  11
   2024 03 13 07:30  01 26 16.18    +53 43 38.7    51705 0.9939  61.2     16? 450.99  12.3    5 341  40  11
   2024 03 13 07:40  01 28 04.03    +54 54 58.1    53266 0.9939  62.3     16? 425.62  12.8    6 343  41  12
   2024 03 13 07:50  01 29 52.93    +56 02 16.2    54797 0.9939  63.4     16? 403.09  13.2    6 344  42  12
   2024 03 13 08:00  01 31 43.11    +57 05 59.1    56298 0.9939  64.4     16? 382.99  13.7    7 346  43  12
   2024 03 13 08:10  01 33 34.75    +58 06 29.3    57770 0.9939  65.4     16? 364.99  14.2    7 347  44  12
   2024 03 13 08:20  01 35 28.01    +59 04 06.3    59214 0.9939  66.3     16? 348.80  14.7    8 349  45  12
   2024 03 13 08:30  01 37 23.05    +59 59 06.8    60631 0.9939  67.2     16? 334.19  15.2    9 350  46  12
   2024 03 13 08:40  01 39 19.99    +60 51 45.8    62021 0.9939  68.1     16? 320.96  15.7    9 351  47  12
   2024 03 13 08:50  01 41 18.97    +61 42 16.1    63387 0.9939  68.9     16? 308.94  16.1   10 352  47  12
   2024 03 13 09:00  01 43 20.08    +62 30 49.0    64728 0.9939  69.7     16? 297.98  16.6   10 353  48  12
   2024 03 13 09:10  01 45 23.46    +63 17 34.7    66045 0.9939  70.5     16? 287.97  17.1   11 354  49  12
   2024 03 13 09:20  01 47 29.19    +64 02 42.1    67339 0.9939  71.2     16? 278.79  17.5   12 355  50  12
   2024 03 13 09:30  01 49 37.38    +64 46 19.0    68611 0.9939  71.9     16? 270.35  18.0   12 356  50  12
   2024 03 13 09:40  01 51 48.12    +65 28 32.5    69862 0.9939  72.6     16? 262.57  18.4   13 357  51  12
   2024 03 13 09:50  01 54 01.53    +66 09 28.9    71091 0.9940  73.3     16? 255.38  18.8   14 358  52  12
   2024 03 13 10:00  01 56 17.69    +66 49 13.9    72301 0.9940  74.0     16? 248.72  19.2   14 359  52  12
   2024 03 13 10:10  01 58 36.72    +67 27 52.5    73491 0.9940  74.6  t  16? 242.52  19.6   15   0  53  13
   2024 03 13 10:20  02 00 58.71    +68 05 29.3    74662 0.9940  75.2     16? 236.75  20.0   15   0  53  13
   2024 03 13 10:30  02 03 23.79    +68 42 08.2    75815 0.9940  75.9     16? 231.36  20.4   16   1  54  13
   2024 03 13 10:40  02 05 52.07    +69 17 53.1    76950 0.9940  76.5     16? 226.32  20.8   17   2  54  13
   2024 03 13 10:50  02 08 23.67    +69 52 47.2    78068 0.9940  77.0     16? 221.58  21.1   17   2  55  13
   2024 03 13 11:00  02 10 58.72    +70 26 53.5    79169 0.9940  77.6     16? 217.11  21.5   18   3  55  13
   2024 03 13 11:10  02 13 37.37    +71 00 14.7    80254 0.9940  78.2     16? 212.90  21.8   19   3  56  13
   2024 03 13 11:20  02 16 19.77    +71 32 53.2    81323 0.9940  78.7     16? 208.92  22.2   19   4  57  13
   2024 03 13 11:30  02 19 06.08    +72 04 51.3    82377 0.9940  79.3     16? 205.14  22.5   20   4  57  13
   2024 03 13 11:40  02 21 56.49    +72 36 10.8    83416 0.9940  79.8     16? 201.55  22.8   21   5  57  13
   2024 03 13 11:50  02 24 51.17    +73 06 53.7    84440 0.9940  80.3     16? 198.13  23.2   21   5  58  13
   2024 03 13 12:00  02 27 50.35    +73 37 01.4    85451 0.9940  80.8     16? 194.85  23.5   22   6  58  13
   2024 03 13 12:10  02 30 54.25    +74 06 35.3    86448 0.9940  81.3     16? 191.72  23.8   22   6  59  13
   2024 03 13 12:20  02 34 03.12    +74 35 36.9    87432 0.9940  81.8     16? 188.71  24.2   23   6  59  14
   2024 03 13 12:30  02 37 17.24    +75 04 07.2    88404 0.9940  82.3 A   16? 185.82  24.5   24   6  60  14
   2024 03 13 12:40  02 40 36.89    +75 32 07.2    89362 0.9940  82.7 A   16? 183.02  24.8   24   7  60  14
   2024 03 13 12:50  02 44 02.42    +75 59 37.8    90309 0.9940  83.2 A   16? 180.32  25.2   25   7  61  14
   2024 03 13 13:00  02 47 34.18    +76 26 39.8    91244 0.9940  83.7 N   16? 177.71  25.5   25   7  61  14
   2024 03 13 13:10  02 51 12.57    +76 53 13.8    92167 0.9940  84.1 N   16? 175.17  25.9   26   7  61  14
   2024 03 13 13:20  02 54 58.02    +77 19 20.5    93080 0.9940  84.5 N   16? 172.70  26.3   26   7  62  14
   2024 03 13 13:30  02 58 51.01    +77 45 00.2    93981 0.9940  85.0 C   16? 170.29  26.7   27   7  62  14
   2024 03 13 13:40  03 02 52.09    +78 10 13.3    94872 0.9941  85.4 C   16? 167.93  27.2   28   7  63  14
   ................
   2024 03 14 01:50  13 44 13.47    +82 34 33.6   138369 0.9944  98.8 Cm  17?  30.72 152.8   33   7  78  18
   2024 03 14 02:00  13 45 20.93    +82 30 03.7   138686 0.9944  98.8 Cm  17?  29.44 154.6   33   8  78  18
   2024 03 14 02:10  13 46 20.54    +82 25 41.0   138994 0.9944  98.9 Nm  17?  28.23 156.6   34   8  78  18
   2024 03 14 02:20  13 47 12.47    +82 21 25.0   139296 0.9944  98.9 Nm  17?  27.10 158.8   34   8  78  18
   2024 03 14 02:30  13 47 56.89    +82 17 15.3   139590 0.9944  98.9 Nm  17?  26.06 161.2   34   8  79  18
   2024 03 14 02:40  13 48 33.95    +82 13 11.3   139877 0.9944  99.0 Am  17?  25.12 163.9   34   9  79  18
   2024 03 14 02:50  13 49 03.82    +82 09 12.6   140156 0.9944  99.0 Am  17?  24.30 166.8   35   9  79  18
   2024 03 14 03:00  13 49 26.63    +82 05 18.6   140428 0.9944  99.1 Am  17?  23.59 169.8   35   9  79  18
   2024 03 14 03:10  13 49 42.54    +82 01 28.7   140694 0.9944  99.1  m  17?  23.01 173.1   35   9  79  18
   2024 03 14 03:20  13 49 51.68    +81 57 42.5   140952 0.9944  99.2  m  17?  22.57 176.5   36   9  79  18
   2024 03 14 03:30  13 49 54.20    +81 53 59.1   141203 0.9944  99.2  m  17?  22.27 180.0   36  10  79  18
   2024 03 14 03:40  13 49 50.24    +81 50 18.2   141448 0.9944  99.3  m  17?  22.12 183.5   36  10  79  18
   2024 03 14 03:50  13 49 39.95    +81 46 38.9   141685 0.9944  99.3  m  17?  22.11 187.1   37  10  79  18
   2024 03 14 04:00  13 49 23.48    +81 43 00.7   141916 0.9944  99.4  m  17?  22.26 190.5   37  10  79  19
   2024 03 14 04:10  13 49 01.00    +81 39 22.9   142141 0.9944  99.4  m  17?  22.54 193.8   37  10  79  19
   2024 03 14 04:20  13 48 32.67    +81 35 44.8   142358 0.9944  99.5  m  17?  22.96 196.9   38  10  79  19
   2024 03 14 04:30  13 47 58.67    +81 32 05.8   142570 0.9944  99.5  m  17?  23.50 199.8   38  10  79  19
   2024 03 14 04:40  13 47 19.17    +81 28 25.0   142775 0.9945  99.6  m  17?  24.15 202.5   39  10  79  19
   2024 03 14 04:50  13 46 34.36    +81 24 41.9   142974 0.9945  99.7  m  18?  24.90 204.8   39  10  79  19
   2024 03 14 05:00  13 45 44.46    +81 20 55.7   143167 0.9945  99.7  m  18?  25.74 206.9   39  10  79  19
   2024 03 14 05:10  13 44 49.68    +81 17 05.7   143353 0.9945  99.8  m  18?  26.66 208.8   40  10  79  19
   2024 03 14 05:20  13 43 50.23    +81 13 11.2   143534 0.9945  99.9  m  18?  27.65 210.3   40  10  79  19
   2024 03 14 05:30  13 42 46.36    +81 09 11.5   143709 0.9945 100.0  m  18?  28.69 211.7   41  10  79  19
   2024 03 14 05:40  13 41 38.31    +81 05 06.0   143879 0.9945 100.0  m  18?  29.78 212.8   41  10  79  19
   2024 03 14 05:50  13 40 26.33    +81 00 53.8   144043 0.9945 100.1  m  18?  30.92 213.7   41  10  79  19
   2024 03 14 06:00  13 39 10.70    +80 56 34.5   144201 0.9945 100.2  m  18?  32.09 214.3   42  10  79  19
   2024 03 14 06:10  13 37 51.70    +80 52 07.3   144354 0.9945 100.3  m  18?  33.29 214.8   42  10  79  19
   2024 03 14 06:20  13 36 29.60    +80 47 31.6   144502 0.9945 100.4     18?  34.51 215.2   43   9  79  19
   2024 03 14 06:30  13 35 04.71    +80 42 46.8   144644 0.9945 100.5     18?  35.74 215.4   43   9  79  19
   2024 03 14 06:40  13 33 37.32    +80 37 52.2   144782 0.9945 100.6     18?  36.99 215.4   44   9  79  20
   2024 03 14 06:50  13 32 07.75    +80 32 47.5   144915 0.9945 100.7     18?  38.25 215.4   44   8  79  20
   2024 03 14 07:00  13 30 36.30    +80 27 31.9   145043 0.9945 100.8     18?  39.52 215.2   44   8  79  20
   2024 03 14 07:10  13 29 03.28    +80 22 05.0   145166 0.9945 100.9     18?  40.79 214.9   45   8  79  20
   2024 03 14 07:20  13 27 29.02    +80 16 26.4   145285 0.9945 101.0     18?  42.06 214.5   45   7  79  20
   2024 03 14 07:30  13 25 53.83    +80 10 35.7   145399 0.9945 101.1     18?  43.32 214.1   46   7  79  20
   2024 03 14 07:40  13 24 18.02    +80 04 32.3   145509 0.9945 101.2     18?  44.58 213.5   46   6  79  20
   2024 03 14 07:50  13 22 41.91    +79 58 16.1   145615 0.9945 101.4     18?  45.84 212.9   46   6  79  20
   2024 03 14 08:00  13 21 05.79    +79 51 46.6   145716 0.9945 101.5     18?  47.09 212.3   47   5  79  20
   2024 03 14 08:10  13 19 29.98    +79 45 03.6   145814 0.9945 101.6     18?  48.32 211.6   47   4  80  20
   2024 03 14 08:20  13 17 54.76    +79 38 06.9   145908 0.9945 101.7     18?  49.54 210.8   47   4  80  20
   2024 03 14 08:30  13 16 20.42    +79 30 56.3   145997 0.9945 101.9     18?  50.75 210.0   48   3  80  20
   2024 03 14 08:40  13 14 47.22    +79 23 31.7   146084 0.9945 102.0     18?  51.95 209.2   48   2  80  20
   2024 03 14 08:50  13 13 15.43    +79 15 52.9   146166 0.9946 102.2     18?  53.13 208.3   48   2  80  21
   2024 03 14 09:00  13 11 45.29    +79 07 59.9   146245 0.9946 102.3     18?  54.29 207.5   48   1  80  21
   2024 03 14 09:10  13 10 17.04    +78 59 52.6   146320 0.9946 102.5     18?  55.44 206.5   48   0  80  21
   2024 03 14 09:20  13 08 50.90    +78 51 31.2   146392 0.9946 102.6  t  18?  56.57 205.6   49 359  80  21
   2024 03 14 09:30  13 07 27.06    +78 42 55.5   146461 0.9946 102.8     18?  57.67 204.6   49 358  80  21
   2024 03 14 09:40  13 06 05.73    +78 34 05.9   146526 0.9946 102.9     18?  58.76 203.7   49 357  80  21
   2024 03 14 09:50  13 04 47.06    +78 25 02.3   146588 0.9946 103.1     18?  59.82 202.7   49 356  80  21
   2024 03 14 10:00  13 03 31.23    +78 15 45.0   146647 0.9946 103.3  e  18?  60.86 201.7   49 356  80  21
   2024 03 14 10:10  13 02 18.36    +78 06 14.1   146703 0.9946 103.4     18?  61.88 200.7   49 355  80  21
   2024 03 14 10:20  13 01 08.59    +77 56 29.9   146756 0.9946 103.6     18?  62.88 199.7   49 354  80  21
   2024 03 14 10:30  13 00 02.03    +77 46 32.7   146806 0.9946 103.8     18?  63.85 198.7   49 353  80  21
   2024 03 14 10:40  12 58 58.76    +77 36 22.7   146853 0.9946 103.9     18?  64.79 197.6   48 352  80  21
   2024 03 14 10:50  12 57 58.88    +77 26 00.3   146897 0.9946 104.1     18?  65.71 196.6   48 351  80  22
   2024 03 14 11:00  12 57 02.44    +77 15 25.8   146938 0.9946 104.3     18?  66.61 195.6   48 350  81  22
   2024 03 14 11:10  12 56 09.50    +77 04 39.5   146976 0.9946 104.5     18?  67.48 194.6   48 349  81  22
   2024 03 14 11:20  12 55 20.10    +76 53 41.9   147012 0.9946 104.7     18?  68.32 193.5   48 348  81  22
   2024 03 14 11:30  12 54 34.26    +76 42 33.4   147044 0.9946 104.9     18?  69.14 192.5   47 347  81  22
   2024 03 14 11:40  12 53 52.00    +76 31 14.4   147074 0.9946 105.0     18?  69.92 191.5   47 347  81  22
   2024 03 14 11:50  12 53 13.33    +76 19 45.2   147101 0.9946 105.2     18?  70.68 190.5   47 346  81  22
   2024 03 14 12:00  12 52 38.24    +76 08 06.5   147125 0.9946 105.4     18?  71.41 189.5   46 345  81  22
   2024 03 14 12:10  12 52 06.71    +75 56 18.5   147146 0.9946 105.6     18?  72.12 188.5   46 344  81  22
   2024 03 14 12:20  12 51 38.73    +75 44 21.9   147164 0.9946 105.8 A   18?  72.79 187.5   45 343  81  22
   2024 03 14 12:30  12 51 14.26    +75 32 17.0   147180 0.9946 106.0 A   18?  73.44 186.5   45 343  81  22
   2024 03 14 12:40  12 50 53.25    +75 20 04.3   147192 0.9946 106.2 A   18?  74.06 185.5   44 342  81  23
   2024 03 14 12:50  12 50 35.67    +75 07 44.5   147201 0.9946 106.4 N   18?  74.65 184.5   44 342  82  23
   2024 03 14 13:00  12 50 21.47    +74 55 17.8   147208 0.9946 106.6 N   18?  75.21 183.6   43 341  82  23
   2024 03 14 13:10  12 50 10.59    +74 42 44.9   147211 0.9947 106.8 N   18?  75.74 182.6   43 340  82  23
   2024 03 14 13:20  12 50 02.96    +74 30 06.2   147211 0.9947 107.0 N   18?  76.24 181.7   42 340  82  23
   2024 03 14 13:30  12 49 58.53    +74 17 22.2   147207 0.9947 107.2 C   18?  76.71 180.7   41 340  82  23
   ................
   2024 03 15 01:50  13 42 29.64    +61 11 54.1   129175 0.9949 116.5 Cm  18?  45.42 154.4   20  26  92  28
   2024 03 15 02:00  13 42 55.78    +61 05 05.7   128587 0.9949 116.6 Cm  18?  44.73 155.7   21  27  92  28
   2024 03 15 02:10  13 43 20.11    +60 58 18.8   127990 0.9949 116.6 Nm  18?  44.11 157.1   22  28  92  28
   2024 03 15 02:20  13 43 42.61    +60 51 33.1   127382 0.9949 116.7 Nm  18?  43.54 158.6   23  29  92  28
   2024 03 15 02:30  13 44 03.23    +60 44 48.0   126764 0.9949 116.8 Nm  18?  43.05 160.2   23  30  92  28
   2024 03 15 02:40  13 44 21.95    +60 38 02.9   126137 0.9949 116.8 Am  18?  42.64 162.0   24  31  92  28
   2024 03 15 02:50  13 44 38.73    +60 31 17.3   125501 0.9949 116.9 Am  18?  42.31 163.8   25  32  92  28
   2024 03 15 03:00  13 44 53.55    +60 24 30.5   124855 0.9949 117.0 Am  18?  42.08 165.7   26  32  92  28
   2024 03 15 03:10  13 45 06.37    +60 17 41.9   124199 0.9949 117.1  m  18?  41.95 167.7   27  33  93  28
   2024 03 15 03:20  13 45 17.18    +60 10 50.9   123535 0.9949 117.1  m  18?  41.94 169.8   28  34  93  28
   2024 03 15 03:30  13 45 25.96    +60 03 56.9   122861 0.9949 117.2  m  18?  42.04 171.9   29  35  93  28
   2024 03 15 03:40  13 45 32.68    +59 56 59.1   122179 0.9949 117.3  m  18?  42.26 174.0   30  35  93  28
   2024 03 15 03:50  13 45 37.33    +59 49 56.8   121487 0.9949 117.4  m  18?  42.62 176.2   32  36  93  28
   2024 03 15 04:00  13 45 39.89    +59 42 49.3   120787 0.9949 117.5  m  18?  43.10 178.3   33  37  93  28
   2024 03 15 04:10  13 45 40.36    +59 35 35.9   120078 0.9949 117.6  m  18?  43.72 180.4   34  37  93  28
   2024 03 15 04:20  13 45 38.73    +59 28 15.7   119361 0.9949 117.7  m  18?  44.48 182.4   35  38  93  28
   2024 03 15 04:30  13 45 35.00    +59 20 48.0   118636 0.9949 117.8  m  18?  45.37 184.4   36  38  93  28
   2024 03 15 04:40  13 45 29.17    +59 13 12.0   117902 0.9949 117.9  m  18?  46.40 186.4   38  39  93  28
   2024 03 15 04:50  13 45 21.23    +59 05 26.8   117160 0.9949 118.0  m  18?  47.56 188.2   39  39  93  28
   2024 03 15 05:00  13 45 11.21    +58 57 31.6   116411 0.9949 118.1  m  18?  48.86 189.9   40  40  93  29
   2024 03 15 05:10  13 44 59.10    +58 49 25.4   115654 0.9949 118.3  m  18?  50.28 191.5   41  40  93  29
   2024 03 15 05:20  13 44 44.94    +58 41 07.4   114889 0.9949 118.4  m  18?  51.84 193.0   43  41  93  29
   2024 03 15 05:30  13 44 28.73    +58 32 36.7   114117 0.9949 118.5  m  18?  53.51 194.4   44  41  94  29
   2024 03 15 05:40  13 44 10.49    +58 23 52.3   113337 0.9949 118.7  m  18?  55.31 195.7   45  41  94  29
   2024 03 15 05:50  13 43 50.27    +58 14 53.2   112550 0.9949 118.8  m  18?  57.22 196.8   47  41  94  29
   2024 03 15 06:00  13 43 28.09    +58 05 38.5   111757 0.9949 119.0  m  18?  59.24 197.9   48  41  94  29
   2024 03 15 06:10  13 43 03.99    +57 56 07.2   110956 0.9949 119.1  m  18?  61.36 198.8   50  42  94  29
   2024 03 15 06:20  13 42 38.01    +57 46 18.3   110149 0.9949 119.3  m  18?  63.60 199.6   51  42  94  29
   2024 03 15 06:30  13 42 10.20    +57 36 10.8   109335 0.9949 119.5  m  18?  65.93 200.3   52  41  94  29
   2024 03 15 06:40  13 41 40.60    +57 25 43.6   108514 0.9949 119.6  m  18?  68.36 200.9   54  41  94  29
   2024 03 15 06:50  13 41 09.28    +57 14 55.6   107687 0.9949 119.8  m  18?  70.89 201.4   55  41  94  29
   2024 03 15 07:00  13 40 36.29    +57 03 45.8   106854 0.9949 120.0  m  18?  73.51 201.9   57  40  94  29
   2024 03 15 07:10  13 40 01.70    +56 52 13.1   106015 0.9950 120.2  m  18?  76.22 202.2   58  40  94  29
   2024 03 15 07:20  13 39 25.57    +56 40 16.4   105170 0.9950 120.4  m  18?  79.01 202.5   59  39  94  30
   2024 03 15 07:30  13 38 47.98    +56 27 54.7   104319 0.9950 120.7     18?  81.90 202.6   61  38  95  30
   2024 03 15 07:40  13 38 09.00    +56 15 06.7   103462 0.9950 120.9     18?  84.87 202.7   62  37  95  30
   2024 03 15 07:50  13 37 28.72    +56 01 51.4   102600 0.9950 121.1     18?  87.93 202.8   64  36  95  30
   2024 03 15 08:00  13 36 47.21    +55 48 07.5   101732 0.9950 121.4     18?  91.07 202.8   65  34  95  30
   2024 03 15 08:10  13 36 04.57    +55 33 54.1   100858 0.9950 121.6     18?  94.30 202.7   66  32  95  30
   2024 03 15 08:20  13 35 20.88    +55 19 09.9    99979 0.9950 121.9     18?  97.61 202.6   68  30  95  30
   2024 03 15 08:30  13 34 36.24    +55 03 53.7    99094 0.9950 122.1     17? 101.00 202.4   69  27  95  30
   2024 03 15 08:40  13 33 50.75    +54 48 04.4    98204 0.9950 122.4     17? 104.48 202.2   70  24  95  30
   2024 03 15 08:50  13 33 04.49    +54 31 40.8    97308 0.9950 122.7     17? 108.04 201.9   71  21  95  30
   2024 03 15 09:00  13 32 17.58    +54 14 41.7    96408 0.9950 123.0     17? 111.70 201.6   72  16  95  30
   2024 03 15 09:10  13 31 30.12    +53 57 05.9    95501 0.9950 123.3     17? 115.44 201.2   73  12  96  30
   2024 03 15 09:20  13 30 42.20    +53 38 52.1    94590 0.9950 123.6     17? 119.27 200.9   74   6  96  31
   2024 03 15 09:30  13 29 53.93    +53 19 59.2    93673 0.9950 124.0     17? 123.20 200.5   74   0  96  31
   2024 03 15 09:40  13 29 05.42    +53 00 25.8    92751 0.9950 124.3  t  17? 127.22 200.0   74 354  96  31
   2024 03 15 09:50  13 28 16.77    +52 40 10.8    91823 0.9950 124.6  e  17? 131.34 199.6   74 348  96  31
   2024 03 15 10:00  13 27 28.09    +52 19 12.8    90890 0.9950 125.0     17? 135.56 199.1   74 342  96  31
   2024 03 15 10:10  13 26 39.48    +51 57 30.5    89952 0.9950 125.4     17? 139.90 198.6   74 335  96  31
   2024 03 15 10:20  13 25 51.05    +51 35 02.5    89007 0.9950 125.8     17? 144.34 198.0   73 330  97  31
   2024 03 15 10:30  13 25 02.89    +51 11 47.6    88057 0.9950 126.2     17? 148.90 197.5   72 325  97  31
   2024 03 15 10:40  13 24 15.11    +50 47 44.2    87102 0.9950 126.6     17? 153.58 196.9   71 320  97  31
   2024 03 15 10:50  13 23 27.81    +50 22 51.0    86140 0.9950 127.0     17? 158.40 196.4   70 316  97  31
   2024 03 15 11:00  13 22 41.08    +49 57 06.3    85172 0.9950 127.4     17? 163.35 195.8   69 312  97  31
   2024 03 15 11:10  13 21 55.03    +49 30 28.8    84197 0.9950 127.8     17? 168.45 195.2   67 309  98  32
   2024 03 15 11:20  13 21 09.73    +49 02 56.6    83216 0.9950 128.3     17? 173.70 194.6   66 307  98  32
   2024 03 15 11:30  13 20 25.27    +48 34 28.2    82228 0.9950 128.8     17? 179.12 194.0   64 305  98  32
   2024 03 15 11:40  13 19 41.75    +48 05 01.7    81234 0.9950 129.2     17? 184.72 193.4   62 303  98  32
   2024 03 15 11:50  13 18 59.24    +47 34 35.2    80231 0.9950 129.7     17? 190.50 192.8   61 301  99  32
   2024 03 15 12:00  13 18 17.82    +47 03 06.8    79222 0.9950 130.2     17? 196.49 192.1   59 300  99  32
   2024 03 15 12:10  13 17 37.57    +46 30 34.3    78204 0.9950 130.8     17? 202.70 191.5   57 299  99  32
   2024 03 15 12:20  13 16 58.54    +45 56 55.4    77179 0.9950 131.3 A   17? 209.15 190.9   55 298  99  32
   2024 03 15 12:30  13 16 20.81    +45 22 07.7    76144 0.9950 131.8 A   17? 215.85 190.3   53 297 100  32
   2024 03 15 12:40  13 15 44.43    +44 46 08.5    75101 0.9950 132.4 A   17? 222.83 189.7   51 296 100  32
   2024 03 15 12:50  13 15 09.46    +44 08 55.1    74048 0.9950 133.0 N   17? 230.11 189.1   49 296 100  33
   2024 03 15 13:00  13 14 35.94    +43 30 24.3    72986 0.9950 133.6 N   17? 237.72 188.5   47 296 101  33
   2024 03 15 13:10  13 14 03.93    +42 50 32.8    71914 0.9950 134.2 N   17? 245.69 187.9   45 295 101  33
   2024 03 15 13:20  13 13 33.46    +42 09 16.9    70830 0.9950 134.8 C   17? 254.05 187.4   43 295 101  33
   2024 03 15 13:30  13 13 04.57    +41 26 32.8    69736 0.9950 135.5 C   17? 262.85 186.8   41 295 102  33
   ................
   2024 03 16 01:50  01 10 25.43    +72 16 37.6    69878 0.9947  75.2 Cm  16? 154.21 352.2   41 337  53  38
   2024 03 16 02:00  01 09 41.38    +72 41 33.0    71198 0.9947  75.6 Cm  16? 147.45 352.8   40 338  54  38
   2024 03 16 02:10  01 09 01.93    +73 05 26.2    72497 0.9947  75.9 Nm  16? 141.26 353.5   40 338  54  38
   2024 03 16 02:20  01 08 27.23    +73 28 22.6    73775 0.9947  76.3 Nm  16? 135.58 354.3   39 339  54  38
   2024 03 16 02:30  01 07 57.44    +73 50 26.7    75034 0.9947  76.6 Nm  16? 130.38 355.1   38 339  54  38
   2024 03 16 02:40  01 07 32.72    +74 11 42.9    76272 0.9947  76.9 Am  16? 125.63 356.0   37 340  54  38
   2024 03 16 02:50  01 07 13.20    +74 32 15.2    77492 0.9947  77.2 Am  16? 121.29 356.9   37 340  55  38
   2024 03 16 03:00  01 06 59.03    +74 52 07.2    78693 0.9947  77.5 Am  16? 117.35 357.9   36 341  55  38
   2024 03 16 03:10  01 06 50.35    +75 11 22.4    79875 0.9947  77.8 Am  16? 113.76 359.0   36 341  55  38
   2024 03 16 03:20  01 06 47.28    +75 30 03.9    81039 0.9947  78.1  m  16? 110.52   0.1   35 342  55  38
   2024 03 16 03:30  01 06 49.96    +75 48 14.5    82185 0.9947  78.4  m  16? 107.59   1.2   35 342  55  38
   2024 03 16 03:40  01 06 58.52    +76 05 57.0    83314 0.9947  78.7  m  16? 104.96   2.4   34 343  55  38
   2024 03 16 03:50  01 07 13.07    +76 23 13.7    84425 0.9947  78.9  m  16? 102.62   3.6   34 343  56  39
   2024 03 16 04:00  01 07 33.75    +76 40 06.9    85519 0.9947  79.2  m  16? 100.53   4.9   33 344  56  39
   2024 03 16 04:10  01 08 00.68    +76 56 38.8    86597 0.9947  79.5  m  16?  98.69   6.1   33 345  56  39
   2024 03 16 04:20  01 08 34.00    +77 12 51.2    87659 0.9947  79.7  m  16?  97.07   7.4   32 345  56  39
   2024 03 16 04:30  01 09 13.82    +77 28 46.0    88704 0.9947  80.0  m  16?  95.66   8.6   32 346  56  39
   2024 03 16 04:40  01 10 00.29    +77 44 24.8    89734 0.9947  80.2  m  17?  94.46   9.9   32 346  56  39
   2024 03 16 04:50  01 10 53.54    +77 59 49.1    90748 0.9947  80.5  m  17?  93.43  11.1   32 347  56  39
   2024 03 16 05:00  01 11 53.74    +78 15 00.3    91746 0.9947  80.7  m  17?  92.56  12.3   31 347  56  39
   2024 03 16 05:10  01 13 01.04    +78 29 59.7    92730 0.9947  81.0  m  17?  91.86  13.5   31 348  57  39
   2024 03 16 05:20  01 14 15.62    +78 44 48.4    93699 0.9947  81.2  m  17?  91.29  14.7   31 348  57  39
   2024 03 16 05:30  01 15 37.65    +78 59 27.5    94654 0.9947  81.5  m  17?  90.85  15.9   31 349  57  39
   2024 03 16 05:40  01 17 07.34    +79 13 58.0    95594 0.9947  81.7  m  17?  90.52  17.1   31 349  57  39
   2024 03 16 05:50  01 18 44.91    +79 28 20.6    96521 0.9948  82.0  m  17?  90.30  18.2   30 350  57  39
   2024 03 16 06:00  01 20 30.60    +79 42 36.3    97434 0.9948  82.2  m  17?  90.18  19.3   30 350  57  39
   2024 03 16 06:10  01 22 24.67    +79 56 45.7    98333 0.9948  82.5  m  17?  90.14  20.4   30 351  57  39
   2024 03 16 06:20  01 24 27.42    +80 10 49.4    99219 0.9948  82.7  m  17?  90.17  21.4   30 351  57  39
   2024 03 16 06:30  01 26 39.15    +80 24 47.8   100092 0.9948  83.0  m  17?  90.28  22.5   30 352  57  40
   2024 03 16 06:40  01 29 00.24    +80 38 41.5   100953 0.9948  83.2  m  17?  90.44  23.5   30 352  57  40
   2024 03 16 06:50  01 31 31.07    +80 52 30.9   101801 0.9948  83.5  m  17?  90.65  24.5   30 353  57  40
   2024 03 16 07:00  01 34 12.08    +81 06 16.1   102636 0.9948  83.7  m  17?  90.91  25.4   30 353  57  40
   2024 03 16 07:10  01 37 03.75    +81 19 57.4   103460 0.9948  84.0  m  17?  91.21  26.4   30 354  57  40
   2024 03 16 07:20  01 40 06.62    +81 33 34.9   104272 0.9948  84.2  m  17?  91.54  27.4   30 354  57  40
   2024 03 16 07:30  01 43 21.30    +81 47 08.7   105072 0.9948  84.5  m  17?  91.90  28.3   30 354  58  40
   2024 03 16 07:40  01 46 48.44    +82 00 38.7   105861 0.9948  84.7  m  17?  92.28  29.3   30 355  58  40
   2024 03 16 07:50  01 50 28.79    +82 14 04.9   106639 0.9948  85.0  m  17?  92.68  30.2   31 355  58  40
   2024 03 16 08:00  01 54 23.19    +82 27 26.9   107406 0.9948  85.2  m  17?  93.09  31.2   31 355  58  40
   2024 03 16 08:10  01 58 32.54    +82 40 44.6   108162 0.9948  85.5  m  17?  93.51  32.2   31 356  58  40
   2024 03 16 08:20  02 02 57.89    +82 53 57.5   108908 0.9948  85.7  m  17?  93.94  33.2   31 356  58  40
   2024 03 16 08:30  02 07 40.38    +83 07 05.0   109643 0.9948  86.0  m  17?  94.37  34.3   31 356  58  40
   2024 03 16 08:40  02 12 41.29    +83 20 06.7   110369 0.9948  86.2     17?  94.80  35.4   31 356  58  41
   2024 03 16 08:50  02 18 02.04    +83 33 01.7   111084 0.9948  86.5     17?  95.23  36.5   31 357  58  41
   2024 03 16 09:00  02 23 44.21    +83 45 49.2   111790 0.9948  86.8     17?  95.65  37.7   31 357  58  41
   2024 03 16 09:10  02 29 49.57    +83 58 28.2   112487 0.9948  87.0     17?  96.06  39.0   32 357  58  41
   2024 03 16 09:20  02 36 20.05    +84 10 57.4   113174 0.9948  87.3     17?  96.46  40.3   32 357  58  41
   2024 03 16 09:30  02 43 17.80    +84 23 15.5   113852 0.9949  87.6     17?  96.85  41.8   32 357  58  41
   2024 03 16 09:40  02 50 45.17    +84 35 20.9   114522 0.9949  87.8     17?  97.23  43.3   32 358  58  41
   2024 03 16 09:50  02 58 44.72    +84 47 11.7   115182 0.9949  88.1     17?  97.59  44.9   32 358  58  41
   2024 03 16 10:00  03 07 19.21    +84 58 45.9   115834 0.9949  88.4     17?  97.94  46.7   33 358  59  41
   2024 03 16 10:10  03 16 31.60    +85 10 01.1   116478 0.9949  88.6     17?  98.27  48.6   33 358  59  41
   2024 03 16 10:20  03 26 24.95    +85 20 54.6   117114 0.9949  88.9     17?  98.57  50.7   33 358  59  41
   2024 03 16 10:30  03 37 02.43    +85 31 23.5   117742 0.9949  89.2     17?  98.86  52.9   33 358  59  41
   2024 03 16 10:40  03 48 27.12    +85 41 24.2   118361 0.9949  89.4     17?  99.12  55.3   33 358  59  42
   2024 03 16 10:50  04 00 41.94    +85 50 53.2   118974 0.9949  89.7     17?  99.37  57.9   33 358  59  42
   2024 03 16 11:00  04 13 49.35    +85 59 46.2   119578 0.9949  90.0     17?  99.59  60.7   34 358  59  42
   2024 03 16 11:10  04 27 51.16    +86 07 58.8   120175 0.9949  90.2     17?  99.78  63.7   34 358  59  42
   2024 03 16 11:20  04 42 48.10    +86 15 26.3   120766 0.9949  90.5     17?  99.95  66.9   34 358  59  42
   2024 03 16 11:30  04 58 39.52    +86 22 03.8   121349 0.9949  90.8     17? 100.09  70.3   34 358  59  42
   2024 03 16 11:40  05 15 22.97    +86 27 46.5   121925 0.9949  91.1     17? 100.21  73.9   34 358  59  42
   2024 03 16 11:50  05 32 53.92    +86 32 29.8   122494 0.9949  91.3     17? 100.30  77.7   34 358  59  42
   2024 03 16 12:00  05 51 05.51    +86 36 09.3   123056 0.9949  91.6     17? 100.36  81.6   34 357  60  42
   2024 03 16 12:10  06 09 48.69    +86 38 41.7   123612 0.9949  91.9     17? 100.39  85.6   34 357  60  42
   2024 03 16 12:20  06 28 52.45    +86 40 04.5   124162 0.9949  92.1 A   17? 100.40  89.6   34 357  60  43
   2024 03 16 12:30  06 48 04.49    +86 40 16.5   124705 0.9949  92.4 A   17? 100.38  93.6   35 357  60  43
   2024 03 16 12:40  07 07 11.97    +86 39 17.7   125242 0.9949  92.7 A   17? 100.33  97.6   35 357  60  43
   2024 03 16 12:50  07 26 02.44    +86 37 09.4   125772 0.9949  92.9 N   17? 100.25 101.4   35 357  60  43
   2024 03 16 13:00  07 44 24.69    +86 33 54.3   126297 0.9949  93.2 N   17? 100.14 105.1   35 357  60  43
   2024 03 16 13:10  08 02 09.36    +86 29 35.9   126815 0.9950  93.5 N   17? 100.00 108.7   35 356  60  43
   2024 03 16 13:20  08 19 09.28    +86 24 18.5   127328 0.9950  93.7 Ce  17?  99.84 112.0   35 356  60  43
   2024 03 16 13:30  08 35 19.60    +86 18 07.2   127834 0.9950  94.0 C   17?  99.64 115.1   35 356  60  43
   ................
   2024 03 17 01:50  13 40 40.70    +75 43 32.0   148236 0.9953 103.8 Cm  18?  26.31 149.5   30  14  69  49
   2024 03 17 02:00  13 41 14.73    +75 39 47.6   148247 0.9953 103.9 Cm  18?  25.25 151.4   30  15  69  49
   2024 03 17 02:10  13 41 45.24    +75 36 08.2   148252 0.9953 103.9 Nm  18?  24.25 153.5   31  15  69  49
   2024 03 17 02:20  13 42 12.23    +75 32 33.2   148249 0.9953 103.9 Nm  18?  23.33 155.8   31  16  69  49
   2024 03 17 02:30  13 42 35.69    +75 29 02.3   148239 0.9953 104.0 Nm  18?  22.49 158.5   32  16  69  49
   2024 03 17 02:40  13 42 55.62    +75 25 34.8   148223 0.9953 104.0 Nm  18?  21.74 161.3   32  17  69  49
   2024 03 17 02:50  13 43 12.04    +75 22 10.4   148200 0.9953 104.0 Am  18?  21.10 164.5   33  17  69  49
   2024 03 17 03:00  13 43 24.94    +75 18 48.5   148170 0.9953 104.1 Am  18?  20.57 167.8   33  17  69  49
   2024 03 17 03:10  13 43 34.34    +75 15 28.5   148133 0.9953 104.1 Am  18?  20.17 171.4   34  18  70  49
   2024 03 17 03:20  13 43 40.25    +75 12 10.0   148091 0.9953 104.2  m  18?  19.91 175.1   35  18  70  49
   2024 03 17 03:30  13 43 42.70    +75 08 52.4   148041 0.9953 104.2  m  18?  19.78 178.9   35  18  70  49
   2024 03 17 03:40  13 43 41.70    +75 05 35.0   147986 0.9953 104.3  m  18?  19.81 182.8   36  18  70  49
   2024 03 17 03:50  13 43 37.29    +75 02 17.4   147925 0.9953 104.3  m  18?  19.98 186.5   36  18  70  49
   2024 03 17 04:00  13 43 29.51    +74 58 58.9   147857 0.9953 104.4  m  18?  20.29 190.2   37  19  70  49
   2024 03 17 04:10  13 43 18.40    +74 55 39.0   147784 0.9953 104.4  m  18?  20.73 193.6   38  19  70  49
   2024 03 17 04:20  13 43 04.00    +74 52 16.9   147705 0.9953 104.5  m  18?  21.31 196.9   38  19  70  49
   2024 03 17 04:30  13 42 46.37    +74 48 52.3   147620 0.9953 104.5  m  18?  22.00 199.8   39  19  70  49
   2024 03 17 04:40  13 42 25.57    +74 45 24.3   147530 0.9953 104.6  m  18?  22.80 202.5   40  19  70  49
   2024 03 17 04:50  13 42 01.67    +74 41 52.4   147434 0.9953 104.6  m  18?  23.69 204.9   41  19  70  49
   2024 03 17 05:00  13 41 34.75    +74 38 16.0   147333 0.9953 104.7  m  18?  24.66 207.0   41  19  70  49
   2024 03 17 05:10  13 41 04.88    +74 34 34.5   147227 0.9954 104.8  m  18?  25.71 208.8   42  19  70  50
   2024 03 17 05:20  13 40 32.16    +74 30 47.2   147116 0.9954 104.8  m  18?  26.82 210.4   43  19  70  50
   2024 03 17 05:30  13 39 56.67    +74 26 53.5   146999 0.9954 104.9  m  18?  27.99 211.7   43  19  70  50
   2024 03 17 05:40  13 39 18.53    +74 22 52.8   146879 0.9954 105.0  m  18?  29.20 212.8   44  18  70  50
   2024 03 17 05:50  13 38 37.84    +74 18 44.5   146753 0.9954 105.1  m  18?  30.45 213.7   45  18  70  50
   2024 03 17 06:00  13 37 54.72    +74 14 28.1   146623 0.9954 105.2  m  18?  31.74 214.4   45  18  70  50
   2024 03 17 06:10  13 37 09.30    +74 10 02.8   146489 0.9954 105.3  m  18?  33.06 214.9   46  17  70  50
   2024 03 17 06:20  13 36 21.70    +74 05 28.2   146350 0.9954 105.3  m  18?  34.39 215.3   47  17  70  50
   2024 03 17 06:30  13 35 32.06    +74 00 43.7   146207 0.9954 105.4  m  18?  35.75 215.5   48  17  70  50
   2024 03 17 06:40  13 34 40.52    +73 55 48.7   146061 0.9954 105.5  m  18?  37.12 215.7   48  16  70  50
   2024 03 17 06:50  13 33 47.23    +73 50 42.8   145910 0.9954 105.6  m  18?  38.51 215.7   49  15  70  50
   2024 03 17 07:00  13 32 52.35    +73 45 25.4   145756 0.9954 105.7  m  18?  39.90 215.6   49  15  70  50
   2024 03 17 07:10  13 31 56.02    +73 39 56.0   145598 0.9954 105.9  m  18?  41.30 215.4   50  14  70  50
   2024 03 17 07:20  13 30 58.41    +73 34 14.2   145436 0.9954 106.0  m  18?  42.71 215.1   51  13  69  50
   2024 03 17 07:30  13 29 59.69    +73 28 19.5   145271 0.9954 106.1  m  18?  44.11 214.7   51  12  69  50
   2024 03 17 07:40  13 29 00.01    +73 22 11.6   145103 0.9954 106.2  m  18?  45.51 214.3   52  11  69  50
   2024 03 17 07:50  13 27 59.56    +73 15 50.1   144932 0.9954 106.3  m  18?  46.91 213.8   52  10  69  51
   2024 03 17 08:00  13 26 58.49    +73 09 14.6   144757 0.9954 106.5  m  18?  48.31 213.3   53   9  69  51
   2024 03 17 08:10  13 25 56.98    +73 02 24.8   144580 0.9954 106.6  m  18?  49.70 212.7   53   8  69  51
   2024 03 17 08:20  13 24 55.19    +72 55 20.4   144399 0.9954 106.7  m  18?  51.08 212.0   54   7  69  51
   2024 03 17 08:30  13 23 53.31    +72 48 01.2   144216 0.9954 106.9  m  18?  52.45 211.3   54   6  69  51
   2024 03 17 08:40  13 22 51.50    +72 40 27.0   144030 0.9954 107.0  m  18?  53.82 210.6   54   4  69  51
   2024 03 17 08:50  13 21 49.91    +72 32 37.5   143842 0.9954 107.2  m  18?  55.16 209.9   55   3  69  51
   2024 03 17 09:00  13 20 48.72    +72 24 32.7   143650 0.9954 107.3  m  18?  56.50 209.1   55   1  69  51
   2024 03 17 09:10  13 19 48.09    +72 16 12.3   143457 0.9954 107.5  m  18?  57.82 208.2   55   0  69  51
   2024 03 17 09:20  13 18 48.16    +72 07 36.4   143261 0.9954 107.6  t  18?  59.13 207.4   55 358  69  51
   2024 03 17 09:30  13 17 49.10    +71 58 44.9   143062 0.9954 107.8  m  18?  60.42 206.5   55 357  69  51
   2024 03 17 09:40  13 16 51.04    +71 49 37.8   142861 0.9954 108.0  e  18?  61.70 205.7   55 355  69  51
   2024 03 17 09:50  13 15 54.13    +71 40 15.0   142658 0.9955 108.1     18?  62.96 204.8   55 354  69  51
   2024 03 17 10:00  13 14 58.50    +71 30 36.8   142453 0.9955 108.3     18?  64.19 203.8   55 352  69  52
   2024 03 17 10:10  13 14 04.28    +71 20 43.1   142245 0.9955 108.5     18?  65.41 202.9   55 351  69  52
   2024 03 17 10:20  13 13 11.58    +71 10 34.0   142036 0.9955 108.7     18?  66.61 202.0   55 349  69  52
   2024 03 17 10:30  13 12 20.52    +71 00 09.9   141824 0.9955 108.9     18?  67.79 201.0   55 348  69  52
   2024 03 17 10:40  13 11 31.21    +70 49 30.7   141609 0.9955 109.0     18?  68.95 200.1   54 346  69  52
   2024 03 17 10:50  13 10 43.75    +70 38 36.7   141393 0.9955 109.2     18?  70.08 199.1   54 345  69  52
   2024 03 17 11:00  13 09 58.21    +70 27 28.3   141174 0.9955 109.4     18?  71.19 198.1   53 343  69  52
   2024 03 17 11:10  13 09 14.70    +70 16 05.6   140954 0.9955 109.6     18?  72.28 197.1   53 342  69  52
   2024 03 17 11:20  13 08 33.27    +70 04 28.9   140731 0.9955 109.8     18?  73.35 196.2   52 341  69  52
   2024 03 17 11:30  13 07 54.01    +69 52 38.5   140505 0.9955 110.0     18?  74.39 195.2   52 339  69  52
   2024 03 17 11:40  13 07 16.97    +69 40 34.9   140278 0.9955 110.2     18?  75.41 194.2   51 338  69  52
   2024 03 17 11:50  13 06 42.20    +69 28 18.3   140048 0.9955 110.4     18?  76.40 193.2   51 337  69  53
   2024 03 17 12:00  13 06 09.75    +69 15 49.1   139815 0.9955 110.6     18?  77.37 192.2   50 336  69  53
   2024 03 17 12:10  13 05 39.65    +69 03 07.7   139580 0.9955 110.9     18?  78.32 191.3   49 335  69  53
   2024 03 17 12:20  13 05 11.94    +68 50 14.5   139343 0.9955 111.1 A   18?  79.24 190.3   48 334  69  53
   2024 03 17 12:30  13 04 46.64    +68 37 09.9   139102 0.9955 111.3 A   18?  80.13 189.3   48 334  69  53
   2024 03 17 12:40  13 04 23.77    +68 23 54.4   138859 0.9955 111.5 A   18?  81.00 188.3   47 333  69  53
   2024 03 17 12:50  13 04 03.34    +68 10 28.4   138614 0.9955 111.7 N   18?  81.85 187.4   46 332  69  53
   2024 03 17 13:00  13 03 45.36    +67 56 52.4   138365 0.9955 111.9 N   18?  82.66 186.4   45 331  69  53
   2024 03 17 13:10  13 03 29.82    +67 43 06.8   138113 0.9955 112.2 N   18?  83.46 185.4   44 331  69  53
   2024 03 17 13:20  13 03 16.73    +67 29 12.1   137858 0.9955 112.4 C   18?  84.22 184.5   43 330  69  53
   2024 03 17 13:30  13 03 06.06    +67 15 08.8   137600 0.9955 112.6 C   18?  84.97 183.5   42 330  69  54
   ................
   

Spektr-R Observatory (JPL-ID: -557)

   Date (UTC) HH:MM   RA              Dec         delta   r     elong SM  mag  '/hr    PA   alt  az moo ill
   ---- -- -- -----  -------------   -----------  ------ ------ ----- --  --- ------ ------ --- --- --- ---
   2024 03 04 01:40  10 33 14.27    +41 12 42.9   338665 0.9935 144.7 C   17?  22.20  49.4   26  57 114  45
   2024 03 04 01:50  10 33 28.90    +41 15 07.8   338366 0.9935 144.6 C   17?  21.76  48.6   28  58 114  45
   2024 03 04 02:00  10 33 43.05    +41 17 32.3   338067 0.9935 144.6 N   17?  21.33  47.7   30  59 114  45
   2024 03 04 02:10  10 33 56.72    +41 19 56.3   337769 0.9935 144.6 N   17?  20.89  46.8   31  60 114  45
   2024 03 04 02:20  10 34 09.93    +41 22 19.6   337471 0.9935 144.5 N   17?  20.45  45.9   33  60 114  45
   2024 03 04 02:30  10 34 22.66    +41 24 42.0   337174 0.9935 144.5 A   17?  20.00  45.0   35  61 114  45
   2024 03 04 02:40  10 34 34.93    +41 27 03.4   336878 0.9935 144.5 A   17?  19.55  44.2   37  62 114  45
   2024 03 04 02:50  10 34 46.74    +41 29 23.7   336584 0.9935 144.4 A   17?  19.10  43.3   38  63 114  44
   2024 03 04 03:00  10 34 58.09    +41 31 42.6   336291 0.9935 144.4     17?  18.65  42.4   40  64 114  44
   2024 03 04 03:10  10 35 08.99    +41 34 00.1   336001 0.9935 144.4     17?  18.19  41.6   42  64 115  44
   2024 03 04 03:20  10 35 19.45    +41 36 15.9   335713 0.9935 144.3     17?  17.74  40.7   44  65 115  44
   2024 03 04 03:30  10 35 29.48    +41 38 30.0   335428 0.9935 144.3     17?  17.28  39.9   45  66 115  44
   2024 03 04 03:40  10 35 39.09    +41 40 42.1   335145 0.9935 144.3     17?  16.83  39.1   47  66 115  44
   2024 03 04 03:50  10 35 48.28    +41 42 52.2   334866 0.9935 144.2     17?  16.37  38.3   49  67 115  44
   2024 03 04 04:00  10 35 57.07    +41 45 00.0   334590 0.9935 144.2     17?  15.92  37.6   51  67 115  44
   2024 03 04 04:10  10 36 05.48    +41 47 05.5   334317 0.9935 144.2     17?  15.46  36.9   53  68 115  44
   2024 03 04 04:20  10 36 13.51    +41 49 08.4   334048 0.9935 144.1     17?  15.01  36.2   55  68 115  44
   2024 03 04 04:30  10 36 21.17    +41 51 08.8   333783 0.9935 144.1     17?  14.56  35.5   56  69 115  44
   2024 03 04 04:40  10 36 28.49    +41 53 06.4   333523 0.9935 144.1     17?  14.10  34.9   58  69 115  43
   2024 03 04 04:50  10 36 35.48    +41 55 01.1   333266 0.9935 144.0     17?  13.66  34.4   60  69 115  43
   2024 03 04 05:00  10 36 42.15    +41 56 52.8   333015 0.9935 144.0     17?  13.21  33.9   62  70 116  43
   2024 03 04 05:10  10 36 48.52    +41 58 41.4   332768 0.9935 144.0     17?  12.76  33.5   64  70 116  43
   2024 03 04 05:20  10 36 54.62    +42 00 26.7   332526 0.9935 143.9     17?  12.32  33.1   66  70 116  43
   2024 03 04 05:30  10 37 00.45    +42 02 08.8   332289 0.9935 143.9     17?  11.89  32.8   67  70 116  43
   2024 03 04 05:40  10 37 06.04    +42 03 47.4   332057 0.9935 143.9     17?  11.45  32.7   69  69 116  43
   2024 03 04 05:50  10 37 11.40    +42 05 22.5   331831 0.9935 143.9     17?  11.02  32.6   71  69 116  43
   2024 03 04 06:00  10 37 16.56    +42 06 54.0   331610 0.9935 143.8     17?  10.60  32.7   73  68 116  43
   2024 03 04 06:10  10 37 21.54    +42 08 21.9   331395 0.9935 143.8     17?  10.19  32.9   75  67 116  43
   2024 03 04 06:20  10 37 26.36    +42 09 46.0   331185 0.9935 143.8     17?   9.78  33.3   77  65 116  43
   2024 03 04 06:30  10 37 31.03    +42 11 06.3   330981 0.9935 143.8     17?   9.38  33.8   78  63 116  42
   2024 03 04 06:40  10 37 35.60    +42 12 22.8   330783 0.9935 143.7     17?   8.99  34.5   80  59 116  42
   2024 03 04 06:50  10 37 40.06    +42 13 35.3   330590 0.9935 143.7     17?   8.61  35.5   82  53 117  42
   2024 03 04 07:00  10 37 44.45    +42 14 43.9   330404 0.9935 143.7     17?   8.25  36.7   83  44 117  42
   2024 03 04 07:10  10 37 48.80    +42 15 48.5   330224 0.9935 143.7     17?   7.91  38.2   84  30 117  42
   2024 03 04 07:20  10 37 53.12    +42 16 49.2   330049 0.9935 143.7     17?   7.59  40.0   85   9 117  42
   2024 03 04 07:30  10 37 57.43    +42 17 45.8   329881 0.9935 143.7  t  17?   7.29  42.0   85 345 117  42
   2024 03 04 07:40  10 38 01.77    +42 18 38.4   329718 0.9935 143.6     17?   7.02  44.4   84 326 117  42
   2024 03 04 07:50  10 38 06.15    +42 19 26.9   329562 0.9935 143.6     17?   6.78  47.2   83 313 117  42
   2024 03 04 08:00  10 38 10.59    +42 20 11.5   329411 0.9935 143.6     17?   6.58  50.3   81 305 117  42
   2024 03 04 08:10  10 38 15.13    +42 20 52.0   329266 0.9935 143.6     17?   6.43  53.6   80 300 117  42
   2024 03 04 08:20  10 38 19.78    +42 21 28.6   329127 0.9935 143.6     17?   6.32  57.3   78 297 117  42
   2024 03 04 08:30  10 38 24.57    +42 22 01.2   328994 0.9935 143.6     17?   6.26  61.1   76 294 117  41
   2024 03 04 08:40  10 38 29.52    +42 22 29.9   328866 0.9935 143.6     17?   6.25  65.1   74 293 117  41
   2024 03 04 08:50  10 38 34.65    +42 22 54.8   328744 0.9935 143.6     17?   6.30  69.1   73 292 117  41
   2024 03 04 09:00  10 38 39.99    +42 23 15.8   328627 0.9935 143.6     17?   6.40  73.0   71 291 118  41
   2024 03 04 09:10  10 38 45.55    +42 23 33.1   328516 0.9935 143.5     17?   6.55  76.8   69 290 118  41
   2024 03 04 09:20  10 38 51.36    +42 23 46.7   328410 0.9935 143.5     17?   6.76  80.3   67 290 118  41
   2024 03 04 09:30  10 38 57.44    +42 23 56.8   328309 0.9935 143.5     17?   7.02  83.6   65 290 118  41
   2024 03 04 09:40  10 39 03.80    +42 24 03.3   328212 0.9935 143.5     17?   7.32  86.6   63 290 118  41
   2024 03 04 09:50  10 39 10.48    +42 24 06.4   328121 0.9935 143.5  m  17?   7.66  89.3   62 290 118  41
   2024 03 04 10:00  10 39 17.48    +42 24 06.1   328034 0.9935 143.5  m  17?   8.04  91.7   60 291 118  41
   2024 03 04 10:10  10 39 24.84    +42 24 02.7   327951 0.9935 143.5  m  17?   8.45  93.7   58 291 118  41
   2024 03 04 10:20  10 39 32.55    +42 23 56.1   327873 0.9935 143.5  m  17?   8.88  95.5   56 291 118  41
   2024 03 04 10:30  10 39 40.65    +42 23 46.5   327798 0.9935 143.5  m  17?   9.35  97.1   54 292 118  41
   2024 03 04 10:40  10 39 49.15    +42 23 34.1   327727 0.9935 143.5  m  17?   9.83  98.4   52 292 118  41
   2024 03 04 10:50  10 39 58.07    +42 23 18.8   327660 0.9935 143.6  m  17?  10.34  99.5   51 293 118  41
   2024 03 04 11:00  10 40 07.41    +42 23 01.0   327596 0.9935 143.6  m  17?  10.86 100.3   49 293 118  41
   2024 03 04 11:10  10 40 17.20    +42 22 40.7   327535 0.9935 143.6  m  17?  11.40 101.1   47 294 118  40
   2024 03 04 11:20  10 40 27.45    +42 22 18.0   327477 0.9935 143.6  m  17?  11.95 101.7   45 295 118  40
   2024 03 04 11:30  10 40 38.16    +42 21 53.1   327421 0.9935 143.6  m  17?  12.51 102.2   44 295 118  40
   2024 03 04 11:40  10 40 49.36    +42 21 26.1   327368 0.9935 143.6  m  17?  13.08 102.5   42 296 118  40
   2024 03 04 11:50  10 41 01.05    +42 20 57.2   327317 0.9935 143.6  m  17?  13.66 102.8   40 297 118  40
   2024 03 04 12:00  10 41 13.24    +42 20 26.6   327268 0.9935 143.6  m  17?  14.25 102.9   38 297 118  40
   2024 03 04 12:10  10 41 25.94    +42 19 54.3   327220 0.9935 143.6  m  17?  14.84 103.0   37 298 118  40
   2024 03 04 12:20  10 41 39.16    +42 19 20.7   327173 0.9935 143.6  m  17?  15.44 103.0   35 299 118  40
   2024 03 04 12:30  10 41 52.91    +42 18 45.7   327127 0.9935 143.6  m  17?  16.04 103.0   33 300 118  40
   2024 03 04 12:40  10 42 07.19    +42 18 09.5   327082 0.9935 143.7 Am  17?  16.65 102.8   32 301 118  40
   2024 03 04 12:50  10 42 22.01    +42 17 32.5   327037 0.9935 143.7 Am  17?  17.25 102.7   30 301 118  40
   2024 03 04 13:00  10 42 37.36    +42 16 54.6   326993 0.9935 143.7 Am  17?  17.86 102.5   28 302 118  40
   2024 03 04 13:10  10 42 53.26    +42 16 16.1   326948 0.9935 143.7 Nm  17?  18.47 102.3   27 303 118  40
   2024 03 04 13:20  10 43 09.71    +42 15 37.0   326902 0.9935 143.7 Nm  17?  19.07 102.0   25 304 119  40
   2024 03 04 13:30  10 43 26.71    +42 14 57.7   326856 0.9935 143.7 Nm  17?  19.68 101.7   23 305 119  40
   2024 03 04 13:40  10 43 44.25    +42 14 18.3   326809 0.9935 143.7 Cm  17?  20.28 101.3   22 306 119  40
   2024 03 04 13:50  10 44 02.34    +42 13 38.8   326760 0.9935 143.8 Cm  17?  20.87 101.0   20 307 118  40
   ................
   2024 03 05 01:40  11 16 03.65    +43 09 37.2   309321 0.9935 142.7 C   17?  27.40  59.6   21  51 118  35
   2024 03 05 01:50  11 16 24.84    +43 11 56.5   308881 0.9935 142.7 C   17?  26.94  58.9   23  52 118  35
   2024 03 05 02:00  11 16 45.54    +43 14 16.2   308440 0.9935 142.6 N   17?  26.47  58.2   24  53 118  35
   2024 03 05 02:10  11 17 05.72    +43 16 36.1   307998 0.9935 142.6 N   17?  25.99  57.5   26  54 118  35
   2024 03 05 02:20  11 17 25.40    +43 18 55.9   307556 0.9935 142.6 N   17?  25.50  56.9   27  55 118  34
   2024 03 05 02:30  11 17 44.56    +43 21 15.5   307113 0.9935 142.5 A   17?  25.01  56.2   29  56 118  34
   2024 03 05 02:40  11 18 03.21    +43 23 34.7   306670 0.9935 142.5 A   17?  24.51  55.6   31  56 118  34
   2024 03 05 02:50  11 18 21.35    +43 25 53.4   306227 0.9935 142.4 A   17?  24.01  54.9   32  57 118  34
   2024 03 05 03:00  11 18 38.97    +43 28 11.3   305784 0.9935 142.4     17?  23.50  54.3   34  58 118  34
   2024 03 05 03:10  11 18 56.09    +43 30 28.3   305342 0.9935 142.3     17?  22.98  53.7   36  59 118  34
   2024 03 05 03:20  11 19 12.70    +43 32 44.2   304902 0.9935 142.3     17?  22.46  53.1   37  60 118  34
   2024 03 05 03:30  11 19 28.81    +43 34 58.9   304462 0.9935 142.2     16?  21.94  52.5   39  60 118  34
   2024 03 05 03:40  11 19 44.43    +43 37 12.0   304024 0.9935 142.2     16?  21.42  51.9   41  61 118  34
   2024 03 05 03:50  11 19 59.56    +43 39 23.6   303587 0.9935 142.1     16?  20.89  51.4   42  61 119  34
   2024 03 05 04:00  11 20 14.21    +43 41 33.3   303153 0.9935 142.1     16?  20.37  50.9   44  62 119  33
   2024 03 05 04:10  11 20 28.39    +43 43 41.1   302721 0.9935 142.1     16?  19.84  50.4   46  63 119  33
   2024 03 05 04:20  11 20 42.10    +43 45 46.7   302291 0.9935 142.0     16?  19.31  50.0   48  63 119  33
   2024 03 05 04:30  11 20 55.37    +43 47 50.0   301864 0.9935 142.0     16?  18.78  49.6   49  64 119  33
   2024 03 05 04:40  11 21 08.20    +43 49 50.8   301440 0.9935 141.9     16?  18.25  49.2   51  64 119  33
   2024 03 05 04:50  11 21 20.60    +43 51 48.9   301019 0.9935 141.9     16?  17.73  48.9   53  64 119  33
   2024 03 05 05:00  11 21 32.58    +43 53 44.2   300601 0.9935 141.9     16?  17.20  48.7   55  65 119  33
   2024 03 05 05:10  11 21 44.18    +43 55 36.6   300187 0.9935 141.8     16?  16.68  48.5   56  65 119  33
   2024 03 05 05:20  11 21 55.39    +43 57 25.8   299777 0.9935 141.8     16?  16.17  48.4   58  65 119  33
   2024 03 05 05:30  11 22 06.23    +43 59 11.8   299370 0.9935 141.7     16?  15.65  48.3   60  65 119  33
   2024 03 05 05:40  11 22 16.73    +44 00 54.4   298968 0.9935 141.7     16?  15.15  48.4   62  65 119  33
   2024 03 05 05:50  11 22 26.90    +44 02 33.4   298570 0.9935 141.7     16?  14.65  48.5   63  65 119  32
   2024 03 05 06:00  11 22 36.76    +44 04 08.8   298176 0.9935 141.6     16?  14.16  48.8   65  65 120  32
   2024 03 05 06:10  11 22 46.33    +44 05 40.3   297787 0.9935 141.6     16?  13.68  49.2   67  64 120  32
   2024 03 05 06:20  11 22 55.64    +44 07 08.0   297403 0.9935 141.6     16?  13.21  49.7   69  64 120  32
   2024 03 05 06:30  11 23 04.70    +44 08 31.6   297024 0.9935 141.6     16?  12.75  50.3   71  63 120  32
   2024 03 05 06:40  11 23 13.54    +44 09 51.2   296649 0.9935 141.5     16?  12.31  51.1   72  61 120  32
   2024 03 05 06:50  11 23 22.18    +44 11 06.5   296280 0.9935 141.5     16?  11.88  52.1   74  60 120  32
   2024 03 05 07:00  11 23 30.64    +44 12 17.4   295915 0.9935 141.5     16?  11.48  53.3   76  57 120  32
   2024 03 05 07:10  11 23 38.95    +44 13 24.1   295556 0.9935 141.5     16?  11.09  54.6   77  54 120  32
   2024 03 05 07:20  11 23 47.13    +44 14 26.2   295202 0.9935 141.4     16?  10.73  56.2   79  49 120  32
   2024 03 05 07:30  11 23 55.21    +44 15 23.9   294854 0.9935 141.4     16?  10.41  58.0   80  43 120  32
   2024 03 05 07:40  11 24 03.22    +44 16 16.9   294511 0.9935 141.4     16?  10.11  60.0   81  35 120  31
   2024 03 05 07:50  11 24 11.17    +44 17 05.4   294173 0.9935 141.4     16?   9.85  62.2   82  24 120  31
   2024 03 05 08:00  11 24 19.10    +44 17 49.2   293841 0.9935 141.4     16?   9.63  64.6   83   9 120  31
   2024 03 05 08:10  11 24 27.04    +44 18 28.3   293514 0.9935 141.3  t  16?   9.45  67.2   83 354 120  31
   2024 03 05 08:20  11 24 35.00    +44 19 02.7   293193 0.9935 141.3     16?   9.32  70.0   83 339 121  31
   2024 03 05 08:30  11 24 43.02    +44 19 32.4   292877 0.9935 141.3     16?   9.24  72.9   82 327 121  31
   2024 03 05 08:40  11 24 51.13    +44 19 57.3   292566 0.9935 141.3     16?   9.22  75.9   80 318 121  31
   2024 03 05 08:50  11 24 59.34    +44 20 17.6   292261 0.9935 141.3     16?   9.24  78.9   79 311 121  31
   2024 03 05 09:00  11 25 07.69    +44 20 33.2   291961 0.9935 141.3     16?   9.32  81.9   78 307 121  31
   2024 03 05 09:10  11 25 16.21    +44 20 44.1   291666 0.9935 141.3     16?   9.46  84.8   76 303 121  31
   2024 03 05 09:20  11 25 24.91    +44 20 50.4   291376 0.9935 141.3     16?   9.65  87.7   74 301 121  31
   2024 03 05 09:30  11 25 33.84    +44 20 52.1   291092 0.9935 141.3     16?   9.89  90.4   73 299 121  31
   2024 03 05 09:40  11 25 43.00    +44 20 49.3   290812 0.9935 141.3     16?  10.17  92.9   71 297 121  31
   2024 03 05 09:50  11 25 52.43    +44 20 42.0   290538 0.9935 141.2     16?  10.51  95.2   69 296 121  31
   2024 03 05 10:00  11 26 02.15    +44 20 30.3   290268 0.9935 141.2     16?  10.88  97.4   67 295 121  30
   2024 03 05 10:10  11 26 12.20    +44 20 14.3   290002 0.9935 141.2     16?  11.29  99.3   66 295 121  30
   2024 03 05 10:20  11 26 22.58    +44 19 54.1   289741 0.9935 141.2     16?  11.74 101.0   64 295 121  30
   2024 03 05 10:30  11 26 33.33    +44 19 29.7   289485 0.9935 141.2     16?  12.22 102.5   62 294 121  30
   2024 03 05 10:40  11 26 44.47    +44 19 01.3   289232 0.9935 141.2     16?  12.73 103.8   60 294 121  30
   2024 03 05 10:50  11 26 56.02    +44 18 29.0   288983 0.9935 141.2  m  16?  13.27 105.0   59 295 121  30
   2024 03 05 11:00  11 27 08.00    +44 17 52.8   288739 0.9935 141.2  m  16?  13.83 105.9   57 295 121  30
   2024 03 05 11:10  11 27 20.43    +44 17 13.0   288497 0.9935 141.2  m  16?  14.41 106.8   55 295 121  30
   2024 03 05 11:20  11 27 33.33    +44 16 29.6   288260 0.9935 141.3  m  16?  15.02 107.5   53 295 121  30
   2024 03 05 11:30  11 27 46.73    +44 15 42.8   288025 0.9935 141.3  m  16?  15.63 108.0   52 296 121  30
   2024 03 05 11:40  11 28 00.64    +44 14 52.7   287793 0.9935 141.3  m  16?  16.27 108.5   50 296 121  30
   2024 03 05 11:50  11 28 15.07    +44 13 59.5   287564 0.9935 141.3  m  16?  16.92 108.9   48 296 121  30
   2024 03 05 12:00  11 28 30.05    +44 13 03.3   287338 0.9935 141.3  m  16?  17.58 109.1   46 297 122  30
   2024 03 05 12:10  11 28 45.59    +44 12 04.3   287114 0.9935 141.3  m  16?  18.25 109.3   45 297 122  30
   2024 03 05 12:20  11 29 01.70    +44 11 02.7   286892 0.9935 141.3  m  16?  18.93 109.4   43 298 122  30
   2024 03 05 12:30  11 29 18.40    +44 09 58.5   286671 0.9935 141.3  m  16?  19.62 109.4   41 299 122  30
   2024 03 05 12:40  11 29 35.70    +44 08 52.0   286452 0.9935 141.3 Am  16?  20.31 109.4   40 299 122  30
   2024 03 05 12:50  11 29 53.61    +44 07 43.4   286235 0.9935 141.3 Am  16?  21.01 109.3   38 300 122  30
   2024 03 05 13:00  11 30 12.14    +44 06 32.8   286018 0.9935 141.3 Am  16?  21.72 109.2   36 301 122  29
   2024 03 05 13:10  11 30 31.30    +44 05 20.4   285803 0.9935 141.3 Nm  16?  22.43 109.0   35 301 122  29
   2024 03 05 13:20  11 30 51.10    +44 04 06.3   285587 0.9935 141.3 Nm  16?  23.14 108.8   33 302 122  29
   2024 03 05 13:30  11 31 11.55    +44 02 50.9   285372 0.9935 141.3 Nm  16?  23.85 108.6   31 303 122  29
   2024 03 05 13:40  11 31 32.65    +44 01 34.2   285157 0.9935 141.3 Cm  16?  24.57 108.3   30 304 122  29
   2024 03 05 13:50  11 31 54.41    +44 00 16.4   284942 0.9935 141.4 Cm  16?  25.29 108.0   28 305 122  29
   ................
   2024 03 06 01:40  12 15 12.57    +44 00 09.1   256976 0.9934 138.8 C   16?  40.39  74.0   14  44 118  25
   2024 03 06 01:50  12 15 47.99    +44 02 00.7   256366 0.9934 138.7 C   16?  39.91  73.6   15  45 118  25
   2024 03 06 02:00  12 16 22.93    +44 03 53.7   255752 0.9934 138.6 N   16?  39.42  73.2   16  46 118  25
   2024 03 06 02:10  12 16 57.37    +44 05 47.8   255136 0.9934 138.6 N   16?  38.91  72.8   18  47 118  25
   2024 03 06 02:20  12 17 31.30    +44 07 42.9   254517 0.9934 138.5 N   16?  38.39  72.5   19  48 118  24
   2024 03 06 02:30  12 18 04.71    +44 09 38.8   253895 0.9934 138.4 A   16?  37.86  72.1   21  49 118  24
   2024 03 06 02:40  12 18 37.60    +44 11 35.3   253272 0.9934 138.4 A   16?  37.32  71.8   22  50 118  24
   2024 03 06 02:50  12 19 09.95    +44 13 32.1   252646 0.9934 138.3 A   16?  36.77  71.4   23  51 118  24
   2024 03 06 03:00  12 19 41.76    +44 15 29.1   252019 0.9934 138.2 A   16?  36.20  71.1   25  52 118  24
   2024 03 06 03:10  12 20 13.03    +44 17 26.1   251391 0.9934 138.1     16?  35.63  70.8   26  53 118  24
   2024 03 06 03:20  12 20 43.74    +44 19 22.9   250761 0.9934 138.1     16?  35.04  70.5   28  54 118  24
   2024 03 06 03:30  12 21 13.91    +44 21 19.2   250131 0.9934 138.0     16?  34.45  70.3   30  55 118  24
   2024 03 06 03:40  12 21 43.52    +44 23 14.8   249500 0.9934 137.9     16?  33.85  70.1   31  55 118  24
   2024 03 06 03:50  12 22 12.58    +44 25 09.6   248869 0.9934 137.8     16?  33.25  69.9   33  56 118  24
   2024 03 06 04:00  12 22 41.09    +44 27 03.3   248237 0.9934 137.8     16?  32.64  69.7   34  57 118  23
   2024 03 06 04:10  12 23 09.04    +44 28 55.7   247606 0.9934 137.7     16?  32.02  69.6   36  58 118  23
   2024 03 06 04:20  12 23 36.44    +44 30 46.6   246975 0.9934 137.6     16?  31.41  69.5   38  58 118  23
   2024 03 06 04:30  12 24 03.30    +44 32 35.7   246345 0.9934 137.6     16?  30.79  69.4   39  59 118  23
   2024 03 06 04:40  12 24 29.62    +44 34 22.8   245715 0.9934 137.5     16?  30.16  69.4   41  60 118  23
   2024 03 06 04:50  12 24 55.41    +44 36 07.8   245087 0.9934 137.5     16?  29.54  69.4   43  60 118  23
   2024 03 06 05:00  12 25 20.67    +44 37 50.3   244460 0.9934 137.4     16?  28.93  69.5   44  61 118  23
   2024 03 06 05:10  12 25 45.41    +44 39 30.2   243834 0.9934 137.3     16?  28.31  69.6   46  61 118  23
   2024 03 06 05:20  12 26 09.65    +44 41 07.3   243211 0.9934 137.3     16?  27.70  69.8   48  62 118  23
   2024 03 06 05:30  12 26 33.40    +44 42 41.4   242589 0.9934 137.2     16?  27.09  70.0   49  62 118  23
   2024 03 06 05:40  12 26 56.67    +44 44 12.1   241970 0.9934 137.2     16?  26.50  70.3   51  63 118  23
   2024 03 06 05:50  12 27 19.46    +44 45 39.4   241352 0.9934 137.1     16?  25.91  70.7   53  63 118  23
   2024 03 06 06:00  12 27 41.81    +44 47 03.0   240738 0.9934 137.1     16?  25.33  71.1   54  63 118  22
   2024 03 06 06:10  12 28 03.73    +44 48 22.8   240126 0.9934 137.0     16?  24.77  71.6   56  63 118  22
   2024 03 06 06:20  12 28 25.22    +44 49 38.4   239517 0.9934 136.9     16?  24.23  72.3   58  63 118  22
   2024 03 06 06:30  12 28 46.32    +44 50 49.8   238912 0.9934 136.9     16?  23.70  73.0   60  63 118  22
   2024 03 06 06:40  12 29 07.04    +44 51 56.7   238309 0.9934 136.9     16?  23.19  73.7   61  63 118  22
   2024 03 06 06:50  12 29 27.41    +44 52 59.0   237710 0.9934 136.8     16?  22.70  74.6   63  63 119  22
   2024 03 06 07:00  12 29 47.45    +44 53 56.5   237115 0.9934 136.8     16?  22.25  75.6   65  63 119  22
   2024 03 06 07:10  12 30 07.17    +44 54 49.0   236523 0.9934 136.7     16?  21.82  76.7   66  62 119  22
   2024 03 06 07:20  12 30 26.61    +44 55 36.3   235935 0.9934 136.7     16?  21.42  77.9   68  62 119  22
   2024 03 06 07:30  12 30 45.79    +44 56 18.4   235352 0.9934 136.6     16?  21.05  79.1   70  61 119  22
   2024 03 06 07:40  12 31 04.74    +44 56 55.0   234772 0.9934 136.6     16?  20.73  80.5   71  59 119  22
   2024 03 06 07:50  12 31 23.48    +44 57 26.0   234196 0.9934 136.6     16?  20.44  82.0   73  58 119  22
   2024 03 06 08:00  12 31 42.05    +44 57 51.3   233625 0.9934 136.5     16?  20.20  83.5   75  55 119  21
   2024 03 06 08:10  12 32 00.46    +44 58 10.7   233058 0.9934 136.5     16?  20.00  85.2   76  52 119  21
   2024 03 06 08:20  12 32 18.77    +44 58 24.2   232495 0.9934 136.5     16?  19.85  86.9   78  48 119  21
   2024 03 06 08:30  12 32 36.98    +44 58 31.7   231937 0.9934 136.4     16?  19.75  88.6   79  43 119  21
   2024 03 06 08:40  12 32 55.14    +44 58 33.0   231383 0.9934 136.4     16?  19.71  90.4   80  36 119  21
   2024 03 06 08:50  12 33 13.27    +44 58 28.1   230834 0.9934 136.4     16?  19.72  92.2   81  27 119  21
   2024 03 06 09:00  12 33 31.42    +44 58 16.8   230289 0.9933 136.4     16?  19.78  94.1   82  15 119  21
   2024 03 06 09:10  12 33 49.60    +44 57 59.3   229749 0.9933 136.3     16?  19.90  95.9   82   2 119  21
   2024 03 06 09:20  12 34 07.86    +44 57 35.3   229213 0.9933 136.3  t  16?  20.08  97.7   82 348 119  21
   2024 03 06 09:30  12 34 26.23    +44 57 04.8   228682 0.9933 136.3     16?  20.31  99.4   82 335 119  21
   2024 03 06 09:40  12 34 44.74    +44 56 27.9   228155 0.9933 136.3     16?  20.60 101.1   81 325 119  21
   2024 03 06 09:50  12 35 03.43    +44 55 44.4   227633 0.9933 136.3     16?  20.94 102.7   80 318 119  21
   2024 03 06 10:00  12 35 22.32    +44 54 54.5   227116 0.9933 136.2     16?  21.34 104.3   78 312 119  21
   2024 03 06 10:10  12 35 41.46    +44 53 58.0   226602 0.9933 136.2     16?  21.78 105.8   77 307 119  21
   2024 03 06 10:20  12 36 00.87    +44 52 55.0   226093 0.9933 136.2     16?  22.27 107.1   75 304 119  20
   2024 03 06 10:30  12 36 20.59    +44 51 45.6   225589 0.9933 136.2     16?  22.81 108.4   74 302 119  20
   2024 03 06 10:40  12 36 40.66    +44 50 29.7   225088 0.9933 136.2     16?  23.39 109.6   72 300 119  20
   2024 03 06 10:50  12 37 01.10    +44 49 07.4   224591 0.9933 136.2     16?  24.01 110.7   70 298 119  20
   2024 03 06 11:00  12 37 21.96    +44 47 38.8   224099 0.9933 136.1     16?  24.68 111.7   69 297 119  20
   2024 03 06 11:10  12 37 43.25    +44 46 04.0   223610 0.9933 136.1     16?  25.37 112.6   67 296 119  20
   2024 03 06 11:20  12 38 05.02    +44 44 22.9   223125 0.9933 136.1     16?  26.11 113.4   65 296 119  20
   2024 03 06 11:30  12 38 27.29    +44 42 35.7   222643 0.9933 136.1     16?  26.87 114.1   64 295 119  20
   2024 03 06 11:40  12 38 50.09    +44 40 42.5   222165 0.9933 136.1     16?  27.67 114.7   62 295 119  20
   2024 03 06 11:50  12 39 13.46    +44 38 43.4   221690 0.9933 136.1  m  16?  28.49 115.2   60 295 119  20
   2024 03 06 12:00  12 39 37.42    +44 36 38.6   221219 0.9933 136.1  m  16?  29.34 115.7   58 295 119  20
   2024 03 06 12:10  12 40 02.01    +44 34 28.0   220750 0.9933 136.1  m  16?  30.21 116.1   57 295 119  20
   2024 03 06 12:20  12 40 27.24    +44 32 11.9   220284 0.9933 136.1  m  16?  31.10 116.4   55 295 119  20
   2024 03 06 12:30  12 40 53.14    +44 29 50.4   219820 0.9933 136.0  m  16?  32.02 116.6   53 296 119  20
   2024 03 06 12:40  12 41 19.75    +44 27 23.7   219359 0.9933 136.0 Am  16?  32.95 116.8   52 296 119  20
   2024 03 06 12:50  12 41 47.08    +44 24 51.8   218900 0.9933 136.0 Am  16?  33.91 116.9   50 296 119  20
   2024 03 06 13:00  12 42 15.16    +44 22 15.1   218443 0.9933 136.0 Am  16?  34.88 117.0   48 297 119  20
   2024 03 06 13:10  12 42 44.01    +44 19 33.5   217988 0.9933 136.0 Nm  16?  35.86 117.1   46 297 119  20
   2024 03 06 13:20  12 43 13.65    +44 16 47.4   217534 0.9933 136.0 Nm  16?  36.86 117.1   45 298 119  20
   2024 03 06 13:30  12 43 44.10    +44 13 56.8   217081 0.9933 136.0 Nm  16?  37.87 117.0   43 298 119  19
   2024 03 06 13:40  12 44 15.39    +44 11 02.0   216630 0.9933 136.0 Cm  16?  38.89 116.9   41 299 119  19
   2024 03 06 13:50  12 44 47.52    +44 08 03.1   216179 0.9933 135.9 Cm  16?  39.92 116.8   40 299 119  19
   ................
   2024 03 07 01:50  13 58 09.86    +40 32 17.3   172411 0.9931 128.5 C   15?  88.94  97.6    0  35 108  16
   2024 03 07 02:00  13 59 26.24    +40 30 20.2   171549 0.9931 128.3 C   15?  88.89  97.6    1  36 108  15
   2024 03 07 02:10  14 00 42.53    +40 28 23.3   170680 0.9931 128.2 N   15?  88.83  97.6    2  37 108  15
   2024 03 07 02:20  14 01 58.70    +40 26 26.5   169806 0.9931 128.0 N   15?  88.75  97.6    3  39 108  15
   2024 03 07 02:30  14 03 14.74    +40 24 29.4   168925 0.9931 127.8 N   15?  88.65  97.6    4  40 108  15
   2024 03 07 02:40  14 04 30.64    +40 22 31.9   168039 0.9931 127.6 A   15?  88.54  97.7    5  41 107  15
   2024 03 07 02:50  14 05 46.37    +40 20 33.7   167147 0.9931 127.4 A   15?  88.41  97.8    6  42 107  15
   2024 03 07 03:00  14 07 01.93    +40 18 34.6   166250 0.9931 127.2 A   15?  88.26  97.8    7  44 107  15
   2024 03 07 03:10  14 08 17.29    +40 16 34.3   165347 0.9931 127.0     15?  88.11  97.9    9  45 107  15
   2024 03 07 03:20  14 09 32.44    +40 14 32.6   164440 0.9931 126.8     15?  87.94  98.1   10  46 107  15
   2024 03 07 03:30  14 10 47.37    +40 12 29.1   163527 0.9931 126.6     15?  87.77  98.2   11  47 107  15
   2024 03 07 03:40  14 12 02.06    +40 10 23.7   162610 0.9931 126.5     15?  87.58  98.4   12  48 107  15
   2024 03 07 03:50  14 13 16.51    +40 08 16.0   161688 0.9931 126.3     15?  87.39  98.6   14  49 106  15
   2024 03 07 04:00  14 14 30.70    +40 06 05.6   160762 0.9931 126.1     15?  87.19  98.8   15  50 106  15
   2024 03 07 04:10  14 15 44.62    +40 03 52.4   159832 0.9931 125.9     15?  86.99  99.0   16  52 106  14
   2024 03 07 04:20  14 16 58.26    +40 01 35.9   158898 0.9931 125.7     15?  86.79  99.2   18  53 106  14
   2024 03 07 04:30  14 18 11.62    +39 59 15.8   157961 0.9931 125.5     15?  86.58  99.5   19  54 106  14
   2024 03 07 04:40  14 19 24.68    +39 56 51.9   157020 0.9930 125.3     15?  86.38  99.8   20  55 106  14
   2024 03 07 04:50  14 20 37.45    +39 54 23.7   156075 0.9930 125.1     15?  86.18 100.1   22  56 106  14
   2024 03 07 05:00  14 21 49.92    +39 51 50.9   155128 0.9930 124.9     15?  85.99 100.4   23  57 105  14
   2024 03 07 05:10  14 23 02.07    +39 49 13.2   154177 0.9930 124.8     15?  85.80 100.8   25  58 105  14
   2024 03 07 05:20  14 24 13.92    +39 46 30.1   153224 0.9930 124.6     14?  85.63 101.2   26  59 105  14
   2024 03 07 05:30  14 25 25.46    +39 43 41.3   152268 0.9930 124.4     14?  85.47 101.7   28  59 105  14
   2024 03 07 05:40  14 26 36.68    +39 40 46.4   151310 0.9930 124.2     14?  85.32 102.1   29  60 105  14
   2024 03 07 05:50  14 27 47.60    +39 37 45.0   150350 0.9930 124.0     14?  85.19 102.6   31  61 105  14
   2024 03 07 06:00  14 28 58.21    +39 34 36.7   149388 0.9930 123.8     14?  85.09 103.1   32  62 105  14
   2024 03 07 06:10  14 30 08.52    +39 31 21.1   148424 0.9930 123.7     14?  85.01 103.6   34  63 104  14
   2024 03 07 06:20  14 31 18.54    +39 27 57.7   147459 0.9930 123.5     14?  84.95 104.2   35  64 104  13
   2024 03 07 06:30  14 32 28.26    +39 24 26.1   146492 0.9930 123.3     14?  84.93 104.8   37  65 104  13
   2024 03 07 06:40  14 33 37.71    +39 20 46.0   145524 0.9930 123.1     14?  84.94 105.4   38  66 104  13
   2024 03 07 06:50  14 34 46.89    +39 16 56.8   144556 0.9930 122.9     14?  84.99 106.1   40  67 104  13
   2024 03 07 07:00  14 35 55.80    +39 12 58.1   143586 0.9930 122.8     14?  85.08 106.7   42  67 104  13
   2024 03 07 07:10  14 37 04.48    +39 08 49.4   142616 0.9930 122.6     14?  85.21 107.4   43  68 104  13
   2024 03 07 07:20  14 38 12.92    +39 04 30.4   141645 0.9930 122.4     14?  85.39 108.2   45  69 103  13
   2024 03 07 07:30  14 39 21.16    +39 00 00.5   140675 0.9930 122.2     14?  85.62 108.9   46  70 103  13
   2024 03 07 07:40  14 40 29.19    +38 55 19.2   139704 0.9930 122.1     14?  85.90 109.7   48  71 103  13
   2024 03 07 07:50  14 41 37.06    +38 50 26.1   138733 0.9930 121.9     14?  86.25 110.4   50  72 103  13
   2024 03 07 08:00  14 42 44.77    +38 45 20.6   137762 0.9930 121.7     14?  86.65 111.2   51  72 103  13
   2024 03 07 08:10  14 43 52.36    +38 40 02.4   136792 0.9930 121.6     14?  87.12 112.0   53  73 103  13
   2024 03 07 08:20  14 44 59.84    +38 34 30.9   135823 0.9930 121.4     14?  87.66 112.9   55  74 102  13
   2024 03 07 08:30  14 46 07.24    +38 28 45.5   134854 0.9930 121.2     14?  88.27 113.7   56  75 102  13
   2024 03 07 08:40  14 47 14.60    +38 22 45.9   133886 0.9930 121.1     14?  88.96 114.5   58  76 102  12
   2024 03 07 08:50  14 48 21.94    +38 16 31.5   132919 0.9930 120.9     14?  89.72 115.4   60  77 102  12
   2024 03 07 09:00  14 49 29.29    +38 10 01.8   131953 0.9929 120.7     14?  90.56 116.2   61  78 102  12
   2024 03 07 09:10  14 50 36.70    +38 03 16.2   130988 0.9929 120.5     14?  91.49 117.1   63  79 102  12
   2024 03 07 09:20  14 51 44.19    +37 56 14.3   130024 0.9929 120.4     14?  92.51 117.9   65  80 102  12
   2024 03 07 09:30  14 52 51.80    +37 48 55.6   129062 0.9929 120.2     14?  93.61 118.8   67  81 101  12
   2024 03 07 09:40  14 53 59.57    +37 41 19.5   128102 0.9929 120.0     14?  94.81 119.6   68  82 101  12
   2024 03 07 09:50  14 55 07.54    +37 33 25.5   127143 0.9929 119.9     14?  96.10 120.4   70  83 101  12
   2024 03 07 10:00  14 56 15.76    +37 25 13.0   126186 0.9929 119.7     14?  97.48 121.2   72  84 101  12
   2024 03 07 10:10  14 57 24.27    +37 16 41.7   125230 0.9929 119.5     14?  98.96 122.0   74  85 101  12
   2024 03 07 10:20  14 58 33.10    +37 07 50.8   124277 0.9929 119.4     14? 100.55 122.8   75  87 100  12
   2024 03 07 10:30  14 59 42.32    +36 58 40.0   123325 0.9929 119.2     14? 102.23 123.5   77  89 100  12
   2024 03 07 10:40  15 00 51.97    +36 49 08.6   122375 0.9929 119.0     14? 104.02 124.3   79  91 100  12
   2024 03 07 10:50  15 02 02.09    +36 39 16.1   121428 0.9929 118.8     14? 105.91 125.0   80  94 100  12
   2024 03 07 11:00  15 03 12.74    +36 29 02.1   120482 0.9929 118.7     14? 107.91 125.7   82  97 100  12
   2024 03 07 11:10  15 04 23.98    +36 18 25.9   119539 0.9929 118.5     14? 110.01 126.3   84 103  99  12
   2024 03 07 11:20  15 05 35.85    +36 07 27.0   118598 0.9929 118.3     14? 112.22 127.0   85 113  99  12
   2024 03 07 11:30  15 06 48.41    +35 56 04.9   117659 0.9929 118.1     14? 114.54 127.6   87 133  99  12
   2024 03 07 11:40  15 08 01.71    +35 44 19.1   116722 0.9929 117.9  e  14? 116.97 128.2   87 174  99  11
   2024 03 07 11:50  15 09 15.82    +35 32 08.9   115787 0.9929 117.8  t  14? 119.50 128.7   87 214  98  11
   2024 03 07 12:00  15 10 30.79    +35 19 33.9   114855 0.9929 117.6     14? 122.15 129.2   85 234  98  11
   2024 03 07 12:10  15 11 46.68    +35 06 33.5   113925 0.9929 117.4     14? 124.92 129.7   84 243  98  11
   2024 03 07 12:20  15 13 03.55    +34 53 07.1   112997 0.9929 117.2     14? 127.79 130.2   82 249  98  11
   2024 03 07 12:30  15 14 21.46    +34 39 14.2   112071 0.9929 117.0 Am  14? 130.78 130.7   80 252  97  11
   2024 03 07 12:40  15 15 40.47    +34 24 54.2   111147 0.9929 116.8 Am  14? 133.88 131.1   79 255  97  11
   2024 03 07 12:50  15 17 00.65    +34 10 06.6   110226 0.9928 116.6 Am  14? 137.10 131.5   77 257  97  11
   2024 03 07 13:00  15 18 22.06    +33 54 50.7   109306 0.9928 116.3 Am  14? 140.44 131.8   75 259  97  11
   2024 03 07 13:10  15 19 44.76    +33 39 05.9   108389 0.9928 116.1 Nm  13? 143.89 132.2   73 260  96  11
   2024 03 07 13:20  15 21 08.81    +33 22 51.7   107473 0.9928 115.9 Nm  13? 147.46 132.5   71 262  96  11
   2024 03 07 13:30  15 22 34.29    +33 06 07.5   106560 0.9928 115.7 Nm  13? 151.16 132.8   70 263  96  11
   2024 03 07 13:40  15 24 01.26    +32 48 52.7   105648 0.9928 115.4 Cm  13? 154.98 133.0   68 264  95  11
   2024 03 07 13:50  15 25 29.78    +32 31 06.5   104738 0.9928 115.2 Cm  13? 158.92 133.3   66 265  95  11
   ................
   2024 03 09 01:50  07 09 37.78    +11 54 24.6   161378 0.9934 118.1 C   14?  66.67  28.5   54 130 135   2
   2024 03 09 02:00  07 09 58.68    +12 04 07.3   162056 0.9934 118.2 C   14?  65.65  28.2   56 133 135   2
   2024 03 09 02:10  07 10 19.08    +12 13 42.7   162739 0.9934 118.3 N   14?  64.66  28.0   57 136 135   2
   2024 03 09 02:20  07 10 39.04    +12 23 10.6   163428 0.9934 118.3 N   14?  63.69  27.8   59 140 135   2
   2024 03 09 02:30  07 10 58.58    +12 32 31.2   164122 0.9934 118.4 N   14?  62.75  27.6   60 144 135   2
   2024 03 09 02:40  07 11 17.75    +12 41 44.3   164822 0.9935 118.5 A   14?  61.83  27.5   61 148 135   2
   2024 03 09 02:50  07 11 36.56    +12 50 50.0   165527 0.9935 118.5 A   14?  60.94  27.4   62 153 135   2
   2024 03 09 03:00  07 11 55.08    +12 59 48.3   166238 0.9935 118.6 A   14?  60.08  27.3   63 158 135   2
   2024 03 09 03:10  07 12 13.32    +13 08 39.2   166956 0.9935 118.6     15?  59.24  27.3   64 163 135   2
   2024 03 09 03:20  07 12 31.32    +13 17 22.7   167679 0.9935 118.7     15?  58.42  27.4   65 168 135   2
   2024 03 09 03:30  07 12 49.13    +13 25 58.8   168408 0.9935 118.8     15?  57.63  27.4   65 174 135   2
   2024 03 09 03:40  07 13 06.76    +13 34 27.6   169144 0.9935 118.8  t  15?  56.87  27.6   65 180 135   2
   2024 03 09 03:50  07 13 24.27    +13 42 49.1   169885 0.9935 118.9  e  15?  56.14  27.8   65 185 135   2
   2024 03 09 04:00  07 13 41.68    +13 51 03.3   170632 0.9935 118.9     15?  55.43  28.0   65 191 135   2
   2024 03 09 04:10  07 13 59.03    +13 59 10.2   171386 0.9935 119.0     15?  54.75  28.3   65 197 135   2
   2024 03 09 04:20  07 14 16.34    +14 07 10.0   172146 0.9935 119.1     15?  54.09  28.6   64 202 135   2
   2024 03 09 04:30  07 14 33.66    +14 15 02.7   172911 0.9935 119.1     15?  53.47  28.9   64 207 135   2
   2024 03 09 04:40  07 14 51.01    +14 22 48.3   173682 0.9935 119.2     15?  52.88  29.4   63 212 135   2
   2024 03 09 04:50  07 15 08.42    +14 30 26.9   174460 0.9935 119.2     15?  52.32  29.8   62 217 135   2
   2024 03 09 05:00  07 15 25.93    +14 37 58.5   175243 0.9935 119.3     15?  51.78  30.3   61 221 135   2
   2024 03 09 05:10  07 15 43.56    +14 45 23.3   176031 0.9936 119.3     15?  51.29  30.9   59 226 135   2
   2024 03 09 05:20  07 16 01.34    +14 52 41.4   176825 0.9936 119.4     15?  50.82  31.5   58 229 135   2
   2024 03 09 05:30  07 16 19.30    +14 59 52.7   177625 0.9936 119.5     15?  50.39  32.2   57 233 135   2
   2024 03 09 05:40  07 16 37.46    +15 06 57.5   178429 0.9936 119.5     15?  49.99  32.8   55 236 135   2
   2024 03 09 05:50  07 16 55.86    +15 13 55.8   179239 0.9936 119.6     15?  49.63  33.6   54 239 135   2
   2024 03 09 06:00  07 17 14.50    +15 20 47.7   180053 0.9936 119.6     15?  49.31  34.3   52 242 135   2
   2024 03 09 06:10  07 17 33.42    +15 27 33.3   180872 0.9936 119.7     15?  49.02  35.1   50 245 135   2
   2024 03 09 06:20  07 17 52.64    +15 34 12.8   181696 0.9936 119.8     15?  48.77  35.9   49 247 135   2
   2024 03 09 06:30  07 18 12.18    +15 40 46.3   182523 0.9936 119.8     15?  48.56  36.8   47 250 134   2
   2024 03 09 06:40  07 18 32.06    +15 47 13.8   183355 0.9936 119.9     15?  48.38  37.7   45 252 134   2
   2024 03 09 06:50  07 18 52.30    +15 53 35.6   184190 0.9936 120.0     15?  48.24  38.6   43 254 134   1
   2024 03 09 07:00  07 19 12.90    +15 59 51.7   185029 0.9936 120.0     15?  48.14  39.5   42 256 134   1
   2024 03 09 07:10  07 19 33.90    +16 06 02.3   185871 0.9936 120.1     15?  48.07  40.4   40 258 134   1
   2024 03 09 07:20  07 19 55.31    +16 12 07.6   186716 0.9936 120.2     15?  48.04  41.3   38 260 134   1
   2024 03 09 07:30  07 20 17.13    +16 18 07.6   187564 0.9936 120.2     15?  48.05  42.3   36 262 134   1
   2024 03 09 07:40  07 20 39.38    +16 24 02.5   188413 0.9936 120.3     15?  48.09  43.2   34 263 134   1
   2024 03 09 07:50  07 21 02.07    +16 29 52.5   189266 0.9937 120.4     15?  48.17  44.1   32 265 134   1
   2024 03 09 08:00  07 21 25.22    +16 35 37.8   190119 0.9937 120.5     15?  48.27  45.1   31 267 134   1
   2024 03 09 08:10  07 21 48.83    +16 41 18.3   190975 0.9937 120.5     15?  48.41  46.0   29 268 134   1
   2024 03 09 08:20  07 22 12.90    +16 46 54.5   191831 0.9937 120.6     15?  48.58  46.9   27 270 134   1
   2024 03 09 08:30  07 22 37.44    +16 52 26.3   192688 0.9937 120.7     15?  48.78  47.8   25 272 134   1
   2024 03 09 08:40  07 23 02.47    +16 57 53.9   193546 0.9937 120.8     15?  49.00  48.7   23 273 134   1
   2024 03 09 08:50  07 23 27.98    +17 03 17.6   194404 0.9937 120.9     15?  49.25  49.5   21 275 134   1
   2024 03 09 09:00  07 23 53.97    +17 08 37.4   195261 0.9937 121.0     15?  49.53  50.4   20 276 134   1
   2024 03 09 09:10  07 24 20.45    +17 13 53.5   196118 0.9937 121.1     15?  49.82  51.2   18 277 134   1
   2024 03 09 09:20  07 24 47.41    +17 19 06.1   196974 0.9937 121.1     15?  50.13  52.0   16 279 134   1
   2024 03 09 09:30  07 25 14.86    +17 24 15.3   197830 0.9937 121.2     15?  50.46  52.8   14 280 134   1
   2024 03 09 09:40  07 25 42.80    +17 29 21.3   198683 0.9937 121.3     15?  50.81  53.5   12 282 134   1
   2024 03 09 09:50  07 26 11.22    +17 34 24.3   199535 0.9937 121.4     15?  51.16  54.2   11 283 134   1
   2024 03 09 10:00  07 26 40.11    +17 39 24.4   200384 0.9937 121.5     15?  51.53  54.9    9 285 134   1
   2024 03 09 10:10  07 27 09.48    +17 44 21.8   201231 0.9937 121.6     15?  51.91  55.5    7 286 134   1
   2024 03 09 10:20  07 27 39.31    +17 49 16.6   202075 0.9937 121.7     15?  52.30  56.2    5 288 134   1
   2024 03 09 10:30  07 28 09.60    +17 54 08.9   202916 0.9937 121.8     15?  52.69  56.8    3 289 134   1
   2024 03 09 10:40  07 28 40.35    +17 58 59.0   203753 0.9938 121.9     15?  53.09  57.3    2 291 134   1
   2024 03 09 10:50  07 29 11.54    +18 03 47.0   204586 0.9938 122.0     15?  53.48  57.9    0 292 134   1
   ................
   2024 03 10 01:50  08 12 01.38    +25 17 34.9   249762 0.9942 129.8 C   16?  28.73  26.0   52  97 135   0
   2024 03 10 02:00  08 12 10.24    +25 21 53.9   250115 0.9942 129.8 C   16?  28.20  25.3   54  99 135   0
   2024 03 10 02:10  08 12 18.72    +25 26 09.4   250473 0.9943 129.8 N   16?  27.66  24.6   56 101 135   0
   2024 03 10 02:20  08 12 26.84    +25 30 21.4   250837 0.9943 129.8 N   16?  27.14  24.0   58 103 135   0
   2024 03 10 02:30  08 12 34.62    +25 34 29.7   251206 0.9943 129.8 N   16?  26.62  23.5   60 105 134   0
   2024 03 10 02:40  08 12 42.08    +25 38 34.4   251581 0.9943 129.8 A   16?  26.11  22.9   62 107 134   0
   2024 03 10 02:50  08 12 49.24    +25 42 35.3   251961 0.9943 129.8 A   16?  25.61  22.5   64 110 134   0
   2024 03 10 03:00  08 12 56.13    +25 46 32.3   252348 0.9943 129.8 A   16?  25.12  22.0   66 113 134   0
   2024 03 10 03:10  08 13 02.78    +25 50 25.5   252741 0.9943 129.8     16?  24.63  21.7   68 117 134   0
   2024 03 10 03:20  08 13 09.19    +25 54 14.7   253140 0.9943 129.8     16?  24.15  21.4   69 120 134   0
   2024 03 10 03:30  08 13 15.41    +25 57 59.8   253546 0.9943 129.8     16?  23.68  21.1   71 125 134   0
   2024 03 10 03:40  08 13 21.44    +26 01 40.9   253958 0.9943 129.7     16?  23.22  21.0   73 130 134   0
   2024 03 10 03:50  08 13 27.32    +26 05 18.0   254378 0.9943 129.7     16?  22.77  20.9   74 136 134   0
   2024 03 10 04:00  08 13 33.08    +26 08 50.9   254803 0.9943 129.7     16?  22.32  20.9   76 143 133   0
   2024 03 10 04:10  08 13 38.73    +26 12 19.6   255236 0.9943 129.7     16?  21.89  20.9   77 152 133   0
   2024 03 10 04:20  08 13 44.30    +26 15 44.2   255676 0.9943 129.7     16?  21.47  21.1   77 161 133   0
   2024 03 10 04:30  08 13 49.81    +26 19 04.6   256122 0.9943 129.7     16?  21.06  21.4   78 172 133   0
   2024 03 10 04:40  08 13 55.30    +26 22 20.9   256575 0.9943 129.7  t  16?  20.66  21.7   78 183 133   0
   2024 03 10 04:50  08 14 00.78    +26 25 33.0   257035 0.9943 129.7     16?  20.27  22.1   78 194 133   0
   2024 03 10 05:00  08 14 06.28    +26 28 40.9   257502 0.9943 129.7     16?  19.90  22.7   77 204 133   0
   2024 03 10 05:10  08 14 11.83    +26 31 44.7   257976 0.9943 129.7     16?  19.55  23.4   76 214 133   0
   2024 03 10 05:20  08 14 17.44    +26 34 44.4   258457 0.9943 129.7     16?  19.22  24.1   75 222 132   0
   2024 03 10 05:30  08 14 23.14    +26 37 40.0   258944 0.9944 129.7     16?  18.90  25.0   74 228 132   0
   2024 03 10 05:40  08 14 28.96    +26 40 31.5   259438 0.9944 129.7     16?  18.61  26.0   72 234 132   0
   2024 03 10 05:50  08 14 34.92    +26 43 19.1   259939 0.9944 129.7     16?  18.35  27.1   71 239 132   0
   2024 03 10 06:00  08 14 41.04    +26 46 02.7   260446 0.9944 129.7     16?  18.10  28.3   69 243 132   0
   2024 03 10 06:10  08 14 47.35    +26 48 42.4   260959 0.9944 129.7     16?  17.89  29.6   67 247 132   0
   2024 03 10 06:20  08 14 53.86    +26 51 18.3   261479 0.9944 129.7     16?  17.71  31.0   65 250 132   0
   2024 03 10 06:30  08 15 00.59    +26 53 50.5   262004 0.9944 129.7     16?  17.55  32.5   63 253 132   0
   2024 03 10 06:40  08 15 07.58    +26 56 19.0   262535 0.9944 129.7     16?  17.44  34.1   62 256 131   0
   2024 03 10 06:50  08 15 14.83    +26 58 43.9   263072 0.9944 129.7     16?  17.35  35.7   60 258 131   0
   2024 03 10 07:00  08 15 22.36    +27 01 05.3   263615 0.9944 129.7     16?  17.31  37.4   58 260 131   0
   2024 03 10 07:10  08 15 30.20    +27 03 23.4   264162 0.9944 129.7     16?  17.30  39.2   56 262 131   0
   2024 03 10 07:20  08 15 38.35    +27 05 38.1   264715 0.9944 129.7     16?  17.33  41.0   54 264 131   0
   2024 03 10 07:30  08 15 46.85    +27 07 49.6   265272 0.9944 129.8     16?  17.40  42.8   52 266 131   0
   2024 03 10 07:40  08 15 55.70    +27 09 58.0   265834 0.9944 129.8     16?  17.51  44.6   50 267 131   0
   2024 03 10 07:50  08 16 04.92    +27 12 03.4   266401 0.9944 129.8     16?  17.66  46.4   48 269 131   0
   2024 03 10 08:00  08 16 14.52    +27 14 06.0   266971 0.9944 129.8     16?  17.84  48.2   46 271 131   0
   2024 03 10 08:10  08 16 24.52    +27 16 05.8   267545 0.9944 129.8     16?  18.07  50.0   44 272 130   0
   2024 03 10 08:20  08 16 34.92    +27 18 03.0   268123 0.9944 129.8     16?  18.33  51.7   42 274 130   0
   2024 03 10 08:30  08 16 45.75    +27 19 57.6   268704 0.9944 129.9     16?  18.63  53.4   40 275 130   0
   2024 03 10 08:40  08 16 57.00    +27 21 50.0   269288 0.9944 129.9     16?  18.96  54.9   39 276 130   0
   2024 03 10 08:50  08 17 08.70    +27 23 40.1   269874 0.9944 129.9     16?  19.32  56.5   37 278 130   0
   2024 03 10 09:00  08 17 20.84    +27 25 28.0   270463 0.9944 129.9     16?  19.71  57.9   35 279 130   0
   2024 03 10 09:10  08 17 33.44    +27 27 14.1   271053 0.9945 130.0     16?  20.13  59.3   33 280 130   0
   2024 03 10 09:20  08 17 46.50    +27 28 58.3   271646 0.9945 130.0     16?  20.57  60.6   31 282 130   0
   2024 03 10 09:30  08 18 00.03    +27 30 40.8   272239 0.9945 130.0     16?  21.03  61.8   29 283 130   0
   2024 03 10 09:40  08 18 14.03    +27 32 21.7   272834 0.9945 130.0     16?  21.52  62.9   27 284 130   0
   2024 03 10 09:50  08 18 28.51    +27 34 01.2   273429 0.9945 130.1     16?  22.02  64.0   25 285 129   0
   2024 03 10 10:00  08 18 43.46    +27 35 39.5   274025 0.9945 130.1     16?  22.54  65.0   23 287 129   0
   2024 03 10 10:10  08 18 58.90    +27 37 16.6   274620 0.9945 130.2     16?  23.07  65.9   22 288 129   0
   2024 03 10 10:20  08 19 14.82    +27 38 52.8   275215 0.9945 130.2     16?  23.62  66.7   20 289 129   0
   2024 03 10 10:30  08 19 31.22    +27 40 28.1   275810 0.9945 130.2     16?  24.17  67.5   18 290 129   0
   2024 03 10 10:40  08 19 48.10    +27 42 02.7   276403 0.9945 130.3     16?  24.73  68.2   16 292 129   0
   2024 03 10 10:50  08 20 05.46    +27 43 36.7   276995 0.9945 130.3     16?  25.29  68.8   15 293 129   0
   2024 03 10 11:00  08 20 23.30    +27 45 10.3   277586 0.9945 130.4     16?  25.86  69.4   13 294 129   0
   2024 03 10 11:10  08 20 41.60    +27 46 43.6   278174 0.9945 130.4     16?  26.43  69.9   11 296 129   0
   2024 03 10 11:20  08 21 00.38    +27 48 16.8   278760 0.9945 130.5     16?  27.00  70.4    9 297 129   0
   2024 03 10 11:30  08 21 19.61    +27 49 49.9   279343 0.9945 130.5     16?  27.57  70.8    8 298 129   0
   2024 03 10 11:40  08 21 39.31    +27 51 23.2   279923 0.9945 130.6     16?  28.13  71.2    6 300 129   0
   2024 03 10 11:50  08 21 59.45    +27 52 56.6   280500 0.9945 130.6     16?  28.69  71.5    4 301 129   0
   2024 03 10 12:00  08 22 20.03    +27 54 30.5   281073 0.9945 130.7     16?  29.25  71.7    3 303 129   0
   2024 03 10 12:10  08 22 41.04    +27 56 04.8   281642 0.9945 130.7     16?  29.80  72.0    1 304 129   0
   2024 03 10 12:20  08 23 02.48    +27 57 39.8   282206 0.9945 130.8     16?  30.34  72.2    0 306 128   0
   ................
   2024 03 11 01:50  08 51 43.32    +31 40 23.1   305112 0.9949 134.3 Cm  16?  20.50  27.5   48  82 126   0
   2024 03 11 02:00  08 51 50.41    +31 43 25.5   305265 0.9949 134.3 Cm  16?  20.05  26.5   50  84 126   0
   2024 03 11 02:10  08 51 57.12    +31 46 25.3   305422 0.9949 134.3 Nm  16?  19.61  25.6   52  85 126   0
   2024 03 11 02:20  08 52 03.46    +31 49 22.5   305584 0.9949 134.3 Nm  16?  19.17  24.7   54  86 125   0
   2024 03 11 02:30  08 52 09.46    +31 52 17.0   305751 0.9949 134.2 N   16?  18.74  23.9   56  87 125   0
   2024 03 11 02:40  08 52 15.12    +31 55 08.6   305923 0.9949 134.2 A   16?  18.31  23.0   58  89 125   0
   2024 03 11 02:50  08 52 20.48    +31 57 57.2   306100 0.9949 134.2 A   16?  17.88  22.3   60  90 125   0
   2024 03 11 03:00  08 52 25.53    +32 00 42.8   306283 0.9949 134.2 A   16?  17.46  21.5   62  92 125   0
   2024 03 11 03:10  08 52 30.31    +32 03 25.3   306471 0.9949 134.2     16?  17.04  20.8   64  93 125   0
   2024 03 11 03:20  08 52 34.83    +32 06 04.6   306665 0.9949 134.2     16?  16.63  20.2   66  95 125   0
   2024 03 11 03:30  08 52 39.11    +32 08 40.6   306865 0.9949 134.2     16?  16.21  19.6   68  97 125   0
   2024 03 11 03:40  08 52 43.17    +32 11 13.2   307072 0.9949 134.1     16?  15.81  19.1   70  99 125   0
   2024 03 11 03:50  08 52 47.03    +32 13 42.4   307284 0.9949 134.1     16?  15.40  18.7   72 102 124   0
   2024 03 11 04:00  08 52 50.70    +32 16 08.2   307503 0.9949 134.1     16?  15.00  18.3   74 105 124   0
   2024 03 11 04:10  08 52 54.23    +32 18 30.4   307728 0.9949 134.1     16?  14.61  18.0   76 108 124   0
   2024 03 11 04:20  08 52 57.61    +32 20 49.0   307961 0.9949 134.1     16?  14.21  17.8   78 113 124   0
   2024 03 11 04:30  08 53 00.88    +32 23 04.1   308199 0.9949 134.1     16?  13.83  17.8   79 119 124   0
   2024 03 11 04:40  08 53 04.05    +32 25 15.5   308445 0.9949 134.0     16?  13.45  17.8   81 127 124   0
   2024 03 11 04:50  08 53 07.15    +32 27 23.2   308697 0.9949 134.0     16?  13.08  17.9   82 138 124   0
   2024 03 11 05:00  08 53 10.20    +32 29 27.3   308956 0.9949 134.0     16?  12.71  18.2   84 154 124   0
   2024 03 11 05:10  08 53 13.22    +32 31 27.7   309222 0.9949 134.0     16?  12.35  18.7   84 175 123   0
   2024 03 11 05:20  08 53 16.24    +32 33 24.4   309495 0.9949 134.0  t  16?  12.01  19.2   84 197 123   0
   2024 03 11 05:30  08 53 19.27    +32 35 17.4   309775 0.9949 134.0     16?  11.67  20.0   83 216 123   1
   2024 03 11 05:40  08 53 22.34    +32 37 06.7   310061 0.9949 134.0     16?  11.35  20.9   82 229 123   1
   2024 03 11 05:50  08 53 25.47    +32 38 52.4   310355 0.9950 134.0     16?  11.04  22.0   80 238 123   1
   2024 03 11 06:00  08 53 28.68    +32 40 34.4   310655 0.9950 133.9     16?  10.75  23.3   78 245 123   1
   2024 03 11 06:10  08 53 31.99    +32 42 12.9   310961 0.9950 133.9     16?  10.48  24.7   77 250 123   1
   2024 03 11 06:20  08 53 35.43    +32 43 47.7   311275 0.9950 133.9     16?  10.23  26.4   75 254 123   1
   2024 03 11 06:30  08 53 39.01    +32 45 19.1   311594 0.9950 133.9     16?  10.01  28.3   73 258 122   1
   2024 03 11 06:40  08 53 42.75    +32 46 47.0   311920 0.9950 133.9     16?   9.82  30.4   71 260 122   1
   2024 03 11 06:50  08 53 46.68    +32 48 11.5   312253 0.9950 133.9     16?   9.66  32.6   69 263 122   1
   2024 03 11 07:00  08 53 50.81    +32 49 32.6   312591 0.9950 133.9     16?   9.53  35.0   67 265 122   1
   2024 03 11 07:10  08 53 55.17    +32 50 50.5   312935 0.9950 133.9     16?   9.44  37.6   65 267 122   1
   2024 03 11 07:20  08 53 59.77    +32 52 05.2   313285 0.9950 133.9     16?   9.39  40.3   63 268 122   1
   2024 03 11 07:30  08 54 04.62    +32 53 16.8   313641 0.9950 133.9     16?   9.39  43.1   61 270 122   1
   2024 03 11 07:40  08 54 09.76    +32 54 25.3   314002 0.9950 133.9     16?   9.43  45.9   59 271 122   1
   2024 03 11 07:50  08 54 15.19    +32 55 30.9   314368 0.9950 133.9     16?   9.51  48.7   57 273 122   1
   2024 03 11 08:00  08 54 20.92    +32 56 33.6   314739 0.9950 133.9     16?   9.63  51.5   55 274 121   1
   2024 03 11 08:10  08 54 26.99    +32 57 33.7   315115 0.9950 133.9     16?   9.80  54.3   53 275 121   1
   2024 03 11 08:20  08 54 33.39    +32 58 31.1   315495 0.9950 133.9     16?  10.02  56.9   51 277 121   1
   2024 03 11 08:30  08 54 40.15    +32 59 26.0   315880 0.9950 133.9     16?  10.27  59.5   49 278 121   1
   2024 03 11 08:40  08 54 47.27    +33 00 18.4   316269 0.9950 133.9     16?  10.56  61.8   48 279 121   1
   2024 03 11 08:50  08 54 54.77    +33 01 08.6   316661 0.9950 133.9     16?  10.89  64.1   46 280 121   1
   2024 03 11 09:00  08 55 02.67    +33 01 56.6   317057 0.9950 133.9     16?  11.25  66.1   44 281 121   1
   2024 03 11 09:10  08 55 10.96    +33 02 42.6   317456 0.9950 133.9     16?  11.64  68.0   42 283 121   1
   2024 03 11 09:20  08 55 19.67    +33 03 26.7   317858 0.9950 133.9     16?  12.06  69.8   40 284 121   1
   2024 03 11 09:30  08 55 28.79    +33 04 09.0   318262 0.9950 134.0     16?  12.51  71.4   38 285 120   1
   2024 03 11 09:40  08 55 38.35    +33 04 49.7   318669 0.9950 134.0     16?  12.97  72.8   36 286 120   1
   2024 03 11 09:50  08 55 48.34    +33 05 28.8   319078 0.9950 134.0     16?  13.46  74.1   34 287 120   1
   2024 03 11 10:00  08 55 58.77    +33 06 06.6   319488 0.9950 134.0     16?  13.96  75.2   32 288 120   1
   2024 03 11 10:10  08 56 09.65    +33 06 43.1   319900 0.9950 134.0     16?  14.47  76.2   31 289 120   1
   2024 03 11 10:20  08 56 20.98    +33 07 18.6   320313 0.9950 134.1     16?  15.00  77.1   29 290 120   1
   2024 03 11 10:30  08 56 32.76    +33 07 53.0   320726 0.9951 134.1     16?  15.54  77.9   27 291 120   1
   2024 03 11 10:40  08 56 45.01    +33 08 26.7   321140 0.9951 134.1     16?  16.09  78.6   25 293 120   1
   2024 03 11 10:50  08 56 57.71    +33 08 59.7   321554 0.9951 134.1     16?  16.64  79.2   23 294 120   1
   2024 03 11 11:00  08 57 10.88    +33 09 32.1   321968 0.9951 134.2     16?  17.20  79.7   22 295 120   1
   2024 03 11 11:10  08 57 24.51    +33 10 04.1   322381 0.9951 134.2     16?  17.77  80.2   20 296 119   1
   2024 03 11 11:20  08 57 38.60    +33 10 35.9   322793 0.9951 134.2     16?  18.33  80.5   18 297 119   1
   2024 03 11 11:30  08 57 53.14    +33 11 07.5   323204 0.9951 134.2     16?  18.89  80.8   17 299 119   1
   2024 03 11 11:40  08 58 08.15    +33 11 39.2   323613 0.9951 134.3     16?  19.46  81.1   15 300 119   1
   2024 03 11 11:50  08 58 23.61    +33 12 11.0   324020 0.9951 134.3     16?  20.02  81.3   13 301 119   2
   2024 03 11 12:00  08 58 39.52    +33 12 43.1   324425 0.9951 134.3     16?  20.58  81.4   12 302 119   2
   2024 03 11 12:10  08 58 55.87    +33 13 15.7   324828 0.9951 134.4     16?  21.13  81.5   10 304 119   2
   2024 03 11 12:20  08 59 12.66    +33 13 48.7   325227 0.9951 134.4     16?  21.68  81.6    8 305 119   2
   2024 03 11 12:30  08 59 29.89    +33 14 22.5   325624 0.9951 134.5 A   16?  22.22  81.6    7 306 119   2
   2024 03 11 12:40  08 59 47.54    +33 14 57.1   326017 0.9951 134.5 A   16?  22.75  81.6    5 308 119   2
   2024 03 11 12:50  09 00 05.61    +33 15 32.5   326406 0.9951 134.5 A   16?  23.28  81.5    4 309 119   2
   2024 03 11 13:00  09 00 24.09    +33 16 09.1   326791 0.9951 134.6 N   16?  23.80  81.4    2 310 119   2
   2024 03 11 13:10  09 00 42.98    +33 16 46.8   327171 0.9951 134.6 N   16?  24.30  81.3    1 312 119   2
   2024 03 11 13:20  09 01 02.25    +33 17 25.8   327547 0.9951 134.7 N   16?  24.80  81.2    0 313 119   2
   ................
   2024 03 12 01:50  09 25 20.11    +35 47 48.1   336727 0.9953 136.7 Cm  17?  17.88  31.5   44  74 115   4
   2024 03 12 02:00  09 25 27.52    +35 50 20.5   336724 0.9953 136.7 Cm  17?  17.46  30.5   46  75 115   4
   2024 03 12 02:10  09 25 34.54    +35 52 50.8   336724 0.9953 136.6 Nm  17?  17.04  29.5   48  75 115   4
   2024 03 12 02:20  09 25 41.18    +35 55 19.0   336729 0.9954 136.6 Nm  17?  16.63  28.5   50  76 115   4
   2024 03 12 02:30  09 25 47.46    +35 57 44.9   336737 0.9954 136.6 Nm  17?  16.21  27.5   52  77 115   4
   2024 03 12 02:40  09 25 53.37    +36 00 08.4   336750 0.9954 136.6 Am  17?  15.80  26.5   54  78 115   4
   2024 03 12 02:50  09 25 58.95    +36 02 29.4   336767 0.9954 136.6 Am  17?  15.40  25.6   55  79 115   4
   2024 03 12 03:00  09 26 04.20    +36 04 47.9   336788 0.9954 136.6 Am  17?  14.99  24.7   57  80 115   4
   2024 03 12 03:10  09 26 09.14    +36 07 03.6   336815 0.9954 136.5  m  17?  14.59  23.8   59  81 115   4
   2024 03 12 03:20  09 26 13.78    +36 09 16.5   336847 0.9954 136.5  m  17?  14.19  23.0   61  82 115   4
   2024 03 12 03:30  09 26 18.15    +36 11 26.5   336884 0.9954 136.5  m  17?  13.79  22.2   63  83 114   4
   2024 03 12 03:40  09 26 22.25    +36 13 33.5   336927 0.9954 136.5  m  17?  13.39  21.4   65  84 114   4
   2024 03 12 03:50  09 26 26.11    +36 15 37.4   336975 0.9954 136.5     17?  13.00  20.7   67  85 114   4
   2024 03 12 04:00  09 26 29.74    +36 17 38.2   337029 0.9954 136.4     17?  12.61  20.1   69  86 114   4
   2024 03 12 04:10  09 26 33.17    +36 19 35.8   337090 0.9954 136.4     17?  12.22  19.6   71  87 114   4
   2024 03 12 04:20  09 26 36.41    +36 21 30.0   337156 0.9954 136.4     17?  11.84  19.1   73  88 114   4
   2024 03 12 04:30  09 26 39.48    +36 23 20.9   337228 0.9954 136.4     17?  11.45  18.8   75  90 114   4
   2024 03 12 04:40  09 26 42.40    +36 25 08.4   337307 0.9954 136.4     17?  11.08  18.5   77  91 114   4
   2024 03 12 04:50  09 26 45.19    +36 26 52.5   337392 0.9954 136.3     17?  10.70  18.4   79  93 114   4
   2024 03 12 05:00  09 26 47.87    +36 28 33.1   337484 0.9954 136.3     17?  10.33  18.4   81  96 113   4
   2024 03 12 05:10  09 26 50.47    +36 30 10.1   337582 0.9954 136.3     17?   9.97  18.5   83  99 113   4
   2024 03 12 05:20  09 26 53.00    +36 31 43.6   337687 0.9954 136.3     17?   9.61  18.8   85 105 113   4
   2024 03 12 05:30  09 26 55.49    +36 33 13.5   337798 0.9954 136.3     17?   9.26  19.2   87 117 113   4
   2024 03 12 05:40  09 26 57.95    +36 34 39.8   337916 0.9954 136.3     17?   8.91  19.9   88 163 113   4
   2024 03 12 05:50  09 27 00.41    +36 36 02.6   338041 0.9954 136.2  t  17?   8.58  20.7   87 233 113   4
   2024 03 12 06:00  09 27 02.88    +36 37 21.7   338172 0.9954 136.2     17?   8.26  21.8   86 252 113   4
   2024 03 12 06:10  09 27 05.40    +36 38 37.3   338310 0.9954 136.2     17?   7.95  23.2   84 260 113   4
   2024 03 12 06:20  09 27 07.97    +36 39 49.3   338455 0.9954 136.2     17?   7.66  24.8   82 264 113   5
   2024 03 12 06:30  09 27 10.63    +36 40 57.8   338606 0.9954 136.2     17?   7.39  26.7   80 266 112   5
   2024 03 12 06:40  09 27 13.39    +36 42 02.7   338763 0.9954 136.2     17?   7.14  28.9   78 268 112   5
   2024 03 12 06:50  09 27 16.27    +36 43 04.2   338927 0.9954 136.2     17?   6.92  31.4   76 270 112   5
   2024 03 12 07:00  09 27 19.30    +36 44 02.2   339097 0.9954 136.2     17?   6.73  34.3   74 271 112   5
   2024 03 12 07:10  09 27 22.49    +36 44 56.9   339273 0.9954 136.1     17?   6.58  37.4   72 273 112   5
   2024 03 12 07:20  09 27 25.86    +36 45 48.2   339456 0.9954 136.1     17?   6.47  40.8   70 274 112   5
   2024 03 12 07:30  09 27 29.43    +36 46 36.3   339644 0.9954 136.1     17?   6.40  44.4   68 275 112   5
   2024 03 12 07:40  09 27 33.22    +36 47 21.1   339838 0.9954 136.1     17?   6.38  48.1   66 276 112   5
   2024 03 12 07:50  09 27 37.25    +36 48 02.9   340037 0.9954 136.1     17?   6.41  52.0   64 277 111   5
   2024 03 12 08:00  09 27 41.54    +36 48 41.6   340242 0.9954 136.1     17?   6.49  55.8   62 278 111   5
   2024 03 12 08:10  09 27 46.10    +36 49 17.3   340452 0.9954 136.1     17?   6.62  59.5   60 279 111   5
   2024 03 12 08:20  09 27 50.95    +36 49 50.2   340667 0.9954 136.1     17?   6.80  63.1   58 280 111   5
   2024 03 12 08:30  09 27 56.11    +36 50 20.3   340887 0.9955 136.1     17?   7.02  66.4   56 281 111   5
   2024 03 12 08:40  09 28 01.58    +36 50 47.8   341112 0.9955 136.1     17?   7.29  69.6   54 282 111   5
   2024 03 12 08:50  09 28 07.40    +36 51 12.7   341341 0.9955 136.1     17?   7.59  72.4   53 283 111   5
   2024 03 12 09:00  09 28 13.56    +36 51 35.1   341574 0.9955 136.1     17?   7.93  75.0   51 284 111   5
   2024 03 12 09:10  09 28 20.08    +36 51 55.3   341811 0.9955 136.1     17?   8.31  77.3   49 285 111   5
   2024 03 12 09:20  09 28 26.98    +36 52 13.2   342052 0.9955 136.1     17?   8.71  79.3   47 286 111   5
   2024 03 12 09:30  09 28 34.27    +36 52 29.0   342296 0.9955 136.2     17?   9.14  81.1   45 287 110   5
   2024 03 12 09:40  09 28 41.95    +36 52 42.8   342543 0.9955 136.2     17?   9.59  82.7   43 287 110   6
   2024 03 12 09:50  09 28 50.04    +36 52 54.8   342793 0.9955 136.2     17?  10.06  84.1   41 288 110   6
   2024 03 12 10:00  09 28 58.55    +36 53 05.1   343046 0.9955 136.2     17?  10.55  85.2   39 289 110   6
   2024 03 12 10:10  09 29 07.49    +36 53 13.8   343301 0.9955 136.2     17?  11.05  86.2   38 290 110   6
   2024 03 12 10:20  09 29 16.85    +36 53 21.1   343558 0.9955 136.2     17?  11.56  87.1   36 291 110   6
   2024 03 12 10:30  09 29 26.66    +36 53 27.1   343816 0.9955 136.2     17?  12.09  87.8   34 292 110   6
   2024 03 12 10:40  09 29 36.91    +36 53 31.9   344076 0.9955 136.3     17?  12.62  88.4   32 293 110   6
   2024 03 12 10:50  09 29 47.61    +36 53 35.7   344337 0.9955 136.3     17?  13.16  88.9   30 294 110   6
   2024 03 12 11:00  09 29 58.77    +36 53 38.7   344599 0.9955 136.3     17?  13.70  89.3   29 295 110   6
   2024 03 12 11:10  09 30 10.38    +36 53 40.9   344861 0.9955 136.3     17?  14.25  89.6   27 296 109   6
   2024 03 12 11:20  09 30 22.46    +36 53 42.5   345123 0.9955 136.3     17?  14.81  89.8   25 297 109   6
   2024 03 12 11:30  09 30 34.99    +36 53 43.6   345385 0.9955 136.4     17?  15.36  89.9   23 298 109   6
   2024 03 12 11:40  09 30 47.99    +36 53 44.4   345647 0.9955 136.4     17?  15.91  90.0   22 300 109   6
   2024 03 12 11:50  09 31 01.45    +36 53 45.1   345907 0.9955 136.4     17?  16.47  90.1   20 301 109   6
   2024 03 12 12:00  09 31 15.37    +36 53 45.8   346167 0.9955 136.4     17?  17.02  90.0   18 302 109   6
   2024 03 12 12:10  09 31 29.75    +36 53 46.5   346425 0.9955 136.5     17?  17.57  90.0   17 303 109   6
   2024 03 12 12:20  09 31 44.58    +36 53 47.6   346681 0.9955 136.5     17?  18.11  89.9   15 304 109   6
   2024 03 12 12:30  09 31 59.87    +36 53 49.0   346936 0.9955 136.5 A   17?  18.65  89.7   14 305 109   6
   2024 03 12 12:40  09 32 15.61    +36 53 50.9   347187 0.9955 136.6 A   17?  19.19  89.6   12 307 109   6
   2024 03 12 12:50  09 32 31.79    +36 53 53.5   347436 0.9955 136.6 A   17?  19.72  89.4   11 308 109   7
   2024 03 12 13:00  09 32 48.41    +36 53 56.9   347682 0.9955 136.6 N   17?  20.24  89.1    9 309 109   7
   2024 03 12 13:10  09 33 05.46    +36 54 01.3   347925 0.9955 136.7 N   17?  20.75  88.9    8 310 109   7
   2024 03 12 13:20  09 33 22.93    +36 54 06.7   348164 0.9955 136.7 N   17?  21.26  88.6    6 312 108   7
   2024 03 12 13:30  09 33 40.83    +36 54 13.2   348400 0.9955 136.7 C   17?  21.76  88.3    5 313 108   7
   2024 03 12 13:40  09 33 59.12    +36 54 21.1   348631 0.9955 136.8 C   17?  22.24  88.0    3 314 108   7
   ................
   2024 03 13 01:50  09 58 04.49    +38 48 58.2   348160 0.9957 138.1 Cm  17?  17.62  37.7   40  67 105  10
   2024 03 13 02:00  09 58 13.46    +38 51 17.3   348018 0.9957 138.0 Cm  17?  17.20  36.7   41  68 105  10
   2024 03 13 02:10  09 58 22.00    +38 53 34.8   347879 0.9957 138.0 Nm  17?  16.78  35.7   43  69 105  10
   2024 03 13 02:20  09 58 30.14    +38 55 50.5   347742 0.9957 138.0 Nm  17?  16.35  34.7   45  69 105  10
   2024 03 13 02:30  09 58 37.88    +38 58 04.4   347608 0.9957 138.0 Nm  17?  15.93  33.7   47  70 105  10
   2024 03 13 02:40  09 58 45.23    +39 00 16.3   347478 0.9957 138.0 Am  17?  15.51  32.8   49  71 105  10
   2024 03 13 02:50  09 58 52.21    +39 02 26.0   347351 0.9957 137.9 Am  17?  15.09  31.8   51  72 105  10
   2024 03 13 03:00  09 58 58.81    +39 04 33.5   347228 0.9957 137.9 Am  17?  14.67  30.9   53  72 105  10
   2024 03 13 03:10  09 59 05.07    +39 06 38.5   347109 0.9957 137.9  m  17?  14.25  30.0   54  73 105  10
   2024 03 13 03:20  09 59 10.98    +39 08 41.1   346995 0.9957 137.9  m  17?  13.84  29.1   56  74 105  10
   2024 03 13 03:30  09 59 16.57    +39 10 41.0   346885 0.9957 137.9  m  17?  13.43  28.3   58  74 105  10
   2024 03 13 03:40  09 59 21.85    +39 12 38.2   346780 0.9957 137.8  m  17?  13.02  27.5   60  75 104  10
   2024 03 13 03:50  09 59 26.84    +39 14 32.5   346680 0.9957 137.8  m  17?  12.61  26.7   62  76 104  10
   2024 03 13 04:00  09 59 31.55    +39 16 23.9   346585 0.9957 137.8  m  17?  12.20  26.0   64  76 104  10
   2024 03 13 04:10  09 59 35.99    +39 18 12.3   346495 0.9957 137.8  m  17?  11.79  25.4   66  77 104  10
   2024 03 13 04:20  09 59 40.20    +39 19 57.6   346410 0.9957 137.7  m  17?  11.39  24.9   68  77 104  10
   2024 03 13 04:30  09 59 44.18    +39 21 39.7   346332 0.9957 137.7  m  17?  10.99  24.4   70  77 104  10
   2024 03 13 04:40  09 59 47.96    +39 23 18.5   346258 0.9957 137.7  m  17?  10.60  24.0   72  78 104  10
   2024 03 13 04:50  09 59 51.54    +39 24 53.9   346191 0.9957 137.7  m  17?  10.20  23.7   74  78 104  10
   2024 03 13 05:00  09 59 54.96    +39 26 25.9   346130 0.9957 137.7     17?   9.82  23.5   76  77 104  11
   2024 03 13 05:10  09 59 58.24    +39 27 54.5   346075 0.9957 137.6     17?   9.43  23.5   77  77 104  11
   2024 03 13 05:20  10 00 01.38    +39 29 19.5   346026 0.9957 137.6     17?   9.05  23.5   79  76 103  11
   2024 03 13 05:30  10 00 04.42    +39 30 41.0   345983 0.9957 137.6     17?   8.68  23.8   81  75 103  11
   2024 03 13 05:40  10 00 07.38    +39 31 58.8   345946 0.9957 137.6     17?   8.31  24.3   83  72 103  11
   2024 03 13 05:50  10 00 10.27    +39 33 13.1   345916 0.9957 137.6     17?   7.95  24.9   85  65 103  11
   2024 03 13 06:00  10 00 13.12    +39 34 23.7   345892 0.9958 137.6     17?   7.61  25.8   87  50 103  11
   2024 03 13 06:10  10 00 15.95    +39 35 30.6   345874 0.9958 137.5     17?   7.27  27.0   88   6 103  11
   2024 03 13 06:20  10 00 18.78    +39 36 33.8   345863 0.9958 137.5  t  17?   6.95  28.4   87 315 103  11
   2024 03 13 06:30  10 00 21.63    +39 37 33.3   345858 0.9958 137.5     17?   6.65  30.2   85 297 103  11
   2024 03 13 06:40  10 00 24.52    +39 38 29.2   345859 0.9958 137.5     17?   6.37  32.4   84 289 103  11
   2024 03 13 06:50  10 00 27.48    +39 39 21.4   345867 0.9958 137.5     17?   6.11  34.9   82 286 103  11
   2024 03 13 07:00  10 00 30.52    +39 40 10.0   345881 0.9958 137.5     17?   5.88  37.8   80 284 102  11
   2024 03 13 07:10  10 00 33.67    +39 40 55.0   345901 0.9958 137.5     17?   5.69  41.1   78 283 102  11
   2024 03 13 07:20  10 00 36.95    +39 41 36.4   345927 0.9958 137.5     17?   5.54  44.7   76 283 102  11
   2024 03 13 07:30  10 00 40.38    +39 42 14.2   345959 0.9958 137.5     17?   5.43  48.7   74 282 102  11
   2024 03 13 07:40  10 00 43.98    +39 42 48.6   345997 0.9958 137.5     17?   5.37  52.9   72 283 102  12
   2024 03 13 07:50  10 00 47.77    +39 43 19.5   346041 0.9958 137.4     17?   5.37  57.3   70 283 102  12
   2024 03 13 08:00  10 00 51.77    +39 43 47.1   346090 0.9958 137.4     17?   5.42  61.7   68 283 102  12
   2024 03 13 08:10  10 00 55.99    +39 44 11.4   346145 0.9958 137.4     17?   5.52  66.1   66 283 102  12
   2024 03 13 08:20  10 01 00.47    +39 44 32.5   346206 0.9958 137.4     17?   5.67  70.2   64 284 102  12
   2024 03 13 08:30  10 01 05.21    +39 44 50.4   346271 0.9958 137.4     17?   5.88  74.1   63 284 102  12
   2024 03 13 08:40  10 01 10.23    +39 45 05.3   346341 0.9958 137.4     17?   6.13  77.7   61 285 101  12
   2024 03 13 08:50  10 01 15.55    +39 45 17.2   346417 0.9958 137.4     17?   6.43  80.9   59 286 101  12
   2024 03 13 09:00  10 01 21.19    +39 45 26.2   346497 0.9958 137.4     17?   6.76  83.7   57 286 101  12
   2024 03 13 09:10  10 01 27.17    +39 45 32.6   346581 0.9958 137.4     17?   7.13  86.2   55 287 101  12
   2024 03 13 09:20  10 01 33.49    +39 45 36.2   346669 0.9958 137.5     17?   7.53  88.4   53 288 101  12
   2024 03 13 09:30  10 01 40.17    +39 45 37.4   346762 0.9958 137.5     17?   7.95  90.3   51 288 101  12
   2024 03 13 09:40  10 01 47.24    +39 45 36.1   346858 0.9958 137.5     17?   8.39  91.9   49 289 101  12
   2024 03 13 09:50  10 01 54.69    +39 45 32.5   346957 0.9958 137.5     17?   8.86  93.2   48 290 101  12
   2024 03 13 10:00  10 02 02.54    +39 45 26.8   347060 0.9958 137.5     17?   9.34  94.3   46 290 101  12
   2024 03 13 10:10  10 02 10.81    +39 45 19.0   347166 0.9958 137.5     17?   9.84  95.3   44 291 101  13
   2024 03 13 10:20  10 02 19.50    +39 45 09.3   347275 0.9958 137.5     17?  10.35  96.0   42 292 101  13
   2024 03 13 10:30  10 02 28.62    +39 44 57.9   347385 0.9958 137.5     17?  10.87  96.7   40 293 100  13
   2024 03 13 10:40  10 02 38.19    +39 44 44.8   347499 0.9958 137.5     17?  11.40  97.1   39 294 100  13
   2024 03 13 10:50  10 02 48.21    +39 44 30.3   347614 0.9958 137.6     17?  11.94  97.5   37 295 100  13
   2024 03 13 11:00  10 02 58.69    +39 44 14.4   347730 0.9958 137.6     17?  12.49  97.8   35 295 100  13
   2024 03 13 11:10  10 03 09.63    +39 43 57.3   347848 0.9958 137.6     17?  13.04  97.9   33 296 100  13
   2024 03 13 11:20  10 03 21.04    +39 43 39.1   347967 0.9958 137.6     17?  13.59  98.0   32 297 100  13
   2024 03 13 11:30  10 03 32.92    +39 43 20.1   348086 0.9958 137.6     17?  14.15  98.1   30 298 100  13
   2024 03 13 11:40  10 03 45.29    +39 43 00.3   348206 0.9958 137.7     17?  14.71  98.0   28 299 100  13
   2024 03 13 11:50  10 03 58.13    +39 42 39.9   348326 0.9958 137.7     17?  15.27  97.9   26 300 100  13
   2024 03 13 12:00  10 04 11.46    +39 42 19.0   348446 0.9958 137.7     17?  15.83  97.8   25 301 100  13
   2024 03 13 12:10  10 04 25.27    +39 41 57.8   348565 0.9958 137.7     17?  16.39  97.6   23 302 100  13
   2024 03 13 12:20  10 04 39.57    +39 41 36.5   348683 0.9958 137.8     17?  16.94  97.4   22 303 100  14
   2024 03 13 12:30  10 04 54.35    +39 41 15.2   348801 0.9958 137.8 A   17?  17.50  97.1   20 304  99  14
   2024 03 13 12:40  10 05 09.61    +39 40 53.9   348917 0.9958 137.8 A   17?  18.05  96.8   18 305  99  14
   2024 03 13 12:50  10 05 25.35    +39 40 33.0   349031 0.9958 137.8 A   17?  18.59  96.5   17 307  99  14
   2024 03 13 13:00  10 05 41.57    +39 40 12.5   349143 0.9958 137.9 N   17?  19.13  96.2   15 308  99  14
   2024 03 13 13:10  10 05 58.27    +39 39 52.6   349253 0.9958 137.9 N   17?  19.67  95.8   14 309  99  14
   2024 03 13 13:20  10 06 15.43    +39 39 33.4   349360 0.9958 137.9 N   17?  20.20  95.5   12 310  99  14
   2024 03 13 13:30  10 06 33.05    +39 39 15.0   349464 0.9958 138.0 C   17?  20.72  95.1   11 311  99  14
   2024 03 13 13:40  10 06 51.13    +39 38 57.6   349565 0.9958 138.0 C   17?  21.23  94.7    9 312  99  14
   ................
   2024 03 14 01:50  10 33 23.89    +41 08 06.0   340443 0.9959 138.8 Cm  17?  19.28  46.0   35  62  96  18
   2024 03 14 02:00  10 33 35.90    +41 10 19.7   340164 0.9959 138.8 Cm  17?  18.83  45.1   37  62  96  18
   2024 03 14 02:10  10 33 47.46    +41 12 32.3   339886 0.9959 138.8 Nm  17?  18.38  44.3   38  63  96  18
   2024 03 14 02:20  10 33 58.57    +41 14 43.5   339610 0.9960 138.7 Nm  17?  17.92  43.4   40  64  96  18
   2024 03 14 02:30  10 34 09.23    +41 16 53.2   339336 0.9960 138.7 Nm  17?  17.47  42.6   42  65  96  18
   2024 03 14 02:40  10 34 19.45    +41 19 01.3   339064 0.9960 138.7 Am  17?  17.01  41.7   44  65  96  18
   2024 03 14 02:50  10 34 29.25    +41 21 07.7   338795 0.9960 138.7 Am  17?  16.55  40.9   45  66  96  18
   2024 03 14 03:00  10 34 38.63    +41 23 12.1   338529 0.9960 138.6 Am  17?  16.10  40.1   47  67  96  18
   2024 03 14 03:10  10 34 47.61    +41 25 14.4   338266 0.9960 138.6  m  17?  15.64  39.3   49  67  96  18
   2024 03 14 03:20  10 34 56.18    +41 27 14.5   338006 0.9960 138.6  m  17?  15.18  38.6   51  68  96  18
   2024 03 14 03:30  10 35 04.38    +41 29 12.3   337750 0.9960 138.6  m  17?  14.73  37.8   53  68  96  18
   2024 03 14 03:40  10 35 12.20    +41 31 07.6   337498 0.9960 138.5  m  17?  14.28  37.2   55  69  96  18
   2024 03 14 03:50  10 35 19.67    +41 33 00.3   337249 0.9960 138.5  m  17?  13.82  36.5   56  69  96  18
   2024 03 14 04:00  10 35 26.79    +41 34 50.2   337005 0.9960 138.5  m  17?  13.37  35.9   58  70  96  19
   2024 03 14 04:10  10 35 33.59    +41 36 37.3   336765 0.9960 138.5  m  17?  12.93  35.4   60  70  96  19
   2024 03 14 04:20  10 35 40.07    +41 38 21.4   336530 0.9960 138.4  m  17?  12.48  34.9   62  70  95  19
   2024 03 14 04:30  10 35 46.26    +41 40 02.4   336300 0.9960 138.4  m  17?  12.04  34.5   64  70  95  19
   2024 03 14 04:40  10 35 52.18    +41 41 40.3   336074 0.9960 138.4  m  17?  11.60  34.2   66  71  95  19
   2024 03 14 04:50  10 35 57.84    +41 43 14.8   335854 0.9960 138.4  m  17?  11.17  33.9   68  71  95  19
   2024 03 14 05:00  10 36 03.26    +41 44 46.0   335639 0.9960 138.4  m  17?  10.74  33.8   69  70  95  19
   2024 03 14 05:10  10 36 08.45    +41 46 13.6   335429 0.9960 138.3  m  17?  10.32  33.8   71  70  95  19
   2024 03 14 05:20  10 36 13.45    +41 47 37.8   335225 0.9960 138.3  m  17?   9.90  33.9   73  69  95  19
   2024 03 14 05:30  10 36 18.27    +41 48 58.3   335027 0.9960 138.3  m  17?   9.49  34.2   75  68  95  19
   2024 03 14 05:40  10 36 22.94    +41 50 15.1   334834 0.9960 138.3  m  17?   9.09  34.7   77  66  95  19
   2024 03 14 05:50  10 36 27.46    +41 51 28.2   334647 0.9960 138.3  m  17?   8.70  35.3   79  64  95  19
   2024 03 14 06:00  10 36 31.87    +41 52 37.4   334465 0.9960 138.2  m  17?   8.32  36.2   80  60  95  19
   2024 03 14 06:10  10 36 36.19    +41 53 42.8   334290 0.9960 138.2  m  17?   7.95  37.3   82  55  95  19
   2024 03 14 06:20  10 36 40.44    +41 54 44.4   334121 0.9960 138.2     17?   7.60  38.6   83  46  95  19
   2024 03 14 06:30  10 36 44.63    +41 55 42.0   333957 0.9960 138.2     17?   7.27  40.3   85  31  94  19
   2024 03 14 06:40  10 36 48.81    +41 56 35.6   333800 0.9960 138.2     17?   6.96  42.3   85   9  94  20
   2024 03 14 06:50  10 36 52.98    +41 57 25.3   333648 0.9960 138.2  t  17?   6.68  44.7   85 343  94  20
   2024 03 14 07:00  10 36 57.17    +41 58 11.1   333503 0.9960 138.2     17?   6.43  47.4   84 323  94  20
   2024 03 14 07:10  10 37 01.41    +41 58 52.8   333363 0.9960 138.2     17?   6.22  50.4   83 311  94  20
   2024 03 14 07:20  10 37 05.71    +41 59 30.7   333230 0.9960 138.1     17?   6.04  53.8   81 303  94  20
   2024 03 14 07:30  10 37 10.11    +42 00 04.5   333102 0.9960 138.1     17?   5.91  57.6   80 298  94  20
   2024 03 14 07:40  10 37 14.62    +42 00 34.5   332981 0.9960 138.1     17?   5.83  61.5   78 295  94  20
   2024 03 14 07:50  10 37 19.26    +42 01 00.6   332865 0.9960 138.1     17?   5.81  65.6   76 293  94  20
   2024 03 14 08:00  10 37 24.06    +42 01 22.9   332754 0.9960 138.1     17?   5.84  69.8   74 291  94  20
   2024 03 14 08:10  10 37 29.04    +42 01 41.3   332650 0.9960 138.1     17?   5.92  73.9   73 290  94  20
   2024 03 14 08:20  10 37 34.22    +42 01 56.0   332550 0.9960 138.1     17?   6.06  77.9   71 290  93  20
   2024 03 14 08:30  10 37 39.62    +42 02 07.1   332456 0.9960 138.1     17?   6.25  81.7   69 289  93  20
   2024 03 14 08:40  10 37 45.27    +42 02 14.5   332368 0.9960 138.1     17?   6.49  85.2   67 289  93  20
   2024 03 14 08:50  10 37 51.18    +42 02 18.5   332284 0.9960 138.1     17?   6.78  88.3   65 289  93  21
   2024 03 14 09:00  10 37 57.38    +42 02 18.9   332205 0.9960 138.1     17?   7.10  91.2   63 289  93  21
   2024 03 14 09:10  10 38 03.89    +42 02 16.0   332132 0.9960 138.1     17?   7.47  93.7   61 290  93  21
   2024 03 14 09:20  10 38 10.71    +42 02 09.9   332062 0.9960 138.1     17?   7.86  95.8   60 290  93  21
   2024 03 14 09:30  10 38 17.88    +42 02 00.6   331997 0.9960 138.1     17?   8.29  97.7   58 290  93  21
   2024 03 14 09:40  10 38 25.40    +42 01 48.2   331936 0.9960 138.1     17?   8.74  99.3   56 291  93  21
   2024 03 14 09:50  10 38 33.30    +42 01 32.9   331880 0.9960 138.2     17?   9.21 100.6   54 291  93  21
   2024 03 14 10:00  10 38 41.60    +42 01 14.8   331827 0.9960 138.2     17?   9.70 101.7   52 292  93  21
   2024 03 14 10:10  10 38 50.30    +42 00 54.0   331777 0.9960 138.2     17?  10.21 102.6   50 292  93  21
   2024 03 14 10:20  10 38 59.42    +42 00 30.6   331731 0.9960 138.2     17?  10.73 103.4   49 293  92  21
   2024 03 14 10:30  10 39 08.98    +42 00 04.8   331688 0.9960 138.2     17?  11.27 103.9   47 293  92  21
   2024 03 14 10:40  10 39 18.99    +41 59 36.7   331648 0.9960 138.2     17?  11.82 104.4   45 294  92  21
   2024 03 14 10:50  10 39 29.46    +41 59 06.5   331610 0.9960 138.2     17?  12.37 104.7   43 295  92  22
   2024 03 14 11:00  10 39 40.40    +41 58 34.2   331575 0.9960 138.2     17?  12.94 105.0   42 295  92  22
   2024 03 14 11:10  10 39 51.82    +41 58 00.1   331542 0.9960 138.3     17?  13.51 105.1   40 296  92  22
   2024 03 14 11:20  10 40 03.73    +41 57 24.2   331510 0.9960 138.3     17?  14.09 105.2   38 297  92  22
   2024 03 14 11:30  10 40 16.15    +41 56 46.8   331480 0.9960 138.3     17?  14.68 105.1   36 298  92  22
   2024 03 14 11:40  10 40 29.07    +41 56 08.0   331451 0.9960 138.3     17?  15.27 105.1   35 299  92  22
   2024 03 14 11:50  10 40 42.51    +41 55 28.0   331423 0.9960 138.3     17?  15.86 104.9   33 299  92  22
   2024 03 14 12:00  10 40 56.47    +41 54 46.8   331396 0.9960 138.4     17?  16.45 104.7   31 300  92  22
   2024 03 14 12:10  10 41 10.96    +41 54 04.7   331370 0.9960 138.4     17?  17.04 104.5   30 301  92  22
   2024 03 14 12:20  10 41 25.97    +41 53 21.9   331343 0.9960 138.4 A   17?  17.64 104.2   28 302  92  22
   2024 03 14 12:30  10 41 41.52    +41 52 38.4   331316 0.9960 138.4 A   17?  18.23 103.9   26 303  92  22
   2024 03 14 12:40  10 41 57.60    +41 51 54.5   331289 0.9960 138.5 A   17?  18.83 103.6   25 304  91  23
   2024 03 14 12:50  10 42 14.22    +41 51 10.3   331261 0.9960 138.5 N   17?  19.42 103.2   23 305  91  23
   2024 03 14 13:00  10 42 31.37    +41 50 26.0   331231 0.9960 138.5 N   17?  20.00 102.9   22 306  91  23
   2024 03 14 13:10  10 42 49.06    +41 49 41.7   331201 0.9960 138.5 N   17?  20.59 102.5   20 307  91  23
   2024 03 14 13:20  10 43 07.28    +41 48 57.6   331169 0.9960 138.6 N   17?  21.17 102.0   19 308  91  23
   2024 03 14 13:30  10 43 26.03    +41 48 13.9   331134 0.9960 138.6 C   17?  21.74 101.6   17 309  91  23
   ................
   2024 03 15 01:50  11 15 32.20    +42 48 52.4   312806 0.9961 138.9 Cm  16?  23.78  57.0   29  56  90  28
   2024 03 15 02:00  11 15 50.02    +42 51 02.2   312378 0.9961 138.9 Cm  16?  23.28  56.3   31  57  90  28
   2024 03 15 02:10  11 16 07.33    +42 53 11.4   311951 0.9961 138.8 Nm  16?  22.78  55.7   32  58  90  28
   2024 03 15 02:20  11 16 24.14    +42 55 19.8   311524 0.9961 138.8 Nm  16?  22.27  55.1   34  59  90  28
   2024 03 15 02:30  11 16 40.45    +42 57 27.3   311099 0.9961 138.8 Nm  16?  21.76  54.4   36  60  90  28
   2024 03 15 02:40  11 16 56.27    +42 59 33.7   310674 0.9961 138.7 Am  16?  21.24  53.8   37  60  90  28
   2024 03 15 02:50  11 17 11.59    +43 01 38.7   310250 0.9961 138.7 Am  16?  20.72  53.3   39  61  89  28
   2024 03 15 03:00  11 17 26.43    +43 03 42.3   309828 0.9961 138.7 Am  16?  20.20  52.7   41  62  89  28
   2024 03 15 03:10  11 17 40.80    +43 05 44.3   309408 0.9961 138.7  m  16?  19.68  52.2   43  62  89  28
   2024 03 15 03:20  11 17 54.69    +43 07 44.5   308990 0.9961 138.6  m  16?  19.15  51.7   44  63  89  28
   2024 03 15 03:30  11 18 08.13    +43 09 42.7   308574 0.9961 138.6  m  16?  18.63  51.2   46  64  89  28
   2024 03 15 03:40  11 18 21.11    +43 11 38.7   308161 0.9961 138.6  m  16?  18.10  50.8   48  64  89  28
   2024 03 15 03:50  11 18 33.65    +43 13 32.5   307750 0.9961 138.5  m  16?  17.58  50.4   50  65  89  28
   2024 03 15 04:00  11 18 45.77    +43 15 23.7   307343 0.9961 138.5  m  16?  17.06  50.0   51  65  89  28
   2024 03 15 04:10  11 18 57.47    +43 17 12.4   306938 0.9961 138.5  m  16?  16.54  49.7   53  65  89  28
   2024 03 15 04:20  11 19 08.77    +43 18 58.3   306538 0.9961 138.4  m  16?  16.02  49.5   55  66  89  28
   2024 03 15 04:30  11 19 19.68    +43 20 41.2   306140 0.9961 138.4  m  16?  15.51  49.4   57  66  89  28
   2024 03 15 04:40  11 19 30.22    +43 22 21.1   305747 0.9961 138.4  m  16?  15.00  49.3   58  66  89  28
   2024 03 15 04:50  11 19 40.41    +43 23 57.8   305358 0.9961 138.4  m  16?  14.50  49.3   60  66  89  28
   2024 03 15 05:00  11 19 50.26    +43 25 31.1   304973 0.9961 138.3  m  16?  14.00  49.4   62  66  89  29
   2024 03 15 05:10  11 19 59.80    +43 27 00.9   304592 0.9961 138.3  m  16?  13.52  49.6   64  66  89  29
   2024 03 15 05:20  11 20 09.03    +43 28 27.2   304216 0.9961 138.3  m  16?  13.04  49.9   66  66  89  29
   2024 03 15 05:30  11 20 17.99    +43 29 49.7   303844 0.9961 138.3  m  16?  12.57  50.3   67  66  89  29
   2024 03 15 05:40  11 20 26.69    +43 31 08.4   303478 0.9961 138.3  m  16?  12.11  50.9   69  65  89  29
   2024 03 15 05:50  11 20 35.15    +43 32 23.2   303116 0.9961 138.2  m  16?  11.67  51.7   71  64  89  29
   2024 03 15 06:00  11 20 43.40    +43 33 33.9   302759 0.9961 138.2  m  16?  11.24  52.6   73  63  89  29
   2024 03 15 06:10  11 20 51.45    +43 34 40.6   302408 0.9961 138.2  m  16?  10.83  53.7   74  61  88  29
   2024 03 15 06:20  11 20 59.34    +43 35 43.0   302061 0.9961 138.2  m  16?  10.44  55.0   76  59  88  29
   2024 03 15 06:30  11 21 07.08    +43 36 41.1   301720 0.9961 138.2  m  16?  10.08  56.5   78  56  88  29
   2024 03 15 06:40  11 21 14.70    +43 37 35.0   301385 0.9961 138.1  m  16?   9.75  58.3   79  51  88  29
   2024 03 15 06:50  11 21 22.23    +43 38 24.4   301055 0.9961 138.1  m  16?   9.44  60.3   81  45  88  29
   2024 03 15 07:00  11 21 29.68    +43 39 09.3   300730 0.9961 138.1  m  16?   9.17  62.5   82  36  88  29
   2024 03 15 07:10  11 21 37.09    +43 39 49.8   300411 0.9961 138.1  m  16?   8.94  65.0   83  23  88  29
   2024 03 15 07:20  11 21 44.48    +43 40 25.8   300097 0.9961 138.1  m  16?   8.75  67.6   84   7  88  30
   2024 03 15 07:30  11 21 51.87    +43 40 57.2   299789 0.9961 138.1  t  16?   8.60  70.5   84 350  88  30
   2024 03 15 07:40  11 21 59.30    +43 41 24.0   299486 0.9961 138.1     16?   8.51  73.5   83 334  88  30
   2024 03 15 07:50  11 22 06.78    +43 41 46.3   299189 0.9961 138.1     16?   8.46  76.6   82 322  88  30
   2024 03 15 08:00  11 22 14.35    +43 42 04.0   298898 0.9961 138.1     16?   8.47  79.8   81 313  88  30
   2024 03 15 08:10  11 22 22.03    +43 42 17.1   298612 0.9961 138.1     16?   8.53  83.0   79 307  88  30
   2024 03 15 08:20  11 22 29.85    +43 42 25.7   298331 0.9961 138.1     16?   8.65  86.1   78 303  88  30
   2024 03 15 08:30  11 22 37.82    +43 42 29.8   298056 0.9961 138.1     16?   8.82  89.1   76 300  88  30
   2024 03 15 08:40  11 22 45.99    +43 42 29.5   297785 0.9961 138.1     16?   9.04  91.9   74 298  87  30
   2024 03 15 08:50  11 22 54.36    +43 42 24.7   297520 0.9961 138.1     16?   9.31  94.6   72 296  87  30
   2024 03 15 09:00  11 23 02.98    +43 42 15.5   297260 0.9961 138.1     16?   9.63  97.0   71 295  87  30
   2024 03 15 09:10  11 23 11.86    +43 42 02.0   297005 0.9961 138.1     16?   9.98  99.2   69 294  87  30
   2024 03 15 09:20  11 23 21.02    +43 41 44.4   296755 0.9961 138.1     16?  10.38 101.2   67 294  87  31
   2024 03 15 09:30  11 23 30.49    +43 41 22.5   296510 0.9961 138.1     16?  10.81 103.0   65 293  87  31
   2024 03 15 09:40  11 23 40.30    +43 40 56.6   296268 0.9961 138.1     16?  11.27 104.5   64 293  87  31
   2024 03 15 09:50  11 23 50.46    +43 40 26.7   296032 0.9961 138.1     16?  11.76 105.9   62 293  87  31
   2024 03 15 10:00  11 24 01.00    +43 39 52.9   295799 0.9961 138.1     16?  12.27 107.1   60 293  87  31
   2024 03 15 10:10  11 24 11.94    +43 39 15.4   295571 0.9961 138.1     16?  12.81 108.1   58 293  87  31
   2024 03 15 10:20  11 24 23.30    +43 38 34.2   295346 0.9961 138.1     16?  13.37 108.9   56 294  87  31
   2024 03 15 10:30  11 24 35.11    +43 37 49.5   295125 0.9961 138.1     16?  13.95 109.6   55 294  87  31
   2024 03 15 10:40  11 24 47.36    +43 37 01.4   294907 0.9961 138.2     16?  14.54 110.2   53 294  87  31
   2024 03 15 10:50  11 25 00.10    +43 36 10.1   294693 0.9961 138.2     16?  15.15 110.6   51 295  87  31
   2024 03 15 11:00  11 25 13.33    +43 35 15.6   294482 0.9961 138.2     16?  15.78 110.9   49 295  87  31
   2024 03 15 11:10  11 25 27.07    +43 34 18.2   294273 0.9961 138.2     16?  16.41 111.2   48 296  87  32
   2024 03 15 11:20  11 25 41.34    +43 33 17.9   294067 0.9961 138.2     16?  17.06 111.3   46 296  87  32
   2024 03 15 11:30  11 25 56.15    +43 32 14.9   293863 0.9961 138.2     16?  17.71 111.4   44 297  86  32
   2024 03 15 11:40  11 26 11.52    +43 31 09.5   293661 0.9961 138.3     16?  18.37 111.4   42 297  86  32
   2024 03 15 11:50  11 26 27.45    +43 30 01.7   293462 0.9961 138.3     16?  19.04 111.3   41 298  86  32
   2024 03 15 12:00  11 26 43.96    +43 28 51.7   293263 0.9961 138.3     16?  19.72 111.2   39 299  86  32
   2024 03 15 12:10  11 27 01.06    +43 27 39.6   293066 0.9961 138.3     16?  20.40 111.1   37 299  86  32
   2024 03 15 12:20  11 27 18.76    +43 26 25.8   292870 0.9961 138.3 A   16?  21.08 110.9   36 300  86  32
   2024 03 15 12:30  11 27 37.07    +43 25 10.3   292675 0.9961 138.4 A   16?  21.77 110.6   34 301  86  32
   2024 03 15 12:40  11 27 56.00    +43 23 53.2   292480 0.9961 138.4 A   16?  22.46 110.3   32 302  86  32
   2024 03 15 12:50  11 28 15.54    +43 22 34.9   292285 0.9961 138.4 N   16?  23.15 110.0   31 302  86  33
   2024 03 15 13:00  11 28 35.72    +43 21 15.4   292091 0.9961 138.4 N   16?  23.84 109.7   29 303  86  33
   2024 03 15 13:10  11 28 56.52    +43 19 55.0   291896 0.9961 138.5 N   16?  24.52 109.3   28 304  86  33
   2024 03 15 13:20  11 29 17.97    +43 18 33.8   291700 0.9961 138.5 C   16?  25.21 109.0   26 305  86  33
   2024 03 15 13:30  11 29 40.05    +43 17 12.0   291504 0.9961 138.5 C   16?  25.90 108.6   24 306  86  33
   ................
   2024 03 16 01:50  12 12 38.33    +43 24 48.9   262214 0.9961 137.8 Cm  16?  35.18  72.1   21  51  87  38
   2024 03 16 02:00  12 13 08.66    +43 26 37.7   261608 0.9961 137.7 Cm  16?  34.63  71.8   22  52  87  38
   2024 03 16 02:10  12 13 38.47    +43 28 26.7   261001 0.9961 137.7 Nm  16?  34.07  71.4   24  52  87  38
   2024 03 16 02:20  12 14 07.74    +43 30 15.9   260392 0.9961 137.6 Nm  16?  33.50  71.1   25  53  87  38
   2024 03 16 02:30  12 14 36.47    +43 32 04.9   259782 0.9961 137.6 Nm  16?  32.93  70.8   27  54  87  38
   2024 03 16 02:40  12 15 04.66    +43 33 53.6   259172 0.9961 137.5 Am  16?  32.34  70.5   29  55  87  38
   2024 03 16 02:50  12 15 32.31    +43 35 41.7   258560 0.9961 137.5 Am  16?  31.75  70.3   30  56  87  38
   2024 03 16 03:00  12 15 59.41    +43 37 29.2   257948 0.9961 137.4 Am  16?  31.15  70.0   32  57  87  38
   2024 03 16 03:10  12 16 25.97    +43 39 15.7   257336 0.9961 137.4 Am  16?  30.55  69.8   33  58  87  38
   2024 03 16 03:20  12 16 51.99    +43 41 01.0   256724 0.9961 137.4  m  16?  29.94  69.7   35  58  87  38
   2024 03 16 03:30  12 17 17.46    +43 42 45.0   256112 0.9961 137.3  m  16?  29.33  69.5   37  59  87  38
   2024 03 16 03:40  12 17 42.40    +43 44 27.5   255501 0.9961 137.3  m  16?  28.72  69.4   38  60  87  38
   2024 03 16 03:50  12 18 06.80    +43 46 08.2   254891 0.9961 137.2  m  16?  28.11  69.4   40  60  87  39
   2024 03 16 04:00  12 18 30.68    +43 47 46.9   254282 0.9961 137.2  m  16?  27.49  69.4   42  61  87  39
   2024 03 16 04:10  12 18 54.05    +43 49 23.4   253674 0.9961 137.1  m  16?  26.88  69.4   43  62  87  39
   2024 03 16 04:20  12 19 16.90    +43 50 57.5   253068 0.9961 137.1  m  16?  26.27  69.5   45  62  87  39
   2024 03 16 04:30  12 19 39.25    +43 52 29.0   252464 0.9961 137.0  m  16?  25.67  69.6   47  63  87  39
   2024 03 16 04:40  12 20 01.11    +43 53 57.6   251861 0.9961 137.0  m  16?  25.07  69.8   48  63  87  39
   2024 03 16 04:50  12 20 22.49    +43 55 23.3   251261 0.9961 137.0  m  16?  24.48  70.1   50  64  87  39
   2024 03 16 05:00  12 20 43.41    +43 56 45.8   250664 0.9961 136.9  m  16?  23.89  70.4   52  64  87  39
   2024 03 16 05:10  12 21 03.88    +43 58 04.8   250069 0.9961 136.9  m  16?  23.32  70.8   54  64  87  39
   2024 03 16 05:20  12 21 23.92    +43 59 20.3   249476 0.9960 136.9  m  16?  22.76  71.3   55  65  87  39
   2024 03 16 05:30  12 21 43.54    +44 00 31.9   248887 0.9960 136.8  m  16?  22.21  71.9   57  65  87  39
   2024 03 16 05:40  12 22 02.76    +44 01 39.6   248301 0.9960 136.8  m  16?  21.68  72.6   59  65  87  39
   2024 03 16 05:50  12 22 21.60    +44 02 43.1   247718 0.9960 136.8  m  16?  21.17  73.4   61  65  87  39
   2024 03 16 06:00  12 22 40.09    +44 03 42.3   247139 0.9960 136.7  m  16?  20.69  74.2   62  65  87  39
   2024 03 16 06:10  12 22 58.23    +44 04 37.0   246564 0.9960 136.7  m  16?  20.22  75.2   64  65  86  39
   2024 03 16 06:20  12 23 16.06    +44 05 27.1   245992 0.9960 136.7  m  16?  19.78  76.3   66  65  86  39
   2024 03 16 06:30  12 23 33.60    +44 06 12.3   245425 0.9960 136.6  m  16?  19.38  77.5   68  64  86  40
   2024 03 16 06:40  12 23 50.87    +44 06 52.6   244861 0.9960 136.6  m  16?  19.00  78.8   69  63  86  40
   2024 03 16 06:50  12 24 07.89    +44 07 27.8   244302 0.9960 136.6  m  16?  18.66  80.2   71  62  86  40
   2024 03 16 07:00  12 24 24.70    +44 07 57.7   243747 0.9960 136.6  m  16?  18.36  81.7   73  61  86  40
   2024 03 16 07:10  12 24 41.32    +44 08 22.3   243197 0.9960 136.5  m  16?  18.10  83.3   74  59  86  40
   2024 03 16 07:20  12 24 57.78    +44 08 41.4   242651 0.9960 136.5  m  16?  17.89  85.0   76  57  86  40
   2024 03 16 07:30  12 25 14.10    +44 08 55.0   242109 0.9960 136.5  m  16?  17.72  86.8   78  54  86  40
   2024 03 16 07:40  12 25 30.33    +44 09 02.9   241572 0.9960 136.5  m  16?  17.60  88.6   79  49  86  40
   2024 03 16 07:50  12 25 46.47    +44 09 05.0   241040 0.9960 136.5  m  16?  17.54  90.5   80  43  86  40
   2024 03 16 08:00  12 26 02.57    +44 09 01.2   240513 0.9960 136.5  m  16?  17.52  92.5   82  34  86  40
   2024 03 16 08:10  12 26 18.66    +44 08 51.6   239990 0.9960 136.5  m  16?  17.56  94.4   83  22  86  40
   2024 03 16 08:20  12 26 34.77    +44 08 36.0   239472 0.9960 136.4  m  16?  17.66  96.3   83   8  86  40
   2024 03 16 08:30  12 26 50.92    +44 08 14.4   238959 0.9960 136.4  t  16?  17.80  98.2   83 352  86  40
   2024 03 16 08:40  12 27 07.15    +44 07 46.7   238450 0.9960 136.4     16?  18.01 100.0   83 337  86  41
   2024 03 16 08:50  12 27 23.50    +44 07 12.9   237947 0.9960 136.4     16?  18.26 101.8   82 325  86  41
   2024 03 16 09:00  12 27 39.99    +44 06 33.1   237448 0.9960 136.4     16?  18.57 103.6   81 316  86  41
   2024 03 16 09:10  12 27 56.66    +44 05 47.1   236954 0.9960 136.4     16?  18.93 105.2   79 310  86  41
   2024 03 16 09:20  12 28 13.54    +44 04 55.0   236464 0.9960 136.4     16?  19.34 106.8   78 305  86  41
   2024 03 16 09:30  12 28 30.66    +44 03 56.9   235979 0.9960 136.4     16?  19.79 108.2   76 302  86  41
   2024 03 16 09:40  12 28 48.05    +44 02 52.7   235498 0.9960 136.4     16?  20.29 109.6   74 299  86  41
   2024 03 16 09:50  12 29 05.75    +44 01 42.4   235022 0.9960 136.4     16?  20.83 110.8   73 298  86  41
   2024 03 16 10:00  12 29 23.78    +44 00 26.1   234550 0.9960 136.4     16?  21.41 111.9   71 296  86  41
   2024 03 16 10:10  12 29 42.18    +43 59 04.0   234082 0.9960 136.4     16?  22.02 112.9   69 295  86  41
   2024 03 16 10:20  12 30 00.98    +43 57 35.9   233619 0.9960 136.4     16?  22.67 113.8   68 294  86  41
   2024 03 16 10:30  12 30 20.20    +43 56 02.1   233159 0.9960 136.4     16?  23.36 114.6   66 294  86  41
   2024 03 16 10:40  12 30 39.89    +43 54 22.6   232703 0.9960 136.5     16?  24.07 115.3   64 294  86  42
   2024 03 16 10:50  12 31 00.05    +43 52 37.4   232251 0.9960 136.5     16?  24.81 116.0   62 294  86  42
   2024 03 16 11:00  12 31 20.74    +43 50 46.8   231802 0.9960 136.5     16?  25.57 116.5   61 293  86  42
   2024 03 16 11:10  12 31 41.96    +43 48 50.7   231357 0.9960 136.5     16?  26.36 116.9   59 294  86  42
   2024 03 16 11:20  12 32 03.76    +43 46 49.4   230914 0.9960 136.5     16?  27.18 117.3   57 294  86  42
   2024 03 16 11:30  12 32 26.15    +43 44 42.9   230475 0.9960 136.5     16?  28.01 117.6   55 294  86  42
   2024 03 16 11:40  12 32 49.16    +43 42 31.4   230039 0.9960 136.5     16?  28.86 117.8   54 294  86  42
   2024 03 16 11:50  12 33 12.81    +43 40 15.1   229605 0.9960 136.5     16?  29.73 118.0   52 295  86  42
   2024 03 16 12:00  12 33 37.13    +43 37 54.0   229174 0.9960 136.5     16?  30.62 118.1   50 295  86  42
   2024 03 16 12:10  12 34 02.15    +43 35 28.4   228745 0.9960 136.6     16?  31.52 118.1   48 295  86  42
   2024 03 16 12:20  12 34 27.87    +43 32 58.3   228317 0.9960 136.6 A   16?  32.43 118.1   47 296  86  43
   2024 03 16 12:30  12 34 54.32    +43 30 24.0   227892 0.9960 136.6 A   16?  33.35 118.1   45 296  86  43
   2024 03 16 12:40  12 35 21.52    +43 27 45.7   227468 0.9960 136.6 A   16?  34.29 118.0   43 297  86  43
   2024 03 16 12:50  12 35 49.50    +43 25 03.5   227045 0.9960 136.6 N   16?  35.24 117.9   42 297  86  43
   2024 03 16 13:00  12 36 18.25    +43 22 17.5   226624 0.9960 136.6 N   16?  36.19 117.7   40 298  86  43
   2024 03 16 13:10  12 36 47.81    +43 19 28.1   226203 0.9960 136.7 N   16?  37.15 117.5   38 299  86  43
   2024 03 16 13:20  12 37 18.18    +43 16 35.4   225783 0.9960 136.7 C   16?  38.12 117.3   37 299  86  43
   2024 03 16 13:30  12 37 49.37    +43 13 39.5   225363 0.9960 136.7 C   16?  39.10 117.1   35 300  86  43
   ................
   2024 03 17 01:50  13 47 59.20    +40 10 13.4   180901 0.9959 132.5 Cm  15?  76.94  95.5    6  42  93  49
   2024 03 17 02:00  13 49 05.51    +40 09 00.5   180043 0.9959 132.4 Cm  15?  76.68  95.5    7  43  93  49
   2024 03 17 02:10  13 50 11.56    +40 07 47.6   179179 0.9958 132.2 Nm  15?  76.39  95.6    8  45  93  49
   2024 03 17 02:20  13 51 17.33    +40 06 34.4   178310 0.9958 132.1 Nm  15?  76.09  95.6    9  46  93  49
   2024 03 17 02:30  13 52 22.80    +40 05 20.8   177436 0.9958 132.0 Nm  15?  75.78  95.7   11  47  93  49
   2024 03 17 02:40  13 53 27.96    +40 04 06.4   176558 0.9958 131.8 Nm  15?  75.45  95.8   12  48  93  49
   2024 03 17 02:50  13 54 32.80    +40 02 51.0   175675 0.9958 131.7 Am  15?  75.11  95.9   13  49  93  49
   2024 03 17 03:00  13 55 37.30    +40 01 34.4   174789 0.9958 131.6 Am  15?  74.77  96.0   15  50  94  49
   2024 03 17 03:10  13 56 41.45    +40 00 16.3   173898 0.9958 131.5 Am  15?  74.41  96.2   16  51  94  49
   2024 03 17 03:20  13 57 45.25    +39 58 56.5   173004 0.9958 131.3  m  15?  74.05  96.4   17  52  94  49
   2024 03 17 03:30  13 58 48.68    +39 57 34.6   172106 0.9958 131.2  m  15?  73.68  96.6   19  53  94  49
   2024 03 17 03:40  13 59 51.74    +39 56 10.3   171204 0.9958 131.1  m  15?  73.31  96.8   20  54  94  49
   2024 03 17 03:50  14 00 54.42    +39 54 43.5   170300 0.9958 130.9  m  15?  72.93  97.1   22  55  94  49
   2024 03 17 04:00  14 01 56.71    +39 53 13.6   169393 0.9958 130.8  m  15?  72.56  97.3   23  56  94  49
   2024 03 17 04:10  14 02 58.61    +39 51 40.6   168483 0.9958 130.7  m  15?  72.18  97.7   25  57  94  49
   2024 03 17 04:20  14 04 00.11    +39 50 04.0   167570 0.9958 130.6  m  15?  71.81  98.0   26  58  95  49
   2024 03 17 04:30  14 05 01.21    +39 48 23.5   166656 0.9958 130.4  m  15?  71.45  98.4   28  59  95  49
   2024 03 17 04:40  14 06 01.91    +39 46 38.9   165739 0.9958 130.3  m  15?  71.10  98.8   29  60  95  49
   2024 03 17 04:50  14 07 02.22    +39 44 49.7   164821 0.9958 130.2  m  15?  70.75  99.2   31  61  95  49
   2024 03 17 05:00  14 08 02.12    +39 42 55.6   163901 0.9958 130.1  m  15?  70.42  99.7   32  62  95  49
   2024 03 17 05:10  14 09 01.63    +39 40 56.3   162980 0.9958 130.0  m  15?  70.10 100.1   34  63  95  50
   2024 03 17 05:20  14 10 00.75    +39 38 51.5   162057 0.9958 129.8  m  15?  69.81 100.6   35  64  95  50
   2024 03 17 05:30  14 10 59.48    +39 36 40.7   161134 0.9958 129.7  m  15?  69.53 101.2   37  65  95  50
   2024 03 17 05:40  14 11 57.83    +39 34 23.7   160209 0.9958 129.6  m  15?  69.28 101.8   39  66  96  50
   2024 03 17 05:50  14 12 55.81    +39 32 00.0   159285 0.9958 129.5  m  15?  69.05 102.4   40  66  96  50
   2024 03 17 06:00  14 13 53.43    +39 29 29.4   158360 0.9958 129.4  m  15?  68.86 103.1   42  67  96  50
   2024 03 17 06:10  14 14 50.70    +39 26 51.4   157434 0.9958 129.3  m  15?  68.70 103.7   44  68  96  50
   2024 03 17 06:20  14 15 47.63    +39 24 05.6   156509 0.9958 129.2  m  15?  68.57 104.5   45  69  96  50
   2024 03 17 06:30  14 16 44.24    +39 21 11.7   155584 0.9958 129.0  m  15?  68.48 105.2   47  70  96  50
   2024 03 17 06:40  14 17 40.55    +39 18 09.4   154659 0.9958 128.9  m  15?  68.44 106.0   49  70  96  50
   2024 03 17 06:50  14 18 36.57    +39 14 58.2   153735 0.9958 128.8  m  15?  68.44 106.8   50  71  96  50
   2024 03 17 07:00  14 19 32.31    +39 11 37.7   152812 0.9958 128.7  m  15?  68.49 107.6   52  72  97  50
   2024 03 17 07:10  14 20 27.81    +39 08 07.6   151890 0.9958 128.6  m  15?  68.59 108.4   54  73  97  50
   2024 03 17 07:20  14 21 23.09    +39 04 27.5   150968 0.9958 128.5  m  15?  68.75 109.3   55  74  97  50
   2024 03 17 07:30  14 22 18.16    +39 00 37.0   150048 0.9958 128.4  m  15?  68.96 110.1   57  74  97  50
   2024 03 17 07:40  14 23 13.06    +38 56 35.7   149130 0.9958 128.3  m  15?  69.24 111.0   59  75  97  50
   2024 03 17 07:50  14 24 07.81    +38 52 23.3   148212 0.9957 128.2  m  15?  69.58 111.9   61  76  97  51
   2024 03 17 08:00  14 25 02.43    +38 47 59.3   147297 0.9957 128.1  m  15?  69.98 112.8   62  77  97  51
   2024 03 17 08:10  14 25 56.97    +38 43 23.4   146383 0.9957 128.0  m  15?  70.46 113.8   64  77  97  51
   2024 03 17 08:20  14 26 51.45    +38 38 35.2   145471 0.9957 127.9  m  14?  71.00 114.7   66  78  98  51
   2024 03 17 08:30  14 27 45.91    +38 33 34.3   144561 0.9957 127.8  m  14?  71.62 115.6   68  79  98  51
   2024 03 17 08:40  14 28 40.38    +38 28 20.4   143654 0.9957 127.8  m  14?  72.31 116.5   69  80  98  51
   2024 03 17 08:50  14 29 34.90    +38 22 53.1   142748 0.9957 127.7  m  14?  73.08 117.4   71  81  98  51
   2024 03 17 09:00  14 30 29.50    +38 17 12.0   141845 0.9957 127.6  m  14?  73.93 118.3   73  81  98  51
   2024 03 17 09:10  14 31 24.22    +38 11 16.7   140944 0.9957 127.5  m  14?  74.85 119.1   75  82  98  51
   2024 03 17 09:20  14 32 19.11    +38 05 07.0   140045 0.9957 127.4  m  14?  75.86 120.0   76  83  98  51
   2024 03 17 09:30  14 33 14.21    +37 58 42.4   139149 0.9957 127.3  m  14?  76.95 120.8   78  84  99  51
   2024 03 17 09:40  14 34 09.56    +37 52 02.6   138256 0.9957 127.2     14?  78.12 121.6   80  86  99  51
   2024 03 17 09:50  14 35 05.20    +37 45 07.2   137365 0.9957 127.1     14?  79.37 122.4   82  87  99  51
   2024 03 17 10:00  14 36 01.18    +37 37 56.0   136477 0.9957 127.1     14?  80.70 123.2   84  89  99  52
   2024 03 17 10:10  14 36 57.54    +37 30 28.5   135591 0.9957 127.0     14?  82.12 123.9   85  93  99  52
   2024 03 17 10:20  14 37 54.34    +37 22 44.5   134708 0.9957 126.9     14?  83.62 124.6   87 100  99  52
   2024 03 17 10:30  14 38 51.62    +37 14 43.6   133828 0.9957 126.8     14?  85.20 125.3   89 138 100  52
   2024 03 17 10:40  14 39 49.43    +37 06 25.5   132951 0.9957 126.7  t  14?  86.87 125.9   88 240 100  52
   2024 03 17 10:50  14 40 47.82    +36 57 49.9   132076 0.9957 126.6     14?  88.61 126.5   86 255 100  52
   2024 03 17 11:00  14 41 46.84    +36 48 56.5   131204 0.9957 126.5     14?  90.44 127.1   85 259 100  52
   2024 03 17 11:10  14 42 46.54    +36 39 45.0   130334 0.9957 126.4     14?  92.35 127.6   83 262 100  52
   2024 03 17 11:20  14 43 46.98    +36 30 15.0   129467 0.9957 126.4     14?  94.35 128.1   81 264 100  52
   2024 03 17 11:30  14 44 48.20    +36 20 26.4   128603 0.9957 126.3     14?  96.42 128.5   79 265 101  52
   2024 03 17 11:40  14 45 50.26    +36 10 18.7   127742 0.9957 126.2     14?  98.58 129.0   77 266 101  52
   2024 03 17 11:50  14 46 53.22    +35 59 51.8   126882 0.9957 126.1     14? 100.81 129.4   75 267 101  53
   2024 03 17 12:00  14 47 57.12    +35 49 05.3   126025 0.9957 126.0     14? 103.12 129.7   74 268 101  53
   2024 03 17 12:10  14 49 02.01    +35 37 59.0   125171 0.9957 125.9     14? 105.52 130.1   72 269 101  53
   2024 03 17 12:20  14 50 07.96    +35 26 32.6   124319 0.9957 125.8 A   14? 107.99 130.4   70 270 102  53
   2024 03 17 12:30  14 51 15.02    +35 14 45.8   123469 0.9956 125.7 A   14? 110.55 130.6   68 271 102  53
   2024 03 17 12:40  14 52 23.24    +35 02 38.4   122620 0.9956 125.6 A   14? 113.18 130.9   66 271 102  53
   2024 03 17 12:50  14 53 32.67    +34 50 10.0   121774 0.9956 125.5 N   14? 115.89 131.1   65 272 102  53
   2024 03 17 13:00  14 54 43.37    +34 37 20.5   120930 0.9956 125.4 N   14? 118.68 131.3   63 273 103  53
   2024 03 17 13:10  14 55 55.39    +34 24 09.5   120088 0.9956 125.2 N   14? 121.55 131.5   61 273 103  53
   2024 03 17 13:20  14 57 08.78    +34 10 36.7   119247 0.9956 125.1 C   14? 124.50 131.6   59 274 103  53
   2024 03 17 13:30  14 58 23.60    +33 56 42.0   118407 0.9956 125.0 C   14? 127.52 131.7   57 275 103  54
   ................
   

Euclid (JPL-ID: -680)

   Date (UTC) HH:MM   RA              Dec         delta   r     elong SM  mag  '/hr    PA   alt  az moo ill
   ---- -- -- -----  -------------   -----------  ------ ------ ----- --  --- ------ ------ --- --- --- ---
   2024 03 04 01:40  09 09 59.87    +18 42 54.1   0.0103 1.0006 150.6 C   20?   0.89 155.7   31  89 124  45
   2024 03 04 01:50  09 10 00.09    +18 42 45.9   0.0103 1.0006 150.6 C   20?   0.87 163.2   33  91 124  45
   2024 03 04 02:00  09 10 00.23    +18 42 37.5   0.0103 1.0006 150.6 N   20?   0.86 170.7   35  93 124  45
   2024 03 04 02:10  09 10 00.29    +18 42 28.9   0.0103 1.0006 150.6 N   20?   0.87 178.0   37  94 124  45
   2024 03 04 02:20  09 10 00.27    +18 42 20.0   0.0103 1.0006 150.6 N   20?   0.90 184.8   39  96 125  45
   2024 03 04 02:30  09 10 00.18    +18 42 10.9   0.0103 1.0006 150.5 A   20?   0.94 191.0   41  98 125  45
   2024 03 04 02:40  09 10 00.02    +18 42 01.6   0.0103 1.0006 150.5 A   20?   0.99 196.3   43 100 125  45
   2024 03 04 02:50  09 09 59.80    +18 41 51.9   0.0103 1.0006 150.5 A   20?   1.05 200.9   45 101 125  44
   2024 03 04 03:00  09 09 59.50    +18 41 42.0   0.0103 1.0006 150.5     20?   1.11 204.8   47 103 125  44
   2024 03 04 03:10  09 09 59.14    +18 41 31.8   0.0103 1.0006 150.5     20?   1.17 208.1   49 106 125  44
   2024 03 04 03:20  09 09 58.73    +18 41 21.3   0.0103 1.0007 150.5     20?   1.24 210.8   50 108 125  44
   2024 03 04 03:30  09 09 58.25    +18 41 10.4   0.0103 1.0007 150.5     20?   1.31 213.0   52 110 125  44
   2024 03 04 03:40  09 09 57.72    +18 40 59.2   0.0103 1.0007 150.5     20?   1.38 214.8   54 113 125  44
   2024 03 04 03:50  09 09 57.14    +18 40 47.7   0.0103 1.0007 150.5     20?   1.45 216.3   56 115 126  44
   2024 03 04 04:00  09 09 56.51    +18 40 35.8   0.0103 1.0007 150.5     20?   1.52 217.5   58 118 126  44
   2024 03 04 04:10  09 09 55.84    +18 40 23.6   0.0103 1.0007 150.5     20?   1.59 218.4   59 122 126  44
   2024 03 04 04:20  09 09 55.13    +18 40 10.9   0.0103 1.0007 150.5     20?   1.65 219.1   61 125 126  44
   2024 03 04 04:30  09 09 54.38    +18 39 57.9   0.0103 1.0007 150.5     20?   1.71 219.6   63 129 126  44
   2024 03 04 04:40  09 09 53.60    +18 39 44.5   0.0103 1.0007 150.4     20?   1.77 219.9   64 133 126  43
   2024 03 04 04:50  09 09 52.79    +18 39 30.8   0.0103 1.0007 150.4     20?   1.83 220.1   65 138 126  43
   2024 03 04 05:00  09 09 51.95    +18 39 16.6   0.0103 1.0007 150.4     20?   1.88 220.1   67 143 126  43
   2024 03 04 05:10  09 09 51.09    +18 39 02.0   0.0103 1.0007 150.4     20?   1.93 219.9   68 149 127  43
   2024 03 04 05:20  09 09 50.21    +18 38 47.0   0.0103 1.0007 150.4     20?   1.97 219.7   69 155 127  43
   2024 03 04 05:30  09 09 49.32    +18 38 31.6   0.0103 1.0007 150.4     20?   2.02 219.3   69 161 127  43
   2024 03 04 05:40  09 09 48.42    +18 38 15.8   0.0103 1.0007 150.4     20?   2.06 218.8   70 168 127  43
   2024 03 04 05:50  09 09 47.51    +18 37 59.6   0.0103 1.0007 150.4     20?   2.09 218.3   70 175 127  43
   2024 03 04 06:00  09 09 46.60    +18 37 42.9   0.0103 1.0007 150.4  t  20?   2.12 217.6   70 182 127  43
   2024 03 04 06:10  09 09 45.69    +18 37 25.9   0.0103 1.0007 150.4     20?   2.15 216.8   70 190 127  43
   2024 03 04 06:20  09 09 44.78    +18 37 08.4   0.0103 1.0007 150.4     20?   2.18 215.9   70 196 127  43
   2024 03 04 06:30  09 09 43.89    +18 36 50.6   0.0103 1.0007 150.4     20?   2.20 215.0   69 203 127  42
   2024 03 04 06:40  09 09 43.01    +18 36 32.3   0.0103 1.0007 150.3     20?   2.22 213.9   68 209 128  42
   2024 03 04 06:50  09 09 42.15    +18 36 13.6   0.0103 1.0007 150.3     20?   2.24 212.7   67 215 128  42
   2024 03 04 07:00  09 09 41.31    +18 35 54.5   0.0103 1.0007 150.3     20?   2.26 211.5   66 220 128  42
   2024 03 04 07:10  09 09 40.49    +18 35 35.1   0.0103 1.0007 150.3     20?   2.27 210.1   64 225 128  42
   2024 03 04 07:20  09 09 39.71    +18 35 15.2   0.0103 1.0007 150.3     20?   2.28 208.7   63 229 128  42
   2024 03 04 07:30  09 09 38.96    +18 34 54.9   0.0103 1.0007 150.3     20?   2.30 207.1   61 233 128  42
   2024 03 04 07:40  09 09 38.24    +18 34 34.3   0.0103 1.0007 150.3     20?   2.30 205.5   60 237 128  42
   2024 03 04 07:50  09 09 37.56    +18 34 13.3   0.0103 1.0007 150.3     20?   2.31 203.8   58 240 128  42
   2024 03 04 08:00  09 09 36.93    +18 33 52.0   0.0103 1.0007 150.3     20?   2.32 202.0   56 243 128  42
   2024 03 04 08:10  09 09 36.35    +18 33 30.3   0.0103 1.0007 150.3     20?   2.33 200.1   54 246 128  42
   2024 03 04 08:20  09 09 35.81    +18 33 08.3   0.0103 1.0007 150.3     20?   2.33 198.1   53 248 129  42
   2024 03 04 08:30  09 09 35.33    +18 32 45.9   0.0103 1.0007 150.3     20?   2.34 196.0   51 251 129  41
   2024 03 04 08:40  09 09 34.91    +18 32 23.2   0.0103 1.0007 150.3     20?   2.35 193.8   49 253 129  41
   2024 03 04 08:50  09 09 34.55    +18 32 00.2   0.0103 1.0007 150.2     20?   2.36 191.6   47 255 129  41
   2024 03 04 09:00  09 09 34.25    +18 31 37.0   0.0103 1.0007 150.2     20?   2.37 189.3   45 257 129  41
   2024 03 04 09:10  09 09 34.01    +18 31 13.4   0.0103 1.0007 150.2     20?   2.39 186.9   43 259 129  41
   2024 03 04 09:20  09 09 33.85    +18 30 49.6   0.0103 1.0007 150.2     20?   2.40 184.5   41 261 129  41
   2024 03 04 09:30  09 09 33.75    +18 30 25.5   0.0103 1.0007 150.2     20?   2.42 182.0   39 262 129  41
   2024 03 04 09:40  09 09 33.73    +18 30 01.2   0.0103 1.0007 150.2     20?   2.44 179.5   37 264 129  41
   2024 03 04 09:50  09 09 33.79    +18 29 36.7   0.0103 1.0007 150.2  m  20?   2.47 177.0   35 266 129  41
   2024 03 04 10:00  09 09 33.92    +18 29 11.9   0.0103 1.0007 150.2  m  20?   2.50 174.4   33 267 129  41
   2024 03 04 10:10  09 09 34.13    +18 28 47.0   0.0103 1.0007 150.2  m  20?   2.53 171.9   31 269 129  41
   2024 03 04 10:20  09 09 34.42    +18 28 21.9   0.0103 1.0007 150.2  m  20?   2.56 169.4   29 271 129  41
   2024 03 04 10:30  09 09 34.80    +18 27 56.6   0.0103 1.0007 150.2  m  20?   2.60 166.8   27 272 130  41
   2024 03 04 10:40  09 09 35.26    +18 27 31.2   0.0103 1.0007 150.2  m  20?   2.65 164.3   25 273 130  41
   2024 03 04 10:50  09 09 35.81    +18 27 05.7   0.0103 1.0007 150.2  m  20?   2.69 161.9   23 275 130  41
   2024 03 04 11:00  09 09 36.44    +18 26 40.1   0.0103 1.0007 150.2  m  20?   2.74 159.5   21 276 130  41
   2024 03 04 11:10  09 09 37.16    +18 26 14.3   0.0103 1.0007 150.2  m  20?   2.80 157.1   19 278 130  40
   2024 03 04 11:20  09 09 37.97    +18 25 48.5   0.0103 1.0007 150.2  m  20?   2.86 154.8   17 279 130  40
   2024 03 04 11:30  09 09 38.87    +18 25 22.7   0.0103 1.0007 150.2  m  20?   2.92 152.6   15 281 130  40
   2024 03 04 11:40  09 09 39.86    +18 24 56.8   0.0103 1.0007 150.2  m  20?   2.98 150.4   13 282 130  40
   2024 03 04 11:50  09 09 40.94    +18 24 30.9   0.0103 1.0007 150.2  m  20?   3.05 148.3   12 283 130  40
   2024 03 04 12:00  09 09 42.11    +18 24 05.0   0.0103 1.0007 150.2  m  20?   3.12 146.3   10 285 130  40
   2024 03 04 12:10  09 09 43.38    +18 23 39.1   0.0103 1.0007 150.2  m  20?   3.19 144.4    8 286 130  40
   2024 03 04 12:20  09 09 44.73    +18 23 13.2   0.0103 1.0007 150.2  m  20?   3.26 142.5    6 288 130  40
   2024 03 04 12:30  09 09 46.17    +18 22 47.4   0.0103 1.0007 150.2  m  20?   3.34 140.7    4 289 130  40
   2024 03 04 12:40  09 09 47.70    +18 22 21.6   0.0103 1.0007 150.2 Am  20?   3.41 139.0    2 291 130  40
   2024 03 04 12:50  09 09 49.32    +18 21 55.9   0.0103 1.0007 150.2 Am  20?   3.49 137.3    0 292 130  40
   ................
   2024 03 05 01:40  09 12 48.62    +18 02 46.5   0.0103 1.0008 150.4 C   20?   0.96 155.9   31  90 136  35
   2024 03 05 01:50  09 12 48.86    +18 02 37.7   0.0103 1.0008 150.4 C   20?   0.94 162.7   33  92 136  35
   2024 03 05 02:00  09 12 49.01    +18 02 28.6   0.0103 1.0008 150.4 N   20?   0.93 169.7   35  93 136  35
   2024 03 05 02:10  09 12 49.09    +18 02 19.4   0.0103 1.0008 150.4 N   20?   0.94 176.5   37  95 137  35
   2024 03 05 02:20  09 12 49.09    +18 02 09.9   0.0103 1.0008 150.4 N   20?   0.96 182.9   39  97 137  34
   2024 03 05 02:30  09 12 49.02    +18 02 00.1   0.0103 1.0008 150.4 A   20?   1.00 188.8   41  99 137  34
   2024 03 05 02:40  09 12 48.88    +18 01 50.2   0.0103 1.0008 150.4 A   20?   1.04 194.0   43 100 137  34
   2024 03 05 02:50  09 12 48.67    +18 01 39.9   0.0103 1.0008 150.4 A   20?   1.10 198.5   45 102 137  34
   2024 03 05 03:00  09 12 48.40    +18 01 29.4   0.0103 1.0008 150.4     20?   1.15 202.4   46 104 137  34
   2024 03 05 03:10  09 12 48.06    +18 01 18.5   0.0103 1.0008 150.4     20?   1.22 205.6   48 107 137  34
   2024 03 05 03:20  09 12 47.66    +18 01 07.4   0.0103 1.0008 150.4     20?   1.28 208.4   50 109 137  34
   2024 03 05 03:30  09 12 47.21    +18 00 56.0   0.0103 1.0008 150.4     20?   1.35 210.7   52 111 138  34
   2024 03 05 03:40  09 12 46.70    +18 00 44.2   0.0103 1.0008 150.4     20?   1.42 212.6   54 114 138  34
   2024 03 05 03:50  09 12 46.14    +18 00 32.1   0.0103 1.0008 150.4     20?   1.48 214.2   56 117 138  34
   2024 03 05 04:00  09 12 45.53    +18 00 19.6   0.0103 1.0009 150.3     20?   1.55 215.4   57 120 138  33
   2024 03 05 04:10  09 12 44.88    +18 00 06.8   0.0103 1.0009 150.3     20?   1.61 216.4   59 123 138  33
   2024 03 05 04:20  09 12 44.19    +17 59 53.7   0.0103 1.0009 150.3     20?   1.68 217.2   61 127 138  33
   2024 03 05 04:30  09 12 43.46    +17 59 40.1   0.0103 1.0009 150.3     20?   1.74 217.8   62 130 138  33
   2024 03 05 04:40  09 12 42.70    +17 59 26.2   0.0103 1.0009 150.3     20?   1.79 218.1   64 135 138  33
   2024 03 05 04:50  09 12 41.91    +17 59 11.9   0.0103 1.0009 150.3     20?   1.85 218.4   65 139 139  33
   2024 03 05 05:00  09 12 41.10    +17 58 57.2   0.0103 1.0009 150.3     20?   1.90 218.4   66 144 139  33
   2024 03 05 05:10  09 12 40.26    +17 58 42.1   0.0103 1.0009 150.3     20?   1.95 218.4   67 150 139  33
   2024 03 05 05:20  09 12 39.41    +17 58 26.7   0.0103 1.0009 150.3     20?   1.99 218.2   68 156 139  33
   2024 03 05 05:30  09 12 38.54    +17 58 10.8   0.0103 1.0009 150.3     20?   2.03 217.8   69 162 139  33
   2024 03 05 05:40  09 12 37.66    +17 57 54.5   0.0103 1.0009 150.3     20?   2.07 217.4   69 169 139  33
   2024 03 05 05:50  09 12 36.78    +17 57 37.9   0.0103 1.0009 150.3     20?   2.11 216.9   70 176 139  32
   2024 03 05 06:00  09 12 35.90    +17 57 20.8   0.0103 1.0009 150.2  t  20?   2.14 216.2   70 183 139  32
   2024 03 05 06:10  09 12 35.01    +17 57 03.3   0.0103 1.0009 150.2     20?   2.17 215.4   69 190 140  32
   2024 03 05 06:20  09 12 34.14    +17 56 45.4   0.0103 1.0009 150.2     20?   2.19 214.6   69 197 140  32
   2024 03 05 06:30  09 12 33.27    +17 56 27.2   0.0103 1.0009 150.2     20?   2.22 213.6   68 203 140  32
   2024 03 05 06:40  09 12 32.42    +17 56 08.5   0.0103 1.0009 150.2     20?   2.24 212.6   67 209 140  32
   2024 03 05 06:50  09 12 31.59    +17 55 49.5   0.0103 1.0009 150.2     20?   2.26 211.4   66 215 140  32
   2024 03 05 07:00  09 12 30.77    +17 55 30.0   0.0103 1.0009 150.2     20?   2.27 210.2   65 220 140  32
   2024 03 05 07:10  09 12 29.99    +17 55 10.2   0.0103 1.0009 150.2     20?   2.28 208.9   64 224 140  32
   2024 03 05 07:20  09 12 29.23    +17 54 50.0   0.0103 1.0009 150.2     20?   2.30 207.4   62 229 140  32
   2024 03 05 07:30  09 12 28.51    +17 54 29.4   0.0103 1.0009 150.2     20?   2.31 205.9   61 232 140  32
   2024 03 05 07:40  09 12 27.82    +17 54 08.5   0.0103 1.0009 150.2     20?   2.32 204.3   59 236 141  31
   2024 03 05 07:50  09 12 27.18    +17 53 47.2   0.0103 1.0009 150.2     20?   2.32 202.6   57 239 141  31
   2024 03 05 08:00  09 12 26.58    +17 53 25.6   0.0103 1.0009 150.1     20?   2.33 200.7   56 242 141  31
   2024 03 05 08:10  09 12 26.03    +17 53 03.6   0.0103 1.0009 150.1     20?   2.34 198.8   54 245 141  31
   2024 03 05 08:20  09 12 25.52    +17 52 41.3   0.0103 1.0009 150.1     20?   2.35 196.8   52 248 141  31
   2024 03 05 08:30  09 12 25.08    +17 52 18.7   0.0103 1.0009 150.1     20?   2.35 194.8   50 250 141  31
   2024 03 05 08:40  09 12 24.69    +17 51 55.7   0.0103 1.0009 150.1     20?   2.36 192.6   48 252 141  31
   2024 03 05 08:50  09 12 24.36    +17 51 32.5   0.0103 1.0009 150.1     20?   2.37 190.4   46 254 141  31
   2024 03 05 09:00  09 12 24.09    +17 51 09.0   0.0103 1.0009 150.1     20?   2.39 188.1   44 256 141  31
   2024 03 05 09:10  09 12 23.89    +17 50 45.3   0.0103 1.0009 150.1     20?   2.40 185.7   42 258 141  31
   2024 03 05 09:20  09 12 23.76    +17 50 21.2   0.0103 1.0009 150.1     20?   2.42 183.3   40 260 142  31
   2024 03 05 09:30  09 12 23.70    +17 49 57.0   0.0103 1.0009 150.1     20?   2.44 180.8   39 262 142  31
   2024 03 05 09:40  09 12 23.72    +17 49 32.5   0.0103 1.0009 150.1     20?   2.46 178.3   37 264 142  31
   2024 03 05 09:50  09 12 23.81    +17 49 07.8   0.0103 1.0009 150.1     20?   2.49 175.8   35 265 142  31
   2024 03 05 10:00  09 12 23.98    +17 48 42.9   0.0103 1.0009 150.1     20?   2.52 173.3   33 267 142  30
   2024 03 05 10:10  09 12 24.23    +17 48 17.8   0.0103 1.0009 150.1     20?   2.55 170.7   31 268 142  30
   2024 03 05 10:20  09 12 24.56    +17 47 52.5   0.0103 1.0009 150.1     20?   2.59 168.2   29 270 142  30
   2024 03 05 10:30  09 12 24.97    +17 47 27.1   0.0103 1.0009 150.1     20?   2.63 165.7   27 272 142  30
   2024 03 05 10:40  09 12 25.47    +17 47 01.6   0.0103 1.0009 150.1     20?   2.68 163.2   25 273 142  30
   2024 03 05 10:50  09 12 26.05    +17 46 35.9   0.0103 1.0009 150.1  m  20?   2.72 160.8   23 274 142  30
   2024 03 05 11:00  09 12 26.73    +17 46 10.1   0.0103 1.0009 150.1  m  20?   2.78 158.4   21 276 142  30
   2024 03 05 11:10  09 12 27.49    +17 45 44.3   0.0103 1.0009 150.1  m  20?   2.83 156.1   19 277 142  30
   2024 03 05 11:20  09 12 28.34    +17 45 18.3   0.0103 1.0009 150.1  m  20?   2.89 153.8   17 279 142  30
   2024 03 05 11:30  09 12 29.28    +17 44 52.4   0.0103 1.0009 150.1  m  20?   2.96 151.6   15 280 143  30
   2024 03 05 11:40  09 12 30.31    +17 44 26.4   0.0103 1.0009 150.1  m  20?   3.02 149.5   13 282 143  30
   2024 03 05 11:50  09 12 31.43    +17 44 00.3   0.0103 1.0009 150.1  m  20?   3.09 147.4   11 283 143  30
   2024 03 05 12:00  09 12 32.64    +17 43 34.3   0.0103 1.0009 150.1  m  20?   3.16 145.4    9 284 143  30
   2024 03 05 12:10  09 12 33.94    +17 43 08.3   0.0103 1.0009 150.1  m  20?   3.23 143.5    7 286 143  30
   2024 03 05 12:20  09 12 35.33    +17 42 42.3   0.0103 1.0009 150.1  m  20?   3.31 141.7    5 287 143  30
   2024 03 05 12:30  09 12 36.81    +17 42 16.4   0.0103 1.0009 150.1  m  20?   3.39 139.9    3 289 143  30
   2024 03 05 12:40  09 12 38.39    +17 41 50.5   0.0103 1.0009 150.1 Am  20?   3.46 138.2    1 290 143  30
   2024 03 05 12:50  09 12 40.05    +17 41 24.7   0.0103 1.0009 150.1 Am  20?   3.54 136.6    0 292 143  30
   ................
   2024 03 06 01:40  09 15 41.75    +17 21 42.4   0.0102 1.0010 150.3 C   20?   1.04 155.8   31  91 149  25
   2024 03 06 01:50  09 15 42.01    +17 21 32.8   0.0102 1.0010 150.3 C   20?   1.01 162.1   33  93 149  25
   2024 03 06 02:00  09 15 42.19    +17 21 23.1   0.0102 1.0010 150.3 N   20?   1.00 168.6   35  94 149  25
   2024 03 06 02:10  09 15 42.29    +17 21 13.2   0.0102 1.0010 150.3 N   20?   1.01 175.0   37  96 149  25
   2024 03 06 02:20  09 15 42.31    +17 21 03.1   0.0102 1.0010 150.3 N   20?   1.03 181.0   38  98 149  24
   2024 03 06 02:30  09 15 42.26    +17 20 52.7   0.0102 1.0010 150.3 A   20?   1.06 186.6   40 100 149  24
   2024 03 06 02:40  09 15 42.14    +17 20 42.0   0.0102 1.0010 150.3 A   20?   1.10 191.6   42 101 150  24
   2024 03 06 02:50  09 15 41.96    +17 20 31.2   0.0102 1.0010 150.3 A   20?   1.15 196.0   44 103 150  24
   2024 03 06 03:00  09 15 41.70    +17 20 20.0   0.0102 1.0010 150.3 A   20?   1.20 199.9   46 105 150  24
   2024 03 06 03:10  09 15 41.39    +17 20 08.5   0.0102 1.0010 150.3     20?   1.26 203.2   48 108 150  24
   2024 03 06 03:20  09 15 41.01    +17 19 56.8   0.0102 1.0010 150.3     20?   1.32 206.0   50 110 150  24
   2024 03 06 03:30  09 15 40.58    +17 19 44.7   0.0102 1.0010 150.3     20?   1.39 208.3   52 112 150  24
   2024 03 06 03:40  09 15 40.10    +17 19 32.4   0.0102 1.0010 150.2     20?   1.45 210.3   54 115 150  24
   2024 03 06 03:50  09 15 39.56    +17 19 19.7   0.0102 1.0010 150.2     20?   1.52 212.0   55 118 151  24
   2024 03 06 04:00  09 15 38.98    +17 19 06.6   0.0102 1.0010 150.2     20?   1.58 213.3   57 121 151  23
   2024 03 06 04:10  09 15 38.35    +17 18 53.3   0.0102 1.0011 150.2     20?   1.64 214.4   59 124 151  23
   2024 03 06 04:20  09 15 37.69    +17 18 39.5   0.0102 1.0011 150.2     20?   1.70 215.2   60 128 151  23
   2024 03 06 04:30  09 15 36.98    +17 18 25.4   0.0102 1.0011 150.2     20?   1.76 215.9   62 132 151  23
   2024 03 06 04:40  09 15 36.25    +17 18 11.0   0.0102 1.0011 150.2     20?   1.82 216.3   63 136 151  23
   2024 03 06 04:50  09 15 35.48    +17 17 56.2   0.0102 1.0011 150.2     20?   1.87 216.6   65 141 151  23
   2024 03 06 05:00  09 15 34.70    +17 17 41.0   0.0102 1.0011 150.2     20?   1.92 216.7   66 146 151  23
   2024 03 06 05:10  09 15 33.89    +17 17 25.4   0.0102 1.0011 150.2     20?   1.97 216.7   67 151 152  23
   2024 03 06 05:20  09 15 33.06    +17 17 09.4   0.0102 1.0011 150.2     20?   2.01 216.5   68 157 152  23
   2024 03 06 05:30  09 15 32.22    +17 16 53.1   0.0102 1.0011 150.2     20?   2.05 216.3   68 164 152  23
   2024 03 06 05:40  09 15 31.37    +17 16 36.3   0.0102 1.0011 150.1     20?   2.09 215.9   69 170 152  23
   2024 03 06 05:50  09 15 30.51    +17 16 19.2   0.0102 1.0011 150.1     20?   2.12 215.4   69 177 152  23
   2024 03 06 06:00  09 15 29.66    +17 16 01.7   0.0102 1.0011 150.1  t  20?   2.15 214.7   69 184 152  22
   2024 03 06 06:10  09 15 28.80    +17 15 43.8   0.0102 1.0011 150.1     20?   2.18 214.0   69 190 152  22
   2024 03 06 06:20  09 15 27.96    +17 15 25.5   0.0102 1.0011 150.1     20?   2.21 213.2   68 197 152  22
   2024 03 06 06:30  09 15 27.12    +17 15 06.8   0.0102 1.0011 150.1     20?   2.23 212.3   67 203 153  22
   2024 03 06 06:40  09 15 26.30    +17 14 47.8   0.0102 1.0011 150.1     20?   2.25 211.2   67 209 153  22
   2024 03 06 06:50  09 15 25.50    +17 14 28.4   0.0102 1.0011 150.1     20?   2.27 210.1   65 214 153  22
   2024 03 06 07:00  09 15 24.71    +17 14 08.6   0.0102 1.0011 150.1     20?   2.28 208.9   64 219 153  22
   2024 03 06 07:10  09 15 23.96    +17 13 48.4   0.0102 1.0011 150.1     20?   2.30 207.5   63 224 153  22
   2024 03 06 07:20  09 15 23.24    +17 13 27.8   0.0102 1.0011 150.1     20?   2.31 206.1   61 228 153  22
   2024 03 06 07:30  09 15 22.55    +17 13 06.9   0.0102 1.0011 150.1     20?   2.32 204.6   60 232 153  22
   2024 03 06 07:40  09 15 21.89    +17 12 45.7   0.0102 1.0011 150.0     20?   2.33 203.0   58 235 153  22
   2024 03 06 07:50  09 15 21.28    +17 12 24.1   0.0102 1.0011 150.0     20?   2.33 201.3   57 239 153  22
   2024 03 06 08:00  09 15 20.72    +17 12 02.2   0.0102 1.0011 150.0     20?   2.34 199.4   55 242 154  21
   2024 03 06 08:10  09 15 20.20    +17 11 39.9   0.0102 1.0011 150.0     20?   2.35 197.5   53 244 154  21
   2024 03 06 08:20  09 15 19.73    +17 11 17.4   0.0102 1.0011 150.0     20?   2.36 195.5   51 247 154  21
   2024 03 06 08:30  09 15 19.32    +17 10 54.5   0.0102 1.0011 150.0     20?   2.37 193.5   49 249 154  21
   2024 03 06 08:40  09 15 18.97    +17 10 31.3   0.0102 1.0011 150.0     20?   2.38 191.3   48 252 154  21
   2024 03 06 08:50  09 15 18.67    +17 10 07.9   0.0102 1.0011 150.0     20?   2.39 189.1   46 254 154  21
   2024 03 06 09:00  09 15 18.44    +17 09 44.2   0.0102 1.0011 150.0     20?   2.40 186.8   44 256 154  21
   2024 03 06 09:10  09 15 18.28    +17 09 20.2   0.0102 1.0011 150.0     20?   2.42 184.4   42 258 154  21
   2024 03 06 09:20  09 15 18.19    +17 08 56.0   0.0102 1.0011 150.0     20?   2.44 182.0   40 260 154  21
   2024 03 06 09:30  09 15 18.17    +17 08 31.5   0.0102 1.0011 150.0     20?   2.46 179.5   38 261 154  21
   2024 03 06 09:40  09 15 18.22    +17 08 06.8   0.0102 1.0011 150.0     20?   2.48 177.0   36 263 155  21
   2024 03 06 09:50  09 15 18.35    +17 07 41.9   0.0102 1.0011 150.0     20?   2.51 174.5   34 265 155  21
   2024 03 06 10:00  09 15 18.56    +17 07 16.9   0.0102 1.0011 150.0     20?   2.54 172.0   32 266 155  21
   2024 03 06 10:10  09 15 18.84    +17 06 51.6   0.0102 1.0011 150.0     20?   2.58 169.5   30 268 155  21
   2024 03 06 10:20  09 15 19.21    +17 06 26.2   0.0102 1.0011 150.0     20?   2.62 167.0   28 270 155  20
   2024 03 06 10:30  09 15 19.67    +17 06 00.6   0.0102 1.0011 150.0     20?   2.66 164.5   26 271 155  20
   2024 03 06 10:40  09 15 20.21    +17 05 34.9   0.0102 1.0011 150.0     20?   2.71 162.1   24 273 155  20
   2024 03 06 10:50  09 15 20.83    +17 05 09.1   0.0102 1.0011 150.0     20?   2.76 159.7   22 274 155  20
   2024 03 06 11:00  09 15 21.55    +17 04 43.2   0.0102 1.0011 149.9     20?   2.81 157.3   20 275 155  20
   2024 03 06 11:10  09 15 22.35    +17 04 17.3   0.0102 1.0011 149.9     20?   2.87 155.0   18 277 155  20
   2024 03 06 11:20  09 15 23.24    +17 03 51.2   0.0102 1.0011 149.9     20?   2.93 152.8   16 278 155  20
   2024 03 06 11:30  09 15 24.22    +17 03 25.1   0.0102 1.0011 149.9     20?   3.00 150.6   14 280 155  20
   2024 03 06 11:40  09 15 25.30    +17 02 59.0   0.0102 1.0011 149.9     20?   3.07 148.5   12 281 156  20
   2024 03 06 11:50  09 15 26.46    +17 02 32.9   0.0102 1.0011 149.9  m  20?   3.14 146.5   10 283 156  20
   2024 03 06 12:00  09 15 27.71    +17 02 06.7   0.0102 1.0011 149.9  m  20?   3.21 144.6    8 284 156  20
   2024 03 06 12:10  09 15 29.06    +17 01 40.6   0.0102 1.0011 149.9  m  20?   3.28 142.7    6 286 156  20
   2024 03 06 12:20  09 15 30.49    +17 01 14.5   0.0102 1.0011 149.9  m  20?   3.36 140.9    5 287 156  20
   2024 03 06 12:30  09 15 32.02    +17 00 48.5   0.0102 1.0011 149.9  m  20?   3.44 139.2    3 288 156  20
   2024 03 06 12:40  09 15 33.63    +17 00 22.5   0.0102 1.0011 149.9 Am  20?   3.52 137.5    1 290 156  20
   2024 03 06 12:50  09 15 35.33    +16 59 56.6   0.0102 1.0011 150.0 Am  20?   3.60 135.9    0 292 156  20
   ................
   2024 03 07 01:50  09 18 40.00    +16 39 29.7   0.0102 1.0012 150.2 C   20?   1.09 161.4   32  94 162  16
   2024 03 07 02:00  09 18 40.20    +16 39 19.3   0.0102 1.0012 150.2 C   20?   1.08 167.4   34  95 162  15
   2024 03 07 02:10  09 18 40.33    +16 39 08.7   0.0102 1.0012 150.2 N   20?   1.08 173.3   36  97 162  15
   2024 03 07 02:20  09 18 40.38    +16 38 57.8   0.0102 1.0012 150.2 N   20?   1.09 179.0   38  99 162  15
   2024 03 07 02:30  09 18 40.36    +16 38 46.8   0.0102 1.0012 150.2 N   20?   1.12 184.3   40 101 162  15
   2024 03 07 02:40  09 18 40.26    +16 38 35.5   0.0102 1.0012 150.2 A   20?   1.16 189.2   42 102 163  15
   2024 03 07 02:50  09 18 40.10    +16 38 23.9   0.0102 1.0012 150.2 A   20?   1.20 193.5   44 104 163  15
   2024 03 07 03:00  09 18 39.88    +16 38 12.1   0.0102 1.0012 150.2 A   20?   1.25 197.3   46 107 163  15
   2024 03 07 03:10  09 18 39.59    +16 38 00.0   0.0102 1.0012 150.2     20?   1.31 200.6   48 109 163  15
   2024 03 07 03:20  09 18 39.24    +16 37 47.6   0.0102 1.0012 150.2     20?   1.37 203.4   50 111 163  15
   2024 03 07 03:30  09 18 38.83    +16 37 35.0   0.0102 1.0012 150.2     20?   1.43 205.9   52 114 163  15
   2024 03 07 03:40  09 18 38.38    +16 37 22.0   0.0102 1.0012 150.1     20?   1.49 207.9   53 116 163  15
   2024 03 07 03:50  09 18 37.87    +16 37 08.7   0.0102 1.0012 150.1     20?   1.55 209.6   55 119 163  15
   2024 03 07 04:00  09 18 37.31    +16 36 55.0   0.0102 1.0013 150.1     20?   1.61 211.1   57 122 164  15
   2024 03 07 04:10  09 18 36.71    +16 36 41.1   0.0102 1.0013 150.1     20?   1.67 212.2   58 126 164  14
   2024 03 07 04:20  09 18 36.08    +16 36 26.8   0.0101 1.0013 150.1     20?   1.73 213.1   60 129 164  14
   2024 03 07 04:30  09 18 35.40    +16 36 12.1   0.0101 1.0013 150.1     20?   1.78 213.8   61 133 164  14
   2024 03 07 04:40  09 18 34.70    +16 35 57.1   0.0101 1.0013 150.1     20?   1.84 214.4   63 137 164  14
   2024 03 07 04:50  09 18 33.96    +16 35 41.8   0.0101 1.0013 150.1     20?   1.89 214.7   64 142 164  14
   2024 03 07 05:00  09 18 33.20    +16 35 26.0   0.0101 1.0013 150.1     20?   1.94 214.9   65 147 164  14
   2024 03 07 05:10  09 18 32.42    +16 35 09.9   0.0101 1.0013 150.1     20?   1.98 214.9   66 153 164  14
   2024 03 07 05:20  09 18 31.63    +16 34 53.5   0.0101 1.0013 150.1     20?   2.03 214.8   67 158 165  14
   2024 03 07 05:30  09 18 30.82    +16 34 36.6   0.0101 1.0013 150.1     20?   2.07 214.6   68 165 165  14
   2024 03 07 05:40  09 18 30.00    +16 34 19.4   0.0101 1.0013 150.1     20?   2.10 214.2   68 171 165  14
   2024 03 07 05:50  09 18 29.17    +16 34 01.8   0.0101 1.0013 150.0     20?   2.14 213.8   68 178 165  14
   2024 03 07 06:00  09 18 28.35    +16 33 43.9   0.0101 1.0013 150.0  t  20?   2.17 213.2   68 184 165  14
   2024 03 07 06:10  09 18 27.53    +16 33 25.6   0.0101 1.0013 150.0     20?   2.19 212.5   68 191 165  14
   2024 03 07 06:20  09 18 26.71    +16 33 06.8   0.0101 1.0013 150.0     20?   2.22 211.7   67 197 165  13
   2024 03 07 06:30  09 18 25.91    +16 32 47.8   0.0101 1.0013 150.0     20?   2.24 210.8   67 203 165  13
   2024 03 07 06:40  09 18 25.12    +16 32 28.3   0.0101 1.0013 150.0     20?   2.26 209.8   66 209 166  13
   2024 03 07 06:50  09 18 24.35    +16 32 08.5   0.0101 1.0013 150.0     20?   2.28 208.6   65 214 166  13
   2024 03 07 07:00  09 18 23.61    +16 31 48.3   0.0101 1.0013 150.0     20?   2.29 207.4   64 219 166  13
   2024 03 07 07:10  09 18 22.89    +16 31 27.8   0.0101 1.0013 150.0     20?   2.31 206.1   62 223 166  13
   2024 03 07 07:20  09 18 22.20    +16 31 06.9   0.0101 1.0013 150.0     20?   2.32 204.7   61 228 166  13
   2024 03 07 07:30  09 18 21.54    +16 30 45.7   0.0101 1.0013 150.0     20?   2.33 203.2   59 231 166  13
   2024 03 07 07:40  09 18 20.93    +16 30 24.1   0.0101 1.0013 150.0     20?   2.34 201.6   58 235 166  13
   2024 03 07 07:50  09 18 20.35    +16 30 02.2   0.0101 1.0013 149.9     20?   2.34 199.9   56 238 166  13
   2024 03 07 08:00  09 18 19.82    +16 29 40.0   0.0101 1.0013 149.9     20?   2.35 198.0   54 241 166  13
   2024 03 07 08:10  09 18 19.34    +16 29 17.5   0.0101 1.0013 149.9     20?   2.36 196.1   52 244 167  13
   2024 03 07 08:20  09 18 18.92    +16 28 54.6   0.0101 1.0013 149.9     20?   2.37 194.2   51 246 167  13
   2024 03 07 08:30  09 18 18.54    +16 28 31.5   0.0101 1.0013 149.9     20?   2.38 192.1   49 249 167  13
   2024 03 07 08:40  09 18 18.23    +16 28 08.1   0.0101 1.0013 149.9     20?   2.39 189.9   47 251 167  12
   2024 03 07 08:50  09 18 17.97    +16 27 44.4   0.0101 1.0013 149.9     20?   2.40 187.7   45 253 167  12
   2024 03 07 09:00  09 18 17.78    +16 27 20.5   0.0101 1.0013 149.9     20?   2.42 185.4   43 255 167  12
   2024 03 07 09:10  09 18 17.66    +16 26 56.3   0.0101 1.0013 149.9     20?   2.43 183.0   41 257 167  12
   2024 03 07 09:20  09 18 17.61    +16 26 31.9   0.0101 1.0013 149.9     20?   2.45 180.6   39 259 167  12
   2024 03 07 09:30  09 18 17.63    +16 26 07.2   0.0101 1.0013 149.9     20?   2.48 178.2   37 261 167  12
   2024 03 07 09:40  09 18 17.72    +16 25 42.3   0.0101 1.0013 149.9     20?   2.50 175.7   35 263 167  12
   2024 03 07 09:50  09 18 17.89    +16 25 17.3   0.0101 1.0013 149.9     20?   2.53 173.2   33 264 167  12
   2024 03 07 10:00  09 18 18.14    +16 24 52.0   0.0102 1.0013 149.9     20?   2.57 170.7   31 266 168  12
   2024 03 07 10:10  09 18 18.47    +16 24 26.6   0.0102 1.0013 149.9     20?   2.60 168.2   29 267 168  12
   2024 03 07 10:20  09 18 18.89    +16 24 01.0   0.0102 1.0013 149.9     20?   2.65 165.7   27 269 168  12
   2024 03 07 10:30  09 18 19.38    +16 23 35.3   0.0102 1.0013 149.9     20?   2.69 163.3   25 271 168  12
   2024 03 07 10:40  09 18 19.97    +16 23 09.5   0.0102 1.0013 149.9     20?   2.74 160.9   23 272 168  12
   2024 03 07 10:50  09 18 20.64    +16 22 43.6   0.0102 1.0013 149.9     20?   2.79 158.5   21 274 168  12
   2024 03 07 11:00  09 18 21.39    +16 22 17.6   0.0102 1.0013 149.9     20?   2.85 156.2   19 275 168  12
   2024 03 07 11:10  09 18 22.24    +16 21 51.5   0.0102 1.0013 149.9     20?   2.91 153.9   18 276 168  12
   2024 03 07 11:20  09 18 23.18    +16 21 25.3   0.0102 1.0013 149.9     20?   2.98 151.7   16 278 168  12
   2024 03 07 11:30  09 18 24.20    +16 20 59.1   0.0102 1.0013 149.9     20?   3.04 149.6   14 279 168  12
   2024 03 07 11:40  09 18 25.32    +16 20 32.8   0.0102 1.0013 149.9     20?   3.11 147.5   12 281 168  11
   2024 03 07 11:50  09 18 26.53    +16 20 06.6   0.0102 1.0013 149.9     20?   3.19 145.5   10 282 168  11
   2024 03 07 12:00  09 18 27.83    +16 19 40.3   0.0102 1.0013 149.9     20?   3.26 143.6    8 284 169  11
   2024 03 07 12:10  09 18 29.22    +16 19 14.1   0.0102 1.0013 149.9     20?   3.34 141.8    6 285 169  11
   2024 03 07 12:20  09 18 30.70    +16 18 47.9   0.0102 1.0013 149.9     20?   3.42 140.0    4 287 169  11
   2024 03 07 12:30  09 18 32.27    +16 18 21.8   0.0102 1.0013 149.9 Am  20?   3.50 138.3    2 288 169  11
   2024 03 07 12:40  09 18 33.93    +16 17 55.7   0.0102 1.0013 149.9 Am  20?   3.58 136.7    0 290 169  11
   ................
   2024 03 08 01:50  09 21 43.38    +15 56 25.9   0.0101 1.0014 150.1 C   20?   1.17 160.4   32  94 174   8
   2024 03 08 02:00  09 21 43.61    +15 56 14.8   0.0101 1.0014 150.1 C   20?   1.16 166.0   34  96 174   8
   2024 03 08 02:10  09 21 43.77    +15 56 03.4   0.0101 1.0014 150.1 N   20?   1.15 171.5   36  98 174   8
   2024 03 08 02:20  09 21 43.85    +15 55 51.9   0.0101 1.0014 150.1 N   20?   1.17 176.9   38 100 174   8
   2024 03 08 02:30  09 21 43.86    +15 55 40.2   0.0101 1.0014 150.1 N   20?   1.19 182.0   40 101 174   8
   2024 03 08 02:40  09 21 43.80    +15 55 28.2   0.0101 1.0014 150.1 A   20?   1.22 186.6   42 103 174   8
   2024 03 08 02:50  09 21 43.67    +15 55 16.0   0.0101 1.0014 150.1 A   20?   1.26 190.8   44 105 174   8
   2024 03 08 03:00  09 21 43.47    +15 55 03.5   0.0101 1.0014 150.1 A   20?   1.30 194.6   46 108 175   7
   2024 03 08 03:10  09 21 43.21    +15 54 50.7   0.0101 1.0014 150.1     20?   1.35 197.9   48 110 175   7
   2024 03 08 03:20  09 21 42.90    +15 54 37.7   0.0101 1.0014 150.1     20?   1.41 200.8   49 112 175   7
   2024 03 08 03:30  09 21 42.52    +15 54 24.3   0.0101 1.0015 150.1     20?   1.47 203.3   51 115 175   7
   2024 03 08 03:40  09 21 42.10    +15 54 10.7   0.0101 1.0015 150.1     20?   1.52 205.4   53 117 175   7
   2024 03 08 03:50  09 21 41.62    +15 53 56.8   0.0101 1.0015 150.1     20?   1.58 207.2   55 120 175   7
   2024 03 08 04:00  09 21 41.10    +15 53 42.6   0.0101 1.0015 150.1     20?   1.64 208.7   56 123 175   7
   2024 03 08 04:10  09 21 40.53    +15 53 28.0   0.0101 1.0015 150.1     20?   1.70 209.9   58 127 175   7
   2024 03 08 04:20  09 21 39.92    +15 53 13.1   0.0101 1.0015 150.0     20?   1.75 210.9   60 130 175   7
   2024 03 08 04:30  09 21 39.28    +15 52 57.9   0.0101 1.0015 150.0     20?   1.81 211.7   61 134 175   7
   2024 03 08 04:40  09 21 38.61    +15 52 42.3   0.0101 1.0015 150.0     20?   1.86 212.3   62 139 175   7
   2024 03 08 04:50  09 21 37.91    +15 52 26.4   0.0101 1.0015 150.0     20?   1.91 212.7   64 143 175   7
   2024 03 08 05:00  09 21 37.18    +15 52 10.1   0.0101 1.0015 150.0     20?   1.96 212.9   65 148 175   7
   2024 03 08 05:10  09 21 36.44    +15 51 53.5   0.0101 1.0015 150.0     20?   2.00 213.0   66 154 175   7
   2024 03 08 05:20  09 21 35.68    +15 51 36.5   0.0101 1.0015 150.0     20?   2.04 212.9   66 159 175   7
   2024 03 08 05:30  09 21 34.90    +15 51 19.2   0.0101 1.0015 150.0     20?   2.08 212.8   67 166 175   7
   2024 03 08 05:40  09 21 34.12    +15 51 01.5   0.0101 1.0015 150.0     20?   2.12 212.4   67 172 175   7
   2024 03 08 05:50  09 21 33.33    +15 50 43.4   0.0101 1.0015 150.0     20?   2.15 212.0   67 178 175   7
   2024 03 08 06:00  09 21 32.54    +15 50 25.0   0.0101 1.0015 150.0  t  20?   2.18 211.5   67 185 175   6
   2024 03 08 06:10  09 21 31.76    +15 50 06.2   0.0101 1.0015 150.0     20?   2.21 210.8   67 191 175   6
   2024 03 08 06:20  09 21 30.98    +15 49 47.1   0.0101 1.0015 149.9     20?   2.23 210.0   67 197 175   6
   2024 03 08 06:30  09 21 30.21    +15 49 27.6   0.0101 1.0015 149.9     20?   2.25 209.1   66 203 175   6
   2024 03 08 06:40  09 21 29.46    +15 49 07.7   0.0101 1.0015 149.9     20?   2.27 208.2   65 209 175   6
   2024 03 08 06:50  09 21 28.73    +15 48 47.5   0.0101 1.0015 149.9     20?   2.29 207.1   64 214 175   6
   2024 03 08 07:00  09 21 28.02    +15 48 26.9   0.0101 1.0015 149.9     20?   2.30 205.9   63 218 175   6
   2024 03 08 07:10  09 21 27.34    +15 48 06.0   0.0101 1.0015 149.9     20?   2.32 204.6   61 223 175   6
   2024 03 08 07:20  09 21 26.69    +15 47 44.8   0.0101 1.0015 149.9     20?   2.33 203.2   60 227 175   6
   2024 03 08 07:30  09 21 26.08    +15 47 23.2   0.0101 1.0015 149.9     20?   2.34 201.6   59 231 175   6
   2024 03 08 07:40  09 21 25.50    +15 47 01.4   0.0101 1.0015 149.9     20?   2.35 200.0   57 234 175   6
   2024 03 08 07:50  09 21 24.97    +15 46 39.1   0.0101 1.0015 149.9     20?   2.36 198.3   55 237 175   6
   2024 03 08 08:00  09 21 24.48    +15 46 16.6   0.0101 1.0015 149.9     20?   2.36 196.5   54 240 175   6
   2024 03 08 08:10  09 21 24.04    +15 45 53.8   0.0101 1.0015 149.9     20?   2.37 194.6   52 243 175   6
   2024 03 08 08:20  09 21 23.65    +15 45 30.7   0.0101 1.0015 149.9     20?   2.38 192.6   50 246 175   6
   2024 03 08 08:30  09 21 23.32    +15 45 07.3   0.0101 1.0015 149.9     20?   2.39 190.6   48 248 175   6
   2024 03 08 08:40  09 21 23.05    +15 44 43.7   0.0101 1.0015 149.8     20?   2.41 188.4   46 250 175   6
   2024 03 08 08:50  09 21 22.84    +15 44 19.7   0.0101 1.0015 149.8     20?   2.42 186.2   44 253 175   6
   2024 03 08 09:00  09 21 22.69    +15 43 55.6   0.0101 1.0015 149.8     20?   2.43 183.9   43 255 174   6
   2024 03 08 09:10  09 21 22.61    +15 43 31.1   0.0101 1.0015 149.8     20?   2.45 181.5   41 257 174   5
   2024 03 08 09:20  09 21 22.61    +15 43 06.5   0.0101 1.0015 149.8     20?   2.48 179.1   39 258 174   5
   2024 03 08 09:30  09 21 22.67    +15 42 41.7   0.0101 1.0015 149.8     20?   2.50 176.7   37 260 174   5
   2024 03 08 09:40  09 21 22.81    +15 42 16.6   0.0101 1.0015 149.8     20?   2.53 174.2   35 262 174   5
   2024 03 08 09:50  09 21 23.02    +15 41 51.4   0.0101 1.0015 149.8     20?   2.56 171.8   33 264 174   5
   2024 03 08 10:00  09 21 23.32    +15 41 25.9   0.0101 1.0015 149.8     20?   2.60 169.3   31 265 174   5
   2024 03 08 10:10  09 21 23.70    +15 41 00.4   0.0101 1.0015 149.8     20?   2.64 166.8   29 267 174   5
   2024 03 08 10:20  09 21 24.16    +15 40 34.6   0.0101 1.0015 149.8     20?   2.68 164.4   27 268 174   5
   2024 03 08 10:30  09 21 24.70    +15 40 08.8   0.0101 1.0015 149.8     20?   2.73 161.9   25 270 174   5
   2024 03 08 10:40  09 21 25.33    +15 39 42.8   0.0101 1.0015 149.8     20?   2.78 159.6   23 272 174   5
   2024 03 08 10:50  09 21 26.05    +15 39 16.7   0.0101 1.0015 149.8     20?   2.83 157.2   21 273 174   5
   2024 03 08 11:00  09 21 26.85    +15 38 50.6   0.0101 1.0015 149.8     20?   2.89 154.9   19 274 174   5
   2024 03 08 11:10  09 21 27.75    +15 38 24.3   0.0101 1.0015 149.8     20?   2.96 152.7   17 276 174   5
   2024 03 08 11:20  09 21 28.73    +15 37 58.0   0.0101 1.0015 149.8     20?   3.02 150.6   15 277 173   5
   2024 03 08 11:30  09 21 29.80    +15 37 31.7   0.0101 1.0015 149.8     20?   3.09 148.5   13 279 173   5
   2024 03 08 11:40  09 21 30.97    +15 37 05.4   0.0101 1.0015 149.8     20?   3.16 146.5   11 280 173   5
   2024 03 08 11:50  09 21 32.23    +15 36 39.0   0.0101 1.0015 149.8     20?   3.24 144.5    9 282 173   5
   2024 03 08 12:00  09 21 33.58    +15 36 12.6   0.0101 1.0015 149.8     20?   3.32 142.7    7 283 173   5
   2024 03 08 12:10  09 21 35.02    +15 35 46.3   0.0101 1.0015 149.8     20?   3.40 140.9    5 285 173   5
   2024 03 08 12:20  09 21 36.55    +15 35 20.0   0.0101 1.0015 149.8     20?   3.48 139.2    3 286 173   5
   2024 03 08 12:30  09 21 38.17    +15 34 53.7   0.0101 1.0015 149.8 A   20?   3.56 137.5    1 288 173   5
   2024 03 08 12:40  09 21 39.88    +15 34 27.5   0.0101 1.0015 149.8 A   20?   3.64 135.9    0 289 173   5
   ................
   2024 03 09 01:50  09 24 52.78    +15 12 18.7   0.0101 1.0016 150.1 C   20?   1.26 159.3   32  95 168   2
   2024 03 09 02:00  09 24 53.05    +15 12 06.8   0.0101 1.0016 150.1 C   20?   1.24 164.5   34  97 168   2
   2024 03 09 02:10  09 24 53.24    +15 11 54.8   0.0100 1.0016 150.1 N   20?   1.24 169.7   36  99 168   2
   2024 03 09 02:20  09 24 53.36    +15 11 42.5   0.0100 1.0016 150.1 N   20?   1.24 174.7   38 101 168   2
   2024 03 09 02:30  09 24 53.40    +15 11 30.0   0.0100 1.0017 150.1 N   20?   1.26 179.5   40 102 168   2
   2024 03 09 02:40  09 24 53.38    +15 11 17.3   0.0100 1.0017 150.1 A   20?   1.29 184.0   42 104 168   2
   2024 03 09 02:50  09 24 53.28    +15 11 04.4   0.0100 1.0017 150.1 A   20?   1.32 188.1   44 106 168   2
   2024 03 09 03:00  09 24 53.12    +15 10 51.2   0.0100 1.0017 150.1 A   20?   1.36 191.8   45 109 168   2
   2024 03 09 03:10  09 24 52.90    +15 10 37.7   0.0100 1.0017 150.1     20?   1.41 195.1   47 111 167   2
   2024 03 09 03:20  09 24 52.62    +15 10 24.0   0.0100 1.0017 150.0     20?   1.46 198.0   49 113 167   2
   2024 03 09 03:30  09 24 52.28    +15 10 10.0   0.0100 1.0017 150.0     20?   1.51 200.5   51 116 167   2
   2024 03 09 03:40  09 24 51.89    +15 09 55.7   0.0100 1.0017 150.0     20?   1.56 202.7   53 118 167   2
   2024 03 09 03:50  09 24 51.45    +15 09 41.2   0.0100 1.0017 150.0     20?   1.62 204.5   54 121 167   2
   2024 03 09 04:00  09 24 50.97    +15 09 26.3   0.0100 1.0017 150.0     20?   1.67 206.1   56 125 167   2
   2024 03 09 04:10  09 24 50.44    +15 09 11.1   0.0100 1.0017 150.0     20?   1.73 207.4   58 128 167   2
   2024 03 09 04:20  09 24 49.87    +15 08 55.6   0.0100 1.0017 150.0     20?   1.78 208.5   59 132 167   2
   2024 03 09 04:30  09 24 49.27    +15 08 39.7   0.0100 1.0017 150.0     20?   1.83 209.3   61 136 166   2
   2024 03 09 04:40  09 24 48.63    +15 08 23.6   0.0100 1.0017 150.0     20?   1.88 210.0   62 140 166   2
   2024 03 09 04:50  09 24 47.97    +15 08 07.1   0.0100 1.0017 150.0     20?   1.93 210.5   63 144 166   2
   2024 03 09 05:00  09 24 47.28    +15 07 50.3   0.0100 1.0017 150.0     20?   1.98 210.8   64 149 166   2
   2024 03 09 05:10  09 24 46.58    +15 07 33.1   0.0100 1.0017 150.0     20?   2.02 210.9   65 155 166   2
   2024 03 09 05:20  09 24 45.85    +15 07 15.6   0.0100 1.0017 150.0     20?   2.06 210.9   66 160 166   2
   2024 03 09 05:30  09 24 45.12    +15 06 57.7   0.0100 1.0017 149.9     20?   2.10 210.8   66 166 166   2
   2024 03 09 05:40  09 24 44.37    +15 06 39.5   0.0100 1.0017 149.9     20?   2.13 210.5   67 172 166   2
   2024 03 09 05:50  09 24 43.63    +15 06 21.0   0.0100 1.0017 149.9     20?   2.16 210.1   67 179 165   2
   2024 03 09 06:00  09 24 42.88    +15 06 02.1   0.0100 1.0017 149.9  t  20?   2.19 209.6   67 185 165   2
   2024 03 09 06:10  09 24 42.13    +15 05 42.8   0.0100 1.0017 149.9     20?   2.22 209.0   66 191 165   2
   2024 03 09 06:20  09 24 41.40    +15 05 23.2   0.0100 1.0017 149.9     20?   2.24 208.2   66 197 165   2
   2024 03 09 06:30  09 24 40.67    +15 05 03.3   0.0100 1.0017 149.9     20?   2.26 207.4   65 203 165   2
   2024 03 09 06:40  09 24 39.96    +15 04 43.0   0.0100 1.0017 149.9     20?   2.28 206.4   64 208 165   2
   2024 03 09 06:50  09 24 39.27    +15 04 22.4   0.0100 1.0017 149.9     20?   2.30 205.3   63 213 165   1
   2024 03 09 07:00  09 24 38.61    +15 04 01.5   0.0100 1.0017 149.9     20?   2.31 204.1   62 218 164   1
   2024 03 09 07:10  09 24 37.97    +15 03 40.2   0.0100 1.0017 149.9     20?   2.33 202.9   61 222 164   1
   2024 03 09 07:20  09 24 37.37    +15 03 18.6   0.0100 1.0017 149.9     20?   2.34 201.5   59 226 164   1
   2024 03 09 07:30  09 24 36.80    +15 02 56.7   0.0100 1.0017 149.8     20?   2.35 200.0   58 230 164   1
   2024 03 09 07:40  09 24 36.26    +15 02 34.5   0.0100 1.0017 149.8     20?   2.36 198.4   56 234 164   1
   2024 03 09 07:50  09 24 35.77    +15 02 11.9   0.0100 1.0017 149.8     20?   2.37 196.7   55 237 164   1
   2024 03 09 08:00  09 24 35.33    +15 01 49.1   0.0100 1.0017 149.8     20?   2.38 194.9   53 240 164   1
   2024 03 09 08:10  09 24 34.94    +15 01 26.0   0.0100 1.0017 149.8     20?   2.39 193.0   51 242 164   1
   2024 03 09 08:20  09 24 34.59    +15 01 02.6   0.0100 1.0017 149.8     20?   2.40 191.0   49 245 163   1
   2024 03 09 08:30  09 24 34.31    +15 00 38.9   0.0100 1.0017 149.8     20?   2.41 188.9   48 247 163   1
   2024 03 09 08:40  09 24 34.08    +15 00 15.0   0.0100 1.0017 149.8     20?   2.42 186.8   46 250 163   1
   2024 03 09 08:50  09 24 33.92    +14 59 50.8   0.0100 1.0017 149.8     20?   2.44 184.5   44 252 163   1
   2024 03 09 09:00  09 24 33.82    +14 59 26.4   0.0100 1.0017 149.8     20?   2.45 182.3   42 254 163   1
   2024 03 09 09:10  09 24 33.79    +14 59 01.8   0.0100 1.0017 149.8     20?   2.47 179.9   40 256 163   1
   2024 03 09 09:20  09 24 33.83    +14 58 36.9   0.0100 1.0017 149.8     20?   2.50 177.5   38 258 163   1
   2024 03 09 09:30  09 24 33.94    +14 58 11.9   0.0100 1.0017 149.8     20?   2.53 175.1   36 260 163   1
   2024 03 09 09:40  09 24 34.13    +14 57 46.6   0.0100 1.0017 149.8     20?   2.56 172.7   34 261 162   1
   2024 03 09 09:50  09 24 34.39    +14 57 21.2   0.0100 1.0017 149.8     20?   2.59 170.2   32 263 162   1
   2024 03 09 10:00  09 24 34.74    +14 56 55.6   0.0100 1.0017 149.8     20?   2.63 167.8   30 265 162   1
   2024 03 09 10:10  09 24 35.16    +14 56 29.9   0.0100 1.0017 149.8     20?   2.67 165.3   28 266 162   1
   2024 03 09 10:20  09 24 35.67    +14 56 04.0   0.0100 1.0017 149.8     20?   2.72 162.9   26 268 162   1
   2024 03 09 10:30  09 24 36.27    +14 55 37.9   0.0100 1.0017 149.8     20?   2.77 160.5   24 269 162   1
   2024 03 09 10:40  09 24 36.95    +14 55 11.8   0.0100 1.0017 149.8     20?   2.82 158.2   22 271 162   1
   2024 03 09 10:50  09 24 37.72    +14 54 45.6   0.0100 1.0017 149.8     20?   2.88 155.9   20 272 162   1
   2024 03 09 11:00  09 24 38.57    +14 54 19.3   0.0100 1.0017 149.8     20?   2.94 153.7   18 274 161   1
   2024 03 09 11:10  09 24 39.52    +14 53 52.9   0.0100 1.0017 149.8     20?   3.01 151.5   16 275 161   1
   2024 03 09 11:20  09 24 40.56    +14 53 26.5   0.0100 1.0017 149.8     20?   3.07 149.4   14 277 161   1
   2024 03 09 11:30  09 24 41.68    +14 53 00.0   0.0100 1.0017 149.7     20?   3.15 147.3   12 278 161   1
   2024 03 09 11:40  09 24 42.90    +14 52 33.5   0.0100 1.0017 149.7     20?   3.22 145.4   10 280 161   1
   2024 03 09 11:50  09 24 44.21    +14 52 07.1   0.0100 1.0017 149.7     20?   3.30 143.5    9 281 161   1
   2024 03 09 12:00  09 24 45.61    +14 51 40.6   0.0100 1.0017 149.8     20?   3.38 141.7    7 283 161   1
   2024 03 09 12:10  09 24 47.10    +14 51 14.1   0.0100 1.0017 149.8     20?   3.46 139.9    5 284 161   1
   2024 03 09 12:20  09 24 48.69    +14 50 47.6   0.0100 1.0017 149.8     20?   3.54 138.2    3 286 161   1
   2024 03 09 12:30  09 24 50.36    +14 50 21.3   0.0100 1.0017 149.8 A   20?   3.63 136.6    1 287 161   1
   2024 03 09 12:40  09 24 52.13    +14 49 54.9   0.0100 1.0017 149.8 A   20?   3.71 135.1    0 289 160   1
   ................
   2024 03 10 01:50  09 28 08.88    +14 27 04.7   0.0100 1.0019 150.1 C   20?   1.36 158.0   32  96 155   0
   2024 03 10 02:00  09 28 09.19    +14 26 52.1   0.0100 1.0019 150.1 C   20?   1.33 162.8   34  98 155   0
   2024 03 10 02:10  09 28 09.43    +14 26 39.3   0.0100 1.0019 150.1 N   20?   1.32 167.7   35 100 154   0
   2024 03 10 02:20  09 28 09.59    +14 26 26.2   0.0100 1.0019 150.1 N   20?   1.32 172.4   37 101 154   0
   2024 03 10 02:30  09 28 09.67    +14 26 13.0   0.0100 1.0019 150.1 N   20?   1.34 177.0   39 103 154   0
   2024 03 10 02:40  09 28 09.68    +14 25 59.5   0.0100 1.0019 150.1 A   20?   1.36 181.2   41 105 154   0
   2024 03 10 02:50  09 28 09.63    +14 25 45.9   0.0100 1.0019 150.1 A   20?   1.39 185.2   43 107 154   0
   2024 03 10 03:00  09 28 09.51    +14 25 31.9   0.0100 1.0019 150.0 A   20?   1.42 188.8   45 110 154   0
   2024 03 10 03:10  09 28 09.33    +14 25 17.8   0.0100 1.0019 150.0     20?   1.46 192.1   47 112 154   0
   2024 03 10 03:20  09 28 09.09    +14 25 03.3   0.0100 1.0019 150.0     20?   1.51 195.0   49 114 154   0
   2024 03 10 03:30  09 28 08.80    +14 24 48.6   0.0100 1.0019 150.0     20?   1.56 197.6   50 117 154   0
   2024 03 10 03:40  09 28 08.45    +14 24 33.7   0.0100 1.0019 150.0     20?   1.61 199.8   52 120 153   0
   2024 03 10 03:50  09 28 08.05    +14 24 18.4   0.0100 1.0019 150.0     20?   1.66 201.7   54 123 153   0
   2024 03 10 04:00  09 28 07.61    +14 24 02.9   0.0100 1.0019 150.0     20?   1.71 203.4   56 126 153   0
   2024 03 10 04:10  09 28 07.12    +14 23 47.0   0.0100 1.0019 150.0     20?   1.76 204.7   57 129 153   0
   2024 03 10 04:20  09 28 06.60    +14 23 30.9   0.0100 1.0019 150.0     20?   1.81 205.9   59 133 153   0
   2024 03 10 04:30  09 28 06.04    +14 23 14.4   0.0100 1.0019 150.0     20?   1.86 206.8   60 137 153   0
   2024 03 10 04:40  09 28 05.44    +14 22 57.6   0.0100 1.0019 150.0     20?   1.91 207.5   61 141 153   0
   2024 03 10 04:50  09 28 04.82    +14 22 40.5   0.0100 1.0019 150.0     20?   1.95 208.1   62 146 153   0
   2024 03 10 05:00  09 28 04.18    +14 22 23.1   0.0100 1.0019 150.0     20?   2.00 208.4   63 150 152   0
   2024 03 10 05:10  09 28 03.52    +14 22 05.4   0.0100 1.0019 149.9     20?   2.04 208.7   64 156 152   0
   2024 03 10 05:20  09 28 02.84    +14 21 47.3   0.0100 1.0019 149.9     20?   2.08 208.7   65 161 152   0
   2024 03 10 05:30  09 28 02.15    +14 21 28.9   0.0100 1.0019 149.9     20?   2.11 208.6   66 167 152   0
   2024 03 10 05:40  09 28 01.45    +14 21 10.2   0.0100 1.0019 149.9     20?   2.15 208.4   66 173 152   0
   2024 03 10 05:50  09 28 00.74    +14 20 51.1   0.0100 1.0019 149.9     20?   2.18 208.1   66 179 152   0
   2024 03 10 06:00  09 28 00.04    +14 20 31.7   0.0100 1.0019 149.9  t  20?   2.21 207.6   66 185 152   0
   2024 03 10 06:10  09 27 59.34    +14 20 12.0   0.0100 1.0019 149.9     20?   2.23 207.0   66 191 151   0
   2024 03 10 06:20  09 27 58.65    +14 19 52.0   0.0100 1.0019 149.9     20?   2.25 206.3   65 197 151   0
   2024 03 10 06:30  09 27 57.97    +14 19 31.6   0.0100 1.0019 149.9     20?   2.27 205.4   64 203 151   0
   2024 03 10 06:40  09 27 57.31    +14 19 10.9   0.0100 1.0019 149.9     20?   2.29 204.5   64 208 151   0
   2024 03 10 06:50  09 27 56.67    +14 18 49.8   0.0100 1.0019 149.9     20?   2.31 203.4   62 213 151   0
   2024 03 10 07:00  09 27 56.05    +14 18 28.5   0.0100 1.0019 149.9     20?   2.32 202.3   61 217 151   0
   2024 03 10 07:10  09 27 55.46    +14 18 06.8   0.0100 1.0019 149.9     20?   2.34 201.0   60 222 151   0
   2024 03 10 07:20  09 27 54.90    +14 17 44.8   0.0100 1.0019 149.8     20?   2.35 199.6   59 226 151   0
   2024 03 10 07:30  09 27 54.38    +14 17 22.6   0.0100 1.0019 149.8     20?   2.36 198.1   57 229 150   0
   2024 03 10 07:40  09 27 53.89    +14 17 00.0   0.0100 1.0019 149.8     20?   2.37 196.5   56 233 150   0
   2024 03 10 07:50  09 27 53.45    +14 16 37.1   0.0100 1.0019 149.8     20?   2.38 194.8   54 236 150   0
   2024 03 10 08:00  09 27 53.06    +14 16 14.0   0.0100 1.0019 149.8     20?   2.39 193.1   52 239 150   0
   2024 03 10 08:10  09 27 52.71    +14 15 50.6   0.0100 1.0019 149.8     20?   2.40 191.2   51 242 150   0
   2024 03 10 08:20  09 27 52.42    +14 15 26.9   0.0100 1.0019 149.8     20?   2.41 189.2   49 244 150   0
   2024 03 10 08:30  09 27 52.18    +14 15 02.9   0.0100 1.0019 149.8     20?   2.43 187.1   47 247 150   0
   2024 03 10 08:40  09 27 52.01    +14 14 38.7   0.0100 1.0019 149.8     20?   2.44 185.0   45 249 149   0
   2024 03 10 08:50  09 27 51.89    +14 14 14.3   0.0100 1.0019 149.8     20?   2.46 182.8   43 251 149   0
   2024 03 10 09:00  09 27 51.85    +14 13 49.7   0.0100 1.0019 149.8     20?   2.48 180.5   41 253 149   0
   2024 03 10 09:10  09 27 51.87    +14 13 24.8   0.0100 1.0019 149.8     20?   2.50 178.2   39 255 149   0
   2024 03 10 09:20  09 27 51.96    +14 12 59.7   0.0100 1.0019 149.8     20?   2.52 175.8   37 257 149   0
   2024 03 10 09:30  09 27 52.12    +14 12 34.4   0.0100 1.0019 149.8     20?   2.55 173.4   36 259 149   0
   2024 03 10 09:40  09 27 52.36    +14 12 09.0   0.0100 1.0019 149.8     20?   2.59 171.0   34 261 149   0
   2024 03 10 09:50  09 27 52.68    +14 11 43.4   0.0100 1.0019 149.8     20?   2.62 168.6   32 262 149   0
   2024 03 10 10:00  09 27 53.08    +14 11 17.6   0.0100 1.0019 149.8     20?   2.66 166.2   30 264 148   0
   2024 03 10 10:10  09 27 53.56    +14 10 51.6   0.0100 1.0019 149.8     20?   2.71 163.8   28 266 148   0
   2024 03 10 10:20  09 27 54.12    +14 10 25.6   0.0100 1.0019 149.8     20?   2.76 161.4   26 267 148   0
   2024 03 10 10:30  09 27 54.77    +14 09 59.4   0.0100 1.0019 149.7     20?   2.81 159.1   24 269 148   0
   2024 03 10 10:40  09 27 55.50    +14 09 33.1   0.0100 1.0019 149.7     20?   2.87 156.8   22 270 148   0
   2024 03 10 10:50  09 27 56.33    +14 09 06.7   0.0100 1.0019 149.7     20?   2.93 154.5   20 272 148   0
   2024 03 10 11:00  09 27 57.24    +14 08 40.3   0.0100 1.0019 149.7     20?   2.99 152.3   18 273 148   0
   2024 03 10 11:10  09 27 58.24    +14 08 13.8   0.0100 1.0019 149.7     20?   3.06 150.2   16 275 148   0
   2024 03 10 11:20  09 27 59.33    +14 07 47.2   0.0100 1.0019 149.7     20?   3.13 148.2   14 276 147   0
   2024 03 10 11:30  09 28 00.51    +14 07 20.6   0.0100 1.0019 149.7     20?   3.21 146.2   12 278 147   0
   2024 03 10 11:40  09 28 01.79    +14 06 54.0   0.0100 1.0019 149.7     20?   3.28 144.2   10 279 147   0
   2024 03 10 11:50  09 28 03.15    +14 06 27.3   0.0100 1.0019 149.7     20?   3.36 142.4    8 281 147   0
   2024 03 10 12:00  09 28 04.61    +14 06 00.7   0.0100 1.0019 149.7     20?   3.45 140.6    6 282 147   0
   2024 03 10 12:10  09 28 06.16    +14 05 34.1   0.0100 1.0019 149.7     20?   3.53 138.9    4 284 147   0
   2024 03 10 12:20  09 28 07.80    +14 05 07.5   0.0100 1.0019 149.7     20?   3.61 137.3    2 285 147   0
   2024 03 10 12:30  09 28 09.53    +14 04 41.0   0.0100 1.0020 149.7 A   20?   3.70 135.8    0 287 147   0
   ................
   2024 03 11 01:50  09 31 32.35    +13 40 40.4   0.0099 1.0021 150.1 Cm  20?   1.46 156.7   31  97 141   0
   2024 03 11 02:00  09 31 32.71    +13 40 27.0   0.0099 1.0021 150.1 Cm  20?   1.43 161.2   33  99 141   0
   2024 03 11 02:10  09 31 32.99    +13 40 13.3   0.0099 1.0021 150.1 Nm  20?   1.42 165.7   35 100 140   0
   2024 03 11 02:20  09 31 33.19    +13 39 59.5   0.0099 1.0021 150.1 Nm  20?   1.41 170.1   37 102 140   0
   2024 03 11 02:30  09 31 33.32    +13 39 45.5   0.0099 1.0021 150.1 N   20?   1.42 174.4   39 104 140   0
   2024 03 11 02:40  09 31 33.38    +13 39 31.2   0.0099 1.0021 150.1 A   20?   1.44 178.5   41 106 140   0
   2024 03 11 02:50  09 31 33.38    +13 39 16.8   0.0099 1.0021 150.1 A   20?   1.46 182.3   43 108 140   0
   2024 03 11 03:00  09 31 33.30    +13 39 02.1   0.0099 1.0021 150.1 A   20?   1.49 185.8   45 110 140   0
   2024 03 11 03:10  09 31 33.17    +13 38 47.2   0.0099 1.0021 150.1     20?   1.52 189.1   46 113 140   0
   2024 03 11 03:20  09 31 32.98    +13 38 32.0   0.0099 1.0021 150.0     20?   1.56 192.0   48 115 140   0
   2024 03 11 03:30  09 31 32.73    +13 38 16.6   0.0099 1.0021 150.0     20?   1.61 194.5   50 118 140   0
   2024 03 11 03:40  09 31 32.43    +13 38 00.9   0.0099 1.0021 150.0     20?   1.65 196.8   52 121 139   0
   2024 03 11 03:50  09 31 32.07    +13 37 44.9   0.0099 1.0021 150.0     20?   1.70 198.8   53 124 139   0
   2024 03 11 04:00  09 31 31.68    +13 37 28.7   0.0099 1.0021 150.0     20?   1.75 200.5   55 127 139   0
   2024 03 11 04:10  09 31 31.24    +13 37 12.2   0.0099 1.0021 150.0     20?   1.80 201.9   57 130 139   0
   2024 03 11 04:20  09 31 30.76    +13 36 55.4   0.0099 1.0021 150.0     20?   1.84 203.1   58 134 139   0
   2024 03 11 04:30  09 31 30.25    +13 36 38.2   0.0099 1.0021 150.0     20?   1.89 204.1   59 138 139   0
   2024 03 11 04:40  09 31 29.70    +13 36 20.8   0.0099 1.0021 150.0     20?   1.94 204.9   61 142 139   0
   2024 03 11 04:50  09 31 29.13    +13 36 03.1   0.0099 1.0021 150.0     20?   1.98 205.5   62 147 139   0
   2024 03 11 05:00  09 31 28.53    +13 35 45.1   0.0099 1.0021 150.0     20?   2.02 206.0   63 151 138   0
   2024 03 11 05:10  09 31 27.92    +13 35 26.8   0.0099 1.0021 150.0     20?   2.06 206.2   64 157 138   0
   2024 03 11 05:20  09 31 27.29    +13 35 08.1   0.0099 1.0021 150.0     20?   2.10 206.4   64 162 138   0
   2024 03 11 05:30  09 31 26.64    +13 34 49.2   0.0099 1.0021 150.0     20?   2.13 206.3   65 168 138   1
   2024 03 11 05:40  09 31 25.99    +13 34 29.9   0.0099 1.0021 149.9     20?   2.16 206.2   65 174 138   1
   2024 03 11 05:50  09 31 25.34    +13 34 10.3   0.0099 1.0021 149.9  e  20?   2.19 205.8   65 179 138   1
   2024 03 11 06:00  09 31 24.68    +13 33 50.4   0.0099 1.0021 149.9  t  20?   2.22 205.4   65 185 138   1
   2024 03 11 06:10  09 31 24.03    +13 33 30.2   0.0099 1.0021 149.9     20?   2.25 204.9   65 191 138   1
   2024 03 11 06:20  09 31 23.39    +13 33 09.6   0.0099 1.0021 149.9     20?   2.27 204.2   64 197 137   1
   2024 03 11 06:30  09 31 22.76    +13 32 48.8   0.0099 1.0021 149.9     20?   2.29 203.4   64 202 137   1
   2024 03 11 06:40  09 31 22.15    +13 32 27.6   0.0099 1.0021 149.9     20?   2.31 202.5   63 208 137   1
   2024 03 11 06:50  09 31 21.56    +13 32 06.1   0.0099 1.0021 149.9     20?   2.32 201.4   62 212 137   1
   2024 03 11 07:00  09 31 20.99    +13 31 44.4   0.0099 1.0021 149.9     20?   2.34 200.3   61 217 137   1
   2024 03 11 07:10  09 31 20.45    +13 31 22.3   0.0099 1.0021 149.9     20?   2.35 199.0   59 221 137   1
   2024 03 11 07:20  09 31 19.94    +13 30 59.9   0.0099 1.0021 149.9     20?   2.36 197.7   58 225 137   1
   2024 03 11 07:30  09 31 19.47    +13 30 37.3   0.0099 1.0021 149.9     20?   2.37 196.2   56 229 137   1
   2024 03 11 07:40  09 31 19.04    +13 30 14.3   0.0099 1.0021 149.9     20?   2.38 194.6   55 232 136   1
   2024 03 11 07:50  09 31 18.65    +13 29 51.1   0.0099 1.0021 149.8     20?   2.39 192.9   53 235 136   1
   2024 03 11 08:00  09 31 18.31    +13 29 27.7   0.0099 1.0021 149.8     20?   2.41 191.1   52 238 136   1
   2024 03 11 08:10  09 31 18.02    +13 29 03.9   0.0099 1.0021 149.8     20?   2.42 189.3   50 241 136   1
   2024 03 11 08:20  09 31 17.78    +13 28 39.9   0.0099 1.0021 149.8     20?   2.43 187.3   48 244 136   1
   2024 03 11 08:30  09 31 17.60    +13 28 15.7   0.0099 1.0021 149.8     20?   2.45 185.3   46 246 136   1
   2024 03 11 08:40  09 31 17.47    +13 27 51.2   0.0099 1.0021 149.8     20?   2.46 183.1   45 248 136   1
   2024 03 11 08:50  09 31 17.41    +13 27 26.5   0.0099 1.0021 149.8     20?   2.48 180.9   43 251 135   1
   2024 03 11 09:00  09 31 17.42    +13 27 01.6   0.0099 1.0021 149.8     20?   2.50 178.7   41 253 135   1
   2024 03 11 09:10  09 31 17.50    +13 26 36.5   0.0099 1.0021 149.8     20?   2.53 176.4   39 255 135   1
   2024 03 11 09:20  09 31 17.64    +13 26 11.2   0.0099 1.0021 149.8     20?   2.55 174.1   37 256 135   1
   2024 03 11 09:30  09 31 17.86    +13 25 45.7   0.0099 1.0021 149.8     20?   2.59 171.7   35 258 135   1
   2024 03 11 09:40  09 31 18.16    +13 25 20.0   0.0099 1.0021 149.8     20?   2.62 169.3   33 260 135   1
   2024 03 11 09:50  09 31 18.53    +13 24 54.2   0.0099 1.0021 149.8     20?   2.66 166.9   31 262 135   1
   2024 03 11 10:00  09 31 18.98    +13 24 28.2   0.0099 1.0021 149.8     20?   2.70 164.5   29 263 135   1
   2024 03 11 10:10  09 31 19.52    +13 24 02.1   0.0099 1.0021 149.8     20?   2.75 162.2   27 265 134   1
   2024 03 11 10:20  09 31 20.14    +13 23 35.8   0.0099 1.0021 149.8     20?   2.80 159.9   25 267 134   1
   2024 03 11 10:30  09 31 20.85    +13 23 09.5   0.0099 1.0021 149.8     20?   2.86 157.6   23 268 134   1
   2024 03 11 10:40  09 31 21.64    +13 22 43.0   0.0099 1.0022 149.8     20?   2.92 155.3   21 270 134   1
   2024 03 11 10:50  09 31 22.52    +13 22 16.5   0.0099 1.0022 149.8     20?   2.98 153.1   19 271 134   1
   2024 03 11 11:00  09 31 23.49    +13 21 49.9   0.0099 1.0022 149.8     20?   3.05 151.0   17 273 134   1
   2024 03 11 11:10  09 31 24.55    +13 21 23.2   0.0099 1.0022 149.8     20?   3.12 148.9   15 274 134   1
   2024 03 11 11:20  09 31 25.70    +13 20 56.5   0.0099 1.0022 149.8     20?   3.19 146.9   13 276 134   1
   2024 03 11 11:30  09 31 26.94    +13 20 29.7   0.0099 1.0022 149.8     20?   3.27 145.0   11 277 133   1
   2024 03 11 11:40  09 31 28.27    +13 20 02.9   0.0099 1.0022 149.8     20?   3.35 143.1    9 279 133   1
   2024 03 11 11:50  09 31 29.70    +13 19 36.2   0.0099 1.0022 149.8     20?   3.43 141.3    7 280 133   2
   2024 03 11 12:00  09 31 31.21    +13 19 09.4   0.0099 1.0022 149.8     20?   3.52 139.6    5 282 133   2
   2024 03 11 12:10  09 31 32.82    +13 18 42.6   0.0099 1.0022 149.8     20?   3.60 137.9    3 283 133   2
   2024 03 11 12:20  09 31 34.52    +13 18 15.9   0.0099 1.0022 149.8     20?   3.69 136.4    2 285 133   2
   2024 03 11 12:30  09 31 36.32    +13 17 49.2   0.0099 1.0022 149.8 A   20?   3.78 134.9    0 286 133   2
   ................
   2024 03 12 01:50  09 35 03.77    +12 53 02.2   0.0099 1.0023 150.1 Cm  20?   1.57 155.4   31  98 127   4
   2024 03 12 02:00  09 35 04.18    +12 52 47.9   0.0099 1.0023 150.1 Cm  20?   1.54 159.5   33 100 127   4
   2024 03 12 02:10  09 35 04.51    +12 52 33.4   0.0099 1.0023 150.1 Nm  20?   1.52 163.7   35 101 126   4
   2024 03 12 02:20  09 35 04.77    +12 52 18.7   0.0099 1.0023 150.1 Nm  20?   1.51 167.8   37 103 126   4
   2024 03 12 02:30  09 35 04.95    +12 52 03.9   0.0099 1.0023 150.1 Nm  20?   1.51 171.9   39 105 126   4
   2024 03 12 02:40  09 35 05.06    +12 51 48.8   0.0099 1.0023 150.1 Am  20?   1.52 175.8   40 107 126   4
   2024 03 12 02:50  09 35 05.10    +12 51 33.5   0.0099 1.0023 150.1 Am  20?   1.54 179.4   42 109 126   4
   2024 03 12 03:00  09 35 05.08    +12 51 18.1   0.0099 1.0023 150.1 Am  20?   1.56 182.9   44 111 126   4
   2024 03 12 03:10  09 35 05.00    +12 51 02.3   0.0099 1.0023 150.1  m  20?   1.59 186.0   46 114 126   4
   2024 03 12 03:20  09 35 04.86    +12 50 46.4   0.0099 1.0023 150.1  m  20?   1.63 188.9   48 116 126   4
   2024 03 12 03:30  09 35 04.66    +12 50 30.2   0.0099 1.0023 150.1  m  20?   1.66 191.4   50 119 126   4
   2024 03 12 03:40  09 35 04.41    +12 50 13.8   0.0099 1.0023 150.1  m  20?   1.71 193.7   51 122 126   4
   2024 03 12 03:50  09 35 04.11    +12 49 57.1   0.0099 1.0023 150.1     20?   1.75 195.8   53 125 125   4
   2024 03 12 04:00  09 35 03.76    +12 49 40.1   0.0099 1.0023 150.1     20?   1.79 197.5   54 128 125   4
   2024 03 12 04:10  09 35 03.37    +12 49 22.9   0.0099 1.0023 150.1     20?   1.84 199.0   56 131 125   4
   2024 03 12 04:20  09 35 02.94    +12 49 05.4   0.0099 1.0023 150.1     20?   1.88 200.3   57 135 125   4
   2024 03 12 04:30  09 35 02.48    +12 48 47.6   0.0099 1.0023 150.1     20?   1.92 201.4   59 139 125   4
   2024 03 12 04:40  09 35 01.99    +12 48 29.5   0.0099 1.0023 150.0     20?   1.97 202.2   60 143 125   4
   2024 03 12 04:50  09 35 01.47    +12 48 11.2   0.0099 1.0023 150.0     20?   2.01 202.9   61 148 125   4
   2024 03 12 05:00  09 35 00.92    +12 47 52.5   0.0099 1.0023 150.0     20?   2.05 203.4   62 152 125   4
   2024 03 12 05:10  09 35 00.36    +12 47 33.6   0.0099 1.0023 150.0     20?   2.09 203.7   63 157 125   4
   2024 03 12 05:20  09 34 59.78    +12 47 14.3   0.0099 1.0023 150.0     20?   2.12 203.9   64 163 124   4
   2024 03 12 05:30  09 34 59.19    +12 46 54.8   0.0099 1.0023 150.0     20?   2.15 203.9   64 168 124   4
   2024 03 12 05:40  09 34 58.59    +12 46 34.9   0.0099 1.0023 150.0     20?   2.18 203.8   64 174 124   4
   2024 03 12 05:50  09 34 57.99    +12 46 14.8   0.0099 1.0023 150.0  t  20?   2.21 203.5   64 180 124   4
   2024 03 12 06:00  09 34 57.38    +12 45 54.4   0.0099 1.0023 150.0     20?   2.24 203.1   64 185 124   4
   2024 03 12 06:10  09 34 56.79    +12 45 33.6   0.0099 1.0023 150.0     20?   2.26 202.6   64 191 124   4
   2024 03 12 06:20  09 34 56.20    +12 45 12.6   0.0099 1.0023 150.0     20?   2.28 202.0   63 197 124   5
   2024 03 12 06:30  09 34 55.62    +12 44 51.2   0.0098 1.0023 150.0     20?   2.30 201.2   63 202 124   5
   2024 03 12 06:40  09 34 55.06    +12 44 29.6   0.0098 1.0023 150.0     20?   2.32 200.3   62 207 123   5
   2024 03 12 06:50  09 34 54.52    +12 44 07.7   0.0098 1.0023 149.9     20?   2.34 199.3   61 212 123   5
   2024 03 12 07:00  09 34 54.01    +12 43 45.5   0.0098 1.0023 149.9     20?   2.35 198.2   60 216 123   5
   2024 03 12 07:10  09 34 53.52    +12 43 23.0   0.0098 1.0023 149.9     20?   2.37 196.9   59 220 123   5
   2024 03 12 07:20  09 34 53.07    +12 43 00.2   0.0098 1.0023 149.9     20?   2.38 195.6   57 224 123   5
   2024 03 12 07:30  09 34 52.65    +12 42 37.2   0.0099 1.0023 149.9     20?   2.39 194.1   56 228 123   5
   2024 03 12 07:40  09 34 52.27    +12 42 13.9   0.0099 1.0023 149.9     20?   2.40 192.6   54 231 123   5
   2024 03 12 07:50  09 34 51.94    +12 41 50.3   0.0099 1.0023 149.9     20?   2.41 190.9   53 234 123   5
   2024 03 12 08:00  09 34 51.65    +12 41 26.5   0.0099 1.0023 149.9     20?   2.43 189.2   51 237 122   5
   2024 03 12 08:10  09 34 51.42    +12 41 02.4   0.0099 1.0023 149.9     20?   2.44 187.3   49 240 122   5
   2024 03 12 08:20  09 34 51.23    +12 40 38.1   0.0099 1.0023 149.9     20?   2.45 185.3   48 243 122   5
   2024 03 12 08:30  09 34 51.11    +12 40 13.6   0.0099 1.0023 149.9     20?   2.47 183.3   46 245 122   5
   2024 03 12 08:40  09 34 51.04    +12 39 48.8   0.0099 1.0024 149.9     20?   2.49 181.2   44 248 122   5
   2024 03 12 08:50  09 34 51.04    +12 39 23.8   0.0099 1.0024 149.9     20?   2.51 179.0   42 250 122   5
   2024 03 12 09:00  09 34 51.10    +12 38 58.7   0.0099 1.0024 149.9     20?   2.53 176.8   40 252 122   5
   2024 03 12 09:10  09 34 51.23    +12 38 33.3   0.0099 1.0024 149.9     20?   2.56 174.5   38 254 121   5
   2024 03 12 09:20  09 34 51.44    +12 38 07.7   0.0099 1.0024 149.9     20?   2.59 172.2   36 256 121   5
   2024 03 12 09:30  09 34 51.71    +12 37 42.0   0.0099 1.0024 149.9     20?   2.62 169.9   34 258 121   5
   2024 03 12 09:40  09 34 52.07    +12 37 16.1   0.0099 1.0024 149.8     20?   2.66 167.6   32 259 121   6
   2024 03 12 09:50  09 34 52.50    +12 36 50.1   0.0099 1.0024 149.8     20?   2.70 165.2   31 261 121   6
   2024 03 12 10:00  09 34 53.01    +12 36 23.9   0.0099 1.0024 149.8     20?   2.75 162.9   29 263 121   6
   2024 03 12 10:10  09 34 53.61    +12 35 57.6   0.0099 1.0024 149.8     20?   2.80 160.6   27 264 121   6
   2024 03 12 10:20  09 34 54.29    +12 35 31.1   0.0099 1.0024 149.8     20?   2.85 158.3   25 266 121   6
   2024 03 12 10:30  09 34 55.05    +12 35 04.6   0.0099 1.0024 149.8     20?   2.91 156.0   23 268 120   6
   2024 03 12 10:40  09 34 55.90    +12 34 38.0   0.0099 1.0024 149.8     20?   2.97 153.9   21 269 120   6
   2024 03 12 10:50  09 34 56.84    +12 34 11.3   0.0099 1.0024 149.8     20?   3.04 151.7   19 271 120   6
   2024 03 12 11:00  09 34 57.87    +12 33 44.5   0.0099 1.0024 149.8     20?   3.11 149.6   17 272 120   6
   2024 03 12 11:10  09 34 58.99    +12 33 17.6   0.0099 1.0024 149.8     20?   3.18 147.6   15 274 120   6
   2024 03 12 11:20  09 35 00.20    +12 32 50.8   0.0099 1.0024 149.8     20?   3.26 145.7   13 275 120   6
   2024 03 12 11:30  09 35 01.50    +12 32 23.9   0.0099 1.0024 149.8     20?   3.34 143.8   11 277 120   6
   2024 03 12 11:40  09 35 02.90    +12 31 56.9   0.0099 1.0024 149.8     20?   3.42 142.0    9 278 120   6
   2024 03 12 11:50  09 35 04.39    +12 31 30.0   0.0099 1.0024 149.8     20?   3.51 140.2    7 280 119   6
   2024 03 12 12:00  09 35 05.96    +12 31 03.1   0.0099 1.0024 149.8     20?   3.59 138.6    5 281 119   6
   2024 03 12 12:10  09 35 07.63    +12 30 36.2   0.0099 1.0024 149.8     20?   3.68 137.0    3 283 119   6
   2024 03 12 12:20  09 35 09.40    +12 30 09.3   0.0099 1.0024 149.8     20?   3.77 135.4    1 284 119   6
   2024 03 12 12:30  09 35 11.25    +12 29 42.5   0.0099 1.0024 149.8 A   20?   3.86 134.0    0 286 119   6
   ................
   2024 03 13 01:50  09 38 43.63    +12 04 06.6   0.0098 1.0025 150.2 Cm  20?   1.68 154.1   30  99 113  10
   2024 03 13 02:00  09 38 44.09    +12 03 51.3   0.0098 1.0025 150.2 Cm  20?   1.65 157.9   32 100 113  10
   2024 03 13 02:10  09 38 44.47    +12 03 36.0   0.0098 1.0025 150.2 Nm  20?   1.63 161.8   34 102 113  10
   2024 03 13 02:20  09 38 44.78    +12 03 20.4   0.0098 1.0025 150.2 Nm  20?   1.61 165.7   36 104 113  10
   2024 03 13 02:30  09 38 45.02    +12 03 04.7   0.0098 1.0025 150.2 Nm  20?   1.61 169.5   38 106 113  10
   2024 03 13 02:40  09 38 45.19    +12 02 48.8   0.0098 1.0025 150.2 Am  20?   1.61 173.2   40 108 112  10
   2024 03 13 02:50  09 38 45.28    +12 02 32.7   0.0098 1.0025 150.2 Am  20?   1.62 176.7   42 110 112  10
   2024 03 13 03:00  09 38 45.32    +12 02 16.4   0.0098 1.0025 150.2 Am  20?   1.64 180.0   44 112 112  10
   2024 03 13 03:10  09 38 45.29    +12 01 59.9   0.0098 1.0025 150.2  m  20?   1.67 183.0   46 115 112  10
   2024 03 13 03:20  09 38 45.20    +12 01 43.2   0.0098 1.0025 150.2  m  20?   1.69 185.8   47 117 112  10
   2024 03 13 03:30  09 38 45.06    +12 01 26.2   0.0098 1.0025 150.2  m  20?   1.73 188.4   49 120 112  10
   2024 03 13 03:40  09 38 44.86    +12 01 09.0   0.0098 1.0025 150.2  m  20?   1.76 190.7   51 123 112  10
   2024 03 13 03:50  09 38 44.61    +12 00 51.5   0.0098 1.0025 150.2  m  20?   1.80 192.7   52 126 112  10
   2024 03 13 04:00  09 38 44.32    +12 00 33.8   0.0098 1.0025 150.2  m  20?   1.84 194.5   54 129 112  10
   2024 03 13 04:10  09 38 43.98    +12 00 15.9   0.0098 1.0025 150.2  m  20?   1.88 196.1   55 132 112  10
   2024 03 13 04:20  09 38 43.61    +11 59 57.6   0.0098 1.0025 150.1  m  20?   1.92 197.4   57 136 112  10
   2024 03 13 04:30  09 38 43.20    +11 59 39.1   0.0098 1.0025 150.1  m  20?   1.96 198.5   58 140 111  10
   2024 03 13 04:40  09 38 42.76    +11 59 20.4   0.0098 1.0025 150.1  m  20?   2.00 199.5   59 144 111  10
   2024 03 13 04:50  09 38 42.30    +11 59 01.4   0.0098 1.0025 150.1  m  20?   2.04 200.2   60 148 111  10
   2024 03 13 05:00  09 38 41.80    +11 58 42.1   0.0098 1.0025 150.1     20?   2.08 200.7   61 153 111  11
   2024 03 13 05:10  09 38 41.29    +11 58 22.5   0.0098 1.0025 150.1     20?   2.11 201.1   62 158 111  11
   2024 03 13 05:20  09 38 40.77    +11 58 02.6   0.0098 1.0025 150.1     20?   2.15 201.4   63 163 111  11
   2024 03 13 05:30  09 38 40.23    +11 57 42.5   0.0098 1.0025 150.1     20?   2.18 201.4   63 169 111  11
   2024 03 13 05:40  09 38 39.69    +11 57 22.1   0.0098 1.0025 150.1     20?   2.21 201.4   64 174 111  11
   2024 03 13 05:50  09 38 39.14    +11 57 01.3   0.0098 1.0025 150.1  t  20?   2.24 201.1   64 180 111  11
   2024 03 13 06:00  09 38 38.59    +11 56 40.3   0.0098 1.0025 150.1     20?   2.26 200.8   63 185 110  11
   2024 03 13 06:10  09 38 38.05    +11 56 19.1   0.0098 1.0026 150.1     20?   2.28 200.3   63 191 110  11
   2024 03 13 06:20  09 38 37.51    +11 55 57.5   0.0098 1.0026 150.1     20?   2.30 199.7   63 196 110  11
   2024 03 13 06:30  09 38 36.99    +11 55 35.7   0.0098 1.0026 150.1     20?   2.32 199.0   62 202 110  11
   2024 03 13 06:40  09 38 36.49    +11 55 13.6   0.0098 1.0026 150.0     20?   2.34 198.1   61 207 110  11
   2024 03 13 06:50  09 38 36.00    +11 54 51.2   0.0098 1.0026 150.0     20?   2.36 197.1   60 211 110  11
   2024 03 13 07:00  09 38 35.55    +11 54 28.5   0.0098 1.0026 150.0     20?   2.37 196.0   59 216 110  11
   2024 03 13 07:10  09 38 35.12    +11 54 05.6   0.0098 1.0026 150.0     20?   2.38 194.8   58 220 110  11
   2024 03 13 07:20  09 38 34.72    +11 53 42.4   0.0098 1.0026 150.0     20?   2.40 193.5   57 224 110  11
   2024 03 13 07:30  09 38 34.36    +11 53 19.0   0.0098 1.0026 150.0     20?   2.41 192.1   55 227 109  11
   2024 03 13 07:40  09 38 34.03    +11 52 55.3   0.0098 1.0026 150.0     20?   2.42 190.5   54 231 109  12
   2024 03 13 07:50  09 38 33.76    +11 52 31.4   0.0098 1.0026 150.0     20?   2.43 188.9   52 234 109  12
   2024 03 13 08:00  09 38 33.53    +11 52 07.2   0.0098 1.0026 150.0     20?   2.45 187.1   50 237 109  12
   2024 03 13 08:10  09 38 33.35    +11 51 42.8   0.0098 1.0026 150.0     20?   2.46 185.3   49 239 109  12
   2024 03 13 08:20  09 38 33.22    +11 51 18.2   0.0098 1.0026 150.0     20?   2.48 183.4   47 242 109  12
   2024 03 13 08:30  09 38 33.15    +11 50 53.3   0.0098 1.0026 150.0     20?   2.50 181.4   45 244 109  12
   2024 03 13 08:40  09 38 33.14    +11 50 28.3   0.0098 1.0026 150.0     20?   2.52 179.3   43 247 109  12
   2024 03 13 08:50  09 38 33.20    +11 50 03.0   0.0098 1.0026 150.0     20?   2.54 177.1   41 249 108  12
   2024 03 13 09:00  09 38 33.32    +11 49 37.6   0.0098 1.0026 150.0     20?   2.56 174.9   40 251 108  12
   2024 03 13 09:10  09 38 33.51    +11 49 11.9   0.0098 1.0026 150.0     20?   2.59 172.7   38 253 108  12
   2024 03 13 09:20  09 38 33.77    +11 48 46.1   0.0098 1.0026 150.0     20?   2.63 170.4   36 255 108  12
   2024 03 13 09:30  09 38 34.11    +11 48 20.2   0.0098 1.0026 149.9     20?   2.66 168.1   34 257 108  12
   2024 03 13 09:40  09 38 34.52    +11 47 54.1   0.0098 1.0026 149.9     20?   2.70 165.8   32 259 108  12
   2024 03 13 09:50  09 38 35.01    +11 47 27.8   0.0098 1.0026 149.9     20?   2.75 163.5   30 260 108  12
   2024 03 13 10:00  09 38 35.58    +11 47 01.4   0.0098 1.0026 149.9     20?   2.79 161.2   28 262 108  12
   2024 03 13 10:10  09 38 36.24    +11 46 34.9   0.0098 1.0026 149.9     20?   2.85 159.0   26 264 107  13
   2024 03 13 10:20  09 38 36.98    +11 46 08.3   0.0098 1.0026 149.9     20?   2.90 156.7   24 265 107  13
   2024 03 13 10:30  09 38 37.80    +11 45 41.6   0.0098 1.0026 149.9     20?   2.96 154.6   22 267 107  13
   2024 03 13 10:40  09 38 38.71    +11 45 14.7   0.0098 1.0026 149.9     20?   3.03 152.4   20 268 107  13
   2024 03 13 10:50  09 38 39.72    +11 44 47.9   0.0098 1.0026 149.9     20?   3.10 150.3   18 270 107  13
   2024 03 13 11:00  09 38 40.81    +11 44 20.9   0.0098 1.0026 149.9     20?   3.17 148.3   16 272 107  13
   2024 03 13 11:10  09 38 41.99    +11 43 53.9   0.0098 1.0026 149.9     20?   3.25 146.3   14 273 107  13
   2024 03 13 11:20  09 38 43.26    +11 43 26.9   0.0098 1.0026 149.9     20?   3.33 144.4   12 274 107  13
   2024 03 13 11:30  09 38 44.62    +11 42 59.8   0.0098 1.0026 149.9     20?   3.41 142.6   10 276 106  13
   2024 03 13 11:40  09 38 46.08    +11 42 32.7   0.0098 1.0026 149.9     20?   3.49 140.9    8 277 106  13
   2024 03 13 11:50  09 38 47.63    +11 42 05.6   0.0098 1.0026 149.9     20?   3.58 139.2    6 279 106  13
   2024 03 13 12:00  09 38 49.27    +11 41 38.6   0.0098 1.0026 149.9     20?   3.67 137.6    4 280 106  13
   2024 03 13 12:10  09 38 51.00    +11 41 11.5   0.0098 1.0026 149.9     20?   3.76 136.0    2 282 106  13
   2024 03 13 12:20  09 38 52.83    +11 40 44.5   0.0098 1.0026 149.9     20?   3.85 134.5    0 283 106  14
   ................
   2024 03 14 01:50  09 42 32.25    +11 13 50.7   0.0098 1.0027 150.4 Cm  20?   1.80 152.9   30  99 100  18
   2024 03 14 02:00  09 42 32.77    +11 13 34.6   0.0098 1.0027 150.4 Cm  20?   1.77 156.4   32 101  99  18
   2024 03 14 02:10  09 42 33.21    +11 13 18.3   0.0098 1.0027 150.4 Nm  20?   1.74 160.1   34 103  99  18
   2024 03 14 02:20  09 42 33.58    +11 13 01.9   0.0098 1.0027 150.3 Nm  20?   1.72 163.7   36 105  99  18
   2024 03 14 02:30  09 42 33.87    +11 12 45.3   0.0098 1.0027 150.3 Nm  20?   1.71 167.2   38 107  99  18
   2024 03 14 02:40  09 42 34.09    +11 12 28.5   0.0098 1.0027 150.3 Am  20?   1.71 170.7   39 109  99  18
   2024 03 14 02:50  09 42 34.25    +11 12 11.6   0.0098 1.0027 150.3 Am  20?   1.72 174.0   41 111  99  18
   2024 03 14 03:00  09 42 34.34    +11 11 54.4   0.0098 1.0027 150.3 Am  20?   1.73 177.2   43 113  99  18
   2024 03 14 03:10  09 42 34.36    +11 11 37.0   0.0097 1.0027 150.3  m  20?   1.75 180.2   45 116  99  18
   2024 03 14 03:20  09 42 34.33    +11 11 19.5   0.0097 1.0027 150.3  m  20?   1.77 182.9   47 118  99  18
   2024 03 14 03:30  09 42 34.24    +11 11 01.7   0.0097 1.0028 150.3  m  20?   1.80 185.4   48 121  99  18
   2024 03 14 03:40  09 42 34.10    +11 10 43.7   0.0097 1.0028 150.3  m  20?   1.83 187.7   50 124  99  18
   2024 03 14 03:50  09 42 33.91    +11 10 25.4   0.0097 1.0028 150.3  m  20?   1.86 189.8   52 127  99  18
   2024 03 14 04:00  09 42 33.68    +11 10 07.0   0.0097 1.0028 150.3  m  20?   1.90 191.6   53 130  99  19
   2024 03 14 04:10  09 42 33.40    +11 09 48.3   0.0097 1.0028 150.3  m  20?   1.93 193.2   55 133  98  19
   2024 03 14 04:20  09 42 33.08    +11 09 29.3   0.0097 1.0028 150.3  m  20?   1.97 194.6   56 137  98  19
   2024 03 14 04:30  09 42 32.73    +11 09 10.1   0.0097 1.0028 150.3  m  20?   2.01 195.7   57 141  98  19
   2024 03 14 04:40  09 42 32.34    +11 08 50.6   0.0097 1.0028 150.3  m  20?   2.04 196.7   59 145  98  19
   2024 03 14 04:50  09 42 31.93    +11 08 30.9   0.0097 1.0028 150.3  m  20?   2.08 197.5   60 149  98  19
   2024 03 14 05:00  09 42 31.50    +11 08 11.0   0.0097 1.0028 150.3  m  20?   2.11 198.1   61 154  98  19
   2024 03 14 05:10  09 42 31.04    +11 07 50.7   0.0097 1.0028 150.2  m  20?   2.15 198.5   61 159  98  19
   2024 03 14 05:20  09 42 30.57    +11 07 30.2   0.0097 1.0028 150.2  m  20?   2.18 198.8   62 164  98  19
   2024 03 14 05:30  09 42 30.09    +11 07 09.5   0.0097 1.0028 150.2  m  20?   2.21 198.9   62 169  98  19
   2024 03 14 05:40  09 42 29.60    +11 06 48.4   0.0097 1.0028 150.2  m  20?   2.24 198.9   63 174  98  19
   2024 03 14 05:50  09 42 29.11    +11 06 27.2   0.0097 1.0028 150.2  t  20?   2.26 198.7   63 180  97  19
   2024 03 14 06:00  09 42 28.62    +11 06 05.6   0.0097 1.0028 150.2  m  20?   2.29 198.4   63 185  97  19
   2024 03 14 06:10  09 42 28.13    +11 05 43.8   0.0097 1.0028 150.2  m  20?   2.31 198.0   62 191  97  19
   2024 03 14 06:20  09 42 27.65    +11 05 21.7   0.0097 1.0028 150.2     20?   2.33 197.4   62 196  97  19
   2024 03 14 06:30  09 42 27.18    +11 04 59.4   0.0097 1.0028 150.2     20?   2.35 196.7   61 201  97  19
   2024 03 14 06:40  09 42 26.74    +11 04 36.8   0.0097 1.0028 150.2     20?   2.36 195.9   60 206  97  20
   2024 03 14 06:50  09 42 26.31    +11 04 13.9   0.0097 1.0028 150.2     20?   2.38 194.9   59 211  97  20
   2024 03 14 07:00  09 42 25.91    +11 03 50.8   0.0097 1.0028 150.2     20?   2.39 193.9   58 215  97  20
   2024 03 14 07:10  09 42 25.53    +11 03 27.5   0.0097 1.0028 150.2     20?   2.41 192.7   57 219  97  20
   2024 03 14 07:20  09 42 25.19    +11 03 03.9   0.0097 1.0028 150.2     20?   2.42 191.4   56 223  97  20
   2024 03 14 07:30  09 42 24.89    +11 02 40.0   0.0097 1.0028 150.1     20?   2.43 190.0   54 226  96  20
   2024 03 14 07:40  09 42 24.62    +11 02 15.9   0.0097 1.0028 150.1     20?   2.45 188.5   53 230  96  20
   2024 03 14 07:50  09 42 24.40    +11 01 51.6   0.0097 1.0028 150.1     20?   2.46 186.8   51 233  96  20
   2024 03 14 08:00  09 42 24.23    +11 01 27.1   0.0097 1.0028 150.1     20?   2.47 185.1   50 236  96  20
   2024 03 14 08:10  09 42 24.10    +11 01 02.4   0.0097 1.0028 150.1     20?   2.49 183.3   48 239  96  20
   2024 03 14 08:20  09 42 24.03    +11 00 37.4   0.0097 1.0028 150.1     20?   2.51 181.4   46 241  96  20
   2024 03 14 08:30  09 42 24.02    +11 00 12.3   0.0097 1.0028 150.1     20?   2.53 179.4   45 244  96  20
   2024 03 14 08:40  09 42 24.07    +10 59 46.9   0.0097 1.0028 150.1     20?   2.55 177.4   43 246  96  20
   2024 03 14 08:50  09 42 24.19    +10 59 21.4   0.0097 1.0028 150.1     20?   2.57 175.2   41 248  95  21
   2024 03 14 09:00  09 42 24.37    +10 58 55.6   0.0097 1.0028 150.1     20?   2.60 173.1   39 250  95  21
   2024 03 14 09:10  09 42 24.61    +10 58 29.8   0.0097 1.0028 150.1     20?   2.63 170.9   37 252  95  21
   2024 03 14 09:20  09 42 24.93    +10 58 03.7   0.0097 1.0028 150.1     20?   2.66 168.6   35 254  95  21
   2024 03 14 09:30  09 42 25.33    +10 57 37.5   0.0097 1.0028 150.1     20?   2.70 166.4   33 256  95  21
   2024 03 14 09:40  09 42 25.80    +10 57 11.2   0.0097 1.0028 150.1     20?   2.75 164.1   31 258  95  21
   2024 03 14 09:50  09 42 26.35    +10 56 44.7   0.0097 1.0028 150.1     20?   2.79 161.9   29 260  95  21
   2024 03 14 10:00  09 42 26.98    +10 56 18.1   0.0097 1.0028 150.1     20?   2.84 159.6   27 261  95  21
   2024 03 14 10:10  09 42 27.70    +10 55 51.4   0.0097 1.0028 150.1     20?   2.90 157.4   26 263  94  21
   2024 03 14 10:20  09 42 28.50    +10 55 24.6   0.0097 1.0028 150.1     20?   2.96 155.2   24 265  94  21
   2024 03 14 10:30  09 42 29.38    +10 54 57.7   0.0097 1.0028 150.1     20?   3.02 153.1   22 266  94  21
   2024 03 14 10:40  09 42 30.36    +10 54 30.7   0.0097 1.0028 150.1     20?   3.09 151.0   20 268  94  21
   2024 03 14 10:50  09 42 31.42    +10 54 03.6   0.0097 1.0028 150.1     20?   3.16 149.0   18 269  94  22
   2024 03 14 11:00  09 42 32.57    +10 53 36.5   0.0097 1.0028 150.1     20?   3.24 147.0   16 271  94  22
   2024 03 14 11:10  09 42 33.81    +10 53 09.4   0.0097 1.0028 150.1     20?   3.32 145.1   14 272  94  22
   2024 03 14 11:20  09 42 35.15    +10 52 42.2   0.0098 1.0028 150.1     20?   3.40 143.3   12 274  94  22
   2024 03 14 11:30  09 42 36.57    +10 52 14.9   0.0098 1.0028 150.1     20?   3.48 141.5   10 275  94  22
   2024 03 14 11:40  09 42 38.09    +10 51 47.7   0.0098 1.0028 150.1     20?   3.57 139.8    8 277  93  22
   2024 03 14 11:50  09 42 39.70    +10 51 20.5   0.0098 1.0028 150.1     20?   3.66 138.2    6 278  93  22
   2024 03 14 12:00  09 42 41.41    +10 50 53.2   0.0098 1.0028 150.1     20?   3.75 136.6    4 280  93  22
   2024 03 14 12:10  09 42 43.20    +10 50 26.0   0.0098 1.0028 150.1     20?   3.84 135.1    2 281  93  22
   2024 03 14 12:20  09 42 45.09    +10 49 58.8   0.0098 1.0028 150.1 A   20?   3.94 133.7    0 283  93  22
   ................
   2024 03 15 01:50  09 46 29.84    +10 22 12.5   0.0097 1.0030 150.5 Cm  20?   1.93 151.8   29 100  87  28
   2024 03 15 02:00  09 46 30.42    +10 21 55.4   0.0097 1.0030 150.5 Cm  20?   1.89 155.1   31 102  87  28
   2024 03 15 02:10  09 46 30.92    +10 21 38.2   0.0097 1.0030 150.5 Nm  20?   1.86 158.5   33 104  87  28
   2024 03 15 02:20  09 46 31.34    +10 21 20.8   0.0097 1.0030 150.5 Nm  20?   1.83 161.8   35 106  86  28
   2024 03 15 02:30  09 46 31.69    +10 21 03.3   0.0097 1.0030 150.5 Nm  20?   1.82 165.2   37 108  86  28
   2024 03 15 02:40  09 46 31.98    +10 20 45.7   0.0097 1.0030 150.5 Am  20?   1.81 168.5   39 110  86  28
   2024 03 15 02:50  09 46 32.19    +10 20 27.8   0.0097 1.0030 150.5 Am  20?   1.81 171.6   41 112  86  28
   2024 03 15 03:00  09 46 32.34    +10 20 09.8   0.0097 1.0030 150.5 Am  20?   1.82 174.6   43 114  86  28
   2024 03 15 03:10  09 46 32.42    +10 19 51.6   0.0097 1.0030 150.5  m  20?   1.83 177.5   44 116  86  28
   2024 03 15 03:20  09 46 32.45    +10 19 33.1   0.0097 1.0030 150.5  m  20?   1.85 180.2   46 119  86  28
   2024 03 15 03:30  09 46 32.42    +10 19 14.5   0.0097 1.0030 150.5  m  20?   1.87 182.6   48 122  86  28
   2024 03 15 03:40  09 46 32.33    +10 18 55.7   0.0097 1.0030 150.5  m  20?   1.90 184.9   49 124  86  28
   2024 03 15 03:50  09 46 32.20    +10 18 36.7   0.0097 1.0030 150.5  m  20?   1.93 186.9   51 127  86  28
   2024 03 15 04:00  09 46 32.02    +10 18 17.4   0.0097 1.0030 150.5  m  20?   1.96 188.8   53 131  86  28
   2024 03 15 04:10  09 46 31.80    +10 17 57.9   0.0097 1.0030 150.5  m  20?   1.99 190.4   54 134  86  28
   2024 03 15 04:20  09 46 31.54    +10 17 38.2   0.0097 1.0030 150.4  m  20?   2.02 191.8   55 138  86  28
   2024 03 15 04:30  09 46 31.24    +10 17 18.3   0.0097 1.0030 150.4  m  20?   2.06 193.0   57 141  86  28
   2024 03 15 04:40  09 46 30.91    +10 16 58.1   0.0097 1.0030 150.4  m  20?   2.09 194.0   58 145  85  28
   2024 03 15 04:50  09 46 30.56    +10 16 37.7   0.0097 1.0030 150.4  m  20?   2.12 194.8   59 150  85  28
   2024 03 15 05:00  09 46 30.18    +10 16 17.0   0.0097 1.0030 150.4  m  20?   2.16 195.5   60 154  85  29
   2024 03 15 05:10  09 46 29.78    +10 15 56.2   0.0097 1.0030 150.4  m  20?   2.19 196.0   61 159  85  29
   2024 03 15 05:20  09 46 29.36    +10 15 35.0   0.0097 1.0030 150.4  m  20?   2.21 196.3   61 164  85  29
   2024 03 15 05:30  09 46 28.94    +10 15 13.6   0.0097 1.0030 150.4  m  20?   2.24 196.5   62 169  85  29
   2024 03 15 05:40  09 46 28.51    +10 14 52.0   0.0097 1.0030 150.4  m  20?   2.27 196.5   62 175  85  29
   2024 03 15 05:50  09 46 28.07    +10 14 30.1   0.0097 1.0030 150.4  t  20?   2.29 196.4   62 180  85  29
   2024 03 15 06:00  09 46 27.63    +10 14 08.0   0.0097 1.0030 150.4  m  20?   2.31 196.1   62 185  85  29
   2024 03 15 06:10  09 46 27.20    +10 13 45.6   0.0097 1.0030 150.4  m  20?   2.34 195.7   61 190  85  29
   2024 03 15 06:20  09 46 26.78    +10 13 23.0   0.0097 1.0030 150.4  m  20?   2.35 195.2   61 196  85  29
   2024 03 15 06:30  09 46 26.37    +10 13 00.2   0.0097 1.0030 150.4  m  20?   2.37 194.5   60 201  84  29
   2024 03 15 06:40  09 46 25.98    +10 12 37.1   0.0097 1.0030 150.4  m  20?   2.39 193.7   60 205  84  29
   2024 03 15 06:50  09 46 25.61    +10 12 13.8   0.0097 1.0030 150.3  m  20?   2.40 192.8   59 210  84  29
   2024 03 15 07:00  09 46 25.26    +10 11 50.2   0.0097 1.0030 150.3  m  20?   2.42 191.8   58 214  84  29
   2024 03 15 07:10  09 46 24.94    +10 11 26.4   0.0097 1.0030 150.3  m  20?   2.43 190.6   56 218  84  29
   2024 03 15 07:20  09 46 24.66    +10 11 02.4   0.0097 1.0030 150.3  m  20?   2.45 189.3   55 222  84  30
   2024 03 15 07:30  09 46 24.41    +10 10 38.1   0.0097 1.0030 150.3     20?   2.46 187.9   54 225  84  30
   2024 03 15 07:40  09 46 24.20    +10 10 13.7   0.0097 1.0030 150.3     20?   2.47 186.4   52 229  84  30
   2024 03 15 07:50  09 46 24.03    +10 09 49.0   0.0097 1.0030 150.3     20?   2.49 184.8   51 232  84  30
   2024 03 15 08:00  09 46 23.92    +10 09 24.1   0.0097 1.0030 150.3     20?   2.50 183.1   49 235  84  30
   2024 03 15 08:10  09 46 23.85    +10 08 59.0   0.0097 1.0030 150.3     20?   2.52 181.4   47 238  83  30
   2024 03 15 08:20  09 46 23.84    +10 08 33.8   0.0097 1.0030 150.3     20?   2.54 179.5   46 240  83  30
   2024 03 15 08:30  09 46 23.89    +10 08 08.3   0.0097 1.0030 150.3     20?   2.56 177.5   44 243  83  30
   2024 03 15 08:40  09 46 23.99    +10 07 42.7   0.0097 1.0030 150.3     20?   2.58 175.5   42 245  83  30
   2024 03 15 08:50  09 46 24.16    +10 07 16.8   0.0097 1.0030 150.3     20?   2.61 173.4   40 247  83  30
   2024 03 15 09:00  09 46 24.40    +10 06 50.9   0.0097 1.0030 150.3     20?   2.64 171.3   38 249  83  30
   2024 03 15 09:10  09 46 24.71    +10 06 24.7   0.0097 1.0030 150.3     20?   2.67 169.1   37 251  83  30
   2024 03 15 09:20  09 46 25.08    +10 05 58.4   0.0097 1.0030 150.3     20?   2.71 166.9   35 253  83  31
   2024 03 15 09:30  09 46 25.54    +10 05 32.0   0.0097 1.0030 150.3     20?   2.75 164.7   33 255  83  31
   2024 03 15 09:40  09 46 26.07    +10 05 05.4   0.0097 1.0030 150.3     20?   2.79 162.5   31 257  82  31
   2024 03 15 09:50  09 46 26.68    +10 04 38.8   0.0097 1.0030 150.3     20?   2.84 160.3   29 259  82  31
   2024 03 15 10:00  09 46 27.37    +10 04 12.0   0.0097 1.0030 150.3     20?   2.89 158.1   27 261  82  31
   2024 03 15 10:10  09 46 28.14    +10 03 45.1   0.0097 1.0030 150.2     20?   2.95 155.9   25 262  82  31
   2024 03 15 10:20  09 46 29.00    +10 03 18.1   0.0097 1.0030 150.2     20?   3.01 153.8   23 264  82  31
   2024 03 15 10:30  09 46 29.94    +10 02 51.0   0.0097 1.0030 150.2     20?   3.08 151.7   21 265  82  31
   2024 03 15 10:40  09 46 30.98    +10 02 23.8   0.0097 1.0030 150.2     20?   3.15 149.7   19 267  82  31
   2024 03 15 10:50  09 46 32.10    +10 01 56.6   0.0097 1.0030 150.2     20?   3.22 147.7   17 269  82  31
   2024 03 15 11:00  09 46 33.31    +10 01 29.4   0.0097 1.0031 150.2     20?   3.30 145.8   15 270  82  31
   2024 03 15 11:10  09 46 34.61    +10 01 02.0   0.0097 1.0031 150.2     20?   3.38 143.9   13 272  81  32
   2024 03 15 11:20  09 46 36.01    +10 00 34.7   0.0097 1.0031 150.2     20?   3.47 142.1   11 273  81  32
   2024 03 15 11:30  09 46 37.50    +10 00 07.3   0.0097 1.0031 150.2     20?   3.55 140.4    9 275  81  32
   2024 03 15 11:40  09 46 39.08    +09 59 39.9   0.0097 1.0031 150.2     20?   3.64 138.8    7 276  81  32
   2024 03 15 11:50  09 46 40.75    +09 59 12.5   0.0097 1.0031 150.2     20?   3.74 137.2    5 278  81  32
   2024 03 15 12:00  09 46 42.52    +09 58 45.2   0.0097 1.0031 150.2     20?   3.83 135.7    3 279  81  32
   2024 03 15 12:10  09 46 44.38    +09 58 17.8   0.0097 1.0031 150.3     20?   3.93 134.2    1 281  81  32
   2024 03 15 12:20  09 46 46.33    +09 57 50.4   0.0097 1.0031 150.3 A   20?   4.02 132.8    0 282  81  32
   ................
   2024 03 16 01:50  09 50 36.48    +09 29 10.3   0.0096 1.0032 150.7 Cm  20?   2.06 150.8   29 101  74  38
   2024 03 16 02:00  09 50 37.12    +09 28 52.3   0.0096 1.0032 150.7 Cm  20?   2.02 153.9   31 103  74  38
   2024 03 16 02:10  09 50 37.68    +09 28 34.1   0.0096 1.0032 150.7 Nm  20?   1.98 157.0   33 105  74  38
   2024 03 16 02:20  09 50 38.16    +09 28 15.8   0.0096 1.0032 150.7 Nm  20?   1.95 160.2   35 106  74  38
   2024 03 16 02:30  09 50 38.58    +09 27 57.3   0.0096 1.0032 150.7 Nm  20?   1.93 163.3   36 108  74  38
   2024 03 16 02:40  09 50 38.92    +09 27 38.8   0.0096 1.0032 150.7 Am  20?   1.92 166.4   38 111  74  38
   2024 03 16 02:50  09 50 39.19    +09 27 20.0   0.0096 1.0032 150.7 Am  20?   1.92 169.4   40 113  74  38
   2024 03 16 03:00  09 50 39.40    +09 27 01.1   0.0096 1.0032 150.7 Am  20?   1.92 172.3   42 115  74  38
   2024 03 16 03:10  09 50 39.54    +09 26 42.0   0.0096 1.0032 150.7 Am  20?   1.93 175.0   44 117  74  38
   2024 03 16 03:20  09 50 39.62    +09 26 22.7   0.0096 1.0032 150.7  m  20?   1.94 177.6   45 120  74  38
   2024 03 16 03:30  09 50 39.65    +09 26 03.2   0.0096 1.0032 150.7  m  20?   1.96 180.0   47 122  74  38
   2024 03 16 03:40  09 50 39.62    +09 25 43.6   0.0096 1.0032 150.7  m  20?   1.98 182.2   49 125  74  38
   2024 03 16 03:50  09 50 39.55    +09 25 23.7   0.0096 1.0032 150.7  m  20?   2.00 184.3   50 128  74  39
   2024 03 16 04:00  09 50 39.43    +09 25 03.7   0.0096 1.0032 150.7  m  20?   2.03 186.1   52 131  74  39
   2024 03 16 04:10  09 50 39.26    +09 24 43.4   0.0096 1.0032 150.7  m  20?   2.05 187.7   53 135  73  39
   2024 03 16 04:20  09 50 39.06    +09 24 22.9   0.0096 1.0032 150.7  m  20?   2.08 189.1   55 138  73  39
   2024 03 16 04:30  09 50 38.82    +09 24 02.2   0.0096 1.0032 150.7  m  20?   2.11 190.4   56 142  73  39
   2024 03 16 04:40  09 50 38.54    +09 23 41.3   0.0096 1.0032 150.6  m  20?   2.14 191.4   57 146  73  39
   2024 03 16 04:50  09 50 38.25    +09 23 20.2   0.0096 1.0032 150.6  m  20?   2.17 192.3   58 150  73  39
   2024 03 16 05:00  09 50 37.92    +09 22 58.9   0.0096 1.0032 150.6  m  20?   2.20 193.0   59 155  73  39
   2024 03 16 05:10  09 50 37.58    +09 22 37.3   0.0096 1.0032 150.6  m  20?   2.23 193.5   60 160  73  39
   2024 03 16 05:20  09 50 37.22    +09 22 15.5   0.0096 1.0032 150.6  m  20?   2.26 193.9   60 164  73  39
   2024 03 16 05:30  09 50 36.85    +09 21 53.5   0.0096 1.0032 150.6  m  20?   2.28 194.1   61 169  73  39
   2024 03 16 05:40  09 50 36.47    +09 21 31.3   0.0096 1.0032 150.6  m  20?   2.31 194.2   61 175  73  39
   2024 03 16 05:50  09 50 36.09    +09 21 08.8   0.0096 1.0032 150.6  t  20?   2.33 194.1   61 180  73  39
   2024 03 16 06:00  09 50 35.71    +09 20 46.1   0.0096 1.0032 150.6  m  20?   2.35 193.8   61 185  73  39
   2024 03 16 06:10  09 50 35.34    +09 20 23.2   0.0096 1.0032 150.6  m  20?   2.37 193.5   61 190  73  39
   2024 03 16 06:20  09 50 34.97    +09 20 00.1   0.0096 1.0032 150.6  m  20?   2.39 193.0   60 195  72  39
   2024 03 16 06:30  09 50 34.62    +09 19 36.7   0.0096 1.0032 150.6  m  20?   2.40 192.3   60 200  72  40
   2024 03 16 06:40  09 50 34.28    +09 19 13.1   0.0096 1.0032 150.6  m  20?   2.42 191.6   59 205  72  40
   2024 03 16 06:50  09 50 33.96    +09 18 49.3   0.0096 1.0032 150.6  m  20?   2.43 190.7   58 209  72  40
   2024 03 16 07:00  09 50 33.67    +09 18 25.3   0.0096 1.0032 150.5  m  20?   2.45 189.7   57 213  72  40
   2024 03 16 07:10  09 50 33.41    +09 18 01.1   0.0096 1.0032 150.5  m  20?   2.46 188.6   56 217  72  40
   2024 03 16 07:20  09 50 33.18    +09 17 36.6   0.0096 1.0032 150.5  m  20?   2.47 187.3   54 221  72  40
   2024 03 16 07:30  09 50 32.98    +09 17 12.0   0.0096 1.0032 150.5  m  20?   2.49 186.0   53 225  72  40
   2024 03 16 07:40  09 50 32.83    +09 16 47.1   0.0096 1.0033 150.5  m  20?   2.50 184.5   52 228  72  40
   2024 03 16 07:50  09 50 32.72    +09 16 22.1   0.0096 1.0033 150.5  m  20?   2.52 182.9   50 231  72  40
   2024 03 16 08:00  09 50 32.66    +09 15 56.9   0.0096 1.0033 150.5  m  20?   2.53 181.3   48 234  72  40
   2024 03 16 08:10  09 50 32.65    +09 15 31.4   0.0096 1.0033 150.5  m  20?   2.55 179.5   47 237  71  40
   2024 03 16 08:20  09 50 32.69    +09 15 05.9   0.0096 1.0033 150.5  m  20?   2.57 177.6   45 239  71  40
   2024 03 16 08:30  09 50 32.80    +09 14 40.1   0.0096 1.0033 150.5  m  20?   2.59 175.7   43 242  71  40
   2024 03 16 08:40  09 50 32.96    +09 14 14.2   0.0096 1.0033 150.5     20?   2.62 173.7   42 244  71  41
   2024 03 16 08:50  09 50 33.18    +09 13 48.1   0.0096 1.0033 150.5     20?   2.64 171.7   40 246  71  41
   2024 03 16 09:00  09 50 33.48    +09 13 21.8   0.0096 1.0033 150.5     20?   2.68 169.6   38 248  71  41
   2024 03 16 09:10  09 50 33.84    +09 12 55.5   0.0096 1.0033 150.5     20?   2.71 167.5   36 251  71  41
   2024 03 16 09:20  09 50 34.28    +09 12 28.9   0.0096 1.0033 150.5     20?   2.75 165.3   34 252  71  41
   2024 03 16 09:30  09 50 34.78    +09 12 02.3   0.0096 1.0033 150.5     20?   2.79 163.1   32 254  71  41
   2024 03 16 09:40  09 50 35.37    +09 11 35.5   0.0096 1.0033 150.5     20?   2.84 161.0   30 256  71  41
   2024 03 16 09:50  09 50 36.04    +09 11 08.6   0.0096 1.0033 150.5     20?   2.89 158.8   28 258  70  41
   2024 03 16 10:00  09 50 36.79    +09 10 41.7   0.0096 1.0033 150.5     20?   2.95 156.6   26 260  70  41
   2024 03 16 10:10  09 50 37.62    +09 10 14.6   0.0096 1.0033 150.5     20?   3.00 154.5   24 261  70  41
   2024 03 16 10:20  09 50 38.53    +09 09 47.4   0.0096 1.0033 150.5     20?   3.07 152.4   23 263  70  41
   2024 03 16 10:30  09 50 39.54    +09 09 20.2   0.0096 1.0033 150.5     20?   3.14 150.4   21 265  70  41
   2024 03 16 10:40  09 50 40.63    +09 08 52.9   0.0096 1.0033 150.5     20?   3.21 148.4   19 266  70  42
   2024 03 16 10:50  09 50 41.81    +09 08 25.5   0.0096 1.0033 150.5     20?   3.29 146.5   17 268  70  42
   2024 03 16 11:00  09 50 43.08    +09 07 58.1   0.0096 1.0033 150.5     20?   3.37 144.6   15 269  70  42
   2024 03 16 11:10  09 50 44.44    +09 07 30.6   0.0096 1.0033 150.5     20?   3.45 142.8   13 271  70  42
   2024 03 16 11:20  09 50 45.90    +09 07 03.1   0.0096 1.0033 150.5     20?   3.54 141.1   11 272  69  42
   2024 03 16 11:30  09 50 47.45    +09 06 35.6   0.0096 1.0033 150.5     20?   3.63 139.4    9 274  69  42
   2024 03 16 11:40  09 50 49.09    +09 06 08.1   0.0096 1.0033 150.5     20?   3.72 137.8    7 275  69  42
   2024 03 16 11:50  09 50 50.82    +09 05 40.6   0.0096 1.0033 150.5     20?   3.81 136.2    5 277  69  42
   2024 03 16 12:00  09 50 52.65    +09 05 13.1   0.0096 1.0033 150.5     20?   3.91 134.8    3 278  69  42
   2024 03 16 12:10  09 50 54.57    +09 04 45.6   0.0096 1.0033 150.5     20?   4.01 133.4    1 280  69  42
   ................
   2024 03 17 01:50  09 54 52.18    +08 34 43.3   0.0096 1.0034 151.0 Cm  20?   2.19 149.9   28 102  63  49
   2024 03 17 02:00  09 54 52.88    +08 34 24.3   0.0096 1.0034 151.0 Cm  20?   2.14 152.8   30 103  63  49
   2024 03 17 02:10  09 54 53.50    +08 34 05.1   0.0096 1.0034 151.0 Nm  20?   2.11 155.7   32 105  62  49
   2024 03 17 02:20  09 54 54.05    +08 33 45.9   0.0096 1.0034 151.0 Nm  20?   2.07 158.7   34 107  62  49
   2024 03 17 02:30  09 54 54.52    +08 33 26.5   0.0096 1.0034 151.0 Nm  20?   2.05 161.7   36 109  62  49
   2024 03 17 02:40  09 54 54.92    +08 33 06.9   0.0096 1.0034 151.0 Nm  20?   2.03 164.6   38 111  62  49
   2024 03 17 02:50  09 54 55.25    +08 32 47.3   0.0096 1.0034 151.0 Am  20?   2.02 167.4   39 113  62  49
   2024 03 17 03:00  09 54 55.52    +08 32 27.4   0.0096 1.0034 151.0 Am  20?   2.02 170.2   41 116  62  49
   2024 03 17 03:10  09 54 55.72    +08 32 07.4   0.0096 1.0034 150.9 Am  20?   2.02 172.8   43 118  62  49
   2024 03 17 03:20  09 54 55.86    +08 31 47.3   0.0096 1.0034 150.9  m  20?   2.03 175.3   45 121  62  49
   2024 03 17 03:30  09 54 55.95    +08 31 27.0   0.0096 1.0034 150.9  m  20?   2.04 177.6   46 123  62  49
   2024 03 17 03:40  09 54 55.98    +08 31 06.5   0.0096 1.0034 150.9  m  20?   2.06 179.8   48 126  62  49
   2024 03 17 03:50  09 54 55.96    +08 30 45.8   0.0096 1.0034 150.9  m  20?   2.08 181.8   50 129  62  49
   2024 03 17 04:00  09 54 55.90    +08 30 24.9   0.0096 1.0035 150.9  m  20?   2.10 183.6   51 132  62  49
   2024 03 17 04:10  09 54 55.79    +08 30 03.9   0.0096 1.0035 150.9  m  20?   2.12 185.2   52 136  62  49
   2024 03 17 04:20  09 54 55.64    +08 29 42.6   0.0096 1.0035 150.9  m  20?   2.15 186.6   54 139  62  49
   2024 03 17 04:30  09 54 55.46    +08 29 21.2   0.0096 1.0035 150.9  m  20?   2.17 187.9   55 143  62  49
   2024 03 17 04:40  09 54 55.24    +08 28 59.5   0.0096 1.0035 150.9  m  20?   2.20 188.9   56 147  62  49
   2024 03 17 04:50  09 54 55.00    +08 28 37.7   0.0096 1.0035 150.9  m  20?   2.23 189.8   57 151  62  49
   2024 03 17 05:00  09 54 54.73    +08 28 15.7   0.0096 1.0035 150.9  m  20?   2.25 190.6   58 155  61  49
   2024 03 17 05:10  09 54 54.44    +08 27 53.4   0.0096 1.0035 150.9  m  20?   2.28 191.1   59 160  61  50
   2024 03 17 05:20  09 54 54.14    +08 27 31.0   0.0096 1.0035 150.9  m  20?   2.30 191.5   59 165  61  50
   2024 03 17 05:30  09 54 53.82    +08 27 08.3   0.0096 1.0035 150.9  m  20?   2.32 191.8   60 170  61  50
   2024 03 17 05:40  09 54 53.50    +08 26 45.5   0.0096 1.0035 150.9  m  20?   2.35 191.9   60 175  61  50
   2024 03 17 05:50  09 54 53.18    +08 26 22.4   0.0096 1.0035 150.8  t  20?   2.37 191.9   60 180  61  50
   2024 03 17 06:00  09 54 52.85    +08 25 59.2   0.0096 1.0035 150.8  m  20?   2.39 191.7   60 185  61  50
   2024 03 17 06:10  09 54 52.53    +08 25 35.7   0.0096 1.0035 150.8  m  20?   2.40 191.3   60 190  61  50
   2024 03 17 06:20  09 54 52.21    +08 25 12.0   0.0096 1.0035 150.8  m  20?   2.42 190.9   59 195  61  50
   2024 03 17 06:30  09 54 51.91    +08 24 48.1   0.0096 1.0035 150.8  m  20?   2.44 190.3   59 199  61  50
   2024 03 17 06:40  09 54 51.63    +08 24 24.1   0.0096 1.0035 150.8  m  20?   2.45 189.6   58 204  61  50
   2024 03 17 06:50  09 54 51.37    +08 23 59.8   0.0096 1.0035 150.8  m  20?   2.47 188.7   57 208  61  50
   2024 03 17 07:00  09 54 51.13    +08 23 35.3   0.0096 1.0035 150.8  m  20?   2.48 187.7   56 212  61  50
   2024 03 17 07:10  09 54 50.92    +08 23 10.7   0.0096 1.0035 150.8  m  20?   2.49 186.6   55 216  60  50
   2024 03 17 07:20  09 54 50.75    +08 22 45.8   0.0096 1.0035 150.8  m  20?   2.51 185.4   54 220  60  50
   2024 03 17 07:30  09 54 50.61    +08 22 20.8   0.0096 1.0035 150.8  m  20?   2.52 184.1   52 224  60  50
   2024 03 17 07:40  09 54 50.51    +08 21 55.5   0.0096 1.0035 150.8  m  20?   2.53 182.6   51 227  60  50
   2024 03 17 07:50  09 54 50.45    +08 21 30.2   0.0096 1.0035 150.8  m  20?   2.55 181.1   49 230  60  51
   2024 03 17 08:00  09 54 50.44    +08 21 04.6   0.0096 1.0035 150.8  m  20?   2.57 179.5   48 233  60  51
   2024 03 17 08:10  09 54 50.49    +08 20 38.9   0.0096 1.0035 150.8  m  20?   2.58 177.7   46 236  60  51
   2024 03 17 08:20  09 54 50.59    +08 20 13.0   0.0096 1.0035 150.8  m  20?   2.60 175.9   44 238  60  51
   2024 03 17 08:30  09 54 50.74    +08 19 46.9   0.0096 1.0035 150.8  m  20?   2.63 174.0   43 241  60  51
   2024 03 17 08:40  09 54 50.96    +08 19 20.7   0.0096 1.0035 150.7  m  20?   2.65 172.0   41 243  60  51
   2024 03 17 08:50  09 54 51.24    +08 18 54.4   0.0096 1.0035 150.7  m  20?   2.68 170.0   39 245  60  51
   2024 03 17 09:00  09 54 51.59    +08 18 27.9   0.0096 1.0035 150.7  m  20?   2.71 168.0   37 248  60  51
   2024 03 17 09:10  09 54 52.00    +08 18 01.3   0.0096 1.0035 150.7  m  20?   2.75 165.9   36 250  59  51
   2024 03 17 09:20  09 54 52.49    +08 17 34.5   0.0096 1.0035 150.7  m  20?   2.79 163.8   34 252  59  51
   2024 03 17 09:30  09 54 53.06    +08 17 07.7   0.0096 1.0035 150.7  m  20?   2.84 161.6   32 253  59  51
   2024 03 17 09:40  09 54 53.70    +08 16 40.7   0.0096 1.0035 150.7     20?   2.88 159.5   30 255  59  51
   2024 03 17 09:50  09 54 54.42    +08 16 13.7   0.0096 1.0035 150.7     20?   2.94 157.4   28 257  59  51
   2024 03 17 10:00  09 54 55.22    +08 15 46.5   0.0096 1.0035 150.7     20?   3.00 155.3   26 259  59  52
   2024 03 17 10:10  09 54 56.11    +08 15 19.3   0.0096 1.0035 150.7     20?   3.06 153.2   24 261  59  52
   2024 03 17 10:20  09 54 57.08    +08 14 51.9   0.0096 1.0035 150.7     20?   3.12 151.2   22 262  59  52
   2024 03 17 10:30  09 54 58.14    +08 14 24.5   0.0096 1.0035 150.7     20?   3.19 149.2   20 264  59  52
   2024 03 17 10:40  09 54 59.29    +08 13 57.1   0.0096 1.0035 150.7     20?   3.27 147.2   18 265  59  52
   2024 03 17 10:50  09 55 00.53    +08 13 29.6   0.0096 1.0035 150.7     20?   3.35 145.3   16 267  58  52
   2024 03 17 11:00  09 55 01.86    +08 13 02.0   0.0096 1.0035 150.7     20?   3.43 143.5   14 268  58  52
   2024 03 17 11:10  09 55 03.28    +08 12 34.5   0.0096 1.0035 150.7     20?   3.51 141.8   12 270  58  52
   2024 03 17 11:20  09 55 04.79    +08 12 06.9   0.0096 1.0035 150.7     20?   3.60 140.1   10 272  58  52
   2024 03 17 11:30  09 55 06.40    +08 11 39.2   0.0096 1.0035 150.7     20?   3.70 138.4    8 273  58  52
   2024 03 17 11:40  09 55 08.09    +08 11 11.6   0.0096 1.0035 150.7     20?   3.79 136.9    6 275  58  52
   2024 03 17 11:50  09 55 09.89    +08 10 43.9   0.0096 1.0035 150.7     20?   3.89 135.4    4 276  58  53
   2024 03 17 12:00  09 55 11.77    +08 10 16.3   0.0096 1.0035 150.7     20?   3.98 133.9    2 278  58  53
   2024 03 17 12:10  09 55 13.75    +08 09 48.7   0.0096 1.0035 150.7     20?   4.08 132.6    0 279  58  53
   ................
   

CAPSTONE (JPL-ID: -1176)

   Date (UTC) HH:MM   RA              Dec         delta   r     elong SM  mag  '/hr    PA   alt  az moo ill
   ---- -- -- -----  -------------   -----------  ------ ------ ----- --  --- ------ ------ --- --- --- ---
   2024 03 04 10:40  17 24 31.86    -38 19 52.4   401684 0.9913  81.5  m  16?  23.62 105.4    0 141  10  41
   2024 03 04 10:50  17 24 51.05    -38 20 54.7   401489 0.9913  81.4  m  16?  23.22 105.1    1 142  10  41
   2024 03 04 11:00  17 25 09.94    -38 21 54.8   401298 0.9913  81.3  m  16?  22.82 104.7    2 144  10  41
   2024 03 04 11:10  17 25 28.55    -38 22 52.5   401111 0.9913  81.3  m  16?  22.44 104.4    3 146  10  40
   2024 03 04 11:20  17 25 46.88    -38 23 47.7   400929 0.9913  81.2  m  16?  22.07 103.9    4 147  10  40
   2024 03 04 11:30  17 26 04.96    -38 24 40.3   400752 0.9913  81.2  m  16?  21.71 103.4    5 149  10  40
   2024 03 04 11:40  17 26 22.79    -38 25 30.3   400581 0.9913  81.1  m  16?  21.37 102.9    6 151  10  40
   2024 03 04 11:50  17 26 40.38    -38 26 17.5   400415 0.9913  81.1  m  16?  21.04 102.4    7 152  10  40
   2024 03 04 12:00  17 26 57.75    -38 27 01.9   400254 0.9913  81.0  m  16?  20.73 101.7    7 154  10  40
   2024 03 04 12:10  17 27 14.91    -38 27 43.3   400099 0.9913  81.0  m  16?  20.44 101.1    8 156  10  40
   2024 03 04 12:20  17 27 31.88    -38 28 21.8   399950 0.9913  80.9  m  16?  20.16 100.4    9 157  10  40
   2024 03 04 12:30  17 27 48.67    -38 28 57.3   399807 0.9913  80.9  m  16?  19.90  99.6   10 159  10  40
   2024 03 04 12:40  17 28 05.29    -38 29 29.7   399670 0.9913  80.8 Am  16?  19.67  98.8   10 161  10  40
   2024 03 04 12:50  17 28 21.77    -38 29 58.9   399539 0.9913  80.8 Am  16?  19.45  98.0   11 163  10  40
   2024 03 04 13:00  17 28 38.11    -38 30 24.8   399414 0.9913  80.7 Am  16?  19.26  97.1   11 165  10  40
   2024 03 04 13:10  17 28 54.33    -38 30 47.6   399297 0.9913  80.7 Nm  16?  19.09  96.2   12 167  10  40
   2024 03 04 13:20  17 29 10.45    -38 31 07.0   399185 0.9913  80.7 Nm  16?  18.95  95.2   12 169  10  40
   2024 03 04 13:30  17 29 26.49    -38 31 23.1   399081 0.9913  80.6 Nm  16?  18.83  94.2   13 171  10  40
   2024 03 04 13:40  17 29 42.45    -38 31 35.8   398983 0.9913  80.6 Cm  16?  18.74  93.2   13 172  10  40
   2024 03 04 13:50  17 29 58.37    -38 31 45.2   398892 0.9913  80.5 Cm  16?  18.67  92.2   13 174  10  40
   ................
   2024 03 05 11:30  18 28 35.34    -37 03 10.2   389722 0.9911  69.8  m  16?  25.13  85.3    0 139   8  30
   2024 03 05 11:40  18 28 56.10    -37 02 49.2   389490 0.9911  69.7  m  16?  24.77  84.7    0 140   8  30
   2024 03 05 11:50  18 29 16.56    -37 02 25.7   389261 0.9911  69.6  m  16?  24.43  84.0    2 142   8  30
   2024 03 05 12:00  18 29 36.71    -37 01 59.7   389037 0.9911  69.6  m  16?  24.11  83.3    3 143   8  30
   2024 03 05 12:10  18 29 56.57    -37 01 31.1   388818 0.9911  69.5  m  16?  23.80  82.6    4 145   8  30
   2024 03 05 12:20  18 30 16.15    -37 00 59.8   388603 0.9911  69.4  m  16?  23.51  81.8    5 146   8  30
   2024 03 05 12:30  18 30 35.45    -37 00 25.8   388393 0.9911  69.4  m  16?  23.25  81.1    6 148   8  30
   2024 03 05 12:40  18 30 54.51    -36 59 48.8   388189 0.9911  69.3 Am  16?  23.00  80.2    7 150   8  30
   2024 03 05 12:50  18 31 13.32    -36 59 08.9   387990 0.9911  69.3 Am  16?  22.78  79.4    8 151   8  30
   2024 03 05 13:00  18 31 31.90    -36 58 26.0   387797 0.9911  69.2 Am  16?  22.58  78.5    9 153   8  29
   2024 03 05 13:10  18 31 50.26    -36 57 40.0   387609 0.9911  69.2 Nm  16?  22.40  77.6   10 155   8  29
   2024 03 05 13:20  18 32 08.42    -36 56 50.8   387427 0.9911  69.1 Nm  16?  22.25  76.6   10 157   8  29
   2024 03 05 13:30  18 32 26.40    -36 55 58.4   387252 0.9911  69.1 Nm  16?  22.12  75.7   11 159   8  29
   2024 03 05 13:40  18 32 44.20    -36 55 02.7   387083 0.9911  69.0 Cm  16?  22.01  74.7   12 160   8  29
   2024 03 05 13:50  18 33 01.85    -36 54 03.7   386920 0.9911  68.9 Cm  16?  21.94  73.8   12 162   8  29
   ................
   2024 03 06 12:10  19 34 17.18    -31 29 07.1   374398 0.9909  56.3  m  16?  32.91  61.0    0 132   4  20
   2024 03 06 12:20  19 34 39.54    -31 26 26.5   374131 0.9909  56.3  m  16?  32.72  60.2    2 133   4  20
   2024 03 06 12:30  19 35 01.61    -31 23 43.0   373868 0.9909  56.2  m  16?  32.55  59.4    3 135   4  20
   2024 03 06 12:40  19 35 23.37    -31 20 56.5   373610 0.9909  56.1 Am  16?  32.40  58.6    4 136   4  20
   2024 03 06 12:50  19 35 44.85    -31 18 06.7   373356 0.9909  56.0 Am  16?  32.28  57.8    6 138   4  20
   2024 03 06 13:00  19 36 06.06    -31 15 13.5   373107 0.9909  55.9 Am  16?  32.18  57.0    7 139   4  20
   2024 03 06 13:10  19 36 27.01    -31 12 17.0   372862 0.9909  55.9 Nm  16?  32.11  56.1    8 141   4  20
   2024 03 06 13:20  19 36 47.70    -31 09 17.0   372623 0.9909  55.8 Nm  16?  32.06  55.3   10 143   4  20
   2024 03 06 13:30  19 37 08.16    -31 06 13.3   372389 0.9909  55.7 Nm  16?  32.04  54.5   11 144   4  19
   2024 03 06 13:40  19 37 28.39    -31 03 06.0   372161 0.9909  55.6 Cm  16?  32.05  53.7   12 146   4  19
   2024 03 06 13:50  19 37 48.41    -30 59 54.9   371939 0.9909  55.6 Cm  16?  32.08  52.9   13 148   4  19
   ................
   2024 03 07 13:10  21 02 51.52    -26 53 32.0   369013 0.9906  37.8 Nm  17?  37.04 101.2    0 125   5  11
   2024 03 07 13:20  21 03 18.47    -26 54 43.8   368874 0.9906  37.7 Nm  17?  36.47 101.1    1 126   5  11
   2024 03 07 13:30  21 03 45.02    -26 55 53.7   368740 0.9906  37.6 Nm  17?  35.91 100.9    3 128   5  11
   2024 03 07 13:40  21 04 11.19    -26 57 01.5   368609 0.9906  37.6 Cm  17?  35.36 100.7    4 129   5  11
   2024 03 07 13:50  21 04 36.97    -26 58 07.1   368481 0.9906  37.5 Cm  17?  34.83 100.5    6 131   5  11
   ................
   2024 03 11 01:50  00 15 43.61    -10 51 00.2   374787 0.9910  14.3 Cm  18?  34.06  49.2    2 254  10   0
   2024 03 11 02:00  00 16 01.28    -10 47 17.6   374972 0.9910  14.3 Cm  18?  34.44  49.7    0 256  10   0
   ................
   2024 03 12 01:50  01 00 13.47    -01 54 15.0   369540 0.9914  22.7 Cm  17?  34.06  41.9   15 255   8   4
   2024 03 12 02:00  01 00 28.79    -01 50 01.2   369704 0.9914  22.8 Cm  17?  34.40  42.5   13 256   8   4
   2024 03 12 02:10  01 00 44.43    -01 45 47.1   369871 0.9914  22.8 Nm  17?  34.74  43.0   11 258   8   4
   2024 03 12 02:20  01 01 00.39    -01 41 32.9   370041 0.9914  22.9 Nm  17?  35.10  43.6   10 260   8   4
   2024 03 12 02:30  01 01 16.69    -01 37 18.4   370213 0.9914  23.0 Nm  17?  35.45  44.1    8 261   8   4
   2024 03 12 02:40  01 01 33.31    -01 33 03.8   370387 0.9915  23.0 Am  17?  35.81  44.7    6 263   8   4
   2024 03 12 02:50  01 01 50.27    -01 28 49.0   370562 0.9915  23.1 Am  17?  36.18  45.2    4 264   7   4
   2024 03 12 03:00  01 02 07.56    -01 24 34.0   370738 0.9915  23.2 Am  17?  36.55  45.8    2 266   7   4
   2024 03 12 03:10  01 02 25.19    -01 20 18.9   370915 0.9915  23.2  m  17?  36.93  46.3    0 267   7   4
   ................
   2024 03 13 01:50  01 44 40.34    +10 10 14.0   363164 0.9920  35.3 Cm  17?  45.58  31.8   31 258   2  10
   2024 03 13 02:00  01 44 56.78    +10 16 43.3   363313 0.9920  35.3 Cm  17?  46.16  32.2   29 260   2  10
   2024 03 13 02:10  01 45 13.66    +10 23 15.5   363466 0.9920  35.4 Nm  17?  46.78  32.7   27 261   2  10
   2024 03 13 02:20  01 45 31.01    +10 29 50.9   363623 0.9920  35.5 Nm  17?  47.42  33.2   25 263   2  10
   2024 03 13 02:30  01 45 48.84    +10 36 29.7   363784 0.9920  35.6 Nm  17?  48.11  33.7   23 265   2  10
   2024 03 13 02:40  01 46 07.17    +10 43 12.0   363949 0.9920  35.7 Am  17?  48.83  34.2   21 266   2  10
   2024 03 13 02:50  01 46 26.01    +10 49 58.2   364116 0.9920  35.8 Am  17?  49.59  34.7   19 268   2  10
   2024 03 13 03:00  01 46 45.40    +10 56 48.5   364287 0.9920  36.0 Am  17?  50.40  35.1   18 270   2  10
   2024 03 13 03:10  01 47 05.36    +11 03 43.1   364459 0.9920  36.1  m  17?  51.25  35.6   16 271   2  10
   2024 03 13 03:20  01 47 25.90    +11 10 42.4   364634 0.9920  36.2  m  17?  52.15  36.1   14 273   2  10
   2024 03 13 03:30  01 47 47.06    +11 17 46.7   364810 0.9920  36.3  m  17?  53.11  36.6   12 274   2  10
   2024 03 13 03:40  01 48 08.88    +11 24 56.2   364988 0.9921  36.4  m  17?  54.13  37.0   10 276   2  10
   2024 03 13 03:50  01 48 31.37    +11 32 11.5   365166 0.9921  36.5  m  17?  55.21  37.5    8 277   2  10
   2024 03 13 04:00  01 48 54.60    +11 39 32.7   365345 0.9921  36.7  m  17?  56.37  38.0    7 279   2  10
   2024 03 13 04:10  01 49 18.59    +11 47 00.5   365524 0.9921  36.8  m  17?  57.61  38.5    5 280   2  10
   2024 03 13 04:20  01 49 43.41    +11 54 35.3   365703 0.9921  36.9  m  17?  58.95  39.0    3 282   1  10
   2024 03 13 04:30  01 50 09.12    +12 02 17.4   365881 0.9921  37.1  m  17?  60.39  39.6    1 284   1  10
   2024 03 13 04:40  01 50 35.80    +12 10 07.5   366058 0.9921  37.2  m  17?  61.96  40.1    0 285   1  10
   ................
   2024 03 14 01:50  03 02 51.91    +14 29 19.6   372506 0.9928  53.8 Cm  16?  28.81  91.2   47 247   6  18
   2024 03 14 02:00  03 03 11.83    +14 29 13.7   372747 0.9928  53.8 Cm  16?  29.08  91.3   46 249   6  18
   2024 03 14 02:10  03 03 31.95    +14 29 07.1   372995 0.9928  53.9 Nm  16?  29.36  91.4   44 252   6  18
   2024 03 14 02:20  03 03 52.26    +14 28 59.8   373248 0.9928  54.0 Nm  16?  29.66  91.6   42 254   6  18
   2024 03 14 02:30  03 04 12.79    +14 28 52.0   373507 0.9928  54.1 Nm  16?  29.98  91.7   40 255   6  18
   2024 03 14 02:40  03 04 33.53    +14 28 43.6   373772 0.9928  54.1 Am  16?  30.31  91.7   38 257   6  18
   2024 03 14 02:50  03 04 54.51    +14 28 34.7   374042 0.9928  54.2 Am  16?  30.65  91.8   36 259   6  18
   2024 03 14 03:00  03 05 15.72    +14 28 25.2   374317 0.9928  54.3 Am  16?  31.00  91.9   34 261   6  18
   2024 03 14 03:10  03 05 37.18    +14 28 15.4   374597 0.9928  54.4  m  16?  31.36  91.9   33 262   6  18
   2024 03 14 03:20  03 05 58.89    +14 28 05.2   374881 0.9928  54.4  m  16?  31.74  92.0   31 264   6  18
   2024 03 14 03:30  03 06 20.86    +14 27 54.6   375170 0.9928  54.5  m  16?  32.12  92.0   29 266   6  18
   2024 03 14 03:40  03 06 43.09    +14 27 43.7   375462 0.9928  54.6  m  16?  32.51  92.0   27 267   6  18
   2024 03 14 03:50  03 07 05.60    +14 27 32.5   375757 0.9928  54.7  m  16?  32.91  92.1   25 269   6  18
   2024 03 14 04:00  03 07 28.39    +14 27 21.2   376056 0.9928  54.8  m  16?  33.32  92.1   23 270   6  19
   2024 03 14 04:10  03 07 51.46    +14 27 09.6   376357 0.9928  54.8  m  16?  33.73  92.1   21 272   6  19
   2024 03 14 04:20  03 08 14.81    +14 26 58.0   376660 0.9928  54.9  m  16?  34.15  92.1   19 273   6  19
   2024 03 14 04:30  03 08 38.45    +14 26 46.3   376966 0.9928  55.0  m  16?  34.57  92.0   17 274   6  19
   2024 03 14 04:40  03 09 02.38    +14 26 34.5   377273 0.9929  55.1  m  16?  35.00  92.0   15 276   6  19
   2024 03 14 04:50  03 09 26.61    +14 26 22.9   377582 0.9929  55.2  m  16?  35.43  92.0   13 277   6  19
   2024 03 14 05:00  03 09 51.13    +14 26 11.2   377891 0.9929  55.3  m  16?  35.85  91.9   12 279   6  19
   2024 03 14 05:10  03 10 15.95    +14 25 59.7   378201 0.9929  55.4  m  16?  36.29  91.9   10 280   6  19
   2024 03 14 05:20  03 10 41.06    +14 25 48.4   378511 0.9929  55.4  m  16?  36.72  91.8    8 281   6  19
   2024 03 14 05:30  03 11 06.47    +14 25 37.3   378821 0.9929  55.5  m  16?  37.14  91.8    6 283   6  19
   2024 03 14 05:40  03 11 32.18    +14 25 26.5   379131 0.9929  55.6  m  16?  37.57  91.7    4 284   6  19
   2024 03 14 05:50  03 11 58.18    +14 25 16.1   379440 0.9929  55.7  m  16?  38.00  91.7    2 286   6  19
   2024 03 14 06:00  03 12 24.47    +14 25 05.9   379747 0.9929  55.8  m  16?  38.42  91.6    1 287   6  19
   ................
   2024 03 15 01:50  04 00 25.81    +15 28 16.8   386123 0.9935  66.6 Cm  16?  21.79  85.8   57 233   9  28
   2024 03 15 02:00  04 00 40.92    +15 28 32.8   386308 0.9935  66.6 Cm  16?  21.99  86.1   56 236   9  28
   2024 03 15 02:10  04 00 56.17    +15 28 47.7   386500 0.9935  66.7 Nm  16?  22.21  86.4   54 239   9  28
   2024 03 15 02:20  04 01 11.58    +15 29 01.6   386699 0.9935  66.7 Nm  16?  22.45  86.7   52 242   9  28
   2024 03 15 02:30  04 01 27.17    +15 29 14.4   386905 0.9935  66.8 Nm  16?  22.70  87.0   51 245   9  28
   2024 03 15 02:40  04 01 42.95    +15 29 26.2   387118 0.9935  66.9 Am  16?  22.97  87.3   49 247   9  28
   2024 03 15 02:50  04 01 58.93    +15 29 37.1   387338 0.9935  66.9 Am  16?  23.26  87.5   47 249   9  28
   2024 03 15 03:00  04 02 15.11    +15 29 47.1   387564 0.9935  67.0 Am  16?  23.57  87.8   45 252   9  28
   2024 03 15 03:10  04 02 31.51    +15 29 56.2   387797 0.9935  67.0  m  16?  23.89  88.0   43 254   9  28
   2024 03 15 03:20  04 02 48.14    +15 30 04.5   388035 0.9935  67.1  m  16?  24.22  88.3   42 256   9  28
   2024 03 15 03:30  04 03 05.01    +15 30 12.0   388279 0.9935  67.2  m  16?  24.57  88.5   40 257   9  28
   2024 03 15 03:40  04 03 22.13    +15 30 18.7   388528 0.9935  67.2  m  16?  24.93  88.7   38 259   9  28
   2024 03 15 03:50  04 03 39.50    +15 30 24.7   388782 0.9935  67.3  m  16?  25.30  88.8   36 261   9  28
   2024 03 15 04:00  04 03 57.14    +15 30 30.0   389041 0.9935  67.3  m  16?  25.69  89.0   34 263   9  28
   2024 03 15 04:10  04 04 15.04    +15 30 34.8   389304 0.9936  67.4  m  16?  26.08  89.1   32 264   9  28
   2024 03 15 04:20  04 04 33.23    +15 30 38.9   389572 0.9936  67.5  m  16?  26.49  89.3   30 266   9  28
   2024 03 15 04:30  04 04 51.69    +15 30 42.6   389843 0.9936  67.5  m  16?  26.90  89.4   28 267   9  28
   2024 03 15 04:40  04 05 10.45    +15 30 45.7   390118 0.9936  67.6  m  16?  27.32  89.5   26 269   9  28
   2024 03 15 04:50  04 05 29.50    +15 30 48.5   390396 0.9936  67.7  m  16?  27.75  89.6   24 270   9  28
   2024 03 15 05:00  04 05 48.85    +15 30 50.9   390676 0.9936  67.7  m  16?  28.18  89.7   22 272   9  29
   2024 03 15 05:10  04 06 08.50    +15 30 53.0   390959 0.9936  67.8  m  16?  28.62  89.7   21 273   9  29
   2024 03 15 05:20  04 06 28.46    +15 30 54.8   391244 0.9936  67.9  m  16?  29.07  89.8   19 275   9  29
   2024 03 15 05:30  04 06 48.72    +15 30 56.5   391531 0.9936  68.0  m  16?  29.51  89.8   17 276   9  29
   2024 03 15 05:40  04 07 09.30    +15 30 57.9   391819 0.9936  68.0  m  16?  29.96  89.8   15 278   9  29
   2024 03 15 05:50  04 07 30.18    +15 30 59.3   392107 0.9936  68.1  m  16?  30.42  89.9   13 279   9  29
   2024 03 15 06:00  04 07 51.38    +15 31 00.6   392397 0.9936  68.2  m  16?  30.87  89.9   11 280   9  29
   2024 03 15 06:10  04 08 12.90    +15 31 02.0   392687 0.9936  68.3  m  16?  31.32  89.9    9 282   9  29
   2024 03 15 06:20  04 08 34.72    +15 31 03.4   392976 0.9936  68.3  m  16?  31.77  89.9    7 283   9  29
   2024 03 15 06:30  04 08 56.86    +15 31 04.9   393265 0.9936  68.4  m  16?  32.22  89.8    5 285   9  29
   2024 03 15 06:40  04 09 19.31    +15 31 06.6   393553 0.9936  68.5  m  16?  32.67  89.8    4 286   9  29
   2024 03 15 06:50  04 09 42.07    +15 31 08.5   393840 0.9936  68.6  m  16?  33.11  89.8    2 288   9  29
   2024 03 15 07:00  04 10 05.13    +15 31 10.6   394125 0.9936  68.7  m  16?  33.55  89.7    0 289   9  29
   ................
   2024 03 16 01:50  04 51 45.68    +16 49 14.6   396559 0.9942  78.0 Cm  16?  18.75  81.8   65 215  10  38
   2024 03 16 02:00  04 51 58.64    +16 49 41.1   396675 0.9942  78.0 Cm  16?  18.85  82.2   64 220  10  38
   2024 03 16 02:10  04 52 11.70    +16 50 06.4   396799 0.9942  78.1 Nm  16?  18.98  82.7   62 224  10  38
   2024 03 16 02:20  04 52 24.86    +16 50 30.4   396931 0.9942  78.1 Nm  16?  19.12  83.1   61 228  10  38
   2024 03 16 02:30  04 52 38.14    +16 50 53.1   397071 0.9942  78.2 Nm  16?  19.29  83.6   60 232  10  38
   2024 03 16 02:40  04 52 51.56    +16 51 14.6   397219 0.9943  78.2 Am  16?  19.47  84.0   58 235  10  38
   2024 03 16 02:50  04 53 05.12    +16 51 34.8   397374 0.9943  78.3 Am  16?  19.68  84.4   56 239  10  38
   2024 03 16 03:00  04 53 18.84    +16 51 53.9   397537 0.9943  78.3 Am  16?  19.90  84.8   55 242  10  38
   2024 03 16 03:10  04 53 32.73    +16 52 11.9   397707 0.9943  78.4 Am  16?  20.14  85.2   53 244  10  38
   2024 03 16 03:20  04 53 46.81    +16 52 28.7   397884 0.9943  78.4  m  16?  20.40  85.6   51 247  10  38
   2024 03 16 03:30  04 54 01.07    +16 52 44.5   398068 0.9943  78.5  m  16?  20.68  85.9   49 249  10  38
   2024 03 16 03:40  04 54 15.55    +16 52 59.2   398258 0.9943  78.5  m  16?  20.97  86.2   48 251  10  38
   2024 03 16 03:50  04 54 30.24    +16 53 12.9   398455 0.9943  78.6  m  16?  21.28  86.6   46 254  10  39
   2024 03 16 04:00  04 54 45.15    +16 53 25.7   398658 0.9943  78.6  m  16?  21.61  86.9   44 256  10  39
   2024 03 16 04:10  04 55 00.30    +16 53 37.5   398866 0.9943  78.7  m  16?  21.95  87.2   42 257  10  39
   2024 03 16 04:20  04 55 15.69    +16 53 48.5   399080 0.9943  78.7  m  16?  22.30  87.4   40 259  10  39
   2024 03 16 04:30  04 55 31.34    +16 53 58.7   399300 0.9943  78.8  m  16?  22.66  87.7   38 261  10  39
   2024 03 16 04:40  04 55 47.25    +16 54 08.0   399524 0.9943  78.8  m  16?  23.04  87.9   36 263  10  39
   2024 03 16 04:50  04 56 03.43    +16 54 16.7   399753 0.9943  78.9  m  16?  23.43  88.1   34 264  10  39
   2024 03 16 05:00  04 56 19.88    +16 54 24.7   399986 0.9943  79.0  m  16?  23.83  88.3   32 266  10  39
   2024 03 16 05:10  04 56 36.62    +16 54 32.0   400223 0.9943  79.0  m  16?  24.24  88.5   30 268  10  39
   2024 03 16 05:20  04 56 53.64    +16 54 38.8   400463 0.9943  79.1  m  16?  24.65  88.6   29 269  10  39
   2024 03 16 05:30  04 57 10.96    +16 54 45.0   400707 0.9943  79.1  m  16?  25.08  88.8   27 271  10  39
   2024 03 16 05:40  04 57 28.58    +16 54 50.8   400954 0.9943  79.2  m  16?  25.51  88.9   25 272  10  39
   2024 03 16 05:50  04 57 46.51    +16 54 56.2   401204 0.9943  79.3  m  16?  25.95  89.0   23 273  10  39
   2024 03 16 06:00  04 58 04.74    +16 55 01.2   401456 0.9944  79.3  m  16?  26.39  89.1   21 275  10  39
   2024 03 16 06:10  04 58 23.28    +16 55 06.0   401709 0.9944  79.4  m  16?  26.83  89.2   19 276  10  39
   2024 03 16 06:20  04 58 42.13    +16 55 10.4   401965 0.9944  79.5  m  16?  27.28  89.2   17 278  10  39
   2024 03 16 06:30  04 59 01.30    +16 55 14.8   402221 0.9944  79.5  m  16?  27.74  89.3   15 279  10  40
   2024 03 16 06:40  04 59 20.78    +16 55 18.9   402478 0.9944  79.6  m  16?  28.19  89.3   13 280  10  40
   2024 03 16 06:50  04 59 40.58    +16 55 23.1   402736 0.9944  79.7  m  16?  28.65  89.3   11 282  10  40
   2024 03 16 07:00  05 00 00.70    +16 55 27.2   402994 0.9944  79.7  m  16?  29.10  89.3   10 283  10  40
   2024 03 16 07:10  05 00 21.14    +16 55 31.3   403252 0.9944  79.8  m  16?  29.56  89.3    8 285  10  40
   2024 03 16 07:20  05 00 41.89    +16 55 35.6   403508 0.9944  79.9  m  16?  30.01  89.3    6 286  10  40
   2024 03 16 07:30  05 01 02.96    +16 55 40.0   403764 0.9944  80.0  m  16?  30.46  89.3    4 287  10  40
   2024 03 16 07:40  05 01 24.34    +16 55 44.7   404019 0.9944  80.1  m  16?  30.91  89.3    2 289  10  40
   2024 03 16 07:50  05 01 46.03    +16 55 49.6   404272 0.9944  80.1  m  16?  31.35  89.2    0 290  10  40
   ................
   2024 03 17 01:50  05 40 29.51    +18 19 39.8   402710 0.9950  88.7 Cm  15?  17.73  78.0   70 189  10  49
   2024 03 17 02:00  05 40 41.69    +18 20 16.3   402754 0.9950  88.7 Cm  15?  17.73  78.5   69 196  10  49
   2024 03 17 02:10  05 40 53.91    +18 20 51.3   402806 0.9950  88.8 Nm  15?  17.76  79.0   69 203  10  49
   2024 03 17 02:20  05 41 06.18    +18 21 24.9   402866 0.9950  88.8 Nm  15?  17.81  79.5   68 209  10  49
   2024 03 17 02:30  05 41 18.51    +18 21 57.0   402935 0.9950  88.9 Nm  15?  17.88  80.0   67 214  10  49
   2024 03 17 02:40  05 41 30.92    +18 22 27.8   403012 0.9950  88.9 Nm  15?  17.98  80.5   66 219  10  49
   2024 03 17 02:50  05 41 43.42    +18 22 57.1   403097 0.9950  88.9 Am  15?  18.09  81.0   64 224  10  49
   2024 03 17 03:00  05 41 56.02    +18 23 25.1   403190 0.9950  89.0 Am  15?  18.22  81.5   63 228  10  49
   2024 03 17 03:10  05 42 08.74    +18 23 51.7   403291 0.9950  89.0 Am  15?  18.38  82.0   62 232  10  49
   2024 03 17 03:20  05 42 21.59    +18 24 17.0   403400 0.9950  89.1  m  15?  18.55  82.5   60 236  10  49
   2024 03 17 03:30  05 42 34.59    +18 24 41.0   403517 0.9950  89.1  m  15?  18.75  83.0   58 239  10  49
   2024 03 17 03:40  05 42 47.74    +18 25 03.7   403640 0.9950  89.2  m  15?  18.96  83.5   57 242  10  49
   2024 03 17 03:50  05 43 01.06    +18 25 25.1   403772 0.9950  89.2  m  15?  19.20  83.9   55 245  10  49
   2024 03 17 04:00  05 43 14.56    +18 25 45.3   403910 0.9950  89.2  m  15?  19.45  84.3   53 247  10  49
   2024 03 17 04:10  05 43 28.25    +18 26 04.4   404055 0.9951  89.3  m  15?  19.72  84.8   51 250  10  49
   2024 03 17 04:20  05 43 42.15    +18 26 22.3   404207 0.9951  89.3  m  15?  20.00  85.2   50 252  10  49
   2024 03 17 04:30  05 43 56.26    +18 26 39.2   404365 0.9951  89.4  m  15?  20.30  85.5   48 254  10  49
   2024 03 17 04:40  05 44 10.60    +18 26 55.0   404529 0.9951  89.4  m  15?  20.62  85.9   46 256  10  49
   2024 03 17 04:50  05 44 25.17    +18 27 09.7   404699 0.9951  89.5  m  15?  20.96  86.2   44 258  10  49
   2024 03 17 05:00  05 44 39.99    +18 27 23.6   404874 0.9951  89.5  m  15?  21.30  86.5   42 260  10  49
   2024 03 17 05:10  05 44 55.06    +18 27 36.5   405055 0.9951  89.6  m  15?  21.66  86.8   40 262  10  50
   2024 03 17 05:20  05 45 10.39    +18 27 48.5   405241 0.9951  89.7  m  15?  22.04  87.1   38 263  10  50
   2024 03 17 05:30  05 45 26.00    +18 27 59.8   405432 0.9951  89.7  m  15?  22.42  87.4   36 265  10  50
   2024 03 17 05:40  05 45 41.88    +18 28 10.3   405627 0.9951  89.8  m  15?  22.82  87.6   34 267  10  50
   2024 03 17 05:50  05 45 58.04    +18 28 20.0   405827 0.9951  89.8  m  15?  23.22  87.8   32 268  10  50
   2024 03 17 06:00  05 46 14.49    +18 28 29.2   406030 0.9951  89.9  m  15?  23.64  88.0   30 270  10  50
   2024 03 17 06:10  05 46 31.25    +18 28 37.8   406236 0.9951  89.9  m  15?  24.06  88.2   29 271  10  50
   2024 03 17 06:20  05 46 48.30    +18 28 45.8   406446 0.9951  90.0  m  15?  24.49  88.3   27 273  10  50
   2024 03 17 06:30  05 47 05.66    +18 28 53.4   406658 0.9951  90.1  m  15?  24.93  88.4   25 274  10  50
   2024 03 17 06:40  05 47 23.33    +18 29 00.5   406873 0.9951  90.1  m  15?  25.37  88.6   23 275  10  50
   2024 03 17 06:50  05 47 41.31    +18 29 07.4   407090 0.9951  90.2  m  15?  25.82  88.7   21 277  10  50
   2024 03 17 07:00  05 47 59.61    +18 29 13.9   407308 0.9951  90.3  m  15?  26.27  88.7   19 278  10  50
   2024 03 17 07:10  05 48 18.23    +18 29 20.2   407528 0.9951  90.3  m  15?  26.72  88.8   17 280  10  50
   2024 03 17 07:20  05 48 37.18    +18 29 26.3   407749 0.9952  90.4  m  15?  27.18  88.8   15 281  10  50
   2024 03 17 07:30  05 48 56.44    +18 29 32.4   407971 0.9952  90.5  m  15?  27.64  88.9   13 282   9  50
   2024 03 17 07:40  05 49 16.03    +18 29 38.4   408192 0.9952  90.5  m  15?  28.10  88.9   11 284   9  50
   2024 03 17 07:50  05 49 35.94    +18 29 44.4   408414 0.9952  90.6  m  15?  28.56  88.9   10 285   9  51
   2024 03 17 08:00  05 49 56.17    +18 29 50.5   408635 0.9952  90.7  m  15?  29.02  88.9    8 287   9  51
   2024 03 17 08:10  05 50 16.73    +18 29 56.8   408856 0.9952  90.7  m  15?  29.47  88.9    6 288   9  51
   2024 03 17 08:20  05 50 37.60    +18 30 03.2   409075 0.9952  90.8  m  15?  29.93  88.9    4 289   9  51
   2024 03 17 08:30  05 50 58.80    +18 30 10.0   409292 0.9952  90.9  m  15?  30.38  88.8    2 291   9  51
   2024 03 17 08:40  05 51 20.30    +18 30 17.0   409508 0.9952  91.0  m  15?  30.82  88.8    1 292   9  51
   ................
   

Titan-3C RB (JPL-ID: -102770)

   Date (UTC) HH:MM   RA              Dec         delta   r     elong SM  mag  '/hr    PA   alt  az moo ill
   ---- -- -- -----  -------------   -----------  ------ ------ ----- --  --- ------ ------ --- --- --- ---
   2024 03 04 13:30  23 29 21.95    +13 38 52.0   110313 0.9911  21.0 Nm  15? 102.27  89.5    0  72  94  40
   2024 03 04 13:40  23 30 31.41    +13 38 59.2   110525 0.9911  21.1 Cm  15? 100.20  89.6    1  73  94  40
   2024 03 04 13:50  23 31 39.46    +13 39 05.0   110726 0.9911  21.2 Cm  15?  98.14  89.7    3  75  94  40
   ................
   2024 03 05 01:40  00 21 20.47    +11 25 33.3   114444 0.9912  26.1 C   15?  76.26 108.7   23 266  98  35
   2024 03 05 01:50  00 22 10.15    +11 21 27.2   114417 0.9912  26.2 C   15?  77.84 108.5   21 267  98  35
   2024 03 05 02:00  00 23 00.89    +11 17 18.8   114384 0.9912  26.3 N   15?  79.44 108.2   19 269  98  35
   2024 03 05 02:10  00 23 52.73    +11 13 08.1   114345 0.9912  26.4 N   15?  81.07 108.0   18 270  98  35
   2024 03 05 02:20  00 24 45.69    +11 08 55.2   114299 0.9912  26.5 N   15?  82.72 107.8   16 271  98  34
   2024 03 05 02:30  00 25 39.77    +11 04 40.2   114247 0.9912  26.6 A   15?  84.39 107.6   14 273  98  34
   2024 03 05 02:40  00 26 34.99    +11 00 23.2   114187 0.9912  26.7 A   15?  86.08 107.4   12 274  98  34
   2024 03 05 02:50  00 27 31.37    +10 56 04.2   114119 0.9912  26.9 A   15?  87.80 107.2   10 275  98  34
   2024 03 05 03:00  00 28 28.92    +10 51 43.2   114044 0.9912  27.0     15?  89.53 107.0    8 277  98  34
   2024 03 05 03:10  00 29 27.65    +10 47 20.5   113960 0.9912  27.1     15?  91.28 106.7    7 278  98  34
   2024 03 05 03:20  00 30 27.57    +10 42 55.9   113868 0.9912  27.3     15?  93.04 106.5    5 279  98  34
   2024 03 05 03:30  00 31 28.70    +10 38 29.5   113767 0.9912  27.4     15?  94.82 106.3    3 280  98  34
   2024 03 05 03:40  00 32 31.05    +10 34 01.5   113656 0.9912  27.6     15?  96.62 106.1    1 282  98  34
   2024 03 05 03:50  00 33 34.61    +10 29 31.8   113536 0.9912  27.7     15?  98.42 105.9    0 283  98  34
   ................
   2024 03 06 13:30  23 35 15.10    +13 31 08.6   112329 0.9916  20.0 Nm  15?  98.67  90.1    0  72  69  19
   2024 03 06 13:40  23 36 22.12    +13 31 06.1   112490 0.9916  20.1 Cm  15?  96.72  90.2    1  74  69  19
   2024 03 06 13:50  23 37 27.82    +13 31 02.4   112641 0.9916  20.2 Cm  15?  94.80  90.2    3  75  69  19
   ................
   2024 03 07 01:50  00 27 25.55    +11 02 53.4   113211 0.9917  25.0 C   15?  79.77 108.8   21 267  71  16
   2024 03 07 02:00  00 28 17.40    +10 58 33.7   113133 0.9917  25.1 C   15?  81.45 108.6   19 269  71  15
   2024 03 07 02:10  00 29 10.39    +10 54 11.5   113049 0.9917  25.3 N   15?  83.16 108.4   17 270  71  15
   2024 03 07 02:20  00 30 04.55    +10 49 46.9   112957 0.9917  25.4 N   15?  84.90 108.2   15 271  71  15
   2024 03 07 02:30  00 30 59.89    +10 45 19.9   112859 0.9917  25.5 N   15?  86.66 108.0   13 273  72  15
   2024 03 07 02:40  00 31 56.44    +10 40 50.7   112753 0.9917  25.6 A   15?  88.45 107.7   11 274  72  15
   2024 03 07 02:50  00 32 54.20    +10 36 19.2   112639 0.9917  25.8 A   15?  90.26 107.5   10 275  72  15
   2024 03 07 03:00  00 33 53.19    +10 31 45.6   112516 0.9917  25.9 A   15?  92.09 107.3    8 277  72  15
   2024 03 07 03:10  00 34 53.43    +10 27 09.8   112385 0.9917  26.1     15?  93.93 107.1    6 278  72  15
   2024 03 07 03:20  00 35 54.93    +10 22 32.0   112246 0.9917  26.2     15?  95.80 106.9    4 279  72  15
   2024 03 07 03:30  00 36 57.70    +10 17 52.1   112096 0.9918  26.4     15?  97.69 106.7    2 281  72  15
   2024 03 07 03:40  00 38 01.76    +10 13 10.2   111938 0.9918  26.5     15?  99.59 106.4    0 282  72  15
   ................
   2024 03 08 13:30  23 41 02.94    +13 23 07.8   114091 0.9921  19.0 Cm  15?  95.53  90.7    0  73  42   4
   2024 03 08 13:40  23 42 07.83    +13 22 55.5   114204 0.9921  19.1 Cm  15?  93.70  90.8    2  74  42   4
   ................
   2024 03 09 01:50  00 32 47.33    +10 42 45.6   111797 0.9922  23.9 C   15?  82.00 109.3   20 268  43   2
   2024 03 09 02:00  00 33 40.46    +10 38 12.7   111673 0.9922  24.1 C   15?  83.78 109.0   18 269  43   2
   2024 03 09 02:10  00 34 34.80    +10 33 37.0   111543 0.9922  24.2 N   15?  85.58 108.8   16 270  43   2
   2024 03 09 02:20  00 35 30.36    +10 28 58.7   111405 0.9922  24.3 N   15?  87.42 108.6   14 272  43   2
   2024 03 09 02:30  00 36 27.17    +10 24 17.8   111260 0.9923  24.4 N   15?  89.28 108.4   12 273  43   2
   2024 03 09 02:40  00 37 25.25    +10 19 34.3   111107 0.9923  24.6 A   15?  91.16 108.1   11 274  43   2
   2024 03 09 02:50  00 38 24.61    +10 14 48.3   110945 0.9923  24.7 A   15?  93.08 107.9    9 275  43   2
   2024 03 09 03:00  00 39 25.28    +10 09 59.8   110776 0.9923  24.9 A   15?  95.02 107.7    7 277  43   2
   2024 03 09 03:10  00 40 27.26    +10 05 08.8   110597 0.9923  25.0     15?  96.98 107.5    5 278  43   2
   2024 03 09 03:20  00 41 30.57    +10 00 15.5   110409 0.9923  25.2     15?  98.96 107.3    3 279  44   2
   2024 03 09 03:30  00 42 35.23    +09 55 19.7   110211 0.9923  25.4     15? 100.97 107.0    2 281  44   2
   2024 03 09 03:40  00 43 41.25    +09 50 21.6   110003 0.9923  25.5     15? 102.99 106.8    0 282  44   2
   ................
   2024 03 10 13:30  23 46 45.12    +13 14 29.1   115567 0.9926  18.0 C   15?  92.96  91.3    0  73  18   0
   2024 03 10 13:40  23 47 48.24    +13 14 07.1   115633 0.9926  18.1 C   15?  91.23  91.4    2  75  18   0
   ................
   2024 03 11 01:50  00 38 21.05    +10 21 10.3   110153 0.9928  22.9 Cm  15?  84.70 109.7   19 268  15   0
   2024 03 11 02:00  00 39 15.76    +10 16 22.5   109983 0.9928  23.0 Cm  15?  86.57 109.5   17 269  15   0
   2024 03 11 02:10  00 40 11.74    +10 11 31.8   109806 0.9928  23.1 Nm  15?  88.48 109.2   16 270  15   0
   2024 03 11 02:20  00 41 09.02    +10 06 38.1   109621 0.9928  23.3 Nm  15?  90.43 109.0   14 272  15   0
   2024 03 11 02:30  00 42 07.61    +10 01 41.4   109429 0.9928  23.4 N   15?  92.40 108.8   12 273  15   0
   2024 03 11 02:40  00 43 07.55    +09 56 41.8   109229 0.9928  23.6 A   15?  94.40 108.5   10 274  15   0
   2024 03 11 02:50  00 44 08.85    +09 51 39.4   109019 0.9928  23.7 A   15?  96.44 108.3    8 275  15   0
   2024 03 11 03:00  00 45 11.52    +09 46 34.0   108801 0.9928  23.9 A   15?  98.50 108.1    6 277  15   0
   2024 03 11 03:10  00 46 15.60    +09 41 25.9   108574 0.9928  24.0     15? 100.59 107.9    5 278  15   0
   2024 03 11 03:20  00 47 21.09    +09 36 14.9   108337 0.9928  24.2     15? 102.71 107.7    3 279  15   0
   2024 03 11 03:30  00 48 28.01    +09 31 01.1   108090 0.9928  24.4     15? 104.85 107.4    1 281  15   0
   2024 03 11 03:40  00 49 36.39    +09 25 44.5   107832 0.9928  24.6     15? 107.02 107.2    0 282  15   0
   ................
   2024 03 12 13:20  23 51 16.07    +13 05 20.9   116726 0.9931  16.9 Nr  15?  92.65  91.8    0  72  23   7
   2024 03 12 13:30  23 52 18.93    +13 04 51.0   116757 0.9931  17.0 C   15?  91.00  91.9    1  74  23   7
   2024 03 12 13:40  23 53 20.66    +13 04 20.1   116779 0.9931  17.1 C   15?  89.35  92.0    2  75  23   7
   ................
   2024 03 13 01:50  00 44 08.92    +09 58 26.6   108238 0.9933  21.9 Cm  15?  88.03 110.0   19 268  16  10
   2024 03 13 02:00  00 45 05.61    +09 53 22.6   108021 0.9933  22.0 Cm  15?  90.02 109.8   17 269  15  10
   2024 03 13 02:10  00 46 03.66    +09 48 15.2   107796 0.9933  22.1 Nm  15?  92.06 109.6   15 270  15  10
   2024 03 13 02:20  00 47 03.08    +09 43 04.5   107563 0.9933  22.3 Nm  15?  94.12 109.3   13 272  15  10
   2024 03 13 02:30  00 48 03.91    +09 37 50.4   107322 0.9933  22.4 Nm  15?  96.23 109.1   11 273  15  10
   2024 03 13 02:40  00 49 06.16    +09 32 33.0   107073 0.9933  22.6 Am  15?  98.37 108.9    9 274  15  10
   2024 03 13 02:50  00 50 09.86    +09 27 12.2   106814 0.9933  22.8 Am  15? 100.55 108.7    8 275  15  10
   2024 03 13 03:00  00 51 15.03    +09 21 48.2   106546 0.9933  22.9 Am  15? 102.76 108.4    6 277  15  10
   2024 03 13 03:10  00 52 21.70    +09 16 20.8   106268 0.9933  23.1  m  15? 105.00 108.2    4 278  14  10
   2024 03 13 03:20  00 53 29.88    +09 10 50.2   105980 0.9934  23.3  m  15? 107.28 108.0    2 279  14  10
   2024 03 13 03:30  00 54 39.60    +09 05 16.1   105682 0.9934  23.5  m  15? 109.59 107.8    0 280  14  10
   ................
   2024 03 14 13:20  23 56 41.29    +12 54 51.1   117709 0.9936  15.9 N   15?  91.11  92.3    0  73  47  23
   2024 03 14 13:30  23 57 43.03    +12 54 13.2   117696 0.9936  15.9 C   15?  89.53  92.4    1  74  47  23
   ................
   2024 03 15 01:50  00 50 08.87    +09 34 33.3   106020 0.9938  20.9 Cm  15?  92.09 110.3   18 268  43  28
   2024 03 15 02:00  00 51 08.02    +09 29 11.1   105753 0.9938  21.1 Cm  15?  94.23 110.1   16 269  42  28
   2024 03 15 02:10  00 52 08.61    +09 23 45.0   105478 0.9939  21.2 Nm  15?  96.41 109.9   14 270  42  28
   2024 03 15 02:20  00 53 10.66    +09 18 15.1   105195 0.9939  21.4 Nm  15?  98.63 109.6   12 271  42  28
   2024 03 15 02:30  00 54 14.22    +09 12 41.3   104903 0.9939  21.6 Nm  15? 100.90 109.4   11 273  42  28
   2024 03 15 02:40  00 55 19.31    +09 07 03.7   104601 0.9939  21.7 Am  15? 103.20 109.2    9 274  42  28
   2024 03 15 02:50  00 56 25.95    +09 01 22.2   104291 0.9939  21.9 Am  15? 105.55 109.0    7 275  42  28
   2024 03 15 03:00  00 57 34.18    +08 55 36.7   103970 0.9939  22.1 Am  15? 107.94 108.7    5 277  42  28
   2024 03 15 03:10  00 58 44.01    +08 49 47.4   103639 0.9939  22.3  m  15? 110.37 108.5    3 278  42  28
   2024 03 15 03:20  00 59 55.48    +08 43 54.1   103297 0.9939  22.5  m  15? 112.84 108.3    2 279  41  28
   2024 03 15 03:30  01 01 08.62    +08 37 56.8   102945 0.9939  22.7  m  15? 115.35 108.1    0 280  41  28
   ................
   2024 03 16 13:20  00 01 58.55    +12 43 33.5   118476 0.9941  14.8 C   15?  89.90  92.8    0  73  72  43
   2024 03 16 13:30  00 02 59.41    +12 42 48.1   118419 0.9941  14.8 C   15?  88.39  93.0    1  75  72  43
   ................
   2024 03 17 01:50  00 56 18.18    +09 08 54.0   103501 0.9944  20.0 Cm  15?  96.91 110.6   17 267  68  49
   2024 03 17 02:00  00 57 20.23    +09 03 10.5   103182 0.9944  20.2 Cm  15?  99.22 110.4   16 269  68  49
   2024 03 17 02:10  00 58 23.83    +08 57 22.6   102853 0.9944  20.4 Nm  15? 101.58 110.1   14 270  68  49
   2024 03 17 02:20  00 59 29.01    +08 51 30.1   102516 0.9944  20.5 Nm  15? 103.98 109.9   12 271  68  49
   2024 03 17 02:30  01 00 35.82    +08 45 33.2   102169 0.9944  20.7 Nm  15? 106.44 109.7   10 273  68  49
   2024 03 17 02:40  01 01 44.27    +08 39 31.8   101813 0.9944  20.9 Nm  15? 108.95 109.5    8 274  68  49
   2024 03 17 02:50  01 02 54.41    +08 33 25.7   101447 0.9944  21.1 Am  15? 111.51 109.3    6 275  67  49
   2024 03 17 03:00  01 04 06.27    +08 27 15.0   101070 0.9944  21.3 Am  15? 114.12 109.0    5 276  67  49
   2024 03 17 03:10  01 05 19.87    +08 20 59.6   100683 0.9944  21.5 Am  15? 116.78 108.8    3 278  67  49
   2024 03 17 03:20  01 06 35.26    +08 14 39.4   100284 0.9944  21.8  m  15? 119.49 108.6    1 279  67  49
   2024 03 17 03:30  01 07 52.46    +08 08 14.3    99874 0.9945  22.0  m  15? 122.25 108.5    0 280  67  49
   ................
   

Gaia (JPL-ID: -139479)

   Date (UTC) HH:MM   RA              Dec         delta   r     elong SM  mag  '/hr    PA   alt  az moo ill
   ---- -- -- -----  -------------   -----------  ------ ------ ----- --  --- ------ ------ --- --- --- ---
   2024 03 04 02:20  11 44 21.60    +03 12 47.9   0.0104 1.0018 168.4 N   20?   2.13  94.4    0  85  84  45
   2024 03 04 02:30  11 44 22.98    +03 12 46.3   0.0104 1.0018 168.4 A   20?   2.00  94.7    1  87  84  45
   2024 03 04 02:40  11 44 24.26    +03 12 44.7   0.0103 1.0018 168.4 A   20?   1.87  95.0    3  88  84  45
   2024 03 04 02:50  11 44 25.47    +03 12 43.1   0.0103 1.0018 168.4 A   20?   1.75  95.4    5  90  84  44
   2024 03 04 03:00  11 44 26.59    +03 12 41.4   0.0103 1.0018 168.4     20?   1.62  95.8    7  92  84  44
   2024 03 04 03:10  11 44 27.62    +03 12 39.8   0.0103 1.0018 168.4     20?   1.49  96.3    9  93  84  44
   2024 03 04 03:20  11 44 28.57    +03 12 38.1   0.0103 1.0018 168.4     20?   1.37  97.0   11  95  84  44
   2024 03 04 03:30  11 44 29.43    +03 12 36.5   0.0103 1.0018 168.4     20?   1.24  97.8   13  96  85  44
   2024 03 04 03:40  11 44 30.21    +03 12 34.8   0.0103 1.0018 168.4     20?   1.12  98.7   15  98  85  44
   2024 03 04 03:50  11 44 30.91    +03 12 33.1   0.0103 1.0018 168.4     20?   1.00  99.9   17  99  85  44
   2024 03 04 04:00  11 44 31.52    +03 12 31.4   0.0103 1.0018 168.4     20?   0.88 101.3   19 101  85  44
   2024 03 04 04:10  11 44 32.06    +03 12 29.6   0.0103 1.0018 168.4     20?   0.77 103.3   21 103  85  44
   2024 03 04 04:20  11 44 32.52    +03 12 27.8   0.0103 1.0018 168.4     20?   0.65 105.9   23 104  85  44
   2024 03 04 04:30  11 44 32.90    +03 12 26.0   0.0103 1.0018 168.4     20?   0.55 109.5   25 106  85  44
   2024 03 04 04:40  11 44 33.21    +03 12 24.2   0.0103 1.0018 168.4     20?   0.45 114.6   27 108  85  43
   2024 03 04 04:50  11 44 33.45    +03 12 22.3   0.0103 1.0018 168.4     20?   0.35 122.5   28 110  86  43
   2024 03 04 05:00  11 44 33.61    +03 12 20.4   0.0103 1.0018 168.4     20?   0.27 135.1   30 112  86  43
   2024 03 04 05:10  11 44 33.71    +03 12 18.4   0.0103 1.0018 168.4     20?   0.22 155.1   32 114  86  43
   2024 03 04 05:20  11 44 33.73    +03 12 16.4   0.0103 1.0018 168.5     20?   0.20 181.5   34 116  86  43
   2024 03 04 05:30  11 44 33.70    +03 12 14.4   0.0103 1.0018 168.5     20?   0.23 205.6   36 118  86  43
   2024 03 04 05:40  11 44 33.60    +03 12 12.3   0.0103 1.0018 168.5     20?   0.28 221.7   37 121  86  43
   2024 03 04 05:50  11 44 33.45    +03 12 10.1   0.0103 1.0018 168.5     20?   0.35 231.6   39 123  86  43
   2024 03 04 06:00  11 44 33.24    +03 12 07.9   0.0103 1.0018 168.5     20?   0.42 238.0   41 125  86  43
   2024 03 04 06:10  11 44 32.97    +03 12 05.7   0.0103 1.0018 168.5     20?   0.49 242.2   42 128  86  43
   2024 03 04 06:20  11 44 32.66    +03 12 03.3   0.0103 1.0018 168.5     20?   0.56 245.1   44 131  87  43
   2024 03 04 06:30  11 44 32.30    +03 12 01.0   0.0103 1.0018 168.5     20?   0.62 247.3   45 134  87  42
   2024 03 04 06:40  11 44 31.89    +03 11 58.6   0.0103 1.0018 168.5     20?   0.68 248.8   47 137  87  42
   2024 03 04 06:50  11 44 31.45    +03 11 56.1   0.0103 1.0018 168.5     20?   0.74 250.0   48 140  87  42
   2024 03 04 07:00  11 44 30.97    +03 11 53.5   0.0103 1.0018 168.5     20?   0.79 250.9   49 143  87  42
   2024 03 04 07:10  11 44 30.45    +03 11 50.9   0.0103 1.0018 168.5     20?   0.84 251.5   50 147  87  42
   2024 03 04 07:20  11 44 29.91    +03 11 48.2   0.0103 1.0018 168.6     20?   0.88 252.0   51 150  87  42
   2024 03 04 07:30  11 44 29.34    +03 11 45.5   0.0103 1.0018 168.6     20?   0.92 252.3   52 154  87  42
   2024 03 04 07:40  11 44 28.74    +03 11 42.7   0.0103 1.0018 168.6     20?   0.95 252.5   53 158  87  42
   2024 03 04 07:50  11 44 28.13    +03 11 39.8   0.0103 1.0018 168.6     20?   0.97 252.6   54 162  87  42
   2024 03 04 08:00  11 44 27.50    +03 11 36.9   0.0103 1.0018 168.6     20?   1.00 252.6   54 166  88  42
   2024 03 04 08:10  11 44 26.86    +03 11 33.9   0.0103 1.0018 168.6     20?   1.01 252.5   55 171  88  42
   2024 03 04 08:20  11 44 26.22    +03 11 30.8   0.0103 1.0018 168.6     20?   1.02 252.2   55 175  88  42
   2024 03 04 08:30  11 44 25.57    +03 11 27.6   0.0103 1.0018 168.6     20?   1.03 251.9   55 179  88  41
   2024 03 04 08:40  11 44 24.92    +03 11 24.4   0.0103 1.0018 168.6  t  20?   1.03 251.5   55 184  88  41
   2024 03 04 08:50  11 44 24.27    +03 11 21.2   0.0103 1.0018 168.6     20?   1.02 251.0   55 188  88  41
   2024 03 04 09:00  11 44 23.63    +03 11 17.8   0.0103 1.0018 168.6     20?   1.01 250.4   54 193  88  41
   2024 03 04 09:10  11 44 23.00    +03 11 14.4   0.0103 1.0018 168.7     20?   0.99 249.7   54 197  88  41
   2024 03 04 09:20  11 44 22.38    +03 11 10.9   0.0103 1.0018 168.7     20?   0.97 248.8   53 201  88  41
   2024 03 04 09:30  11 44 21.79    +03 11 07.4   0.0103 1.0018 168.7     20?   0.95 247.8   52 205  88  41
   2024 03 04 09:40  11 44 21.21    +03 11 03.8   0.0103 1.0019 168.7     20?   0.92 246.6   51 209  88  41
   2024 03 04 09:50  11 44 20.67    +03 11 00.1   0.0103 1.0019 168.7  m  20?   0.88 245.1   50 212  89  41
   2024 03 04 10:00  11 44 20.15    +03 10 56.4   0.0103 1.0019 168.7  m  20?   0.84 243.4   49 216  89  41
   2024 03 04 10:10  11 44 19.66    +03 10 52.6   0.0103 1.0019 168.7  m  20?   0.80 241.3   48 219  89  41
   2024 03 04 10:20  11 44 19.21    +03 10 48.7   0.0103 1.0019 168.7  m  20?   0.75 238.8   47 222  89  41
   2024 03 04 10:30  11 44 18.80    +03 10 44.8   0.0103 1.0019 168.7  m  20?   0.70 235.8   45 225  89  41
   2024 03 04 10:40  11 44 18.44    +03 10 40.8   0.0103 1.0019 168.7  m  20?   0.65 232.1   44 228  89  41
   2024 03 04 10:50  11 44 18.12    +03 10 36.8   0.0103 1.0019 168.7  m  20?   0.60 227.5   42 231  89  41
   2024 03 04 11:00  11 44 17.85    +03 10 32.7   0.0103 1.0019 168.7  m  20?   0.55 221.7   41 234  89  41
   2024 03 04 11:10  11 44 17.63    +03 10 28.6   0.0103 1.0019 168.8  m  20?   0.50 214.5   39 236  89  40
   2024 03 04 11:20  11 44 17.47    +03 10 24.4   0.0103 1.0019 168.8  m  20?   0.47 205.5   37 238  89  40
   2024 03 04 11:30  11 44 17.36    +03 10 20.2   0.0103 1.0019 168.8  m  20?   0.44 194.7   36 241  89  40
   2024 03 04 11:40  11 44 17.32    +03 10 15.9   0.0103 1.0019 168.8  m  20?   0.43 182.4   34 243  89  40
   2024 03 04 11:50  11 44 17.34    +03 10 11.6   0.0103 1.0019 168.8  m  20?   0.44 169.7   32 245  89  40
   2024 03 04 12:00  11 44 17.42    +03 10 07.2   0.0103 1.0019 168.8  m  20?   0.47 157.8   30 247  90  40
   2024 03 04 12:10  11 44 17.58    +03 10 02.8   0.0103 1.0019 168.8  m  20?   0.52 147.4   28 249  90  40
   2024 03 04 12:20  11 44 17.80    +03 09 58.4   0.0103 1.0019 168.8  m  20?   0.59 138.8   27 251  90  40
   2024 03 04 12:30  11 44 18.10    +03 09 53.9   0.0103 1.0019 168.8  m  20?   0.67 131.9   25 253  90  40
   2024 03 04 12:40  11 44 18.47    +03 09 49.4   0.0103 1.0019 168.8 Am  20?   0.76 126.4   23 254  90  40
   2024 03 04 12:50  11 44 18.92    +03 09 44.9   0.0103 1.0019 168.8 Am  20?   0.86 121.9   21 256  90  40
   2024 03 04 13:00  11 44 19.44    +03 09 40.3   0.0103 1.0019 168.8 Am  20?   0.96 118.3   19 258  90  40
   2024 03 04 13:10  11 44 20.05    +03 09 35.8   0.0103 1.0019 168.8 Nm  20?   1.07 115.4   17 260  90  40
   2024 03 04 13:20  11 44 20.73    +03 09 31.2   0.0103 1.0019 168.8 Nm  20?   1.18 112.9   15 261  90  40
   2024 03 04 13:30  11 44 21.50    +03 09 26.5   0.0103 1.0019 168.8 Nm  20?   1.30 110.9   13 263  90  40
   2024 03 04 13:40  11 44 22.35    +03 09 21.9   0.0104 1.0019 168.8 Cm  20?   1.41 109.1   11 264  90  40
   2024 03 04 13:50  11 44 23.28    +03 09 17.3   0.0104 1.0019 168.8 Cm  20?   1.53 107.6    9 266  90  40
   ................
   2024 03 05 02:20  11 47 29.80    +03 05 19.1   0.0104 1.0020 168.6 Nr  20?   2.07  94.2    0  86  96  34
   2024 03 05 02:30  11 47 31.13    +03 05 17.6   0.0104 1.0020 168.6 A   20?   1.94  94.5    1  87  96  34
   2024 03 05 02:40  11 47 32.38    +03 05 16.1   0.0104 1.0020 168.6 A   20?   1.81  94.8    3  89  96  34
   2024 03 05 02:50  11 47 33.55    +03 05 14.5   0.0104 1.0020 168.6 A   20?   1.69  95.2    5  90  97  34
   2024 03 05 03:00  11 47 34.62    +03 05 13.0   0.0104 1.0021 168.6     20?   1.56  95.7    7  92  97  34
   2024 03 05 03:10  11 47 35.62    +03 05 11.5   0.0104 1.0021 168.6     20?   1.43  96.2    9  93  97  34
   2024 03 05 03:20  11 47 36.52    +03 05 09.9   0.0104 1.0021 168.6     20?   1.31  96.8   11  95  97  34
   2024 03 05 03:30  11 47 37.35    +03 05 08.4   0.0104 1.0021 168.6     20?   1.18  97.6   13  96  97  34
   2024 03 05 03:40  11 47 38.09    +03 05 06.8   0.0104 1.0021 168.6     20?   1.06  98.6   15  98  97  34
   2024 03 05 03:50  11 47 38.75    +03 05 05.2   0.0104 1.0021 168.6     20?   0.94  99.9   17 100  97  34
   2024 03 05 04:00  11 47 39.33    +03 05 03.6   0.0104 1.0021 168.6     20?   0.82 101.4   19 101  97  33
   2024 03 05 04:10  11 47 39.83    +03 05 01.9   0.0104 1.0021 168.6     20?   0.71 103.5   21 103  98  33
   2024 03 05 04:20  11 47 40.25    +03 05 00.2   0.0104 1.0021 168.6     20?   0.60 106.4   23 105  98  33
   2024 03 05 04:30  11 47 40.59    +03 04 58.5   0.0103 1.0021 168.6     20?   0.49 110.5   25 107  98  33
   2024 03 05 04:40  11 47 40.86    +03 04 56.8   0.0103 1.0021 168.6     20?   0.39 116.6   27 108  98  33
   2024 03 05 04:50  11 47 41.06    +03 04 55.0   0.0103 1.0021 168.6     20?   0.30 126.4   28 110  98  33
   2024 03 05 05:00  11 47 41.19    +03 04 53.2   0.0103 1.0021 168.7     20?   0.23 142.9   30 112  98  33
   2024 03 05 05:10  11 47 41.24    +03 04 51.4   0.0103 1.0021 168.7     20?   0.19 168.7   32 114  98  33
   2024 03 05 05:20  11 47 41.24    +03 04 49.5   0.0103 1.0021 168.7     20?   0.20 197.4   34 116  98  33
   2024 03 05 05:30  11 47 41.17    +03 04 47.5   0.0103 1.0021 168.7     20?   0.25 218.1   36 119  98  33
   2024 03 05 05:40  11 47 41.03    +03 04 45.6   0.0103 1.0021 168.7     20?   0.31 230.5   37 121  99  33
   2024 03 05 05:50  11 47 40.84    +03 04 43.5   0.0103 1.0021 168.7     20?   0.39 237.9   39 123  99  32
   2024 03 05 06:00  11 47 40.60    +03 04 41.5   0.0103 1.0021 168.7     20?   0.46 242.8   41 126  99  32
   2024 03 05 06:10  11 47 40.30    +03 04 39.3   0.0103 1.0021 168.7     20?   0.53 246.0   42 128  99  32
   2024 03 05 06:20  11 47 39.95    +03 04 37.2   0.0103 1.0021 168.7     20?   0.60 248.3   44 131  99  32
   2024 03 05 06:30  11 47 39.55    +03 04 34.9   0.0103 1.0021 168.7     20?   0.66 250.0   45 134  99  32
   2024 03 05 06:40  11 47 39.11    +03 04 32.6   0.0103 1.0021 168.7     20?   0.73 251.3   47 137  99  32
   2024 03 05 06:50  11 47 38.64    +03 04 30.3   0.0103 1.0021 168.7     20?   0.78 252.2   48 140  99  32
   2024 03 05 07:00  11 47 38.12    +03 04 27.9   0.0103 1.0021 168.7     20?   0.83 252.9   49 144 100  32
   2024 03 05 07:10  11 47 37.57    +03 04 25.4   0.0103 1.0021 168.8     20?   0.88 253.4   50 147 100  32
   2024 03 05 07:20  11 47 37.00    +03 04 22.9   0.0103 1.0021 168.8     20?   0.92 253.8   51 151 100  32
   2024 03 05 07:30  11 47 36.39    +03 04 20.3   0.0103 1.0021 168.8     20?   0.96 254.0   52 155 100  32
   2024 03 05 07:40  11 47 35.77    +03 04 17.6   0.0103 1.0021 168.8     20?   0.99 254.2   53 158 100  31
   2024 03 05 07:50  11 47 35.12    +03 04 14.9   0.0103 1.0021 168.8     20?   1.02 254.2   54 163 100  31
   2024 03 05 08:00  11 47 34.47    +03 04 12.1   0.0103 1.0021 168.8     20?   1.04 254.2   54 167 100  31
   2024 03 05 08:10  11 47 33.79    +03 04 09.2   0.0103 1.0021 168.8     20?   1.05 254.0   54 171 100  31
   2024 03 05 08:20  11 47 33.12    +03 04 06.3   0.0103 1.0021 168.8     20?   1.06 253.8   55 175 100  31
   2024 03 05 08:30  11 47 32.44    +03 04 03.4   0.0103 1.0021 168.8  t  20?   1.07 253.5   55 180 101  31
   2024 03 05 08:40  11 47 31.75    +03 04 00.3   0.0103 1.0021 168.8     20?   1.06 253.2   55 184 101  31
   2024 03 05 08:50  11 47 31.08    +03 03 57.2   0.0103 1.0021 168.8     20?   1.06 252.7   54 189 101  31
   2024 03 05 09:00  11 47 30.41    +03 03 54.0   0.0103 1.0021 168.9     20?   1.05 252.1   54 193 101  31
   2024 03 05 09:10  11 47 29.75    +03 03 50.8   0.0103 1.0021 168.9     20?   1.03 251.4   53 197 101  31
   2024 03 05 09:20  11 47 29.10    +03 03 47.5   0.0103 1.0021 168.9     20?   1.01 250.6   53 201 101  31
   2024 03 05 09:30  11 47 28.48    +03 03 44.1   0.0103 1.0021 168.9     20?   0.98 249.7   52 205 101  31
   2024 03 05 09:40  11 47 27.88    +03 03 40.7   0.0103 1.0021 168.9     20?   0.95 248.6   51 209 101  31
   2024 03 05 09:50  11 47 27.30    +03 03 37.2   0.0103 1.0021 168.9     20?   0.91 247.3   50 212 101  31
   2024 03 05 10:00  11 47 26.76    +03 03 33.7   0.0103 1.0021 168.9     20?   0.87 245.7   49 216 101  30
   2024 03 05 10:10  11 47 26.24    +03 03 30.1   0.0103 1.0021 168.9     20?   0.83 243.9   48 219 101  30
   2024 03 05 10:20  11 47 25.77    +03 03 26.4   0.0103 1.0021 168.9     20?   0.78 241.6   46 222 102  30
   2024 03 05 10:30  11 47 25.33    +03 03 22.7   0.0103 1.0021 168.9     20?   0.73 238.9   45 225 102  30
   2024 03 05 10:40  11 47 24.94    +03 03 18.9   0.0103 1.0021 168.9     20?   0.67 235.6   44 228 102  30
   2024 03 05 10:50  11 47 24.59    +03 03 15.1   0.0103 1.0021 169.0  m  20?   0.62 231.4   42 231 102  30
   2024 03 05 11:00  11 47 24.29    +03 03 11.2   0.0103 1.0021 169.0  m  20?   0.56 226.1   40 234 102  30
   2024 03 05 11:10  11 47 24.05    +03 03 07.3   0.0103 1.0021 169.0  m  20?   0.51 219.4   39 236 102  30
   2024 03 05 11:20  11 47 23.86    +03 03 03.3   0.0103 1.0021 169.0  m  20?   0.47 210.9   37 238 102  30
   2024 03 05 11:30  11 47 23.73    +03 02 59.3   0.0103 1.0022 169.0  m  20?   0.43 200.4   35 241 102  30
   2024 03 05 11:40  11 47 23.66    +03 02 55.2   0.0103 1.0022 169.0  m  20?   0.41 187.9   34 243 102  30
   2024 03 05 11:50  11 47 23.65    +03 02 51.1   0.0103 1.0022 169.0  m  20?   0.41 174.5   32 245 102  30
   2024 03 05 12:00  11 47 23.71    +03 02 47.0   0.0104 1.0022 169.0  m  20?   0.44 161.3   30 247 102  30
   2024 03 05 12:10  11 47 23.84    +03 02 42.8   0.0104 1.0022 169.0  m  20?   0.49 149.8   28 249 102  30
   2024 03 05 12:20  11 47 24.04    +03 02 38.6   0.0104 1.0022 169.0  m  20?   0.55 140.3   26 251 102  30
   2024 03 05 12:30  11 47 24.31    +03 02 34.3   0.0104 1.0022 169.0  m  20?   0.63 132.7   24 253 103  30
   2024 03 05 12:40  11 47 24.66    +03 02 30.0   0.0104 1.0022 169.0 Am  20?   0.72 126.7   23 254 103  30
   2024 03 05 12:50  11 47 25.08    +03 02 25.7   0.0104 1.0022 169.0 Am  20?   0.81 122.0   21 256 103  30
   2024 03 05 13:00  11 47 25.58    +03 02 21.4   0.0104 1.0022 169.0 Am  20?   0.92 118.2   19 258 103  29
   2024 03 05 13:10  11 47 26.16    +03 02 17.0   0.0104 1.0022 169.0 Nm  20?   1.02 115.2   17 260 103  29
   2024 03 05 13:20  11 47 26.82    +03 02 12.7   0.0104 1.0022 169.0 Nm  20?   1.14 112.6   15 261 103  29
   2024 03 05 13:30  11 47 27.56    +03 02 08.3   0.0104 1.0022 169.0 Nm  20?   1.25 110.5   13 263 103  29
   2024 03 05 13:40  11 47 28.38    +03 02 03.9   0.0104 1.0022 169.1 Cm  20?   1.37 108.7   11 264 103  29
   2024 03 05 13:50  11 47 29.29    +03 01 59.4   0.0104 1.0022 169.1 Cm  20?   1.49 107.2    9 266 103  29
   ................
   2024 03 06 02:20  11 50 33.24    +02 58 14.2   0.0104 1.0023 168.8 Nr  20?   2.01  94.1    0  86 109  24
   2024 03 06 02:30  11 50 34.54    +02 58 12.8   0.0104 1.0023 168.8 A   20?   1.88  94.3    1  87 109  24
   2024 03 06 02:40  11 50 35.75    +02 58 11.4   0.0104 1.0023 168.8 A   20?   1.75  94.7    3  89 109  24
   2024 03 06 02:50  11 50 36.87    +02 58 09.9   0.0104 1.0023 168.8 A   20?   1.62  95.0    5  90 109  24
   2024 03 06 03:00  11 50 37.91    +02 58 08.5   0.0104 1.0023 168.8 A   20?   1.50  95.5    7  92 110  24
   2024 03 06 03:10  11 50 38.86    +02 58 07.1   0.0104 1.0023 168.8     20?   1.37  96.0    9  94 110  24
   2024 03 06 03:20  11 50 39.73    +02 58 05.6   0.0104 1.0023 168.8     20?   1.25  96.7   11  95 110  24
   2024 03 06 03:30  11 50 40.51    +02 58 04.2   0.0104 1.0023 168.8     20?   1.12  97.5   13  97 110  24
   2024 03 06 03:40  11 50 41.22    +02 58 02.7   0.0104 1.0023 168.8     20?   1.00  98.5   15  98 110  24
   2024 03 06 03:50  11 50 41.84    +02 58 01.2   0.0104 1.0023 168.8     20?   0.88  99.8   17 100 110  24
   2024 03 06 04:00  11 50 42.38    +02 57 59.7   0.0104 1.0023 168.8     20?   0.76 101.5   19 102 110  23
   2024 03 06 04:10  11 50 42.84    +02 57 58.1   0.0104 1.0023 168.8     20?   0.65 103.8   21 103 110  23
   2024 03 06 04:20  11 50 43.22    +02 57 56.6   0.0104 1.0023 168.9     20?   0.54 107.0   23 105 111  23
   2024 03 06 04:30  11 50 43.52    +02 57 55.0   0.0104 1.0024 168.9     20?   0.43 111.8   25 107 111  23
   2024 03 06 04:40  11 50 43.76    +02 57 53.3   0.0104 1.0024 168.9     20?   0.34 119.3   27 109 111  23
   2024 03 06 04:50  11 50 43.92    +02 57 51.7   0.0104 1.0024 168.9     20?   0.25 132.0   29 111 111  23
   2024 03 06 05:00  11 50 44.01    +02 57 50.0   0.0104 1.0024 168.9     20?   0.19 154.4   30 112 111  23
   2024 03 06 05:10  11 50 44.03    +02 57 48.3   0.0104 1.0024 168.9     20?   0.18 185.8   32 115 111  23
   2024 03 06 05:20  11 50 43.98    +02 57 46.5   0.0104 1.0024 168.9     20?   0.21 212.5   34 117 111  23
   2024 03 06 05:30  11 50 43.87    +02 57 44.7   0.0104 1.0024 168.9     20?   0.28 228.4   36 119 111  23
   2024 03 06 05:40  11 50 43.71    +02 57 42.8   0.0104 1.0024 168.9     20?   0.35 237.5   37 121 112  23
   2024 03 06 05:50  11 50 43.48    +02 57 40.9   0.0104 1.0024 168.9     20?   0.43 243.1   39 124 112  23
   2024 03 06 06:00  11 50 43.20    +02 57 38.9   0.0104 1.0024 168.9     20?   0.50 246.7   41 126 112  22
   2024 03 06 06:10  11 50 42.86    +02 57 36.9   0.0104 1.0024 168.9     20?   0.58 249.3   42 129 112  22
   2024 03 06 06:20  11 50 42.48    +02 57 34.9   0.0104 1.0024 168.9     20?   0.64 251.1   44 131 112  22
   2024 03 06 06:30  11 50 42.05    +02 57 32.8   0.0104 1.0024 168.9     20?   0.71 252.4   45 134 112  22
   2024 03 06 06:40  11 50 41.58    +02 57 30.6   0.0104 1.0024 169.0     20?   0.77 253.4   47 137 112  22
   2024 03 06 06:50  11 50 41.07    +02 57 28.4   0.0104 1.0024 169.0     20?   0.83 254.1   48 141 112  22
   2024 03 06 07:00  11 50 40.52    +02 57 26.1   0.0104 1.0024 169.0     20?   0.88 254.7   49 144 113  22
   2024 03 06 07:10  11 50 39.94    +02 57 23.8   0.0103 1.0024 169.0     20?   0.92 255.1   50 147 113  22
   2024 03 06 07:20  11 50 39.33    +02 57 21.4   0.0103 1.0024 169.0     20?   0.96 255.4   51 151 113  22
   2024 03 06 07:30  11 50 38.69    +02 57 18.9   0.0103 1.0024 169.0     20?   1.00 255.6   52 155 113  22
   2024 03 06 07:40  11 50 38.04    +02 57 16.4   0.0103 1.0024 169.0     20?   1.03 255.7   53 159 113  22
   2024 03 06 07:50  11 50 37.36    +02 57 13.8   0.0103 1.0024 169.0     20?   1.06 255.7   53 163 113  22
   2024 03 06 08:00  11 50 36.67    +02 57 11.2   0.0103 1.0024 169.0     20?   1.08 255.6   54 167 113  21
   2024 03 06 08:10  11 50 35.97    +02 57 08.5   0.0103 1.0024 169.0     20?   1.09 255.5   54 171 113  21
   2024 03 06 08:20  11 50 35.26    +02 57 05.7   0.0103 1.0024 169.0     20?   1.10 255.3   55 176 113  21
   2024 03 06 08:30  11 50 34.55    +02 57 02.9   0.0103 1.0024 169.1  t  20?   1.10 255.0   55 180 114  21
   2024 03 06 08:40  11 50 33.84    +02 57 00.0   0.0103 1.0024 169.1     20?   1.10 254.6   54 185 114  21
   2024 03 06 08:50  11 50 33.13    +02 56 57.1   0.0103 1.0024 169.1     20?   1.10 254.2   54 189 114  21
   2024 03 06 09:00  11 50 32.43    +02 56 54.1   0.0103 1.0024 169.1     20?   1.08 253.7   54 193 114  21
   2024 03 06 09:10  11 50 31.75    +02 56 51.0   0.0103 1.0024 169.1     20?   1.06 253.0   53 197 114  21
   2024 03 06 09:20  11 50 31.07    +02 56 47.9   0.0103 1.0024 169.1     20?   1.04 252.3   53 201 114  21
   2024 03 06 09:30  11 50 30.42    +02 56 44.7   0.0104 1.0024 169.1     20?   1.01 251.4   52 205 114  21
   2024 03 06 09:40  11 50 29.79    +02 56 41.4   0.0104 1.0024 169.1     20?   0.98 250.4   51 209 114  21
   2024 03 06 09:50  11 50 29.19    +02 56 38.1   0.0104 1.0024 169.1     20?   0.94 249.2   50 213 114  21
   2024 03 06 10:00  11 50 28.62    +02 56 34.7   0.0104 1.0024 169.1     20?   0.90 247.8   49 216 115  21
   2024 03 06 10:10  11 50 28.08    +02 56 31.3   0.0104 1.0024 169.1     20?   0.85 246.1   47 219 115  21
   2024 03 06 10:20  11 50 27.57    +02 56 27.8   0.0104 1.0024 169.2     20?   0.80 244.1   46 223 115  20
   2024 03 06 10:30  11 50 27.11    +02 56 24.3   0.0104 1.0024 169.2     20?   0.75 241.7   45 226 115  20
   2024 03 06 10:40  11 50 26.69    +02 56 20.7   0.0104 1.0024 169.2     20?   0.70 238.7   43 228 115  20
   2024 03 06 10:50  11 50 26.32    +02 56 17.1   0.0104 1.0024 169.2     20?   0.64 234.9   42 231 115  20
   2024 03 06 11:00  11 50 25.99    +02 56 13.4   0.0104 1.0024 169.2     20?   0.58 230.1   40 234 115  20
   2024 03 06 11:10  11 50 25.72    +02 56 09.7   0.0104 1.0024 169.2     20?   0.52 224.0   39 236 115  20
   2024 03 06 11:20  11 50 25.51    +02 56 05.9   0.0104 1.0024 169.2     20?   0.47 216.1   37 239 115  20
   2024 03 06 11:30  11 50 25.36    +02 56 02.1   0.0104 1.0024 169.2     20?   0.43 206.0   35 241 115  20
   2024 03 06 11:40  11 50 25.26    +02 55 58.2   0.0104 1.0024 169.2     20?   0.40 193.6   33 243 115  20
   2024 03 06 11:50  11 50 25.23    +02 55 54.3   0.0104 1.0024 169.2  m  20?   0.39 179.6   32 245 116  20
   2024 03 06 12:00  11 50 25.27    +02 55 50.4   0.0104 1.0024 169.2  m  20?   0.41 165.3   30 247 116  20
   2024 03 06 12:10  11 50 25.37    +02 55 46.4   0.0104 1.0024 169.2  m  20?   0.45 152.5   28 249 116  20
   2024 03 06 12:20  11 50 25.54    +02 55 42.4   0.0104 1.0024 169.2  m  20?   0.51 141.9   26 251 116  20
   2024 03 06 12:30  11 50 25.79    +02 55 38.3   0.0104 1.0024 169.3  m  20?   0.59 133.6   24 253 116  20
   2024 03 06 12:40  11 50 26.11    +02 55 34.3   0.0104 1.0024 169.3 Am  20?   0.68 127.1   22 255 116  20
   2024 03 06 12:50  11 50 26.51    +02 55 30.2   0.0104 1.0024 169.3 Am  20?   0.77 122.1   20 256 116  20
   2024 03 06 13:00  11 50 26.99    +02 55 26.0   0.0104 1.0025 169.3 Am  20?   0.88 118.1   18 258 116  20
   2024 03 06 13:10  11 50 27.54    +02 55 21.9   0.0104 1.0025 169.3 Nm  20?   0.98 114.9   16 260 116  20
   2024 03 06 13:20  11 50 28.18    +02 55 17.8   0.0104 1.0025 169.3 Nm  20?   1.10 112.3   15 261 116  20
   2024 03 06 13:30  11 50 28.89    +02 55 13.6   0.0104 1.0025 169.3 Nm  20?   1.21 110.2   13 263 116  19
   2024 03 06 13:40  11 50 29.69    +02 55 09.4   0.0104 1.0025 169.3 Cm  20?   1.33 108.4   11 264 116  19
   2024 03 06 13:50  11 50 30.58    +02 55 05.2   0.0104 1.0025 169.3 Cm  20?   1.45 106.8    9 266 116  19
   ................
   2024 03 07 02:20  11 53 32.03    +02 51 32.2   0.0104 1.0026 169.0 Nr  20?   1.95  93.9    0  86 122  15
   2024 03 07 02:30  11 53 33.29    +02 51 30.8   0.0104 1.0026 169.0 N   20?   1.82  94.2    1  88 122  15
   2024 03 07 02:40  11 53 34.46    +02 51 29.5   0.0104 1.0026 169.1 A   20?   1.69  94.5    3  89 123  15
   2024 03 07 02:50  11 53 35.54    +02 51 28.2   0.0104 1.0026 169.1 A   20?   1.57  94.9    5  91 123  15
   2024 03 07 03:00  11 53 36.54    +02 51 26.8   0.0104 1.0026 169.1 A   20?   1.44  95.3    7  92 123  15
   2024 03 07 03:10  11 53 37.45    +02 51 25.5   0.0104 1.0026 169.1     20?   1.31  95.9    9  94 123  15
   2024 03 07 03:20  11 53 38.28    +02 51 24.2   0.0104 1.0026 169.1     20?   1.19  96.6   11  95 123  15
   2024 03 07 03:30  11 53 39.03    +02 51 22.8   0.0104 1.0026 169.1     20?   1.06  97.4   13  97 123  15
   2024 03 07 03:40  11 53 39.69    +02 51 21.4   0.0104 1.0026 169.1     20?   0.94  98.5   15  99 123  15
   2024 03 07 03:50  11 53 40.27    +02 51 20.0   0.0104 1.0026 169.1     20?   0.82  99.9   17 100 123  15
   2024 03 07 04:00  11 53 40.77    +02 51 18.6   0.0104 1.0026 169.1     20?   0.71 101.7   19 102 124  15
   2024 03 07 04:10  11 53 41.20    +02 51 17.1   0.0104 1.0026 169.1     20?   0.59 104.2   21 104 124  14
   2024 03 07 04:20  11 53 41.54    +02 51 15.7   0.0104 1.0026 169.1     20?   0.48 107.9   23 105 124  14
   2024 03 07 04:30  11 53 41.81    +02 51 14.2   0.0104 1.0026 169.1     20?   0.38 113.5   25 107 124  14
   2024 03 07 04:40  11 53 42.00    +02 51 12.6   0.0104 1.0026 169.1     20?   0.28 123.0   27 109 124  14
   2024 03 07 04:50  11 53 42.13    +02 51 11.1   0.0104 1.0026 169.1     20?   0.21 140.3   29 111 124  14
   2024 03 07 05:00  11 53 42.18    +02 51 09.5   0.0104 1.0026 169.1     20?   0.16 170.3   30 113 124  14
   2024 03 07 05:10  11 53 42.17    +02 51 07.8   0.0104 1.0026 169.1     20?   0.18 203.6   32 115 125  14
   2024 03 07 05:20  11 53 42.08    +02 51 06.2   0.0104 1.0026 169.1     20?   0.24 224.8   34 117 125  14
   2024 03 07 05:30  11 53 41.94    +02 51 04.5   0.0104 1.0026 169.1     20?   0.31 236.3   36 119 125  14
   2024 03 07 05:40  11 53 41.74    +02 51 02.7   0.0104 1.0026 169.1     20?   0.39 243.0   38 121 125  14
   2024 03 07 05:50  11 53 41.48    +02 51 00.9   0.0104 1.0026 169.2     20?   0.47 247.1   39 124 125  14
   2024 03 07 06:00  11 53 41.16    +02 50 59.1   0.0104 1.0027 169.2     20?   0.55 249.9   41 126 125  14
   2024 03 07 06:10  11 53 40.79    +02 50 57.2   0.0104 1.0027 169.2     20?   0.62 251.9   42 129 125  14
   2024 03 07 06:20  11 53 40.37    +02 50 55.2   0.0104 1.0027 169.2     20?   0.69 253.3   44 132 125  13
   2024 03 07 06:30  11 53 39.91    +02 50 53.2   0.0104 1.0027 169.2     20?   0.75 254.4   45 135 126  13
   2024 03 07 06:40  11 53 39.41    +02 50 51.2   0.0104 1.0027 169.2     20?   0.81 255.2   47 138 126  13
   2024 03 07 06:50  11 53 38.86    +02 50 49.1   0.0104 1.0027 169.2     20?   0.87 255.8   48 141 126  13
   2024 03 07 07:00  11 53 38.28    +02 50 46.9   0.0104 1.0027 169.2     20?   0.92 256.2   49 144 126  13
   2024 03 07 07:10  11 53 37.67    +02 50 44.7   0.0104 1.0027 169.2     20?   0.97 256.6   50 148 126  13
   2024 03 07 07:20  11 53 37.03    +02 50 42.4   0.0104 1.0027 169.2     20?   1.01 256.8   51 152 126  13
   2024 03 07 07:30  11 53 36.36    +02 50 40.1   0.0104 1.0027 169.2     20?   1.04 256.9   52 155 126  13
   2024 03 07 07:40  11 53 35.67    +02 50 37.7   0.0104 1.0027 169.2     20?   1.07 257.0   53 159 126  13
   2024 03 07 07:50  11 53 34.97    +02 50 35.3   0.0104 1.0027 169.3     20?   1.10 256.9   53 163 127  13
   2024 03 07 08:00  11 53 34.25    +02 50 32.8   0.0104 1.0027 169.3     20?   1.12 256.9   54 168 127  13
   2024 03 07 08:10  11 53 33.52    +02 50 30.2   0.0104 1.0027 169.3     20?   1.13 256.7   54 172 127  13
   2024 03 07 08:20  11 53 32.78    +02 50 27.6   0.0104 1.0027 169.3     20?   1.14 256.5   54 176 127  13
   2024 03 07 08:30  11 53 32.04    +02 50 24.9   0.0104 1.0027 169.3  t  20?   1.14 256.2   54 181 127  13
   2024 03 07 08:40  11 53 31.30    +02 50 22.2   0.0104 1.0027 169.3     20?   1.14 255.9   54 185 127  12
   2024 03 07 08:50  11 53 30.57    +02 50 19.4   0.0104 1.0027 169.3     20?   1.13 255.5   54 189 127  12
   2024 03 07 09:00  11 53 29.84    +02 50 16.5   0.0104 1.0027 169.3     20?   1.12 255.0   54 194 127  12
   2024 03 07 09:10  11 53 29.12    +02 50 13.6   0.0104 1.0027 169.3     20?   1.10 254.4   53 198 128  12
   2024 03 07 09:20  11 53 28.43    +02 50 10.6   0.0104 1.0027 169.3     20?   1.08 253.7   52 202 128  12
   2024 03 07 09:30  11 53 27.75    +02 50 07.6   0.0104 1.0027 169.4     20?   1.05 252.9   52 206 128  12
   2024 03 07 09:40  11 53 27.09    +02 50 04.5   0.0104 1.0027 169.4     20?   1.01 252.0   51 209 128  12
   2024 03 07 09:50  11 53 26.46    +02 50 01.4   0.0104 1.0027 169.4     20?   0.97 250.9   50 213 128  12
   2024 03 07 10:00  11 53 25.86    +02 49 58.2   0.0104 1.0027 169.4     20?   0.93 249.7   48 216 128  12
   2024 03 07 10:10  11 53 25.30    +02 49 54.9   0.0104 1.0027 169.4     20?   0.88 248.1   47 220 128  12
   2024 03 07 10:20  11 53 24.77    +02 49 51.6   0.0104 1.0027 169.4     20?   0.83 246.3   46 223 128  12
   2024 03 07 10:30  11 53 24.28    +02 49 48.2   0.0104 1.0027 169.4     20?   0.78 244.1   45 226 128  12
   2024 03 07 10:40  11 53 23.84    +02 49 44.8   0.0104 1.0027 169.4     20?   0.72 241.4   43 229 129  12
   2024 03 07 10:50  11 53 23.44    +02 49 41.4   0.0104 1.0027 169.4     20?   0.66 238.0   42 231 129  12
   2024 03 07 11:00  11 53 23.10    +02 49 37.9   0.0104 1.0027 169.4     20?   0.60 233.6   40 234 129  12
   2024 03 07 11:10  11 53 22.80    +02 49 34.3   0.0104 1.0027 169.4     20?   0.54 228.1   38 236 129  12
   2024 03 07 11:20  11 53 22.56    +02 49 30.7   0.0104 1.0027 169.5     20?   0.48 220.8   37 239 129  12
   2024 03 07 11:30  11 53 22.38    +02 49 27.1   0.0104 1.0027 169.5     20?   0.43 211.3   35 241 129  12
   2024 03 07 11:40  11 53 22.27    +02 49 23.4   0.0104 1.0027 169.5     20?   0.39 199.2   33 243 129  11
   2024 03 07 11:50  11 53 22.21    +02 49 19.7   0.0104 1.0027 169.5     20?   0.37 184.8   31 245 129  11
   2024 03 07 12:00  11 53 22.23    +02 49 15.9   0.0104 1.0027 169.5     20?   0.38 169.5   30 247 129  11
   2024 03 07 12:10  11 53 22.31    +02 49 12.1   0.0104 1.0027 169.5     20?   0.42 155.4   28 249 129  11
   2024 03 07 12:20  11 53 22.46    +02 49 08.3   0.0104 1.0027 169.5     20?   0.48 143.7   26 251 130  11
   2024 03 07 12:30  11 53 22.68    +02 49 04.5   0.0104 1.0027 169.5 Am  20?   0.55 134.5   24 253 130  11
   2024 03 07 12:40  11 53 22.98    +02 49 00.6   0.0104 1.0027 169.5 Am  20?   0.64 127.5   22 255 130  11
   2024 03 07 12:50  11 53 23.36    +02 48 56.7   0.0104 1.0027 169.5 Am  20?   0.73 122.2   20 256 130  11
   2024 03 07 13:00  11 53 23.81    +02 48 52.8   0.0104 1.0027 169.5 Am  20?   0.84 118.0   18 258 130  11
   2024 03 07 13:10  11 53 24.35    +02 48 48.8   0.0104 1.0027 169.5 Nm  20?   0.94 114.7   16 260 130  11
   2024 03 07 13:20  11 53 24.96    +02 48 44.9   0.0104 1.0027 169.5 Nm  20?   1.06 112.0   14 261 130  11
   2024 03 07 13:30  11 53 25.65    +02 48 40.9   0.0104 1.0027 169.5 Nm  20?   1.17 109.8   12 263 130  11
   2024 03 07 13:40  11 53 26.43    +02 48 36.9   0.0104 1.0027 169.5 Cm  20?   1.29 108.0   10 264 130  11
   2024 03 07 13:50  11 53 27.29    +02 48 32.9   0.0104 1.0027 169.5 Cm  20?   1.41 106.4    8 266 130  11
   ................
   2024 03 08 02:20  11 56 26.38    +02 45 10.8   0.0104 1.0029 169.3 N   20?   1.89  93.8    0  86 136   8
   2024 03 08 02:30  11 56 27.60    +02 45 09.6   0.0104 1.0029 169.3 N   20?   1.76  94.1    2  88 136   8
   2024 03 08 02:40  11 56 28.73    +02 45 08.3   0.0104 1.0029 169.3 A   20?   1.63  94.4    4  89 136   8
   2024 03 08 02:50  11 56 29.77    +02 45 07.1   0.0104 1.0029 169.3 A   20?   1.51  94.8    6  91 137   8
   2024 03 08 03:00  11 56 30.73    +02 45 05.8   0.0104 1.0029 169.3 A   20?   1.38  95.3    8  92 137   7
   2024 03 08 03:10  11 56 31.61    +02 45 04.5   0.0104 1.0029 169.3     20?   1.26  95.8   10  94 137   7
   2024 03 08 03:20  11 56 32.40    +02 45 03.3   0.0104 1.0029 169.3     20?   1.13  96.5   12  96 137   7
   2024 03 08 03:30  11 56 33.11    +02 45 02.0   0.0104 1.0029 169.3     20?   1.01  97.4   13  97 137   7
   2024 03 08 03:40  11 56 33.73    +02 45 00.7   0.0104 1.0029 169.3     20?   0.89  98.5   15  99 137   7
   2024 03 08 03:50  11 56 34.28    +02 44 59.3   0.0104 1.0029 169.3     20?   0.77 100.0   17 100 137   7
   2024 03 08 04:00  11 56 34.74    +02 44 58.0   0.0104 1.0029 169.3     20?   0.65 102.0   19 102 137   7
   2024 03 08 04:10  11 56 35.13    +02 44 56.6   0.0104 1.0029 169.3     20?   0.54 104.8   21 104 138   7
   2024 03 08 04:20  11 56 35.44    +02 44 55.2   0.0104 1.0029 169.3     20?   0.43 109.1   23 106 138   7
   2024 03 08 04:30  11 56 35.67    +02 44 53.8   0.0104 1.0029 169.3     20?   0.33 116.0   25 107 138   7
   2024 03 08 04:40  11 56 35.83    +02 44 52.4   0.0104 1.0029 169.4     20?   0.24 128.4   27 109 138   7
   2024 03 08 04:50  11 56 35.92    +02 44 50.9   0.0104 1.0029 169.4     20?   0.17 152.4   29 111 138   7
   2024 03 08 05:00  11 56 35.93    +02 44 49.4   0.0104 1.0029 169.4     20?   0.16 189.1   31 113 138   7
   2024 03 08 05:10  11 56 35.88    +02 44 47.8   0.0104 1.0029 169.4     20?   0.20 218.3   32 115 138   7
   2024 03 08 05:20  11 56 35.77    +02 44 46.2   0.0104 1.0029 169.4     20?   0.27 233.8   34 117 138   7
   2024 03 08 05:30  11 56 35.59    +02 44 44.6   0.0104 1.0029 169.4     20?   0.35 242.1   36 119 139   7
   2024 03 08 05:40  11 56 35.35    +02 44 43.0   0.0104 1.0029 169.4     20?   0.43 247.0   38 122 139   7
   2024 03 08 05:50  11 56 35.06    +02 44 41.2   0.0104 1.0029 169.4     20?   0.51 250.2   39 124 139   7
   2024 03 08 06:00  11 56 34.71    +02 44 39.5   0.0104 1.0029 169.4     20?   0.59 252.4   41 127 139   6
   2024 03 08 06:10  11 56 34.31    +02 44 37.7   0.0104 1.0029 169.4     20?   0.66 254.0   42 129 139   6
   2024 03 08 06:20  11 56 33.86    +02 44 35.8   0.0104 1.0029 169.4     20?   0.73 255.1   44 132 139   6
   2024 03 08 06:30  11 56 33.36    +02 44 33.9   0.0104 1.0029 169.4     20?   0.80 256.0   45 135 139   6
   2024 03 08 06:40  11 56 32.83    +02 44 32.0   0.0104 1.0029 169.4     20?   0.86 256.6   47 138 140   6
   2024 03 08 06:50  11 56 32.25    +02 44 30.0   0.0104 1.0029 169.5     20?   0.91 257.1   48 141 140   6
   2024 03 08 07:00  11 56 31.64    +02 44 27.9   0.0104 1.0029 169.5     20?   0.96 257.5   49 145 140   6
   2024 03 08 07:10  11 56 31.00    +02 44 25.8   0.0104 1.0029 169.5     20?   1.01 257.7   50 148 140   6
   2024 03 08 07:20  11 56 30.33    +02 44 23.7   0.0104 1.0030 169.5     20?   1.05 257.9   51 152 140   6
   2024 03 08 07:30  11 56 29.63    +02 44 21.5   0.0104 1.0030 169.5     20?   1.08 258.0   52 156 140   6
   2024 03 08 07:40  11 56 28.92    +02 44 19.2   0.0104 1.0030 169.5     20?   1.11 258.0   53 160 140   6
   2024 03 08 07:50  11 56 28.18    +02 44 16.9   0.0104 1.0030 169.5     20?   1.14 258.0   53 164 141   6
   2024 03 08 08:00  11 56 27.44    +02 44 14.5   0.0104 1.0030 169.5     20?   1.15 257.9   54 168 141   6
   2024 03 08 08:10  11 56 26.68    +02 44 12.0   0.0104 1.0030 169.5     20?   1.17 257.7   54 172 141   6
   2024 03 08 08:20  11 56 25.91    +02 44 09.5   0.0104 1.0030 169.5     20?   1.18 257.5   54 177 141   6
   2024 03 08 08:30  11 56 25.15    +02 44 07.0   0.0104 1.0030 169.6  t  20?   1.18 257.3   54 181 141   6
   2024 03 08 08:40  11 56 24.38    +02 44 04.3   0.0104 1.0030 169.6     20?   1.17 256.9   54 185 141   6
   2024 03 08 08:50  11 56 23.62    +02 44 01.7   0.0104 1.0030 169.6     20?   1.17 256.6   54 190 141   6
   2024 03 08 09:00  11 56 22.87    +02 43 58.9   0.0104 1.0030 169.6     20?   1.15 256.1   54 194 141   6
   2024 03 08 09:10  11 56 22.13    +02 43 56.2   0.0104 1.0030 169.6     20?   1.13 255.6   53 198 142   5
   2024 03 08 09:20  11 56 21.41    +02 43 53.3   0.0104 1.0030 169.6     20?   1.11 254.9   52 202 142   5
   2024 03 08 09:30  11 56 20.70    +02 43 50.4   0.0104 1.0030 169.6     20?   1.08 254.2   51 206 142   5
   2024 03 08 09:40  11 56 20.02    +02 43 47.5   0.0104 1.0030 169.6     20?   1.04 253.3   50 210 142   5
   2024 03 08 09:50  11 56 19.37    +02 43 44.5   0.0104 1.0030 169.6     20?   1.00 252.3   49 213 142   5
   2024 03 08 10:00  11 56 18.75    +02 43 41.4   0.0104 1.0030 169.6     20?   0.96 251.2   48 217 142   5
   2024 03 08 10:10  11 56 18.16    +02 43 38.3   0.0104 1.0030 169.6     20?   0.91 249.8   47 220 142   5
   2024 03 08 10:20  11 56 17.61    +02 43 35.1   0.0104 1.0030 169.7     20?   0.86 248.1   46 223 142   5
   2024 03 08 10:30  11 56 17.10    +02 43 31.9   0.0104 1.0030 169.7     20?   0.80 246.1   44 226 142   5
   2024 03 08 10:40  11 56 16.64    +02 43 28.7   0.0104 1.0030 169.7     20?   0.74 243.6   43 229 143   5
   2024 03 08 10:50  11 56 16.22    +02 43 25.3   0.0104 1.0030 169.7     20?   0.68 240.5   41 232 143   5
   2024 03 08 11:00  11 56 15.85    +02 43 22.0   0.0104 1.0030 169.7     20?   0.61 236.6   40 234 143   5
   2024 03 08 11:10  11 56 15.54    +02 43 18.6   0.0104 1.0030 169.7     20?   0.55 231.5   38 237 143   5
   2024 03 08 11:20  11 56 15.28    +02 43 15.2   0.0104 1.0030 169.7     20?   0.49 224.8   36 239 143   5
   2024 03 08 11:30  11 56 15.08    +02 43 11.7   0.0104 1.0030 169.7     20?   0.43 215.9   35 241 143   5
   2024 03 08 11:40  11 56 14.94    +02 43 08.2   0.0104 1.0030 169.7     20?   0.39 204.2   33 243 143   5
   2024 03 08 11:50  11 56 14.87    +02 43 04.6   0.0104 1.0030 169.7     20?   0.36 189.7   31 245 143   5
   2024 03 08 12:00  11 56 14.86    +02 43 01.0   0.0104 1.0030 169.7     20?   0.36 173.6   29 247 143   5
   2024 03 08 12:10  11 56 14.92    +02 42 57.4   0.0104 1.0030 169.7     20?   0.39 158.3   27 249 144   5
   2024 03 08 12:20  11 56 15.05    +02 42 53.8   0.0104 1.0030 169.7     20?   0.45 145.4   26 251 144   5
   2024 03 08 12:30  11 56 15.26    +02 42 50.1   0.0104 1.0030 169.8 A   20?   0.52 135.5   24 253 144   5
   2024 03 08 12:40  11 56 15.54    +02 42 46.4   0.0104 1.0030 169.8 A   20?   0.60 127.9   22 255 144   5
   2024 03 08 12:50  11 56 15.89    +02 42 42.6   0.0104 1.0030 169.8 A   20?   0.70 122.2   20 256 144   5
   2024 03 08 13:00  11 56 16.33    +02 42 38.9   0.0104 1.0030 169.8 N   20?   0.80 117.9   18 258 144   5
   2024 03 08 13:10  11 56 16.84    +02 42 35.1   0.0104 1.0030 169.8 Nm  20?   0.91 114.4   16 260 144   5
   2024 03 08 13:20  11 56 17.44    +02 42 31.3   0.0104 1.0030 169.8 Nm  20?   1.02 111.7   14 261 144   5
   2024 03 08 13:30  11 56 18.11    +02 42 27.5   0.0104 1.0030 169.8 Cm  20?   1.14 109.5   12 263 144   4
   2024 03 08 13:40  11 56 18.87    +02 42 23.7   0.0104 1.0030 169.8 Cm  20?   1.26 107.6   10 265 144   4
   ................
   2024 03 09 02:20  11 59 16.61    +02 39 06.9   0.0104 1.0032 169.6 N   20?   1.83  93.7    0  87 150   2
   2024 03 09 02:30  11 59 17.79    +02 39 05.7   0.0104 1.0032 169.6 N   20?   1.71  94.0    2  88 150   2
   2024 03 09 02:40  11 59 18.89    +02 39 04.5   0.0104 1.0032 169.6 A   20?   1.58  94.3    4  90 151   2
   2024 03 09 02:50  11 59 19.90    +02 39 03.3   0.0104 1.0032 169.6 A   20?   1.45  94.8    6  91 151   2
   2024 03 09 03:00  11 59 20.82    +02 39 02.1   0.0104 1.0032 169.6 A   20?   1.33  95.2    8  93 151   2
   2024 03 09 03:10  11 59 21.66    +02 39 00.8   0.0104 1.0032 169.6     20?   1.20  95.8   10  94 151   2
   2024 03 09 03:20  11 59 22.42    +02 38 59.6   0.0104 1.0032 169.6     20?   1.08  96.6   12  96 151   2
   2024 03 09 03:30  11 59 23.09    +02 38 58.4   0.0104 1.0032 169.6     20?   0.95  97.5   14  97 151   2
   2024 03 09 03:40  11 59 23.68    +02 38 57.1   0.0104 1.0032 169.6     20?   0.83  98.7   16  99 151   2
   2024 03 09 03:50  11 59 24.19    +02 38 55.9   0.0104 1.0032 169.6     20?   0.71 100.3   18 101 151   2
   2024 03 09 04:00  11 59 24.62    +02 38 54.6   0.0104 1.0032 169.6     20?   0.60 102.5   19 102 152   2
   2024 03 09 04:10  11 59 24.97    +02 38 53.3   0.0104 1.0032 169.6     20?   0.49 105.7   21 104 152   2
   2024 03 09 04:20  11 59 25.24    +02 38 51.9   0.0104 1.0032 169.6     20?   0.38 110.8   23 106 152   2
   2024 03 09 04:30  11 59 25.44    +02 38 50.6   0.0104 1.0032 169.6     20?   0.28 119.5   25 108 152   2
   2024 03 09 04:40  11 59 25.57    +02 38 49.2   0.0104 1.0032 169.6     20?   0.19 136.3   27 109 152   2
   2024 03 09 04:50  11 59 25.62    +02 38 47.7   0.0104 1.0032 169.6     20?   0.15 168.6   29 111 152   2
   2024 03 09 05:00  11 59 25.61    +02 38 46.3   0.0104 1.0032 169.6     20?   0.16 206.4   31 113 152   2
   2024 03 09 05:10  11 59 25.53    +02 38 44.8   0.0104 1.0032 169.6     20?   0.23 228.7   33 115 153   2
   2024 03 09 05:20  11 59 25.38    +02 38 43.3   0.0104 1.0032 169.6     20?   0.31 239.9   34 118 153   2
   2024 03 09 05:30  11 59 25.17    +02 38 41.7   0.0104 1.0032 169.7     20?   0.39 246.1   36 120 153   2
   2024 03 09 05:40  11 59 24.90    +02 38 40.1   0.0104 1.0032 169.7     20?   0.47 249.9   38 122 153   2
   2024 03 09 05:50  11 59 24.58    +02 38 38.5   0.0104 1.0032 169.7     20?   0.55 252.4   39 125 153   2
   2024 03 09 06:00  11 59 24.20    +02 38 36.8   0.0104 1.0032 169.7     20?   0.63 254.2   41 127 153   2
   2024 03 09 06:10  11 59 23.77    +02 38 35.0   0.0104 1.0032 169.7     20?   0.70 255.5   43 130 153   2
   2024 03 09 06:20  11 59 23.29    +02 38 33.3   0.0104 1.0032 169.7     20?   0.77 256.4   44 133 153   2
   2024 03 09 06:30  11 59 22.77    +02 38 31.4   0.0104 1.0032 169.7     20?   0.84 257.2   45 136 154   2
   2024 03 09 06:40  11 59 22.20    +02 38 29.5   0.0104 1.0032 169.7     20?   0.90 257.7   47 139 154   2
   2024 03 09 06:50  11 59 21.60    +02 38 27.6   0.0104 1.0032 169.7     20?   0.95 258.1   48 142 154   1
   2024 03 09 07:00  11 59 20.96    +02 38 25.6   0.0104 1.0032 169.7     20?   1.00 258.4   49 145 154   1
   2024 03 09 07:10  11 59 20.29    +02 38 23.6   0.0104 1.0032 169.7     20?   1.05 258.6   50 149 154   1
   2024 03 09 07:20  11 59 19.59    +02 38 21.5   0.0104 1.0032 169.7     20?   1.08 258.7   51 152 154   1
   2024 03 09 07:30  11 59 18.87    +02 38 19.4   0.0104 1.0032 169.8     20?   1.12 258.8   52 156 154   1
   2024 03 09 07:40  11 59 18.13    +02 38 17.2   0.0104 1.0032 169.8     20?   1.15 258.8   53 160 155   1
   2024 03 09 07:50  11 59 17.37    +02 38 15.0   0.0104 1.0032 169.8     20?   1.17 258.8   53 164 155   1
   2024 03 09 08:00  11 59 16.60    +02 38 12.7   0.0104 1.0032 169.8     20?   1.19 258.7   54 169 155   1
   2024 03 09 08:10  11 59 15.81    +02 38 10.3   0.0104 1.0032 169.8     20?   1.20 258.5   54 173 155   1
   2024 03 09 08:20  11 59 15.03    +02 38 07.9   0.0104 1.0032 169.8     20?   1.21 258.3   54 177 155   1
   2024 03 09 08:30  11 59 14.24    +02 38 05.4   0.0104 1.0033 169.8  t  20?   1.21 258.1   54 182 155   1
   2024 03 09 08:40  11 59 13.45    +02 38 02.9   0.0104 1.0033 169.8     20?   1.21 257.8   54 186 155   1
   2024 03 09 08:50  11 59 12.66    +02 38 00.3   0.0104 1.0033 169.8     20?   1.20 257.4   54 190 156   1
   2024 03 09 09:00  11 59 11.89    +02 37 57.7   0.0104 1.0033 169.8     20?   1.18 257.0   53 194 156   1
   2024 03 09 09:10  11 59 11.13    +02 37 55.0   0.0104 1.0033 169.9     20?   1.16 256.4   53 199 156   1
   2024 03 09 09:20  11 59 10.39    +02 37 52.3   0.0104 1.0033 169.9     20?   1.14 255.9   52 203 156   1
   2024 03 09 09:30  11 59 09.66    +02 37 49.5   0.0104 1.0033 169.9     20?   1.10 255.2   51 206 156   1
   2024 03 09 09:40  11 59 08.96    +02 37 46.7   0.0104 1.0033 169.9     20?   1.07 254.4   50 210 156   1
   2024 03 09 09:50  11 59 08.29    +02 37 43.8   0.0104 1.0033 169.9     20?   1.03 253.4   49 214 156   1
   2024 03 09 10:00  11 59 07.65    +02 37 40.8   0.0104 1.0033 169.9     20?   0.98 252.3   48 217 156   1
   2024 03 09 10:10  11 59 07.04    +02 37 37.8   0.0104 1.0033 169.9     20?   0.93 251.0   47 220 157   1
   2024 03 09 10:20  11 59 06.47    +02 37 34.8   0.0104 1.0033 169.9     20?   0.88 249.5   45 223 157   1
   2024 03 09 10:30  11 59 05.94    +02 37 31.7   0.0104 1.0033 169.9     20?   0.82 247.6   44 226 157   1
   2024 03 09 10:40  11 59 05.46    +02 37 28.5   0.0104 1.0033 169.9     20?   0.76 245.3   43 229 157   1
   2024 03 09 10:50  11 59 05.02    +02 37 25.3   0.0104 1.0033 170.0     20?   0.69 242.5   41 232 157   1
   2024 03 09 11:00  11 59 04.64    +02 37 22.1   0.0104 1.0033 170.0     20?   0.63 238.8   39 234 157   1
   2024 03 09 11:10  11 59 04.30    +02 37 18.8   0.0104 1.0033 170.0     20?   0.56 234.1   38 237 157   1
   2024 03 09 11:20  11 59 04.03    +02 37 15.5   0.0104 1.0033 170.0     20?   0.50 227.9   36 239 157   1
   2024 03 09 11:30  11 59 03.81    +02 37 12.2   0.0104 1.0033 170.0     20?   0.44 219.5   34 241 158   1
   2024 03 09 11:40  11 59 03.66    +02 37 08.8   0.0104 1.0033 170.0     20?   0.39 208.4   33 243 158   1
   2024 03 09 11:50  11 59 03.57    +02 37 05.4   0.0104 1.0033 170.0     20?   0.35 194.0   31 246 158   1
   2024 03 09 12:00  11 59 03.54    +02 37 01.9   0.0104 1.0033 170.0     20?   0.35 177.4   29 247 158   1
   2024 03 09 12:10  11 59 03.59    +02 36 58.4   0.0104 1.0033 170.0     20?   0.37 161.0   27 249 158   1
   2024 03 09 12:20  11 59 03.70    +02 36 54.9   0.0104 1.0033 170.0     20?   0.42 147.0   25 251 158   1
   2024 03 09 12:30  11 59 03.89    +02 36 51.4   0.0104 1.0033 170.0 A   20?   0.49 136.3   23 253 158   1
   2024 03 09 12:40  11 59 04.16    +02 36 47.8   0.0104 1.0033 170.0 A   20?   0.58 128.3   21 255 158   1
   2024 03 09 12:50  11 59 04.50    +02 36 44.2   0.0104 1.0033 170.0 A   20?   0.67 122.3   20 257 158   1
   2024 03 09 13:00  11 59 04.92    +02 36 40.6   0.0104 1.0033 170.0 N   20?   0.78 117.8   18 258 159   1
   2024 03 09 13:10  11 59 05.42    +02 36 37.0   0.0104 1.0033 170.0 N   20?   0.88 114.2   16 260 159   1
   2024 03 09 13:20  11 59 05.99    +02 36 33.3   0.0104 1.0033 170.0 N   20?   1.00 111.4   14 261 159   1
   2024 03 09 13:30  11 59 06.65    +02 36 29.7   0.0104 1.0033 170.0 C   20?   1.11 109.2   12 263 159   1
   2024 03 09 13:40  11 59 07.40    +02 36 26.0   0.0104 1.0033 170.1 Cm  20?   1.23 107.3   10 265 159   1
   ................
   2024 03 10 02:20  12 02 03.18    +02 33 15.9   0.0104 1.0035 169.8 N   20?   1.78  93.8    0  87 165   0
   2024 03 10 02:30  12 02 04.33    +02 33 14.8   0.0104 1.0035 169.8 N   20?   1.66  94.1    2  88 165   0
   2024 03 10 02:40  12 02 05.39    +02 33 13.6   0.0104 1.0035 169.8 A   20?   1.53  94.4    4  90 165   0
   2024 03 10 02:50  12 02 06.36    +02 33 12.4   0.0104 1.0035 169.8 A   20?   1.40  94.8    6  91 165   0
   2024 03 10 03:00  12 02 07.25    +02 33 11.2   0.0104 1.0035 169.8 A   20?   1.28  95.3    8  93 165   0
   2024 03 10 03:10  12 02 08.06    +02 33 10.0   0.0104 1.0035 169.8     20?   1.15  96.0   10  95 165   0
   2024 03 10 03:20  12 02 08.78    +02 33 08.8   0.0104 1.0035 169.8     20?   1.03  96.8   12  96 166   0
   2024 03 10 03:30  12 02 09.42    +02 33 07.6   0.0104 1.0035 169.9     20?   0.91  97.8   14  98 166   0
   2024 03 10 03:40  12 02 09.98    +02 33 06.4   0.0104 1.0035 169.9     20?   0.79  99.1   16  99 166   0
   2024 03 10 03:50  12 02 10.46    +02 33 05.1   0.0104 1.0035 169.9     20?   0.67 100.8   18 101 166   0
   2024 03 10 04:00  12 02 10.86    +02 33 03.9   0.0104 1.0035 169.9     20?   0.55 103.3   20 103 166   0
   2024 03 10 04:10  12 02 11.18    +02 33 02.6   0.0104 1.0035 169.9     20?   0.44 107.1   22 104 166   0
   2024 03 10 04:20  12 02 11.42    +02 33 01.3   0.0104 1.0035 169.9     20?   0.34 113.2   23 106 166   0
   2024 03 10 04:30  12 02 11.59    +02 32 59.9   0.0104 1.0035 169.9     20?   0.24 124.4   25 108 166   0
   2024 03 10 04:40  12 02 11.69    +02 32 58.6   0.0104 1.0035 169.9     20?   0.16 147.0   27 110 167   0
   2024 03 10 04:50  12 02 11.71    +02 32 57.2   0.0104 1.0035 169.9     20?   0.14 186.2   29 112 167   0
   2024 03 10 05:00  12 02 11.67    +02 32 55.7   0.0104 1.0035 169.9     20?   0.19 218.9   31 114 167   0
   2024 03 10 05:10  12 02 11.56    +02 32 54.3   0.0104 1.0035 169.9     20?   0.26 235.4   33 116 167   0
   2024 03 10 05:20  12 02 11.38    +02 32 52.8   0.0104 1.0035 169.9     20?   0.34 243.9   34 118 167   0
   2024 03 10 05:30  12 02 11.14    +02 32 51.2   0.0104 1.0035 169.9     20?   0.43 248.7   36 120 167   0
   2024 03 10 05:40  12 02 10.85    +02 32 49.6   0.0104 1.0035 169.9     20?   0.51 251.8   38 123 167   0
   2024 03 10 05:50  12 02 10.49    +02 32 48.0   0.0104 1.0035 169.9     20?   0.59 253.9   39 125 167   0
   2024 03 10 06:00  12 02 10.09    +02 32 46.4   0.0104 1.0035 169.9     20?   0.67 255.4   41 128 168   0
   2024 03 10 06:10  12 02 09.63    +02 32 44.7   0.0104 1.0035 170.0     20?   0.74 256.5   43 130 168   0
   2024 03 10 06:20  12 02 09.13    +02 32 42.9   0.0104 1.0035 170.0     20?   0.81 257.3   44 133 168   0
   2024 03 10 06:30  12 02 08.58    +02 32 41.1   0.0104 1.0035 170.0     20?   0.87 258.0   45 136 168   0
   2024 03 10 06:40  12 02 07.99    +02 32 39.3   0.0104 1.0035 170.0     20?   0.93 258.4   47 139 168   0
   2024 03 10 06:50  12 02 07.36    +02 32 37.4   0.0104 1.0035 170.0     20?   0.99 258.8   48 142 168   0
   2024 03 10 07:00  12 02 06.70    +02 32 35.5   0.0104 1.0035 170.0     20?   1.03 259.0   49 146 168   0
   2024 03 10 07:10  12 02 06.01    +02 32 33.5   0.0104 1.0035 170.0     20?   1.08 259.2   50 149 169   0
   2024 03 10 07:20  12 02 05.29    +02 32 31.5   0.0104 1.0035 170.0     20?   1.12 259.3   51 153 169   0
   2024 03 10 07:30  12 02 04.54    +02 32 29.4   0.0104 1.0035 170.0     20?   1.15 259.4   52 157 169   0
   2024 03 10 07:40  12 02 03.78    +02 32 27.2   0.0104 1.0035 170.0     20?   1.18 259.4   53 161 169   0
   2024 03 10 07:50  12 02 03.00    +02 32 25.0   0.0104 1.0035 170.1     20?   1.20 259.3   53 165 169   0
   2024 03 10 08:00  12 02 02.20    +02 32 22.8   0.0104 1.0035 170.1     20?   1.22 259.2   54 169 169   0
   2024 03 10 08:10  12 02 01.40    +02 32 20.5   0.0104 1.0035 170.1     20?   1.23 259.1   54 173 169   0
   2024 03 10 08:20  12 02 00.59    +02 32 18.1   0.0104 1.0035 170.1     20?   1.24 258.9   54 178 170   0
   2024 03 10 08:30  12 01 59.78    +02 32 15.7   0.0104 1.0035 170.1  t  20?   1.24 258.6   54 182 170   0
   2024 03 10 08:40  12 01 58.97    +02 32 13.3   0.0104 1.0035 170.1     20?   1.23 258.3   54 186 170   0
   2024 03 10 08:50  12 01 58.17    +02 32 10.8   0.0104 1.0035 170.1     20?   1.22 258.0   54 191 170   0
   2024 03 10 09:00  12 01 57.38    +02 32 08.2   0.0104 1.0035 170.1     20?   1.21 257.5   53 195 170   0
   2024 03 10 09:10  12 01 56.60    +02 32 05.6   0.0104 1.0035 170.1     20?   1.18 257.1   53 199 170   0
   2024 03 10 09:20  12 01 55.84    +02 32 02.9   0.0104 1.0035 170.1     20?   1.16 256.5   52 203 170   0
   2024 03 10 09:30  12 01 55.10    +02 32 00.2   0.0104 1.0036 170.2     20?   1.13 255.8   51 207 170   0
   2024 03 10 09:40  12 01 54.38    +02 31 57.4   0.0104 1.0036 170.2     20?   1.09 255.1   50 210 171   0
   2024 03 10 09:50  12 01 53.69    +02 31 54.6   0.0104 1.0036 170.2     20?   1.05 254.2   49 214 171   0
   2024 03 10 10:00  12 01 53.04    +02 31 51.7   0.0104 1.0036 170.2     20?   1.00 253.2   48 217 171   0
   2024 03 10 10:10  12 01 52.41    +02 31 48.8   0.0104 1.0036 170.2     20?   0.95 251.9   47 221 171   0
   2024 03 10 10:20  12 01 51.83    +02 31 45.8   0.0104 1.0036 170.2     20?   0.90 250.5   45 224 171   0
   2024 03 10 10:30  12 01 51.29    +02 31 42.8   0.0104 1.0036 170.2     20?   0.84 248.7   44 227 171   0
   2024 03 10 10:40  12 01 50.79    +02 31 39.8   0.0104 1.0036 170.2     20?   0.77 246.5   42 229 171   0
   2024 03 10 10:50  12 01 50.34    +02 31 36.7   0.0104 1.0036 170.2     20?   0.71 243.9   41 232 172   0
   2024 03 10 11:00  12 01 49.94    +02 31 33.5   0.0104 1.0036 170.2     20?   0.64 240.4   39 235 172   0
   2024 03 10 11:10  12 01 49.59    +02 31 30.3   0.0104 1.0036 170.2     20?   0.57 236.0   38 237 172   0
   2024 03 10 11:20  12 01 49.30    +02 31 27.1   0.0104 1.0036 170.2     20?   0.51 230.1   36 239 172   0
   2024 03 10 11:30  12 01 49.08    +02 31 23.9   0.0104 1.0036 170.3     20?   0.44 222.2   34 241 172   0
   2024 03 10 11:40  12 01 48.91    +02 31 20.6   0.0104 1.0036 170.3     20?   0.39 211.4   32 244 172   0
   2024 03 10 11:50  12 01 48.81    +02 31 17.2   0.0104 1.0036 170.3     20?   0.35 197.3   31 246 172   0
   2024 03 10 12:00  12 01 48.77    +02 31 13.9   0.0104 1.0036 170.3     20?   0.34 180.4   29 248 172   0
   2024 03 10 12:10  12 01 48.80    +02 31 10.5   0.0104 1.0036 170.3     20?   0.36 163.2   27 250 173   0
   2024 03 10 12:20  12 01 48.91    +02 31 07.1   0.0104 1.0036 170.3     20?   0.40 148.4   25 251 173   0
   2024 03 10 12:30  12 01 49.08    +02 31 03.6   0.0104 1.0036 170.3 A   20?   0.47 137.0   23 253 173   0
   2024 03 10 12:40  12 01 49.34    +02 31 00.2   0.0104 1.0036 170.3 A   20?   0.56 128.6   21 255 173   0
   2024 03 10 12:50  12 01 49.67    +02 30 56.7   0.0104 1.0036 170.3 A   20?   0.65 122.4   19 257 173   0
   2024 03 10 13:00  12 01 50.07    +02 30 53.2   0.0104 1.0036 170.3 N   20?   0.76 117.7   17 258 173   0
   2024 03 10 13:10  12 01 50.56    +02 30 49.6   0.0104 1.0036 170.3 N   20?   0.87 114.1   15 260 173   0
   2024 03 10 13:20  12 01 51.13    +02 30 46.1   0.0104 1.0036 170.3 N   20?   0.98 111.2   13 262 173   0
   2024 03 10 13:30  12 01 51.78    +02 30 42.6   0.0104 1.0036 170.3 C   20?   1.09 108.9   11 263 173   0
   2024 03 10 13:40  12 01 52.51    +02 30 39.0   0.0104 1.0036 170.3 C   20?   1.21 107.1    9 265 174   0
   ................
   2024 03 11 02:20  12 04 46.61    +02 27 32.9   0.0105 1.0038 170.1 Nm  20?   1.74  93.9    0  87 178   0
   2024 03 11 02:30  12 04 47.73    +02 27 31.7   0.0105 1.0038 170.1 N   20?   1.61  94.2    2  89 178   0
   2024 03 11 02:40  12 04 48.76    +02 27 30.5   0.0105 1.0038 170.1 A   20?   1.49  94.6    4  90 178   0
   2024 03 11 02:50  12 04 49.71    +02 27 29.4   0.0105 1.0038 170.1 A   20?   1.36  95.1    6  92 178   0
   2024 03 11 03:00  12 04 50.57    +02 27 28.2   0.0104 1.0038 170.1 A   20?   1.23  95.6    8  93 178   0
   2024 03 11 03:10  12 04 51.34    +02 27 26.9   0.0104 1.0038 170.1     20?   1.11  96.3   10  95 178   0
   2024 03 11 03:20  12 04 52.04    +02 27 25.7   0.0104 1.0038 170.1     20?   0.99  97.1   12  96 178   0
   2024 03 11 03:30  12 04 52.65    +02 27 24.5   0.0104 1.0038 170.1     20?   0.86  98.2   14  98 178   0
   2024 03 11 03:40  12 04 53.18    +02 27 23.2   0.0104 1.0038 170.1     20?   0.74  99.7   16 100 178   0
   2024 03 11 03:50  12 04 53.63    +02 27 22.0   0.0104 1.0038 170.1     20?   0.63 101.7   18 101 178   0
   2024 03 11 04:00  12 04 54.00    +02 27 20.7   0.0104 1.0038 170.1     20?   0.51 104.6   20 103 178   0
   2024 03 11 04:10  12 04 54.29    +02 27 19.4   0.0104 1.0038 170.1     20?   0.40 109.0   22 105 178   0
   2024 03 11 04:20  12 04 54.51    +02 27 18.1   0.0104 1.0038 170.2     20?   0.30 116.5   24 106 178   0
   2024 03 11 04:30  12 04 54.65    +02 27 16.7   0.0104 1.0038 170.2     20?   0.21 130.9   26 108 178   0
   2024 03 11 04:40  12 04 54.72    +02 27 15.3   0.0104 1.0038 170.2     20?   0.15 160.2   27 110 178   0
   2024 03 11 04:50  12 04 54.72    +02 27 13.9   0.0104 1.0038 170.2     20?   0.15 200.7   29 112 178   0
   2024 03 11 05:00  12 04 54.65    +02 27 12.5   0.0104 1.0038 170.2     20?   0.21 226.7   31 114 177   0
   2024 03 11 05:10  12 04 54.51    +02 27 11.0   0.0104 1.0038 170.2     20?   0.29 239.4   33 116 177   0
   2024 03 11 05:20  12 04 54.31    +02 27 09.5   0.0104 1.0038 170.2     20?   0.38 246.2   35 118 177   0
   2024 03 11 05:30  12 04 54.05    +02 27 07.9   0.0104 1.0038 170.2     20?   0.46 250.2   36 121 177   1
   2024 03 11 05:40  12 04 53.73    +02 27 06.4   0.0104 1.0038 170.2     20?   0.55 252.9   38 123 177   1
   2024 03 11 05:50  12 04 53.36    +02 27 04.7   0.0104 1.0038 170.2     20?   0.63 254.7   40 125 177   1
   2024 03 11 06:00  12 04 52.93    +02 27 03.1   0.0104 1.0038 170.2     20?   0.70 256.1   41 128 177   1
   2024 03 11 06:10  12 04 52.45    +02 27 01.4   0.0104 1.0038 170.2     20?   0.77 257.1   43 131 177   1
   2024 03 11 06:20  12 04 51.92    +02 26 59.6   0.0104 1.0038 170.2     20?   0.84 257.8   44 133 177   1
   2024 03 11 06:30  12 04 51.35    +02 26 57.8   0.0104 1.0038 170.3     20?   0.90 258.4   46 136 176   1
   2024 03 11 06:40  12 04 50.74    +02 26 56.0   0.0104 1.0038 170.3     20?   0.96 258.8   47 140 176   1
   2024 03 11 06:50  12 04 50.09    +02 26 54.1   0.0104 1.0038 170.3     20?   1.02 259.1   48 143 176   1
   2024 03 11 07:00  12 04 49.41    +02 26 52.2   0.0104 1.0038 170.3     20?   1.06 259.4   49 146 176   1
   2024 03 11 07:10  12 04 48.70    +02 26 50.2   0.0104 1.0038 170.3     20?   1.11 259.5   50 150 176   1
   2024 03 11 07:20  12 04 47.96    +02 26 48.2   0.0104 1.0038 170.3     20?   1.14 259.6   51 154 176   1
   2024 03 11 07:30  12 04 47.20    +02 26 46.1   0.0104 1.0038 170.3     20?   1.18 259.7   52 157 176   1
   2024 03 11 07:40  12 04 46.41    +02 26 44.0   0.0104 1.0038 170.3     20?   1.20 259.6   53 161 176   1
   2024 03 11 07:50  12 04 45.62    +02 26 41.8   0.0104 1.0038 170.3     20?   1.23 259.6   53 165 175   1
   2024 03 11 08:00  12 04 44.80    +02 26 39.6   0.0104 1.0038 170.3     20?   1.24 259.5   54 170 175   1
   2024 03 11 08:10  12 04 43.99    +02 26 37.3   0.0104 1.0038 170.4     20?   1.25 259.3   54 174 175   1
   2024 03 11 08:20  12 04 43.16    +02 26 34.9   0.0104 1.0038 170.4     20?   1.26 259.2   54 178 175   1
   2024 03 11 08:30  12 04 42.34    +02 26 32.6   0.0104 1.0038 170.4  t  20?   1.26 258.9   54 183 175   1
   2024 03 11 08:40  12 04 41.51    +02 26 30.1   0.0104 1.0038 170.4     20?   1.25 258.6   54 187 175   1
   2024 03 11 08:50  12 04 40.70    +02 26 27.6   0.0104 1.0038 170.4     20?   1.24 258.3   54 191 175   1
   2024 03 11 09:00  12 04 39.89    +02 26 25.1   0.0104 1.0038 170.4     20?   1.23 257.9   53 195 175   1
   2024 03 11 09:10  12 04 39.10    +02 26 22.5   0.0104 1.0038 170.4     20?   1.20 257.4   52 199 174   1
   2024 03 11 09:20  12 04 38.32    +02 26 19.9   0.0104 1.0038 170.4     20?   1.18 256.9   52 203 174   1
   2024 03 11 09:30  12 04 37.57    +02 26 17.2   0.0104 1.0038 170.4     20?   1.14 256.2   51 207 174   1
   2024 03 11 09:40  12 04 36.84    +02 26 14.5   0.0104 1.0038 170.4     20?   1.11 255.5   50 211 174   1
   2024 03 11 09:50  12 04 36.14    +02 26 11.7   0.0104 1.0038 170.4     20?   1.06 254.7   49 214 174   1
   2024 03 11 10:00  12 04 35.47    +02 26 08.8   0.0104 1.0038 170.5     20?   1.02 253.7   48 218 174   1
   2024 03 11 10:10  12 04 34.84    +02 26 06.0   0.0104 1.0038 170.5     20?   0.97 252.5   46 221 174   1
   2024 03 11 10:20  12 04 34.24    +02 26 03.0   0.0104 1.0039 170.5     20?   0.91 251.1   45 224 173   1
   2024 03 11 10:30  12 04 33.69    +02 26 00.1   0.0104 1.0039 170.5     20?   0.85 249.4   44 227 173   1
   2024 03 11 10:40  12 04 33.18    +02 25 57.1   0.0104 1.0039 170.5     20?   0.79 247.3   42 230 173   1
   2024 03 11 10:50  12 04 32.72    +02 25 54.0   0.0104 1.0039 170.5     20?   0.72 244.7   40 232 173   1
   2024 03 11 11:00  12 04 32.32    +02 25 50.9   0.0104 1.0039 170.5     20?   0.65 241.4   39 235 173   1
   2024 03 11 11:10  12 04 31.96    +02 25 47.8   0.0104 1.0039 170.5     20?   0.58 237.2   37 237 173   1
   2024 03 11 11:20  12 04 31.66    +02 25 44.6   0.0104 1.0039 170.5     20?   0.51 231.5   36 239 173   1
   2024 03 11 11:30  12 04 31.43    +02 25 41.4   0.0104 1.0039 170.5     20?   0.45 223.9   34 242 173   1
   2024 03 11 11:40  12 04 31.25    +02 25 38.2   0.0104 1.0039 170.5     20?   0.39 213.4   32 244 172   1
   2024 03 11 11:50  12 04 31.14    +02 25 34.9   0.0104 1.0039 170.5     20?   0.35 199.4   30 246 172   2
   2024 03 11 12:00  12 04 31.10    +02 25 31.6   0.0104 1.0039 170.6     20?   0.33 182.3   28 248 172   2
   2024 03 11 12:10  12 04 31.12    +02 25 28.3   0.0104 1.0039 170.6     20?   0.35 164.6   27 250 172   2
   2024 03 11 12:20  12 04 31.22    +02 25 24.9   0.0104 1.0039 170.6     20?   0.39 149.3   25 252 172   2
   2024 03 11 12:30  12 04 31.39    +02 25 21.5   0.0104 1.0039 170.6 A   20?   0.46 137.4   23 253 172   2
   2024 03 11 12:40  12 04 31.64    +02 25 18.1   0.0104 1.0039 170.6 A   20?   0.55 128.7   21 255 172   2
   2024 03 11 12:50  12 04 31.96    +02 25 14.7   0.0104 1.0039 170.6 A   20?   0.64 122.4   19 257 172   2
   2024 03 11 13:00  12 04 32.36    +02 25 11.3   0.0105 1.0039 170.6 N   20?   0.74 117.6   17 258 171   2
   2024 03 11 13:10  12 04 32.84    +02 25 07.8   0.0105 1.0039 170.6 N   20?   0.85 113.9   15 260 171   2
   2024 03 11 13:20  12 04 33.40    +02 25 04.3   0.0105 1.0039 170.6 N   20?   0.97 111.1   13 262 171   2
   2024 03 11 13:30  12 04 34.04    +02 25 00.8   0.0105 1.0039 170.6 C   20?   1.08 108.8   11 263 171   2
   2024 03 11 13:40  12 04 34.77    +02 24 57.3   0.0105 1.0039 170.6 C   20?   1.20 106.9    9 265 171   2
   ................
   2024 03 12 02:20  12 07 27.49    +02 21 52.4   0.0105 1.0040 170.4 Nm  20?   1.70  94.2    0  87 165   4
   2024 03 12 02:30  12 07 28.58    +02 21 51.1   0.0105 1.0040 170.4 Nm  20?   1.57  94.5    2  89 165   4
   2024 03 12 02:40  12 07 29.58    +02 21 49.9   0.0105 1.0040 170.4 Am  20?   1.45  94.9    4  90 165   4
   2024 03 12 02:50  12 07 30.50    +02 21 48.6   0.0105 1.0041 170.4 Am  20?   1.32  95.4    6  92 165   4
   2024 03 12 03:00  12 07 31.34    +02 21 47.4   0.0105 1.0041 170.4 Am  20?   1.20  96.0    8  93 165   4
   2024 03 12 03:10  12 07 32.09    +02 21 46.1   0.0105 1.0041 170.4  m  20?   1.07  96.8   10  95 165   4
   2024 03 12 03:20  12 07 32.76    +02 21 44.8   0.0105 1.0041 170.4  m  20?   0.95  97.7   12  97 164   4
   2024 03 12 03:30  12 07 33.34    +02 21 43.6   0.0105 1.0041 170.4  m  20?   0.83  99.0   14  98 164   4
   2024 03 12 03:40  12 07 33.85    +02 21 42.3   0.0105 1.0041 170.4  m  20?   0.71 100.6   16 100 164   4
   2024 03 12 03:50  12 07 34.27    +02 21 40.9   0.0105 1.0041 170.4     20?   0.59 102.9   18 102 164   4
   2024 03 12 04:00  12 07 34.62    +02 21 39.6   0.0105 1.0041 170.4     20?   0.48 106.2   20 103 164   4
   2024 03 12 04:10  12 07 34.89    +02 21 38.2   0.0105 1.0041 170.4     20?   0.37 111.5   22 105 164   4
   2024 03 12 04:20  12 07 35.08    +02 21 36.9   0.0105 1.0041 170.4     20?   0.27 120.8   24 107 164   4
   2024 03 12 04:30  12 07 35.20    +02 21 35.5   0.0105 1.0041 170.4     20?   0.19 138.9   26 109 164   4
   2024 03 12 04:40  12 07 35.25    +02 21 34.0   0.0105 1.0041 170.4     20?   0.15 173.3   28 110 164   4
   2024 03 12 04:50  12 07 35.22    +02 21 32.6   0.0105 1.0041 170.5     20?   0.17 210.5   29 112 163   4
   2024 03 12 05:00  12 07 35.13    +02 21 31.1   0.0105 1.0041 170.5     20?   0.24 231.2   31 114 163   4
   2024 03 12 05:10  12 07 34.98    +02 21 29.6   0.0105 1.0041 170.5     20?   0.32 241.5   33 116 163   4
   2024 03 12 05:20  12 07 34.75    +02 21 28.0   0.0105 1.0041 170.5     20?   0.41 247.3   35 119 163   4
   2024 03 12 05:30  12 07 34.47    +02 21 26.4   0.0104 1.0041 170.5     20?   0.49 250.9   36 121 163   4
   2024 03 12 05:40  12 07 34.13    +02 21 24.8   0.0104 1.0041 170.5     20?   0.58 253.3   38 123 163   4
   2024 03 12 05:50  12 07 33.74    +02 21 23.1   0.0104 1.0041 170.5     20?   0.65 255.0   40 126 163   4
   2024 03 12 06:00  12 07 33.29    +02 21 21.4   0.0104 1.0041 170.5     20?   0.73 256.3   41 128 163   4
   2024 03 12 06:10  12 07 32.79    +02 21 19.7   0.0104 1.0041 170.5     20?   0.80 257.2   43 131 163   4
   2024 03 12 06:20  12 07 32.25    +02 21 17.9   0.0104 1.0041 170.5     20?   0.87 257.9   44 134 162   5
   2024 03 12 06:30  12 07 31.66    +02 21 16.1   0.0104 1.0041 170.5     20?   0.93 258.5   46 137 162   5
   2024 03 12 06:40  12 07 31.03    +02 21 14.2   0.0104 1.0041 170.5     20?   0.99 258.9   47 140 162   5
   2024 03 12 06:50  12 07 30.37    +02 21 12.3   0.0104 1.0041 170.6     20?   1.04 259.2   48 143 162   5
   2024 03 12 07:00  12 07 29.67    +02 21 10.3   0.0104 1.0041 170.6     20?   1.09 259.4   49 147 162   5
   2024 03 12 07:10  12 07 28.94    +02 21 08.3   0.0104 1.0041 170.6     20?   1.13 259.6   50 150 162   5
   2024 03 12 07:20  12 07 28.19    +02 21 06.2   0.0104 1.0041 170.6     20?   1.17 259.7   51 154 162   5
   2024 03 12 07:30  12 07 27.41    +02 21 04.1   0.0104 1.0041 170.6     20?   1.20 259.7   52 158 162   5
   2024 03 12 07:40  12 07 26.62    +02 21 02.0   0.0104 1.0041 170.6     20?   1.22 259.7   53 162 161   5
   2024 03 12 07:50  12 07 25.80    +02 20 59.8   0.0104 1.0041 170.6     20?   1.25 259.6   53 166 161   5
   2024 03 12 08:00  12 07 24.98    +02 20 57.5   0.0104 1.0041 170.6     20?   1.26 259.6   54 170 161   5
   2024 03 12 08:10  12 07 24.15    +02 20 55.2   0.0104 1.0041 170.6     20?   1.27 259.4   54 175 161   5
   2024 03 12 08:20  12 07 23.31    +02 20 52.9   0.0104 1.0041 170.6     20?   1.28 259.2   54 179 161   5
   2024 03 12 08:30  12 07 22.48    +02 20 50.5   0.0104 1.0041 170.7  t  20?   1.28 259.0   54 183 161   5
   2024 03 12 08:40  12 07 21.65    +02 20 48.0   0.0104 1.0041 170.7     20?   1.27 258.7   54 187 161   5
   2024 03 12 08:50  12 07 20.82    +02 20 45.5   0.0104 1.0041 170.7     20?   1.26 258.4   53 192 160   5
   2024 03 12 09:00  12 07 20.00    +02 20 43.0   0.0104 1.0041 170.7     20?   1.24 258.0   53 196 160   5
   2024 03 12 09:10  12 07 19.20    +02 20 40.4   0.0104 1.0041 170.7     20?   1.22 257.5   52 200 160   5
   2024 03 12 09:20  12 07 18.42    +02 20 37.7   0.0104 1.0041 170.7     20?   1.19 257.0   52 204 160   5
   2024 03 12 09:30  12 07 17.66    +02 20 35.0   0.0104 1.0041 170.7     20?   1.16 256.4   51 208 160   5
   2024 03 12 09:40  12 07 16.92    +02 20 32.3   0.0104 1.0041 170.7     20?   1.12 255.6   50 211 160   6
   2024 03 12 09:50  12 07 16.21    +02 20 29.5   0.0104 1.0041 170.7     20?   1.08 254.8   49 215 160   6
   2024 03 12 10:00  12 07 15.54    +02 20 26.7   0.0104 1.0041 170.7     20?   1.03 253.8   47 218 160   6
   2024 03 12 10:10  12 07 14.90    +02 20 23.8   0.0104 1.0041 170.7     20?   0.97 252.7   46 221 159   6
   2024 03 12 10:20  12 07 14.30    +02 20 20.9   0.0104 1.0041 170.8     20?   0.92 251.3   45 224 159   6
   2024 03 12 10:30  12 07 13.74    +02 20 17.9   0.0105 1.0041 170.8     20?   0.86 249.6   43 227 159   6
   2024 03 12 10:40  12 07 13.22    +02 20 14.9   0.0105 1.0041 170.8     20?   0.79 247.6   42 230 159   6
   2024 03 12 10:50  12 07 12.76    +02 20 11.9   0.0105 1.0041 170.8     20?   0.73 245.0   40 232 159   6
   2024 03 12 11:00  12 07 12.34    +02 20 08.8   0.0105 1.0042 170.8     20?   0.66 241.8   39 235 159   6
   2024 03 12 11:10  12 07 11.99    +02 20 05.7   0.0105 1.0042 170.8     20?   0.59 237.6   37 237 159   6
   2024 03 12 11:20  12 07 11.68    +02 20 02.5   0.0105 1.0042 170.8     20?   0.52 232.1   35 240 158   6
   2024 03 12 11:30  12 07 11.44    +02 19 59.4   0.0105 1.0042 170.8     20?   0.45 224.5   34 242 158   6
   2024 03 12 11:40  12 07 11.26    +02 19 56.1   0.0105 1.0042 170.8     20?   0.39 214.2   32 244 158   6
   2024 03 12 11:50  12 07 11.15    +02 19 52.9   0.0105 1.0042 170.8     20?   0.35 200.3   30 246 158   6
   2024 03 12 12:00  12 07 11.10    +02 19 49.6   0.0105 1.0042 170.8     20?   0.33 183.2   28 248 158   6
   2024 03 12 12:10  12 07 11.13    +02 19 46.3   0.0105 1.0042 170.8     20?   0.34 165.3   26 250 158   6
   2024 03 12 12:20  12 07 11.22    +02 19 43.0   0.0105 1.0042 170.8     20?   0.39 149.7   24 252 158   6
   2024 03 12 12:30  12 07 11.39    +02 19 39.6   0.0105 1.0042 170.9 A   20?   0.46 137.6   22 254 158   6
   2024 03 12 12:40  12 07 11.63    +02 19 36.2   0.0105 1.0042 170.9 A   20?   0.54 128.8   21 255 157   6
   2024 03 12 12:50  12 07 11.95    +02 19 32.8   0.0105 1.0042 170.9 A   20?   0.64 122.4   19 257 157   7
   2024 03 12 13:00  12 07 12.35    +02 19 29.4   0.0105 1.0042 170.9 N   20?   0.74 117.5   17 259 157   7
   2024 03 12 13:10  12 07 12.82    +02 19 26.0   0.0105 1.0042 170.9 N   21?   0.85 113.9   15 260 157   7
   2024 03 12 13:20  12 07 13.38    +02 19 22.5   0.0105 1.0042 170.9 N   21?   0.96 111.0   13 262 157   7
   2024 03 12 13:30  12 07 14.02    +02 19 19.1   0.0105 1.0042 170.9 C   21?   1.08 108.7   11 263 157   7
   2024 03 12 13:40  12 07 14.74    +02 19 15.6   0.0105 1.0042 170.9 C   21?   1.20 106.8    9 265 157   7
   ................
   2024 03 13 02:20  12 10 06.36    +02 16 09.0   0.0105 1.0043 170.7 Nm  20?   1.67  94.6    1  88 151  10
   2024 03 13 02:30  12 10 07.43    +02 16 07.7   0.0105 1.0043 170.7 Nm  20?   1.54  94.9    3  89 151  10
   2024 03 13 02:40  12 10 08.41    +02 16 06.3   0.0105 1.0043 170.7 Am  20?   1.41  95.4    5  91 151  10
   2024 03 13 02:50  12 10 09.31    +02 16 05.0   0.0105 1.0043 170.7 Am  20?   1.29  96.0    6  92 150  10
   2024 03 13 03:00  12 10 10.12    +02 16 03.7   0.0105 1.0043 170.7 Am  20?   1.16  96.6    8  94 150  10
   2024 03 13 03:10  12 10 10.85    +02 16 02.3   0.0105 1.0043 170.7  m  20?   1.04  97.5   10  95 150  10
   2024 03 13 03:20  12 10 11.50    +02 16 01.0   0.0105 1.0043 170.7  m  20?   0.92  98.6   12  97 150  10
   2024 03 13 03:30  12 10 12.06    +02 15 59.6   0.0105 1.0044 170.7  m  20?   0.80 100.0   14  99 150  10
   2024 03 13 03:40  12 10 12.55    +02 15 58.2   0.0105 1.0044 170.7  m  20?   0.68 101.8   16 100 150  10
   2024 03 13 03:50  12 10 12.95    +02 15 56.8   0.0105 1.0044 170.7  m  20?   0.56 104.4   18 102 150  10
   2024 03 13 04:00  12 10 13.28    +02 15 55.4   0.0105 1.0044 170.7  m  20?   0.45 108.4   20 104 150  10
   2024 03 13 04:10  12 10 13.53    +02 15 53.9   0.0105 1.0044 170.7  m  20?   0.35 114.7   22 105 150  10
   2024 03 13 04:20  12 10 13.70    +02 15 52.5   0.0105 1.0044 170.7  m  20?   0.25 125.9   24 107 150  10
   2024 03 13 04:30  12 10 13.80    +02 15 51.0   0.0105 1.0044 170.7  m  20?   0.18 147.7   26 109 150  10
   2024 03 13 04:40  12 10 13.83    +02 15 49.5   0.0105 1.0044 170.7  m  20?   0.15 184.2   28 111 149  10
   2024 03 13 04:50  12 10 13.78    +02 15 47.9   0.0105 1.0044 170.7  m  20?   0.19 216.2   30 113 149  10
   2024 03 13 05:00  12 10 13.67    +02 15 46.3   0.0105 1.0044 170.7     20?   0.27 233.4   31 115 149  11
   2024 03 13 05:10  12 10 13.50    +02 15 44.7   0.0105 1.0044 170.7     20?   0.35 242.4   33 117 149  11
   2024 03 13 05:20  12 10 13.26    +02 15 43.1   0.0105 1.0044 170.8     20?   0.44 247.6   35 119 149  11
   2024 03 13 05:30  12 10 12.96    +02 15 41.4   0.0105 1.0044 170.8     20?   0.52 251.0   37 121 149  11
   2024 03 13 05:40  12 10 12.61    +02 15 39.7   0.0105 1.0044 170.8     20?   0.60 253.3   38 124 149  11
   2024 03 13 05:50  12 10 12.20    +02 15 38.0   0.0105 1.0044 170.8     20?   0.68 254.9   40 126 149  11
   2024 03 13 06:00  12 10 11.73    +02 15 36.2   0.0105 1.0044 170.8     20?   0.75 256.1   41 129 149  11
   2024 03 13 06:10  12 10 11.22    +02 15 34.4   0.0105 1.0044 170.8     20?   0.82 257.1   43 131 148  11
   2024 03 13 06:20  12 10 10.66    +02 15 32.5   0.0105 1.0044 170.8     20?   0.89 257.8   44 134 148  11
   2024 03 13 06:30  12 10 10.06    +02 15 30.6   0.0105 1.0044 170.8     20?   0.95 258.3   46 137 148  11
   2024 03 13 06:40  12 10 09.42    +02 15 28.7   0.0105 1.0044 170.8     20?   1.01 258.7   47 140 148  11
   2024 03 13 06:50  12 10 08.74    +02 15 26.7   0.0105 1.0044 170.8     20?   1.06 259.0   48 144 148  11
   2024 03 13 07:00  12 10 08.03    +02 15 24.7   0.0105 1.0044 170.8     20?   1.11 259.3   49 147 148  11
   2024 03 13 07:10  12 10 07.29    +02 15 22.6   0.0105 1.0044 170.9     20?   1.15 259.4   50 151 148  11
   2024 03 13 07:20  12 10 06.53    +02 15 20.5   0.0105 1.0044 170.9     20?   1.18 259.5   51 155 148  11
   2024 03 13 07:30  12 10 05.74    +02 15 18.3   0.0105 1.0044 170.9     20?   1.21 259.6   52 158 148  11
   2024 03 13 07:40  12 10 04.94    +02 15 16.1   0.0105 1.0044 170.9     20?   1.24 259.6   53 162 147  12
   2024 03 13 07:50  12 10 04.11    +02 15 13.8   0.0105 1.0044 170.9     20?   1.26 259.5   53 167 147  12
   2024 03 13 08:00  12 10 03.28    +02 15 11.5   0.0105 1.0044 170.9     20?   1.28 259.4   54 171 147  12
   2024 03 13 08:10  12 10 02.44    +02 15 09.2   0.0105 1.0044 170.9     20?   1.28 259.3   54 175 147  12
   2024 03 13 08:20  12 10 01.60    +02 15 06.8   0.0105 1.0044 170.9     20?   1.29 259.1   54 179 147  12
   2024 03 13 08:30  12 10 00.76    +02 15 04.3   0.0105 1.0044 170.9  t  20?   1.29 258.9   54 184 147  12
   2024 03 13 08:40  12 09 59.92    +02 15 01.8   0.0105 1.0044 170.9     20?   1.28 258.6   54 188 147  12
   2024 03 13 08:50  12 09 59.08    +02 14 59.3   0.0105 1.0044 171.0     21?   1.27 258.3   53 192 146  12
   2024 03 13 09:00  12 09 58.26    +02 14 56.7   0.0105 1.0044 171.0     21?   1.25 257.9   53 196 146  12
   2024 03 13 09:10  12 09 57.46    +02 14 54.0   0.0105 1.0044 171.0     21?   1.23 257.4   52 200 146  12
   2024 03 13 09:20  12 09 56.67    +02 14 51.4   0.0105 1.0044 171.0     21?   1.20 256.9   51 204 146  12
   2024 03 13 09:30  12 09 55.90    +02 14 48.6   0.0105 1.0044 171.0     21?   1.16 256.3   50 208 146  12
   2024 03 13 09:40  12 09 55.16    +02 14 45.9   0.0105 1.0044 171.0     21?   1.12 255.5   49 212 146  12
   2024 03 13 09:50  12 09 54.45    +02 14 43.0   0.0105 1.0044 171.0     21?   1.08 254.7   48 215 146  12
   2024 03 13 10:00  12 09 53.77    +02 14 40.2   0.0105 1.0044 171.0     21?   1.03 253.7   47 218 146  12
   2024 03 13 10:10  12 09 53.13    +02 14 37.3   0.0105 1.0044 171.0     21?   0.98 252.6   46 222 145  13
   2024 03 13 10:20  12 09 52.52    +02 14 34.3   0.0105 1.0044 171.0     21?   0.92 251.2   44 225 145  13
   2024 03 13 10:30  12 09 51.96    +02 14 31.4   0.0105 1.0044 171.0     21?   0.86 249.5   43 227 145  13
   2024 03 13 10:40  12 09 51.45    +02 14 28.3   0.0105 1.0044 171.1     21?   0.80 247.5   42 230 145  13
   2024 03 13 10:50  12 09 50.98    +02 14 25.3   0.0105 1.0044 171.1     21?   0.73 244.9   40 233 145  13
   2024 03 13 11:00  12 09 50.57    +02 14 22.2   0.0105 1.0044 171.1     21?   0.66 241.7   38 235 145  13
   2024 03 13 11:10  12 09 50.21    +02 14 19.0   0.0105 1.0044 171.1     21?   0.59 237.5   37 238 145  13
   2024 03 13 11:20  12 09 49.91    +02 14 15.9   0.0105 1.0044 171.1     21?   0.52 232.0   35 240 145  13
   2024 03 13 11:30  12 09 49.66    +02 14 12.7   0.0105 1.0044 171.1     21?   0.45 224.4   33 242 144  13
   2024 03 13 11:40  12 09 49.49    +02 14 09.4   0.0105 1.0045 171.1     21?   0.39 214.1   31 244 144  13
   2024 03 13 11:50  12 09 49.37    +02 14 06.2   0.0105 1.0045 171.1     21?   0.35 200.2   30 246 144  13
   2024 03 13 12:00  12 09 49.32    +02 14 02.9   0.0105 1.0045 171.1     21?   0.33 183.1   28 248 144  13
   2024 03 13 12:10  12 09 49.35    +02 13 59.5   0.0105 1.0045 171.1     21?   0.34 165.2   26 250 144  13
   2024 03 13 12:20  12 09 49.44    +02 13 56.2   0.0105 1.0045 171.1     21?   0.39 149.6   24 252 144  14
   2024 03 13 12:30  12 09 49.61    +02 13 52.8   0.0105 1.0045 171.1 A   21?   0.46 137.5   22 254 144  14
   2024 03 13 12:40  12 09 49.85    +02 13 49.5   0.0105 1.0045 171.1 A   21?   0.54 128.8   20 255 143  14
   2024 03 13 12:50  12 09 50.17    +02 13 46.1   0.0105 1.0045 171.1 A   21?   0.64 122.3   18 257 143  14
   2024 03 13 13:00  12 09 50.57    +02 13 42.6   0.0105 1.0045 171.1 N   21?   0.74 117.5   16 259 143  14
   2024 03 13 13:10  12 09 51.05    +02 13 39.2   0.0105 1.0045 171.2 N   21?   0.85 113.8   14 260 143  14
   2024 03 13 13:20  12 09 51.61    +02 13 35.7   0.0105 1.0045 171.2 N   21?   0.96 111.0   12 262 143  14
   2024 03 13 13:30  12 09 52.25    +02 13 32.3   0.0105 1.0045 171.2 C   21?   1.08 108.7   10 264 143  14
   2024 03 13 13:40  12 09 52.98    +02 13 28.8   0.0105 1.0045 171.2 C   21?   1.20 106.8    9 265 143  14
   ................
   2024 03 14 02:20  12 12 43.73    +02 10 18.2   0.0105 1.0046 170.9 Nm  21?   1.64  95.1    1  88 137  18
   2024 03 14 02:30  12 12 44.78    +02 10 16.8   0.0105 1.0046 170.9 Nm  21?   1.51  95.5    3  89 137  18
   2024 03 14 02:40  12 12 45.74    +02 10 15.4   0.0105 1.0046 170.9 Am  21?   1.39  96.0    5  91 137  18
   2024 03 14 02:50  12 12 46.62    +02 10 13.9   0.0105 1.0046 170.9 Am  21?   1.26  96.6    7  92 137  18
   2024 03 14 03:00  12 12 47.41    +02 10 12.4   0.0105 1.0046 171.0 Am  21?   1.14  97.4    9  94 136  18
   2024 03 14 03:10  12 12 48.12    +02 10 11.0   0.0105 1.0046 171.0  m  21?   1.01  98.3   11  96 136  18
   2024 03 14 03:20  12 12 48.75    +02 10 09.5   0.0105 1.0046 171.0  m  21?   0.89  99.6   13  97 136  18
   2024 03 14 03:30  12 12 49.30    +02 10 08.0   0.0105 1.0046 171.0  m  21?   0.77 101.1   15  99 136  18
   2024 03 14 03:40  12 12 49.76    +02 10 06.5   0.0105 1.0046 171.0  m  21?   0.66 103.3   17 100 136  18
   2024 03 14 03:50  12 12 50.15    +02 10 05.0   0.0105 1.0046 171.0  m  21?   0.54 106.3   18 102 136  18
   2024 03 14 04:00  12 12 50.46    +02 10 03.4   0.0105 1.0046 171.0  m  21?   0.43 110.9   20 104 136  19
   2024 03 14 04:10  12 12 50.69    +02 10 01.9   0.0105 1.0047 171.0  m  21?   0.33 118.3   22 106 136  19
   2024 03 14 04:20  12 12 50.85    +02 10 00.3   0.0105 1.0047 171.0  m  21?   0.24 131.5   24 107 136  19
   2024 03 14 04:30  12 12 50.93    +02 09 58.7   0.0105 1.0047 171.0  m  21?   0.18 156.3   26 109 136  19
   2024 03 14 04:40  12 12 50.94    +02 09 57.1   0.0105 1.0047 171.0  m  21?   0.17 191.9   28 111 136  19
   2024 03 14 04:50  12 12 50.89    +02 09 55.4   0.0105 1.0047 171.0  m  21?   0.22 219.3   30 113 136  19
   2024 03 14 05:00  12 12 50.76    +02 09 53.7   0.0105 1.0047 171.0  m  21?   0.29 234.2   32 115 135  19
   2024 03 14 05:10  12 12 50.57    +02 09 52.0   0.0105 1.0047 171.0  m  21?   0.37 242.4   33 117 135  19
   2024 03 14 05:20  12 12 50.32    +02 09 50.3   0.0105 1.0047 171.0  m  21?   0.46 247.4   35 119 135  19
   2024 03 14 05:30  12 12 50.01    +02 09 48.5   0.0105 1.0047 171.0  m  21?   0.54 250.6   37 122 135  19
   2024 03 14 05:40  12 12 49.64    +02 09 46.7   0.0105 1.0047 171.0  m  21?   0.62 252.9   38 124 135  19
   2024 03 14 05:50  12 12 49.21    +02 09 44.8   0.0105 1.0047 171.1  m  21?   0.70 254.5   40 127 135  19
   2024 03 14 06:00  12 12 48.74    +02 09 42.9   0.0105 1.0047 171.1  m  21?   0.77 255.7   42 129 135  19
   2024 03 14 06:10  12 12 48.21    +02 09 41.0   0.0105 1.0047 171.1  m  21?   0.84 256.6   43 132 135  19
   2024 03 14 06:20  12 12 47.65    +02 09 39.1   0.0105 1.0047 171.1     21?   0.91 257.3   45 135 135  19
   2024 03 14 06:30  12 12 47.03    +02 09 37.1   0.0105 1.0047 171.1     21?   0.97 257.9   46 138 135  19
   2024 03 14 06:40  12 12 46.38    +02 09 35.0   0.0105 1.0047 171.1     21?   1.02 258.3   47 141 134  20
   2024 03 14 06:50  12 12 45.70    +02 09 32.9   0.0105 1.0047 171.1     21?   1.07 258.7   48 144 134  20
   2024 03 14 07:00  12 12 44.98    +02 09 30.8   0.0105 1.0047 171.1     21?   1.12 258.9   49 148 134  20
   2024 03 14 07:10  12 12 44.23    +02 09 28.7   0.0105 1.0047 171.1     21?   1.16 259.1   50 151 134  20
   2024 03 14 07:20  12 12 43.46    +02 09 26.4   0.0105 1.0047 171.1     21?   1.20 259.2   51 155 134  20
   2024 03 14 07:30  12 12 42.66    +02 09 24.2   0.0105 1.0047 171.1     21?   1.23 259.2   52 159 134  20
   2024 03 14 07:40  12 12 41.85    +02 09 21.9   0.0105 1.0047 171.2     21?   1.25 259.3   53 163 134  20
   2024 03 14 07:50  12 12 41.02    +02 09 19.5   0.0105 1.0047 171.2     21?   1.27 259.2   53 167 134  20
   2024 03 14 08:00  12 12 40.19    +02 09 17.2   0.0105 1.0047 171.2     21?   1.28 259.1   54 171 134  20
   2024 03 14 08:10  12 12 39.34    +02 09 14.7   0.0105 1.0047 171.2     21?   1.29 259.0   54 176 133  20
   2024 03 14 08:20  12 12 38.49    +02 09 12.2   0.0105 1.0047 171.2  t  21?   1.30 258.8   54 180 133  20
   2024 03 14 08:30  12 12 37.65    +02 09 09.7   0.0105 1.0047 171.2     21?   1.29 258.6   54 184 133  20
   2024 03 14 08:40  12 12 36.80    +02 09 07.1   0.0105 1.0047 171.2     21?   1.29 258.3   53 189 133  20
   2024 03 14 08:50  12 12 35.97    +02 09 04.5   0.0105 1.0047 171.2     21?   1.27 258.0   53 193 133  21
   2024 03 14 09:00  12 12 35.14    +02 09 01.9   0.0105 1.0047 171.2     21?   1.25 257.6   53 197 133  21
   2024 03 14 09:10  12 12 34.33    +02 08 59.2   0.0105 1.0047 171.2     21?   1.23 257.1   52 201 133  21
   2024 03 14 09:20  12 12 33.54    +02 08 56.4   0.0105 1.0047 171.3     21?   1.20 256.6   51 205 133  21
   2024 03 14 09:30  12 12 32.78    +02 08 53.6   0.0105 1.0047 171.3     21?   1.17 256.0   50 208 132  21
   2024 03 14 09:40  12 12 32.03    +02 08 50.8   0.0105 1.0047 171.3     21?   1.13 255.3   49 212 132  21
   2024 03 14 09:50  12 12 31.32    +02 08 47.9   0.0105 1.0047 171.3     21?   1.08 254.4   48 215 132  21
   2024 03 14 10:00  12 12 30.64    +02 08 45.0   0.0105 1.0047 171.3     21?   1.03 253.4   47 219 132  21
   2024 03 14 10:10  12 12 30.00    +02 08 42.0   0.0105 1.0047 171.3     21?   0.98 252.3   46 222 132  21
   2024 03 14 10:20  12 12 29.40    +02 08 39.0   0.0105 1.0047 171.3     21?   0.92 250.9   44 225 132  21
   2024 03 14 10:30  12 12 28.84    +02 08 36.0   0.0105 1.0047 171.3     21?   0.86 249.2   43 228 132  21
   2024 03 14 10:40  12 12 28.33    +02 08 32.9   0.0105 1.0047 171.3     21?   0.80 247.1   41 230 132  21
   2024 03 14 10:50  12 12 27.86    +02 08 29.8   0.0105 1.0047 171.3     21?   0.73 244.5   40 233 131  22
   2024 03 14 11:00  12 12 27.45    +02 08 26.7   0.0105 1.0047 171.3     21?   0.66 241.2   38 235 131  22
   2024 03 14 11:10  12 12 27.09    +02 08 23.5   0.0105 1.0047 171.4     21?   0.59 237.0   36 238 131  22
   2024 03 14 11:20  12 12 26.79    +02 08 20.3   0.0105 1.0047 171.4     21?   0.52 231.3   35 240 131  22
   2024 03 14 11:30  12 12 26.55    +02 08 17.0   0.0105 1.0047 171.4     21?   0.45 223.7   33 242 131  22
   2024 03 14 11:40  12 12 26.38    +02 08 13.8   0.0105 1.0047 171.4     21?   0.39 213.2   31 244 131  22
   2024 03 14 11:50  12 12 26.27    +02 08 10.5   0.0105 1.0047 171.4     21?   0.35 199.2   29 246 131  22
   2024 03 14 12:00  12 12 26.22    +02 08 07.1   0.0105 1.0047 171.4     21?   0.33 182.1   27 248 131  22
   2024 03 14 12:10  12 12 26.25    +02 08 03.8   0.0105 1.0047 171.4     21?   0.35 164.4   26 250 130  22
   2024 03 14 12:20  12 12 26.35    +02 08 00.4   0.0105 1.0048 171.4 A   21?   0.39 149.1   24 252 130  22
   2024 03 14 12:30  12 12 26.52    +02 07 57.0   0.0105 1.0048 171.4 A   21?   0.46 137.3   22 254 130  22
   2024 03 14 12:40  12 12 26.77    +02 07 53.6   0.0105 1.0048 171.4 A   21?   0.55 128.6   20 256 130  23
   2024 03 14 12:50  12 12 27.09    +02 07 50.2   0.0105 1.0048 171.4 N   21?   0.64 122.2   18 257 130  23
   2024 03 14 13:00  12 12 27.50    +02 07 46.7   0.0105 1.0048 171.4 N   21?   0.75 117.5   16 259 130  23
   2024 03 14 13:10  12 12 27.98    +02 07 43.3   0.0105 1.0048 171.4 N   21?   0.86 113.8   14 261 130  23
   2024 03 14 13:20  12 12 28.54    +02 07 39.8   0.0105 1.0048 171.4 N   21?   0.97 111.0   12 262 129  23
   2024 03 14 13:30  12 12 29.19    +02 07 36.3   0.0105 1.0048 171.4 C   21?   1.09 108.7   10 264 129  23
   ................
   2024 03 15 02:10  12 15 18.89    +02 04 18.0   0.0105 1.0049 171.2 Nr  21?   1.74  95.2    0  87 123  28
   2024 03 15 02:20  12 15 20.00    +02 04 16.4   0.0105 1.0049 171.2 Nm  21?   1.61  95.6    1  88 123  28
   2024 03 15 02:30  12 15 21.03    +02 04 14.8   0.0105 1.0049 171.2 Nm  21?   1.49  96.1    3  90 123  28
   2024 03 15 02:40  12 15 21.98    +02 04 13.3   0.0105 1.0049 171.2 Am  21?   1.36  96.7    5  91 123  28
   2024 03 15 02:50  12 15 22.84    +02 04 11.7   0.0105 1.0049 171.2 Am  21?   1.24  97.4    7  93 123  28
   2024 03 15 03:00  12 15 23.61    +02 04 10.1   0.0105 1.0049 171.2 Am  21?   1.11  98.3    9  94 123  28
   2024 03 15 03:10  12 15 24.31    +02 04 08.5   0.0105 1.0049 171.2  m  21?   0.99  99.3   11  96 123  28
   2024 03 15 03:20  12 15 24.92    +02 04 06.8   0.0105 1.0049 171.2  m  21?   0.87 100.7   13  97 123  28
   2024 03 15 03:30  12 15 25.45    +02 04 05.2   0.0105 1.0049 171.2  m  21?   0.75 102.5   15  99 123  28
   2024 03 15 03:40  12 15 25.90    +02 04 03.6   0.0105 1.0049 171.2  m  21?   0.64 105.0   17 101 123  28
   2024 03 15 03:50  12 15 26.27    +02 04 01.9   0.0105 1.0049 171.2  m  21?   0.52 108.5   19 102 123  28
   2024 03 15 04:00  12 15 26.56    +02 04 00.2   0.0105 1.0049 171.2  m  21?   0.42 113.8   21 104 123  28
   2024 03 15 04:10  12 15 26.78    +02 03 58.5   0.0105 1.0049 171.3  m  21?   0.32 122.4   22 106 122  28
   2024 03 15 04:20  12 15 26.92    +02 03 56.8   0.0105 1.0049 171.3  m  21?   0.23 137.5   24 108 122  28
   2024 03 15 04:30  12 15 26.99    +02 03 55.1   0.0105 1.0049 171.3  m  21?   0.18 163.9   26 110 122  28
   2024 03 15 04:40  12 15 26.99    +02 03 53.3   0.0105 1.0050 171.3  m  21?   0.19 197.0   28 111 122  28
   2024 03 15 04:50  12 15 26.92    +02 03 51.5   0.0105 1.0050 171.3  m  21?   0.24 220.9   30 113 122  28
   2024 03 15 05:00  12 15 26.78    +02 03 49.7   0.0105 1.0050 171.3  m  21?   0.31 234.2   32 115 122  29
   2024 03 15 05:10  12 15 26.58    +02 03 47.8   0.0105 1.0050 171.3  m  21?   0.40 241.9   33 118 122  29
   2024 03 15 05:20  12 15 26.32    +02 03 46.0   0.0105 1.0050 171.3  m  21?   0.48 246.7   35 120 122  29
   2024 03 15 05:30  12 15 25.99    +02 03 44.1   0.0105 1.0050 171.3  m  21?   0.56 249.9   37 122 122  29
   2024 03 15 05:40  12 15 25.61    +02 03 42.1   0.0105 1.0050 171.3  m  21?   0.64 252.2   39 124 122  29
   2024 03 15 05:50  12 15 25.18    +02 03 40.1   0.0105 1.0050 171.3  m  21?   0.72 253.8   40 127 122  29
   2024 03 15 06:00  12 15 24.70    +02 03 38.1   0.0105 1.0050 171.3  m  21?   0.79 255.1   42 130 122  29
   2024 03 15 06:10  12 15 24.16    +02 03 36.1   0.0105 1.0050 171.3  m  21?   0.86 256.0   43 132 121  29
   2024 03 15 06:20  12 15 23.58    +02 03 34.0   0.0105 1.0050 171.3  m  21?   0.92 256.8   45 135 121  29
   2024 03 15 06:30  12 15 22.97    +02 03 31.9   0.0105 1.0050 171.4  m  21?   0.98 257.4   46 138 121  29
   2024 03 15 06:40  12 15 22.31    +02 03 29.7   0.0105 1.0050 171.4  m  21?   1.04 257.8   47 141 121  29
   2024 03 15 06:50  12 15 21.61    +02 03 27.5   0.0105 1.0050 171.4  m  21?   1.09 258.2   48 145 121  29
   2024 03 15 07:00  12 15 20.89    +02 03 25.3   0.0105 1.0050 171.4  m  21?   1.13 258.4   49 148 121  29
   2024 03 15 07:10  12 15 20.13    +02 03 23.0   0.0105 1.0050 171.4  m  21?   1.17 258.6   50 152 121  29
   2024 03 15 07:20  12 15 19.36    +02 03 20.7   0.0105 1.0050 171.4  m  21?   1.21 258.7   51 156 121  30
   2024 03 15 07:30  12 15 18.56    +02 03 18.3   0.0105 1.0050 171.4     21?   1.24 258.8   52 160 121  30
   2024 03 15 07:40  12 15 17.74    +02 03 15.9   0.0105 1.0050 171.4     21?   1.26 258.8   53 164 121  30
   2024 03 15 07:50  12 15 16.91    +02 03 13.5   0.0105 1.0050 171.4     21?   1.28 258.8   53 168 120  30
   2024 03 15 08:00  12 15 16.07    +02 03 11.0   0.0105 1.0050 171.4     21?   1.29 258.7   53 172 120  30
   2024 03 15 08:10  12 15 15.22    +02 03 08.5   0.0105 1.0050 171.5     21?   1.30 258.6   54 176 120  30
   2024 03 15 08:20  12 15 14.37    +02 03 05.9   0.0105 1.0050 171.5  t  21?   1.30 258.4   54 181 120  30
   2024 03 15 08:30  12 15 13.52    +02 03 03.3   0.0105 1.0050 171.5     21?   1.30 258.2   54 185 120  30
   2024 03 15 08:40  12 15 12.68    +02 03 00.6   0.0105 1.0050 171.5     21?   1.29 257.9   53 189 120  30
   2024 03 15 08:50  12 15 11.84    +02 02 57.9   0.0105 1.0050 171.5     21?   1.28 257.6   53 193 120  30
   2024 03 15 09:00  12 15 11.02    +02 02 55.1   0.0105 1.0050 171.5     21?   1.26 257.2   52 197 120  30
   2024 03 15 09:10  12 15 10.21    +02 02 52.4   0.0105 1.0050 171.5     21?   1.23 256.7   52 201 120  30
   2024 03 15 09:20  12 15 09.42    +02 02 49.5   0.0105 1.0050 171.5     21?   1.20 256.2   51 205 119  31
   2024 03 15 09:30  12 15 08.65    +02 02 46.6   0.0105 1.0050 171.5     21?   1.17 255.6   50 209 119  31
   2024 03 15 09:40  12 15 07.91    +02 02 43.7   0.0105 1.0050 171.5     21?   1.13 254.8   49 212 119  31
   2024 03 15 09:50  12 15 07.20    +02 02 40.8   0.0105 1.0050 171.6     21?   1.08 254.0   48 216 119  31
   2024 03 15 10:00  12 15 06.53    +02 02 37.8   0.0105 1.0050 171.6     21?   1.03 253.0   47 219 119  31
   2024 03 15 10:10  12 15 05.89    +02 02 34.8   0.0105 1.0050 171.6     21?   0.98 251.8   45 222 119  31
   2024 03 15 10:20  12 15 05.29    +02 02 31.7   0.0105 1.0050 171.6     21?   0.92 250.3   44 225 119  31
   2024 03 15 10:30  12 15 04.73    +02 02 28.6   0.0105 1.0050 171.6     21?   0.86 248.6   42 228 119  31
   2024 03 15 10:40  12 15 04.22    +02 02 25.4   0.0105 1.0050 171.6     21?   0.79 246.5   41 231 118  31
   2024 03 15 10:50  12 15 03.76    +02 02 22.3   0.0105 1.0050 171.6     21?   0.73 243.8   39 233 118  31
   2024 03 15 11:00  12 15 03.35    +02 02 19.1   0.0105 1.0050 171.6     21?   0.66 240.5   38 236 118  31
   2024 03 15 11:10  12 15 03.00    +02 02 15.8   0.0105 1.0050 171.6     21?   0.58 236.1   36 238 118  32
   2024 03 15 11:20  12 15 02.71    +02 02 12.5   0.0105 1.0050 171.6     21?   0.51 230.3   34 240 118  32
   2024 03 15 11:30  12 15 02.47    +02 02 09.2   0.0105 1.0050 171.6     21?   0.45 222.4   33 242 118  32
   2024 03 15 11:40  12 15 02.30    +02 02 05.9   0.0105 1.0050 171.6     21?   0.39 211.7   31 245 118  32
   2024 03 15 11:50  12 15 02.20    +02 02 02.6   0.0105 1.0050 171.6     21?   0.35 197.6   29 247 118  32
   2024 03 15 12:00  12 15 02.16    +02 01 59.2   0.0105 1.0050 171.7     21?   0.34 180.6   27 248 117  32
   2024 03 15 12:10  12 15 02.19    +02 01 55.8   0.0105 1.0050 171.7     21?   0.36 163.2   25 250 117  32
   2024 03 15 12:20  12 15 02.30    +02 01 52.3   0.0105 1.0050 171.7 A   21?   0.40 148.3   23 252 117  32
   2024 03 15 12:30  12 15 02.48    +02 01 48.9   0.0105 1.0050 171.7 A   21?   0.47 136.8   22 254 117  32
   2024 03 15 12:40  12 15 02.73    +02 01 45.4   0.0105 1.0050 171.7 A   21?   0.56 128.4   20 256 117  32
   2024 03 15 12:50  12 15 03.06    +02 01 42.0   0.0105 1.0051 171.7 N   21?   0.66 122.1   18 257 117  33
   2024 03 15 13:00  12 15 03.47    +02 01 38.5   0.0105 1.0051 171.7 N   21?   0.76 117.5   16 259 117  33
   2024 03 15 13:10  12 15 03.96    +02 01 34.9   0.0105 1.0051 171.7 N   21?   0.87 113.9   14 261 117  33
   2024 03 15 13:20  12 15 04.53    +02 01 31.4   0.0105 1.0051 171.7 C   21?   0.98 111.0   12 262 116  33
   2024 03 15 13:30  12 15 05.18    +02 01 27.9   0.0105 1.0051 171.7 C   21?   1.10 108.8   10 264 116  33
   ................
   2024 03 16 02:10  12 17 54.37    +01 58 02.6   0.0106 1.0052 171.5 Nr  21?   1.72  95.8    0  87 110  38
   2024 03 16 02:20  12 17 55.47    +01 58 00.9   0.0106 1.0052 171.5 Nm  21?   1.59  96.3    1  88 110  38
   2024 03 16 02:30  12 17 56.48    +01 57 59.2   0.0106 1.0052 171.5 Nm  21?   1.47  96.8    3  90 110  38
   2024 03 16 02:40  12 17 57.41    +01 57 57.4   0.0105 1.0052 171.5 Am  21?   1.34  97.5    5  92 110  38
   2024 03 16 02:50  12 17 58.26    +01 57 55.7   0.0105 1.0052 171.5 Am  21?   1.22  98.3    7  93 110  38
   2024 03 16 03:00  12 17 59.02    +01 57 53.9   0.0105 1.0052 171.5 Am  21?   1.09  99.2    9  95 110  38
   2024 03 16 03:10  12 17 59.70    +01 57 52.1   0.0105 1.0052 171.5 Am  21?   0.97 100.4   11  96 110  38
   2024 03 16 03:20  12 18 00.29    +01 57 50.4   0.0105 1.0052 171.5  m  21?   0.85 102.0   13  98 110  38
   2024 03 16 03:30  12 18 00.81    +01 57 48.6   0.0105 1.0052 171.5  m  21?   0.74 104.1   15  99 110  38
   2024 03 16 03:40  12 18 01.25    +01 57 46.8   0.0105 1.0052 171.5  m  21?   0.62 106.9   17 101 110  38
   2024 03 16 03:50  12 18 01.60    +01 57 45.0   0.0105 1.0052 171.5  m  21?   0.51 110.9   19 103 110  39
   2024 03 16 04:00  12 18 01.88    +01 57 43.1   0.0105 1.0052 171.5  m  21?   0.41 116.9   21 104 110  39
   2024 03 16 04:10  12 18 02.09    +01 57 41.3   0.0105 1.0052 171.5  m  21?   0.31 126.7   23 106 110  39
   2024 03 16 04:20  12 18 02.22    +01 57 39.4   0.0105 1.0052 171.5  m  21?   0.23 143.4   25 108 109  39
   2024 03 16 04:30  12 18 02.27    +01 57 37.5   0.0105 1.0052 171.5  m  21?   0.19 170.4   26 110 109  39
   2024 03 16 04:40  12 18 02.26    +01 57 35.6   0.0105 1.0052 171.5  m  21?   0.21 200.5   28 112 109  39
   2024 03 16 04:50  12 18 02.18    +01 57 33.7   0.0105 1.0052 171.5  m  21?   0.26 221.5   30 114 109  39
   2024 03 16 05:00  12 18 02.03    +01 57 31.7   0.0105 1.0052 171.5  m  21?   0.34 233.8   32 116 109  39
   2024 03 16 05:10  12 18 01.82    +01 57 29.7   0.0105 1.0053 171.6  m  21?   0.42 241.1   34 118 109  39
   2024 03 16 05:20  12 18 01.54    +01 57 27.7   0.0105 1.0053 171.6  m  21?   0.50 245.8   35 120 109  39
   2024 03 16 05:30  12 18 01.21    +01 57 25.6   0.0105 1.0053 171.6  m  21?   0.58 249.1   37 122 109  39
   2024 03 16 05:40  12 18 00.82    +01 57 23.5   0.0105 1.0053 171.6  m  21?   0.66 251.3   39 125 109  39
   2024 03 16 05:50  12 18 00.38    +01 57 21.4   0.0105 1.0053 171.6  m  21?   0.73 253.0   40 127 109  39
   2024 03 16 06:00  12 17 59.89    +01 57 19.3   0.0105 1.0053 171.6  m  21?   0.81 254.3   42 130 109  39
   2024 03 16 06:10  12 17 59.35    +01 57 17.1   0.0105 1.0053 171.6  m  21?   0.87 255.3   43 133 109  39
   2024 03 16 06:20  12 17 58.76    +01 57 14.9   0.0105 1.0053 171.6  m  21?   0.94 256.1   45 136 108  39
   2024 03 16 06:30  12 17 58.14    +01 57 12.6   0.0105 1.0053 171.6  m  21?   0.99 256.7   46 139 108  40
   2024 03 16 06:40  12 17 57.47    +01 57 10.3   0.0105 1.0053 171.6  m  21?   1.05 257.2   47 142 108  40
   2024 03 16 06:50  12 17 56.77    +01 57 08.0   0.0105 1.0053 171.6  m  21?   1.10 257.6   48 145 108  40
   2024 03 16 07:00  12 17 56.04    +01 57 05.6   0.0105 1.0053 171.6  m  21?   1.14 257.9   50 149 108  40
   2024 03 16 07:10  12 17 55.28    +01 57 03.2   0.0105 1.0053 171.7  m  21?   1.18 258.1   50 152 108  40
   2024 03 16 07:20  12 17 54.50    +01 57 00.8   0.0105 1.0053 171.7  m  21?   1.21 258.2   51 156 108  40
   2024 03 16 07:30  12 17 53.70    +01 56 58.3   0.0105 1.0053 171.7  m  21?   1.24 258.3   52 160 108  40
   2024 03 16 07:40  12 17 52.88    +01 56 55.8   0.0105 1.0053 171.7  m  21?   1.27 258.3   53 164 108  40
   2024 03 16 07:50  12 17 52.05    +01 56 53.2   0.0105 1.0053 171.7  m  21?   1.28 258.3   53 168 108  40
   2024 03 16 08:00  12 17 51.20    +01 56 50.6   0.0105 1.0053 171.7  m  21?   1.30 258.2   53 173 108  40
   2024 03 16 08:10  12 17 50.36    +01 56 48.0   0.0105 1.0053 171.7  m  21?   1.30 258.1   54 177 107  40
   2024 03 16 08:20  12 17 49.51    +01 56 45.3   0.0105 1.0053 171.7  t  21?   1.30 258.0   54 181 107  40
   2024 03 16 08:30  12 17 48.66    +01 56 42.5   0.0105 1.0053 171.7  m  21?   1.30 257.7   53 185 107  40
   2024 03 16 08:40  12 17 47.81    +01 56 39.8   0.0105 1.0053 171.7     21?   1.29 257.5   53 190 107  41
   2024 03 16 08:50  12 17 46.98    +01 56 37.0   0.0105 1.0053 171.8     21?   1.28 257.1   53 194 107  41
   2024 03 16 09:00  12 17 46.15    +01 56 34.1   0.0105 1.0053 171.8     21?   1.26 256.7   52 198 107  41
   2024 03 16 09:10  12 17 45.35    +01 56 31.2   0.0105 1.0053 171.8     21?   1.23 256.3   51 202 107  41
   2024 03 16 09:20  12 17 44.56    +01 56 28.3   0.0105 1.0053 171.8     21?   1.20 255.7   51 206 107  41
   2024 03 16 09:30  12 17 43.80    +01 56 25.3   0.0105 1.0053 171.8     21?   1.16 255.1   50 209 107  41
   2024 03 16 09:40  12 17 43.06    +01 56 22.3   0.0105 1.0053 171.8     21?   1.12 254.3   49 213 106  41
   2024 03 16 09:50  12 17 42.35    +01 56 19.3   0.0105 1.0053 171.8     21?   1.08 253.5   48 216 106  41
   2024 03 16 10:00  12 17 41.68    +01 56 16.2   0.0105 1.0053 171.8     21?   1.03 252.4   46 219 106  41
   2024 03 16 10:10  12 17 41.05    +01 56 13.1   0.0105 1.0053 171.8     21?   0.97 251.2   45 222 106  41
   2024 03 16 10:20  12 17 40.45    +01 56 09.9   0.0105 1.0053 171.8     21?   0.92 249.7   44 225 106  41
   2024 03 16 10:30  12 17 39.90    +01 56 06.8   0.0105 1.0053 171.8     21?   0.85 247.9   42 228 106  41
   2024 03 16 10:40  12 17 39.39    +01 56 03.5   0.0105 1.0053 171.9     21?   0.79 245.7   41 231 106  42
   2024 03 16 10:50  12 17 38.94    +01 56 00.3   0.0105 1.0053 171.9     21?   0.72 243.0   39 233 106  42
   2024 03 16 11:00  12 17 38.54    +01 55 57.0   0.0105 1.0053 171.9     21?   0.65 239.5   37 236 106  42
   2024 03 16 11:10  12 17 38.19    +01 55 53.7   0.0105 1.0053 171.9     21?   0.58 235.0   36 238 105  42
   2024 03 16 11:20  12 17 37.90    +01 55 50.3   0.0105 1.0053 171.9     21?   0.51 229.0   34 241 105  42
   2024 03 16 11:30  12 17 37.68    +01 55 47.0   0.0105 1.0053 171.9     21?   0.45 220.9   32 243 105  42
   2024 03 16 11:40  12 17 37.51    +01 55 43.6   0.0105 1.0053 171.9     21?   0.39 209.9   31 245 105  42
   2024 03 16 11:50  12 17 37.42    +01 55 40.2   0.0105 1.0053 171.9     21?   0.36 195.6   29 247 105  42
   2024 03 16 12:00  12 17 37.39    +01 55 36.7   0.0105 1.0053 171.9     21?   0.35 178.7   27 249 105  42
   2024 03 16 12:10  12 17 37.43    +01 55 33.2   0.0105 1.0053 171.9     21?   0.37 161.8   25 251 105  42
   2024 03 16 12:20  12 17 37.54    +01 55 29.8   0.0105 1.0053 171.9 A   21?   0.41 147.4   23 252 105  43
   2024 03 16 12:30  12 17 37.73    +01 55 26.2   0.0105 1.0053 171.9 A   21?   0.49 136.3   21 254 104  43
   2024 03 16 12:40  12 17 37.99    +01 55 22.7   0.0105 1.0053 171.9 A   21?   0.57 128.1   19 256 104  43
   2024 03 16 12:50  12 17 38.33    +01 55 19.2   0.0105 1.0053 171.9 N   21?   0.67 122.0   17 258 104  43
   2024 03 16 13:00  12 17 38.74    +01 55 15.6   0.0106 1.0053 171.9 N   21?   0.77 117.4   15 259 104  43
   2024 03 16 13:10  12 17 39.24    +01 55 12.1   0.0106 1.0054 172.0 N   21?   0.88 113.9   13 261 104  43
   2024 03 16 13:20  12 17 39.82    +01 55 08.5   0.0106 1.0054 172.0 C   21?   0.99 111.1   11 262 104  43
   2024 03 16 13:30  12 17 40.48    +01 55 04.9   0.0106 1.0054 172.0 C   21?   1.11 108.8   10 264 104  43
   ................
   2024 03 17 02:10  12 20 29.25    +01 51 31.9   0.0106 1.0055 171.7 Nr  21?   1.69  96.4    0  87  98  49
   2024 03 17 02:20  12 20 30.33    +01 51 30.0   0.0106 1.0055 171.7 Nm  21?   1.57  97.0    1  89  98  49
   2024 03 17 02:30  12 20 31.33    +01 51 28.1   0.0106 1.0055 171.7 Nm  21?   1.45  97.6    3  90  98  49
   2024 03 17 02:40  12 20 32.24    +01 51 26.1   0.0106 1.0055 171.7 Nm  21?   1.32  98.3    5  92  97  49
   2024 03 17 02:50  12 20 33.07    +01 51 24.2   0.0106 1.0055 171.7 Am  21?   1.20  99.2    7  93  97  49
   2024 03 17 03:00  12 20 33.82    +01 51 22.3   0.0106 1.0055 171.7 Am  21?   1.08 100.3    9  95  97  49
   2024 03 17 03:10  12 20 34.49    +01 51 20.4   0.0106 1.0055 171.7 Am  21?   0.96 101.6   11  97  97  49
   2024 03 17 03:20  12 20 35.07    +01 51 18.4   0.0106 1.0055 171.7  m  21?   0.84 103.4   13  98  97  49
   2024 03 17 03:30  12 20 35.57    +01 51 16.5   0.0106 1.0055 171.7  m  21?   0.72 105.7   15 100  97  49
   2024 03 17 03:40  12 20 36.00    +01 51 14.5   0.0106 1.0055 171.8  m  21?   0.61 108.9   17 101  97  49
   2024 03 17 03:50  12 20 36.34    +01 51 12.5   0.0106 1.0055 171.8  m  21?   0.50 113.4   19 103  97  49
   2024 03 17 04:00  12 20 36.61    +01 51 10.5   0.0106 1.0055 171.8  m  21?   0.40 120.2   21 105  97  49
   2024 03 17 04:10  12 20 36.80    +01 51 08.5   0.0106 1.0055 171.8  m  21?   0.31 131.1   23 107  97  49
   2024 03 17 04:20  12 20 36.92    +01 51 06.5   0.0106 1.0055 171.8  m  21?   0.24 149.1   25 108  97  49
   2024 03 17 04:30  12 20 36.96    +01 51 04.4   0.0106 1.0055 171.8  m  21?   0.21 175.6   27 110  97  49
   2024 03 17 04:40  12 20 36.94    +01 51 02.4   0.0106 1.0055 171.8  m  21?   0.23 202.8   28 112  97  49
   2024 03 17 04:50  12 20 36.85    +01 51 00.3   0.0106 1.0055 171.8  m  21?   0.28 221.7   30 114  97  49
   2024 03 17 05:00  12 20 36.69    +01 50 58.1   0.0106 1.0055 171.8  m  21?   0.36 233.1   32 116  97  49
   2024 03 17 05:10  12 20 36.47    +01 50 56.0   0.0106 1.0055 171.8  m  21?   0.44 240.2   34 118  97  50
   2024 03 17 05:20  12 20 36.18    +01 50 53.8   0.0106 1.0055 171.8  m  21?   0.52 244.9   36 121  96  50
   2024 03 17 05:30  12 20 35.84    +01 50 51.6   0.0106 1.0056 171.8  m  21?   0.60 248.1   37 123  96  50
   2024 03 17 05:40  12 20 35.45    +01 50 49.4   0.0105 1.0056 171.8  m  21?   0.67 250.4   39 125  96  50
   2024 03 17 05:50  12 20 35.00    +01 50 47.1   0.0105 1.0056 171.8  m  21?   0.75 252.2   40 128  96  50
   2024 03 17 06:00  12 20 34.50    +01 50 44.8   0.0105 1.0056 171.8  m  21?   0.82 253.5   42 131  96  50
   2024 03 17 06:10  12 20 33.95    +01 50 42.5   0.0105 1.0056 171.9  m  21?   0.89 254.6   43 133  96  50
   2024 03 17 06:20  12 20 33.36    +01 50 40.1   0.0105 1.0056 171.9  m  21?   0.95 255.4   45 136  96  50
   2024 03 17 06:30  12 20 32.73    +01 50 37.7   0.0105 1.0056 171.9  m  21?   1.01 256.0   46 139  96  50
   2024 03 17 06:40  12 20 32.06    +01 50 35.3   0.0105 1.0056 171.9  m  21?   1.06 256.6   47 143  96  50
   2024 03 17 06:50  12 20 31.35    +01 50 32.8   0.0105 1.0056 171.9  m  21?   1.11 257.0   48 146  96  50
   2024 03 17 07:00  12 20 30.62    +01 50 30.3   0.0105 1.0056 171.9  m  21?   1.15 257.3   50 149  96  50
   2024 03 17 07:10  12 20 29.86    +01 50 27.8   0.0105 1.0056 171.9  m  21?   1.19 257.5   50 153  96  50
   2024 03 17 07:20  12 20 29.07    +01 50 25.2   0.0105 1.0056 171.9  m  21?   1.22 257.7   51 157  96  50
   2024 03 17 07:30  12 20 28.27    +01 50 22.6   0.0105 1.0056 171.9  m  21?   1.25 257.8   52 161  95  50
   2024 03 17 07:40  12 20 27.45    +01 50 19.9   0.0105 1.0056 171.9  m  21?   1.27 257.8   53 165  95  50
   2024 03 17 07:50  12 20 26.61    +01 50 17.2   0.0105 1.0056 171.9  m  21?   1.29 257.8   53 169  95  51
   2024 03 17 08:00  12 20 25.77    +01 50 14.5   0.0105 1.0056 172.0  m  21?   1.30 257.7   53 173  95  51
   2024 03 17 08:10  12 20 24.92    +01 50 11.7   0.0105 1.0056 172.0  m  21?   1.30 257.6   53 177  95  51
   2024 03 17 08:20  12 20 24.07    +01 50 08.9   0.0105 1.0056 172.0  t  21?   1.31 257.5   53 182  95  51
   2024 03 17 08:30  12 20 23.22    +01 50 06.1   0.0105 1.0056 172.0  m  21?   1.30 257.2   53 186  95  51
   2024 03 17 08:40  12 20 22.38    +01 50 03.2   0.0105 1.0056 172.0  m  21?   1.29 257.0   53 190  95  51
   2024 03 17 08:50  12 20 21.55    +01 50 00.3   0.0105 1.0056 172.0  m  21?   1.28 256.6   53 194  95  51
   2024 03 17 09:00  12 20 20.73    +01 49 57.3   0.0105 1.0056 172.0  m  21?   1.25 256.2   52 198  95  51
   2024 03 17 09:10  12 20 19.92    +01 49 54.3   0.0105 1.0056 172.0  m  21?   1.23 255.7   51 202  94  51
   2024 03 17 09:20  12 20 19.14    +01 49 51.3   0.0105 1.0056 172.0  m  21?   1.20 255.2   50 206  94  51
   2024 03 17 09:30  12 20 18.38    +01 49 48.3   0.0105 1.0056 172.0  m  21?   1.16 254.5   50 210  94  51
   2024 03 17 09:40  12 20 17.64    +01 49 45.1   0.0105 1.0056 172.1     21?   1.12 253.8   48 213  94  51
   2024 03 17 09:50  12 20 16.94    +01 49 42.0   0.0105 1.0056 172.1     21?   1.07 252.9   47 217  94  51
   2024 03 17 10:00  12 20 16.28    +01 49 38.8   0.0105 1.0056 172.1     21?   1.02 251.8   46 220  94  52
   2024 03 17 10:10  12 20 15.65    +01 49 35.6   0.0106 1.0056 172.1     21?   0.97 250.5   45 223  94  52
   2024 03 17 10:20  12 20 15.06    +01 49 32.4   0.0106 1.0056 172.1     21?   0.91 249.0   43 226  94  52
   2024 03 17 10:30  12 20 14.51    +01 49 29.1   0.0106 1.0056 172.1     21?   0.85 247.2   42 229  94  52
   2024 03 17 10:40  12 20 14.01    +01 49 25.8   0.0106 1.0056 172.1     21?   0.78 244.9   40 231  94  52
   2024 03 17 10:50  12 20 13.57    +01 49 22.5   0.0106 1.0056 172.1     21?   0.72 242.0   39 234  93  52
   2024 03 17 11:00  12 20 13.17    +01 49 19.1   0.0106 1.0056 172.1     21?   0.65 238.4   37 236  93  52
   2024 03 17 11:10  12 20 12.83    +01 49 15.7   0.0106 1.0056 172.1     21?   0.58 233.7   35 238  93  52
   2024 03 17 11:20  12 20 12.55    +01 49 12.3   0.0106 1.0056 172.1     21?   0.51 227.5   34 241  93  52
   2024 03 17 11:30  12 20 12.33    +01 49 08.9   0.0106 1.0056 172.1     21?   0.45 219.1   32 243  93  52
   2024 03 17 11:40  12 20 12.18    +01 49 05.4   0.0106 1.0056 172.2     21?   0.39 207.9   30 245  93  52
   2024 03 17 11:50  12 20 12.09    +01 49 01.9   0.0106 1.0056 172.2     21?   0.36 193.4   28 247  93  53
   2024 03 17 12:00  12 20 12.06    +01 48 58.4   0.0106 1.0056 172.2     21?   0.35 176.8   27 249  93  53
   2024 03 17 12:10  12 20 12.11    +01 48 54.9   0.0106 1.0056 172.2     21?   0.38 160.3   25 251  93  53
   2024 03 17 12:20  12 20 12.23    +01 48 51.3   0.0106 1.0056 172.2 A   21?   0.43 146.4   23 252  92  53
   2024 03 17 12:30  12 20 12.43    +01 48 47.7   0.0106 1.0056 172.2 A   21?   0.50 135.7   21 254  92  53
   2024 03 17 12:40  12 20 12.70    +01 48 44.2   0.0106 1.0056 172.2 A   21?   0.59 127.8   19 256  92  53
   2024 03 17 12:50  12 20 13.05    +01 48 40.6   0.0106 1.0056 172.2 N   21?   0.68 121.9   17 258  92  53
   2024 03 17 13:00  12 20 13.47    +01 48 36.9   0.0106 1.0056 172.2 N   21?   0.79 117.4   15 259  92  53
   2024 03 17 13:10  12 20 13.98    +01 48 33.3   0.0106 1.0056 172.2 N   21?   0.89 113.9   13 261  92  53
   2024 03 17 13:20  12 20 14.56    +01 48 29.7   0.0106 1.0056 172.2 C   21?   1.01 111.1   11 262  92  53
   2024 03 17 13:30  12 20 15.23    +01 48 26.0   0.0106 1.0056 172.2 C   21?   1.12 108.9    9 264  92  54
   ................
   

MMS-1 (JPL-ID: -140482)

   Date (UTC) HH:MM   RA              Dec         delta   r     elong SM  mag  '/hr    PA   alt  az moo ill
   ---- -- -- -----  -------------   -----------  ------ ------ ----- --  --- ------ ------ --- --- --- ---
   2024 03 09 01:50  00 34 21.60    -09 45 25.7    67908 0.9925  19.5 C   14? 153.28  40.9    7 251  35   2
   2024 03 09 02:00  00 35 31.37    -09 25 45.5    66547 0.9925  19.7 C   14? 160.75  41.6    6 253  35   2
   2024 03 09 02:10  00 36 45.44    -09 05 19.3    65162 0.9925  20.0 N   14? 168.78  42.2    4 254  35   2
   2024 03 09 02:20  00 38 04.14    -08 44 03.9    63750 0.9925  20.2 N   14? 177.44  42.8    3 256  36   2
   2024 03 09 02:30  00 39 27.80    -08 21 55.2    62311 0.9925  20.5 N   14? 186.80  43.4    2 257  36   2
   2024 03 09 02:40  00 40 56.81    -07 58 48.9    60841 0.9926  20.8 A   13? 196.94  44.0    0 259  36   2
   ................
   2024 03 09 06:30  03 13 27.54    +20 16 06.3     8869 0.9930  62.5  r   8? 4338.2  62.9    2 293  78   2
   2024 03 09 06:40  04 33 09.62    +26 47 02.4     4256 0.9930  81.8      6?  12309  78.3   19 289  97   2
   2024 03 09 06:50  12 34 00.76    -11 53 10.5     2053 0.9930 155.2  t   6?  45047 120.3   31 141 139   1
   ................
   2024 03 16 01:50  00 27 15.51    -10 38 13.0    78203 0.9943  13.9 Cm  14? 128.92  42.1    0 256  71  38
   ................
   2024 03 16 07:50  05 35 24.53    +18 18 32.0     4839 0.9949  88.2  r   6?  14497 103.4    8 286  12  40
   2024 03 16 08:00  11 06 18.37    -25 20 22.2     2808 0.9949 151.4  e   7?  38547 118.5   25 193 103  40
   2024 03 16 08:10  15 02 20.69    -42 59 02.9     6819 0.9949 117.1  t   8? 8186.2 102.6    0 150 152  40
   ................
   

MMS-2 (JPL-ID: -140483)

   Date (UTC) HH:MM   RA              Dec         delta   r     elong SM  mag  '/hr    PA   alt  az moo ill
   ---- -- -- -----  -------------   -----------  ------ ------ ----- --  --- ------ ------ --- --- --- ---
   2024 03 09 01:50  00 34 29.88    -09 45 09.6    67849 0.9925  19.6 C   14? 153.58  40.9    7 251  35   2
   2024 03 09 02:00  00 35 39.82    -09 25 27.4    66487 0.9925  19.8 C   14? 161.08  41.6    6 252  35   2
   2024 03 09 02:10  00 36 54.07    -09 04 59.0    65101 0.9925  20.0 N   14? 169.13  42.2    4 254  35   2
   2024 03 09 02:20  00 38 12.95    -08 43 41.2    63688 0.9925  20.2 N   14? 177.82  42.8    3 256  36   2
   2024 03 09 02:30  00 39 36.81    -08 21 29.9    62248 0.9925  20.5 N   14? 187.20  43.4    2 257  36   2
   2024 03 09 02:40  00 41 06.04    -07 58 20.9    60777 0.9926  20.8 A   13? 197.38  44.0    0 259  36   2
   ................
   2024 03 09 06:30  03 15 14.29    +20 29 20.1     8716 0.9930  63.0  r   8? 4443.0  63.1    3 293  79   2
   2024 03 09 06:40  04 38 48.89    +27 05 46.8     4094 0.9930  83.1      6?  13128  79.1   20 288  99   2
   2024 03 09 06:50  12 48 00.76    -13 38 34.7     2187 0.9930 151.4  t   6?  40320 120.0   28 139 135   1
   ................
   2024 03 16 01:50  00 27 23.31    -10 38 00.7    78136 0.9943  13.9 Cm  14? 129.16  42.1    0 256  71  38
   ................
   2024 03 16 07:50  05 42 52.01    +17 57 26.7     4651 0.9949  90.0  r   6?  15503 104.6    9 285  14  40
   2024 03 16 08:00  11 24 00.14    -27 12 37.5     2910 0.9949 150.7  e   7?  35992 117.3   24 189 108  40
   2024 03 16 08:10  15 07 15.27    -43 04 27.3     7007 0.9949 116.3  m   8? 7848.7 102.5    0 149 152  40
   ................
   

MMS-3 (JPL-ID: -140484)

   Date (UTC) HH:MM   RA              Dec         delta   r     elong SM  mag  '/hr    PA   alt  az moo ill
   ---- -- -- -----  -------------   -----------  ------ ------ ----- --  --- ------ ------ --- --- --- ---
   2024 03 09 01:50  00 34 30.40    -09 44 29.8    67853 0.9925  19.6 C   14? 153.60  41.0    7 251  35   2
   2024 03 09 02:00  00 35 40.34    -09 24 47.4    66492 0.9925  19.8 C   14? 161.09  41.6    6 252  35   2
   2024 03 09 02:10  00 36 54.60    -09 04 19.0    65106 0.9925  20.0 N   14? 169.14  42.2    4 254  35   2
   2024 03 09 02:20  00 38 13.48    -08 43 01.1    63694 0.9925  20.2 N   14? 177.83  42.8    3 256  36   2
   2024 03 09 02:30  00 39 37.35    -08 20 49.7    62253 0.9925  20.5 N   14? 187.22  43.4    2 257  36   2
   2024 03 09 02:40  00 41 06.58    -07 57 40.6    60783 0.9926  20.8 A   13? 197.39  44.0    0 259  36   2
   ................
   2024 03 09 06:30  03 15 06.05    +20 28 42.6     8740 0.9930  63.0  r   8? 4430.6  63.1    3 293  79   2
   2024 03 09 06:40  04 38 09.79    +27 04 29.0     4121 0.9930  82.9      6?  13007  79.0   20 288  99   2
   2024 03 09 06:50  12 45 27.67    -13 17 11.0     2166 0.9930 152.1  t   6?  41072 120.1   28 139 136   1
   ................
   2024 03 16 01:50  00 27 24.43    -10 37 15.2    78127 0.9943  13.9 Cm  14? 129.21  42.1    0 256  71  38
   ................
   2024 03 16 07:50  05 43 44.38    +17 55 52.8     4634 0.9949  90.2  r   6?  15608 104.8    9 285  14  40
   2024 03 16 08:00  11 25 30.63    -27 20 18.9     2923 0.9949 150.6  e   7?  35731 117.3   24 188 108  40
   2024 03 16 08:10  15 07 32.18    -43 04 32.1     7024 0.9949 116.3  m   8? 7823.4 102.5    0 149 153  40
   ................
   

MMS-4 (JPL-ID: -140485)

   Date (UTC) HH:MM   RA              Dec         delta   r     elong SM  mag  '/hr    PA   alt  az moo ill
   ---- -- -- -----  -------------   -----------  ------ ------ ----- --  --- ------ ------ --- --- --- ---
   2024 03 09 01:50  00 34 30.28    -09 44 45.4    67822 0.9925  19.6 C   14? 153.68  41.0    7 251  35   2
   2024 03 09 02:00  00 35 40.27    -09 25 02.6    66461 0.9925  19.8 C   14? 161.18  41.6    6 252  35   2
   2024 03 09 02:10  00 36 54.58    -09 04 33.7    65074 0.9925  20.0 N   14? 169.24  42.2    4 254  35   2
   2024 03 09 02:20  00 38 13.53    -08 43 15.2    63661 0.9925  20.2 N   14? 177.94  42.9    3 256  36   2
   2024 03 09 02:30  00 39 37.46    -08 21 03.2    62220 0.9925  20.5 N   14? 187.34  43.4    2 257  36   2
   2024 03 09 02:40  00 41 06.77    -07 57 53.3    60749 0.9926  20.8 A   13? 197.53  44.0    0 259  36   2
   ................
   2024 03 09 06:30  03 16 01.58    +20 35 08.0     8638 0.9930  63.2  r   8? 4494.8  63.3    3 293  79   2
   2024 03 09 06:40  04 41 38.37    +27 13 22.0     4010 0.9930  83.7      5?  13573  79.6   21 288  99   2
   2024 03 09 06:50  12 54 54.25    -14 34 33.8     2257 0.9930 149.5  t   6?  38081 119.8   26 138 133   1
   ................
   2024 03 16 01:50  00 27 23.49    -10 37 38.3    78111 0.9943  13.9 Cm  14? 129.22  42.2    0 256  71  38
   ................
   2024 03 16 07:50  05 46 02.90    +17 45 29.1     4570 0.9949  90.7  r   6?  15968 105.2    9 284  15  40
   2024 03 16 08:00  11 31 25.02    -28 01 57.8     2958 0.9949 150.1  e   7?  34883 116.8   23 187 110  40
   2024 03 16 08:10  15 09 27.42    -43 08 48.4     7090 0.9949 115.9  m   8? 7705.3 102.4    0 149 153  40
   ................
   

Website generated with AmrumHtml. Date: 03-04-2024